
Distance (Route):
Temperature : 13.7°C
Humidity : 84.5%
Pressure : 972.2hPa| Receiver | Frames | First received | Last received |
|---|---|---|---|
| BIOWL1-15 | 871 | 2026-09-01 22:46:08 | 2026-09-02 01:12:26 |
| DM0DOS-11 | 724 | 2026-09-01 22:45:48 | 2026-09-02 01:12:28 |
| DL1XH-west | 625 | 2026-09-01 23:03:57 | 2026-09-02 01:05:00 |
| HSKMA3-T | 505 | 2026-09-01 23:20:48 | 2026-09-02 01:08:51 |
| DL1XH1-15 | 409 | 2026-09-01 23:07:12 | 2026-09-02 01:05:07 |
| AA1-15 | 356 | 2026-09-01 23:31:07 | 2026-09-02 00:53:57 |
| DL1NUX | 332 | 2026-09-01 23:24:21 | 2026-09-02 01:00:13 |
| DL1XH-15 | 314 | 2026-09-01 23:18:38 | 2026-09-02 00:57:19 |
| DO2JMG | 313 | 2026-09-01 23:08:23 | 2026-09-02 01:03:19 |
| DD8BA-10 | 243 | 2026-09-01 22:51:41 | 2026-09-02 01:06:34 |
| DF8AY | 228 | 2026-09-01 23:41:48 | 2026-09-02 00:53:58 |
| DO3DL | 166 | 2026-09-01 22:45:22 | 2026-09-02 01:09:20 |
| GOEST3-10 | 155 | 2026-09-01 23:05:21 | 2026-09-02 00:57:02 |
| DO2SHX-10 | 107 | 2026-09-01 23:55:55 | 2026-09-02 00:37:06 |
| DJ2DS-15 | 94 | 2026-09-01 22:53:26 | 2026-09-02 01:07:12 |
| DL3AQ-11 | 90 | 2026-09-01 23:13:39 | 2026-09-02 01:08:08 |
| DH3RM | 74 | 2026-09-01 22:47:46 | 2026-09-02 00:19:07 |
| DL4BBY-15 | 68 | 2026-09-01 22:57:17 | 2026-09-02 01:05:14 |
| DJ8HS-15 | 68 | 2026-09-01 23:20:43 | 2026-09-02 00:57:03 |
| DJ2KF-10 | 62 | 2026-09-01 22:52:43 | 2026-09-02 00:56:38 |
| BIOWL9-15 | 55 | 2026-09-01 22:46:46 | 2026-09-02 01:12:43 |
| DD1CC1-15 | 55 | 2026-09-01 22:48:16 | 2026-09-02 01:11:43 |
| SO1NDE-10 | 54 | 2026-09-01 23:24:22 | 2026-09-02 00:59:25 |
| DO9LL-15 | 53 | 2026-09-01 22:47:00 | 2026-09-02 01:10:04 |
| DD1CC3-15 | 50 | 2026-09-01 22:46:56 | 2026-09-02 01:11:12 |
| DO3MHA-11 | 50 | 2026-09-01 23:34:46 | 2026-09-02 00:45:10 |
| WPPR-10 | 49 | 2026-09-01 22:51:01 | 2026-09-02 01:06:39 |
| AU51GT2 | 49 | 2026-09-01 22:52:29 | 2026-09-02 01:07:02 |
| DO3MHA-12 | 49 | 2026-09-01 23:37:46 | 2026-09-02 00:47:50 |
| HTAHTA | 48 | 2026-09-01 22:56:04 | 2026-09-02 01:03:54 |
| DO2KSM | 46 | 2026-09-01 22:46:55 | 2026-09-02 01:05:15 |
| DO1YAY-16 | 45 | 2026-09-01 22:50:26 | 2026-09-02 00:59:18 |
| DD1CC2-15 | 45 | 2026-09-01 22:52:16 | 2026-09-02 01:08:58 |
| DB0UT-7 | 42 | 2026-09-01 22:48:49 | 2026-09-02 01:08:59 |
| DD1CC9-15 | 41 | 2026-09-01 22:47:14 | 2026-09-02 01:08:55 |
| DL8DAS-14 | 38 | 2026-09-01 22:56:05 | 2026-09-02 01:02:16 |
| DK9SH | 37 | 2026-09-01 22:54:51 | 2026-09-02 01:08:33 |
| DD1CC8 | 35 | 2026-09-01 22:50:38 | 2026-09-02 01:11:24 |
| DB0NH | 34 | 2026-09-01 23:12:45 | 2026-09-02 00:58:14 |
| DL8DAS-15 | 32 | 2026-09-01 22:47:06 | 2026-09-02 01:04:36 |
| SONCRA | 31 | 2026-09-01 23:20:25 | 2026-09-02 01:04:27 |
| DF7PN | 31 | 2026-09-01 23:43:55 | 2026-09-02 01:02:06 |
| DB0ND-19 | 24 | 2026-09-01 22:53:44 | 2026-09-02 01:08:44 |
| DJ3KS | 21 | 2026-09-01 22:57:20 | 2026-09-02 00:37:08 |
| BIOWL7-15 | 19 | 2026-09-01 22:47:02 | 2026-09-02 01:05:48 |
| WEDDY | 18 | 2026-09-01 22:55:55 | 2026-09-02 00:43:31 |
| BUE01 | 18 | 2026-09-01 23:12:24 | 2026-09-02 01:05:13 |
| NBG1-10 | 16 | 2026-09-01 23:07:28 | 2026-09-02 00:32:44 |
| SONDE2-11 | 16 | 2026-09-02 00:00:20 | 2026-09-02 00:53:32 |
| DB0DAN | 14 | 2026-09-02 01:00:40 | 2026-09-02 01:06:55 |
| DL1CLM-18 | 11 | 2026-09-01 23:14:34 | 2026-09-02 01:03:14 |
| EDDB2-11 | 11 | 2026-09-02 00:04:04 | 2026-09-02 00:53:44 |
| EDDB2-12 | 10 | 2026-09-02 00:14:34 | 2026-09-02 00:49:45 |
| DL4XJ-10 | 8 | 2026-09-02 00:12:33 | 2026-09-02 00:57:45 |
| S3001 | 7 | 2026-09-01 23:38:32 | 2026-09-02 00:15:48 |
| DL1LOL-11 | 5 | 2026-09-01 23:16:46 | 2026-09-02 01:08:09 |
| AM1SDL-15 | 4 | 2026-09-01 23:27:06 | 2026-09-01 23:44:06 |
| MET0W-2 | 3 | 2026-09-01 23:03:46 | 2026-09-01 23:33:48 |
| DL1ZP-14 | 2 | 2026-09-01 23:04:07 | 2026-09-01 23:05:09 |
| DJTTGO | 2 | 2026-09-02 00:28:35 | 2026-09-02 00:30:13 |
| DF5WG-10 | 1 | 2026-09-01 23:31:05 | 2026-09-01 23:31:05 |
| SMARD9-10 | 1 | 2026-09-02 00:20:13 | 2026-09-02 00:20:13 |
| Receiver | Date | Latitude | Longitude | Direction | Speed | Altitude | Climb | Temperature | Humidity | Pressure | Voltage | Killtimer | Uptime | BKT | XDATA |
|---|---|---|---|---|---|---|---|---|---|---|---|---|---|---|---|
| BIOWL9-15 | 2026-09-02 01:12:43 | 51.43398 | 8.21955 | 9° | 9km/h | 447m | -4.6m/s | 13.7°C | 84.5% | 972.2hPa | 2.7V | 00:00:00 | 00:00:00 | 00:00:00 | |
| DM0DOS-11 | 2026-09-02 01:12:28 | 51.43385 | 8.21953 | 5° | 15km/h | 475m | -7.7m/s | 14.1°C | 82.6% | 969.2hPa | 2.7V | 07:53:18 | 02:54:49 | 00:00:00 | |
| BIOWL1-15 | 2026-09-02 01:12:26 | 51.43396 | 8.21954 | 6° | 13km/h | 453m | -7.5m/s | 13.3°C | 85.4% | 971.7hPa | 2.7V | 07:53:52 | 02:54:52 | 00:00:00 | |
| BIOWL1-15 | 2026-09-02 01:12:24 | 51.43389 | 8.21953 | 6° | 15km/h | 468m | -7.5m/s | 14°C | 84.2% | 970hPa | 2.6V | 07:53:52 | 02:54:50 | 00:00:00 | |
| BIOWL1-15 | 2026-09-02 01:12:23 | 51.43385 | 8.21953 | 6° | 15km/h | 475m | -7.7m/s | 14.1°C | 83.9% | 969.2hPa | 2.7V | 07:53:52 | 02:54:49 | 00:00:00 | |
| DM0DOS-11 | 2026-09-02 01:12:22 | 51.43378 | 8.21951 | 4° | 15km/h | 491m | -8.4m/s | 14.9°C | 78% | 967.5hPa | 2.7V | 07:53:20 | 02:54:47 | 00:00:00 | |
| DM0DOS-11 | 2026-09-02 01:12:22 | 51.43371 | 8.21950 | 3° | 13km/h | 507m | -7.8m/s | 15°C | 75.5% | 965.7hPa | 2.7V | 07:53:22 | 02:54:45 | 00:00:00 | |
| BIOWL1-15 | 2026-09-02 01:12:22 | 51.43382 | 8.21952 | 6° | 15km/h | 482m | -8.3m/s | 14.4°C | 82.8% | 968.4hPa | 2.7V | 07:53:52 | 02:54:48 | 00:00:00 | |
| BIOWL1-15 | 2026-09-02 01:12:21 | 51.43378 | 8.21951 | 5° | 15km/h | 491m | -8.4m/s | 14.9°C | 82.1% | 967.5hPa | 2.7V | 07:53:52 | 02:54:47 | 00:00:00 | |
| BIOWL1-15 | 2026-09-02 01:12:19 | 51.43368 | 8.21950 | 3° | 13km/h | 515m | -8.3m/s | 15.1°C | 79% | 964.8hPa | 2.7V | 07:53:52 | 02:54:44 | 00:00:00 | |
| BIOWL1-15 | 2026-09-02 01:12:19 | 51.43365 | 8.21950 | 2° | 13km/h | 523m | -7.8m/s | 15.1°C | 78.4% | 963.9hPa | 2.7V | 07:53:52 | 02:54:43 | 00:00:00 | |
| DM0DOS-11 | 2026-09-02 01:12:16 | 51.43359 | 8.21949 | 3° | 13km/h | 538m | -7.5m/s | 15°C | 70.7% | 962.3hPa | 2.6V | 07:53:26 | 02:54:41 | 00:00:00 | |
| DM0DOS-11 | 2026-09-02 01:12:16 | 51.43345 | 8.21946 | 10° | 15km/h | 567m | -7m/s | 14.9°C | 67.5% | 958.9hPa | 2.7V | 07:53:30 | 02:54:37 | 00:00:00 | |
| BIOWL1-15 | 2026-09-02 01:12:15 | 51.43345 | 8.21946 | 11° | 15km/h | 567m | -7m/s | 14.9°C | 72.9% | 959hPa | 2.7V | 07:53:52 | 02:54:37 | 00:00:00 | |
| BIOWL1-15 | 2026-09-02 01:12:14 | 51.43341 | 8.21945 | 12° | 15km/h | 574m | -6.9m/s | 14.9°C | 73.1% | 958.2hPa | 2.7V | 07:53:52 | 02:54:36 | 00:00:00 | |
| BIOWL1-15 | 2026-09-02 01:12:11 | 51.43338 | 8.21944 | 14° | 15km/h | 581m | -7.4m/s | 14.8°C | 73.2% | 957.5hPa | 2.7V | 07:53:52 | 02:54:35 | 00:00:00 | |
| DM0DOS-11 | 2026-09-02 01:12:10 | 51.43338 | 8.21944 | 14° | 15km/h | 581m | -7.4m/s | 14.8°C | 67.5% | 957.5hPa | 2.7V | 07:53:32 | 02:54:35 | 00:00:00 | |
| DM0DOS-11 | 2026-09-02 01:12:10 | 51.43332 | 8.21941 | 19° | 13km/h | 596m | -7.9m/s | 14.7°C | 67.6% | 955.6hPa | 2.6V | 07:53:34 | 02:54:33 | 00:00:00 | |
| BIOWL1-15 | 2026-09-02 01:12:08 | 51.43335 | 8.21942 | 16° | 13km/h | 588m | -7.7m/s | 14.8°C | 73.5% | 956.5hPa | 2.7V | 07:53:52 | 02:54:34 | 00:00:00 | |
| BIOWL1-15 | 2026-09-02 01:12:06 | 51.43329 | 8.21939 | 17° | 11km/h | 603m | -7.1m/s | 14.7°C | 72% | 955hPa | 2.6V | 07:53:52 | 02:54:32 | 00:00:00 | |
| DM0DOS-11 | 2026-09-02 01:12:04 | 51.43320 | 8.21934 | 21° | 11km/h | 624m | -7.4m/s | 14.5°C | 67.3% | 952.6hPa | 2.7V | 07:53:38 | 02:54:29 | 00:00:00 | |
| DM0DOS-11 | 2026-09-02 01:12:04 | 51.43306 | 8.21924 | 23° | 13km/h | 662m | -8.3m/s | 14.2°C | 71% | 948.1hPa | 2.7V | 07:53:43 | 02:54:24 | 00:00:00 | |
| BIOWL1-15 | 2026-09-02 01:12:04 | 51.43323 | 8.21936 | 22° | 13km/h | 617m | -7m/s | 14.6°C | 72.5% | 953.2hPa | 2.7V | 07:53:52 | 02:54:30 | 00:00:00 | |
| BIOWL1-15 | 2026-09-02 01:12:02 | 51.43318 | 8.21932 | 22° | 13km/h | 632m | -7.8m/s | 14.5°C | 73.8% | 951.8hPa | 2.7V | 07:53:52 | 02:54:28 | 00:00:00 | |
| BIOWL1-15 | 2026-09-02 01:12:01 | 51.43315 | 8.21930 | 22° | 13km/h | 639m | -7.6m/s | 14.4°C | 74.1% | 950.8hPa | 2.6V | 07:53:52 | 02:54:27 | 00:00:00 | |
| BIOWL1-15 | 2026-09-02 01:12:00 | 51.43312 | 8.21929 | 22° | 13km/h | 647m | -7.9m/s | 14.3°C | 75.3% | 949.9hPa | 2.7V | 07:53:52 | 02:54:26 | 00:00:00 | |
| BIOWL1-15 | 2026-09-02 01:11:59 | 51.43303 | 8.21922 | 24° | 11km/h | 670m | -8.5m/s | 14.2°C | 76.7% | 947.2hPa | 2.7V | 07:53:52 | 02:54:23 | 00:00:00 | |
| DM0DOS-11 | 2026-09-02 01:11:59 | 51.43303 | 8.21922 | 24° | 11km/h | 670m | -8.5m/s | 14.2°C | 70.6% | 947.2hPa | 2.7V | 07:53:44 | 02:54:23 | 00:00:00 | |
| DM0DOS-11 | 2026-09-02 01:11:59 | 51.43293 | 8.21914 | 30° | 11km/h | 702m | -8.1m/s | 14°C | 70.2% | 943.5hPa | 2.6V | 07:53:48 | 02:54:19 | 00:00:00 | |
| BIOWL1-15 | 2026-09-02 01:11:58 | 51.43300 | 8.21920 | 27° | 11km/h | 678m | -7.4m/s | 14.1°C | 76.8% | 946.3hPa | 2.7V | 07:53:52 | 02:54:22 | 00:00:00 | |
| BIOWL1-15 | 2026-09-02 01:11:54 | 51.43295 | 8.21916 | 26° | 11km/h | 694m | -8.6m/s | 14°C | 76.6% | 944.5hPa | 2.6V | 07:53:52 | 02:54:20 | 00:00:00 | |
| DM0DOS-11 | 2026-09-02 01:11:53 | 51.43288 | 8.21909 | 32° | 11km/h | 717m | -8m/s | 13.9°C | 70% | 941.9hPa | 2.7V | 07:53:50 | 02:54:17 | 00:00:00 | |
| BIOWL1-15 | 2026-09-02 01:11:52 | 51.43290 | 8.21911 | 31° | 11km/h | 710m | -7.2m/s | 14°C | 75.7% | 942.7hPa | 2.7V | 07:53:52 | 02:54:18 | 00:00:00 | |
| BIOWL1-15 | 2026-09-02 01:11:50 | 51.43285 | 8.21906 | 34° | 11km/h | 725m | -7.6m/s | 13.8°C | 75.9% | 941.2hPa | 2.7V | 07:53:52 | 02:54:16 | 00:00:00 | |
| BIOWL1-15 | 2026-09-02 01:11:49 | 51.43283 | 8.21903 | 33° | 13km/h | 732m | -8.1m/s | 13.8°C | 76.2% | 940.3hPa | 2.7V | 07:53:52 | 02:54:15 | 00:00:00 | |
| DM0DOS-11 | 2026-09-02 01:11:48 | 51.43268 | 8.21888 | 35° | 11km/h | 776m | -7.6m/s | 13.3°C | 72.2% | 935.4hPa | 2.7V | 07:53:58 | 02:54:09 | 00:00:00 | |
| BIOWL1-15 | 2026-09-02 01:11:47 | 51.43275 | 8.21895 | 31° | 13km/h | 754m | -7.2m/s | 13.5°C | 77.2% | 937.9hPa | 2.7V | 07:54:43 | 02:54:12 | 00:00:00 | |
| BIOWL1-15 | 2026-09-02 01:11:47 | 51.43273 | 8.21893 | 28° | 13km/h | 762m | -7.2m/s | 13.5°C | 77.4% | 937.1hPa | 2.7V | 07:54:43 | 02:54:11 | 00:00:00 | |
| BIOWL1-15 | 2026-09-02 01:11:44 | 51.43270 | 8.21891 | 30° | 11km/h | 769m | -7.5m/s | 13.4°C | 77.6% | 936.3hPa | 2.7V | 07:54:43 | 02:54:10 | 00:00:00 | |
| DD1CC1-15 | 2026-09-02 01:11:43 | 51.43270 | 8.21890 | 31° | 11km/h | 769m | -7.5m/s | 13.4°C | 71.4% | 936.3hPa | 2.6V | 07:54:00 | 00:00:00 | 00:00:00 | |
| DM0DOS-11 | 2026-09-02 01:11:43 | 51.43263 | 8.21883 | 31° | 11km/h | 791m | -7.4m/s | 13.2°C | 72.8% | 933.9hPa | 2.6V | 07:54:00 | 02:54:07 | 00:00:00 | |
| BIOWL1-15 | 2026-09-02 01:11:42 | 51.43265 | 8.21885 | 34° | 13km/h | 784m | -7m/s | 13.3°C | 78.7% | 934.6hPa | 2.7V | 07:54:43 | 02:54:08 | 00:00:00 | |
| BIOWL1-15 | 2026-09-02 01:11:41 | 51.43260 | 8.21880 | 40° | 11km/h | 798m | -8.1m/s | 13.1°C | 79.2% | 933.1hPa | 2.6V | 07:54:43 | 02:54:06 | 00:00:00 | |
| BIOWL1-15 | 2026-09-02 01:11:39 | 51.43258 | 8.21877 | 36° | 13km/h | 806m | -7.9m/s | 13°C | 79.3% | 932.2hPa | 2.7V | 07:54:43 | 02:54:05 | 00:00:00 | |
| DM0DOS-11 | 2026-09-02 01:11:38 | 51.43247 | 8.21865 | 34° | 13km/h | 836m | -7.8m/s | 12.8°C | 74.8% | 928.8hPa | 2.7V | 07:54:06 | 02:54:01 | 00:00:00 | |
| DM0DOS-11 | 2026-09-02 01:11:38 | 51.43239 | 8.21855 | 37° | 13km/h | 858m | -7.9m/s | 12.6°C | 75.8% | 926.4hPa | 2.6V | 07:54:09 | 02:53:58 | 00:00:00 | |
| BIOWL1-15 | 2026-09-02 01:11:38 | 51.43255 | 8.21874 | 34° | 13km/h | 814m | -7.5m/s | 13°C | 79.8% | 931.3hPa | 2.7V | 07:54:43 | 02:54:04 | 00:00:00 | |
| BIOWL1-15 | 2026-09-02 01:11:36 | 51.43242 | 8.21859 | 37° | 13km/h | 850m | -7.9m/s | 12.7°C | 81.2% | 927.1hPa | 2.6V | 07:54:43 | 02:53:59 | 00:00:00 | |
| BIOWL1-15 | 2026-09-02 01:11:36 | 51.43239 | 8.21855 | 38° | 13km/h | 858m | -7.9m/s | 12.6°C | 81.4% | 926.4hPa | 2.6V | 07:54:43 | 02:53:58 | 00:00:00 | |
| BIOWL1-15 | 2026-09-02 01:11:33 | 51.43236 | 8.21852 | 35° | 15km/h | 866m | -7.2m/s | 12.5°C | 81.6% | 925.5hPa | 2.7V | 07:54:43 | 02:53:57 | 00:00:00 | |
| DM0DOS-11 | 2026-09-02 01:11:32 | 51.43231 | 8.21846 | 41° | 13km/h | 879m | -6.7m/s | 12.4°C | 76.8% | 923.9hPa | 2.7V | 07:54:12 | 02:53:55 | 00:00:00 | |
| DM0DOS-11 | 2026-09-02 01:11:32 | 51.43225 | 8.21835 | 48° | 13km/h | 901m | -7.2m/s | 12.2°C | 78.8% | 921.6hPa | 2.6V | 07:54:15 | 02:53:52 | 00:00:00 | |
| BIOWL1-15 | 2026-09-02 01:11:29 | 51.43231 | 8.21846 | 41° | 13km/h | 879m | -6.7m/s | 12.4°C | 82.3% | 923.9hPa | 2.7V | 07:54:43 | 02:53:55 | 00:00:00 | |
| BIOWL1-15 | 2026-09-02 01:11:27 | 51.43221 | 8.21827 | 53° | 13km/h | 916m | -7.6m/s | 12.1°C | 85.8% | 920hPa | 2.6V | 07:54:43 | 02:53:50 | 00:00:00 | |
| BIOWL1-15 | 2026-09-02 01:11:27 | 51.43219 | 8.21823 | 56° | 13km/h | 923m | -7.3m/s | 12.1°C | 86% | 919.2hPa | 2.7V | 07:54:43 | 02:53:49 | 00:00:00 | |
| DM0DOS-11 | 2026-09-02 01:11:26 | 51.43217 | 8.21819 | 55° | 13km/h | 931m | -7.6m/s | 12°C | 80.4% | 918.4hPa | 2.7V | 07:54:19 | 02:53:48 | 00:00:00 | |
| DD1CC8 | 2026-09-02 01:11:24 | 51.43221 | 8.21827 | 52° | 11km/h | 916m | -7.6m/s | 12.1°C | 79.1% | 920.0hPa | 2.6V | 00:00:00 | 00:00:00 | 00:00:00 | |
| DD1CC1-15 | 2026-09-02 01:11:21 | 51.43217 | 8.21819 | 57° | 13km/h | 931m | -7.6m/s | 12.0°C | 79.8% | 918.4hPa | 2.6V | 07:54:00 | 00:00:00 | 00:00:00 | |
| DM0DOS-11 | 2026-09-02 01:11:21 | 51.43214 | 8.21811 | 54° | 13km/h | 944m | -7.2m/s | 11.9°C | 81.2% | 916.9hPa | 2.6V | 07:54:21 | 02:53:46 | 00:00:00 | |
| DM0DOS-11 | 2026-09-02 01:11:21 | 51.43210 | 8.21802 | 54° | 13km/h | 957m | -7m/s | 11.8°C | 81.9% | 915.4hPa | 2.6V | 07:54:23 | 02:53:44 | 00:00:00 | |
| BIOWL1-15 | 2026-09-02 01:11:21 | 51.43216 | 8.21815 | 54° | 13km/h | 938m | -6.5m/s | 12°C | 86.2% | 917.6hPa | 2.7V | 07:54:43 | 02:53:47 | 00:00:00 | |
| BIOWL1-15 | 2026-09-02 01:11:20 | 51.43214 | 8.21811 | 55° | 13km/h | 944m | -7.2m/s | 11.9°C | 86.6% | 916.9hPa | 2.6V | 07:54:43 | 02:53:46 | 00:00:00 | |
| BIOWL1-15 | 2026-09-02 01:11:18 | 51.43210 | 8.21802 | 55° | 13km/h | 957m | -7m/s | 11.8°C | 86.6% | 915.4hPa | 2.6V | 07:54:43 | 02:53:44 | 00:00:00 | |
| BIOWL1-15 | 2026-09-02 01:11:16 | 51.43204 | 8.21789 | 60° | 13km/h | 976m | -6.5m/s | 11.7°C | 87.2% | 913.3hPa | 2.7V | 07:54:43 | 02:53:41 | 00:00:00 | |
| DM0DOS-11 | 2026-09-02 01:11:16 | 51.43203 | 8.21784 | 58° | 15km/h | 982m | -6.2m/s | 11.6°C | 83.1% | 912.5hPa | 2.7V | 07:54:27 | 02:53:40 | 00:00:00 | |
| DM0DOS-11 | 2026-09-02 01:11:16 | 51.43200 | 8.21774 | 70° | 13km/h | 995m | -6.3m/s | 11.5°C | 83.6% | 911.4hPa | 2.7V | 07:54:29 | 02:53:38 | 00:00:00 | |
| BIOWL1-15 | 2026-09-02 01:11:16 | 51.43203 | 8.21784 | 59° | 15km/h | 982m | -6.2m/s | 11.6°C | 87.7% | 912.5hPa | 2.7V | 07:54:43 | 02:53:40 | 00:00:00 | |
| BIOWL1-15 | 2026-09-02 01:11:13 | 51.43198 | 8.21763 | 73° | 15km/h | 1009m | -7m/s | 11.4°C | 89% | 909.9hPa | 2.6V | 07:54:43 | 02:53:36 | 00:00:00 | |
| BIOWL1-15 | 2026-09-02 01:11:13 | 51.43197 | 8.21758 | 76° | 13km/h | 1016m | -6.4m/s | 11.3°C | 89.1% | 909hPa | 2.6V | 07:54:43 | 02:53:35 | 00:00:00 | |
| DD1CC3-15 | 2026-09-02 01:11:12 | 51.43201 | 8.21779 | 64° | 13km/h | 989m | -6.7m/s | 11.5°C | 82.6% | 911.9hPa | 2.6V | 07:54:00 | 00:00:00 | 00:00:00 | |
| DM0DOS-11 | 2026-09-02 01:11:11 | 51.43198 | 8.21763 | 73° | 15km/h | 1009m | -7m/s | 11.4°C | 84% | 909.9hPa | 2.6V | 07:54:31 | 02:53:36 | 00:00:00 | |
| DM0DOS-11 | 2026-09-02 01:11:11 | 51.43196 | 8.21752 | 74° | 15km/h | 1022m | -6.3m/s | 11.3°C | 84.5% | 908.3hPa | 2.6V | 07:54:33 | 02:53:34 | 00:00:00 | |
| BIOWL1-15 | 2026-09-02 01:11:10 | 51.43196 | 8.21752 | 74° | 15km/h | 1022m | -6.4m/s | 11.3°C | 89.4% | 908.3hPa | 2.6V | 07:54:43 | 02:53:34 | 00:00:00 | |
| BIOWL1-15 | 2026-09-02 01:11:07 | 51.43195 | 8.21746 | 78° | 15km/h | 1029m | -6.8m/s | 11.2°C | 89.9% | 907.6hPa | 2.6V | 07:54:43 | 02:53:33 | 00:00:00 | |
| BIOWL1-15 | 2026-09-02 01:11:05 | 51.43193 | 8.21735 | 77° | 15km/h | 1043m | -6.7m/s | 11.1°C | 90.2% | 906.2hPa | 2.7V | 07:54:43 | 02:53:31 | 00:00:00 | |
| BIOWL1-15 | 2026-09-02 01:11:04 | 51.43189 | 8.21704 | 82° | 15km/h | 1079m | -7.8m/s | 10.9°C | 91.5% | 902.4hPa | 2.6V | 07:54:43 | 02:53:26 | 00:00:00 | |
| BIOWL1-15 | 2026-09-02 01:11:03 | 51.43189 | 8.21698 | 81° | 16km/h | 1087m | -7.5m/s | 10.8°C | 91.3% | 901.3hPa | 2.6V | 07:54:43 | 02:53:25 | 00:00:00 | |
| BIOWL1-15 | 2026-09-02 01:10:57 | 51.43185 | 8.21638 | 88° | 20km/h | 1146m | -7.9m/s | 10.3°C | 91.3% | 894.9hPa | 2.6V | 07:55:34 | 02:53:17 | 00:00:00 | |
| BIOWL1-15 | 2026-09-02 01:10:56 | 51.43185 | 8.21630 | 89° | 20km/h | 1154m | -6.7m/s | 10.3°C | 91.5% | 894.2hPa | 2.6V | 07:55:34 | 02:53:16 | 00:00:00 | |
| BIOWL1-15 | 2026-09-02 01:10:49 | 51.43185 | 8.21622 | 89° | 20km/h | 1161m | -7.4m/s | 10.2°C | 91.8% | 893.5hPa | 2.6V | 07:55:34 | 02:53:15 | 00:00:00 | |
| BIOWL1-15 | 2026-09-02 01:10:48 | 51.43185 | 8.21613 | 91° | 20km/h | 1168m | -8m/s | 10.2°C | 92.1% | 892.7hPa | 2.6V | 07:55:34 | 02:53:14 | 00:00:00 | |
| BIOWL1-15 | 2026-09-02 01:10:46 | 51.43186 | 8.21587 | 92° | 22km/h | 1191m | -7.8m/s | 10°C | 92.8% | 890.1hPa | 2.6V | 07:55:34 | 02:53:11 | 00:00:00 | |
| BIOWL1-15 | 2026-09-02 01:10:46 | 51.43186 | 8.21578 | 93° | 22km/h | 1198m | -8.1m/s | 10°C | 92.2% | 889.4hPa | 2.6V | 07:55:34 | 02:53:10 | 00:00:00 | |
| BIOWL1-15 | 2026-09-02 01:10:43 | 51.43186 | 8.21569 | 91° | 24km/h | 1207m | -8.4m/s | 9.9°C | 92.2% | 888.6hPa | 2.6V | 07:55:34 | 02:53:09 | 00:00:00 | |
| BIOWL1-15 | 2026-09-02 01:10:42 | 51.43187 | 8.21559 | 94° | 24km/h | 1215m | -7.8m/s | 9.8°C | 91.9% | 887.4hPa | 2.6V | 07:55:34 | 02:53:08 | 00:00:00 | |
| DD1CC1-15 | 2026-09-02 01:10:41 | 51.43186 | 8.21559 | 95° | 24km/h | 1215m | -7.8m/s | 9.8°C | 87.3% | 887.4hPa | 2.6V | 07:55:00 | 00:00:00 | 00:00:00 | |
| DM0DOS-11 | 2026-09-02 01:10:41 | 51.43189 | 8.21499 | 93° | 24km/h | 1258m | -8.6m/s | 9.5°C | 88.6% | 883hPa | 2.6V | 07:55:05 | 02:53:02 | 00:00:00 | |
| BIOWL1-15 | 2026-09-02 01:10:40 | 51.43187 | 8.21539 | 93° | 24km/h | 1229m | -7.1m/s | 9.7°C | 92.2% | 886hPa | 2.6V | 07:55:34 | 02:53:06 | 00:00:00 | |
| BIOWL1-15 | 2026-09-02 01:10:39 | 51.43188 | 8.21529 | 94° | 24km/h | 1237m | -7.5m/s | 9.6°C | 92.3% | 885.2hPa | 2.6V | 07:55:34 | 02:53:05 | 00:00:00 | |
| BIOWL1-15 | 2026-09-02 01:10:37 | 51.43189 | 8.21509 | 94° | 26km/h | 1250m | -7.7m/s | 9.5°C | 93.2% | 883.7hPa | 2.6V | 07:55:34 | 02:53:03 | 00:00:00 | |
| DM0DOS-11 | 2026-09-02 01:10:36 | 51.43190 | 8.21478 | 93° | 26km/h | 1275m | -7.8m/s | 9.3°C | 88.7% | 881.2hPa | 2.6V | 07:55:07 | 02:53:00 | 00:00:00 | |
| BIOWL1-15 | 2026-09-02 01:10:36 | 51.43189 | 8.21499 | 94° | 24km/h | 1258m | -8.6m/s | 9.5°C | 93.5% | 883hPa | 2.6V | 07:55:34 | 02:53:02 | 00:00:00 | |
| BIOWL1-15 | 2026-09-02 01:10:35 | 51.43190 | 8.21489 | 95° | 26km/h | 1267m | -8.5m/s | 9.4°C | 93.3% | 882.2hPa | 2.6V | 07:55:34 | 02:53:01 | 00:00:00 | |
| BIOWL1-15 | 2026-09-02 01:10:33 | 51.43192 | 8.21446 | 95° | 27km/h | 1298m | -8.5m/s | 9.3°C | 91% | 878.7hPa | 2.6V | 07:55:34 | 02:52:57 | 00:00:00 | |
| BIOWL1-15 | 2026-09-02 01:10:33 | 51.43193 | 8.21435 | 97° | 27km/h | 1307m | -9m/s | 9.2°C | 91.6% | 877.9hPa | 2.6V | 07:55:34 | 02:52:56 | 00:00:00 | |
| BIOWL1-15 | 2026-09-02 01:10:31 | 51.43194 | 8.21412 | 97° | 27km/h | 1325m | -9m/s | 9.1°C | 90% | 876hPa | 2.6V | 07:55:34 | 02:52:54 | 00:00:00 | |
| DM0DOS-11 | 2026-09-02 01:10:30 | 51.43196 | 8.21377 | 94° | 29km/h | 1350m | -8.2m/s | 9°C | 81.8% | 873.4hPa | 2.6V | 07:55:16 | 02:52:51 | 00:00:00 | |
| BIOWL1-15 | 2026-09-02 01:10:26 | 51.43197 | 8.21377 | 94° | 29km/h | 1350m | -8.2m/s | 9°C | 88.1% | 873.4hPa | 2.6V | 07:55:34 | 02:52:51 | 00:00:00 | |
| BIOWL1-15 | 2026-09-02 01:10:26 | 51.43197 | 8.21365 | 96° | 29km/h | 1358m | -8.1m/s | 8.9°C | 86.9% | 872.5hPa | 2.6V | 07:55:34 | 02:52:50 | 00:00:00 | |
| DM0DOS-11 | 2026-09-02 01:10:24 | 51.43198 | 8.21354 | 94° | 29km/h | 1365m | -7.3m/s | 8.8°C | 81.3% | 871.7hPa | 2.6V | 07:55:18 | 02:52:49 | 00:00:00 | |
| DM0DOS-11 | 2026-09-02 01:10:24 | 51.43200 | 8.21305 | 92° | 31km/h | 1392m | -5.6m/s | 8.6°C | 81.2% | 868.9hPa | 2.6V | 07:55:22 | 02:52:45 | 00:00:00 | |
| BIOWL1-15 | 2026-09-02 01:10:22 | 51.43199 | 8.21341 | 95° | 29km/h | 1373m | -7.2m/s | 8.8°C | 86.9% | 870.8hPa | 2.6V | 07:55:34 | 02:52:48 | 00:00:00 | |
| BIOWL1-15 | 2026-09-02 01:10:21 | 51.43201 | 8.21280 | 93° | 31km/h | 1405m | -7.6m/s | 8.5°C | 86.5% | 867.4hPa | 2.6V | 07:55:34 | 02:52:43 | 00:00:00 | |
| BIOWL1-15 | 2026-09-02 01:10:20 | 51.43201 | 8.21267 | 93° | 33km/h | 1412m | -7.7m/s | 8.5°C | 86.4% | 866.5hPa | 2.6V | 07:55:34 | 02:52:42 | 00:00:00 | |
| BIOWL1-15 | 2026-09-02 01:10:17 | 51.43202 | 8.21227 | 93° | 33km/h | 1431m | -6.4m/s | 8.3°C | 86.6% | 864.6hPa | 2.6V | 07:55:34 | 02:52:39 | 00:00:00 | |
| BIOWL1-15 | 2026-09-02 01:10:17 | 51.43203 | 8.21214 | 93° | 33km/h | 1438m | -7.2m/s | 8.2°C | 86.6% | 863.8hPa | 2.6V | 07:55:34 | 02:52:38 | 00:00:00 | |
| BIOWL1-15 | 2026-09-02 01:10:14 | 51.43203 | 8.21201 | 92° | 33km/h | 1444m | -6m/s | 8.2°C | 86.6% | 863.2hPa | 2.6V | 07:55:34 | 02:52:37 | 00:00:00 | |
| DM0DOS-11 | 2026-09-02 01:10:14 | 51.43202 | 8.21227 | 92° | 33km/h | 1431m | -6.4m/s | 8.3°C | 81.2% | 864.6hPa | 2.6V | 07:55:28 | 02:52:39 | 00:00:00 | |
| BIOWL1-15 | 2026-09-02 01:10:12 | 51.43203 | 8.21187 | 92° | 35km/h | 1451m | -6.9m/s | 8.1°C | 86.4% | 862.6hPa | 2.6V | 07:55:34 | 02:52:36 | 00:00:00 | |
| BIOWL1-15 | 2026-09-02 01:10:08 | 51.43205 | 8.21131 | 91° | 35km/h | 1477m | -6.9m/s | 7.9°C | 87% | 859.6hPa | 2.6V | 07:56:25 | 02:52:32 | 00:00:00 | |
| DM0DOS-11 | 2026-09-02 01:10:08 | 51.43204 | 8.21145 | 92° | 35km/h | 1471m | -7.2m/s | 8°C | 82% | 860.3hPa | 2.5V | 07:55:34 | 02:52:33 | 00:00:00 | |
| BIOWL1-15 | 2026-09-02 01:10:07 | 51.43205 | 8.21117 | 91° | 35km/h | 1484m | -7.1m/s | 7.8°C | 87.4% | 858.7hPa | 2.6V | 07:56:25 | 02:52:31 | 00:00:00 | |
| BIOWL1-15 | 2026-09-02 01:10:04 | 51.43205 | 8.21103 | 92° | 35km/h | 1491m | -7.6m/s | 7.8°C | 88% | 857.9hPa | 2.6V | 07:56:25 | 02:52:30 | 00:00:00 | |
| DO9LL-15 | 2026-09-02 01:10:04 | 51.43205 | 8.21103 | 93° | 37km/h | 1491m | -7.6m/s | 7.7°C | 83.2% | 857.8hPa | 2.6V | 00:00:00 | 02:52:30 | 00:00:00 | |
| DM0DOS-11 | 2026-09-02 01:10:02 | 51.43205 | 8.21031 | 90° | 35km/h | 1530m | -8.7m/s | 7.4°C | 85.3% | 853.8hPa | 2.6V | 07:55:42 | 02:52:25 | 00:00:00 | |
| BIOWL1-15 | 2026-09-02 01:10:02 | 51.43205 | 8.21060 | 89° | 37km/h | 1514m | -8.2m/s | 7.6°C | 89.1% | 855.5hPa | 2.6V | 07:56:25 | 02:52:27 | 00:00:00 | |
| BIOWL1-15 | 2026-09-02 01:10:02 | 51.43205 | 8.21046 | 91° | 35km/h | 1522m | -8.6m/s | 7.5°C | 89.8% | 854.6hPa | 2.5V | 07:56:25 | 02:52:26 | 00:00:00 | |
| BIOWL1-15 | 2026-09-02 01:09:59 | 51.43205 | 8.21031 | 91° | 35km/h | 1530m | -8.7m/s | 7.4°C | 90.5% | 853.8hPa | 2.6V | 07:56:25 | 02:52:25 | 00:00:00 | |
| BIOWL1-15 | 2026-09-02 01:09:57 | 51.43205 | 8.20986 | 88° | 38km/h | 1560m | -11.1m/s | 7.2°C | 92.4% | 850.9hPa | 2.6V | 07:56:25 | 02:52:22 | 00:00:00 | |
| DM0DOS-11 | 2026-09-02 01:09:56 | 51.43205 | 8.20971 | 87° | 38km/h | 1570m | -9.8m/s | 7.1°C | 87.3% | 849.9hPa | 2.6V | 07:55:46 | 02:52:21 | 00:00:00 | |
| DM0DOS-11 | 2026-09-02 01:09:56 | 51.43204 | 8.20909 | 86° | 40km/h | 1611m | -10.3m/s | 6.8°C | 88.6% | 845.7hPa | 2.6V | 07:55:50 | 02:52:17 | 00:00:00 | |
| BIOWL1-15 | 2026-09-02 01:09:55 | 51.43205 | 8.20971 | 88° | 38km/h | 1570m | -9.8m/s | 7.1°C | 92.8% | 849.9hPa | 2.6V | 07:56:25 | 02:52:21 | 00:00:00 | |
| BIOWL1-15 | 2026-09-02 01:09:53 | 51.43205 | 8.20940 | 91° | 37km/h | 1590m | -11.2m/s | 7°C | 93.5% | 847.9hPa | 2.5V | 07:56:25 | 02:52:19 | 00:00:00 | |
| BIOWL1-15 | 2026-09-02 01:09:52 | 51.43205 | 8.20925 | 88° | 38km/h | 1600m | -11m/s | 6.9°C | 93.6% | 846.8hPa | 2.6V | 07:56:25 | 02:52:18 | 00:00:00 | |
| BIOWL1-15 | 2026-09-02 01:09:50 | 51.43204 | 8.20878 | 86° | 37km/h | 1630m | -9.4m/s | 6.6°C | 93.7% | 843.8hPa | 2.6V | 07:56:25 | 02:52:15 | 00:00:00 | |
| DM0DOS-11 | 2026-09-02 01:09:50 | 51.43203 | 8.20847 | 85° | 40km/h | 1649m | -10.2m/s | 6.5°C | 89.2% | 841.7hPa | 2.6V | 07:55:54 | 02:52:13 | 00:00:00 | |
| DM0DOS-11 | 2026-09-02 01:09:50 | 51.43202 | 8.20815 | 87° | 40km/h | 1668m | -10.6m/s | 6.3°C | 89.7% | 839.8hPa | 2.5V | 07:55:56 | 02:52:11 | 00:00:00 | |
| BIOWL1-15 | 2026-09-02 01:09:50 | 51.43203 | 8.20863 | 89° | 38km/h | 1639m | -10.2m/s | 6.5°C | 93.8% | 842.7hPa | 2.6V | 07:56:25 | 02:52:14 | 00:00:00 | |
| BIOWL1-15 | 2026-09-02 01:09:47 | 51.43203 | 8.20847 | 85° | 40km/h | 1649m | -10.2m/s | 6.5°C | 94% | 841.7hPa | 2.6V | 07:56:25 | 02:52:13 | 00:00:00 | |
| BIOWL1-15 | 2026-09-02 01:09:45 | 51.43202 | 8.20815 | 88° | 40km/h | 1668m | -10.6m/s | 6.3°C | 94.7% | 839.8hPa | 2.5V | 07:56:25 | 02:52:11 | 00:00:00 | |
| DM0DOS-11 | 2026-09-02 01:09:44 | 51.43198 | 8.20717 | 83° | 40km/h | 1729m | -10.5m/s | 5.8°C | 91.9% | 834hPa | 2.5V | 07:56:02 | 02:52:05 | 00:00:00 | |
| BIOWL1-15 | 2026-09-02 01:09:44 | 51.43201 | 8.20799 | 87° | 38km/h | 1679m | -10.4m/s | 6.2°C | 95% | 838.9hPa | 2.6V | 07:56:25 | 02:52:10 | 00:00:00 | |
| BIOWL1-15 | 2026-09-02 01:09:42 | 51.43200 | 8.20766 | 85° | 40km/h | 1699m | -10.3m/s | 6.1°C | 95.5% | 836.9hPa | 2.6V | 07:56:25 | 02:52:08 | 00:00:00 | |
| BIOWL1-15 | 2026-09-02 01:09:41 | 51.43199 | 8.20750 | 88° | 40km/h | 1709m | -9.5m/s | 6°C | 95.6% | 835.8hPa | 2.6V | 07:56:25 | 02:52:07 | 00:00:00 | |
| BIOWL1-15 | 2026-09-02 01:09:40 | 51.43199 | 8.20734 | 84° | 42km/h | 1718m | -10.1m/s | 5.9°C | 95.5% | 834.9hPa | 2.6V | 07:56:25 | 02:52:06 | 00:00:00 | |
| BIOWL1-15 | 2026-09-02 01:09:38 | 51.43196 | 8.20685 | 85° | 40km/h | 1748m | -8.8m/s | 5.7°C | 95% | 831.9hPa | 2.6V | 07:56:25 | 02:52:03 | 00:00:00 | |
| DD1CC1-15 | 2026-09-02 01:09:38 | 51.43198 | 8.20717 | 85° | 40km/h | 1729m | -10.5m/s | 5.8°C | 90.6% | 834.0hPa | 2.6V | 07:56:00 | 00:00:00 | 00:00:00 | |
| DM0DOS-11 | 2026-09-02 01:09:38 | 51.43194 | 8.20652 | 83° | 40km/h | 1765m | -9.3m/s | 5.5°C | 92.1% | 830hPa | 2.6V | 07:56:06 | 02:52:01 | 00:00:00 | |
| BIOWL1-15 | 2026-09-02 01:09:38 | 51.43195 | 8.20669 | 83° | 42km/h | 1756m | -8.6m/s | 5.6°C | 94.9% | 831hPa | 2.6V | 07:56:25 | 02:52:02 | 00:00:00 | |
| BIOWL1-15 | 2026-09-02 01:09:35 | 51.43193 | 8.20636 | 84° | 40km/h | 1774m | -9.6m/s | 5.4°C | 94.6% | 829.3hPa | 2.6V | 07:56:25 | 02:52:00 | 00:00:00 | |
| BIOWL1-15 | 2026-09-02 01:09:33 | 51.43192 | 8.20620 | 82° | 40km/h | 1783m | -8.6m/s | 5.4°C | 94.9% | 828.4hPa | 2.5V | 07:56:25 | 02:51:59 | 00:00:00 | |
| BIOWL1-15 | 2026-09-02 01:09:31 | 51.43181 | 8.20519 | 78° | 42km/h | 1835m | -9.2m/s | 5°C | 95% | 822.8hPa | 2.6V | 07:56:25 | 02:51:53 | 00:00:00 | |
| BIOWL1-15 | 2026-09-02 01:09:31 | 51.43179 | 8.20502 | 78° | 42km/h | 1843m | -9.3m/s | 5°C | 94.4% | 821.9hPa | 2.5V | 07:56:25 | 02:51:52 | 00:00:00 | |
| BIOWL1-15 | 2026-09-02 01:09:27 | 51.43176 | 8.20485 | 76° | 42km/h | 1853m | -10.4m/s | 5.1°C | 92% | 821hPa | 2.5V | 07:56:25 | 02:51:51 | 00:00:00 | |
| DM0DOS-11 | 2026-09-02 01:09:27 | 51.43176 | 8.20485 | 75° | 42km/h | 1853m | -10.4m/s | 5°C | 90.1% | 821hPa | 2.5V | 07:56:16 | 02:51:51 | 00:00:00 | |
| DM0DOS-11 | 2026-09-02 01:09:27 | 51.43171 | 8.20452 | 75° | 42km/h | 1872m | -10.1m/s | 5°C | 88.9% | 819.1hPa | 2.6V | 07:56:18 | 02:51:49 | 00:00:00 | |
| DM0DOS-11 | 2026-09-02 01:09:27 | 51.43166 | 8.20418 | 72° | 44km/h | 1891m | -9.8m/s | 5°C | 85.8% | 817.2hPa | 2.6V | 07:56:20 | 02:51:47 | 00:00:00 | |
| BIOWL1-15 | 2026-09-02 01:09:24 | 51.43166 | 8.20418 | 72° | 44km/h | 1891m | -9.8m/s | 5°C | 87% | 817.2hPa | 2.6V | 07:56:25 | 02:51:47 | 00:00:00 | |
| BIOWL1-15 | 2026-09-02 01:09:22 | 51.43163 | 8.20402 | 71° | 44km/h | 1900m | -9.4m/s | 5°C | 88.7% | 816.3hPa | 2.5V | 07:56:25 | 02:51:46 | 00:00:00 | |
| DO3DL | 2026-09-02 01:09:20 | 51.43166 | 8.20418 | 73° | 44km/h | 1891m | -9.8m/s | 5.0°C | 84.6% | 817.2hPa | 2.5V | 07:56:00 | 00:00:00 | 00:00:00 | |
| DM0DOS-11 | 2026-09-02 01:09:20 | 51.43159 | 8.20385 | 70° | 44km/h | 1909m | -9.4m/s | 5.1°C | 89.1% | 815.3hPa | 2.5V | 07:56:22 | 02:51:45 | 00:00:00 | |
| DM0DOS-11 | 2026-09-02 01:09:20 | 51.43152 | 8.20352 | 69° | 42km/h | 1926m | -7.6m/s | 5.1°C | 90.4% | 813.6hPa | 2.6V | 07:56:24 | 02:51:43 | 00:00:00 | |
| DM0DOS-11 | 2026-09-02 01:09:20 | 51.43144 | 8.20319 | 68° | 44km/h | 1945m | -9.6m/s | 5°C | 92.6% | 811.7hPa | 2.6V | 07:56:26 | 02:51:41 | 00:00:00 | |
| BIOWL1-15 | 2026-09-02 01:09:18 | 51.43155 | 8.20369 | 71° | 44km/h | 1918m | -9m/s | 5.1°C | 89.5% | 814.4hPa | 2.6V | 07:56:25 | 02:51:44 | 00:00:00 | |
| BIOWL1-15 | 2026-09-02 01:09:17 | 51.43152 | 8.20352 | 69° | 42km/h | 1926m | -7.6m/s | 5.1°C | 90.9% | 813.6hPa | 2.6V | 07:56:25 | 02:51:43 | 00:00:00 | |
| BIOWL1-15 | 2026-09-02 01:09:15 | 51.43144 | 8.20320 | 69° | 44km/h | 1945m | -9.6m/s | 5°C | 92.8% | 811.7hPa | 2.6V | 07:57:16 | 02:51:41 | 00:00:00 | |
| DM0DOS-11 | 2026-09-02 01:09:14 | 51.43136 | 8.20287 | 67° | 44km/h | 1964m | -10.4m/s | 4.9°C | 93.1% | 809.9hPa | 2.5V | 07:56:28 | 02:51:39 | 00:00:00 | |
| DM0DOS-11 | 2026-09-02 01:09:14 | 51.43127 | 8.20254 | 66° | 42km/h | 1983m | -10.1m/s | 4.8°C | 93.5% | 807.9hPa | 2.6V | 07:56:30 | 02:51:37 | 00:00:00 | |
| BIOWL1-15 | 2026-09-02 01:09:13 | 51.43136 | 8.20287 | 67° | 44km/h | 1964m | -10.4m/s | 4.9°C | 93.3% | 809.9hPa | 2.5V | 07:57:16 | 02:51:39 | 00:00:00 | |
| BIOWL1-15 | 2026-09-02 01:09:11 | 51.43127 | 8.20254 | 67° | 42km/h | 1983m | -10.1m/s | 4.8°C | 93.2% | 807.9hPa | 2.6V | 07:57:16 | 02:51:37 | 00:00:00 | |
| BIOWL1-15 | 2026-09-02 01:09:10 | 51.43123 | 8.20238 | 67° | 44km/h | 1993m | -10.1m/s | 4.9°C | 92.1% | 807.1hPa | 2.6V | 07:57:16 | 02:51:36 | 00:00:00 | |
| DM0DOS-11 | 2026-09-02 01:09:09 | 51.43119 | 8.20222 | 69° | 42km/h | 2003m | -10.3m/s | 4.9°C | 87.7% | 806.1hPa | 2.6V | 07:56:32 | 02:51:35 | 00:00:00 | |
| DM0DOS-11 | 2026-09-02 01:09:09 | 51.43102 | 8.20148 | 68° | 37km/h | 2050m | -8.9m/s | 5.1°C | 66.9% | 801.2hPa | 2.6V | 07:56:37 | 02:51:30 | 00:00:00 | |
| DO3DL | 2026-09-02 01:09:06 | 51.43112 | 8.20191 | 72° | 40km/h | 2022m | -10.6m/s | 4.9°C | 80.0% | 804.2hPa | 2.6V | 07:57:00 | 00:00:00 | 00:00:00 | |
| BIOWL9-15 | 2026-09-02 01:09:05 | 51.43057 | 8.19997 | 61° | 27km/h | 2159m | -9.7m/s | 5.5°C | 35.5% | 790.4hPa | 2.6V | 00:00:00 | 00:00:00 | 00:00:00 | |
| DM0DOS-11 | 2026-09-02 01:09:04 | 51.43085 | 8.20081 | 64° | 35km/h | 2096m | -8.8m/s | 5°C | 54% | 796.8hPa | 2.6V | 07:56:42 | 02:51:25 | 00:00:00 | |
| BIOWL1-15 | 2026-09-02 01:09:00 | 51.43049 | 8.19975 | 56° | 33km/h | 2178m | -9.7m/s | 5.7°C | 51.4% | 788.6hPa | 2.6V | 07:57:16 | 02:51:16 | 00:00:00 | |
| DO3DL | 2026-09-02 01:09:00 | 51.43088 | 8.20093 | 68° | 35km/h | 2087m | -10.0m/s | 5.0°C | 58.9% | 797.8hPa | 2.5V | 07:57:00 | 00:00:00 | 00:00:00 | |
| DM0DOS-11 | 2026-09-02 01:08:59 | 51.43064 | 8.20019 | 60° | 33km/h | 2141m | -8.9m/s | 5.4°C | 36.1% | 792.2hPa | 2.5V | 07:56:47 | 02:51:20 | 00:00:00 | |
| DB0UT-7 | 2026-09-02 01:08:59 | 51.43085 | 8.20080 | 65° | 33km/h | 2096m | -8.8m/s | 5.0°C | 54.0% | 796.7hPa | 2.6V | 00:00:00 | 02:51:25 | 00:00:00 | |
| DD1CC2-15 | 2026-09-02 01:08:58 | 51.43085 | 8.20080 | 65° | 35km/h | 2096m | -8.9m/s | 5.0°C | 53.3% | 796.8hPa | 2.5V | 07:57:00 | 00:00:00 | 00:00:00 | |
| DD1CC1-15 | 2026-09-02 01:08:57 | 51.43081 | 8.20068 | 65° | 35km/h | 2105m | -9.8m/s | 5.0°C | 49.2% | 795.9hPa | 2.5V | 07:57:00 | 00:00:00 | 00:00:00 | |
| DD1CC9-15 | 2026-09-02 01:08:55 | 51.43073 | 8.20043 | 63° | 35km/h | 2124m | -9.8m/s | 5.1°C | 45.3% | 794.0hPa | 2.5V | 07:57:00 | 00:00:00 | 00:00:00 | |
| DM0DOS-11 | 2026-09-02 01:08:54 | 51.43044 | 8.19964 | 54° | 33km/h | 2187m | -10.9m/s | 6°C | 47.5% | 787.8hPa | 2.5V | 07:56:52 | 02:51:15 | 00:00:00 | |
| HSKMA3-T | 2026-09-02 01:08:51 | 51.43053 | 8.19986 | 59° | 33km/h | 2169m | -9.8m/s | 5.5°C | 50.9% | 789.7hPa | 2.6V | 08:00:40 | 02:51:17 | 00:00:00 | |
| DD1CC8 | 2026-09-02 01:08:50 | 51.43044 | 8.19964 | 54° | 33km/h | 2187m | -10.9m/s | 6.0°C | 46.8% | 787.8hPa | 2.6V | 00:00:00 | 00:00:00 | 00:00:00 | |
| DM0DOS-11 | 2026-09-02 01:08:49 | 51.43019 | 8.19910 | 53° | 33km/h | 2235m | -10.7m/s | 6.1°C | 44.2% | 783.2hPa | 2.6V | 07:56:57 | 02:51:10 | 00:00:00 | |
| BIOWL1-15 | 2026-09-02 01:08:47 | 51.43029 | 8.19931 | 52° | 33km/h | 2216m | -10.8m/s | 6.2°C | 50.4% | 785hPa | 2.6V | 07:57:16 | 02:51:12 | 00:00:00 | |
| DO3DL | 2026-09-02 01:08:45 | 51.43029 | 8.19930 | 53° | 33km/h | 2216m | -10.8m/s | 6.2°C | 44.2% | 785.0hPa | 2.6V | 07:57:00 | 00:00:00 | 00:00:00 | |
| DM0DOS-11 | 2026-09-02 01:08:44 | 51.42994 | 8.19858 | 51° | 33km/h | 2280m | -9.6m/s | 6°C | 42.8% | 779hPa | 2.6V | 07:57:02 | 02:51:05 | 00:00:00 | |
| DB0ND-19 | 2026-09-02 01:08:44 | 51.43014 | 8.19899 | 52° | 33km/h | 2245m | -10.1m/s | 6.1°C | 43.9% | 782.4hPa | 2.6V | 00:00:00 | 00:00:00 | 00:00:00 | |
| DM0DOS-11 | 2026-09-02 01:08:39 | 51.42967 | 8.19805 | 50° | 33km/h | 2327m | -9.7m/s | 5.6°C | 41.7% | 774.4hPa | 2.6V | 07:57:07 | 02:51:00 | 00:00:00 | |
| BIOWL1-15 | 2026-09-02 01:08:35 | 51.42972 | 8.19815 | 48° | 33km/h | 2317m | -10.4m/s | 5.7°C | 46.6% | 775.4hPa | 2.6V | 07:57:16 | 02:51:01 | 00:00:00 | |
| DM0DOS-11 | 2026-09-02 01:08:34 | 51.42940 | 8.19751 | 51° | 37km/h | 2373m | -8.8m/s | 5.2°C | 43.5% | 770hPa | 2.6V | 07:57:12 | 02:50:55 | 00:00:00 | |
| DK9SH | 2026-09-02 01:08:33 | 51.42962 | 8.19794 | 53° | 33km/h | 2337m | -10.4m/s | 5.5°C | 41.4% | 773.6hPa | 2.5V | 07:57:00 | 00:00:00 | 00:00:00 | |
| DO3DL | 2026-09-02 01:08:31 | 51.42956 | 8.19784 | 51° | 35km/h | 2346m | -9.3m/s | 5.5°C | 41.7% | 772.7hPa | 2.5V | 07:57:00 | 00:00:00 | 00:00:00 | |
| DM0DOS-11 | 2026-09-02 01:08:29 | 51.42913 | 8.19693 | 53° | 35km/h | 2418m | -10.5m/s | 5°C | 48.4% | 765.9hPa | 2.5V | 07:57:17 | 02:50:50 | 00:00:00 | |
| HSKMA3-T | 2026-09-02 01:08:26 | 51.42924 | 8.19716 | 50° | 35km/h | 2399m | -9.4m/s | 5.1°C | 50.5% | 767.6hPa | 2.6V | 08:00:40 | 02:50:52 | 00:00:00 | |
| BIOWL1-15 | 2026-09-02 01:08:25 | 51.42913 | 8.19693 | 54° | 35km/h | 2418m | -10.5m/s | 5°C | 53.8% | 766hPa | 2.5V | 07:58:07 | 02:50:50 | 00:00:00 | |
| DM0DOS-11 | 2026-09-02 01:08:24 | 51.42887 | 8.19634 | 57° | 37km/h | 2468m | -10.5m/s | 5°C | 36.7% | 761.3hPa | 2.5V | 07:57:22 | 02:50:45 | 00:00:00 | |
| BIOWL1-15 | 2026-09-02 01:08:15 | 51.42853 | 8.19545 | 59° | 38km/h | 2535m | -10.2m/s | 4.7°C | 46.3% | 755.1hPa | 2.6V | 07:58:07 | 02:50:38 | 00:00:00 | |
| DB0ND-19 | 2026-09-02 01:08:13 | 51.42853 | 8.19545 | 59° | 37km/h | 2534m | -10.2m/s | 4.7°C | 40.1% | 755.1hPa | 2.6V | 00:00:00 | 00:00:00 | 00:00:00 | |
| DK9SH | 2026-09-02 01:08:11 | 51.42853 | 8.19545 | 60° | 38km/h | 2535m | -10.2m/s | 4.7°C | 40.1% | 755.1hPa | 2.6V | 07:58:00 | 00:00:00 | 00:00:00 | |
| DO3DL | 2026-09-02 01:08:10 | 51.42848 | 8.19532 | 60° | 37km/h | 2544m | -10.0m/s | 4.6°C | 40.2% | 754.4hPa | 2.6V | 07:58:00 | 00:00:00 | 00:00:00 | |
| DL1LOL-11 | 2026-09-02 01:08:09 | 51.42843 | 8.19519 | 61° | 35km/h | 2554m | -10.4m/s | 4.5°C | 40.8% | 753.4hPa | 2.6V | 00:00:00 | 00:00:00 | 00:00:00 | |
| DL3AQ-11 | 2026-09-02 01:08:08 | 51.42830 | 8.19482 | 62° | 37km/h | 2581m | -9.3m/s | 4.3°C | 41.2% | 750.8hPa | 2.6V | 00:00:00 | 00:00:00 | 00:00:00 | |
| DD1CC3-15 | 2026-09-02 01:08:06 | 51.42830 | 8.19482 | 64° | 38km/h | 2581m | -9.3m/s | 4.3°C | 41.2% | 750.8hPa | 2.6V | 07:58:00 | 00:00:00 | 00:00:00 | |
| DM0DOS-11 | 2026-09-02 01:08:04 | 51.42796 | 8.19374 | 64° | 37km/h | 2660m | -10.3m/s | 3.9°C | 36.2% | 743.8hPa | 2.6V | 07:57:42 | 02:50:25 | 00:00:00 | |
| BIOWL1-15 | 2026-09-02 01:08:02 | 51.42792 | 8.19360 | 65° | 38km/h | 2669m | -9.4m/s | 3.9°C | 41.2% | 742.8hPa | 2.6V | 07:58:07 | 02:50:24 | 00:00:00 | |
| BIOWL1-15 | 2026-09-02 01:07:54 | 51.42754 | 8.19222 | 67° | 37km/h | 2762m | -7.7m/s | 3.2°C | 38.8% | 734.1hPa | 2.6V | 07:58:07 | 02:50:14 | 00:00:00 | |
| DM0DOS-11 | 2026-09-02 01:07:53 | 51.42757 | 8.19236 | 67° | 38km/h | 2754m | -10.6m/s | 3.2°C | 32.6% | 735.2hPa | 2.6V | 07:57:52 | 02:50:15 | 00:00:00 | |
| HSKMA3-T | 2026-09-02 01:07:53 | 51.42772 | 8.19292 | 65° | 38km/h | 2716m | -9.4m/s | 3.5°C | 38% | 738.6hPa | 2.6V | 08:00:40 | 02:50:19 | 00:00:00 | |
| DL3AQ-11 | 2026-09-02 01:07:52 | 51.42765 | 8.19264 | 68° | 35km/h | 2735m | -10.0m/s | 3.4°C | 31.2% | 736.9hPa | 2.6V | 00:00:00 | 00:00:00 | 00:00:00 | |
| DO3DL | 2026-09-02 01:07:51 | 51.42768 | 8.19278 | 67° | 38km/h | 2725m | -9.0m/s | 3.5°C | 31.7% | 737.8hPa | 2.6V | 07:58:00 | 00:00:00 | 00:00:00 | |
| DK9SH | 2026-09-02 01:07:50 | 51.42764 | 8.19264 | 70° | 37km/h | 2735m | -10.0m/s | 3.4°C | 31.2% | 736.9hPa | 2.6V | 07:58:00 | 00:00:00 | 00:00:00 | |
| DM0DOS-11 | 2026-09-02 01:07:48 | 51.42738 | 8.19166 | 65° | 38km/h | 2797m | -9.6m/s | 2.9°C | 35.3% | 731hPa | 2.6V | 07:57:57 | 02:50:10 | 00:00:00 | |
| DD1CC8 | 2026-09-02 01:07:47 | 51.42750 | 8.19208 | 66° | 38km/h | 2770m | -9.1m/s | 3.1°C | 33.7% | 733.5hPa | 2.6V | 00:00:00 | 00:00:00 | 00:00:00 | |
| BIOWL1-15 | 2026-09-02 01:07:40 | 51.42714 | 8.19082 | 66° | 40km/h | 2855m | -9.6m/s | 2.6°C | 40.7% | 725.9hPa | 2.6V | 07:58:07 | 02:50:04 | 00:00:00 | |
| DL3AQ-11 | 2026-09-02 01:07:39 | 51.42714 | 8.19082 | 66° | 40km/h | 2855m | -9.6m/s | 2.6°C | 34.7% | 725.9hPa | 2.5V | 00:00:00 | 00:00:00 | 00:00:00 | |
| DM0DOS-11 | 2026-09-02 01:07:38 | 51.42699 | 8.19024 | 63° | 37km/h | 2895m | -10.9m/s | 2.3°C | 35% | 722.4hPa | 2.5V | 07:58:07 | 02:50:00 | 00:00:00 | |
| DM0DOS-11 | 2026-09-02 01:07:33 | 51.42680 | 8.18954 | 66° | 38km/h | 2945m | -9.5m/s | 2°C | 37.1% | 717.9hPa | 2.5V | 07:58:12 | 02:49:55 | 00:00:00 | |
| BIOWL1-15 | 2026-09-02 01:07:31 | 51.42672 | 8.18926 | 67° | 37km/h | 2963m | -10m/s | 1.9°C | 42.1% | 716.2hPa | 2.6V | 07:58:58 | 02:49:53 | 00:00:00 | |
| DK9SH | 2026-09-02 01:07:30 | 51.42688 | 8.18982 | 68° | 37km/h | 2925m | -10.5m/s | 2.1°C | 35.8% | 719.6hPa | 2.5V | 07:58:00 | 00:00:00 | 00:00:00 | |
| DL3AQ-11 | 2026-09-02 01:07:28 | 51.42672 | 8.18926 | 67° | 37km/h | 2963m | -10.0m/s | 1.9°C | 36.0% | 716.2hPa | 2.5V | 00:00:00 | 00:00:00 | 00:00:00 | |
| DM0DOS-11 | 2026-09-02 01:07:26 | 51.42662 | 8.18883 | 70° | 37km/h | 2991m | -9.2m/s | 1.8°C | 34.2% | 713.5hPa | 2.5V | 07:58:17 | 02:49:50 | 00:00:00 | |
| HSKMA3-T | 2026-09-02 01:07:23 | 51.42659 | 8.18869 | 71° | 37km/h | 3001m | -11.1m/s | 1.8°C | 38.9% | 712.9hPa | 2.5V | 08:00:40 | 02:49:49 | 00:00:00 | |
| DM0DOS-11 | 2026-09-02 01:07:20 | 51.42647 | 8.18813 | 72° | 37km/h | 3040m | -10.1m/s | 1.5°C | 33.2% | 709.5hPa | 2.5V | 07:58:22 | 02:49:45 | 00:00:00 | |
| BIOWL1-15 | 2026-09-02 01:07:19 | 51.42642 | 8.18784 | 73° | 37km/h | 3058m | -9.5m/s | 1.3°C | 38.7% | 707.7hPa | 2.6V | 07:58:58 | 02:49:43 | 00:00:00 | |
| DB0UT-7 | 2026-09-02 01:07:19 | 51.42647 | 8.18812 | 73° | 40km/h | 3040m | -10.0m/s | 1.4°C | 33.2% | 709.4hPa | 2.6V | 00:00:00 | 00:00:00 | 00:00:00 | |
| DO3DL | 2026-09-02 01:07:18 | 51.42647 | 8.18812 | 73° | 37km/h | 3040m | -10.1m/s | 1.5°C | 32.6% | 709.5hPa | 2.6V | 07:58:00 | 00:00:00 | 00:00:00 | |
| DD1CC8 | 2026-09-02 01:07:16 | 51.42639 | 8.18770 | 72° | 37km/h | 3067m | -9.7m/s | 1.2°C | 32.3% | 706.9hPa | 2.6V | 00:00:00 | 00:00:00 | 00:00:00 | |
| DM0DOS-11 | 2026-09-02 01:07:14 | 51.42633 | 8.18741 | 74° | 37km/h | 3087m | -11.2m/s | 1°C | 32.8% | 705.1hPa | 2.6V | 07:58:27 | 02:49:40 | 00:00:00 | |
| DD1CC9-15 | 2026-09-02 01:07:13 | 51.42633 | 8.18741 | 75° | 37km/h | 3087m | -11.2m/s | 1.0°C | 32.1% | 705.1hPa | 2.6V | 07:58:00 | 00:00:00 | 00:00:00 | |
| DJ2DS-15 | 2026-09-02 01:07:12 | 51.42628 | 8.18711 | 72° | 40km/h | 3106m | -9.5m/s | 0.8°C | 32.1% | 703.2hPa | 2.6V | 00:00:00 | 02:49:38 | 00:00:00 | |
| DD1CC2-15 | 2026-09-02 01:07:11 | 51.42628 | 8.18711 | 73° | 37km/h | 3106m | -9.6m/s | 0.9°C | 31.4% | 703.3hPa | 2.6V | 00:00:00 | 00:00:00 | 00:00:00 | |
| DK9SH | 2026-09-02 01:07:10 | 51.42625 | 8.18697 | 74° | 40km/h | 3115m | -11.3m/s | 0.8°C | 31.2% | 702.5hPa | 2.6V | 07:58:00 | 00:00:00 | 00:00:00 | |
| DM0DOS-11 | 2026-09-02 01:07:09 | 51.42620 | 8.18667 | 73° | 37km/h | 3137m | -9.7m/s | 0.7°C | 32.5% | 700.8hPa | 2.6V | 07:58:32 | 02:49:35 | 00:00:00 | |
| DM0DOS-11 | 2026-09-02 01:07:09 | 51.42608 | 8.18592 | 76° | 40km/h | 3187m | -11.7m/s | 0.4°C | 34.6% | 696.5hPa | 2.6V | 07:58:37 | 02:49:30 | 00:00:00 | |
| BIOWL1-15 | 2026-09-02 01:07:06 | 51.42613 | 8.18622 | 72° | 37km/h | 3166m | -11.4m/s | 0.5°C | 40% | 698.2hPa | 2.6V | 07:58:58 | 02:49:32 | 00:00:00 | |
| DO3DL | 2026-09-02 01:07:05 | 51.42610 | 8.18608 | 77° | 38km/h | 3177m | -10.9m/s | 0.5°C | 34.3% | 697.5hPa | 2.6V | 07:58:00 | 00:00:00 | 00:00:00 | |
| DM0DOS-11 | 2026-09-02 01:07:04 | 51.42595 | 8.18510 | 75° | 40km/h | 3238m | -10.3m/s | -0.1°C | 50.3% | 692hPa | 2.6V | 07:58:42 | 02:49:25 | 00:00:00 | |
| AU51GT2 | 2026-09-02 01:07:02 | 51.42603 | 8.18559 | 73° | 42km/h | 3208m | -10.7m/s | 0.2°C | 38.1% | 694.6hPa | 2.6V | 00:00:00 | 00:00:00 | 00:00:00 | |
| BIOWL9-15 | 2026-09-02 01:07:01 | 51.42600 | 8.18543 | 74° | 40km/h | 3219m | -10.0m/s | 0.1°C | 42.6% | 693.7hPa | 2.6V | 00:00:00 | 00:00:00 | 00:00:00 | |
| DM0DOS-11 | 2026-09-02 01:06:59 | 51.42581 | 8.18433 | 73° | 40km/h | 3289m | -10.5m/s | -0.5°C | 52.5% | 687.6hPa | 2.6V | 07:58:47 | 02:49:20 | 00:00:00 | |
| DL3AQ-11 | 2026-09-02 01:06:59 | 51.42592 | 8.18495 | 72° | 38km/h | 3248m | -10.8m/s | -0.2°C | 48.2% | 691.0hPa | 2.6V | 00:00:00 | 00:00:00 | 00:00:00 | |
| DO3DL | 2026-09-02 01:06:58 | 51.42595 | 8.18510 | 77° | 40km/h | 3239m | -10.3m/s | -0.1°C | 49.2% | 692.0hPa | 2.6V | 07:58:00 | 00:00:00 | 00:00:00 | |
| DB0DAN | 2026-09-02 01:06:55 | 51.42584 | 8.18449 | 73° | 38km/h | 3279m | -11.1m/s | -0.4°C | 51.1% | 688.45hPa | 2.6V | 00:00:00 | 00:00:00 | 00:00:00 | |
| BIOWL1-15 | 2026-09-02 01:06:55 | 51.42584 | 8.18449 | 73° | 40km/h | 3279m | -11.1m/s | -0.4°C | 58.3% | 688.5hPa | 2.6V | 07:58:58 | 02:49:21 | 00:00:00 | |
| DD1CC1-15 | 2026-09-02 01:06:54 | 51.42581 | 8.18433 | 75° | 40km/h | 3290m | -10.5m/s | -0.5°C | 51.3% | 687.6hPa | 2.6V | 07:58:00 | 00:00:00 | 00:00:00 | |
| DJ2DS-15 | 2026-09-02 01:06:52 | 51.42575 | 8.18400 | 75° | 46km/h | 3309m | -10.8m/s | -0.6°C | 52.9% | 685.8hPa | 2.6V | 07:58:00 | 02:49:18 | 00:00:00 | |
| DO3DL | 2026-09-02 01:06:51 | 51.42575 | 8.18400 | 76° | 44km/h | 3309m | -10.9m/s | -0.7°C | 51.7% | 685.8hPa | 2.6V | 07:58:00 | 00:00:00 | 00:00:00 | |
| DD1CC2-15 | 2026-09-02 01:06:50 | 51.42572 | 8.18383 | 76° | 42km/h | 3320m | -10.6m/s | -0.7°C | 52.1% | 685.0hPa | 2.6V | 00:00:00 | 00:00:00 | 00:00:00 | |
| DM0DOS-11 | 2026-09-02 01:06:49 | 51.42554 | 8.18262 | 73° | 44km/h | 3388m | -11.1m/s | -1.2°C | 54.5% | 679.1hPa | 2.6V | 07:58:57 | 02:49:10 | 00:00:00 | |
| BIOWL1-15 | 2026-09-02 01:06:44 | 51.42554 | 8.18262 | 74° | 44km/h | 3388m | -11.1m/s | -1.3°C | 60.4% | 679.1hPa | 2.6V | 07:58:58 | 02:49:10 | 00:00:00 | |
| HSKMA3-T | 2026-09-02 01:06:41 | 51.42545 | 8.18210 | 76° | 46km/h | 3419m | -10.9m/s | -1.4°C | 59.2% | 676.5hPa | 2.6V | 08:00:40 | 02:49:07 | 00:00:00 | |
| DB0ND-19 | 2026-09-02 01:06:40 | 51.42539 | 8.18174 | 74° | 46km/h | 3440m | -10.8m/s | -1.5°C | 50.7% | 674.8hPa | 2.6V | 00:00:00 | 00:00:00 | 00:00:00 | |
| WPPR-10 | 2026-09-02 01:06:39 | 51.42537 | 8.18155 | 75° | 47km/h | 3450m | -10.4m/s | -1.6°C | 50.7% | 673.9hPa | 2.6V | 00:00:00 | 00:00:00 | 00:00:00 | |
| DM0DOS-11 | 2026-09-02 01:06:38 | 51.42525 | 8.18079 | 76° | 49km/h | 3491m | -10.8m/s | -1.8°C | 52.2% | 670.5hPa | 2.6V | 07:59:07 | 02:49:00 | 00:00:00 | |
| DD8BA-10 | 2026-09-02 01:06:34 | 51.42525 | 8.18079 | 77° | 49km/h | 3491m | -10.8m/s | -1.7°C | 52.2% | 670.4hPa | 2.6V | 00:00:00 | 00:00:00 | 00:00:00 | |
| DM0DOS-11 | 2026-09-02 01:06:33 | 51.42512 | 8.17982 | 77° | 51km/h | 3539m | -9.9m/s | -2.1°C | 53.9% | 666.3hPa | 2.6V | 07:59:12 | 02:48:55 | 00:00:00 | |
| BIOWL1-15 | 2026-09-02 01:06:33 | 51.42522 | 8.18059 | 78° | 49km/h | 3501m | -10.6m/s | -1.9°C | 58.5% | 669.7hPa | 2.5V | 07:59:49 | 02:48:59 | 00:00:00 | |
| HSKMA3-T | 2026-09-02 01:06:29 | 51.42512 | 8.17982 | 77° | 51km/h | 3539m | -9.9m/s | -2.1°C | 59.5% | 666.3hPa | 2.6V | 08:00:40 | 02:48:55 | 00:00:00 | |
| DK9SH | 2026-09-02 01:06:28 | 51.42512 | 8.17982 | 78° | 51km/h | 3539m | -9.9m/s | -2.1°C | 52.6% | 666.3hPa | 2.6V | 07:59:00 | 00:00:00 | 00:00:00 | |
| DD1CC2-15 | 2026-09-02 01:06:26 | 51.42507 | 8.17942 | 81° | 49km/h | 3558m | -10.7m/s | -2.2°C | 54.8% | 664.7hPa | 2.6V | 07:59:00 | 00:00:00 | 00:00:00 | |
| DM0DOS-11 | 2026-09-02 01:06:26 | 51.42500 | 8.17885 | 77° | 51km/h | 3587m | -10.1m/s | -2.5°C | 57.4% | 662.2hPa | 2.6V | 07:59:17 | 02:48:50 | 00:00:00 | |
| DB0DAN | 2026-09-02 01:06:25 | 51.42502 | 8.17904 | 77° | 46km/h | 3578m | -10.3m/s | -2.4°C | 55.8% | 663.04hPa | 2.6V | 00:00:00 | 00:00:00 | 00:00:00 | |
| BIOWL1-15 | 2026-09-02 01:06:23 | 51.42497 | 8.17865 | 77° | 51km/h | 3597m | -10.8m/s | -2.6°C | 62.7% | 661.4hPa | 2.6V | 07:59:49 | 02:48:49 | 00:00:00 | |
| DM0DOS-11 | 2026-09-02 01:06:21 | 51.42486 | 8.17784 | 76° | 53km/h | 3638m | -11.3m/s | -2.9°C | 59.4% | 658.3hPa | 2.6V | 07:59:22 | 02:48:45 | 00:00:00 | |
| DL3AQ-11 | 2026-09-02 01:06:19 | 51.42484 | 8.17764 | 78° | 47km/h | 3649m | -11.4m/s | -3.0°C | 57.9% | 657.3hPa | 2.6V | 00:00:00 | 00:00:00 | 00:00:00 | |
| DM0DOS-11 | 2026-09-02 01:06:14 | 51.42474 | 8.17684 | 78° | 51km/h | 3692m | -10.8m/s | -3.2°C | 58.7% | 653.8hPa | 2.6V | 07:59:27 | 02:48:40 | 00:00:00 | |
| BIOWL1-15 | 2026-09-02 01:06:13 | 51.42461 | 8.17582 | 78° | 53km/h | 3742m | -9.3m/s | -3.4°C | 56.9% | 649.5hPa | 2.5V | 07:59:49 | 02:48:35 | 00:00:00 | |
| DJ2DS-15 | 2026-09-02 01:06:12 | 51.42469 | 8.17642 | 78° | 49km/h | 3713m | -10.9m/s | -3.3°C | 57.3% | 652.0hPa | 2.5V | 00:00:00 | 02:48:38 | 00:00:00 | |
| DB0DAN | 2026-09-02 01:06:10 | 51.42464 | 8.17602 | 77° | 47km/h | 3733m | -10m/s | -3.4°C | 50.6% | 650.3hPa | 2.5V | 00:00:00 | 00:00:00 | 00:00:00 | |
| DM0DOS-11 | 2026-09-02 01:06:09 | 51.42461 | 8.17582 | 78° | 53km/h | 3742m | -9.3m/s | -3.4°C | 51.8% | 649.5hPa | 2.5V | 07:59:32 | 02:48:35 | 00:00:00 | |
| DL3AQ-11 | 2026-09-02 01:06:08 | 51.42456 | 8.17542 | 78° | 49km/h | 3761m | -10.2m/s | -3.5°C | 47.9% | 648.0hPa | 2.6V | 00:00:00 | 00:00:00 | 00:00:00 | |
| WPPR-10 | 2026-09-02 01:06:07 | 51.42456 | 8.17542 | 78° | 49km/h | 3761m | -10.2m/s | -3.5°C | 47.9% | 648.0hPa | 2.6V | 00:00:00 | 00:00:00 | 00:00:00 | |
| DO3DL | 2026-09-02 01:06:06 | 51.42456 | 8.17542 | 79° | 51km/h | 3762m | -10.2m/s | -3.5°C | 47.9% | 648.0hPa | 2.6V | 07:59:00 | 00:00:00 | 00:00:00 | |
| DM0DOS-11 | 2026-09-02 01:06:04 | 51.42449 | 8.17482 | 79° | 51km/h | 3791m | -10.8m/s | -3.6°C | 39.7% | 645.6hPa | 2.6V | 07:59:37 | 02:48:30 | 00:00:00 | |
| BIOWL1-15 | 2026-09-02 01:06:02 | 51.42444 | 8.17443 | 79° | 49km/h | 3812m | -9.2m/s | -3.8°C | 45.1% | 644hPa | 2.5V | 07:59:49 | 02:48:28 | 00:00:00 | |
| AU51GT2 | 2026-09-02 01:06:01 | 51.42438 | 8.17403 | 76° | 49km/h | 3830m | -9.7m/s | -4.0°C | 38.8% | 642.5hPa | 2.5V | 00:00:00 | 00:00:00 | 00:00:00 | |
| DO3DL | 2026-09-02 01:06:00 | 51.42438 | 8.17403 | 77° | 51km/h | 3830m | -9.7m/s | -4.0°C | 38.8% | 642.5hPa | 2.5V | 07:59:00 | 00:00:00 | 00:00:00 | |
| DM0DOS-11 | 2026-09-02 01:05:59 | 51.42422 | 8.17286 | 75° | 47km/h | 3889m | -10.8m/s | -4.3°C | 36.4% | 637.7hPa | 2.5V | 07:59:47 | 02:48:20 | 00:00:00 | |
| BIOWL9-15 | 2026-09-02 01:05:59 | 51.42435 | 8.17383 | 77° | 47km/h | 3839m | -9.4m/s | -4.0°C | 38.0% | 641.7hPa | 2.5V | 00:00:00 | 00:00:00 | 00:00:00 | |
| DB0DAN | 2026-09-02 01:05:55 | 51.42425 | 8.17306 | 78° | 47km/h | 3879m | -9.9m/s | -4.3°C | 35.8% | 638.54hPa | 2.5V | 00:00:00 | 00:00:00 | 00:00:00 | |
| DM0DOS-11 | 2026-09-02 01:05:54 | 51.42408 | 8.17191 | 77° | 47km/h | 3937m | -9.6m/s | -4.5°C | 33.9% | 634hPa | 2.5V | 07:59:52 | 02:48:15 | 00:00:00 | |
| BIOWL1-15 | 2026-09-02 01:05:51 | 51.42414 | 8.17229 | 77° | 49km/h | 3918m | -9.4m/s | -4.4°C | 41.3% | 635.4hPa | 2.6V | 08:00:40 | 02:48:17 | 00:00:00 | |
| DM0DOS-11 | 2026-09-02 01:05:49 | 51.42395 | 8.17096 | 77° | 49km/h | 3984m | -10m/s | -4.7°C | 33.9% | 630.3hPa | 2.6V | 07:59:57 | 02:48:10 | 00:00:00 | |
| DB0UT-7 | 2026-09-02 01:05:49 | 51.42408 | 8.17191 | 78° | 49km/h | 3937m | -9.5m/s | -4.4°C | 33.9% | 633.9hPa | 2.6V | 00:00:00 | 02:48:15 | 00:00:00 | |
| BIOWL7-15 | 2026-09-02 01:05:48 | 51.42405 | 8.17172 | 79° | 47km/h | 3946m | -10.0m/s | -4.5°C | 32.7% | 633.2hPa | 2.6V | 00:00:00 | 00:00:00 | 00:00:00 | |
| DK9SH | 2026-09-02 01:05:47 | 51.42405 | 8.17172 | 79° | 47km/h | 3946m | -10.0m/s | -4.5°C | 32.7% | 633.2hPa | 2.6V | 08:00:00 | 00:00:00 | 00:00:00 | |
| DO3DL | 2026-09-02 01:05:46 | 51.42400 | 8.17134 | 79° | 47km/h | 3965m | -9.9m/s | -4.6°C | 32.9% | 631.8hPa | 2.6V | 08:00:00 | 00:00:00 | 00:00:00 | |
| DM0DOS-11 | 2026-09-02 01:05:44 | 51.42382 | 8.17000 | 77° | 49km/h | 4032m | -10m/s | -5°C | 36.9% | 626.5hPa | 2.6V | 08:00:02 | 02:48:05 | 00:00:00 | |
| HSKMA3-T | 2026-09-02 01:05:43 | 51.42393 | 8.17076 | 78° | 47km/h | 3993m | -8.7m/s | -4.8°C | 39.8% | 629.4hPa | 2.5V | 08:00:40 | 02:48:09 | 00:00:00 | |
| DD1CC3-15 | 2026-09-02 01:05:42 | 51.42392 | 8.17076 | 79° | 47km/h | 3993m | -8.7m/s | -4.8°C | 33.7% | 629.4hPa | 2.6V | 08:00:00 | 00:00:00 | 00:00:00 | |
| DD1CC2-15 | 2026-09-02 01:05:41 | 51.42390 | 8.17057 | 78° | 47km/h | 4003m | -10.8m/s | -4.8°C | 34.2% | 628.8hPa | 2.6V | 08:00:00 | 00:00:00 | 00:00:00 | |
| DB0DAN | 2026-09-02 01:05:40 | 51.42385 | 8.17019 | 78° | 44km/h | 4022m | -9.3m/s | -5°C | 35.9% | 627.27hPa | 2.6V | 00:00:00 | 00:00:00 | 00:00:00 | |
| BIOWL1-15 | 2026-09-02 01:05:40 | 51.42385 | 8.17019 | 78° | 47km/h | 4022m | -9.3m/s | -5°C | 42.4% | 627.3hPa | 2.6V | 08:00:40 | 02:48:06 | 00:00:00 | |
| DM0DOS-11 | 2026-09-02 01:05:39 | 51.42371 | 8.16905 | 79° | 47km/h | 4079m | -9.4m/s | -5.5°C | 54.2% | 622.7hPa | 2.6V | 08:00:07 | 02:48:00 | 00:00:00 | |
| DB0ND-19 | 2026-09-02 01:05:38 | 51.42378 | 8.16962 | 80° | 47km/h | 4051m | -9.3m/s | -5.3°C | 51.7% | 624.9hPa | 2.6V | 00:00:00 | 00:00:00 | 00:00:00 | |
| WPPR-10 | 2026-09-02 01:05:37 | 51.42375 | 8.16943 | 78° | 46km/h | 4060m | -8.4m/s | -5.4°C | 52.1% | 624.2hPa | 2.6V | 00:00:00 | 00:00:00 | 00:00:00 | |
| DJ2DS-15 | 2026-09-02 01:05:36 | 51.42373 | 8.16924 | 77° | 49km/h | 4069m | -11.1m/s | -5.4°C | 52.4% | 623.4hPa | 2.6V | 00:00:00 | 00:00:00 | 00:00:00 | |
| DM0DOS-11 | 2026-09-02 01:05:34 | 51.42360 | 8.16808 | 82° | 49km/h | 4126m | -9.5m/s | -5.9°C | 53.6% | 618.9hPa | 2.6V | 08:00:12 | 02:47:55 | 00:00:00 | |
| BIOWL1-15 | 2026-09-02 01:05:32 | 51.42362 | 8.16828 | 79° | 49km/h | 4116m | -10.3m/s | -5.8°C | 59.9% | 619.6hPa | 2.6V | 08:00:40 | 02:47:56 | 00:00:00 | |
| DJ2DS-15 | 2026-09-02 01:05:32 | 51.42366 | 8.16866 | 79° | 51km/h | 4097m | -9.4m/s | -5.6°C | 54.2% | 621.1hPa | 2.5V | 08:00:00 | 02:47:58 | 00:00:00 | |
| DO3DL | 2026-09-02 01:05:31 | 51.42366 | 8.16866 | 80° | 51km/h | 4097m | -9.5m/s | -5.7°C | 52.6% | 621.2hPa | 2.5V | 08:00:00 | 00:00:00 | 00:00:00 | |
| DD1CC1-15 | 2026-09-02 01:05:30 | 51.42364 | 8.16847 | 81° | 47km/h | 4106m | -10.4m/s | -5.8°C | 52.6% | 620.4hPa | 2.5V | 08:00:00 | 00:00:00 | 00:00:00 | |
| DM0DOS-11 | 2026-09-02 01:05:29 | 51.42350 | 8.16705 | 80° | 51km/h | 4172m | -9.4m/s | -6.2°C | 58.1% | 615.1hPa | 2.5V | 08:00:17 | 02:47:50 | 00:00:00 | |
| DK9SH | 2026-09-02 01:05:27 | 51.42356 | 8.16768 | 81° | 51km/h | 4146m | -10.0m/s | -6.0°C | 53.1% | 617.4hPa | 2.5V | 08:00:00 | 00:00:00 | 00:00:00 | |
| DB0DAN | 2026-09-02 01:05:25 | 51.42352 | 8.16726 | 80° | 49km/h | 4163m | -9.6m/s | -6.1°C | 54.8% | 615.91hPa | 2.5V | 00:00:00 | 00:00:00 | 00:00:00 | |
| DM0DOS-11 | 2026-09-02 01:05:24 | 51.42340 | 8.16603 | 81° | 53km/h | 4221m | -10.4m/s | -6.4°C | 47% | 611.4hPa | 2.5V | 08:00:22 | 02:47:45 | 00:00:00 | |
| BIOWL1-15 | 2026-09-02 01:05:22 | 51.42342 | 8.16624 | 82° | 51km/h | 4211m | -10.1m/s | -6.4°C | 54.9% | 612.3hPa | 2.5V | 08:00:40 | 02:47:46 | 00:00:00 | |
| DD1CC3-15 | 2026-09-02 01:05:21 | 51.42345 | 8.16665 | 83° | 51km/h | 4192m | -10.2m/s | -6.3°C | 55.7% | 613.6hPa | 2.5V | 08:00:00 | 00:00:00 | 00:00:00 | |
| DM0DOS-11 | 2026-09-02 01:05:19 | 51.42332 | 8.16498 | 83° | 53km/h | 4269m | -8.8m/s | -6.8°C | 53.3% | 607.7hPa | 2.5V | 08:00:27 | 02:47:40 | 00:00:00 | |
| DB0UT-7 | 2026-09-02 01:05:19 | 51.42340 | 8.16603 | 82° | 55km/h | 4221m | -10.4m/s | -6.4°C | 47.0% | 611.4hPa | 2.5V | 00:00:00 | 00:00:00 | 00:00:00 | |
| DO2KSM | 2026-09-02 01:05:15 | 51.42335 | 8.16540 | 84° | 53km/h | 4250m | -10.1m/s | -6.6°C | 49.4% | 609.2hPa | 2.5V | 08:00:00 | 00:00:00 | 00:00:00 | |
| DM0DOS-11 | 2026-09-02 01:05:14 | 51.42327 | 8.16394 | 85° | 55km/h | 4317m | -10.8m/s | -7.2°C | 55.5% | 603.9hPa | 2.5V | 08:00:32 | 02:47:35 | 00:00:00 | |
| DL4BBY-15 | 2026-09-02 01:05:14 | 51.42332 | 8.16498 | 84° | 55km/h | 4269m | -8.7m/s | -6.1°C | 0% | 0hPa | 2.6V | 00:00:00 | 00:00:00 | 00:00:00 | |
| BUE01 | 2026-09-02 01:05:13 | 51.42331 | 8.16477 | 85° | 51km/h | 4278m | -9.8m/s | -6.9°C | 52.0% | 606.9hPa | 2.6V | 00:00:00 | 00:00:00 | 00:00:00 | |
| DJ2DS-15 | 2026-09-02 01:05:12 | 51.42330 | 8.16456 | 85° | 55km/h | 4286m | -7.6m/s | -6.9°C | 54.1% | 606.1hPa | 2.6V | 00:00:00 | 02:47:38 | 00:00:00 | |
| HSKMA3-T | 2026-09-02 01:05:12 | 51.42330 | 8.16456 | 84° | 51km/h | 4286m | -7.7m/s | -7°C | 59.7% | 606.1hPa | 2.6V | 08:00:40 | 02:47:38 | 00:00:00 | |
| DB0DAN | 2026-09-02 01:05:10 | 51.42328 | 8.16415 | 86° | 51km/h | 4306m | -11.7m/s | -7.1°C | 53.8% | 604.77hPa | 2.6V | 00:00:00 | 00:00:00 | 00:00:00 | |
| BIOWL1-15 | 2026-09-02 01:05:10 | 51.42322 | 8.16328 | 84° | 55km/h | 4348m | -11.3m/s | -7.4°C | 59.7% | 601.5hPa | 2.6V | 08:00:40 | 02:47:32 | 00:00:00 | |
| DM0DOS-11 | 2026-09-02 01:05:09 | 51.42319 | 8.16283 | 85° | 55km/h | 4369m | -10.9m/s | -7.6°C | 54% | 599.8hPa | 2.5V | 08:00:37 | 02:47:30 | 00:00:00 | |
| DL1XH1-15 | 2026-09-02 01:05:07 | 51.42316 | 8.16240 | 83° | 53km/h | 4391m | -10.6m/s | -7.8°C | 55% | 598.2hPa | 2.5V | 08:00:39 | 02:47:28 | 00:00:00 | |
| DK9SH | 2026-09-02 01:05:07 | 51.42324 | 8.16349 | 84° | 55km/h | 4337m | -10.7m/s | -7.4°C | 52.8% | 602.4hPa | 2.6V | 08:00:00 | 00:00:00 | 00:00:00 | |
| DB0ND-19 | 2026-09-02 01:05:06 | 51.42322 | 8.16328 | 84° | 53km/h | 4347m | -11.3m/s | -7.4°C | 52.2% | 601.5hPa | 2.6V | 00:00:00 | 00:00:00 | 00:00:00 | |
| WPPR-10 | 2026-09-02 01:05:05 | 51.42321 | 8.16305 | 82° | 55km/h | 4358m | -11.2m/s | -7.5°C | 52.1% | 600.7hPa | 2.6V | 00:00:00 | 00:00:00 | 00:00:00 | |
| DM0DOS-11 | 2026-09-02 01:05:04 | 51.42312 | 8.16173 | 84° | 57km/h | 4421m | -9.7m/s | -8°C | 56.7% | 595.7hPa | 2.6V | 08:00:42 | 02:47:25 | 00:00:00 | |
| HSKMA3-T | 2026-09-02 01:05:02 | 51.42317 | 8.16240 | 84° | 53km/h | 4391m | -10.6m/s | -7.8°C | 60.2% | 598.2hPa | 2.5V | 08:00:40 | 02:47:28 | 00:00:00 | |
| DL1XH-west | 2026-09-02 01:05:00 | 51.42314 | 8.16196 | 85° | 55km/h | 4411m | -11.2m/s | -8°C | 61.6% | 596.7hPa | 2.6V | 08:01:31 | 02:47:26 | 00:00:00 | |
| DJ2DS-15 | 2026-09-02 01:05:00 | 51.42312 | 8.16173 | 84° | 55km/h | 4421m | -9.7m/s | -8.0°C | 54.8% | 595.7hPa | 2.5V | 00:00:00 | 00:00:00 | 00:00:00 | |
| AU51GT2 | 2026-09-02 01:04:58 | 51.42311 | 8.16150 | 84° | 55km/h | 4430m | -10.0m/s | -8.1°C | 55.7% | 595.0hPa | 2.5V | 00:00:00 | 00:00:00 | 00:00:00 | |
| DL1XH1-15 | 2026-09-02 01:04:57 | 51.42301 | 8.16017 | 80° | 57km/h | 4485m | -10.4m/s | -8.6°C | 60% | 590.7hPa | 2.5V | 08:00:49 | 02:47:18 | 00:00:00 | |
| BIOWL1-15 | 2026-09-02 01:04:55 | 51.42297 | 8.15972 | 81° | 58km/h | 4504m | -10.7m/s | -8.7°C | 64.3% | 589.5hPa | 2.6V | 08:01:31 | 02:47:16 | 00:00:00 | |
| DO3DL | 2026-09-02 01:04:55 | 51.42307 | 8.16083 | 84° | 55km/h | 4459m | -9.6m/s | -8.4°C | 57.7% | 593.0hPa | 2.6V | 08:01:00 | 00:00:00 | 00:00:00 | |
| DM0DOS-11 | 2026-09-02 01:04:54 | 51.42295 | 8.15949 | 82° | 57km/h | 4514m | -10.3m/s | -8.8°C | 58.5% | 588.7hPa | 2.6V | 08:00:52 | 02:47:15 | 00:00:00 | |
| HSKMA3-T | 2026-09-02 01:04:51 | 51.42299 | 8.15994 | 82° | 57km/h | 4495m | -8.9m/s | -8.7°C | 64.7% | 590.1hPa | 2.5V | 08:01:31 | 02:47:17 | 00:00:00 | |
| DL1XH-west | 2026-09-02 01:04:49 | 51.42295 | 8.15949 | 82° | 57km/h | 4514m | -10.3m/s | -8.8°C | 63.1% | 588.7hPa | 2.6V | 08:01:31 | 02:47:15 | 00:00:00 | |
| DL3AQ-11 | 2026-09-02 01:04:48 | 51.42293 | 8.15926 | 80° | 57km/h | 4524m | -9.1m/s | -8.8°C | 56.6% | 588.0hPa | 2.5V | 00:00:00 | 00:00:00 | 00:00:00 | |
| DL1XH1-15 | 2026-09-02 01:04:47 | 51.42280 | 8.15785 | 80° | 60km/h | 4587m | -11.6m/s | -9.2°C | 52% | 583.4hPa | 2.5V | 08:00:59 | 02:47:08 | 00:00:00 | |
| DK9SH | 2026-09-02 01:04:45 | 51.42288 | 8.15879 | 82° | 60km/h | 4544m | -11.0m/s | -9.0°C | 55.1% | 586.5hPa | 2.6V | 08:01:00 | 00:00:00 | 00:00:00 | |
| DM0DOS-11 | 2026-09-02 01:04:44 | 51.42273 | 8.15715 | 81° | 57km/h | 4618m | -10.1m/s | -9.5°C | 46.9% | 580.8hPa | 2.6V | 08:01:02 | 02:47:05 | 00:00:00 | |
| DL4BBY-15 | 2026-09-02 01:04:44 | 51.42285 | 8.15832 | 83° | 55km/h | 4565m | -10.9m/s | -8.4°C | 0% | 0hPa | 2.5V | 00:00:00 | 00:00:00 | 00:00:00 | |
| DD8BA-10 | 2026-09-02 01:04:43 | 51.42282 | 8.15808 | 80° | 57km/h | 4576m | -11.7m/s | -9.1°C | 53.7% | 584.2hPa | 2.5V | 00:00:00 | 00:00:00 | 00:00:00 | |
| DL1XH1-15 | 2026-09-02 01:04:42 | 51.42270 | 8.15669 | 82° | 57km/h | 4636m | -8.8m/s | -9.6°C | 47.3% | 579.4hPa | 2.5V | 08:01:04 | 02:47:03 | 00:00:00 | |
| HSKMA3-T | 2026-09-02 01:04:41 | 51.42278 | 8.15761 | 81° | 58km/h | 4598m | -9.8m/s | -9.3°C | 54.7% | 582.5hPa | 2.6V | 08:01:31 | 02:47:07 | 00:00:00 | |
| BIOWL1-15 | 2026-09-02 01:04:40 | 51.42275 | 8.15738 | 81° | 57km/h | 4608m | -10.8m/s | -9.4°C | 53.1% | 581.7hPa | 2.6V | 08:01:31 | 02:47:06 | 00:00:00 | |
| DL1XH-west | 2026-09-02 01:04:38 | 51.42271 | 8.15692 | 83° | 57km/h | 4627m | -9.1m/s | -9.6°C | 50.6% | 580.1hPa | 2.5V | 08:01:31 | 02:47:04 | 00:00:00 | |
| DL8DAS-15 | 2026-09-02 01:04:36 | 51.42269 | 8.15669 | 83° | 57km/h | 4636m | -8.8m/s | -9.6°C | 45.5% | 579.4hPa | 2.6V | 00:00:00 | 00:00:00 | 00:00:00 | |
| DB0ND-19 | 2026-09-02 01:04:35 | 51.42266 | 8.15624 | 83° | 57km/h | 4654m | -10.6m/s | -9.7°C | 46.3% | 578.0hPa | 2.6V | 00:00:00 | 00:00:00 | 00:00:00 | |
| DM0DOS-11 | 2026-09-02 01:04:34 | 51.42257 | 8.15488 | 83° | 57km/h | 4713m | -10.8m/s | -10.2°C | 50.5% | 573.7hPa | 2.6V | 08:01:12 | 02:46:55 | 00:00:00 | |
| HSKMA3-T | 2026-09-02 01:04:31 | 51.42259 | 8.15532 | 84° | 57km/h | 4692m | -9.5m/s | -10.1°C | 55.1% | 575.1hPa | 2.5V | 08:01:31 | 02:46:57 | 00:00:00 | |
| BIOWL1-15 | 2026-09-02 01:04:29 | 51.42256 | 8.15488 | 83° | 57km/h | 4713m | -10.8m/s | -10.3°C | 55.3% | 573.7hPa | 2.6V | 08:01:31 | 02:46:55 | 00:00:00 | |
| DM0DOS-11 | 2026-09-02 01:04:29 | 51.42250 | 8.15375 | 85° | 53km/h | 4763m | -11m/s | -10.7°C | 48.1% | 569.9hPa | 2.6V | 08:01:17 | 02:46:50 | 00:00:00 | |
| DL1XH-west | 2026-09-02 01:04:28 | 51.42255 | 8.15465 | 84° | 57km/h | 4723m | -11.2m/s | -10.3°C | 54.5% | 572.9hPa | 2.5V | 08:01:31 | 02:46:54 | 00:00:00 | |
| SONCRA | 2026-09-02 01:04:27 | 51.42252 | 8.15420 | 85° | 55km/h | 4744m | -10.1m/s | -10.5°C | 47.9% | 571.3hPa | 2.6V | 00:00:00 | 00:00:00 | 00:00:00 | |
| DO9LL-15 | 2026-09-02 01:04:26 | 51.42252 | 8.15420 | 86° | 55km/h | 4744m | -10.1m/s | -10.5°C | 49.8% | 571.3hPa | 2.6V | 00:00:00 | 02:46:52 | 00:00:00 | |
| DL8DAS-15 | 2026-09-02 01:04:25 | 51.42252 | 8.15420 | 86° | 55km/h | 4744m | -10.1m/s | -10.5°C | 48.0% | 571.3hPa | 2.6V | 00:00:00 | 00:00:00 | 00:00:00 | |
| DM0DOS-11 | 2026-09-02 01:04:24 | 51.42245 | 8.15268 | 86° | 53km/h | 4812m | -10.3m/s | -11°C | 41.8% | 566.5hPa | 2.6V | 08:01:22 | 02:46:45 | 00:00:00 | |
| HSKMA3-T | 2026-09-02 01:04:20 | 51.42246 | 8.15289 | 88° | 53km/h | 4803m | -9m/s | -11°C | 48.2% | 567hPa | 2.6V | 08:01:31 | 02:46:46 | 00:00:00 | |
| BIOWL1-15 | 2026-09-02 01:04:18 | 51.42245 | 8.15246 | 87° | 53km/h | 4822m | -10.8m/s | -11°C | 41.4% | 565.7hPa | 2.6V | 08:01:31 | 02:46:44 | 00:00:00 | |
| DL1XH-west | 2026-09-02 01:04:17 | 51.42244 | 8.15224 | 88° | 53km/h | 4832m | -10m/s | -11°C | 31.6% | 565hPa | 2.5V | 08:01:31 | 02:46:43 | 00:00:00 | |
| DM0DOS-11 | 2026-09-02 01:04:14 | 51.42242 | 8.15052 | 89° | 53km/h | 4913m | -10.8m/s | -11.3°C | 22.5% | 559.1hPa | 2.6V | 08:01:32 | 02:46:35 | 00:00:00 | |
| HSKMA3-T | 2026-09-02 01:04:09 | 51.42242 | 8.15052 | 89° | 55km/h | 4913m | -10.8m/s | -11.3°C | 26.3% | 559.1hPa | 2.6V | 08:02:22 | 02:46:35 | 00:00:00 | |
| BIOWL1-15 | 2026-09-02 01:04:07 | 51.42241 | 8.15009 | 91° | 55km/h | 4934m | -10.4m/s | -11.5°C | 28.1% | 557.5hPa | 2.5V | 08:02:22 | 02:46:33 | 00:00:00 | |
| DL1XH-west | 2026-09-02 01:04:06 | 51.42241 | 8.14987 | 89° | 57km/h | 4943m | -8.8m/s | -11.5°C | 29.9% | 556.8hPa | 2.5V | 08:03:13 | 02:46:32 | 00:00:00 | |
| DK9SH | 2026-09-02 01:04:05 | 51.42241 | 8.14986 | 90° | 57km/h | 4943m | -8.8m/s | -11.5°C | 24.8% | 556.8hPa | 2.6V | 08:02:00 | 00:00:00 | 00:00:00 | |
| DM0DOS-11 | 2026-09-02 01:04:04 | 51.42241 | 8.14830 | 89° | 55km/h | 5011m | -9.5m/s | -12.1°C | 70.3% | 551.8hPa | 2.6V | 08:01:42 | 02:46:25 | 00:00:00 | |
| HSKMA3-T | 2026-09-02 01:03:58 | 51.42241 | 8.14808 | 90° | 55km/h | 5021m | -11.7m/s | -12.2°C | 74.8% | 551.2hPa | 2.5V | 08:02:22 | 02:46:24 | 00:00:00 | |
| BIOWL1-15 | 2026-09-02 01:03:57 | 51.42240 | 8.14763 | 88° | 53km/h | 5042m | -11.2m/s | -12.4°C | 80.4% | 549.6hPa | 2.5V | 08:02:22 | 02:46:22 | 00:00:00 | |
| SONCRA | 2026-09-02 01:03:56 | 51.42240 | 8.14741 | 88° | 55km/h | 5053m | -12.3m/s | -12.5°C | 74.9% | 549.0hPa | 2.6V | 00:00:00 | 00:00:00 | 00:00:00 | |
| DB0DAN | 2026-09-02 01:03:55 | 51.42240 | 8.14741 | 88° | 53km/h | 5053m | -12.3m/s | -12.5°C | 74.9% | 548.96hPa | 2.6V | 00:00:00 | 00:00:00 | 00:00:00 | |
| BIOWL9-15 | 2026-09-02 01:03:55 | 51.42239 | 8.14718 | 87° | 55km/h | 5064m | -10.2m/s | -12.6°C | 75.9% | 548.1hPa | 2.6V | 00:00:00 | 00:00:00 | 00:00:00 | |
| HTAHTA | 2026-09-02 01:03:54 | 51.42234 | 8.14560 | 85° | 55km/h | 5134m | -10.2m/s | -13.3°C | 81.3% | 543.1hPa | 2.6V | 00:00:00 | 00:00:00 | 00:00:00 | |
| DM0DOS-11 | 2026-09-02 01:03:53 | 51.42236 | 8.14605 | 85° | 57km/h | 5115m | -9.4m/s | -13.1°C | 83.1% | 544.6hPa | 2.6V | 08:01:52 | 02:46:15 | 00:00:00 | |
| DL1XH-west | 2026-09-02 01:03:52 | 51.42238 | 8.14673 | 88° | 55km/h | 5086m | -10.8m/s | -12.8°C | 83.7% | 546.8hPa | 2.5V | 08:03:13 | 02:46:18 | 00:00:00 | |
| HSKMA3-T | 2026-09-02 01:03:48 | 51.42235 | 8.14583 | 88° | 57km/h | 5124m | -9.7m/s | -13.2°C | 86% | 543.8hPa | 2.6V | 08:02:22 | 02:46:14 | 00:00:00 | |
| BIOWL1-15 | 2026-09-02 01:03:46 | 51.42233 | 8.14538 | 88° | 57km/h | 5144m | -11.1m/s | -13.3°C | 87.5% | 542.5hPa | 2.5V | 08:02:22 | 02:46:12 | 00:00:00 | |
| DL4BBY-15 | 2026-09-02 01:03:44 | 51.42231 | 8.14492 | 87° | 60km/h | 5165m | -10.5m/s | -12.8°C | 0% | 0hPa | 2.5V | 00:00:00 | 00:00:00 | 00:00:00 | |
| DM0DOS-11 | 2026-09-02 01:03:43 | 51.42226 | 8.14376 | 85° | 58km/h | 5215m | -11m/s | -14°C | 88.3% | 537.4hPa | 2.5V | 08:02:02 | 02:46:05 | 00:00:00 | |
| DO3DL | 2026-09-02 01:03:41 | 51.42229 | 8.14446 | 88° | 57km/h | 5184m | -9.5m/s | -13.7°C | 83.7% | 539.5hPa | 2.5V | 08:02:00 | 00:00:00 | 00:00:00 | |
| DB0DAN | 2026-09-02 01:03:40 | 51.42227 | 8.14400 | 85° | 55km/h | 5204m | -10.1m/s | -13.9°C | 84.5% | 538.13hPa | 2.5V | 00:00:00 | 00:00:00 | 00:00:00 | |
| HSKMA3-T | 2026-09-02 01:03:37 | 51.42224 | 8.14328 | 84° | 58km/h | 5234m | -8.6m/s | -14.1°C | 90% | 536hPa | 2.6V | 08:02:22 | 02:46:03 | 00:00:00 | |
| BIOWL1-15 | 2026-09-02 01:03:35 | 51.42221 | 8.14280 | 83° | 60km/h | 5254m | -10.2m/s | -14.3°C | 90.7% | 534.8hPa | 2.6V | 08:02:22 | 02:46:01 | 00:00:00 | |
| DB0ND-19 | 2026-09-02 01:03:33 | 51.42217 | 8.14232 | 83° | 60km/h | 5274m | -8.8m/s | -14.5°C | 88.4% | 533.5hPa | 2.5V | 00:00:00 | 00:00:00 | 00:00:00 | |
| DJ2DS-15 | 2026-09-02 01:03:32 | 51.42216 | 8.14207 | 84° | 62km/h | 5282m | -8.2m/s | -14.5°C | 93.2% | 532.6hPa | 2.5V | 00:00:00 | 02:45:58 | 00:00:00 | |
| DD8BA-10 | 2026-09-02 01:03:31 | 51.42214 | 8.14182 | 83° | 62km/h | 5291m | -9.4m/s | -14.6°C | 93.6% | 532.1hPa | 2.6V | 00:00:00 | 00:00:00 | 00:00:00 | |
| DM0DOS-11 | 2026-09-02 01:03:30 | 51.42210 | 8.14131 | 82° | 62km/h | 5309m | -9.1m/s | -14.8°C | 94.4% | 530.8hPa | 2.6V | 08:02:12 | 02:45:55 | 00:00:00 | |
| HSKMA3-T | 2026-09-02 01:03:27 | 51.42205 | 8.14080 | 82° | 64km/h | 5329m | -10.5m/s | -14.8°C | 92.3% | 529.5hPa | 2.5V | 08:02:22 | 02:45:53 | 00:00:00 | |
| DB0DAN | 2026-09-02 01:03:25 | 51.42201 | 8.14029 | 83° | 60km/h | 5348m | -10.4m/s | -14.9°C | 0% | 528.15hPa | 2.6V | 00:00:00 | 00:00:00 | 00:00:00 | |
| BIOWL1-15 | 2026-09-02 01:03:25 | 51.42193 | 8.13928 | 84° | 60km/h | 5388m | -8.5m/s | -15.2°C | 89.4% | 525.3hPa | 2.5V | 08:02:22 | 02:45:47 | 00:00:00 | |
| SONCRA | 2026-09-02 01:03:25 | 51.42199 | 8.14003 | 81° | 60km/h | 5358m | -10.2m/s | -15.0°C | 86.7% | 527.5hPa | 2.6V | 00:00:00 | 00:00:00 | 00:00:00 | |
| HTAHTA | 2026-09-02 01:03:24 | 51.42197 | 8.13978 | 83° | 60km/h | 5368m | -9.7m/s | -15.1°C | 86.0% | 526.9hPa | 2.6V | 00:00:00 | 00:00:00 | 00:00:00 | |
| DM0DOS-11 | 2026-09-02 01:03:23 | 51.42190 | 8.13879 | 83° | 60km/h | 5406m | -9.3m/s | -15.4°C | 92.6% | 524.1hPa | 2.6V | 08:02:22 | 02:45:45 | 00:00:00 | |
| DO2JMG | 2026-09-02 01:03:19 | 51.42190 | 8.13879 | 84° | 60km/h | 5406m | -9.3m/s | -15.4°C | 90.6% | 524.1hPa | 2.6V | 08:02:22 | 02:45:45 | 00:00:00 | |
| BIOWL1-15 | 2026-09-02 01:03:17 | 51.42184 | 8.13780 | 86° | 60km/h | 5445m | -9.6m/s | -15.6°C | 88.2% | 521.4hPa | 2.5V | 08:03:13 | 02:45:41 | 00:00:00 | |
| HSKMA3-T | 2026-09-02 01:03:17 | 51.42187 | 8.13829 | 85° | 62km/h | 5425m | -11m/s | -15.5°C | 90.7% | 522.8hPa | 2.6V | 08:04:04 | 02:45:43 | 00:00:00 | |
| DL1CLM-18 | 2026-09-02 01:03:14 | 51.42183 | 8.13756 | 86° | 58km/h | 5454m | -9.4m/s | -15.7°C | 87.5% | 520.6hPa | 2.5V | 00:00:00 | 00:00:00 | 00:00:00 | |
| DJ2DS-15 | 2026-09-02 01:03:12 | 51.42181 | 8.13708 | 87° | 58km/h | 5473m | -11.2m/s | -15.7°C | 87.7% | 519.3hPa | 2.5V | 00:00:00 | 02:45:38 | 00:00:00 | |
| DB0DAN | 2026-09-02 01:03:10 | 51.42179 | 8.13661 | 87° | 55km/h | 5495m | -10.5m/s | 0°C | 0% | 0hPa | 2.5V | 00:00:00 | 00:00:00 | 00:00:00 | |
| DO2JMG | 2026-09-02 01:03:09 | 51.42179 | 8.13638 | 89° | 58km/h | 5505m | -10.2m/s | -15.9°C | 81.5% | 517.3hPa | 2.5V | 08:04:04 | 02:45:35 | 00:00:00 | |
| HSKMA3-T | 2026-09-02 01:03:06 | 51.42178 | 8.13567 | 88° | 58km/h | 5535m | -9.7m/s | -16.1°C | 79% | 515.4hPa | 2.6V | 08:04:04 | 02:45:32 | 00:00:00 | |
| BIOWL1-15 | 2026-09-02 01:03:05 | 51.42177 | 8.13543 | 90° | 57km/h | 5545m | -10.9m/s | -16.1°C | 76.5% | 514.5hPa | 2.5V | 08:03:13 | 02:45:31 | 00:00:00 | |
| DL1XH-west | 2026-09-02 01:03:04 | 51.42177 | 8.13520 | 90° | 57km/h | 5555m | -9.2m/s | -16.1°C | 75.6% | 513.9hPa | 2.5V | 08:03:13 | 02:45:30 | 00:00:00 | |
| DO2JMG | 2026-09-02 01:02:58 | 51.42180 | 8.13380 | 92° | 60km/h | 5614m | -10.7m/s | -16.1°C | 70.3% | 509.8hPa | 2.6V | 08:04:04 | 02:45:24 | 00:00:00 | |
| HSKMA3-T | 2026-09-02 01:02:56 | 51.42181 | 8.13332 | 93° | 58km/h | 5636m | -10.6m/s | -16.3°C | 66% | 508.4hPa | 2.5V | 08:04:04 | 02:45:22 | 00:00:00 | |
| BIOWL1-15 | 2026-09-02 01:02:55 | 51.42182 | 8.13308 | 93° | 58km/h | 5646m | -11.1m/s | -16.2°C | 55% | 507.6hPa | 2.5V | 08:03:13 | 02:45:21 | 00:00:00 | |
| DL1XH-west | 2026-09-02 01:02:53 | 51.42184 | 8.13260 | 93° | 58km/h | 5669m | -11.7m/s | -15.9°C | 34.3% | 506.1hPa | 2.6V | 08:03:13 | 02:45:19 | 00:00:00 | |
| BIOWL9-15 | 2026-09-02 01:02:53 | 51.42185 | 8.13236 | 93° | 60km/h | 5680m | -11.3m/s | -16.0°C | 32.7% | 505.4hPa | 2.5V | 00:00:00 | 00:00:00 | 00:00:00 | |
| DL1XH1-15 | 2026-09-02 01:02:52 | 51.42187 | 8.13188 | 91° | 60km/h | 5702m | -11m/s | -16°C | 39.6% | 503.9hPa | 2.5V | 08:02:51 | 02:45:16 | 00:00:00 | |
| HSKMA3-T | 2026-09-02 01:02:46 | 51.42190 | 8.13094 | 92° | 58km/h | 5743m | -10.3m/s | -16°C | 31.1% | 501hPa | 2.6V | 08:04:04 | 02:45:12 | 00:00:00 | |
| BIOWL1-15 | 2026-09-02 01:02:44 | 51.42193 | 8.12952 | 93° | 58km/h | 5808m | -10.5m/s | -16.3°C | 34.2% | 496.8hPa | 2.5V | 08:03:13 | 02:45:06 | 00:00:00 | |
| DM0DOS-11 | 2026-09-02 01:02:44 | 51.42194 | 8.12929 | 93° | 58km/h | 5818m | -10.6m/s | -16.4°C | 30.8% | 496.1hPa | 2.5V | 08:03:02 | 02:45:05 | 00:00:00 | |
| DL1XH-west | 2026-09-02 01:02:43 | 51.42192 | 8.13023 | 91° | 58km/h | 5776m | -11.6m/s | -16.2°C | 34% | 499.1hPa | 2.5V | 08:03:13 | 02:45:09 | 00:00:00 | |
| DO2JMG | 2026-09-02 01:02:42 | 51.42192 | 8.12999 | 91° | 58km/h | 5787m | -11.9m/s | -16.2°C | 33.8% | 498.2hPa | 2.6V | 08:04:04 | 02:45:08 | 00:00:00 | |
| DO3DL | 2026-09-02 01:02:41 | 51.42192 | 8.12999 | 92° | 58km/h | 5787m | -11.9m/s | -16.2°C | 28.9% | 498.2hPa | 2.5V | 08:03:00 | 00:00:00 | 00:00:00 | |
| BUE01 | 2026-09-02 01:02:38 | 51.42196 | 8.12882 | 92° | 57km/h | 5838m | -10.5m/s | -16.5°C | 28.4% | 494.9hPa | 2.5V | 00:00:00 | 00:00:00 | 00:00:00 | |
| DD1CC8 | 2026-09-02 01:02:37 | 51.42197 | 8.12858 | 92° | 57km/h | 5848m | -8.8m/s | -16.5°C | 28.1% | 494.1hPa | 2.5V | 00:00:00 | 00:00:00 | 00:00:00 | |
| DD1CC2-15 | 2026-09-02 01:02:35 | 51.42197 | 8.12858 | 94° | 58km/h | 5848m | -8.8m/s | -16.5°C | 28.1% | 494.1hPa | 2.5V | 08:03:00 | 00:00:00 | 00:00:00 | |
| DM0DOS-11 | 2026-09-02 01:02:34 | 51.42201 | 8.12703 | 90° | 55km/h | 5918m | -10.2m/s | -16.6°C | 21.5% | 489.5hPa | 2.5V | 08:03:12 | 02:44:55 | 00:00:00 | |
| DL1XH-west | 2026-09-02 01:02:33 | 51.42199 | 8.12790 | 92° | 55km/h | 5877m | -10.3m/s | -16.5°C | 27.1% | 492.2hPa | 2.6V | 08:03:13 | 02:44:59 | 00:00:00 | |
| BIOWL1-15 | 2026-09-02 01:02:32 | 51.42199 | 8.12768 | 93° | 55km/h | 5888m | -9.9m/s | -16.5°C | 26.3% | 491.6hPa | 2.6V | 08:03:13 | 02:44:58 | 00:00:00 | |
| DD8BA-10 | 2026-09-02 01:02:32 | 51.42199 | 8.12768 | 93° | 55km/h | 5888m | -9.8m/s | -16.4°C | 23.0% | 491.5hPa | 2.5V | 00:00:00 | 00:00:00 | 00:00:00 | |
| DB0ND-19 | 2026-09-02 01:02:31 | 51.42200 | 8.12747 | 91° | 53km/h | 5898m | -10.9m/s | -16.5°C | 21.2% | 490.9hPa | 2.5V | 00:00:00 | 00:00:00 | 00:00:00 | |
| WPPR-10 | 2026-09-02 01:02:30 | 51.42201 | 8.12725 | 91° | 53km/h | 5908m | -10.5m/s | -16.6°C | 20.9% | 490.1hPa | 2.5V | 00:00:00 | 00:00:00 | 00:00:00 | |
| DO3DL | 2026-09-02 01:02:27 | 51.42201 | 8.12680 | 93° | 55km/h | 5927m | -8.4m/s | -16.7°C | 20.5% | 488.8hPa | 2.5V | 08:03:00 | 00:00:00 | 00:00:00 | |
| DO9LL-15 | 2026-09-02 01:02:26 | 51.42201 | 8.12636 | 91° | 51km/h | 5947m | -11.7m/s | -16.8°C | 22.2% | 487.6hPa | 2.5V | 00:00:00 | 02:44:52 | 00:00:00 | |
| AU51GT2 | 2026-09-02 01:02:23 | 51.42202 | 8.12571 | 88° | 53km/h | 5976m | -9.1m/s | -17.0°C | 23.6% | 485.6hPa | 2.5V | 00:00:00 | 00:00:00 | 00:00:00 | |
| DM0DOS-11 | 2026-09-02 01:02:22 | 51.42200 | 8.12484 | 85° | 51km/h | 6017m | -11m/s | -17.1°C | 30.4% | 483.1hPa | 2.5V | 08:03:22 | 02:44:45 | 00:00:00 | |
| DL1XH-west | 2026-09-02 01:02:22 | 51.42202 | 8.12549 | 88° | 55km/h | 5985m | -10.3m/s | -17°C | 29.1% | 485.1hPa | 2.6V | 08:04:04 | 02:44:48 | 00:00:00 | |
| BIOWL1-15 | 2026-09-02 01:02:22 | 51.42200 | 8.12505 | 87° | 53km/h | 6007m | -10.4m/s | -17.1°C | 33.4% | 483.7hPa | 2.5V | 08:04:04 | 02:44:46 | 00:00:00 | |
| BIOWL9-15 | 2026-09-02 01:02:22 | 51.42201 | 8.12527 | 87° | 53km/h | 5996m | -11.8m/s | -17.1°C | 25.4% | 484.4hPa | 2.6V | 00:00:00 | 00:00:00 | 00:00:00 | |
| DL1XH1-15 | 2026-09-02 01:02:21 | 51.42197 | 8.12422 | 85° | 49km/h | 6047m | -10.5m/s | -17.3°C | 32.4% | 481.1hPa | 2.6V | 08:03:25 | 02:44:42 | 00:00:00 | |
| HSKMA3-T | 2026-09-02 01:02:21 | 51.42201 | 8.12527 | 88° | 53km/h | 5996m | -11.8m/s | -17.1°C | 30.5% | 484.4hPa | 2.5V | 08:04:04 | 02:44:47 | 00:00:00 | |
| DO3DL | 2026-09-02 01:02:21 | 51.42201 | 8.12527 | 89° | 53km/h | 5996m | -11.8m/s | -17.1°C | 25.4% | 484.4hPa | 2.5V | 08:04:00 | 00:00:00 | 00:00:00 | |
| DL3AQ-11 | 2026-09-02 01:02:19 | 51.42199 | 8.12463 | 86° | 51km/h | 6027m | -10.1m/s | -17.2°C | 28.6% | 482.4hPa | 2.5V | 00:00:00 | 00:00:00 | 00:00:00 | |
| DD1CC3-15 | 2026-09-02 01:02:17 | 51.42199 | 8.12463 | 87° | 53km/h | 6028m | -10.1m/s | -17.2°C | 28.6% | 482.4hPa | 2.5V | 08:04:00 | 00:00:00 | 00:00:00 | |
| DL8DAS-14 | 2026-09-02 01:02:16 | 51.42196 | 8.12402 | 85° | 49km/h | 6057m | -10.7m/s | -17.4°C | 30.7% | 480.5hPa | 2.5V | 00:00:00 | 00:00:00 | 00:00:00 | |
| DM0DOS-11 | 2026-09-02 01:02:15 | 51.42189 | 8.12279 | 83° | 51km/h | 6122m | -11.2m/s | -18°C | 36.1% | 476.5hPa | 2.5V | 08:03:32 | 02:44:35 | 00:00:00 | |
| DL1XH-west | 2026-09-02 01:02:12 | 51.42193 | 8.12341 | 85° | 53km/h | 6090m | -10m/s | -17.7°C | 40.2% | 478.4hPa | 2.6V | 08:04:04 | 02:44:38 | 00:00:00 | |
| BIOWL1-15 | 2026-09-02 01:02:11 | 51.42192 | 8.12320 | 84° | 53km/h | 6100m | -10.7m/s | -17.8°C | 40.1% | 477.8hPa | 2.6V | 08:04:04 | 02:44:37 | 00:00:00 | |
| HSKMA3-T | 2026-09-02 01:02:10 | 51.42191 | 8.12299 | 84° | 51km/h | 6111m | -11.8m/s | -17.9°C | 39% | 477.1hPa | 2.5V | 08:04:04 | 02:44:36 | 00:00:00 | |
| DO3DL | 2026-09-02 01:02:07 | 51.42188 | 8.12258 | 84° | 51km/h | 6133m | -10.5m/s | -18.1°C | 36.7% | 475.6hPa | 2.5V | 08:04:00 | 00:00:00 | 00:00:00 | |
| DF7PN | 2026-09-02 01:02:06 | 51.42185 | 8.12216 | 83° | 51km/h | 6155m | -11.9m/s | -18.3°C | 39.5% | 474.4hPa | 2.5V | 00:00:00 | 00:00:00 | 00:00:00 | |
| DD1CC1-15 | 2026-09-02 01:02:05 | 51.42185 | 8.12216 | 84° | 53km/h | 6155m | -11.9m/s | -18.3°C | 39.5% | 474.4hPa | 2.5V | 08:04:00 | 00:00:00 | 00:00:00 | |
| DM0DOS-11 | 2026-09-02 01:02:03 | 51.42173 | 8.12072 | 81° | 53km/h | 6232m | -11.4m/s | -19°C | 35.7% | 469.4hPa | 2.5V | 08:03:42 | 02:44:25 | 00:00:00 | |
| BIOWL1-15 | 2026-09-02 01:02:00 | 51.42171 | 8.12051 | 81° | 49km/h | 6242m | -9.6m/s | -19.1°C | 40.5% | 468.7hPa | 2.5V | 08:04:04 | 02:44:24 | 00:00:00 | |
| HSKMA3-T | 2026-09-02 01:01:59 | 51.42173 | 8.12072 | 81° | 53km/h | 6232m | -11.4m/s | -19°C | 39.2% | 469.4hPa | 2.5V | 08:04:04 | 02:44:25 | 00:00:00 | |
| DO2JMG | 2026-09-02 01:01:56 | 51.42168 | 8.12011 | 81° | 49km/h | 6260m | -11.3m/s | -19.3°C | 42.1% | 467.6hPa | 2.6V | 08:04:04 | 02:44:22 | 00:00:00 | |
| DB0DAN | 2026-09-02 01:01:55 | 51.42166 | 8.11990 | 80° | 51km/h | 6270m | -10.5m/s | 0°C | 0% | 0hPa | 2.6V | 00:00:00 | 00:00:00 | 00:00:00 | |
| DD1CC2-15 | 2026-09-02 01:01:54 | 51.42166 | 8.11990 | 81° | 53km/h | 6270m | -10.5m/s | -19.4°C | 36.7% | 466.9hPa | 2.6V | 08:04:00 | 00:00:00 | 00:00:00 | |
| DO3DL | 2026-09-02 01:01:53 | 51.42164 | 8.11970 | 82° | 49km/h | 6281m | -11.2m/s | -19.5°C | 35.3% | 466.3hPa | 2.6V | 08:04:00 | 00:00:00 | 00:00:00 | |
| DM0DOS-11 | 2026-09-02 01:01:52 | 51.42154 | 8.11867 | 81° | 53km/h | 6331m | -11.1m/s | -19.9°C | 38.5% | 463.1hPa | 2.6V | 08:03:52 | 02:44:15 | 00:00:00 | |
| BIOWL1-15 | 2026-09-02 01:01:49 | 51.42154 | 8.11867 | 81° | 53km/h | 6331m | -11.1m/s | -19.9°C | 41.8% | 463.1hPa | 2.6V | 08:04:04 | 02:44:15 | 00:00:00 | |
| DL1XH-west | 2026-09-02 01:01:47 | 51.42149 | 8.11826 | 79° | 53km/h | 6351m | -11.3m/s | -20.1°C | 41.4% | 461.9hPa | 2.5V | 08:04:04 | 02:44:13 | 00:00:00 | |
| DO2JMG | 2026-09-02 01:01:45 | 51.42144 | 8.11784 | 78° | 51km/h | 6372m | -10.6m/s | -20.3°C | 41.7% | 460.5hPa | 2.6V | 08:04:04 | 02:44:11 | 00:00:00 | |
| DL4BBY-15 | 2026-09-02 01:01:44 | 51.42141 | 8.11763 | 79° | 57km/h | 6381m | -11.2m/s | -19.7°C | 0% | 0hPa | 2.5V | 00:00:00 | 00:00:00 | 00:00:00 | |
| DM0DOS-11 | 2026-09-02 01:01:43 | 51.42130 | 8.11656 | 81° | 55km/h | 6436m | -11.6m/s | -20.9°C | 42.4% | 456.6hPa | 2.5V | 08:04:02 | 02:44:05 | 00:00:00 | |
| DL1XH1-15 | 2026-09-02 01:01:42 | 51.42126 | 8.11612 | 82° | 53km/h | 6457m | -12.3m/s | -21.1°C | 44.8% | 455.3hPa | 2.6V | 08:04:04 | 02:44:03 | 00:00:00 | |
| BIOWL1-15 | 2026-09-02 01:01:39 | 51.42130 | 8.11656 | 82° | 55km/h | 6436m | -11.6m/s | -20.9°C | 45.8% | 456.6hPa | 2.5V | 08:04:04 | 02:44:05 | 00:00:00 | |
| HSKMA3-T | 2026-09-02 01:01:38 | 51.42128 | 8.11634 | 81° | 55km/h | 6446m | -10.7m/s | -21°C | 46.9% | 456hPa | 2.6V | 08:04:04 | 02:44:04 | 00:00:00 | |
| DL1XH-west | 2026-09-02 01:01:37 | 51.42126 | 8.11612 | 83° | 53km/h | 6457m | -12.3m/s | -21.1°C | 48.3% | 455.3hPa | 2.6V | 08:04:04 | 02:44:03 | 00:00:00 | |
| BUE01 | 2026-09-02 01:01:36 | 51.42122 | 8.11568 | 81° | 53km/h | 6479m | -11.2m/s | -21.3°C | 43.7% | 454.0hPa | 2.6V | 00:00:00 | 00:00:00 | 00:00:00 | |
| DF7PN | 2026-09-02 01:01:35 | 51.42122 | 8.11568 | 81° | 53km/h | 6479m | -11.2m/s | -21.3°C | 43.7% | 454.0hPa | 2.6V | 00:00:00 | 00:00:00 | 00:00:00 | |
| DO2JMG | 2026-09-02 01:01:35 | 51.42122 | 8.11568 | 82° | 53km/h | 6480m | -11.2m/s | -21.3°C | 49.6% | 454hPa | 2.5V | 08:06:37 | 02:44:01 | 00:00:00 | |
| DO3DL | 2026-09-02 01:01:34 | 51.42122 | 8.11568 | 83° | 55km/h | 6480m | -11.2m/s | -21.3°C | 43.7% | 454.0hPa | 2.6V | 08:04:00 | 00:00:00 | 00:00:00 | |
| DD1CC2-15 | 2026-09-02 01:01:33 | 51.42120 | 8.11546 | 84° | 55km/h | 6490m | -9.6m/s | -21.4°C | 44.7% | 453.2hPa | 2.6V | 08:04:00 | 00:00:00 | 00:00:00 | |
| DL1XH1-15 | 2026-09-02 01:01:32 | 51.42106 | 8.11388 | 81° | 58km/h | 6558m | -10.3m/s | -22°C | 45.6% | 448.9hPa | 2.6V | 08:04:14 | 02:43:53 | 00:00:00 | |
| DM0DOS-11 | 2026-09-02 01:01:32 | 51.42110 | 8.11434 | 81° | 57km/h | 6539m | -9.2m/s | -21.8°C | 46.3% | 450.1hPa | 2.5V | 08:04:12 | 02:43:55 | 00:00:00 | |
| BIOWL1-15 | 2026-09-02 01:01:31 | 51.42110 | 8.11434 | 82° | 57km/h | 6539m | -9.2m/s | -21.8°C | 49% | 450.1hPa | 2.5V | 08:04:55 | 02:43:55 | 00:00:00 | |
| DL1XH-west | 2026-09-02 01:01:27 | 51.42106 | 8.11388 | 82° | 58km/h | 6558m | -10.3m/s | -22°C | 48.6% | 448.9hPa | 2.6V | 08:04:55 | 02:43:53 | 00:00:00 | |
| DO9LL-15 | 2026-09-02 01:01:26 | 51.42104 | 8.11366 | 82° | 57km/h | 6568m | -10.6m/s | -22.0°C | 45.6% | 448.4hPa | 2.6V | 00:00:00 | 02:43:52 | 00:00:00 | |
| DM0DOS-11 | 2026-09-02 01:01:23 | 51.42092 | 8.11204 | 83° | 57km/h | 6640m | -9.5m/s | -22.7°C | 46.6% | 444.1hPa | 2.6V | 08:04:22 | 02:43:45 | 00:00:00 | |
| DL1XH1-15 | 2026-09-02 01:01:22 | 51.42089 | 8.11158 | 84° | 58km/h | 6661m | -10.7m/s | -22.9°C | 45.7% | 442.9hPa | 2.5V | 08:04:24 | 02:43:43 | 00:00:00 | |
| BIOWL1-15 | 2026-09-02 01:01:22 | 51.42090 | 8.11181 | 84° | 57km/h | 6650m | -11.9m/s | -22.8°C | 48.8% | 443.6hPa | 2.5V | 08:04:55 | 02:43:44 | 00:00:00 | |
| DL1XH-west | 2026-09-02 01:01:17 | 51.42089 | 8.11158 | 85° | 58km/h | 6661m | -10.7m/s | -22.9°C | 48.4% | 442.9hPa | 2.5V | 08:04:55 | 02:43:43 | 00:00:00 | |
| HSKMA3-T | 2026-09-02 01:01:16 | 51.42087 | 8.11135 | 84° | 58km/h | 6672m | -10.7m/s | -23°C | 47.8% | 442.2hPa | 2.5V | 08:04:55 | 02:43:42 | 00:00:00 | |
| DM0DOS-11 | 2026-09-02 01:01:14 | 51.42078 | 8.10973 | 86° | 57km/h | 6745m | -10.5m/s | -23.6°C | 41.6% | 437.9hPa | 2.5V | 08:04:32 | 02:43:35 | 00:00:00 | |
| DL4BBY-15 | 2026-09-02 01:01:14 | 51.42084 | 8.11087 | 85° | 57km/h | 6692m | -11.8m/s | -22.5°C | 0% | 0hPa | 2.5V | 00:00:00 | 00:00:00 | 00:00:00 | |
| DD1CC2-15 | 2026-09-02 01:01:13 | 51.42084 | 8.11087 | 85° | 57km/h | 6692m | -11.9m/s | -23.1°C | 41.2% | 441.1hPa | 2.5V | 08:04:00 | 00:00:00 | 00:00:00 | |
| DL1XH1-15 | 2026-09-02 01:01:12 | 51.42076 | 8.10927 | 86° | 57km/h | 6765m | -10.9m/s | -23.7°C | 42.3% | 436.7hPa | 2.5V | 08:04:34 | 02:43:33 | 00:00:00 | |
| BIOWL1-15 | 2026-09-02 01:01:10 | 51.42077 | 8.10950 | 85° | 58km/h | 6755m | -10.2m/s | -23.6°C | 44.3% | 437.2hPa | 2.5V | 08:04:55 | 02:43:34 | 00:00:00 | |
| DL1XH-west | 2026-09-02 01:01:07 | 51.42076 | 8.10927 | 87° | 57km/h | 6765m | -10.9m/s | -23.7°C | 44.5% | 436.7hPa | 2.5V | 08:04:55 | 02:43:33 | 00:00:00 | |
| DO3DL | 2026-09-02 01:01:06 | 51.42076 | 8.10927 | 88° | 57km/h | 6765m | -10.9m/s | -23.7°C | 39.4% | 436.7hPa | 2.5V | 08:04:00 | 00:00:00 | 00:00:00 | |
| BUE01 | 2026-09-02 01:01:05 | 51.42072 | 8.10859 | 84° | 57km/h | 6796m | -8.8m/s | -24.0°C | 40.7% | 434.8hPa | 2.5V | 00:00:00 | 00:00:00 | 00:00:00 | |
| DF7PN | 2026-09-02 01:01:04 | 51.42072 | 8.10859 | 84° | 57km/h | 6796m | -8.8m/s | -24.0°C | 40.7% | 434.8hPa | 2.5V | 00:00:00 | 00:00:00 | 00:00:00 | |
| DM0DOS-11 | 2026-09-02 01:01:03 | 51.42066 | 8.10743 | 87° | 57km/h | 6850m | -13.4m/s | -24.5°C | 45.2% | 431.7hPa | 2.5V | 08:04:42 | 02:43:25 | 00:00:00 | |
| DL1XH1-15 | 2026-09-02 01:01:03 | 51.42064 | 8.10698 | 87° | 55km/h | 6874m | -10.9m/s | -24.8°C | 46.2% | 430.2hPa | 2.5V | 08:04:44 | 02:43:23 | 00:00:00 | |
| HSKMA3-T | 2026-09-02 01:01:02 | 51.42070 | 8.10812 | 84° | 57km/h | 6817m | -10.9m/s | -24.2°C | 46.2% | 433.6hPa | 2.5V | 08:04:55 | 02:43:28 | 00:00:00 | |
| BIOWL1-15 | 2026-09-02 01:00:57 | 51.42062 | 8.10653 | 86° | 55km/h | 6894m | -10.7m/s | -24.9°C | 49.1% | 429hPa | 2.4V | 08:04:55 | 02:43:21 | 00:00:00 | |
| DL1XH-west | 2026-09-02 01:00:57 | 51.42063 | 8.10675 | 86° | 57km/h | 6884m | -9.9m/s | -24.9°C | 48.4% | 429.6hPa | 2.5V | 08:04:55 | 02:43:22 | 00:00:00 | |
| DB0DAN | 2026-09-02 01:00:55 | 51.42062 | 8.10653 | 86° | 51km/h | 6894m | -10.7m/s | 0°C | 0% | 0hPa | 2.4V | 00:00:00 | 00:00:00 | 00:00:00 | |
| DD8BA-10 | 2026-09-02 01:00:53 | 51.42060 | 8.10608 | 86° | 55km/h | 6914m | -11.2m/s | -25.1°C | 49.7% | 427.8hPa | 2.5V | 00:00:00 | 00:00:00 | 00:00:00 | |
| DM0DOS-11 | 2026-09-02 01:00:52 | 51.42057 | 8.10520 | 86° | 55km/h | 6958m | -10.7m/s | -25.1°C | 36% | 425.2hPa | 2.5V | 08:04:52 | 02:43:15 | 00:00:00 | |
| DL1XH1-15 | 2026-09-02 01:00:52 | 51.42056 | 8.10475 | 86° | 57km/h | 6978m | -9.4m/s | -25.1°C | 26.2% | 424hPa | 2.5V | 08:04:54 | 02:43:13 | 00:00:00 | |
| DL1XH-west | 2026-09-02 01:00:46 | 51.42055 | 8.10453 | 87° | 57km/h | 6988m | -10.2m/s | -25°C | 22.6% | 423.5hPa | 2.5V | 08:04:55 | 02:43:12 | 00:00:00 | |
| BIOWL1-15 | 2026-09-02 01:00:44 | 51.42055 | 8.10276 | 91° | 55km/h | 7070m | -11.5m/s | -24.8°C | 14.2% | 418.7hPa | 2.5V | 08:05:46 | 02:43:04 | 00:00:00 | |
| DL4BBY-15 | 2026-09-02 01:00:44 | 51.42054 | 8.10408 | 89° | 57km/h | 7010m | -11.5m/s | -24.2°C | 0% | 0hPa | 2.5V | 00:00:00 | 00:00:00 | 00:00:00 | |
| DL8DAS-14 | 2026-09-02 01:00:43 | 51.42054 | 8.10387 | 89° | 53km/h | 7019m | -8.8m/s | -24.6°C | 9.7% | 421.5hPa | 2.5V | 00:00:00 | 00:00:00 | 00:00:00 | |
| DM0DOS-11 | 2026-09-02 01:00:42 | 51.42054 | 8.10299 | 91° | 55km/h | 7060m | -10.2m/s | -24.8°C | 12.3% | 419.1hPa | 2.5V | 08:05:02 | 02:43:05 | 00:00:00 | |
| DB0DAN | 2026-09-02 01:00:40 | 51.42054 | 8.10321 | 90° | 53km/h | 7050m | -10.2m/s | 0°C | 0% | 0hPa | 2.5V | 00:00:00 | 00:00:00 | 00:00:00 | |
| HSKMA3-T | 2026-09-02 01:00:37 | 51.42055 | 8.10254 | 91° | 57km/h | 7081m | -10.3m/s | -24.9°C | 14.5% | 418hPa | 2.5V | 08:05:46 | 02:43:03 | 00:00:00 | |
| DO2JMG | 2026-09-02 01:00:36 | 51.42055 | 8.10232 | 92° | 55km/h | 7091m | -9.2m/s | -25°C | 14.8% | 417.4hPa | 2.6V | 08:06:37 | 02:43:02 | 00:00:00 | |
| BIOWL1-15 | 2026-09-02 01:00:36 | 51.42056 | 8.10187 | 91° | 57km/h | 7112m | -11.9m/s | -25.1°C | 15.8% | 416.3hPa | 2.5V | 08:05:46 | 02:43:00 | 00:00:00 | |
| DL1XH-west | 2026-09-02 01:00:35 | 51.42056 | 8.10210 | 92° | 55km/h | 7101m | -11.7m/s | -25°C | 15.2% | 416.9hPa | 2.5V | 08:05:46 | 02:43:01 | 00:00:00 | |
| DF7PN | 2026-09-02 01:00:33 | 51.42056 | 8.10165 | 90° | 57km/h | 7122m | -9.2m/s | -25.2°C | 13.3% | 415.6hPa | 2.4V | 00:00:00 | 00:00:00 | 00:00:00 | |
| DM0DOS-11 | 2026-09-02 01:00:32 | 51.42057 | 8.10074 | 90° | 57km/h | 7159m | -9.7m/s | -25.4°C | 19.3% | 413.3hPa | 2.4V | 08:05:12 | 02:42:55 | 00:00:00 | |
| DL1XH1-15 | 2026-09-02 01:00:32 | 51.42057 | 8.10028 | 89° | 58km/h | 7181m | -12.9m/s | -25.6°C | 19.2% | 412.3hPa | 2.5V | 08:05:14 | 02:42:53 | 00:00:00 | |
| HSKMA3-T | 2026-09-02 01:00:26 | 51.42057 | 8.10004 | 90° | 58km/h | 7193m | -11.6m/s | -25.7°C | 22.6% | 411.5hPa | 2.5V | 08:05:46 | 02:42:52 | 00:00:00 | |
| DL1XH-west | 2026-09-02 01:00:25 | 51.42057 | 8.09980 | 90° | 58km/h | 7205m | -12.1m/s | -25.8°C | 23.1% | 410.9hPa | 2.5V | 08:05:46 | 02:42:51 | 00:00:00 | |
| BIOWL1-15 | 2026-09-02 01:00:24 | 51.42058 | 8.09887 | 92° | 58km/h | 7250m | -11.7m/s | -26.2°C | 24.2% | 408.4hPa | 2.5V | 08:05:46 | 02:42:47 | 00:00:00 | |
| DL1XH1-15 | 2026-09-02 01:00:22 | 51.42059 | 8.09792 | 90° | 55km/h | 7295m | -13.1m/s | -26.6°C | 23.6% | 405.8hPa | 2.5V | 08:05:24 | 02:42:43 | 00:00:00 | |
| HSKMA3-T | 2026-09-02 01:00:16 | 51.42060 | 8.09770 | 91° | 55km/h | 7308m | -12.7m/s | -26.7°C | 27.2% | 405.2hPa | 2.5V | 08:05:46 | 02:42:42 | 00:00:00 | |
| DL1XH-west | 2026-09-02 01:00:14 | 51.42060 | 8.09726 | 91° | 55km/h | 7332m | -11.9m/s | -26.9°C | 23.4% | 403.8hPa | 2.5V | 08:05:46 | 02:42:40 | 00:00:00 | |
| DL4BBY-15 | 2026-09-02 01:00:14 | 51.42060 | 8.09726 | 91° | 62km/h | 7331m | -11.8m/s | -26.2°C | 0% | 0hPa | 2.5V | 00:00:00 | 00:00:00 | 00:00:00 | |
| DL1NUX | 2026-09-02 01:00:13 | 51.42062 | 8.09587 | 91° | 57km/h | 7405m | -12.5m/s | -27.5°C | 16.4% | 399.8hPa | 2.5V | 08:05:33 | 02:42:34 | 00:00:00 | |
| DL1XH1-15 | 2026-09-02 01:00:12 | 51.42063 | 8.09564 | 91° | 57km/h | 7417m | -11.6m/s | -27.6°C | 16.4% | 399.2hPa | 2.5V | 08:05:34 | 02:42:33 | 00:00:00 | |
| BIOWL1-15 | 2026-09-02 01:00:10 | 51.42068 | 8.09368 | 91° | 66km/h | 7511m | -12.9m/s | -28.2°C | 21.4% | 394.1hPa | 2.4V | 08:05:46 | 02:42:25 | 00:00:00 | |
| HSKMA3-T | 2026-09-02 01:00:05 | 51.42064 | 8.09516 | 91° | 60km/h | 7441m | -12m/s | -27.8°C | 19.6% | 397.9hPa | 2.5V | 08:05:46 | 02:42:31 | 00:00:00 | |
| DL1XH-west | 2026-09-02 01:00:03 | 51.42065 | 8.09468 | 91° | 62km/h | 7463m | -11.3m/s | -27.9°C | 21.2% | 396.5hPa | 2.5V | 08:05:46 | 02:42:29 | 00:00:00 | |
| DL1XH1-15 | 2026-09-02 01:00:02 | 51.42068 | 8.09317 | 92° | 64km/h | 7534m | -12.8m/s | -28.3°C | 18% | 392.7hPa | 2.5V | 08:05:44 | 02:42:23 | 00:00:00 | |
| BIOWL1-15 | 2026-09-02 01:00:02 | 51.42068 | 8.09342 | 92° | 64km/h | 7523m | -10.9m/s | -28.2°C | 21.1% | 393.4hPa | 2.5V | 08:05:46 | 02:42:24 | 00:00:00 | |
| HSKMA3-T | 2026-09-02 00:59:54 | 51.42071 | 8.09237 | 92° | 66km/h | 7568m | -11.5m/s | -28.5°C | 20.8% | 390.7hPa | 2.5V | 08:06:37 | 02:42:20 | 00:00:00 | |
| DL1XH-west | 2026-09-02 00:59:53 | 51.42072 | 8.09210 | 93° | 66km/h | 7579m | -11m/s | -28.6°C | 20.6% | 390.1hPa | 2.4V | 08:06:37 | 02:42:19 | 00:00:00 | |
| DL1XH1-15 | 2026-09-02 00:59:52 | 51.42077 | 8.09047 | 92° | 66km/h | 7641m | -11m/s | -28.8°C | 15.8% | 386.8hPa | 2.4V | 08:05:54 | 02:42:13 | 00:00:00 | |
| DL3AQ-11 | 2026-09-02 00:59:51 | 51.42074 | 8.09157 | 94° | 66km/h | 7599m | -10.4m/s | -28.7°C | 15.0% | 389.0hPa | 2.5V | 00:00:00 | 00:00:00 | 00:00:00 | |
| DL1NUX | 2026-09-02 00:59:50 | 51.42079 | 8.08993 | 92° | 66km/h | 7662m | -9.8m/s | -28.9°C | 15.9% | 385.6hPa | 2.5V | 08:05:56 | 02:42:11 | 00:00:00 | |
| BIOWL1-15 | 2026-09-02 00:59:48 | 51.42077 | 8.09075 | 92° | 68km/h | 7630m | -11.2m/s | -28.7°C | 18% | 387.4hPa | 2.5V | 08:06:37 | 02:42:14 | 00:00:00 | |
| HSKMA3-T | 2026-09-02 00:59:44 | 51.42079 | 8.08966 | 92° | 68km/h | 7673m | -12.4m/s | -29°C | 18.3% | 385.1hPa | 2.5V | 08:06:37 | 02:42:10 | 00:00:00 | |
| DL1XH-west | 2026-09-02 00:59:43 | 51.42080 | 8.08938 | 94° | 69km/h | 7684m | -10.7m/s | -29.1°C | 18.1% | 384.5hPa | 2.5V | 08:06:37 | 02:42:09 | 00:00:00 | |
| DL1XH1-15 | 2026-09-02 00:59:42 | 51.42085 | 8.08770 | 91° | 69km/h | 7754m | -10.7m/s | -29.5°C | 14.2% | 380.8hPa | 2.5V | 08:06:04 | 02:42:03 | 00:00:00 | |
| BIOWL1-15 | 2026-09-02 00:59:39 | 51.42085 | 8.08770 | 91° | 69km/h | 7754m | -10.7m/s | -29.5°C | 16.3% | 380.8hPa | 2.5V | 08:06:37 | 02:42:03 | 00:00:00 | |
| DO3DL | 2026-09-02 00:59:39 | 51.42083 | 8.08826 | 94° | 69km/h | 7731m | -12.1m/s | -29.4°C | 13.3% | 382.1hPa | 2.5V | 08:06:00 | 00:00:00 | 00:00:00 | |
| DL1NUX | 2026-09-02 00:59:38 | 51.42086 | 8.08659 | 90° | 69km/h | 7799m | -11.2m/s | -29.9°C | 14% | 378.4hPa | 2.5V | 08:06:08 | 02:41:59 | 00:00:00 | |
| HSKMA3-T | 2026-09-02 00:59:34 | 51.42086 | 8.08687 | 91° | 68km/h | 7788m | -11.2m/s | -29.8°C | 16.2% | 379hPa | 2.5V | 08:06:37 | 02:42:00 | 00:00:00 | |
| DL1XH-west | 2026-09-02 00:59:33 | 51.42086 | 8.08659 | 90° | 69km/h | 7799m | -11.2m/s | -29.9°C | 16.1% | 378.4hPa | 2.5V | 08:06:37 | 02:41:59 | 00:00:00 | |
| DJ2DS-15 | 2026-09-02 00:59:32 | 51.42086 | 8.08632 | 90° | 66km/h | 7811m | -12.3m/s | -29.9°C | 13.9% | 377.9hPa | 2.5V | 08:06:00 | 02:41:58 | 00:00:00 | |
| DF7PN | 2026-09-02 00:59:31 | 51.42086 | 8.08605 | 89° | 68km/h | 7823m | -12.8m/s | -30.1°C | 12.2% | 377.3hPa | 2.5V | 00:00:00 | 00:00:00 | 00:00:00 | |
| DM0DOS-11 | 2026-09-02 00:59:29 | 51.42086 | 8.08550 | 90° | 66km/h | 7848m | -11.4m/s | -30.3°C | 13.9% | 375.9hPa | 2.5V | 08:06:12 | 02:41:55 | 00:00:00 | |
| DL1NUX | 2026-09-02 00:59:28 | 51.42085 | 8.08390 | 89° | 64km/h | 7914m | -10.2m/s | -30.7°C | 12.9% | 372.4hPa | 2.4V | 08:06:18 | 02:41:49 | 00:00:00 | |
| BIOWL1-15 | 2026-09-02 00:59:26 | 51.42086 | 8.08469 | 89° | 68km/h | 7881m | -11.3m/s | -30.6°C | 15.4% | 374.2hPa | 2.5V | 08:06:37 | 02:41:52 | 00:00:00 | |
| DO9LL-15 | 2026-09-02 00:59:26 | 51.42086 | 8.08469 | 90° | 66km/h | 7881m | -11.2m/s | -30.6°C | 13.4% | 374.1hPa | 2.5V | 00:00:00 | 02:41:52 | 00:00:00 | |
| SO1NDE-10 | 2026-09-02 00:59:25 | 51.42086 | 8.08442 | 89° | 66km/h | 7892m | -12.0m/s | -30.6°C | 13.2% | 373.5hPa | 2.5V | 00:00:00 | 02:41:51 | 00:00:00 | |
| DM0DOS-11 | 2026-09-02 00:59:24 | 51.42085 | 8.08284 | 89° | 66km/h | 7957m | -11.7m/s | -31.1°C | 13.4% | 370.1hPa | 2.5V | 08:06:22 | 02:41:45 | 00:00:00 | |
| HSKMA3-T | 2026-09-02 00:59:23 | 51.42085 | 8.08390 | 89° | 64km/h | 7914m | -10.2m/s | -30.7°C | 15% | 372.4hPa | 2.4V | 08:06:37 | 02:41:49 | 00:00:00 | |
| DD1CC9-15 | 2026-09-02 00:59:22 | 51.42085 | 8.08364 | 90° | 66km/h | 7925m | -12.3m/s | -30.8°C | 11.3% | 371.8hPa | 2.5V | 08:06:00 | 00:00:00 | 00:00:00 | |
| DL1XH-west | 2026-09-02 00:59:22 | 51.42085 | 8.08364 | 89° | 66km/h | 7925m | -12.3m/s | -30.8°C | 15% | 371.8hPa | 2.5V | 08:06:37 | 02:41:48 | 00:00:00 | |
| DD1CC1-15 | 2026-09-02 00:59:20 | 51.42085 | 8.08337 | 89° | 68km/h | 7937m | -11.5m/s | -30.9°C | 11.5% | 371.2hPa | 2.5V | 08:06:00 | 00:00:00 | 00:00:00 | |
| DO3DL | 2026-09-02 00:59:19 | 51.42084 | 8.08284 | 91° | 66km/h | 7957m | -11.7m/s | -31.1°C | 11.7% | 370.1hPa | 2.5V | 08:06:00 | 00:00:00 | 00:00:00 | |
| DO1YAY-16 | 2026-09-02 00:59:18 | 51.42084 | 8.08231 | 89° | 64km/h | 7980m | -11.4m/s | -31.2°C | 11.9% | 368.9hPa | 2.5V | 00:00:00 | 00:00:00 | 00:00:00 | |
| DD8BA-10 | 2026-09-02 00:59:17 | 51.42084 | 8.08231 | 90° | 66km/h | 7980m | -11.3m/s | -31.2°C | 13.7% | 368.8hPa | 2.5V | 00:00:00 | 00:00:00 | 00:00:00 | |
| DL1NUX | 2026-09-02 00:59:16 | 51.42085 | 8.08073 | 91° | 66km/h | 8046m | -11.7m/s | -31.7°C | 15.7% | 365.6hPa | 2.5V | 08:06:30 | 02:41:37 | 00:00:00 | |
| HTAHTA | 2026-09-02 00:59:15 | 51.42084 | 8.08152 | 89° | 66km/h | 8012m | -10.7m/s | -31.5°C | 12.7% | 367.2hPa | 2.5V | 00:00:00 | 00:00:00 | 00:00:00 | |
| DM0DOS-11 | 2026-09-02 00:59:14 | 51.42085 | 8.08018 | 90° | 68km/h | 8068m | -11.8m/s | -31.9°C | 16.8% | 364.5hPa | 2.5V | 08:06:32 | 02:41:35 | 00:00:00 | |
| DL4BBY-15 | 2026-09-02 00:59:14 | 51.42084 | 8.08152 | 90° | 68km/h | 8012m | -10.6m/s | -30.9°C | 0% | 0hPa | 2.4V | 00:00:00 | 00:00:00 | 00:00:00 | |
| DD1CC3-15 | 2026-09-02 00:59:13 | 51.42084 | 8.08152 | 90° | 66km/h | 8012m | -10.7m/s | -31.5°C | 12.7% | 367.2hPa | 2.4V | 08:06:00 | 00:00:00 | 00:00:00 | |
| DL1XH1-15 | 2026-09-02 00:59:12 | 51.42085 | 8.07964 | 89° | 68km/h | 8089m | -9.9m/s | -32.1°C | 18.8% | 363.2hPa | 2.4V | 08:06:34 | 02:41:33 | 00:00:00 | |
| HSKMA3-T | 2026-09-02 00:59:12 | 51.42084 | 8.08099 | 91° | 64km/h | 8034m | -11.4m/s | -31.7°C | 17.8% | 366.1hPa | 2.4V | 08:06:37 | 02:41:38 | 00:00:00 | |
| DL1XH-west | 2026-09-02 00:59:11 | 51.42085 | 8.08073 | 92° | 66km/h | 8046m | -11.7m/s | -31.7°C | 18.4% | 365.6hPa | 2.5V | 08:06:37 | 02:41:37 | 00:00:00 | |
| DD1CC2-15 | 2026-09-02 00:59:10 | 51.42085 | 8.08046 | 91° | 68km/h | 8057m | -11.0m/s | -31.8°C | 14.3% | 365.0hPa | 2.4V | 08:06:00 | 00:00:00 | 00:00:00 | |
| DD8BA-10 | 2026-09-02 00:59:07 | 51.42085 | 8.07964 | 90° | 68km/h | 8090m | -9.9m/s | -32.1°C | 18.8% | 363.2hPa | 2.4V | 00:00:00 | 00:00:00 | 00:00:00 | |
| DO2KSM | 2026-09-02 00:59:05 | 51.42086 | 8.07937 | 93° | 68km/h | 8099m | -9.1m/s | -32.2°C | 17.9% | 362.7hPa | 2.5V | 08:06:00 | 00:00:00 | 00:00:00 | |
| DM0DOS-11 | 2026-09-02 00:59:04 | 51.42088 | 8.07743 | 90° | 68km/h | 8173m | -11.8m/s | -32.9°C | 27.9% | 358.9hPa | 2.5V | 08:06:42 | 02:41:25 | 00:00:00 | |
| DL1XH1-15 | 2026-09-02 00:59:02 | 51.42089 | 8.07688 | 91° | 68km/h | 8195m | -10.3m/s | -33.1°C | 31.1% | 357.7hPa | 2.5V | 08:06:44 | 02:41:23 | 00:00:00 | |
| HSKMA3-T | 2026-09-02 00:59:01 | 51.42087 | 8.07798 | 91° | 69km/h | 8151m | -12m/s | -32.7°C | 29.4% | 360.1hPa | 2.5V | 08:07:28 | 02:41:27 | 00:00:00 | |
| BIOWL1-15 | 2026-09-02 00:59:00 | 51.42090 | 8.07661 | 92° | 69km/h | 8206m | -11.4m/s | -33.2°C | 36.2% | 357.2hPa | 2.5V | 08:07:28 | 02:41:22 | 00:00:00 | |
| DL1XH-west | 2026-09-02 00:59:00 | 51.42088 | 8.07770 | 93° | 68km/h | 8162m | -11.3m/s | -32.8°C | 30.4% | 359.4hPa | 2.5V | 08:07:28 | 02:41:26 | 00:00:00 | |
| DO2JMG | 2026-09-02 00:58:57 | 51.42089 | 8.07688 | 91° | 68km/h | 8195m | -10.3m/s | -33.1°C | 34.8% | 357.7hPa | 2.5V | 08:07:28 | 02:41:23 | 00:00:00 | |
| DB0ND-19 | 2026-09-02 00:58:54 | 51.42091 | 8.07606 | 90° | 69km/h | 8228m | -11.9m/s | -33.4°C | 31.2% | 356.1hPa | 2.5V | 00:00:00 | 00:00:00 | 00:00:00 | |
| WPPR-10 | 2026-09-02 00:58:53 | 51.42092 | 8.07552 | 90° | 68km/h | 8249m | -9.4m/s | -33.6°C | 33.1% | 355.0hPa | 2.5V | 00:00:00 | 00:00:00 | 00:00:00 | |
| DM0DOS-11 | 2026-09-02 00:58:52 | 51.42093 | 8.07469 | 92° | 68km/h | 8283m | -12.4m/s | -33.9°C | 40% | 353.5hPa | 2.5V | 08:06:52 | 02:41:15 | 00:00:00 | |
| DL1NUX | 2026-09-02 00:58:52 | 51.42094 | 8.07415 | 90° | 64km/h | 8305m | -10m/s | -34.1°C | 41.4% | 352.2hPa | 2.5V | 08:06:54 | 02:41:13 | 00:00:00 | |
| DL1XH-west | 2026-09-02 00:58:50 | 51.42092 | 8.07496 | 91° | 69km/h | 8270m | -13.2m/s | -33.8°C | 42.4% | 354hPa | 2.4V | 08:07:28 | 02:41:16 | 00:00:00 | |
| BIOWL1-15 | 2026-09-02 00:58:46 | 51.42095 | 8.07389 | 91° | 66km/h | 8316m | -12.2m/s | -34.2°C | 45.3% | 351.8hPa | 2.4V | 08:07:28 | 02:41:12 | 00:00:00 | |
| DO2JMG | 2026-09-02 00:58:45 | 51.42095 | 8.07363 | 90° | 66km/h | 8328m | -10.9m/s | -34.3°C | 45.7% | 351.2hPa | 2.4V | 08:07:28 | 02:41:11 | 00:00:00 | |
| SONCRA | 2026-09-02 00:58:45 | 51.42095 | 8.07363 | 90° | 66km/h | 8328m | -10.9m/s | -34.3°C | 38.3% | 351.2hPa | 2.4V | 00:00:00 | 00:00:00 | 00:00:00 | |
| HTAHTA | 2026-09-02 00:58:44 | 51.42095 | 8.07309 | 89° | 68km/h | 8350m | -11.3m/s | -34.5°C | 39.1% | 350.1hPa | 2.4V | 00:00:00 | 00:00:00 | 00:00:00 | |
| DM0DOS-11 | 2026-09-02 00:58:43 | 51.42093 | 8.07198 | 88° | 69km/h | 8397m | -12.4m/s | -34.9°C | 46.5% | 347.9hPa | 2.4V | 08:07:02 | 02:41:05 | 00:00:00 | |
| DL1XH-west | 2026-09-02 00:58:40 | 51.42094 | 8.07226 | 88° | 69km/h | 8385m | -11.2m/s | -34.8°C | 49.3% | 348.4hPa | 2.4V | 08:07:28 | 02:41:06 | 00:00:00 | |
| HSKMA3-T | 2026-09-02 00:58:39 | 51.42093 | 8.07198 | 88° | 69km/h | 8397m | -12.5m/s | -34.9°C | 50.2% | 347.9hPa | 2.4V | 08:07:28 | 02:41:05 | 00:00:00 | |
| BIOWL1-15 | 2026-09-02 00:58:36 | 51.42091 | 8.07060 | 89° | 68km/h | 8458m | -12.1m/s | -35.5°C | 51.8% | 344.8hPa | 2.5V | 08:07:28 | 02:41:00 | 00:00:00 | |
| DO2JMG | 2026-09-02 00:58:35 | 51.42091 | 8.07087 | 88° | 66km/h | 8445m | -12.3m/s | -35.4°C | 51.8% | 345.4hPa | 2.4V | 08:07:28 | 02:41:01 | 00:00:00 | |
| DM0DOS-11 | 2026-09-02 00:58:33 | 51.42086 | 8.06924 | 87° | 66km/h | 8512m | -10.7m/s | -36°C | 48.9% | 341.9hPa | 2.4V | 08:07:12 | 02:40:55 | 00:00:00 | |
| DL1XH-west | 2026-09-02 00:58:29 | 51.42086 | 8.06924 | 87° | 66km/h | 8512m | -10.7m/s | -36°C | 51.7% | 341.9hPa | 2.4V | 08:07:28 | 02:40:55 | 00:00:00 | |
| BIOWL1-15 | 2026-09-02 00:58:25 | 51.42075 | 8.06714 | 85° | 64km/h | 8599m | -11.1m/s | -36.8°C | 56.3% | 337.7hPa | 2.5V | 08:07:28 | 02:40:47 | 00:00:00 | |
| DO2JMG | 2026-09-02 00:58:25 | 51.42082 | 8.06819 | 84° | 66km/h | 8555m | -11.5m/s | -36.4°C | 52% | 340hPa | 2.5V | 08:07:28 | 02:40:51 | 00:00:00 | |
| DO2KSM | 2026-09-02 00:58:24 | 51.42082 | 8.06818 | 85° | 66km/h | 8555m | -11.5m/s | -36.4°C | 43.7% | 340.0hPa | 2.5V | 08:07:00 | 00:00:00 | 00:00:00 | |
| SO1NDE-10 | 2026-09-02 00:58:23 | 51.42078 | 8.06766 | 84° | 62km/h | 8578m | -10.9m/s | -36.5°C | 50.6% | 338.8hPa | 2.5V | 00:00:00 | 02:40:49 | 00:00:00 | |
| DL1NUX | 2026-09-02 00:58:22 | 51.42069 | 8.06611 | 83° | 62km/h | 8645m | -10.1m/s | -37.2°C | 58.9% | 335.5hPa | 2.5V | 08:07:24 | 02:40:43 | 00:00:00 | |
| DL1XH-west | 2026-09-02 00:58:18 | 51.42071 | 8.06636 | 83° | 64km/h | 8633m | -11.4m/s | -37.1°C | 58.6% | 336.1hPa | 2.4V | 08:07:28 | 02:40:44 | 00:00:00 | |
| DO2JMG | 2026-09-02 00:58:14 | 51.42063 | 8.06536 | 82° | 62km/h | 8672m | -8.8m/s | -37.5°C | 64% | 334.1hPa | 2.5V | 08:07:28 | 02:40:40 | 00:00:00 | |
| BIOWL1-15 | 2026-09-02 00:58:14 | 51.42056 | 8.06460 | 81° | 64km/h | 8703m | -10.2m/s | -37.7°C | 67% | 332.6hPa | 2.5V | 08:08:19 | 02:40:37 | 00:00:00 | |
| DB0NH | 2026-09-02 00:58:14 | 51.42063 | 8.06536 | 82° | 58km/h | 8672m | -8.8m/s | -37.4°C | 63.1% | 334.1hPa | 2.5V | 08:07:00 | 02:40:40 | 00:00:00 | |
| DM0DOS-11 | 2026-09-02 00:58:13 | 51.42051 | 8.06410 | 80° | 62km/h | 8724m | -11.2m/s | -37.9°C | 65.7% | 331.7hPa | 2.5V | 08:07:32 | 02:40:35 | 00:00:00 | |
| DJ2DS-15 | 2026-09-02 00:58:12 | 51.42058 | 8.06486 | 81° | 60km/h | 8693m | -10.7m/s | -37.6°C | 65.5% | 333.1hPa | 2.4V | 00:00:00 | 02:40:38 | 00:00:00 | |
| DO3DL | 2026-09-02 00:58:10 | 51.42056 | 8.06460 | 82° | 64km/h | 8703m | -10.2m/s | -37.7°C | 59.7% | 332.6hPa | 2.4V | 08:08:00 | 00:00:00 | 00:00:00 | |
| DL1NUX | 2026-09-02 00:58:08 | 51.42046 | 8.06360 | 81° | 64km/h | 8748m | -12.4m/s | -38.1°C | 65.7% | 330.6hPa | 2.4V | 08:07:34 | 02:40:33 | 00:00:00 | |
| DL1XH-west | 2026-09-02 00:58:08 | 51.42048 | 8.06385 | 81° | 64km/h | 8736m | -12.5m/s | -38°C | 67.6% | 331.2hPa | 2.4V | 08:08:19 | 02:40:34 | 00:00:00 | |
| BIOWL1-15 | 2026-09-02 00:58:03 | 51.42037 | 8.06261 | 80° | 60km/h | 8797m | -11.5m/s | -38.5°C | 68.7% | 328.2hPa | 2.5V | 08:08:19 | 02:40:29 | 00:00:00 | |
| DM0DOS-11 | 2026-09-02 00:58:03 | 51.42027 | 8.06166 | 79° | 60km/h | 8841m | -11.4m/s | -38.9°C | 68.9% | 326hPa | 2.5V | 08:07:42 | 02:40:25 | 00:00:00 | |
| HSKMA3-T | 2026-09-02 00:57:58 | 51.42025 | 8.06143 | 82° | 58km/h | 8851m | -8.7m/s | -39°C | 69.6% | 325.5hPa | 2.5V | 08:08:19 | 02:40:24 | 00:00:00 | |
| DL1XH-west | 2026-09-02 00:57:57 | 51.42022 | 8.06119 | 81° | 58km/h | 8861m | -10.3m/s | -39°C | 69.7% | 325.1hPa | 2.4V | 08:08:19 | 02:40:23 | 00:00:00 | |
| BIOWL1-15 | 2026-09-02 00:57:54 | 51.42010 | 8.06003 | 80° | 57km/h | 8917m | -10.5m/s | -39.3°C | 70.5% | 322.5hPa | 2.5V | 08:08:19 | 02:40:18 | 00:00:00 | |
| DM0DOS-11 | 2026-09-02 00:57:53 | 51.42002 | 8.05934 | 80° | 57km/h | 8952m | -11.7m/s | -39.6°C | 70.4% | 320.9hPa | 2.4V | 08:07:52 | 02:40:15 | 00:00:00 | |
| HSKMA3-T | 2026-09-02 00:57:48 | 51.42000 | 8.05911 | 80° | 57km/h | 8963m | -10.2m/s | -39.7°C | 71% | 320.3hPa | 2.5V | 08:08:19 | 02:40:14 | 00:00:00 | |
| DL1XH-west | 2026-09-02 00:57:46 | 51.41995 | 8.05866 | 79° | 57km/h | 8983m | -11.2m/s | -39.9°C | 71.2% | 319.4hPa | 2.4V | 08:08:19 | 02:40:12 | 00:00:00 | |
| DL4XJ-10 | 2026-09-02 00:57:45 | 51.41992 | 8.05843 | 80° | 58km/h | 8995m | -10.3m/s | -39.4°C | 0% | 0hPa | 2.4V | 00:00:00 | 00:00:00 | 00:00:00 | |
| DM0DOS-11 | 2026-09-02 00:57:44 | 51.41977 | 8.05707 | 79° | 58km/h | 9058m | -10.5m/s | -40.6°C | 70.9% | 315.8hPa | 2.4V | 08:08:02 | 02:40:05 | 00:00:00 | |
| AU51GT2 | 2026-09-02 00:57:44 | 51.41987 | 8.05799 | 80° | 55km/h | 9014m | -11.3m/s | -40.2°C | 63.7% | 318.0hPa | 2.4V | 00:00:00 | 00:00:00 | 00:00:00 | |
| DB0NH | 2026-09-02 00:57:43 | 51.41987 | 8.05799 | 81° | 60km/h | 9014m | -11.2m/s | -40.1°C | 70.7% | 317.9hPa | 2.4V | 00:00:00 | 02:40:09 | 00:00:00 | |
| DL1NUX | 2026-09-02 00:57:42 | 51.41971 | 8.05661 | 78° | 57km/h | 9080m | -11m/s | -40.7°C | 69.7% | 314.9hPa | 2.4V | 08:08:04 | 02:40:03 | 00:00:00 | |
| BIOWL1-15 | 2026-09-02 00:57:41 | 51.41982 | 8.05753 | 79° | 58km/h | 9036m | -11.8m/s | -40.4°C | 71.7% | 317hPa | 2.5V | 08:08:19 | 02:40:07 | 00:00:00 | |
| HSKMA3-T | 2026-09-02 00:57:38 | 51.41974 | 8.05684 | 80° | 57km/h | 9069m | -11.2m/s | -40.7°C | 72.1% | 315.4hPa | 2.5V | 08:08:19 | 02:40:04 | 00:00:00 | |
| DL1XH-west | 2026-09-02 00:57:35 | 51.41966 | 8.05615 | 79° | 58km/h | 9105m | -12m/s | -41°C | 72.3% | 313.8hPa | 2.5V | 08:08:19 | 02:40:01 | 00:00:00 | |
| DK9SH | 2026-09-02 00:57:34 | 51.41965 | 8.05615 | 80° | 58km/h | 9105m | -12.0m/s | -41.0°C | 63.4% | 313.8hPa | 2.5V | 08:08:00 | 00:00:00 | 00:00:00 | |
| DD8BA-10 | 2026-09-02 00:57:33 | 51.41960 | 8.05568 | 81° | 60km/h | 9128m | -10.8m/s | -41.1°C | 71.4% | 312.7hPa | 2.5V | 00:00:00 | 00:00:00 | 00:00:00 | |
| DL1NUX | 2026-09-02 00:57:32 | 51.41946 | 8.05423 | 80° | 60km/h | 9195m | -11.3m/s | -41.8°C | 71.5% | 309.7hPa | 2.4V | 08:08:14 | 02:39:53 | 00:00:00 | |
| DJ2DS-15 | 2026-09-02 00:57:32 | 51.41958 | 8.05543 | 82° | 62km/h | 9139m | -10.6m/s | -41.2°C | 71.6% | 312.2hPa | 2.5V | 00:00:00 | 02:39:58 | 00:00:00 | |
| DM0DOS-11 | 2026-09-02 00:57:31 | 51.41951 | 8.05471 | 81° | 60km/h | 9172m | -11.1m/s | -41.6°C | 71.2% | 310.8hPa | 2.4V | 08:08:12 | 02:39:55 | 00:00:00 | |
| BIOWL1-15 | 2026-09-02 00:57:31 | 51.41955 | 8.05519 | 82° | 60km/h | 9149m | -9.9m/s | -41.4°C | 73.3% | 311.8hPa | 2.5V | 08:08:19 | 02:39:57 | 00:00:00 | |
| DO2JMG | 2026-09-02 00:57:30 | 51.41953 | 8.05495 | 81° | 60km/h | 9160m | -12.4m/s | -41.5°C | 73.2% | 311.3hPa | 2.5V | 08:08:19 | 02:39:56 | 00:00:00 | |
| HSKMA3-T | 2026-09-02 00:57:27 | 51.41946 | 8.05423 | 81° | 60km/h | 9195m | -11.3m/s | -41.8°C | 73.6% | 309.7hPa | 2.4V | 08:08:19 | 02:39:53 | 00:00:00 | |
| DL1XH-west | 2026-09-02 00:57:25 | 51.41941 | 8.05373 | 80° | 64km/h | 9218m | -11.5m/s | -42°C | 74.1% | 308.7hPa | 2.5V | 08:08:19 | 02:39:51 | 00:00:00 | |
| DO9LL-15 | 2026-09-02 00:57:25 | 51.41941 | 8.05373 | 81° | 66km/h | 9218m | -11.4m/s | -41.9°C | 72.1% | 308.6hPa | 2.5V | 00:00:00 | 02:39:51 | 00:00:00 | |
| DM0DOS-11 | 2026-09-02 00:57:24 | 51.41922 | 8.05195 | 79° | 64km/h | 9296m | -9.6m/s | -42.7°C | 77.6% | 305.1hPa | 2.5V | 08:08:23 | 02:39:44 | 00:00:00 | |
| DD8BA-10 | 2026-09-02 00:57:23 | 51.41936 | 8.05322 | 80° | 64km/h | 9242m | -11.8m/s | -42.1°C | 73.4% | 307.6hPa | 2.4V | 00:00:00 | 00:00:00 | 00:00:00 | |
| DL1NUX | 2026-09-02 00:57:22 | 51.41919 | 8.05169 | 80° | 64km/h | 9307m | -11.2m/s | -42.8°C | 77.8% | 304.7hPa | 2.4V | 08:08:24 | 02:39:43 | 00:00:00 | |
| BIOWL1-15 | 2026-09-02 00:57:22 | 51.41928 | 8.05245 | 80° | 64km/h | 9276m | -10.5m/s | -42.5°C | 76.8% | 306hPa | 2.4V | 08:09:10 | 02:39:46 | 00:00:00 | |
| DO2JMG | 2026-09-02 00:57:19 | 51.41925 | 8.05220 | 80° | 64km/h | 9286m | -10.3m/s | -42.6°C | 77.3% | 305.6hPa | 2.5V | 08:10:01 | 02:39:45 | 00:00:00 | |
| DL1XH-15 | 2026-09-02 00:57:19 | 51.41909 | 8.05068 | 80° | 64km/h | 9347m | -10.1m/s | -43.2°C | 77.2% | 302.8hPa | 2.5V | 08:08:28 | 02:39:39 | 00:00:00 | |
| HSKMA3-T | 2026-09-02 00:57:18 | 51.41919 | 8.05169 | 81° | 64km/h | 9307m | -11.2m/s | -42.8°C | 78.1% | 304.7hPa | 2.4V | 08:09:10 | 02:39:43 | 00:00:00 | |
| DL1XH-west | 2026-09-02 00:57:14 | 51.41912 | 8.05093 | 81° | 62km/h | 9337m | -9.7m/s | -43.1°C | 79.1% | 303.2hPa | 2.5V | 08:09:10 | 02:39:40 | 00:00:00 | |
| DM0DOS-11 | 2026-09-02 00:57:13 | 51.41896 | 8.04938 | 79° | 66km/h | 9406m | -11.9m/s | -43.7°C | 75.5% | 300.2hPa | 2.5V | 08:08:33 | 02:39:34 | 00:00:00 | |
| AU51GT2 | 2026-09-02 00:57:13 | 51.41906 | 8.05042 | 80° | 62km/h | 9357m | -10.1m/s | -43.3°C | 68.0% | 302.4hPa | 2.5V | 00:00:00 | 00:00:00 | 00:00:00 | |
| DL1NUX | 2026-09-02 00:57:12 | 51.41893 | 8.04912 | 80° | 68km/h | 9417m | -11.1m/s | -43.8°C | 76% | 299.6hPa | 2.5V | 08:08:34 | 02:39:33 | 00:00:00 | |
| BIOWL1-15 | 2026-09-02 00:57:12 | 51.41901 | 8.04991 | 80° | 66km/h | 9382m | -12.1m/s | -43.5°C | 78.3% | 301.3hPa | 2.4V | 08:09:10 | 02:39:36 | 00:00:00 | |
| HSKMA3-T | 2026-09-02 00:57:07 | 51.41893 | 8.04912 | 80° | 68km/h | 9417m | -11.1m/s | -43.8°C | 78% | 299.6hPa | 2.5V | 08:09:10 | 02:39:33 | 00:00:00 | |
| DL1XH-west | 2026-09-02 00:57:04 | 51.41884 | 8.04832 | 80° | 68km/h | 9449m | -11.3m/s | -44.1°C | 76.8% | 298.2hPa | 2.4V | 08:09:10 | 02:39:30 | 00:00:00 | |
| DM0DOS-11 | 2026-09-02 00:57:03 | 51.41869 | 8.04674 | 83° | 66km/h | 9510m | -8.9m/s | -44.6°C | 71.9% | 295.5hPa | 2.5V | 08:08:43 | 02:39:24 | 00:00:00 | |
| DJ8HS-15 | 2026-09-02 00:57:03 | 51.41881 | 8.04805 | 80° | 66km/h | 9460m | -10.3m/s | -44.2°C | 74.6% | 297.7hPa | 2.5V | 00:00:00 | 02:39:29 | 00:00:00 | |
| DL1NUX | 2026-09-02 00:57:02 | 51.41867 | 8.04648 | 83° | 66km/h | 9519m | -9.7m/s | -44.7°C | 71.4% | 295.1hPa | 2.5V | 08:08:44 | 02:39:23 | 00:00:00 | |
| GOEST3-10 | 2026-09-02 00:57:02 | 51.41878 | 8.04778 | 81° | 66km/h | 9471m | -12.0m/s | -44.3°C | 73.9% | 297.2hPa | 2.5V | 00:00:00 | 02:39:28 | 00:00:00 | |
| DL1XH-15 | 2026-09-02 00:57:01 | 51.41866 | 8.04621 | 83° | 66km/h | 9530m | -11.9m/s | -44.8°C | 71.3% | 294.7hPa | 2.5V | 08:08:45 | 02:39:22 | 00:00:00 | |
| BIOWL1-15 | 2026-09-02 00:56:59 | 51.41864 | 8.04595 | 84° | 66km/h | 9541m | -9.3m/s | -44.9°C | 72.6% | 294.1hPa | 2.4V | 08:09:10 | 02:39:21 | 00:00:00 | |
| HSKMA3-T | 2026-09-02 00:56:56 | 51.41865 | 8.04621 | 83° | 66km/h | 9530m | -11.9m/s | -44.8°C | 73% | 294.7hPa | 2.5V | 08:09:10 | 02:39:22 | 00:00:00 | |
| DL1XH-west | 2026-09-02 00:56:54 | 51.41862 | 8.04568 | 84° | 66km/h | 9550m | -8.6m/s | -44.9°C | 72.6% | 293.7hPa | 2.4V | 08:09:10 | 02:39:20 | 00:00:00 | |
| DM0DOS-11 | 2026-09-02 00:56:53 | 51.41854 | 8.04408 | 87° | 68km/h | 9616m | -12.6m/s | -45.6°C | 70.6% | 290.8hPa | 2.4V | 08:08:53 | 02:39:14 | 00:00:00 | |
| DD8BA-10 | 2026-09-02 00:56:53 | 51.41860 | 8.04542 | 85° | 68km/h | 9559m | -9.4m/s | -44.9°C | 69.2% | 293.3hPa | 2.4V | 00:00:00 | 00:00:00 | 00:00:00 | |
| DL1NUX | 2026-09-02 00:56:52 | 51.41853 | 8.04381 | 88° | 68km/h | 9628m | -13.2m/s | -45.7°C | 71.2% | 290.3hPa | 2.4V | 08:08:54 | 02:39:13 | 00:00:00 | |
| DJ2DS-15 | 2026-09-02 00:56:52 | 51.41858 | 8.04515 | 85° | 68km/h | 9570m | -13.2m/s | -45.0°C | 68.9% | 293.0hPa | 2.4V | 00:00:00 | 02:39:18 | 00:00:00 | |
| DL1XH-15 | 2026-09-02 00:56:51 | 51.41853 | 8.04353 | 88° | 68km/h | 9641m | -11.2m/s | -45.8°C | 71.6% | 289.8hPa | 2.4V | 08:08:55 | 02:39:12 | 00:00:00 | |
| BIOWL1-15 | 2026-09-02 00:56:47 | 51.41853 | 8.04381 | 88° | 68km/h | 9628m | -13.2m/s | -45.7°C | 74.5% | 290.3hPa | 2.4V | 08:09:10 | 02:39:13 | 00:00:00 | |
| HSKMA3-T | 2026-09-02 00:56:46 | 51.41853 | 8.04353 | 89° | 68km/h | 9641m | -11.2m/s | -45.9°C | 74.5% | 289.8hPa | 2.4V | 08:09:10 | 02:39:12 | 00:00:00 | |
| DL1XH-west | 2026-09-02 00:56:43 | 51.41852 | 8.04271 | 89° | 69km/h | 9675m | -12m/s | -46.2°C | 73.5% | 288.3hPa | 2.4V | 08:09:10 | 02:39:09 | 00:00:00 | |
| DD8BA-10 | 2026-09-02 00:56:43 | 51.41851 | 8.04271 | 89° | 69km/h | 9675m | -12.0m/s | -46.1°C | 70.3% | 288.2hPa | 2.4V | 00:00:00 | 00:00:00 | 00:00:00 | |
| DO2KSM | 2026-09-02 00:56:42 | 51.41851 | 8.04271 | 90° | 69km/h | 9675m | -12.0m/s | -46.2°C | 62.0% | 288.3hPa | 2.4V | 08:09:00 | 00:00:00 | 00:00:00 | |
| SONCRA | 2026-09-02 00:56:41 | 51.41851 | 8.04214 | 88° | 69km/h | 9700m | -11.9m/s | -46.4°C | 61.4% | 287.2hPa | 2.4V | 00:00:00 | 00:00:00 | 00:00:00 | |
| BIOWL9-15 | 2026-09-02 00:56:40 | 51.41850 | 8.04186 | 88° | 69km/h | 9711m | -11.7m/s | -46.5°C | 60.6% | 286.7hPa | 2.4V | 00:00:00 | 00:00:00 | 00:00:00 | |
| GOEST3-10 | 2026-09-02 00:56:39 | 51.41850 | 8.04158 | 90° | 69km/h | 9723m | -10.8m/s | -46.6°C | 68.4% | 286.1hPa | 2.4V | 00:00:00 | 00:00:00 | 00:00:00 | |
| DJ2KF-10 | 2026-09-02 00:56:38 | 51.41850 | 8.04130 | 90° | 64km/h | 9734m | -11.2m/s | -46.7°C | 67.1% | 285.7hPa | 2.4V | 00:00:00 | 02:39:04 | 00:00:00 | |
| DL1XH-15 | 2026-09-02 00:56:37 | 51.41850 | 8.04074 | 90° | 69km/h | 9755m | -12.9m/s | -46.9°C | 64.4% | 284.9hPa | 2.4V | 08:09:05 | 02:39:02 | 00:00:00 | |
| HSKMA3-T | 2026-09-02 00:56:36 | 51.41850 | 8.04074 | 91° | 69km/h | 9755m | -13m/s | -46.9°C | 67.3% | 284.9hPa | 2.4V | 08:09:10 | 02:39:02 | 00:00:00 | |
| DL1XH-west | 2026-09-02 00:56:33 | 51.41851 | 8.03991 | 92° | 69km/h | 9790m | -10.9m/s | -47.2°C | 67.4% | 283.4hPa | 2.5V | 08:09:10 | 02:38:59 | 00:00:00 | |
| DD8BA-10 | 2026-09-02 00:56:33 | 51.41851 | 8.03991 | 92° | 68km/h | 9790m | -10.8m/s | -47.2°C | 66.3% | 283.3hPa | 2.5V | 08:09:00 | 00:00:00 | 00:00:00 | |
| DL1NUX | 2026-09-02 00:56:32 | 51.41853 | 8.03827 | 91° | 66km/h | 9854m | -14.2m/s | -47.8°C | 62.6% | 280.8hPa | 2.5V | 08:09:14 | 02:38:53 | 00:00:00 | |
| HSKMA3-T | 2026-09-02 00:56:26 | 51.41853 | 8.03800 | 92° | 68km/h | 9868m | -13.2m/s | -47.9°C | 66.6% | 280.1hPa | 2.4V | 08:10:01 | 02:38:52 | 00:00:00 | |
| BIOWL1-15 | 2026-09-02 00:56:25 | 51.41854 | 8.03773 | 91° | 66km/h | 9881m | -12.6m/s | -48°C | 66.2% | 279.6hPa | 2.4V | 08:10:01 | 02:38:51 | 00:00:00 | |
| DO9LL-15 | 2026-09-02 00:56:25 | 51.41853 | 8.03773 | 91° | 64km/h | 9881m | -12.5m/s | -48.0°C | 62.3% | 279.6hPa | 2.4V | 00:00:00 | 02:38:51 | 00:00:00 | |
| DD1CC8 | 2026-09-02 00:56:24 | 51.41854 | 8.03746 | 90° | 64km/h | 9894m | -13.4m/s | -48.1°C | 54.2% | 279.1hPa | 2.4V | 00:00:00 | 00:00:00 | 00:00:00 | |
| DM0DOS-11 | 2026-09-02 00:56:23 | 51.41854 | 8.03589 | 88° | 66km/h | 9966m | -12.6m/s | -48.9°C | 64.2% | 275.9hPa | 2.4V | 08:09:23 | 02:38:44 | 00:00:00 | |
| DL1XH-west | 2026-09-02 00:56:22 | 51.41854 | 8.03694 | 91° | 64km/h | 9918m | -10.5m/s | -48.4°C | 66.8% | 277.9hPa | 2.5V | 08:10:01 | 02:38:48 | 00:00:00 | |
| DO2JMG | 2026-09-02 00:56:21 | 51.41854 | 8.03668 | 90° | 66km/h | 9930m | -12.9m/s | -48.5°C | 67.1% | 277.6hPa | 2.5V | 08:10:01 | 02:38:47 | 00:00:00 | |
| HSKMA3-T | 2026-09-02 00:56:15 | 51.41853 | 8.03509 | 89° | 66km/h | 10000m | -11.6m/s | -49.2°C | 66.5% | 274.5hPa | 2.4V | 08:10:01 | 02:38:41 | 00:00:00 | |
| DL4BBY-15 | 2026-09-02 00:56:14 | 51.41852 | 8.03483 | 89° | 64km/h | 10011m | -10.6m/s | -48.8°C | 0% | 0hPa | 2.4V | 00:00:00 | 00:00:00 | 00:00:00 | |
| DM0DOS-11 | 2026-09-02 00:56:13 | 51.41850 | 8.03326 | 88° | 64km/h | 10079m | -11.3m/s | -49.9°C | 60.7% | 271.2hPa | 2.4V | 08:09:33 | 02:38:34 | 00:00:00 | |
| DL1XH-west | 2026-09-02 00:56:12 | 51.41851 | 8.03430 | 88° | 64km/h | 10033m | -11.2m/s | -49.5°C | 64.8% | 273.1hPa | 2.5V | 08:10:01 | 02:38:38 | 00:00:00 | |
| DJ2DS-15 | 2026-09-02 00:56:12 | 51.41851 | 8.03430 | 89° | 64km/h | 10033m | -11.1m/s | -49.5°C | 61.9% | 273.0hPa | 2.4V | 00:00:00 | 02:38:38 | 00:00:00 | |
| DL1XH-15 | 2026-09-02 00:56:11 | 51.41849 | 8.03275 | 89° | 64km/h | 10100m | -9.1m/s | -50.1°C | 61.2% | 270.2hPa | 2.4V | 08:09:35 | 02:38:32 | 00:00:00 | |
| DO2JMG | 2026-09-02 00:56:10 | 51.41850 | 8.03378 | 89° | 64km/h | 10055m | -13.2m/s | -49.7°C | 63.9% | 272.2hPa | 2.5V | 08:10:01 | 02:38:36 | 00:00:00 | |
| HSKMA3-T | 2026-09-02 00:56:05 | 51.41849 | 8.03249 | 89° | 64km/h | 10109m | -7.7m/s | -50.2°C | 63.4% | 269.9hPa | 2.5V | 08:10:01 | 02:38:31 | 00:00:00 | |
| DO3DL | 2026-09-02 00:56:05 | 51.41849 | 8.03249 | 90° | 64km/h | 10109m | -7.7m/s | -50.2°C | 52.7% | 269.9hPa | 2.4V | 08:10:00 | 00:00:00 | 00:00:00 | |
| DL8DAS-14 | 2026-09-02 00:56:04 | 51.41848 | 8.03223 | 89° | 62km/h | 10118m | -10.1m/s | -50.3°C | 51.9% | 269.5hPa | 2.4V | 00:00:00 | 00:00:00 | 00:00:00 | |
| DD8BA-10 | 2026-09-02 00:56:03 | 51.41848 | 8.03197 | 89° | 62km/h | 10129m | -12.4m/s | -50.4°C | 59.7% | 269.0hPa | 2.4V | 00:00:00 | 00:00:00 | 00:00:00 | |
| DL1NUX | 2026-09-02 00:56:02 | 51.41843 | 8.03045 | 87° | 62km/h | 10203m | -11.6m/s | -51.1°C | 57.8% | 266.1hPa | 2.4V | 08:09:44 | 02:38:23 | 00:00:00 | |
| BIOWL1-15 | 2026-09-02 00:56:01 | 51.41846 | 8.03120 | 87° | 62km/h | 10166m | -12.8m/s | -50.8°C | 62.3% | 267.6hPa | 2.5V | 08:10:01 | 02:38:26 | 00:00:00 | |
| DL1XH-west | 2026-09-02 00:56:01 | 51.41847 | 8.03146 | 87° | 64km/h | 10153m | -13m/s | -50.6°C | 62.6% | 268.2hPa | 2.4V | 08:10:01 | 02:38:27 | 00:00:00 | |
| HSKMA3-T | 2026-09-02 00:55:54 | 51.41840 | 8.02970 | 86° | 64km/h | 10240m | -13.5m/s | -51.4°C | 59.7% | 264.7hPa | 2.5V | 08:10:01 | 02:38:20 | 00:00:00 | |
| DD8BA-10 | 2026-09-02 00:55:53 | 51.41839 | 8.02944 | 86° | 62km/h | 10253m | -12.0m/s | -51.5°C | 56.7% | 264.0hPa | 2.5V | 00:00:00 | 00:00:00 | 00:00:00 | |
| DL1NUX | 2026-09-02 00:55:52 | 51.41832 | 8.02794 | 85° | 62km/h | 10321m | -11.2m/s | -52.2°C | 57.7% | 261.3hPa | 2.5V | 08:09:54 | 02:38:13 | 00:00:00 | |
| DJ2DS-15 | 2026-09-02 00:55:52 | 51.41838 | 8.02919 | 87° | 60km/h | 10265m | -12.9m/s | -51.6°C | 56.6% | 263.5hPa | 2.4V | 00:00:00 | 02:38:18 | 00:00:00 | |
| DL1XH-15 | 2026-09-02 00:55:51 | 51.41831 | 8.02769 | 86° | 62km/h | 10333m | -13.3m/s | -52.3°C | 57.5% | 260.8hPa | 2.4V | 08:09:55 | 02:38:12 | 00:00:00 | |
| DL1XH-west | 2026-09-02 00:55:51 | 51.41837 | 8.02894 | 86° | 62km/h | 10277m | -11.7m/s | -51.8°C | 59.7% | 263.1hPa | 2.4V | 08:10:01 | 02:38:17 | 00:00:00 | |
| BIOWL1-15 | 2026-09-02 00:55:49 | 51.41832 | 8.02794 | 85° | 62km/h | 10321m | -11.2m/s | -52.2°C | 60.3% | 261.3hPa | 2.5V | 08:10:01 | 02:38:13 | 00:00:00 | |
| WPPR-10 | 2026-09-02 00:55:46 | 51.41831 | 8.02769 | 86° | 60km/h | 10333m | -13.3m/s | -52.3°C | 48.9% | 260.8hPa | 2.5V | 00:00:00 | 00:00:00 | 00:00:00 | |
| HSKMA3-T | 2026-09-02 00:55:43 | 51.41827 | 8.02695 | 85° | 62km/h | 10369m | -13.5m/s | -52.7°C | 60% | 259.3hPa | 2.5V | 08:10:01 | 02:38:09 | 00:00:00 | |
| DM0DOS-11 | 2026-09-02 00:55:43 | 51.41822 | 8.02574 | 85° | 58km/h | 10434m | -12.9m/s | -53.2°C | 57.7% | 256.8hPa | 2.4V | 08:10:03 | 02:38:04 | 00:00:00 | |
| DO2JMG | 2026-09-02 00:55:43 | 51.41826 | 8.02670 | 86° | 60km/h | 10382m | -12.2m/s | -52.8°C | 60% | 258.9hPa | 2.5V | 08:10:01 | 02:38:08 | 00:00:00 | |
| GOEST3-10 | 2026-09-02 00:55:42 | 51.41826 | 8.02670 | 86° | 60km/h | 10382m | -12.1m/s | -52.7°C | 58.0% | 258.8hPa | 2.5V | 00:00:00 | 02:38:08 | 00:00:00 | |
| DL1XH-15 | 2026-09-02 00:55:41 | 51.41820 | 8.02526 | 87° | 58km/h | 10460m | -13.6m/s | -53.4°C | 57.9% | 255.8hPa | 2.5V | 08:10:05 | 02:38:02 | 00:00:00 | |
| DL1XH-west | 2026-09-02 00:55:40 | 51.41824 | 8.02621 | 86° | 60km/h | 10407m | -12.9m/s | -53°C | 59.8% | 257.9hPa | 2.4V | 08:10:01 | 02:38:06 | 00:00:00 | |
| BIOWL1-15 | 2026-09-02 00:55:39 | 51.41823 | 8.02597 | 87° | 58km/h | 10421m | -14.7m/s | -53.1°C | 59.7% | 257.4hPa | 2.4V | 08:10:52 | 02:38:05 | 00:00:00 | |
| DL3AQ-11 | 2026-09-02 00:55:39 | 51.41822 | 8.02574 | 85° | 58km/h | 10434m | -12.9m/s | -53.2°C | 48.9% | 256.8hPa | 2.5V | 00:00:00 | 00:00:00 | 00:00:00 | |
| BIOWL9-15 | 2026-09-02 00:55:38 | 51.41822 | 8.02574 | 85° | 58km/h | 10434m | -12.9m/s | -53.2°C | 48.9% | 256.8hPa | 2.5V | 00:00:00 | 00:00:00 | 00:00:00 | |
| GOEST3-10 | 2026-09-02 00:55:37 | 51.41821 | 8.02550 | 86° | 58km/h | 10447m | -12.8m/s | -53.3°C | 57.8% | 256.3hPa | 2.5V | 00:00:00 | 00:00:00 | 00:00:00 | |
| DJ8HS-15 | 2026-09-02 00:55:36 | 51.41820 | 8.02526 | 88° | 62km/h | 10460m | -13.5m/s | -53.4°C | 57.9% | 255.7hPa | 2.5V | 00:00:00 | 02:38:02 | 00:00:00 | |
| DM0DOS-11 | 2026-09-02 00:55:33 | 51.41813 | 8.02335 | 85° | 60km/h | 10561m | -12.9m/s | -54.3°C | 60% | 251.9hPa | 2.4V | 08:10:13 | 02:37:54 | 00:00:00 | |
| HSKMA3-T | 2026-09-02 00:55:32 | 51.41816 | 8.02430 | 87° | 58km/h | 10512m | -13m/s | -53.9°C | 61.2% | 253.8hPa | 2.5V | 08:10:52 | 02:37:58 | 00:00:00 | |
| BIOWL1-15 | 2026-09-02 00:55:29 | 51.41814 | 8.02359 | 86° | 58km/h | 10549m | -12.8m/s | -54.2°C | 61.8% | 252.3hPa | 2.4V | 08:10:52 | 02:37:55 | 00:00:00 | |
| DL3AQ-11 | 2026-09-02 00:55:28 | 51.41811 | 8.02311 | 84° | 60km/h | 10575m | -14.1m/s | -54.5°C | 50.9% | 251.4hPa | 2.4V | 00:00:00 | 00:00:00 | 00:00:00 | |
| GOEST3-10 | 2026-09-02 00:55:27 | 51.41811 | 8.02311 | 85° | 62km/h | 10575m | -14.0m/s | -54.4°C | 60.4% | 251.3hPa | 2.4V | 00:00:00 | 00:00:00 | 00:00:00 | |
| DO3DL | 2026-09-02 00:55:25 | 51.41809 | 8.02262 | 86° | 62km/h | 10602m | -12.5m/s | -54.7°C | 51.6% | 250.3hPa | 2.4V | 08:10:00 | 00:00:00 | 00:00:00 | |
| DD1CC2-15 | 2026-09-02 00:55:24 | 51.41809 | 8.02262 | 86° | 62km/h | 10602m | -12.5m/s | -54.7°C | 51.6% | 250.3hPa | 2.4V | 08:10:00 | 00:00:00 | 00:00:00 | |
| DM0DOS-11 | 2026-09-02 00:55:23 | 51.41797 | 8.02077 | 85° | 68km/h | 10686m | -11.6m/s | -55.3°C | 60.7% | 247hPa | 2.4V | 08:10:23 | 02:37:44 | 00:00:00 | |
| DJ2DS-15 | 2026-09-02 00:55:23 | 51.41804 | 8.02185 | 83° | 64km/h | 10640m | -11.8m/s | -55.1°C | 52.7% | 248.8hPa | 2.4V | 00:00:00 | 00:00:00 | 00:00:00 | |
| DL1NUX | 2026-09-02 00:55:22 | 51.41796 | 8.02050 | 85° | 69km/h | 10698m | -12.3m/s | -55.3°C | 59.1% | 246.6hPa | 2.4V | 08:10:24 | 02:37:43 | 00:00:00 | |
| HSKMA3-T | 2026-09-02 00:55:21 | 51.41802 | 8.02158 | 84° | 66km/h | 10652m | -11.1m/s | -55.1°C | 62.6% | 248.3hPa | 2.4V | 08:10:52 | 02:37:47 | 00:00:00 | |
| DL1XH-west | 2026-09-02 00:55:19 | 51.41799 | 8.02104 | 85° | 68km/h | 10674m | -11.8m/s | -55.3°C | 61.9% | 247.4hPa | 2.5V | 08:10:52 | 02:37:45 | 00:00:00 | |
| DJ2KF-10 | 2026-09-02 00:55:19 | 51.41799 | 8.02104 | 85° | 71km/h | 10675m | -11.7m/s | -55.2°C | 61.4% | 247.4hPa | 2.5V | 00:00:00 | 02:37:45 | 00:00:00 | |
| DB0ND-19 | 2026-09-02 00:55:17 | 51.41795 | 8.02022 | 86° | 69km/h | 10712m | -14.1m/s | -55.4°C | 48.7% | 246.1hPa | 2.4V | 00:00:00 | 00:00:00 | 00:00:00 | |
| DJ8HS-15 | 2026-09-02 00:55:16 | 51.41795 | 8.02022 | 87° | 71km/h | 10712m | -14.1m/s | -55.3°C | 58.1% | 246.1hPa | 2.4V | 00:00:00 | 02:37:42 | 00:00:00 | |
| WPPR-10 | 2026-09-02 00:55:15 | 51.41792 | 8.01965 | 87° | 69km/h | 10737m | -12.1m/s | -55.6°C | 47.7% | 245.1hPa | 2.4V | 00:00:00 | 00:00:00 | 00:00:00 | |
| DL4BBY-15 | 2026-09-02 00:55:14 | 51.41792 | 8.01965 | 88° | 71km/h | 10737m | -12.0m/s | -55.1°C | 0% | 0hPa | 2.4V | 00:00:00 | 00:00:00 | 00:00:00 | |
| DB0NH | 2026-09-02 00:55:13 | 51.41792 | 8.01936 | 87° | 69km/h | 10749m | -11.7m/s | -55.6°C | 56.1% | 244.5hPa | 2.4V | 00:00:00 | 02:37:39 | 00:00:00 | |
| DM0DOS-11 | 2026-09-02 00:55:12 | 51.41788 | 8.01792 | 88° | 71km/h | 10811m | -10.7m/s | -56.2°C | 56.4% | 242.2hPa | 2.5V | 08:10:33 | 02:37:34 | 00:00:00 | |
| DL1NUX | 2026-09-02 00:55:12 | 51.41787 | 8.01763 | 88° | 71km/h | 10821m | -8.9m/s | -56.3°C | 55.8% | 241.7hPa | 2.4V | 08:10:34 | 02:37:33 | 00:00:00 | |
| DL3AQ-11 | 2026-09-02 00:55:12 | 51.41790 | 8.01879 | 87° | 71km/h | 10774m | -12.5m/s | -55.9°C | 46.7% | 243.6hPa | 2.4V | 00:00:00 | 00:00:00 | 00:00:00 | |
| DO2JMG | 2026-09-02 00:55:11 | 51.41790 | 8.01879 | 87° | 71km/h | 10774m | -12.5m/s | -55.9°C | 57.9% | 243.6hPa | 2.4V | 08:13:25 | 02:37:37 | 00:00:00 | |
| DL1XH-15 | 2026-09-02 00:55:11 | 51.41787 | 8.01734 | 89° | 71km/h | 10830m | -9.6m/s | -56.4°C | 54.8% | 241.4hPa | 2.4V | 08:10:35 | 02:37:32 | 00:00:00 | |
| HSKMA3-T | 2026-09-02 00:55:10 | 51.41789 | 8.01850 | 88° | 71km/h | 10787m | -12.7m/s | -56°C | 57.5% | 243.1hPa | 2.5V | 08:10:52 | 02:37:36 | 00:00:00 | |
| DL1XH-west | 2026-09-02 00:55:08 | 51.41788 | 8.01792 | 89° | 71km/h | 10811m | -10.7m/s | -56.2°C | 56.7% | 242.2hPa | 2.5V | 08:10:52 | 02:37:34 | 00:00:00 | |
| BIOWL1-15 | 2026-09-02 00:55:05 | 51.41787 | 8.01705 | 90° | 71km/h | 10841m | -11.6m/s | -56.4°C | 55.1% | 241hPa | 2.4V | 08:10:52 | 02:37:31 | 00:00:00 | |
| DD1CC2-15 | 2026-09-02 00:55:04 | 51.41787 | 8.01705 | 91° | 71km/h | 10841m | -11.6m/s | -56.4°C | 44.7% | 241.0hPa | 2.5V | 08:10:00 | 00:00:00 | 00:00:00 | |
| DD8BA-10 | 2026-09-02 00:55:03 | 51.41787 | 8.01648 | 91° | 71km/h | 10864m | -9.8m/s | -56.5°C | 54.1% | 240.2hPa | 2.5V | 08:10:00 | 00:00:00 | 00:00:00 | |
| DM0DOS-11 | 2026-09-02 00:55:02 | 51.41789 | 8.01504 | 91° | 71km/h | 10917m | -11.8m/s | -57°C | 51.4% | 238.2hPa | 2.5V | 08:10:43 | 02:37:24 | 00:00:00 | |
| DL1NUX | 2026-09-02 00:55:02 | 51.41790 | 8.01475 | 92° | 71km/h | 10930m | -13m/s | -57°C | 50.6% | 237.8hPa | 2.5V | 08:10:44 | 02:37:23 | 00:00:00 | |
| DL1XH-15 | 2026-09-02 00:55:01 | 51.41790 | 8.01447 | 91° | 69km/h | 10943m | -14.7m/s | -57.2°C | 50.3% | 237.3hPa | 2.4V | 08:10:45 | 02:37:22 | 00:00:00 | |
| HSKMA3-T | 2026-09-02 00:55:00 | 51.41788 | 8.01562 | 91° | 71km/h | 10896m | -10.1m/s | -56.8°C | 53.4% | 239hPa | 2.4V | 08:10:52 | 02:37:26 | 00:00:00 | |
| DL1XH-west | 2026-09-02 00:54:57 | 51.41790 | 8.01475 | 92° | 71km/h | 10930m | -13m/s | -57.1°C | 51.8% | 237.8hPa | 2.5V | 08:10:52 | 02:37:23 | 00:00:00 | |
| BIOWL1-15 | 2026-09-02 00:54:54 | 51.41792 | 8.01390 | 92° | 69km/h | 10970m | -13.4m/s | -57.4°C | 50.5% | 236.2hPa | 2.4V | 08:10:52 | 02:37:20 | 00:00:00 | |
| DD8BA-10 | 2026-09-02 00:54:53 | 51.41792 | 8.01361 | 93° | 68km/h | 10983m | -12.5m/s | -57.4°C | 49.3% | 235.7hPa | 2.4V | 00:00:00 | 00:00:00 | 00:00:00 | |
| DM0DOS-11 | 2026-09-02 00:54:52 | 51.41795 | 8.01222 | 93° | 68km/h | 11045m | -10.6m/s | -58.1°C | 49.7% | 233.3hPa | 2.4V | 08:10:53 | 02:37:14 | 00:00:00 | |
| DJ2DS-15 | 2026-09-02 00:54:52 | 51.41793 | 8.01333 | 92° | 69km/h | 10997m | -14.8m/s | -57.5°C | 49.2% | 235.2hPa | 2.5V | 00:00:00 | 02:37:18 | 00:00:00 | |
| DL1XH-15 | 2026-09-02 00:54:51 | 51.41797 | 8.01167 | 93° | 68km/h | 11069m | -13.8m/s | -58.3°C | 47.6% | 232.5hPa | 2.5V | 08:10:55 | 02:37:12 | 00:00:00 | |
| HSKMA3-T | 2026-09-02 00:54:49 | 51.41794 | 8.01249 | 92° | 68km/h | 11034m | -10.2m/s | -58°C | 48.1% | 233.7hPa | 2.4V | 08:10:52 | 02:37:15 | 00:00:00 | |
| DL1XH-west | 2026-09-02 00:54:46 | 51.41797 | 8.01167 | 94° | 68km/h | 11069m | -13.8m/s | -58.3°C | 45.8% | 232.6hPa | 2.5V | 08:11:43 | 02:37:12 | 00:00:00 | |
| WPPR-10 | 2026-09-02 00:54:44 | 51.41800 | 8.01114 | 95° | 66km/h | 11095m | -12.7m/s | -58.5°C | 37.4% | 231.5hPa | 2.4V | 00:00:00 | 00:00:00 | 00:00:00 | |
| BIOWL1-15 | 2026-09-02 00:54:43 | 51.41802 | 8.01087 | 96° | 68km/h | 11108m | -12.5m/s | -58.6°C | 43.4% | 231.1hPa | 2.4V | 08:11:43 | 02:37:09 | 00:00:00 | |
| DD8BA-10 | 2026-09-02 00:54:43 | 51.41802 | 8.01086 | 96° | 69km/h | 11108m | -12.4m/s | -58.6°C | 45.7% | 231.0hPa | 2.5V | 00:00:00 | 00:00:00 | 00:00:00 | |
| DL1XH-15 | 2026-09-02 00:54:41 | 51.41821 | 8.00894 | 102° | 69km/h | 11200m | -14.1m/s | -59°C | 39.7% | 227.8hPa | 2.5V | 08:11:05 | 02:37:02 | 00:00:00 | |
| GOEST3-10 | 2026-09-02 00:54:41 | 51.41806 | 8.01032 | 98° | 69km/h | 11135m | -14.2m/s | -58.8°C | 43.9% | 230.1hPa | 2.4V | 00:00:00 | 02:37:07 | 00:00:00 | |
| DM0DOS-11 | 2026-09-02 00:54:40 | 51.41814 | 8.00949 | 100° | 69km/h | 11173m | -13.3m/s | -59°C | 41.1% | 228.7hPa | 2.4V | 08:11:03 | 02:37:04 | 00:00:00 | |
| HSKMA3-T | 2026-09-02 00:54:39 | 51.41811 | 8.00977 | 98° | 69km/h | 11161m | -11.4m/s | -59°C | 39.3% | 229.1hPa | 2.4V | 08:11:43 | 02:37:05 | 00:00:00 | |
| DL1XH-west | 2026-09-02 00:54:36 | 51.41821 | 8.00894 | 103° | 69km/h | 11200m | -14.1m/s | -59°C | 35.9% | 227.8hPa | 2.5V | 08:11:43 | 02:37:02 | 00:00:00 | |
| BIOWL1-15 | 2026-09-02 00:54:34 | 51.41841 | 8.00747 | 102° | 75km/h | 11262m | -13.2m/s | -58.7°C | 31.7% | 225.5hPa | 2.4V | 08:11:43 | 02:36:57 | 00:00:00 | |
| DD8BA-10 | 2026-09-02 00:54:33 | 51.41832 | 8.00807 | 103° | 75km/h | 11237m | -12.2m/s | -58.6°C | 35.3% | 226.3hPa | 2.4V | 00:00:00 | 00:00:00 | 00:00:00 | |
| DL1NUX | 2026-09-02 00:54:32 | 51.41856 | 8.00628 | 101° | 73km/h | 11318m | -14.7m/s | -58.9°C | 30.5% | 223.5hPa | 2.4V | 08:11:14 | 02:36:53 | 00:00:00 | |
| DL3AQ-11 | 2026-09-02 00:54:32 | 51.41841 | 8.00747 | 102° | 73km/h | 11262m | -13.2m/s | -58.7°C | 25.7% | 225.5hPa | 2.4V | 00:00:00 | 00:00:00 | 00:00:00 | |
| DL1XH-15 | 2026-09-02 00:54:31 | 51.41860 | 8.00599 | 101° | 75km/h | 11332m | -13.7m/s | -58.9°C | 30% | 223hPa | 2.4V | 08:11:15 | 02:36:52 | 00:00:00 | |
| GOEST3-10 | 2026-09-02 00:54:31 | 51.41840 | 8.00747 | 103° | 75km/h | 11262m | -13.1m/s | -58.7°C | 33.3% | 225.4hPa | 2.4V | 00:00:00 | 02:36:57 | 00:00:00 | |
| DM0DOS-11 | 2026-09-02 00:54:30 | 51.41852 | 8.00658 | 101° | 75km/h | 11303m | -15.4m/s | -59°C | 31.3% | 224hPa | 2.4V | 08:11:13 | 02:36:54 | 00:00:00 | |
| HSKMA3-T | 2026-09-02 00:54:29 | 51.41849 | 8.00688 | 102° | 77km/h | 11289m | -13.6m/s | -58.9°C | 30.2% | 224.5hPa | 2.5V | 08:11:43 | 02:36:55 | 00:00:00 | |
| DL1XH-west | 2026-09-02 00:54:25 | 51.41863 | 8.00569 | 101° | 73km/h | 11346m | -13m/s | -58.8°C | 27.1% | 222.6hPa | 2.5V | 08:11:43 | 02:36:51 | 00:00:00 | |
| DO2JMG | 2026-09-02 00:54:24 | 51.41867 | 8.00540 | 100° | 73km/h | 11359m | -13m/s | -58.6°C | 26.4% | 222.1hPa | 2.5V | 08:13:25 | 02:36:50 | 00:00:00 | |
| DM0DOS-11 | 2026-09-02 00:54:23 | 51.41886 | 8.00364 | 98° | 73km/h | 11438m | -14.6m/s | -58.2°C | 24.6% | 219.4hPa | 2.5V | 08:11:23 | 02:36:44 | 00:00:00 | |
| DL1NUX | 2026-09-02 00:54:23 | 51.41888 | 8.00336 | 97° | 71km/h | 11452m | -13.8m/s | -58.3°C | 24.6% | 218.9hPa | 2.4V | 08:11:24 | 02:36:43 | 00:00:00 | |
| DL1XH-15 | 2026-09-02 00:54:21 | 51.41890 | 8.00307 | 96° | 71km/h | 11466m | -12.4m/s | -58.4°C | 24.4% | 218.4hPa | 2.4V | 08:11:25 | 02:36:42 | 00:00:00 | |
| BIOWL1-15 | 2026-09-02 00:54:21 | 51.41877 | 8.00452 | 100° | 73km/h | 11397m | -13.9m/s | -58.3°C | 24.7% | 220.7hPa | 2.4V | 08:11:43 | 02:36:47 | 00:00:00 | |
| HSKMA3-T | 2026-09-02 00:54:19 | 51.41883 | 8.00393 | 99° | 73km/h | 11424m | -13.4m/s | -58.2°C | 23.6% | 219.8hPa | 2.5V | 08:11:43 | 02:36:45 | 00:00:00 | |
| DL1XH-west | 2026-09-02 00:54:14 | 51.41894 | 8.00252 | 98° | 69km/h | 11489m | -11.8m/s | -58.6°C | 21.2% | 217.6hPa | 2.5V | 08:11:43 | 02:36:40 | 00:00:00 | |
| DO2JMG | 2026-09-02 00:54:14 | 51.41897 | 8.00224 | 97° | 69km/h | 11503m | -14.2m/s | -58.7°C | 20.6% | 217.2hPa | 2.5V | 08:13:25 | 02:36:39 | 00:00:00 | |
| DD8BA-10 | 2026-09-02 00:54:13 | 51.41897 | 8.00224 | 98° | 69km/h | 11503m | -14.1m/s | -58.6°C | 22.8% | 217.1hPa | 2.5V | 00:00:00 | 00:00:00 | 00:00:00 | |
| DL1NUX | 2026-09-02 00:54:12 | 51.41911 | 8.00059 | 96° | 69km/h | 11580m | -11.3m/s | -58.9°C | 19.9% | 214.5hPa | 2.5V | 08:11:34 | 02:36:33 | 00:00:00 | |
| DJ2DS-15 | 2026-09-02 00:54:12 | 51.41899 | 8.00197 | 99° | 69km/h | 11517m | -13.7m/s | -58.7°C | 22.3% | 216.6hPa | 2.4V | 00:00:00 | 02:36:38 | 00:00:00 | |
| DL1XH-15 | 2026-09-02 00:54:11 | 51.41913 | 8.00031 | 96° | 71km/h | 11591m | -11.2m/s | -58.9°C | 19.4% | 214.1hPa | 2.4V | 08:11:35 | 02:36:32 | 00:00:00 | |
| BIOWL1-15 | 2026-09-02 00:54:10 | 51.41913 | 8.00031 | 97° | 71km/h | 11591m | -11.2m/s | -58.9°C | 16.1% | 214.1hPa | 2.4V | 08:11:43 | 02:36:32 | 00:00:00 | |
| DM0DOS-11 | 2026-09-02 00:54:10 | 51.41909 | 8.00087 | 97° | 68km/h | 11568m | -12.1m/s | -58.9°C | 20.3% | 214.9hPa | 2.5V | 08:11:33 | 02:36:34 | 00:00:00 | |
| HSKMA3-T | 2026-09-02 00:54:09 | 51.41906 | 8.00114 | 98° | 68km/h | 11556m | -12.8m/s | -58.8°C | 18% | 215.2hPa | 2.4V | 08:11:43 | 02:36:35 | 00:00:00 | |
| DL1XH-west | 2026-09-02 00:54:04 | 51.41917 | 7.99973 | 96° | 73km/h | 11612m | -10.3m/s | -58.6°C | 14.7% | 213.3hPa | 2.4V | 08:11:43 | 02:36:30 | 00:00:00 | |
| DD8BA-10 | 2026-09-02 00:54:03 | 51.41919 | 7.99944 | 96° | 71km/h | 11623m | -10.1m/s | -58.3°C | 17.1% | 212.9hPa | 2.5V | 00:00:00 | 00:00:00 | 00:00:00 | |
| DD1CC2-15 | 2026-09-02 00:54:02 | 51.41919 | 7.99944 | 97° | 73km/h | 11623m | -10.2m/s | -58.3°C | 11.7% | 213.0hPa | 2.5V | 08:11:00 | 00:00:00 | 00:00:00 | |
| DL1XH-15 | 2026-09-02 00:54:01 | 51.41931 | 7.99741 | 94° | 68km/h | 11689m | -9.1m/s | -57.5°C | 13.8% | 210.6hPa | 2.5V | 08:11:45 | 02:36:22 | 00:00:00 | |
| DL1NUX | 2026-09-02 00:54:01 | 51.41930 | 7.99768 | 95° | 69km/h | 11680m | -9.1m/s | -57.6°C | 14.1% | 210.9hPa | 2.5V | 08:11:44 | 02:36:23 | 00:00:00 | |
| GOEST3-10 | 2026-09-02 00:54:01 | 51.41922 | 7.99884 | 96° | 71km/h | 11643m | -10.0m/s | -58.1°C | 16.2% | 212.1hPa | 2.4V | 08:11:00 | 02:36:27 | 00:00:00 | |
| DM0DOS-11 | 2026-09-02 00:54:00 | 51.41928 | 7.99796 | 95° | 71km/h | 11671m | -9.6m/s | -57.6°C | 14.5% | 211.3hPa | 2.4V | 08:11:43 | 02:36:24 | 00:00:00 | |
| BIOWL1-15 | 2026-09-02 00:53:59 | 51.41931 | 7.99741 | 95° | 68km/h | 11690m | -9.1m/s | -57.6°C | 10.7% | 210.6hPa | 2.5V | 08:12:34 | 02:36:22 | 00:00:00 | |
| DF8AY | 2026-09-02 00:53:58 | 51.41928 | 7.99796 | 96° | 71km/h | 11671m | -9.6m/s | 0°C | 0% | 0hPa | 2.4V | 08:11:43 | 02:36:24 | 00:00:00 | |
| AA1-15 | 2026-09-02 00:53:57 | 51.41930 | 7.99768 | 95° | 69km/h | 11680m | -9.1m/s | -57.6°C | 11.1% | 210.9hPa | 2.5V | 08:12:34 | 02:36:23 | 00:00:00 | |
| DL1XH-west | 2026-09-02 00:53:53 | 51.41935 | 7.99660 | 95° | 68km/h | 11717m | -9.2m/s | -57.5°C | 9.6% | 209.7hPa | 2.4V | 08:12:34 | 02:36:19 | 00:00:00 | |
| DD8BA-10 | 2026-09-02 00:53:53 | 51.41935 | 7.99660 | 95° | 64km/h | 11717m | -9.2m/s | -57.4°C | 12.9% | 209.7hPa | 2.4V | 00:00:00 | 00:00:00 | 00:00:00 | |
| DL1NUX | 2026-09-02 00:53:52 | 51.41943 | 7.99504 | 94° | 62km/h | 11784m | -13.9m/s | -55.6°C | 9% | 207.7hPa | 2.4V | 08:11:54 | 02:36:13 | 00:00:00 | |
| DJ2DS-15 | 2026-09-02 00:53:52 | 51.41937 | 7.99633 | 94° | 64km/h | 11727m | -9.3m/s | -57.3°C | 12.4% | 209.3hPa | 2.5V | 00:00:00 | 02:36:18 | 00:00:00 | |
| DL1XH-15 | 2026-09-02 00:53:51 | 51.41945 | 7.99479 | 93° | 62km/h | 11797m | -12.9m/s | -55.6°C | 8.9% | 207.2hPa | 2.5V | 08:11:55 | 02:36:12 | 00:00:00 | |
| GOEST3-10 | 2026-09-02 00:53:51 | 51.41938 | 7.99606 | 95° | 64km/h | 11737m | -10.0m/s | -56.7°C | 11.3% | 209.1hPa | 2.4V | 00:00:00 | 02:36:17 | 00:00:00 | |
| DM0DOS-11 | 2026-09-02 00:53:50 | 51.41942 | 7.99529 | 95° | 62km/h | 11770m | -12.5m/s | -55.7°C | 9.3% | 208.1hPa | 2.4V | 08:11:53 | 02:36:14 | 00:00:00 | |
| HSKMA3-T | 2026-09-02 00:53:48 | 51.41942 | 7.99529 | 95° | 62km/h | 11770m | -12.5m/s | -55.7°C | 7.3% | 208.1hPa | 2.4V | 08:12:34 | 02:36:14 | 00:00:00 | |
| BIOWL1-15 | 2026-09-02 00:53:47 | 51.41943 | 7.99504 | 94° | 62km/h | 11784m | -13.9m/s | -55.6°C | 7.1% | 207.7hPa | 2.4V | 08:12:34 | 02:36:13 | 00:00:00 | |
| AA1-15 | 2026-09-02 00:53:46 | 51.41944 | 7.99479 | 94° | 62km/h | 11797m | -13m/s | -55.6°C | 6.9% | 207.2hPa | 2.5V | 08:12:34 | 02:36:12 | 00:00:00 | |
| EDDB2-11 | 2026-09-02 00:53:44 | 51.41947 | 7.99428 | 93° | 62km/h | 11823m | -12.3m/s | -55.6°C | 5.2% | 206.4hPa | 2.4V | 00:00:00 | 00:00:00 | 00:00:00 | |
| DL1XH-west | 2026-09-02 00:53:43 | 51.41948 | 7.99403 | 94° | 64km/h | 11836m | -13m/s | -55.6°C | 6.4% | 206hPa | 2.4V | 08:12:34 | 02:36:09 | 00:00:00 | |
| DD8BA-10 | 2026-09-02 00:53:43 | 51.41947 | 7.99403 | 94° | 64km/h | 11836m | -12.9m/s | -55.5°C | 8.7% | 205.9hPa | 2.4V | 00:00:00 | 00:00:00 | 00:00:00 | |
| DL1NUX | 2026-09-02 00:53:42 | 51.41952 | 7.99248 | 90° | 66km/h | 11893m | -6.8m/s | -55.5°C | 8.9% | 204hPa | 2.4V | 08:12:04 | 02:36:03 | 00:00:00 | |
| DB0NH | 2026-09-02 00:53:42 | 51.41949 | 7.99377 | 94° | 71km/h | 11849m | -12.2m/s | -55.6°C | 8.7% | 205.5hPa | 2.4V | 08:11:00 | 02:36:08 | 00:00:00 | |
| DL1XH-15 | 2026-09-02 00:53:41 | 51.41952 | 7.99221 | 90° | 66km/h | 11901m | -8.4m/s | -55.5°C | 8.8% | 203.8hPa | 2.4V | 08:12:05 | 02:36:02 | 00:00:00 | |
| HSKMA3-T | 2026-09-02 00:53:38 | 51.41951 | 7.99274 | 91° | 64km/h | 11887m | -6.5m/s | -55.5°C | 6.2% | 204.2hPa | 2.4V | 08:12:34 | 02:36:04 | 00:00:00 | |
| BIOWL1-15 | 2026-09-02 00:53:37 | 51.41952 | 7.99248 | 91° | 66km/h | 11894m | -6.8m/s | -55.6°C | 6% | 204hPa | 2.4V | 08:12:34 | 02:36:03 | 00:00:00 | |
| AA1-15 | 2026-09-02 00:53:36 | 51.41952 | 7.99221 | 90° | 66km/h | 11901m | -8.4m/s | -55.5°C | 5.9% | 203.8hPa | 2.4V | 08:12:34 | 02:36:02 | 00:00:00 | |
| DL1XH-west | 2026-09-02 00:53:33 | 51.41951 | 7.99140 | 89° | 68km/h | 11927m | -7.6m/s | -55.7°C | 5.6% | 202.9hPa | 2.4V | 08:12:34 | 02:35:59 | 00:00:00 | |
| DD8BA-10 | 2026-09-02 00:53:33 | 51.41951 | 7.99140 | 89° | 71km/h | 11927m | -7.5m/s | -55.6°C | 8.8% | 202.9hPa | 2.4V | 08:12:00 | 00:00:00 | 00:00:00 | |
| SONDE2-11 | 2026-09-02 00:53:32 | 51.41951 | 7.99084 | 89° | 69km/h | 11944m | -8.9m/s | -55.8°C | 4.8% | 202.4hPa | 2.4V | 00:00:00 | 00:00:00 | 00:00:00 | |
| DL1XH-15 | 2026-09-02 00:53:31 | 51.41951 | 7.98940 | 92° | 73km/h | 12002m | -12.3m/s | -55.9°C | 8.2% | 200.6hPa | 2.4V | 08:12:15 | 02:35:52 | 00:00:00 | |
| DO2JMG | 2026-09-02 00:53:28 | 51.41951 | 7.98999 | 90° | 71km/h | 11976m | -13m/s | -56°C | 4.8% | 201.5hPa | 2.4V | 08:13:25 | 02:35:54 | 00:00:00 | |
| BIOWL1-15 | 2026-09-02 00:53:27 | 51.41951 | 7.98970 | 90° | 73km/h | 11989m | -13.4m/s | -56°C | 4.7% | 201.1hPa | 2.4V | 08:12:34 | 02:35:53 | 00:00:00 | |
| AA1-15 | 2026-09-02 00:53:25 | 51.41952 | 7.98910 | 93° | 75km/h | 12013m | -9.7m/s | -55.7°C | 4.3% | 200.2hPa | 2.4V | 08:12:34 | 02:35:51 | 00:00:00 | |
| DF8AY | 2026-09-02 00:53:24 | 51.41954 | 7.98880 | 95° | 75km/h | 12022m | -6.9m/s | 0°C | 0% | 0hPa | 2.5V | 18:12:15 | 02:35:50 | 00:00:00 | |
| DD8BA-10 | 2026-09-02 00:53:23 | 51.41955 | 7.98849 | 96° | 75km/h | 12030m | -9.8m/s | -55.5°C | 7.5% | 199.6hPa | 2.4V | 00:00:00 | 00:00:00 | 00:00:00 | |
| DL1NUX | 2026-09-02 00:53:22 | 51.41966 | 7.98666 | 95° | 75km/h | 12101m | -12.6m/s | -53.7°C | 5.6% | 197.5hPa | 2.4V | 08:12:24 | 02:35:43 | 00:00:00 | |
| DL1XH-west | 2026-09-02 00:53:22 | 51.41957 | 7.98818 | 95° | 77km/h | 12040m | -10.6m/s | -55.4°C | 3.6% | 199.4hPa | 2.4V | 08:12:34 | 02:35:48 | 00:00:00 | |
| GOEST3-10 | 2026-09-02 00:53:21 | 51.41959 | 7.98788 | 95° | 75km/h | 12052m | -12.2m/s | -55.1°C | 6.9% | 199.0hPa | 2.5V | 00:00:00 | 02:35:47 | 00:00:00 | |
| DM0DOS-11 | 2026-09-02 00:53:20 | 51.41964 | 7.98697 | 95° | 75km/h | 12089m | -11.8m/s | -54°C | 5.9% | 197.9hPa | 2.5V | 08:12:23 | 02:35:44 | 00:00:00 | |
| BIOWL1-15 | 2026-09-02 00:53:17 | 51.41966 | 7.98666 | 96° | 75km/h | 12101m | -12.6m/s | -53.7°C | 2.4% | 197.6hPa | 2.4V | 08:12:34 | 02:35:43 | 00:00:00 | |
| AA1-15 | 2026-09-02 00:53:14 | 51.41972 | 7.98576 | 95° | 75km/h | 12139m | -12.5m/s | -53°C | 2.1% | 196.5hPa | 2.5V | 08:12:34 | 02:35:40 | 00:00:00 | |
| DF8AY | 2026-09-02 00:53:14 | 51.41975 | 7.98518 | 94° | 71km/h | 12165m | -11m/s | 0°C | 0% | 0hPa | 2.5V | 18:12:15 | 02:35:38 | 00:00:00 | |
| DL4BBY-15 | 2026-09-02 00:53:14 | 51.41971 | 7.98576 | 96° | 69km/h | 12140m | -12.5m/s | -52.5°C | 0% | 0hPa | 2.5V | 00:00:00 | 00:00:00 | 00:00:00 | |
| DL1CLM-18 | 2026-09-02 00:53:13 | 51.41973 | 7.98547 | 96° | 73km/h | 12152m | -13.3m/s | -52.5°C | 2.3% | 196.0hPa | 2.5V | 00:00:00 | 00:00:00 | 00:00:00 | |
| DL1NUX | 2026-09-02 00:53:12 | 51.41979 | 7.98379 | 89° | 68km/h | 12227m | -10.9m/s | -52.1°C | 4.9% | 193.7hPa | 2.5V | 08:12:34 | 02:35:33 | 00:00:00 | |
| DJ2DS-15 | 2026-09-02 00:53:12 | 51.41975 | 7.98518 | 95° | 68km/h | 12165m | -11.0m/s | -52.4°C | 4.9% | 195.5hPa | 2.4V | 00:00:00 | 02:35:38 | 00:00:00 | |
| DL1XH-15 | 2026-09-02 00:53:11 | 51.41978 | 7.98351 | 89° | 68km/h | 12240m | -14.5m/s | -52°C | 4.9% | 193.3hPa | 2.4V | 08:12:35 | 02:35:32 | 00:00:00 | |
| DL1XH-west | 2026-09-02 00:53:11 | 51.41976 | 7.98489 | 93° | 71km/h | 12177m | -13.6m/s | -52.5°C | 2% | 195.3hPa | 2.4V | 08:12:34 | 02:35:37 | 00:00:00 | |
| BIOWL1-15 | 2026-09-02 00:53:07 | 51.41978 | 7.98324 | 89° | 66km/h | 12254m | -13.1m/s | -52.1°C | 2% | 193hPa | 2.4V | 08:13:25 | 02:35:31 | 00:00:00 | |
| HSKMA3-T | 2026-09-02 00:53:06 | 51.41979 | 7.98351 | 89° | 68km/h | 12240m | -14.5m/s | -52°C | 2% | 193.3hPa | 2.4V | 08:13:25 | 02:35:32 | 00:00:00 | |
| AA1-15 | 2026-09-02 00:53:03 | 51.41977 | 7.98271 | 88° | 66km/h | 12280m | -11.5m/s | -52.1°C | 2.1% | 192.2hPa | 2.5V | 08:13:25 | 02:35:29 | 00:00:00 | |
| BIOWL9-15 | 2026-09-02 00:53:03 | 51.41977 | 7.98244 | 87° | 66km/h | 12293m | -14.7m/s | -52.2°C | 2.4% | 191.9hPa | 2.5V | 00:00:00 | 00:00:00 | 00:00:00 | |
| DL1XH-15 | 2026-09-02 00:53:01 | 51.41973 | 7.98084 | 88° | 68km/h | 12374m | -10.1m/s | -52.6°C | 5% | 189.4hPa | 2.5V | 08:12:45 | 02:35:22 | 00:00:00 | |
| DL1XH-west | 2026-09-02 00:53:00 | 51.41975 | 7.98191 | 87° | 66km/h | 12322m | -13.5m/s | -52.3°C | 2.1% | 191hPa | 2.4V | 08:13:25 | 02:35:26 | 00:00:00 | |
| BIOWL1-15 | 2026-09-02 00:52:56 | 51.41973 | 7.98084 | 89° | 68km/h | 12374m | -10.1m/s | -52.6°C | 2.1% | 189.4hPa | 2.5V | 08:13:25 | 02:35:22 | 00:00:00 | |
| HSKMA3-T | 2026-09-02 00:52:55 | 51.41972 | 7.98057 | 89° | 69km/h | 12385m | -11.4m/s | -52.6°C | 1.9% | 189.1hPa | 2.4V | 08:13:25 | 02:35:21 | 00:00:00 | |
| DO9LL-15 | 2026-09-02 00:52:55 | 51.41972 | 7.98057 | 89° | 75km/h | 12385m | -11.3m/s | -52.6°C | 4.9% | 189.1hPa | 2.4V | 00:00:00 | 02:35:21 | 00:00:00 | |
| DD8BA-10 | 2026-09-02 00:52:53 | 51.41971 | 7.97999 | 89° | 75km/h | 12411m | -13.8m/s | -52.6°C | 4.9% | 188.3hPa | 2.4V | 00:00:00 | 00:00:00 | 00:00:00 | |
| DM0DOS-11 | 2026-09-02 00:52:52 | 51.41968 | 7.97850 | 88° | 75km/h | 12470m | -11m/s | -52.5°C | 4.9% | 186.6hPa | 2.4V | 08:12:53 | 02:35:14 | 00:00:00 | |
| AA1-15 | 2026-09-02 00:52:52 | 51.41971 | 7.97971 | 88° | 73km/h | 12425m | -14.5m/s | -52.6°C | 1.8% | 188hPa | 2.5V | 08:13:25 | 02:35:18 | 00:00:00 | |
| DL1XH-west | 2026-09-02 00:52:49 | 51.41969 | 7.97881 | 88° | 75km/h | 12459m | -10m/s | -52.5°C | 1.7% | 186.9hPa | 2.4V | 08:13:25 | 02:35:15 | 00:00:00 | |
| DJ2KF-10 | 2026-09-02 00:52:49 | 51.41969 | 7.97881 | 88° | 77km/h | 12459m | -9.9m/s | -52.5°C | 4.9% | 186.8hPa | 2.4V | 00:00:00 | 02:35:15 | 00:00:00 | |
| DL1XH1-15 | 2026-09-02 00:52:48 | 51.41968 | 7.97820 | 89° | 77km/h | 12481m | -10.8m/s | -52.6°C | 4.9% | 186.3hPa | 2.4V | 08:12:54 | 02:35:13 | 00:00:00 | |
| BIOWL1-15 | 2026-09-02 00:52:47 | 51.41968 | 7.97789 | 90° | 75km/h | 12492m | -11.2m/s | -52.7°C | 1.7% | 185.9hPa | 2.5V | 08:13:25 | 02:35:12 | 00:00:00 | |
| HSKMA3-T | 2026-09-02 00:52:44 | 51.41968 | 7.97728 | 92° | 75km/h | 12514m | -12.6m/s | -52.6°C | 1.6% | 185.3hPa | 2.4V | 08:13:25 | 02:35:10 | 00:00:00 | |
| DO2JMG | 2026-09-02 00:52:42 | 51.41970 | 7.97666 | 94° | 77km/h | 12539m | -12.4m/s | -52.5°C | 1.6% | 184.6hPa | 2.4V | 08:13:25 | 02:35:08 | 00:00:00 | |
| AA1-15 | 2026-09-02 00:52:41 | 51.41972 | 7.97636 | 94° | 75km/h | 12551m | -11.7m/s | -52.5°C | 1.5% | 184.2hPa | 2.4V | 08:13:25 | 02:35:07 | 00:00:00 | |
| DL1XH-15 | 2026-09-02 00:52:41 | 51.41980 | 7.97485 | 95° | 75km/h | 12616m | -12.8m/s | -52.5°C | 4.7% | 182.5hPa | 2.4V | 08:13:05 | 02:35:02 | 00:00:00 | |
| DL1XH-west | 2026-09-02 00:52:39 | 51.41975 | 7.97576 | 95° | 75km/h | 12575m | -11.7m/s | -52.5°C | 1.5% | 183.5hPa | 2.5V | 08:13:25 | 02:35:05 | 00:00:00 | |
| DL1XH1-15 | 2026-09-02 00:52:38 | 51.41978 | 7.97515 | 94° | 75km/h | 12601m | -15.5m/s | -52.5°C | 4.7% | 182.9hPa | 2.4V | 08:13:04 | 02:35:03 | 00:00:00 | |
| BIOWL1-15 | 2026-09-02 00:52:36 | 51.41980 | 7.97485 | 95° | 75km/h | 12616m | -12.8m/s | -52.5°C | 1.4% | 182.5hPa | 2.4V | 08:13:25 | 02:35:02 | 00:00:00 | |
| HSKMA3-T | 2026-09-02 00:52:33 | 51.41985 | 7.97393 | 95° | 77km/h | 12653m | -13m/s | -52.2°C | 1.3% | 181.4hPa | 2.4V | 08:13:25 | 02:34:59 | 00:00:00 | |
| DM0DOS-11 | 2026-09-02 00:52:33 | 51.41996 | 7.97206 | 96° | 77km/h | 12729m | -12.8m/s | -51.8°C | 4.4% | 179.2hPa | 2.4V | 08:13:14 | 02:34:53 | 00:00:00 | |
| DD8BA-10 | 2026-09-02 00:52:33 | 51.41985 | 7.97393 | 96° | 77km/h | 12653m | -12.9m/s | -52.1°C | 4.5% | 181.4hPa | 2.4V | 00:00:00 | 00:00:00 | 00:00:00 | |
| BIOWL9-15 | 2026-09-02 00:52:32 | 51.41988 | 7.97331 | 94° | 77km/h | 12680m | -13.8m/s | -52.0°C | 1.9% | 180.6hPa | 2.4V | 00:00:00 | 00:00:00 | 00:00:00 | |
| DL1XH-15 | 2026-09-02 00:52:31 | 51.41998 | 7.97176 | 98° | 77km/h | 12742m | -14.2m/s | -51.7°C | 4.3% | 178.9hPa | 2.4V | 08:13:15 | 02:34:52 | 00:00:00 | |
| AA1-15 | 2026-09-02 00:52:30 | 51.41990 | 7.97300 | 95° | 78km/h | 12693m | -12m/s | -51.9°C | 1.3% | 180.2hPa | 2.5V | 08:13:25 | 02:34:56 | 00:00:00 | |
| DL1XH-west | 2026-09-02 00:52:28 | 51.41994 | 7.97237 | 96° | 78km/h | 12716m | -12.5m/s | -52°C | 1.3% | 179.6hPa | 2.5V | 08:13:25 | 02:34:54 | 00:00:00 | |
| BIOWL1-15 | 2026-09-02 00:52:28 | 51.41998 | 7.97175 | 98° | 77km/h | 12742m | -14.2m/s | -51.7°C | 1.2% | 178.9hPa | 2.4V | 08:13:25 | 02:34:52 | 00:00:00 | |
| DL8DAS-14 | 2026-09-02 00:52:27 | 51.41998 | 7.97175 | 98° | 77km/h | 12742m | -14.2m/s | -51.7°C | 1.8% | 178.9hPa | 2.5V | 00:00:00 | 00:00:00 | 00:00:00 | |
| GOEST3-10 | 2026-09-02 00:52:26 | 51.41998 | 7.97175 | 99° | 77km/h | 12742m | -14.1m/s | -51.7°C | 4.3% | 178.9hPa | 2.5V | 00:00:00 | 00:00:00 | 00:00:00 | |
| DO3DL | 2026-09-02 00:52:25 | 51.42001 | 7.97145 | 100° | 77km/h | 12756m | -14.1m/s | -51.7°C | 1.8% | 178.6hPa | 2.5V | 08:13:00 | 00:00:00 | 00:00:00 | |
| DD1CC3-15 | 2026-09-02 00:52:24 | 51.42001 | 7.97145 | 100° | 77km/h | 12756m | -14.1m/s | -51.7°C | 1.8% | 178.6hPa | 2.5V | 08:13:00 | 00:00:00 | 00:00:00 | |
| SO1NDE-10 | 2026-09-02 00:52:23 | 51.42008 | 7.97084 | 101° | 66km/h | 12783m | -14.5m/s | -51.7°C | 4.2% | 177.8hPa | 2.5V | 00:00:00 | 02:34:49 | 00:00:00 | |
| DL1NUX | 2026-09-02 00:52:22 | 51.42033 | 7.96905 | 104° | 73km/h | 12855m | -13.7m/s | -51.3°C | 4% | 175.9hPa | 2.5V | 08:13:24 | 02:34:43 | 00:00:00 | |
| HSKMA3-T | 2026-09-02 00:52:22 | 51.42011 | 7.97053 | 102° | 77km/h | 12796m | -12.7m/s | -51.7°C | 1.1% | 177.4hPa | 2.4V | 08:13:25 | 02:34:48 | 00:00:00 | |
| AA1-15 | 2026-09-02 00:52:19 | 51.42024 | 7.96963 | 103° | 75km/h | 12832m | -10.3m/s | -51.4°C | 0.9% | 176.4hPa | 2.5V | 08:13:25 | 02:34:45 | 00:00:00 | |
| DL1XH-west | 2026-09-02 00:52:18 | 51.42028 | 7.96933 | 104° | 75km/h | 12843m | -11.1m/s | -51.4°C | 0.9% | 176.1hPa | 2.5V | 08:13:25 | 02:34:44 | 00:00:00 | |
| BIOWL1-15 | 2026-09-02 00:52:15 | 51.42047 | 7.96821 | 105° | 69km/h | 12895m | -14.3m/s | -51.4°C | 0.8% | 174.8hPa | 2.5V | 08:14:16 | 02:34:40 | 00:00:00 | |
| DL4BBY-15 | 2026-09-02 00:52:14 | 51.42047 | 7.96821 | 105° | 66km/h | 12895m | -14.3m/s | -50.8°C | 0% | 0hPa | 2.6V | 00:00:00 | 00:00:00 | 00:00:00 | |
| DD8BA-10 | 2026-09-02 00:52:13 | 51.42051 | 7.96794 | 105° | 64km/h | 12909m | -13.8m/s | -51.4°C | 4.0% | 174.4hPa | 2.6V | 00:00:00 | 00:00:00 | 00:00:00 | |
| DL1XH1-15 | 2026-09-02 00:52:12 | 51.42075 | 7.96644 | 102° | 62km/h | 12989m | -13.9m/s | -51.6°C | 3.9% | 172.3hPa | 2.6V | 08:13:34 | 02:34:33 | 00:00:00 | |
| HSKMA3-T | 2026-09-02 00:52:11 | 51.42060 | 7.96743 | 105° | 64km/h | 12935m | -10.6m/s | -51.6°C | 0.8% | 173.6hPa | 2.4V | 08:14:16 | 02:34:37 | 00:00:00 | |
| DL1XH-west | 2026-09-02 00:52:08 | 51.42071 | 7.96669 | 103° | 62km/h | 12974m | -14.9m/s | -51.7°C | 0.7% | 172.7hPa | 2.5V | 08:14:16 | 02:34:34 | 00:00:00 | |
| BIOWL1-15 | 2026-09-02 00:52:03 | 51.42089 | 7.96523 | 98° | 62km/h | 13057m | -13.7m/s | -51.7°C | 0.7% | 170.4hPa | 2.5V | 08:14:16 | 02:34:28 | 00:00:00 | |
| DD8BA-10 | 2026-09-02 00:52:03 | 51.42087 | 7.96547 | 100° | 62km/h | 13043m | -13.6m/s | -51.6°C | 3.9% | 170.8hPa | 2.4V | 08:13:00 | 00:00:00 | 00:00:00 | |
| DL1NUX | 2026-09-02 00:52:02 | 51.42097 | 7.96399 | 92° | 64km/h | 13119m | -13.8m/s | -51.9°C | 4% | 168.8hPa | 2.4V | 08:13:44 | 02:34:23 | 00:00:00 | |
| AU51GT2 | 2026-09-02 00:52:02 | 51.42089 | 7.96523 | 97° | 60km/h | 13057m | -13.7m/s | -51.7°C | 1.5% | 170.4hPa | 2.6V | 00:00:00 | 00:00:00 | 00:00:00 | |
| DL1XH-15 | 2026-09-02 00:52:01 | 51.42097 | 7.96373 | 91° | 64km/h | 13132m | -12.5m/s | -52°C | 4% | 168.5hPa | 2.6V | 08:13:45 | 02:34:22 | 00:00:00 | |
| HSKMA3-T | 2026-09-02 00:52:00 | 51.42093 | 7.96474 | 96° | 62km/h | 13083m | -12.6m/s | -51.7°C | 0.7% | 169.7hPa | 2.4V | 08:14:16 | 02:34:26 | 00:00:00 | |
| AA1-15 | 2026-09-02 00:51:57 | 51.42097 | 7.96399 | 93° | 64km/h | 13119m | -13.8m/s | -51.9°C | 0.7% | 168.8hPa | 2.4V | 08:14:16 | 02:34:23 | 00:00:00 | |
| BIOWL1-15 | 2026-09-02 00:51:53 | 51.42102 | 7.96213 | 92° | 69km/h | 13210m | -13.6m/s | -52.4°C | 0.8% | 166.4hPa | 2.5V | 08:14:16 | 02:34:16 | 00:00:00 | |
| DD8BA-10 | 2026-09-02 00:51:53 | 51.42099 | 7.96295 | 93° | 69km/h | 13170m | -12.4m/s | -52.1°C | 4.0% | 167.4hPa | 2.4V | 00:00:00 | 00:00:00 | 00:00:00 | |
| DL1NUX | 2026-09-02 00:51:52 | 51.42103 | 7.96128 | 91° | 71km/h | 13257m | -14.3m/s | -52.6°C | 4.2% | 165.3hPa | 2.4V | 08:13:54 | 02:34:13 | 00:00:00 | |
| DJ2DS-15 | 2026-09-02 00:51:52 | 51.42100 | 7.96268 | 94° | 69km/h | 13184m | -14.1m/s | -52.1°C | 4.0% | 167.1hPa | 2.4V | 00:00:00 | 02:34:18 | 00:00:00 | |
| DL1XH-15 | 2026-09-02 00:51:51 | 51.42104 | 7.96100 | 91° | 71km/h | 13270m | -12.8m/s | -52.5°C | 4.1% | 164.9hPa | 2.4V | 08:13:55 | 02:34:12 | 00:00:00 | |
| HSKMA3-T | 2026-09-02 00:51:49 | 51.42102 | 7.96185 | 91° | 69km/h | 13226m | -16.9m/s | -52.5°C | 0.7% | 166.2hPa | 2.4V | 08:14:16 | 02:34:15 | 00:00:00 | |
| AA1-15 | 2026-09-02 00:51:47 | 51.42103 | 7.96128 | 91° | 71km/h | 13257m | -14.3m/s | -52.6°C | 0.8% | 165.3hPa | 2.4V | 08:14:16 | 02:34:13 | 00:00:00 | |
| DL1XH-west | 2026-09-02 00:51:46 | 51.42104 | 7.96071 | 91° | 69km/h | 13283m | -12.9m/s | -52.4°C | 0.7% | 164.6hPa | 2.5V | 08:14:16 | 02:34:11 | 00:00:00 | |
| DD1CC8 | 2026-09-02 00:51:45 | 51.42104 | 7.96043 | 90° | 69km/h | 13297m | -13.8m/s | -52.4°C | 1.5% | 164.3hPa | 2.4V | 00:00:00 | 00:00:00 | 00:00:00 | |
| BIOWL1-15 | 2026-09-02 00:51:43 | 51.42104 | 7.96015 | 91° | 68km/h | 13310m | -13.2m/s | -52.4°C | 0.7% | 163.9hPa | 2.4V | 08:14:16 | 02:34:09 | 00:00:00 | |
| DD8BA-10 | 2026-09-02 00:51:43 | 51.42104 | 7.96015 | 91° | 68km/h | 13310m | -13.1m/s | -52.4°C | 4.1% | 163.8hPa | 2.4V | 00:00:00 | 00:00:00 | 00:00:00 | |
| DB0NH | 2026-09-02 00:51:42 | 51.42105 | 7.95988 | 91° | 66km/h | 13323m | -12.2m/s | -52.4°C | 4.1% | 163.5hPa | 2.4V | 00:00:00 | 02:34:08 | 00:00:00 | |
| DL1XH-15 | 2026-09-02 00:51:41 | 51.42105 | 7.95823 | 91° | 68km/h | 13410m | -13.3m/s | -52.4°C | 4.1% | 161.4hPa | 2.4V | 08:14:05 | 02:34:02 | 00:00:00 | |
| HSKMA3-T | 2026-09-02 00:51:39 | 51.42105 | 7.95904 | 91° | 68km/h | 13365m | -16.2m/s | -52.7°C | 0.7% | 162.7hPa | 2.5V | 08:14:16 | 02:34:05 | 00:00:00 | |
| DL1XH1-15 | 2026-09-02 00:51:38 | 51.42105 | 7.95850 | 90° | 68km/h | 13396m | -14.8m/s | -52.4°C | 4.1% | 161.8hPa | 2.4V | 08:14:04 | 02:34:03 | 00:00:00 | |
| AA1-15 | 2026-09-02 00:51:36 | 51.42105 | 7.95823 | 91° | 68km/h | 13410m | -13.3m/s | -52.4°C | 0.7% | 161.4hPa | 2.4V | 08:14:16 | 02:34:02 | 00:00:00 | |
| DL1XH-west | 2026-09-02 00:51:35 | 51.42106 | 7.95796 | 92° | 66km/h | 13425m | -16m/s | -52.3°C | 0.7% | 161.1hPa | 2.4V | 08:14:16 | 02:34:01 | 00:00:00 | |
| BIOWL1-15 | 2026-09-02 00:51:33 | 51.42107 | 7.95741 | 93° | 68km/h | 13452m | -11.9m/s | -52.5°C | 0.8% | 160.3hPa | 2.5V | 08:14:16 | 02:33:59 | 00:00:00 | |
| DO1YAY-16 | 2026-09-02 00:51:33 | 51.42108 | 7.95714 | 94° | 66km/h | 13465m | -13.5m/s | -52.5°C | 1.5% | 160.1hPa | 2.4V | 00:00:00 | 00:00:00 | 00:00:00 | |
| DJ2DS-15 | 2026-09-02 00:51:32 | 51.42108 | 7.95714 | 95° | 64km/h | 13465m | -13.4m/s | -52.4°C | 4.2% | 160.0hPa | 2.4V | 00:00:00 | 02:33:58 | 00:00:00 | |
| DL1XH-15 | 2026-09-02 00:51:31 | 51.42120 | 7.95557 | 99° | 62km/h | 13561m | -15.9m/s | -52.3°C | 4.1% | 157.7hPa | 2.4V | 08:14:15 | 02:33:52 | 00:00:00 | |
| HSKMA3-T | 2026-09-02 00:51:29 | 51.42113 | 7.95634 | 96° | 66km/h | 13512m | -16.7m/s | -52.4°C | 0.7% | 159hPa | 2.5V | 08:14:16 | 02:33:55 | 00:00:00 | |
| DO2JMG | 2026-09-02 00:51:27 | 51.42119 | 7.95557 | 99° | 62km/h | 13561m | -15.9m/s | -52.3°C | 0.7% | 157.7hPa | 2.4V | 08:14:16 | 02:33:52 | 00:00:00 | |
| AA1-15 | 2026-09-02 00:51:25 | 51.42122 | 7.95531 | 99° | 64km/h | 13578m | -16.3m/s | -52.3°C | 0.7% | 157.3hPa | 2.4V | 08:14:16 | 02:33:51 | 00:00:00 | |
| DL1XH-west | 2026-09-02 00:51:24 | 51.42125 | 7.95506 | 101° | 64km/h | 13594m | -17.1m/s | -52.3°C | 0.7% | 157hPa | 2.4V | 08:15:07 | 02:33:50 | 00:00:00 | |
| BIOWL1-15 | 2026-09-02 00:51:22 | 51.42131 | 7.95455 | 101° | 64km/h | 13627m | -15.9m/s | -52.4°C | 0.7% | 156.2hPa | 2.5V | 08:15:07 | 02:33:48 | 00:00:00 | |
| GOEST3-10 | 2026-09-02 00:51:21 | 51.42134 | 7.95430 | 102° | 64km/h | 13644m | -17.2m/s | -52.4°C | 4.1% | 155.7hPa | 2.5V | 00:00:00 | 02:33:47 | 00:00:00 | |
| DL1XH1-15 | 2026-09-02 00:51:20 | 51.42150 | 7.95330 | 105° | 64km/h | 13709m | -16.1m/s | -52.2°C | 4.1% | 154.2hPa | 2.5V | 08:14:24 | 02:33:43 | 00:00:00 | |
| HSKMA3-T | 2026-09-02 00:51:18 | 51.42146 | 7.95355 | 104° | 64km/h | 13693m | -17.4m/s | -52.2°C | 0.6% | 154.6hPa | 2.5V | 08:15:07 | 02:33:44 | 00:00:00 | |
| DO2JMG | 2026-09-02 00:51:15 | 51.42160 | 7.95280 | 108° | 66km/h | 13741m | -17.2m/s | -52.1°C | 0.5% | 153.4hPa | 2.4V | 08:15:07 | 02:33:41 | 00:00:00 | |
| AA1-15 | 2026-09-02 00:51:14 | 51.42165 | 7.95255 | 109° | 64km/h | 13758m | -16.8m/s | -52.1°C | 0.6% | 153hPa | 2.4V | 08:15:07 | 02:33:40 | 00:00:00 | |
| DF7PN | 2026-09-02 00:51:14 | 51.42170 | 7.95230 | 109° | 64km/h | 13775m | -16.2m/s | -52.0°C | 1.4% | 152.6hPa | 2.5V | 00:00:00 | 00:00:00 | 00:00:00 | |
| DD8BA-10 | 2026-09-02 00:51:13 | 51.42170 | 7.95230 | 110° | 55km/h | 13775m | -16.2m/s | -52.0°C | 4.0% | 152.6hPa | 2.5V | 00:00:00 | 00:00:00 | 00:00:00 | |
| DJ2DS-15 | 2026-09-02 00:51:12 | 51.42175 | 7.95206 | 110° | 49km/h | 13791m | -16.1m/s | -52.0°C | 4.0% | 152.2hPa | 2.5V | 00:00:00 | 02:33:38 | 00:00:00 | |
| DL1XH-15 | 2026-09-02 00:51:11 | 51.42204 | 7.95078 | 109° | 49km/h | 13883m | -15.2m/s | -51.6°C | 3.8% | 150.1hPa | 2.5V | 08:14:35 | 02:33:32 | 00:00:00 | |
| BIOWL1-15 | 2026-09-02 00:51:11 | 51.42181 | 7.95183 | 109° | 60km/h | 13807m | -16.4m/s | -52.1°C | 0.5% | 151.8hPa | 2.4V | 08:15:07 | 02:33:37 | 00:00:00 | |
| GOEST3-10 | 2026-09-02 00:51:11 | 51.42180 | 7.95182 | 110° | 57km/h | 13807m | -16.3m/s | -52.0°C | 3.9% | 151.8hPa | 2.6V | 00:00:00 | 02:33:37 | 00:00:00 | |
| DJ2DS-15 | 2026-09-02 00:51:10 | 51.42185 | 7.95160 | 108° | 57km/h | 13823m | -15.1m/s | -51.9°C | 1.4% | 151.5hPa | 2.6V | 00:00:00 | 00:00:00 | 00:00:00 | |
| DL1XH1-15 | 2026-09-02 00:51:09 | 51.42199 | 7.95097 | 110° | 51km/h | 13867m | -15.1m/s | -51.8°C | 3.8% | 150.4hPa | 2.6V | 08:14:34 | 02:33:33 | 00:00:00 | |
| HSKMA3-T | 2026-09-02 00:51:08 | 51.42195 | 7.95117 | 110° | 55km/h | 13853m | -13.8m/s | -51.9°C | 0.5% | 150.7hPa | 2.5V | 08:15:07 | 02:33:34 | 00:00:00 | |
| DO2JMG | 2026-09-02 00:51:05 | 51.42208 | 7.95059 | 108° | 49km/h | 13898m | -14.3m/s | -51.5°C | 0.4% | 149.7hPa | 2.4V | 08:15:07 | 02:33:31 | 00:00:00 | |
| AA1-15 | 2026-09-02 00:51:03 | 51.42214 | 7.95023 | 104° | 46km/h | 13924m | -14m/s | -51.2°C | 0.4% | 149.1hPa | 2.5V | 08:15:07 | 02:33:29 | 00:00:00 | |
| BIOWL1-15 | 2026-09-02 00:51:02 | 51.42222 | 7.94970 | 99° | 44km/h | 13964m | -12.9m/s | -51°C | 0.3% | 148.1hPa | 2.4V | 08:15:07 | 02:33:26 | 00:00:00 | |
| DL1XH-15 | 2026-09-02 00:51:01 | 51.42226 | 7.94899 | 93° | 46km/h | 14018m | -13.7m/s | -51.1°C | 3.7% | 146.9hPa | 2.6V | 08:14:45 | 02:33:22 | 00:00:00 | |
| AU51GT2 | 2026-09-02 00:51:00 | 51.42222 | 7.94970 | 99° | 42km/h | 13964m | -12.9m/s | -51.0°C | 1.2% | 148.1hPa | 2.5V | 00:00:00 | 00:00:00 | 00:00:00 | |
| DL1XH1-15 | 2026-09-02 00:50:59 | 51.42226 | 7.94918 | 94° | 46km/h | 14005m | -12.7m/s | -51.1°C | 3.6% | 147.2hPa | 2.5V | 08:14:44 | 02:33:23 | 00:00:00 | |
| HSKMA3-T | 2026-09-02 00:50:57 | 51.42226 | 7.94918 | 95° | 46km/h | 14005m | -12.7m/s | -51.1°C | 0.3% | 147.2hPa | 2.5V | 08:15:07 | 02:33:23 | 00:00:00 | |
| DO2JMG | 2026-09-02 00:50:54 | 51.42227 | 7.94861 | 92° | 49km/h | 14044m | -13.8m/s | -51.3°C | 0.3% | 146.4hPa | 2.4V | 08:15:07 | 02:33:20 | 00:00:00 | |
| DL1XH-west | 2026-09-02 00:50:53 | 51.42228 | 7.94842 | 92° | 49km/h | 14057m | -12.3m/s | -51.5°C | 0.4% | 146hPa | 2.4V | 08:15:07 | 02:33:19 | 00:00:00 | |
| AA1-15 | 2026-09-02 00:50:52 | 51.42228 | 7.94822 | 92° | 49km/h | 14070m | -13.8m/s | -51.5°C | 0.3% | 145.8hPa | 2.5V | 08:15:07 | 02:33:18 | 00:00:00 | |
| DJ2DS-15 | 2026-09-02 00:50:52 | 51.42228 | 7.94821 | 92° | 62km/h | 14070m | -13.8m/s | -51.5°C | 3.7% | 145.7hPa | 2.4V | 00:00:00 | 02:33:18 | 00:00:00 | |
| DL1XH-15 | 2026-09-02 00:50:51 | 51.42226 | 7.94692 | 84° | 58km/h | 14155m | -15.1m/s | -51.9°C | 3.8% | 143.9hPa | 2.4V | 08:14:55 | 02:33:12 | 00:00:00 | |
| BIOWL1-15 | 2026-09-02 00:50:51 | 51.42228 | 7.94760 | 89° | 53km/h | 14113m | -13.1m/s | -51.7°C | 0.3% | 144.8hPa | 2.4V | 08:15:07 | 02:33:15 | 00:00:00 | |
| HSKMA3-T | 2026-09-02 00:50:46 | 51.42226 | 7.94692 | 84° | 58km/h | 14155m | -15.1m/s | -51.9°C | 0.4% | 143.9hPa | 2.4V | 08:15:07 | 02:33:12 | 00:00:00 | |
| DO2JMG | 2026-09-02 00:50:44 | 51.42222 | 7.94644 | 83° | 60km/h | 14184m | -15.5m/s | -52°C | 0.4% | 143.3hPa | 2.5V | 08:15:07 | 02:33:10 | 00:00:00 | |
| DL1XH-west | 2026-09-02 00:50:43 | 51.42220 | 7.94619 | 83° | 62km/h | 14199m | -13.8m/s | -52.1°C | 0.4% | 142.9hPa | 2.4V | 08:15:07 | 02:33:09 | 00:00:00 | |
| AA1-15 | 2026-09-02 00:50:42 | 51.42218 | 7.94594 | 83° | 62km/h | 14213m | -14.7m/s | -52.1°C | 0.4% | 142.6hPa | 2.5V | 08:15:07 | 02:33:08 | 00:00:00 | |
| DB0NH | 2026-09-02 00:50:42 | 51.42218 | 7.94594 | 83° | 69km/h | 14214m | -14.6m/s | -52.1°C | 3.9% | 142.6hPa | 2.5V | 00:00:00 | 02:33:08 | 00:00:00 | |
| DL1XH-15 | 2026-09-02 00:50:41 | 51.42209 | 7.94435 | 87° | 69km/h | 14292m | -12.3m/s | -52.2°C | 4% | 140.8hPa | 2.4V | 08:15:05 | 02:33:02 | 00:00:00 | |
| HSKMA3-T | 2026-09-02 00:50:36 | 51.42209 | 7.94435 | 87° | 69km/h | 14292m | -12.4m/s | -52.2°C | 0.5% | 140.8hPa | 2.4V | 08:15:07 | 02:33:02 | 00:00:00 | |
| DO2JMG | 2026-09-02 00:50:33 | 51.42207 | 7.94351 | 88° | 69km/h | 14327m | -12.5m/s | -52.1°C | 0.5% | 140hPa | 2.6V | 08:15:58 | 02:32:59 | 00:00:00 | |
| DL1XH-west | 2026-09-02 00:50:32 | 51.42206 | 7.94323 | 87° | 68km/h | 14340m | -13.2m/s | -52.1°C | 0.5% | 139.8hPa | 2.4V | 08:15:58 | 02:32:58 | 00:00:00 | |
| AA1-15 | 2026-09-02 00:50:31 | 51.42205 | 7.94296 | 86° | 68km/h | 14355m | -15.1m/s | -52°C | 0.4% | 139.5hPa | 2.4V | 08:15:58 | 02:32:57 | 00:00:00 | |
| HSKMA3-T | 2026-09-02 00:50:25 | 51.42198 | 7.94133 | 85° | 69km/h | 14434m | -11.5m/s | -51.8°C | 0.4% | 137.7hPa | 2.5V | 08:15:58 | 02:32:51 | 00:00:00 | |
| DF8AY | 2026-09-02 00:50:24 | 51.42196 | 7.94106 | 84° | 68km/h | 14445m | -9.6m/s | -51.8°C | 0.4% | 137.5hPa | 2.5V | 08:16:49 | 02:32:50 | 00:00:00 | |
| DO2JMG | 2026-09-02 00:50:24 | 51.42195 | 7.94078 | 85° | 69km/h | 14457m | -14.6m/s | -51.8°C | 0.4% | 137.3hPa | 2.5V | 08:15:58 | 02:32:49 | 00:00:00 | |
| DL1XH-west | 2026-09-02 00:50:21 | 51.42191 | 7.94020 | 86° | 73km/h | 14488m | -16.3m/s | -51.7°C | 0.3% | 136.7hPa | 2.4V | 08:15:58 | 02:32:47 | 00:00:00 | |
| BIOWL1-15 | 2026-09-02 00:50:20 | 51.42188 | 7.93586 | 92° | 80km/h | 14706m | -13.4m/s | -51.5°C | 0.3% | 132.1hPa | 2.5V | 08:15:58 | 02:32:33 | 00:00:00 | |
| HSKMA3-T | 2026-09-02 00:50:15 | 51.42186 | 7.93840 | 89° | 75km/h | 14584m | -14.3m/s | -51.3°C | 0.2% | 134.6hPa | 2.4V | 08:15:58 | 02:32:41 | 00:00:00 | |
| DO2JMG | 2026-09-02 00:50:13 | 51.42186 | 7.93747 | 91° | 77km/h | 14633m | -16.3m/s | -51.5°C | 0.3% | 133.7hPa | 2.5V | 08:15:58 | 02:32:38 | 00:00:00 | |
| DL1XH1-15 | 2026-09-02 00:50:13 | 51.42188 | 7.93586 | 92° | 80km/h | 14706m | -13.4m/s | -51.5°C | 3.7% | 132.1hPa | 2.5V | 08:15:34 | 02:32:33 | 00:00:00 | |
| DL1XH-west | 2026-09-02 00:50:11 | 51.42186 | 7.93715 | 91° | 78km/h | 14648m | -14.9m/s | -51.5°C | 0.3% | 133.3hPa | 2.4V | 08:15:58 | 02:32:37 | 00:00:00 | |
| AA1-15 | 2026-09-02 00:50:10 | 51.42187 | 7.93683 | 91° | 78km/h | 14663m | -16m/s | -51.5°C | 0.3% | 133hPa | 2.4V | 08:15:58 | 02:32:36 | 00:00:00 | |
| HSKMA3-T | 2026-09-02 00:50:04 | 51.42191 | 7.93487 | 94° | 82km/h | 14748m | -16.7m/s | -51.8°C | 0.3% | 131.4hPa | 2.4V | 08:15:58 | 02:32:30 | 00:00:00 | |
| BIOWL1-15 | 2026-09-02 00:50:03 | 51.42193 | 7.93454 | 95° | 82km/h | 14764m | -14.7m/s | -52°C | 0.3% | 131hPa | 2.5V | 08:15:58 | 02:32:29 | 00:00:00 | |
| DD8BA-10 | 2026-09-02 00:50:03 | 51.42193 | 7.93454 | 96° | 82km/h | 14764m | -14.6m/s | -51.9°C | 3.8% | 130.9hPa | 2.5V | 00:00:00 | 00:00:00 | 00:00:00 | |
| DL1XH1-15 | 2026-09-02 00:50:02 | 51.42210 | 7.93257 | 101° | 80km/h | 14850m | -14.1m/s | -51.8°C | 3.8% | 129.2hPa | 2.4V | 08:15:44 | 02:32:23 | 00:00:00 | |
| DL1XH-15 | 2026-09-02 00:50:01 | 51.42215 | 7.93225 | 101° | 80km/h | 14863m | -13.9m/s | -51.7°C | 3.7% | 128.9hPa | 2.6V | 08:15:45 | 02:32:22 | 00:00:00 | |
| DO2JMG | 2026-09-02 00:50:01 | 51.42197 | 7.93387 | 97° | 82km/h | 14791m | -12.9m/s | -52°C | 0.4% | 130.4hPa | 2.5V | 08:15:58 | 02:32:27 | 00:00:00 | |
| DL1XH-west | 2026-09-02 00:50:00 | 51.42200 | 7.93354 | 99° | 82km/h | 14805m | -15.7m/s | -52°C | 0.4% | 130.1hPa | 2.4V | 08:15:58 | 02:32:26 | 00:00:00 | |
| AA1-15 | 2026-09-02 00:49:59 | 51.42203 | 7.93322 | 99° | 82km/h | 14821m | -14.8m/s | -51.9°C | 0.3% | 129.8hPa | 2.4V | 08:15:58 | 02:32:25 | 00:00:00 | |
| DF8AY | 2026-09-02 00:49:55 | 51.42219 | 7.93193 | 102° | 80km/h | 14877m | -13.6m/s | -51.6°C | 0.2% | 128.7hPa | 2.6V | 08:16:49 | 02:32:21 | 00:00:00 | |
| HSKMA3-T | 2026-09-02 00:49:53 | 51.42227 | 7.93129 | 103° | 80km/h | 14906m | -16.9m/s | -51.7°C | 0.3% | 128.2hPa | 2.4V | 08:15:58 | 02:32:19 | 00:00:00 | |
| BIOWL1-15 | 2026-09-02 00:49:53 | 51.42249 | 7.93003 | 106° | 80km/h | 14967m | -15.8m/s | -51.7°C | 0.3% | 127hPa | 2.4V | 08:15:58 | 02:32:15 | 00:00:00 | |
| DD8BA-10 | 2026-09-02 00:49:53 | 51.42227 | 7.93129 | 104° | 78km/h | 14906m | -16.9m/s | -51.6°C | 3.7% | 128.1hPa | 2.4V | 00:00:00 | 00:00:00 | 00:00:00 | |
| DL1XH1-15 | 2026-09-02 00:49:52 | 51.42260 | 7.92942 | 107° | 77km/h | 14996m | -14.2m/s | -51.5°C | 3.7% | 126.4hPa | 2.4V | 08:15:54 | 02:32:13 | 00:00:00 | |
| DL1XH-west | 2026-09-02 00:49:50 | 51.42243 | 7.93034 | 106° | 82km/h | 14951m | -16.7m/s | -51.7°C | 0.3% | 127.3hPa | 2.6V | 08:15:58 | 02:32:16 | 00:00:00 | |
| AA1-15 | 2026-09-02 00:49:49 | 51.42254 | 7.92972 | 107° | 80km/h | 14982m | -13.7m/s | -51.6°C | 0.2% | 126.7hPa | 2.4V | 08:15:58 | 02:32:14 | 00:00:00 | |
| EDDB2-12 | 2026-09-02 00:49:45 | 51.42279 | 7.92855 | 110° | 71km/h | 15040m | -15.8m/s | -51.4°C | 1.1% | 125.6hPa | 2.4V | 00:00:00 | 00:00:00 | 00:00:00 | |
| DL4BBY-15 | 2026-09-02 00:49:44 | 51.42279 | 7.92855 | 111° | 51km/h | 15040m | -15.7m/s | -50.9°C | 0% | 0hPa | 2.4V | 00:00:00 | 00:00:00 | 00:00:00 | |
| DK9SH | 2026-09-02 00:49:43 | 51.42286 | 7.92828 | 112° | 71km/h | 15056m | -15.1m/s | -51.5°C | 1.1% | 125.2hPa | 2.4V | 08:15:00 | 00:00:00 | 00:00:00 | |
| BIOWL1-15 | 2026-09-02 00:49:42 | 51.42358 | 7.92321 | 77° | 42km/h | 15467m | -16.1m/s | -51.1°C | 0.1% | 117.6hPa | 2.4V | 08:16:49 | 02:31:43 | 00:00:00 | |
| DL1NUX | 2026-09-02 00:49:42 | 51.42355 | 7.92512 | 103° | 46km/h | 15261m | -15.7m/s | -51.2°C | 3.5% | 121.3hPa | 2.5V | 08:16:12 | 02:31:55 | 00:00:00 | |
| HSKMA3-T | 2026-09-02 00:49:42 | 51.42292 | 7.92801 | 111° | 71km/h | 15070m | -14.9m/s | -51.5°C | 0.3% | 124.9hPa | 2.4V | 08:16:49 | 02:32:08 | 00:00:00 | |
| DB0NH | 2026-09-02 00:49:42 | 51.42292 | 7.92801 | 111° | 49km/h | 15071m | -14.9m/s | -51.5°C | 3.7% | 124.8hPa | 2.4V | 00:00:00 | 02:32:08 | 00:00:00 | |
| DL1XH-15 | 2026-09-02 00:49:41 | 51.42360 | 7.92477 | 99° | 42km/h | 15292m | -14.6m/s | -51.3°C | 3.6% | 120.8hPa | 2.4V | 08:16:14 | 02:31:53 | 00:00:00 | |
| DO2JMG | 2026-09-02 00:49:41 | 51.42352 | 7.92530 | 106° | 46km/h | 15245m | -16m/s | -51.1°C | 0.2% | 121.7hPa | 2.5V | 08:16:49 | 02:31:56 | 00:00:00 | |
| DL1XH-west | 2026-09-02 00:49:41 | 51.42361 | 7.92337 | 78° | 42km/h | 15450m | -17.4m/s | -51.1°C | 0.1% | 117.9hPa | 2.5V | 08:16:49 | 02:31:44 | 00:00:00 | |
| AA1-15 | 2026-09-02 00:49:39 | 51.42365 | 7.92399 | 89° | 37km/h | 15380m | -16.9m/s | -50.9°C | 0.1% | 119.2hPa | 2.4V | 08:16:49 | 02:31:48 | 00:00:00 | |
| DL3AQ-11 | 2026-09-02 00:49:39 | 51.42316 | 7.92699 | 109° | 62km/h | 15125m | -11.5m/s | -51.6°C | 1.2% | 123.8hPa | 2.6V | 00:00:00 | 00:00:00 | 00:00:00 | |
| HSKMA3-T | 2026-09-02 00:49:37 | 51.42362 | 7.92353 | 81° | 38km/h | 15433m | -17.7m/s | -50.9°C | 0.1% | 118.2hPa | 2.6V | 08:16:49 | 02:31:45 | 00:00:00 | |
| DO2JMG | 2026-09-02 00:49:37 | 51.42353 | 7.92286 | 74° | 46km/h | 15500m | -15.5m/s | -51.3°C | 0.2% | 117hPa | 2.4V | 08:16:49 | 02:31:41 | 00:00:00 | |
| DL1XH1-15 | 2026-09-02 00:49:37 | 51.42364 | 7.92369 | 85° | 38km/h | 15415m | -17.1m/s | -50.8°C | 3.4% | 118.5hPa | 2.5V | 08:16:21 | 02:31:46 | 00:00:00 | |
| DL1XH-15 | 2026-09-02 00:49:36 | 51.42358 | 7.92321 | 77° | 42km/h | 15467m | -16.1m/s | -51.1°C | 3.5% | 117.6hPa | 2.4V | 08:16:24 | 02:31:43 | 00:00:00 | |
| EDDB2-11 | 2026-09-02 00:49:36 | 51.42332 | 7.92630 | 109° | 57km/h | 15163m | -16.0m/s | -51.3°C | 1.1% | 123.2hPa | 2.4V | 00:00:00 | 00:00:00 | 00:00:00 | |
| DB0ND-19 | 2026-09-02 00:49:35 | 51.42332 | 7.92630 | 109° | 57km/h | 15163m | -16.0m/s | -51.3°C | 1.1% | 123.2hPa | 2.4V | 00:00:00 | 00:00:00 | 00:00:00 | |
| WPPR-10 | 2026-09-02 00:49:34 | 51.42341 | 7.92587 | 109° | 53km/h | 15195m | -17.4m/s | -51.1°C | 1.1% | 122.6hPa | 2.4V | 00:00:00 | 00:00:00 | 00:00:00 | |
| DD8BA-10 | 2026-09-02 00:49:33 | 51.42341 | 7.92587 | 110° | 46km/h | 15195m | -17.4m/s | -51.1°C | 3.5% | 122.6hPa | 2.4V | 00:00:00 | 00:00:00 | 00:00:00 | |
| DJ2DS-15 | 2026-09-02 00:49:32 | 51.42345 | 7.92567 | 109° | 42km/h | 15213m | -17.3m/s | -51.0°C | 3.5% | 122.2hPa | 2.4V | 00:00:00 | 02:31:58 | 00:00:00 | |
| GOEST3-10 | 2026-09-02 00:49:31 | 51.42349 | 7.92548 | 108° | 46km/h | 15230m | -15.6m/s | -51.0°C | 3.5% | 121.9hPa | 2.4V | 08:16:00 | 02:31:57 | 00:00:00 | |
| DO2KSM | 2026-09-02 00:49:29 | 51.42352 | 7.92530 | 107° | 46km/h | 15246m | -16.0m/s | -51.1°C | 1.1% | 121.7hPa | 2.4V | 08:16:00 | 00:00:00 | 00:00:00 | |
| DL3AQ-11 | 2026-09-02 00:49:28 | 51.42360 | 7.92477 | 99° | 42km/h | 15292m | -14.6m/s | -51.3°C | 1.1% | 120.8hPa | 2.4V | 00:00:00 | 00:00:00 | 00:00:00 | |
| AU51GT2 | 2026-09-02 00:49:27 | 51.42360 | 7.92477 | 99° | 42km/h | 15292m | -14.6m/s | -51.3°C | 1.1% | 120.8hPa | 2.4V | 00:00:00 | 00:00:00 | 00:00:00 | |
| GOEST3-10 | 2026-09-02 00:49:26 | 51.42362 | 7.92460 | 99° | 38km/h | 15308m | -17.5m/s | -51.3°C | 3.6% | 120.5hPa | 2.4V | 00:00:00 | 00:00:00 | 00:00:00 | |
| HTAHTA | 2026-09-02 00:49:25 | 51.42364 | 7.92429 | 95° | 37km/h | 15345m | -17.9m/s | -51.1°C | 1.1% | 119.9hPa | 2.4V | 00:00:00 | 00:00:00 | 00:00:00 | |
| DL1NUX | 2026-09-02 00:49:23 | 51.42358 | 7.92321 | 77° | 42km/h | 15467m | -16.1m/s | -51.1°C | 3.5% | 117.6hPa | 2.4V | 08:16:24 | 02:31:43 | 00:00:00 | |
| DD8BA-10 | 2026-09-02 00:49:23 | 51.42365 | 7.92414 | 92° | 42km/h | 15363m | -18.0m/s | -50.9°C | 3.5% | 119.5hPa | 2.5V | 00:00:00 | 00:00:00 | 00:00:00 | |
| DL1XH-15 | 2026-09-02 00:49:22 | 51.42343 | 7.92230 | 74° | 51km/h | 15545m | -19.2m/s | -51.5°C | 3.5% | 116.2hPa | 2.5V | 08:16:29 | 02:31:38 | 00:00:00 | |
| DO2JMG | 2026-09-02 00:49:17 | 51.42349 | 7.92268 | 74° | 47km/h | 15515m | -14m/s | -51.4°C | 0.1% | 116.7hPa | 2.5V | 08:16:49 | 02:31:40 | 00:00:00 | |
| DJ8HS-15 | 2026-09-02 00:49:16 | 51.42356 | 7.92304 | 76° | 47km/h | 15484m | -16.7m/s | -51.2°C | 3.5% | 117.3hPa | 2.6V | 00:00:00 | 02:31:42 | 00:00:00 | |
| DL1XH1-15 | 2026-09-02 00:49:15 | 51.42346 | 7.92250 | 74° | 49km/h | 15529m | -13.2m/s | -51.4°C | 3.5% | 116.4hPa | 2.6V | 08:16:28 | 02:31:39 | 00:00:00 | |
| AA1-15 | 2026-09-02 00:49:12 | 51.42339 | 7.92210 | 76° | 53km/h | 15564m | -18.6m/s | -51.6°C | 0.1% | 115.9hPa | 2.4V | 08:16:49 | 02:31:37 | 00:00:00 | |
| BIOWL1-15 | 2026-09-02 00:49:12 | 51.42316 | 7.91862 | 87° | 53km/h | 15828m | -18.3m/s | -52.4°C | 0.3% | 111.2hPa | 2.4V | 08:16:49 | 02:31:21 | 00:00:00 | |
| DL1XH-west | 2026-09-02 00:49:09 | 51.42333 | 7.92169 | 78° | 53km/h | 15600m | -18.3m/s | -51.8°C | 0.2% | 115.2hPa | 2.4V | 08:16:49 | 02:31:35 | 00:00:00 | |
| DL1NUX | 2026-09-02 00:49:08 | 51.42328 | 7.92125 | 80° | 55km/h | 15635m | -16.7m/s | -52.1°C | 3.7% | 114.6hPa | 2.6V | 08:16:34 | 02:31:33 | 00:00:00 | |
| DO2JMG | 2026-09-02 00:49:05 | 51.42321 | 7.92058 | 84° | 57km/h | 15679m | -16.3m/s | -52.2°C | 0.3% | 113.8hPa | 2.4V | 08:16:49 | 02:31:30 | 00:00:00 | |
| DL1XH-15 | 2026-09-02 00:49:04 | 51.42319 | 7.92013 | 87° | 57km/h | 15709m | -15.3m/s | -52°C | 3.7% | 113.2hPa | 2.5V | 08:16:39 | 02:31:28 | 00:00:00 | |
| BIOWL1-15 | 2026-09-02 00:49:01 | 51.42315 | 7.91841 | 88° | 49km/h | 15847m | -19.9m/s | -52.4°C | 0.3% | 111hPa | 2.4V | 08:16:49 | 02:31:20 | 00:00:00 | |
| AA1-15 | 2026-09-02 00:49:00 | 51.42318 | 7.91968 | 88° | 57km/h | 15742m | -17.6m/s | -52.1°C | 0.3% | 112.7hPa | 2.4V | 08:16:49 | 02:31:26 | 00:00:00 | |
| HSKMA3-T | 2026-09-02 00:48:59 | 51.42317 | 7.91945 | 89° | 55km/h | 15759m | -17.4m/s | -52.2°C | 0.2% | 112.4hPa | 2.4V | 08:16:49 | 02:31:25 | 00:00:00 | |
| DL3AQ-11 | 2026-09-02 00:48:59 | 51.42317 | 7.91924 | 88° | 51km/h | 15777m | -17.0m/s | -52.2°C | 1.1% | 112.1hPa | 2.5V | 00:00:00 | 00:00:00 | 00:00:00 | |
| DL1XH1-15 | 2026-09-02 00:48:58 | 51.42313 | 7.91800 | 84° | 49km/h | 15885m | -16.6m/s | -52.2°C | 3.7% | 110.2hPa | 2.5V | 08:16:49 | 02:31:18 | 00:00:00 | |
| DL1XH-west | 2026-09-02 00:48:58 | 51.42317 | 7.91924 | 89° | 53km/h | 15777m | -17m/s | -52.2°C | 0.3% | 112.1hPa | 2.4V | 08:16:49 | 02:31:24 | 00:00:00 | |
| DL1NUX | 2026-09-02 00:48:58 | 51.42317 | 7.91903 | 89° | 51km/h | 15793m | -16.8m/s | -52.3°C | 3.8% | 111.8hPa | 2.6V | 08:16:44 | 02:31:23 | 00:00:00 | |
| DO2JMG | 2026-09-02 00:48:53 | 51.42315 | 7.91821 | 86° | 53km/h | 15867m | -18.7m/s | -52.3°C | 0.3% | 110.5hPa | 2.4V | 08:16:49 | 02:31:19 | 00:00:00 | |
| DF8AY | 2026-09-02 00:48:50 | 51.42311 | 7.91759 | 84° | 53km/h | 15919m | -17.6m/s | -52.3°C | 0.3% | 109.7hPa | 2.4V | 08:20:13 | 02:31:16 | 00:00:00 | |
| HSKMA3-T | 2026-09-02 00:48:49 | 51.42310 | 7.91738 | 85° | 53km/h | 15937m | -18.3m/s | -52.3°C | 0.3% | 109.4hPa | 2.4V | 08:17:40 | 02:31:15 | 00:00:00 | |
| DL1XH-west | 2026-09-02 00:48:48 | 51.42308 | 7.91694 | 86° | 57km/h | 15974m | -17.1m/s | -52.5°C | 0.2% | 108.8hPa | 2.4V | 08:17:40 | 02:31:13 | 00:00:00 | |
| DL3AQ-11 | 2026-09-02 00:48:48 | 51.42308 | 7.91694 | 85° | 57km/h | 15974m | -17.1m/s | -52.5°C | 1.1% | 108.8hPa | 2.4V | 00:00:00 | 00:00:00 | 00:00:00 | |
| DJ2DS-15 | 2026-09-02 00:48:46 | 51.42306 | 7.91647 | 88° | 57km/h | 16011m | -19.5m/s | -52.6°C | 1.1% | 108.1hPa | 2.4V | 00:00:00 | 00:00:00 | 00:00:00 | |
| DL1XH-15 | 2026-09-02 00:48:44 | 51.42307 | 7.91576 | 91° | 60km/h | 16067m | -19.3m/s | -52.5°C | 3.7% | 107.2hPa | 2.4V | 08:16:59 | 02:31:08 | 00:00:00 | |
| BIOWL1-15 | 2026-09-02 00:48:44 | 51.42306 | 7.91600 | 90° | 60km/h | 16048m | -19.9m/s | -52.6°C | 0.3% | 107.6hPa | 2.4V | 08:17:40 | 02:31:09 | 00:00:00 | |
| DO2JMG | 2026-09-02 00:48:42 | 51.42307 | 7.91576 | 92° | 60km/h | 16067m | -19.3m/s | -52.5°C | 0.2% | 107.2hPa | 2.4V | 08:17:40 | 02:31:08 | 00:00:00 | |
| DF8AY | 2026-09-02 00:48:40 | 51.42310 | 7.91416 | 89° | 55km/h | 16203m | -15.9m/s | -52.8°C | 0.3% | 105hPa | 2.5V | 08:20:13 | 02:31:01 | 00:00:00 | |
| AA1-15 | 2026-09-02 00:48:39 | 51.42309 | 7.91505 | 92° | 57km/h | 16126m | -19.3m/s | -52.6°C | 0.2% | 106.2hPa | 2.4V | 08:17:40 | 02:31:05 | 00:00:00 | |
| HSKMA3-T | 2026-09-02 00:48:39 | 51.42309 | 7.91483 | 93° | 57km/h | 16146m | -20.3m/s | -52.6°C | 0.2% | 106hPa | 2.4V | 08:17:40 | 02:31:04 | 00:00:00 | |
| BIOWL7-15 | 2026-09-02 00:48:38 | 51.42310 | 7.91483 | 93° | 57km/h | 16146m | -20.3m/s | -52.6°C | 1.1% | 106.0hPa | 2.4V | 00:00:00 | 00:00:00 | 00:00:00 | |
| DL1XH1-15 | 2026-09-02 00:48:37 | 51.42309 | 7.91349 | 87° | 55km/h | 16248m | -15.4m/s | -53.1°C | 4% | 104.2hPa | 2.4V | 08:17:09 | 02:30:58 | 00:00:00 | |
| DL1XH-west | 2026-09-02 00:48:37 | 51.42310 | 7.91438 | 90° | 55km/h | 16185m | -19.2m/s | -52.7°C | 0.3% | 105.3hPa | 2.6V | 08:17:40 | 02:31:02 | 00:00:00 | |
| BIOWL1-15 | 2026-09-02 00:48:33 | 51.42311 | 7.91128 | 95° | 66km/h | 16386m | -17.1m/s | -53.1°C | 0.4% | 102.1hPa | 2.4V | 08:17:40 | 02:30:49 | 00:00:00 | |
| DO2JMG | 2026-09-02 00:48:31 | 51.42308 | 7.91327 | 88° | 57km/h | 16263m | -14.7m/s | -53.2°C | 0.4% | 104hPa | 2.4V | 08:17:40 | 02:30:57 | 00:00:00 | |
| DF8AY | 2026-09-02 00:48:29 | 51.42307 | 7.91280 | 89° | 58km/h | 16292m | -13.9m/s | -53.1°C | 0.4% | 103.5hPa | 2.6V | 08:20:13 | 02:30:55 | 00:00:00 | |
| DL1NUX | 2026-09-02 00:48:28 | 51.42307 | 7.91231 | 91° | 62km/h | 16322m | -16.2m/s | -53.1°C | 4% | 103hPa | 2.4V | 08:17:14 | 02:30:53 | 00:00:00 | |
| HSKMA3-T | 2026-09-02 00:48:28 | 51.42307 | 7.91256 | 90° | 60km/h | 16306m | -15.7m/s | -53°C | 0.3% | 103.3hPa | 2.4V | 08:17:40 | 02:30:54 | 00:00:00 | |
| DL1XH-west | 2026-09-02 00:48:25 | 51.42309 | 7.91180 | 93° | 64km/h | 16354m | -16.5m/s | -53.2°C | 0.3% | 102.5hPa | 2.6V | 08:17:40 | 02:30:51 | 00:00:00 | |
| DO2JMG | 2026-09-02 00:48:21 | 51.42315 | 7.91076 | 98° | 64km/h | 16419m | -16.4m/s | -53°C | 0.3% | 101.5hPa | 2.4V | 08:17:40 | 02:30:47 | 00:00:00 | |
| DF8AY | 2026-09-02 00:48:19 | 51.42319 | 7.91025 | 99° | 64km/h | 16451m | -16.5m/s | -52.9°C | 0.4% | 101hPa | 2.5V | 08:20:13 | 02:30:45 | 00:00:00 | |
| DJ2KF-10 | 2026-09-02 00:48:19 | 51.42319 | 7.91025 | 99° | 47km/h | 16451m | -16.4m/s | -52.8°C | 4.0% | 101.0hPa | 2.4V | 00:00:00 | 02:30:45 | 00:00:00 | |
| DL1NUX | 2026-09-02 00:48:18 | 51.42324 | 7.90976 | 98° | 60km/h | 16482m | -14.5m/s | -52.8°C | 4% | 100.5hPa | 2.4V | 08:17:24 | 02:30:43 | 00:00:00 | |
| HSKMA3-T | 2026-09-02 00:48:18 | 51.42322 | 7.91000 | 99° | 60km/h | 16467m | -15.9m/s | -52.8°C | 0.3% | 100.7hPa | 2.4V | 08:17:40 | 02:30:44 | 00:00:00 | |
| AA1-15 | 2026-09-02 00:48:17 | 51.42324 | 7.90976 | 99° | 60km/h | 16482m | -14.5m/s | -52.8°C | 0.3% | 100.5hPa | 2.4V | 08:17:40 | 02:30:43 | 00:00:00 | |
| DL1XH-west | 2026-09-02 00:48:14 | 51.42330 | 7.90906 | 97° | 57km/h | 16527m | -16.3m/s | -52.5°C | 0.3% | 99.8hPa | 2.6V | 08:17:40 | 02:30:40 | 00:00:00 | |
| DO2JMG | 2026-09-02 00:48:10 | 51.42336 | 7.90821 | 96° | 51km/h | 16586m | -13.7m/s | -52.1°C | 0.2% | 98.8hPa | 2.4V | 08:17:40 | 02:30:36 | 00:00:00 | |
| DF8AY | 2026-09-02 00:48:09 | 51.42338 | 7.90801 | 96° | 49km/h | 16599m | -12.7m/s | -52°C | 0.2% | 98.6hPa | 2.5V | 08:20:13 | 02:30:35 | 00:00:00 | |
| DL1NUX | 2026-09-02 00:48:08 | 51.42341 | 7.90761 | 96° | 49km/h | 16631m | -17.3m/s | -52°C | 3.7% | 98.3hPa | 2.4V | 08:17:34 | 02:30:33 | 00:00:00 | |
| HSKMA3-T | 2026-09-02 00:48:07 | 51.42341 | 7.90761 | 97° | 49km/h | 16631m | -17.3m/s | -52°C | 0.1% | 98.3hPa | 2.4V | 08:17:40 | 02:30:33 | 00:00:00 | |
| DM0DOS-11 | 2026-09-02 00:48:07 | 51.42344 | 7.90723 | 97° | 47km/h | 16668m | -19m/s | -51.8°C | 3.6% | 97.7hPa | 2.4V | 08:17:36 | 02:30:31 | 00:00:00 | |
| AA1-15 | 2026-09-02 00:48:06 | 51.42342 | 7.90742 | 98° | 47km/h | 16649m | -18.2m/s | -52°C | 0.2% | 97.9hPa | 2.4V | 08:17:40 | 02:30:32 | 00:00:00 | |
| DL1XH-west | 2026-09-02 00:48:04 | 51.42345 | 7.90704 | 99° | 46km/h | 16686m | -17.8m/s | -51.8°C | 0.1% | 97.4hPa | 2.6V | 08:17:40 | 02:30:30 | 00:00:00 | |
| BIOWL1-15 | 2026-09-02 00:48:01 | 51.42351 | 7.90537 | 82° | 37km/h | 16843m | -13.4m/s | -51.1°C | 0% | 95hPa | 2.4V | 08:18:31 | 02:30:20 | 00:00:00 | |
| DO2JMG | 2026-09-02 00:48:00 | 51.42351 | 7.90633 | 95° | 42km/h | 16751m | -14.8m/s | -51.3°C | 0% | 96.3hPa | 2.4V | 08:18:31 | 02:30:26 | 00:00:00 | |
| DM0DOS-11 | 2026-09-02 00:48:00 | 51.42352 | 7.90552 | 85° | 38km/h | 16830m | -13.5m/s | -51.1°C | 3.4% | 95.2hPa | 2.4V | 08:17:46 | 02:30:21 | 00:00:00 | |
| DF8AY | 2026-09-02 00:47:59 | 51.42352 | 7.90616 | 94° | 42km/h | 16767m | -16.1m/s | -51.2°C | 0% | 96.1hPa | 2.4V | 08:20:13 | 02:30:25 | 00:00:00 | |
| DL1NUX | 2026-09-02 00:47:58 | 51.42353 | 7.90583 | 89° | 40km/h | 16799m | -17m/s | -51.1°C | 3.4% | 95.6hPa | 2.6V | 08:17:44 | 02:30:23 | 00:00:00 | |
| HSKMA3-T | 2026-09-02 00:47:56 | 51.42352 | 7.90567 | 88° | 38km/h | 16815m | -15.3m/s | -51.1°C | 0% | 95.4hPa | 2.4V | 08:18:31 | 02:30:22 | 00:00:00 | |
| AA1-15 | 2026-09-02 00:47:56 | 51.42352 | 7.90552 | 85° | 38km/h | 16830m | -13.5m/s | -51.1°C | 0% | 95.2hPa | 2.4V | 08:18:31 | 02:30:21 | 00:00:00 | |
| DL1XH-west | 2026-09-02 00:47:53 | 51.42349 | 7.90522 | 78° | 38km/h | 16856m | -11.8m/s | -51.2°C | 0% | 94.8hPa | 2.6V | 08:18:31 | 02:30:19 | 00:00:00 | |
| DO2JMG | 2026-09-02 00:47:50 | 51.42343 | 7.90477 | 76° | 38km/h | 16901m | -15.8m/s | -51.5°C | 0.1% | 94.2hPa | 2.4V | 08:18:31 | 02:30:16 | 00:00:00 | |
| DO3MHA-12 | 2026-09-02 00:47:50 | 51.42343 | 7.90477 | 76° | 40km/h | 16902m | -15.7m/s | -51.5°C | 3.6% | 94.1hPa | 2.4V | 00:00:00 | 02:30:16 | 00:00:00 | |
| DM0DOS-11 | 2026-09-02 00:47:49 | 51.42332 | 7.90384 | 85° | 40km/h | 17000m | -19.2m/s | -51.4°C | 3.5% | 92.8hPa | 2.4V | 08:17:57 | 02:30:10 | 00:00:00 | |
| DJ2KF-10 | 2026-09-02 00:47:49 | 51.42340 | 7.90462 | 76° | 40km/h | 16917m | -15.2m/s | -51.5°C | 3.6% | 93.9hPa | 2.4V | 08:17:00 | 02:30:15 | 00:00:00 | |
| DL1NUX | 2026-09-02 00:47:48 | 51.42336 | 7.90432 | 78° | 40km/h | 16948m | -16.8m/s | -51.2°C | 3.5% | 93.5hPa | 2.5V | 08:17:54 | 02:30:13 | 00:00:00 | |
| DF8AY | 2026-09-02 00:47:47 | 51.42336 | 7.90432 | 78° | 40km/h | 16948m | -16.8m/s | -51.2°C | 0.1% | 93.5hPa | 2.5V | 08:20:13 | 02:30:13 | 00:00:00 | |
| HSKMA3-T | 2026-09-02 00:47:46 | 51.42334 | 7.90416 | 81° | 38km/h | 16964m | -15.9m/s | -51.1°C | 0% | 93.2hPa | 2.4V | 08:18:31 | 02:30:12 | 00:00:00 | |
| AA1-15 | 2026-09-02 00:47:45 | 51.42333 | 7.90400 | 83° | 40km/h | 16981m | -18.3m/s | -51.2°C | 0% | 93hPa | 2.4V | 08:18:31 | 02:30:11 | 00:00:00 | |
| DL1XH-west | 2026-09-02 00:47:42 | 51.42331 | 7.90351 | 89° | 44km/h | 17035m | -17.1m/s | -51.5°C | 0% | 92.3hPa | 2.6V | 08:18:31 | 02:30:08 | 00:00:00 | |
| DO2JMG | 2026-09-02 00:47:40 | 51.42331 | 7.90316 | 92° | 44km/h | 17071m | -19.9m/s | -51.5°C | 0% | 91.8hPa | 2.4V | 08:18:31 | 02:30:06 | 00:00:00 | |
| HSKMA3-T | 2026-09-02 00:47:36 | 51.42337 | 7.90245 | 101° | 44km/h | 17150m | -20.3m/s | -51.7°C | 0% | 90.7hPa | 2.5V | 08:18:31 | 02:30:02 | 00:00:00 | |
| AA1-15 | 2026-09-02 00:47:35 | 51.42342 | 7.90211 | 107° | 44km/h | 17188m | -15.9m/s | -51.8°C | 0% | 90.1hPa | 2.4V | 08:18:31 | 02:30:00 | 00:00:00 | |
| DL1XH1-15 | 2026-09-02 00:47:32 | 51.42348 | 7.90177 | 108° | 42km/h | 17216m | -12.9m/s | -51.8°C | 3.5% | 89.7hPa | 2.6V | 08:18:09 | 02:29:58 | 00:00:00 | |
| DL1XH-west | 2026-09-02 00:47:32 | 51.42349 | 7.90177 | 108° | 42km/h | 17216m | -12.9m/s | -51.8°C | 0% | 89.7hPa | 2.6V | 08:18:31 | 02:29:58 | 00:00:00 | |
| DO2JMG | 2026-09-02 00:47:29 | 51.42358 | 7.90131 | 107° | 38km/h | 17259m | -14.8m/s | -51.8°C | 0% | 89.1hPa | 2.4V | 08:18:31 | 02:29:55 | 00:00:00 | |
| HSKMA3-T | 2026-09-02 00:47:26 | 51.42366 | 7.90088 | 103° | 35km/h | 17308m | -14.6m/s | -51.9°C | 0% | 88.4hPa | 2.6V | 08:18:31 | 02:29:52 | 00:00:00 | |
| DF8AY | 2026-09-02 00:47:26 | 51.42368 | 7.90075 | 101° | 33km/h | 17322m | -14m/s | -51.9°C | 0% | 88.2hPa | 2.6V | 08:20:13 | 02:29:51 | 00:00:00 | |
| BIOWL1-15 | 2026-09-02 00:47:24 | 51.42371 | 7.90009 | 93° | 33km/h | 17388m | -16.1m/s | -52.1°C | 0.1% | 87.4hPa | 2.6V | 08:18:31 | 02:29:46 | 00:00:00 | |
| DL1XH-15 | 2026-09-02 00:47:24 | 51.42371 | 7.90036 | 92° | 33km/h | 17363m | -12.3m/s | -52°C | 3.6% | 87.6hPa | 2.4V | 08:18:19 | 02:29:48 | 00:00:00 | |
| AA1-15 | 2026-09-02 00:47:23 | 51.42370 | 7.90049 | 95° | 33km/h | 17350m | -13.6m/s | -52°C | 0.1% | 87.8hPa | 2.4V | 08:18:31 | 02:29:49 | 00:00:00 | |
| DL1XH-west | 2026-09-02 00:47:21 | 51.42371 | 7.90023 | 92° | 33km/h | 17375m | -11m/s | -52°C | 0.1% | 87.4hPa | 2.6V | 08:18:31 | 02:29:47 | 00:00:00 | |
| DO2JMG | 2026-09-02 00:47:18 | 51.42372 | 7.89981 | 95° | 35km/h | 17414m | -12.4m/s | -52.2°C | 0.2% | 86.9hPa | 2.4V | 08:18:31 | 02:29:44 | 00:00:00 | |
| DL1NUX | 2026-09-02 00:47:18 | 51.42373 | 7.89967 | 95° | 35km/h | 17427m | -13.5m/s | -52.3°C | 3.7% | 86.8hPa | 2.4V | 08:18:24 | 02:29:43 | 00:00:00 | |
| DJ8HS-15 | 2026-09-02 00:47:16 | 51.42374 | 7.89953 | 97° | 40km/h | 17441m | -14.8m/s | -52.2°C | 3.7% | 86.6hPa | 2.4V | 00:00:00 | 02:29:42 | 00:00:00 | |
| DM0DOS-11 | 2026-09-02 00:47:15 | 51.42376 | 7.89925 | 94° | 35km/h | 17472m | -16.2m/s | -52.3°C | 3.7% | 86.2hPa | 2.4V | 08:18:27 | 02:29:40 | 00:00:00 | |
| HSKMA3-T | 2026-09-02 00:47:15 | 51.42375 | 7.89939 | 97° | 33km/h | 17456m | -16.5m/s | -52.3°C | 0.1% | 86.4hPa | 2.5V | 08:18:31 | 02:29:41 | 00:00:00 | |
| DF8AY | 2026-09-02 00:47:14 | 51.42376 | 7.89925 | 95° | 35km/h | 17472m | -16.2m/s | -52.3°C | 0.1% | 86.2hPa | 2.4V | 08:20:13 | 02:29:40 | 00:00:00 | |
| AA1-15 | 2026-09-02 00:47:13 | 51.42376 | 7.89912 | 93° | 35km/h | 17489m | -18.1m/s | -52.4°C | 0.2% | 86hPa | 2.4V | 08:18:31 | 02:29:39 | 00:00:00 | |
| DL1XH-west | 2026-09-02 00:47:11 | 51.42377 | 7.89883 | 88° | 37km/h | 17526m | -19.6m/s | -52.5°C | 0.1% | 85.6hPa | 2.4V | 08:18:31 | 02:29:37 | 00:00:00 | |
| BIOWL1-15 | 2026-09-02 00:47:09 | 51.42369 | 7.89787 | 79° | 42km/h | 17629m | -17.5m/s | -52.5°C | 0.1% | 84.2hPa | 2.6V | 08:19:22 | 02:29:31 | 00:00:00 | |
| DM0DOS-11 | 2026-09-02 00:47:09 | 51.42365 | 7.89753 | 79° | 42km/h | 17665m | -17.2m/s | -52.6°C | 3.8% | 83.7hPa | 2.4V | 08:18:38 | 02:29:29 | 00:00:00 | |
| DO2JMG | 2026-09-02 00:47:08 | 51.42374 | 7.89836 | 84° | 42km/h | 17577m | -16m/s | 0°C | 0% | 84.8hPa | 2.4V | 08:21:55 | 02:29:34 | 00:00:00 | |
| HSKMA3-T | 2026-09-02 00:47:05 | 51.42367 | 7.89770 | 79° | 42km/h | 17647m | -18.8m/s | -52.5°C | 0.1% | 84hPa | 2.5V | 08:19:22 | 02:29:30 | 00:00:00 | |
| DF8AY | 2026-09-02 00:47:03 | 51.42365 | 7.89753 | 80° | 42km/h | 17665m | -17.2m/s | -52.6°C | 0.2% | 83.7hPa | 2.4V | 08:20:13 | 02:29:29 | 00:00:00 | |
| AA1-15 | 2026-09-02 00:47:02 | 51.42363 | 7.89736 | 81° | 42km/h | 17681m | -14.6m/s | -52.6°C | 0.2% | 83.5hPa | 2.4V | 08:19:22 | 02:29:28 | 00:00:00 | |
| DL1XH-west | 2026-09-02 00:47:00 | 51.42362 | 7.89702 | 89° | 42km/h | 17717m | -19.7m/s | -52.6°C | 0.2% | 83.1hPa | 2.6V | 08:19:22 | 02:29:26 | 00:00:00 | |
| DO2JMG | 2026-09-02 00:46:58 | 51.42364 | 7.89651 | 98° | 42km/h | 17766m | -14.8m/s | 0°C | 0% | 0hPa | 2.4V | 08:21:55 | 02:29:23 | 00:00:00 | |
| DM0DOS-11 | 2026-09-02 00:46:58 | 51.42372 | 7.89590 | 103° | 37km/h | 17828m | -15.2m/s | -52.3°C | 3.8% | 81.6hPa | 2.6V | 08:18:48 | 02:29:19 | 00:00:00 | |
| BIOWL1-15 | 2026-09-02 00:46:57 | 51.42374 | 7.89576 | 100° | 35km/h | 17842m | -13.7m/s | -52.3°C | 0.1% | 81.4hPa | 2.4V | 08:19:22 | 02:29:18 | 00:00:00 | |
| HSKMA3-T | 2026-09-02 00:46:54 | 51.42370 | 7.89605 | 103° | 38km/h | 17812m | -16.4m/s | -52.3°C | 0.2% | 81.8hPa | 2.6V | 08:19:22 | 02:29:20 | 00:00:00 | |
| DF8AY | 2026-09-02 00:46:53 | 51.42372 | 7.89590 | 104° | 37km/h | 17828m | -15.2m/s | -52.3°C | 0.2% | 81.6hPa | 2.6V | 08:20:13 | 02:29:19 | 00:00:00 | |
| AA1-15 | 2026-09-02 00:46:51 | 51.42375 | 7.89562 | 98° | 35km/h | 17859m | -18.6m/s | -52.3°C | 0.2% | 81.3hPa | 2.4V | 08:19:22 | 02:29:17 | 00:00:00 | |
| DL1XH-west | 2026-09-02 00:46:50 | 51.42376 | 7.89548 | 99° | 35km/h | 17877m | -16.8m/s | -52.3°C | 0.2% | 81hPa | 2.4V | 08:19:22 | 02:29:16 | 00:00:00 | |
| DO2JMG | 2026-09-02 00:46:47 | 51.42379 | 7.89506 | 92° | 35km/h | 17937m | -22.2m/s | 0°C | 0% | 0hPa | 2.4V | 08:21:55 | 02:29:13 | 00:00:00 | |
| BIOWL1-15 | 2026-09-02 00:46:45 | 51.42379 | 7.89478 | 88° | 35km/h | 17977m | -18.8m/s | -52°C | 0.1% | 79.8hPa | 2.4V | 08:19:22 | 02:29:11 | 00:00:00 | |
| DL1XH-15 | 2026-09-02 00:46:44 | 51.42378 | 7.89434 | 84° | 37km/h | 18033m | -19.3m/s | -52.2°C | 3.7% | 79.1hPa | 2.4V | 08:18:59 | 02:29:08 | 00:00:00 | |
| HSKMA3-T | 2026-09-02 00:46:43 | 51.42379 | 7.89449 | 87° | 37km/h | 18015m | -17.1m/s | -52.2°C | 0.2% | 79.3hPa | 2.5V | 08:19:22 | 02:29:09 | 00:00:00 | |
| DD8BA-10 | 2026-09-02 00:46:43 | 51.42379 | 7.89449 | 87° | 37km/h | 18015m | -17.1m/s | -52.1°C | 3.7% | 79.3hPa | 2.5V | 00:00:00 | 00:00:00 | 00:00:00 | |
| DL1NUX | 2026-09-02 00:46:42 | 51.42373 | 7.89358 | 84° | 38km/h | 18125m | -13.8m/s | -51.7°C | 3.7% | 77.9hPa | 2.5V | 08:19:04 | 02:29:03 | 00:00:00 | |
| DF8AY | 2026-09-02 00:46:42 | 51.42378 | 7.89434 | 85° | 37km/h | 18033m | -19.3m/s | -52.2°C | 0.2% | 79.1hPa | 2.4V | 08:20:13 | 02:29:08 | 00:00:00 | |
| AA1-15 | 2026-09-02 00:46:40 | 51.42376 | 7.89403 | 84° | 38km/h | 18072m | -21.1m/s | -51.9°C | 0.1% | 78.7hPa | 2.4V | 08:19:22 | 02:29:06 | 00:00:00 | |
| DL1XH-west | 2026-09-02 00:46:39 | 51.42375 | 7.89388 | 83° | 38km/h | 18092m | -18.5m/s | -51.9°C | 0.1% | 78.4hPa | 2.4V | 08:19:22 | 02:29:05 | 00:00:00 | |
| DO2JMG | 2026-09-02 00:46:37 | 51.42373 | 7.89358 | 84° | 38km/h | 18125m | -13.8m/s | 0°C | 0% | 0hPa | 2.5V | 08:21:55 | 02:29:03 | 00:00:00 | |
| DL1XH1-15 | 2026-09-02 00:46:36 | 51.42369 | 7.89288 | 88° | 31km/h | 18202m | -14.7m/s | -51.4°C | 3.5% | 77hPa | 2.6V | 08:19:09 | 02:28:58 | 00:00:00 | |
| BIOWL1-15 | 2026-09-02 00:46:34 | 51.42370 | 7.89315 | 86° | 33km/h | 18172m | -16.2m/s | -51.8°C | 0.2% | 77.4hPa | 2.4V | 08:19:22 | 02:29:00 | 00:00:00 | |
| DF8AY | 2026-09-02 00:46:32 | 51.42369 | 7.89288 | 89° | 31km/h | 18202m | -14.7m/s | -51.4°C | 0% | 77hPa | 2.6V | 08:20:13 | 02:28:58 | 00:00:00 | |
| DL1NUX | 2026-09-02 00:46:32 | 51.42370 | 7.89222 | 91° | 35km/h | 18288m | -14.4m/s | -51.6°C | 3.6% | 76hPa | 2.6V | 08:19:14 | 02:28:53 | 00:00:00 | |
| AA1-15 | 2026-09-02 00:46:29 | 51.42370 | 7.89249 | 91° | 33km/h | 18251m | -20.2m/s | -51.3°C | 0% | 76.5hPa | 2.4V | 08:19:22 | 02:28:55 | 00:00:00 | |
| DL1XH-west | 2026-09-02 00:46:28 | 51.42370 | 7.89236 | 92° | 33km/h | 18271m | -19.5m/s | -51.4°C | 0% | 76.3hPa | 2.6V | 08:19:22 | 02:28:54 | 00:00:00 | |
| DM0DOS-11 | 2026-09-02 00:46:28 | 51.42372 | 7.89164 | 92° | 37km/h | 18346m | -17m/s | -51.3°C | 3.5% | 75.3hPa | 2.5V | 08:19:18 | 02:28:49 | 00:00:00 | |
| BIOWL1-15 | 2026-09-02 00:46:24 | 51.42373 | 7.89104 | 91° | 35km/h | 18412m | -15.4m/s | -51.4°C | 0% | 74.5hPa | 2.4V | 08:19:22 | 02:28:45 | 00:00:00 | |
| DD8BA-10 | 2026-09-02 00:46:23 | 51.42371 | 7.89164 | 93° | 33km/h | 18346m | -16.9m/s | -51.2°C | 3.5% | 75.3hPa | 2.6V | 00:00:00 | 00:00:00 | 00:00:00 | |
| DL1NUX | 2026-09-02 00:46:22 | 51.42374 | 7.89077 | 93° | 31km/h | 18442m | -17.2m/s | -51.3°C | 3.5% | 74.2hPa | 2.6V | 08:19:24 | 02:28:43 | 00:00:00 | |
| HSKMA3-T | 2026-09-02 00:46:21 | 51.42372 | 7.89133 | 92° | 37km/h | 18379m | -15.9m/s | -51.3°C | 0% | 74.9hPa | 2.5V | 08:19:22 | 02:28:47 | 00:00:00 | |
| DL1XH-west | 2026-09-02 00:46:18 | 51.42373 | 7.89090 | 93° | 33km/h | 18427m | -14.3m/s | -51.4°C | 0.1% | 74.4hPa | 2.4V | 08:20:13 | 02:28:44 | 00:00:00 | |
| SONDE2-11 | 2026-09-02 00:46:17 | 51.42373 | 7.89077 | 93° | 31km/h | 18443m | -17.2m/s | -51.3°C | 0.9% | 74.2hPa | 2.4V | 00:00:00 | 00:00:00 | 00:00:00 | |
| DJ8HS-15 | 2026-09-02 00:46:16 | 51.42374 | 7.89065 | 96° | 24km/h | 18460m | -17.6m/s | -51.0°C | 3.4% | 74.0hPa | 2.4V | 00:00:00 | 02:28:42 | 00:00:00 | |
| DM0DOS-11 | 2026-09-02 00:46:15 | 51.42376 | 7.89034 | 96° | 24km/h | 18511m | -16.1m/s | -51°C | 3.5% | 73.4hPa | 2.4V | 08:19:28 | 02:28:39 | 00:00:00 | |
| HSKMA3-T | 2026-09-02 00:46:11 | 51.42376 | 7.89016 | 94° | 22km/h | 18544m | -16.8m/s | -51.1°C | 0% | 73hPa | 2.6V | 08:20:13 | 02:28:37 | 00:00:00 | |
| DF8AY | 2026-09-02 00:46:09 | 51.42376 | 7.88999 | 85° | 20km/h | 18578m | -19m/s | -51.3°C | 0.1% | 72.7hPa | 2.4V | 08:20:13 | 02:28:35 | 00:00:00 | |
| BIOWL1-15 | 2026-09-02 00:46:08 | 51.42352 | 7.88887 | 77° | 27km/h | 18803m | -17.4m/s | -51.7°C | 0.2% | 70.2hPa | 2.4V | 08:20:13 | 02:28:23 | 00:00:00 | |
| AA1-15 | 2026-09-02 00:46:07 | 51.42375 | 7.88983 | 74° | 22km/h | 18616m | -21.8m/s | -51°C | 0% | 72.3hPa | 2.5V | 08:20:13 | 02:28:33 | 00:00:00 | |
| DF8AY | 2026-09-02 00:45:59 | 51.42355 | 7.88908 | 72° | 27km/h | 18769m | -17.4m/s | -51.4°C | 0.1% | 70.6hPa | 2.6V | 08:20:13 | 02:28:25 | 00:00:00 | |
| AA1-15 | 2026-09-02 00:45:57 | 51.42351 | 7.88876 | 84° | 27km/h | 18820m | -17m/s | -51.7°C | 0.2% | 70hPa | 2.4V | 08:20:13 | 02:28:22 | 00:00:00 | |
| BIOWL1-15 | 2026-09-02 00:45:52 | 51.42352 | 7.88828 | 97° | 29km/h | 18896m | -18m/s | -51.1°C | 0% | 69.2hPa | 2.6V | 08:20:13 | 02:28:18 | 00:00:00 | |
| HSKMA3-T | 2026-09-02 00:45:48 | 51.42357 | 7.88782 | 100° | 27km/h | 18969m | -16.8m/s | -51.1°C | 0.1% | 68.4hPa | 2.6V | 08:20:13 | 02:28:14 | 00:00:00 | |
| DL1XH-west | 2026-09-02 00:45:47 | 51.42358 | 7.88771 | 100° | 27km/h | 18986m | -17.5m/s | -51.1°C | 0.1% | 68.2hPa | 2.6V | 08:20:13 | 02:28:13 | 00:00:00 | |
| DM0DOS-11 | 2026-09-02 00:45:46 | 51.42361 | 7.88729 | 90° | 24km/h | 19051m | -17.4m/s | -50.7°C | 3.4% | 67.6hPa | 2.6V | 08:19:58 | 02:28:09 | 00:00:00 | |
| AA1-15 | 2026-09-02 00:45:45 | 51.42360 | 7.88750 | 94° | 26km/h | 19017m | -16.3m/s | -50.9°C | 0% | 67.9hPa | 2.4V | 08:20:13 | 02:28:11 | 00:00:00 | |
| BIOWL1-15 | 2026-09-02 00:45:42 | 51.42361 | 7.88720 | 90° | 22km/h | 19069m | -17.4m/s | -50.7°C | 0% | 67.4hPa | 2.6V | 08:20:13 | 02:28:08 | 00:00:00 | |
| HSKMA3-T | 2026-09-02 00:45:38 | 51.42358 | 7.88687 | 78° | 20km/h | 19141m | -15.3m/s | -51°C | 0% | 66.7hPa | 2.5V | 08:20:13 | 02:28:04 | 00:00:00 | |
| DL1XH-west | 2026-09-02 00:45:37 | 51.42357 | 7.88679 | 76° | 20km/h | 19155m | -12.9m/s | -51°C | 0% | 66.5hPa | 2.6V | 08:20:13 | 02:28:03 | 00:00:00 | |
| DL1XH1-15 | 2026-09-02 00:45:36 | 51.42348 | 7.88630 | 73° | 29km/h | 19235m | -15.9m/s | -51°C | 3.5% | 65.6hPa | 2.6V | 08:20:09 | 02:27:58 | 00:00:00 | |
| DJ8HS-15 | 2026-09-02 00:45:36 | 51.42356 | 7.88671 | 74° | 35km/h | 19170m | -17.6m/s | -50.8°C | 3.4% | 66.3hPa | 2.6V | 08:20:00 | 02:28:02 | 00:00:00 | |
| DM0DOS-11 | 2026-09-02 00:45:35 | 51.42350 | 7.88641 | 72° | 27km/h | 19219m | -16.2m/s | -50.9°C | 3.5% | 65.8hPa | 2.5V | 08:20:08 | 02:27:59 | 00:00:00 | |
| AA1-15 | 2026-09-02 00:45:34 | 51.42353 | 7.88652 | 73° | 27km/h | 19202m | -17.2m/s | -50.9°C | 0.1% | 66hPa | 2.5V | 08:20:13 | 02:28:00 | 00:00:00 | |
| BIOWL1-15 | 2026-09-02 00:45:34 | 51.42348 | 7.88630 | 73° | 29km/h | 19235m | -15.9m/s | -51°C | 0.1% | 65.6hPa | 2.6V | 08:20:13 | 02:27:58 | 00:00:00 | |
| DD8BA-10 | 2026-09-02 00:45:33 | 51.42350 | 7.88641 | 73° | 33km/h | 19219m | -16.1m/s | -50.9°C | 3.5% | 65.8hPa | 2.5V | 00:00:00 | 00:00:00 | 00:00:00 | |
| DL1NUX | 2026-09-02 00:45:32 | 51.42337 | 7.88568 | 74° | 33km/h | 19314m | -17m/s | -51.1°C | 3.5% | 64.9hPa | 2.6V | 08:20:14 | 02:27:53 | 00:00:00 | |
| DO9LL-15 | 2026-09-02 00:45:32 | 51.42348 | 7.88630 | 74° | 35km/h | 19235m | -15.8m/s | -51.0°C | 3.5% | 65.6hPa | 2.5V | 00:00:00 | 02:27:58 | 00:00:00 | |
| DO3DL | 2026-09-02 00:45:31 | 51.42346 | 7.88618 | 75° | 31km/h | 19251m | -15.8m/s | -51.1°C | 0.9% | 65.5hPa | 2.5V | 08:20:00 | 00:00:00 | 00:00:00 | |
| DM0DOS-11 | 2026-09-02 00:45:28 | 51.42327 | 7.88514 | 76° | 38km/h | 19380m | -17.6m/s | -51.4°C | 3.6% | 64.2hPa | 2.5V | 08:20:18 | 02:27:49 | 00:00:00 | |
| DL1XH-west | 2026-09-02 00:45:27 | 51.42337 | 7.88568 | 75° | 33km/h | 19314m | -17m/s | -51.1°C | 0% | 64.9hPa | 2.6V | 08:21:04 | 02:27:53 | 00:00:00 | |
| DF8AY | 2026-09-02 00:45:26 | 51.42334 | 7.88555 | 73° | 33km/h | 19330m | -14.6m/s | -51.2°C | 0% | 64.7hPa | 2.6V | 08:21:04 | 02:27:52 | 00:00:00 | |
| AA1-15 | 2026-09-02 00:45:23 | 51.42327 | 7.88514 | 77° | 38km/h | 19380m | -17.6m/s | -51.4°C | 0.1% | 64.2hPa | 2.5V | 08:21:04 | 02:27:49 | 00:00:00 | |
| DL1XH1-15 | 2026-09-02 00:45:22 | 51.42325 | 7.88498 | 79° | 40km/h | 19396m | -14.6m/s | -51.5°C | 3.6% | 64hPa | 2.6V | 08:20:19 | 02:27:48 | 00:00:00 | |
| BIOWL1-15 | 2026-09-02 00:45:22 | 51.42325 | 7.88498 | 80° | 40km/h | 19396m | -14.6m/s | -51.5°C | 0.1% | 64hPa | 2.6V | 08:21:04 | 02:27:48 | 00:00:00 | |
| GOEST3-10 | 2026-09-02 00:45:21 | 51.42323 | 7.88482 | 83° | 46km/h | 19413m | -18.7m/s | -51.3°C | 3.6% | 63.9hPa | 2.5V | 00:00:00 | 02:27:47 | 00:00:00 | |
| DO1YAY-16 | 2026-09-02 00:45:20 | 51.42322 | 7.88464 | 85° | 44km/h | 19431m | -17.9m/s | -51.2°C | 0.9% | 63.8hPa | 2.5V | 00:00:00 | 00:00:00 | 00:00:00 | |
| AU51GT2 | 2026-09-02 00:45:19 | 51.42322 | 7.88427 | 90° | 44km/h | 19467m | -18.8m/s | -51.0°C | 0.9% | 63.4hPa | 2.5V | 00:00:00 | 00:00:00 | 00:00:00 | |
| DB0NH | 2026-09-02 00:45:18 | 51.42322 | 7.88427 | 91° | 31km/h | 19467m | -18.8m/s | -51.0°C | 3.5% | 63.4hPa | 2.5V | 00:00:00 | 02:27:44 | 00:00:00 | |
| DL1XH1-15 | 2026-09-02 00:45:17 | 51.42328 | 7.88327 | 101° | 37km/h | 19577m | -16.7m/s | -51.2°C | 3.6% | 62.4hPa | 2.5V | 08:20:29 | 02:27:38 | 00:00:00 | |
| DL1XH-west | 2026-09-02 00:45:16 | 51.42322 | 7.88391 | 93° | 44km/h | 19504m | -18.6m/s | -51.2°C | 0.1% | 63hPa | 2.6V | 08:21:04 | 02:27:42 | 00:00:00 | |
| DM0DOS-11 | 2026-09-02 00:45:16 | 51.42326 | 7.88341 | 100° | 38km/h | 19559m | -18.1m/s | -51.2°C | 3.6% | 62.5hPa | 2.5V | 08:20:28 | 02:27:39 | 00:00:00 | |
| AA1-15 | 2026-09-02 00:45:13 | 51.42326 | 7.88341 | 101° | 38km/h | 19559m | -18.2m/s | -51.2°C | 0.2% | 62.5hPa | 2.5V | 08:21:04 | 02:27:39 | 00:00:00 | |
| DD8BA-10 | 2026-09-02 00:45:13 | 51.42326 | 7.88341 | 101° | 27km/h | 19559m | -18.1m/s | -51.2°C | 3.6% | 62.4hPa | 2.5V | 00:00:00 | 00:00:00 | 00:00:00 | |
| DL1NUX | 2026-09-02 00:45:12 | 51.42337 | 7.88271 | 102° | 22km/h | 19662m | -16.1m/s | -50.7°C | 3.4% | 61.5hPa | 2.5V | 08:20:34 | 02:27:33 | 00:00:00 | |
| DJ2DS-15 | 2026-09-02 00:45:12 | 51.42328 | 7.88327 | 102° | 27km/h | 19577m | -16.6m/s | -51.1°C | 3.6% | 62.3hPa | 2.5V | 00:00:00 | 02:27:38 | 00:00:00 | |
| GOEST3-10 | 2026-09-02 00:45:11 | 51.42330 | 7.88313 | 104° | 27km/h | 19594m | -17.4m/s | -51.1°C | 3.5% | 62.1hPa | 2.5V | 00:00:00 | 02:27:37 | 00:00:00 | |
| DO3MHA-11 | 2026-09-02 00:45:10 | 51.42332 | 7.88301 | 107° | 24km/h | 19612m | -17.1m/s | -50.9°C | 3.5% | 61.9hPa | 2.5V | 00:00:00 | 02:27:36 | 00:00:00 | |
| DJ2DS-15 | 2026-09-02 00:45:09 | 51.42334 | 7.88290 | 105° | 26km/h | 19629m | -17.2m/s | -50.8°C | 0.9% | 61.9hPa | 2.5V | 00:00:00 | 00:00:00 | 00:00:00 | |
| DM0DOS-11 | 2026-09-02 00:45:08 | 51.42335 | 7.88228 | 75° | 24km/h | 19747m | -18.9m/s | -51.2°C | 3.5% | 60.7hPa | 2.5V | 08:20:39 | 02:27:28 | 00:00:00 | |
| DL1XH-west | 2026-09-02 00:45:06 | 51.42337 | 7.88262 | 93° | 20km/h | 19678m | -15.3m/s | -50.7°C | 0% | 61.4hPa | 2.6V | 08:21:04 | 02:27:32 | 00:00:00 | |
| DF8AY | 2026-09-02 00:45:05 | 51.42338 | 7.88254 | 88° | 20km/h | 19694m | -17.2m/s | -50.8°C | 0% | 61.2hPa | 2.6V | 08:21:04 | 02:27:31 | 00:00:00 | |
| DL1XH-15 | 2026-09-02 00:45:04 | 51.42335 | 7.88228 | 75° | 24km/h | 19747m | -18.9m/s | -51.2°C | 3.5% | 60.7hPa | 2.5V | 08:20:39 | 02:27:28 | 00:00:00 | |
| AA1-15 | 2026-09-02 00:45:02 | 51.42335 | 7.88228 | 75° | 24km/h | 19747m | -18.9m/s | -51.2°C | 0.1% | 60.7hPa | 2.5V | 08:21:04 | 02:27:28 | 00:00:00 | |
| DL1NUX | 2026-09-02 00:45:02 | 51.42324 | 7.88174 | 68° | 31km/h | 19840m | -14m/s | -51.3°C | 3.6% | 59.9hPa | 2.5V | 08:20:44 | 02:27:23 | 00:00:00 | |
| DF7PN | 2026-09-02 00:45:01 | 51.42333 | 7.88219 | 72° | 26km/h | 19767m | -19.6m/s | -51.2°C | 0.9% | 60.6hPa | 2.5V | 00:00:00 | 00:00:00 | 00:00:00 | |
| DL3AQ-11 | 2026-09-02 00:44:59 | 51.42327 | 7.88186 | 69° | 29km/h | 19824m | -17.0m/s | -51.3°C | 0.9% | 60.0hPa | 2.5V | 00:00:00 | 00:00:00 | 00:00:00 | |
| EDDB2-11 | 2026-09-02 00:44:57 | 51.42321 | 7.88163 | 67° | 31km/h | 19854m | -13.8m/s | -51.2°C | 0.9% | 59.7hPa | 2.5V | 00:00:00 | 00:00:00 | 00:00:00 | |
| DJ8HS-15 | 2026-09-02 00:44:56 | 51.42321 | 7.88163 | 68° | 18km/h | 19854m | -13.7m/s | -51.2°C | 3.6% | 59.6hPa | 2.5V | 00:00:00 | 02:27:22 | 00:00:00 | |
| DM0DOS-11 | 2026-09-02 00:44:55 | 51.42311 | 7.88129 | 63° | 29km/h | 19904m | -18.3m/s | -51.4°C | 3.6% | 59.3hPa | 2.5V | 08:20:48 | 02:27:19 | 00:00:00 | |
| DL1XH-west | 2026-09-02 00:44:55 | 51.42318 | 7.88151 | 66° | 31km/h | 19869m | -16.4m/s | -51.3°C | 0.1% | 59.6hPa | 2.6V | 08:21:04 | 02:27:21 | 00:00:00 | |
| DF8AY | 2026-09-02 00:44:54 | 51.42315 | 7.88140 | 65° | 29km/h | 19886m | -18.1m/s | -51.3°C | 0.1% | 59.4hPa | 2.6V | 08:21:04 | 02:27:20 | 00:00:00 | |
| WPPR-10 | 2026-09-02 00:44:54 | 51.42315 | 7.88140 | 64° | 29km/h | 19886m | -18.1m/s | -51.3°C | 0.9% | 59.4hPa | 2.4V | 00:00:00 | 00:00:00 | 00:00:00 | |
| DL1XH1-15 | 2026-09-02 00:44:53 | 51.42308 | 7.88119 | 62° | 27km/h | 19922m | -17.1m/s | -51.4°C | 3.6% | 59.1hPa | 2.4V | 08:20:49 | 02:27:18 | 00:00:00 | |
| AA1-15 | 2026-09-02 00:44:51 | 51.42305 | 7.88110 | 61° | 26km/h | 19939m | -17.6m/s | -51.2°C | 0.1% | 58.9hPa | 2.5V | 08:21:04 | 02:27:17 | 00:00:00 | |
| DJ2KF-10 | 2026-09-02 00:44:49 | 51.42299 | 7.88093 | 64° | 15km/h | 19973m | -15.3m/s | -50.9°C | 3.4% | 58.6hPa | 2.6V | 00:00:00 | 02:27:15 | 00:00:00 | |
| DM0DOS-11 | 2026-09-02 00:44:48 | 51.42292 | 7.88055 | 89° | 13km/h | 20081m | -24.1m/s | -50.9°C | 3.4% | 57.8hPa | 2.6V | 08:20:58 | 02:27:09 | 00:00:00 | |
| AU51GT2 | 2026-09-02 00:44:48 | 51.42295 | 7.88078 | 69° | 16km/h | 20006m | -17.5m/s | -50.9°C | 0.9% | 58.4hPa | 2.5V | 00:00:00 | 00:00:00 | 00:00:00 | |
| SONCRA | 2026-09-02 00:44:47 | 51.42294 | 7.88072 | 77° | 15km/h | 20024m | -17.5m/s | -51.0°C | 0.9% | 58.2hPa | 2.5V | 00:00:00 | 00:00:00 | 00:00:00 | |
| BIOWL9-15 | 2026-09-02 00:44:46 | 51.42293 | 7.88066 | 82° | 13km/h | 20041m | -16.5m/s | -51.0°C | 0.8% | 58.0hPa | 2.5V | 00:00:00 | 00:00:00 | 00:00:00 | |
| BIOWL1-15 | 2026-09-02 00:44:45 | 51.42293 | 7.88036 | 90° | 11km/h | 20158m | -17.4m/s | -50.8°C | 0% | 57hPa | 2.5V | 08:21:04 | 02:27:05 | 00:00:00 | |
| DL1XH-west | 2026-09-02 00:44:44 | 51.42293 | 7.88061 | 86° | 13km/h | 20059m | -19.5m/s | -50.9°C | 0% | 57.9hPa | 2.6V | 08:21:04 | 02:27:10 | 00:00:00 | |
| DL1XH-15 | 2026-09-02 00:44:44 | 51.42293 | 7.88050 | 94° | 13km/h | 20103m | -20.6m/s | -50.9°C | 3.3% | 57.6hPa | 2.6V | 08:20:59 | 02:27:08 | 00:00:00 | |
| DF8AY | 2026-09-02 00:44:43 | 51.42293 | 7.88055 | 90° | 13km/h | 20081m | -24.1m/s | -50.9°C | 0% | 57.8hPa | 2.6V | 08:21:04 | 02:27:09 | 00:00:00 | |
| DO3DL | 2026-09-02 00:44:43 | 51.42292 | 7.88055 | 91° | 13km/h | 20081m | -24.1m/s | -50.9°C | 0.9% | 57.8hPa | 2.6V | 08:21:00 | 00:00:00 | 00:00:00 | |
| DL1NUX | 2026-09-02 00:44:42 | 51.42293 | 7.88028 | 83° | 11km/h | 20192m | -16.3m/s | -51°C | 3.4% | 56.7hPa | 2.6V | 08:21:04 | 02:27:03 | 00:00:00 | |
| AA1-15 | 2026-09-02 00:44:40 | 51.42293 | 7.88041 | 90° | 13km/h | 20141m | -17.4m/s | -50.7°C | 0% | 57.2hPa | 2.5V | 08:21:04 | 02:27:06 | 00:00:00 | |
| DL1XH-west | 2026-09-02 00:44:34 | 51.42292 | 7.88013 | 81° | 13km/h | 20238m | -16.1m/s | -51°C | 0% | 56.3hPa | 2.5V | 08:21:55 | 02:27:00 | 00:00:00 | |
| HSKMA3-T | 2026-09-02 00:44:33 | 51.42291 | 7.88008 | 80° | 11km/h | 20255m | -16.1m/s | -51°C | 0% | 56.2hPa | 2.5V | 08:21:55 | 02:26:59 | 00:00:00 | |
| DL1XH1-15 | 2026-09-02 00:44:33 | 51.42290 | 7.88004 | 66° | 11km/h | 20271m | -16.1m/s | -51.1°C | 3.3% | 56hPa | 2.6V | 08:21:09 | 02:26:58 | 00:00:00 | |
| DD8BA-10 | 2026-09-02 00:44:33 | 51.42291 | 7.88008 | 80° | 13km/h | 20255m | -16.0m/s | -51.0°C | 3.3% | 56.1hPa | 2.5V | 08:21:00 | 00:00:00 | 00:00:00 | |
| DL1NUX | 2026-09-02 00:44:32 | 51.42281 | 7.87988 | 38° | 13km/h | 20356m | -17.3m/s | -51.9°C | 3.5% | 55.3hPa | 2.5V | 08:21:14 | 02:26:53 | 00:00:00 | |
| DF8AY | 2026-09-02 00:44:32 | 51.42290 | 7.88004 | 67° | 11km/h | 20271m | -16.1m/s | -51.2°C | 0% | 56hPa | 2.6V | 08:21:55 | 02:26:58 | 00:00:00 | |
| AA1-15 | 2026-09-02 00:44:29 | 51.42286 | 7.87994 | 41° | 11km/h | 20320m | -17.1m/s | -51.6°C | 0% | 55.6hPa | 2.5V | 08:21:55 | 02:26:55 | 00:00:00 | |
| BIOWL1-15 | 2026-09-02 00:44:28 | 51.42279 | 7.87985 | 39° | 15km/h | 20375m | -19.2m/s | -52°C | 0.1% | 55.2hPa | 2.6V | 08:21:55 | 02:26:52 | 00:00:00 | |
| DL1XH-west | 2026-09-02 00:44:24 | 51.42273 | 7.87976 | 46° | 16km/h | 20411m | -16.9m/s | -52.4°C | 0.2% | 54.8hPa | 2.6V | 08:21:55 | 02:26:50 | 00:00:00 | |
| HSKMA3-T | 2026-09-02 00:44:23 | 51.42270 | 7.87971 | 52° | 18km/h | 20427m | -14.9m/s | -52.5°C | 0.2% | 54.6hPa | 2.5V | 08:21:55 | 02:26:49 | 00:00:00 | |
| DD8BA-10 | 2026-09-02 00:44:23 | 51.42270 | 7.87971 | 53° | 26km/h | 20427m | -14.9m/s | -52.5°C | 3.8% | 54.6hPa | 2.5V | 00:00:00 | 00:00:00 | 00:00:00 | |
| DL1NUX | 2026-09-02 00:44:22 | 51.42257 | 7.87917 | 78° | 29km/h | 20519m | -16m/s | -52.8°C | 3.8% | 53.9hPa | 2.5V | 08:21:24 | 02:26:43 | 00:00:00 | |
| DF8AY | 2026-09-02 00:44:21 | 51.42265 | 7.87958 | 64° | 22km/h | 20455m | -15.4m/s | -52.7°C | 0.2% | 54.4hPa | 2.5V | 08:21:55 | 02:26:47 | 00:00:00 | |
| AA1-15 | 2026-09-02 00:44:19 | 51.42260 | 7.87939 | 70° | 27km/h | 20488m | -16.4m/s | -52.7°C | 0.3% | 54.2hPa | 2.6V | 08:21:55 | 02:26:45 | 00:00:00 | |
| BIOWL1-15 | 2026-09-02 00:44:18 | 51.42258 | 7.87928 | 74° | 27km/h | 20504m | -15.5m/s | -52.7°C | 0.3% | 54hPa | 2.6V | 08:21:55 | 02:26:44 | 00:00:00 | |
| DB0NH | 2026-09-02 00:44:18 | 51.42258 | 7.87928 | 74° | 22km/h | 20504m | -15.5m/s | -52.7°C | 3.8% | 54.0hPa | 2.6V | 08:21:00 | 02:26:44 | 00:00:00 | |
| AU51GT2 | 2026-09-02 00:44:17 | 51.42255 | 7.87906 | 76° | 29km/h | 20537m | -18.0m/s | -52.8°C | 0.9% | 53.8hPa | 2.6V | 00:00:00 | 00:00:00 | 00:00:00 | |
| DJ8HS-15 | 2026-09-02 00:44:16 | 51.42255 | 7.87906 | 77° | 22km/h | 20537m | -18.0m/s | -52.8°C | 3.8% | 53.7hPa | 2.6V | 00:00:00 | 02:26:42 | 00:00:00 | |
| DM0DOS-11 | 2026-09-02 00:44:15 | 51.42250 | 7.87870 | 77° | 31km/h | 20582m | -14.9m/s | -52.8°C | 3.8% | 53.4hPa | 2.6V | 08:21:28 | 02:26:39 | 00:00:00 | |
| DL1XH-west | 2026-09-02 00:44:13 | 51.42250 | 7.87870 | 77° | 31km/h | 20582m | -14.9m/s | -52.8°C | 0.3% | 53.4hPa | 2.6V | 08:21:55 | 02:26:39 | 00:00:00 | |
| DF8AY | 2026-09-02 00:44:11 | 51.42248 | 7.87847 | 86° | 27km/h | 20618m | -20.8m/s | -52.6°C | 0.2% | 53.1hPa | 2.5V | 08:21:55 | 02:26:37 | 00:00:00 | |
| DO2JMG | 2026-09-02 00:44:09 | 51.42248 | 7.87827 | 93° | 24km/h | 20657m | -18.1m/s | 0°C | 0% | 0hPa | 2.5V | 08:21:55 | 02:26:35 | 00:00:00 | |
| BIOWL1-15 | 2026-09-02 00:44:08 | 51.42249 | 7.87809 | 99° | 22km/h | 20691m | -16.6m/s | -52.2°C | 0.2% | 52.5hPa | 2.6V | 08:21:55 | 02:26:33 | 00:00:00 | |
| AA1-15 | 2026-09-02 00:44:08 | 51.42248 | 7.87817 | 94° | 22km/h | 20674m | -17.1m/s | -52.2°C | 0.1% | 52.6hPa | 2.6V | 08:21:55 | 02:26:34 | 00:00:00 | |
| DL1XH-west | 2026-09-02 00:44:03 | 51.42251 | 7.87778 | 93° | 16km/h | 20753m | -16.5m/s | -52.4°C | 0.2% | 52hPa | 2.5V | 08:21:55 | 02:26:29 | 00:00:00 | |
| DF8AY | 2026-09-02 00:44:00 | 51.42248 | 7.87761 | 61° | 18km/h | 20810m | -19.5m/s | -52.6°C | 0.2% | 51.5hPa | 2.6V | 08:21:55 | 02:26:26 | 00:00:00 | |
| DO2JMG | 2026-09-02 00:43:59 | 51.42246 | 7.87754 | 57° | 18km/h | 20829m | -20.3m/s | 0°C | 0% | 0hPa | 2.5V | 08:21:55 | 02:26:25 | 00:00:00 | |
| BIOWL1-15 | 2026-09-02 00:43:58 | 51.42237 | 7.87735 | 53° | 20km/h | 20893m | -21.3m/s | -53.2°C | 0.3% | 50.9hPa | 2.6V | 08:21:55 | 02:26:22 | 00:00:00 | |
| AA1-15 | 2026-09-02 00:43:57 | 51.42240 | 7.87742 | 52° | 20km/h | 20872m | -21.7m/s | -53.1°C | 0.3% | 51.1hPa | 2.5V | 08:21:55 | 02:26:23 | 00:00:00 | |
| DD1CC1-15 | 2026-09-02 00:43:57 | 51.42240 | 7.87742 | 53° | 20km/h | 20872m | -21.7m/s | -53.1°C | 0.9% | 51.1hPa | 2.5V | 08:21:00 | 00:00:00 | 00:00:00 | |
| DJ8HS-15 | 2026-09-02 00:43:56 | 51.42236 | 7.87735 | 53° | 18km/h | 20894m | -21.3m/s | -53.1°C | 3.9% | 50.9hPa | 2.5V | 00:00:00 | 02:26:22 | 00:00:00 | |
| DO3DL | 2026-09-02 00:43:55 | 51.42237 | 7.87735 | 54° | 20km/h | 20894m | -21.3m/s | -53.2°C | 1.0% | 50.9hPa | 2.5V | 08:21:00 | 00:00:00 | 00:00:00 | |
| DM0DOS-11 | 2026-09-02 00:43:54 | 51.42229 | 7.87716 | 63° | 16km/h | 20955m | -18.6m/s | -53.4°C | 4% | 50.4hPa | 2.5V | 08:21:48 | 02:26:19 | 00:00:00 | |
| HSKMA3-T | 2026-09-02 00:43:52 | 51.42227 | 7.87709 | 71° | 16km/h | 20973m | -18.2m/s | -53.4°C | 0.4% | 50.2hPa | 2.5V | 08:21:55 | 02:26:18 | 00:00:00 | |
| DF8AY | 2026-09-02 00:43:50 | 51.42225 | 7.87697 | 89° | 15km/h | 21008m | -19.8m/s | -53.3°C | 0.4% | 50hPa | 2.6V | 08:21:55 | 02:26:16 | 00:00:00 | |
| DO3DL | 2026-09-02 00:43:49 | 51.42225 | 7.87691 | 96° | 15km/h | 21028m | -19.3m/s | -53.3°C | 1.0% | 49.9hPa | 2.6V | 08:21:00 | 00:00:00 | 00:00:00 | |
| DO2JMG | 2026-09-02 00:43:49 | 51.42226 | 7.87686 | 98° | 15km/h | 21047m | -20.2m/s | 0°C | 0% | 0hPa | 2.5V | 08:21:55 | 02:26:14 | 00:00:00 | |
| DM0DOS-11 | 2026-09-02 00:43:48 | 51.42224 | 7.87658 | 55° | 16km/h | 21136m | -19.1m/s | -53.3°C | 3.9% | 49hPa | 2.6V | 08:21:58 | 02:26:09 | 00:00:00 | |
| AA1-15 | 2026-09-02 00:43:47 | 51.42226 | 7.87680 | 92° | 13km/h | 21066m | -17.8m/s | -53.4°C | 0.3% | 49.5hPa | 2.5V | 08:21:55 | 02:26:13 | 00:00:00 | |
| BIOWL1-15 | 2026-09-02 00:43:46 | 51.42226 | 7.87675 | 93° | 15km/h | 21084m | -17.5m/s | -53.4°C | 0.4% | 49.4hPa | 2.5V | 08:21:55 | 02:26:12 | 00:00:00 | |
| AU51GT2 | 2026-09-02 00:43:46 | 51.42226 | 7.87669 | 84° | 13km/h | 21101m | -16.6m/s | -53.3°C | 1.0% | 49.2hPa | 2.5V | 00:00:00 | 00:00:00 | 00:00:00 | |
| DL1XH-15 | 2026-09-02 00:43:44 | 51.42221 | 7.87652 | 49° | 18km/h | 21155m | -17.5m/s | -53.3°C | 3.9% | 48.9hPa | 2.5V | 08:21:59 | 02:26:08 | 00:00:00 | |
| DL1XH-west | 2026-09-02 00:43:42 | 51.42221 | 7.87652 | 50° | 18km/h | 21155m | -17.5m/s | -53.3°C | 0.3% | 48.9hPa | 2.5V | 08:22:46 | 02:26:08 | 00:00:00 | |
| HSKMA3-T | 2026-09-02 00:43:41 | 51.42218 | 7.87646 | 44° | 20km/h | 21173m | -18.1m/s | -53.3°C | 0.3% | 48.7hPa | 2.5V | 08:22:46 | 02:26:07 | 00:00:00 | |
| GOEST3-10 | 2026-09-02 00:43:41 | 51.42218 | 7.87646 | 45° | 24km/h | 21173m | -18.1m/s | -53.2°C | 3.9% | 48.7hPa | 2.6V | 00:00:00 | 02:26:07 | 00:00:00 | |
| DF8AY | 2026-09-02 00:43:39 | 51.42158 | 7.87531 | 70° | 18km/h | 21480m | -19.1m/s | -53.3°C | 0.4% | 46.4hPa | 2.6V | 08:22:46 | 02:25:49 | 00:00:00 | |
| DO2JMG | 2026-09-02 00:43:37 | 51.42200 | 7.87621 | 39° | 24km/h | 21248m | -18.3m/s | 0°C | 0% | 0hPa | 2.6V | 18:12:15 | 02:26:03 | 00:00:00 | |
| AA1-15 | 2026-09-02 00:43:36 | 51.42195 | 7.87615 | 39° | 24km/h | 21266m | -16.7m/s | -53.5°C | 0.3% | 48hPa | 2.5V | 08:22:46 | 02:26:02 | 00:00:00 | |
| BIOWL1-15 | 2026-09-02 00:43:35 | 51.42171 | 7.87579 | 56° | 20km/h | 21364m | -16.2m/s | -53.3°C | 0.4% | 47.3hPa | 2.5V | 08:22:46 | 02:25:56 | 00:00:00 | |
| DM0DOS-11 | 2026-09-02 00:43:34 | 51.42182 | 7.87598 | 40° | 22km/h | 21313m | -16.2m/s | -53.6°C | 4.1% | 47.6hPa | 2.6V | 08:22:08 | 02:25:59 | 00:00:00 | |
| DL1NUX | 2026-09-02 00:43:33 | 51.42164 | 7.87559 | 67° | 20km/h | 21413m | -16.8m/s | -53.5°C | 4.1% | 46.9hPa | 2.6V | 08:22:14 | 02:25:53 | 00:00:00 | |
| DL1XH1-15 | 2026-09-02 00:43:32 | 51.42178 | 7.87592 | 46° | 22km/h | 21330m | -17.9m/s | -53.5°C | 4.1% | 47.5hPa | 2.6V | 08:22:09 | 02:25:58 | 00:00:00 | |
| DL1XH-west | 2026-09-02 00:43:32 | 51.42178 | 7.87592 | 46° | 22km/h | 21330m | -17.9m/s | -53.5°C | 0.5% | 47.5hPa | 2.6V | 08:22:46 | 02:25:58 | 00:00:00 | |
| HSKMA3-T | 2026-09-02 00:43:31 | 51.42174 | 7.87586 | 50° | 20km/h | 21348m | -17.3m/s | -53.4°C | 0.4% | 47.4hPa | 2.5V | 08:22:46 | 02:25:57 | 00:00:00 | |
| WEDDY | 2026-09-02 00:43:31 | 51.42174 | 7.87586 | 51° | 20km/h | 21348m | -17.3m/s | -53.4°C | 1.0% | 47.4hPa | 2.6V | 08:22:00 | 00:00:00 | 00:00:00 | |
| BUE01 | 2026-09-02 00:43:29 | 51.42168 | 7.87573 | 57° | 18km/h | 21380m | -14.9m/s | -53.3°C | 1.0% | 47.1hPa | 2.6V | 00:00:00 | 00:00:00 | 00:00:00 | |
| DM0DOS-11 | 2026-09-02 00:43:28 | 51.42158 | 7.87531 | 69° | 18km/h | 21480m | -19.1m/s | -53.3°C | 4% | 46.4hPa | 2.6V | 08:22:18 | 02:25:49 | 00:00:00 | |
| DO2JMG | 2026-09-02 00:43:26 | 51.42162 | 7.87552 | 69° | 18km/h | 21429m | -14.6m/s | 0°C | 0% | 0hPa | 2.5V | 18:12:15 | 02:25:52 | 00:00:00 | |
| AA1-15 | 2026-09-02 00:43:25 | 51.42161 | 7.87545 | 71° | 18km/h | 21445m | -16.4m/s | -53.6°C | 0.4% | 46.6hPa | 2.5V | 08:22:46 | 02:25:51 | 00:00:00 | |
| DL1XH1-15 | 2026-09-02 00:43:22 | 51.42156 | 7.87524 | 67° | 18km/h | 21501m | -23.2m/s | -53°C | 3.8% | 46.3hPa | 2.6V | 08:22:19 | 02:25:48 | 00:00:00 | |
| DL1XH-west | 2026-09-02 00:43:22 | 51.42156 | 7.87524 | 67° | 18km/h | 21501m | -23.2m/s | -53°C | 0.3% | 46.3hPa | 2.6V | 08:22:46 | 02:25:48 | 00:00:00 | |
| HSKMA3-T | 2026-09-02 00:43:20 | 51.42152 | 7.87510 | 63° | 20km/h | 21544m | -19m/s | -52.9°C | 0.3% | 46hPa | 2.5V | 08:22:46 | 02:25:46 | 00:00:00 | |
| BIOWL1-15 | 2026-09-02 00:43:20 | 51.42149 | 7.87502 | 59° | 20km/h | 21562m | -18.3m/s | -52.9°C | 0.3% | 45.9hPa | 2.5V | 08:22:46 | 02:25:45 | 00:00:00 | |
| DJ2KF-10 | 2026-09-02 00:43:19 | 51.42149 | 7.87502 | 59° | 16km/h | 21562m | -18.3m/s | -52.8°C | 3.8% | 45.8hPa | 2.5V | 08:22:00 | 02:25:45 | 00:00:00 | |
| DB0NH | 2026-09-02 00:43:18 | 51.42147 | 7.87495 | 58° | 22km/h | 21580m | -17.2m/s | -52.9°C | 3.8% | 45.6hPa | 2.6V | 00:00:00 | 02:25:44 | 00:00:00 | |
| DL1XH-15 | 2026-09-02 00:43:17 | 51.42127 | 7.87454 | 50° | 20km/h | 21654m | -11.6m/s | -53°C | 3.8% | 45.1hPa | 2.6V | 08:22:29 | 02:25:38 | 00:00:00 | |
| DF8AY | 2026-09-02 00:43:15 | 51.42137 | 7.87474 | 52° | 22km/h | 21620m | -11.3m/s | -53°C | 0.3% | 45.4hPa | 2.5V | 08:22:46 | 02:25:41 | 00:00:00 | |
| DM0DOS-11 | 2026-09-02 00:43:15 | 51.42131 | 7.87461 | 50° | 22km/h | 21643m | -11.5m/s | -53°C | 3.8% | 45.2hPa | 2.5V | 08:22:28 | 02:25:39 | 00:00:00 | |
| AA1-15 | 2026-09-02 00:43:14 | 51.42134 | 7.87468 | 52° | 22km/h | 21631m | -11.7m/s | -53°C | 0.3% | 45.3hPa | 2.5V | 08:22:46 | 02:25:40 | 00:00:00 | |
| DL1XH-west | 2026-09-02 00:43:11 | 51.42124 | 7.87448 | 53° | 20km/h | 21666m | -11.3m/s | -52.9°C | 0.3% | 45hPa | 2.6V | 08:22:46 | 02:25:37 | 00:00:00 | |
| HSKMA3-T | 2026-09-02 00:43:10 | 51.42121 | 7.87442 | 54° | 18km/h | 21677m | -11.7m/s | -52.8°C | 0.2% | 45hPa | 2.6V | 08:22:46 | 02:25:36 | 00:00:00 | |
| BIOWL1-15 | 2026-09-02 00:43:09 | 51.42113 | 7.87392 | 90° | 15km/h | 21771m | -11.4m/s | -52.8°C | 0.4% | 44.3hPa | 2.5V | 08:22:46 | 02:25:28 | 00:00:00 | |
| DM0DOS-11 | 2026-09-02 00:43:08 | 51.42113 | 7.87398 | 88° | 15km/h | 21759m | -11.8m/s | -52.7°C | 3.9% | 44.4hPa | 2.5V | 08:22:38 | 02:25:29 | 00:00:00 | |
| DL4XJ-10 | 2026-09-02 00:43:08 | 51.42116 | 7.87430 | 65° | 15km/h | 21701m | -11.8m/s | -52.3°C | 0% | 0hPa | 2.5V | 00:00:00 | 00:00:00 | 00:00:00 | |
| DO3DL | 2026-09-02 00:43:07 | 51.42117 | 7.87430 | 66° | 16km/h | 21701m | -11.9m/s | -52.8°C | 0.9% | 44.8hPa | 2.5V | 08:22:00 | 00:00:00 | 00:00:00 | |
| GOEST3-10 | 2026-09-02 00:43:06 | 51.42114 | 7.87417 | 78° | 16km/h | 21725m | -12.2m/s | -52.7°C | 3.9% | 44.6hPa | 2.5V | 00:00:00 | 00:00:00 | 00:00:00 | |
| DL1XH-15 | 2026-09-02 00:43:04 | 51.42113 | 7.87392 | 89° | 15km/h | 21771m | -11.4m/s | -52.8°C | 4% | 44.3hPa | 2.5V | 08:22:39 | 02:25:28 | 00:00:00 | |
| DF8AY | 2026-09-02 00:43:04 | 51.42113 | 7.87404 | 87° | 16km/h | 21748m | -11.3m/s | -52.7°C | 0.3% | 44.5hPa | 2.6V | 08:22:46 | 02:25:30 | 00:00:00 | |
| DD8BA-10 | 2026-09-02 00:43:03 | 51.42112 | 7.87398 | 89° | 15km/h | 21760m | -11.7m/s | -52.6°C | 3.9% | 44.3hPa | 2.5V | 08:22:00 | 00:00:00 | 00:00:00 | |
| DL1NUX | 2026-09-02 00:43:02 | 51.42110 | 7.87364 | 76° | 15km/h | 21826m | -14.2m/s | -53°C | 4% | 43.9hPa | 2.5V | 08:22:44 | 02:25:23 | 00:00:00 | |
| DL1XH-west | 2026-09-02 00:43:00 | 51.42112 | 7.87380 | 83° | 13km/h | 21792m | -10.5m/s | -52.9°C | 0.4% | 44.1hPa | 2.6V | 08:22:46 | 02:25:26 | 00:00:00 | |
| BIOWL1-15 | 2026-09-02 00:42:53 | 51.42105 | 7.87337 | 71° | 15km/h | 21922m | -22.1m/s | -52.8°C | 0.3% | 43.4hPa | 2.5V | 08:23:37 | 02:25:18 | 00:00:00 | |
| DF8AY | 2026-09-02 00:42:53 | 51.42106 | 7.87342 | 74° | 15km/h | 21900m | -20.9m/s | -52.7°C | 0.3% | 43.5hPa | 2.5V | 08:23:37 | 02:25:19 | 00:00:00 | |
| DL1XH1-15 | 2026-09-02 00:42:52 | 51.42105 | 7.87337 | 70° | 15km/h | 21922m | -22.1m/s | -52.8°C | 3.9% | 43.4hPa | 2.5V | 08:22:49 | 02:25:18 | 00:00:00 | |
| HSKMA3-T | 2026-09-02 00:42:50 | 51.42102 | 7.87325 | 71° | 16km/h | 21964m | -18.2m/s | -52.7°C | 0.4% | 43hPa | 2.6V | 08:23:37 | 02:25:16 | 00:00:00 | |
| DL1XH-west | 2026-09-02 00:42:49 | 51.42101 | 7.87319 | 70° | 16km/h | 21983m | -20.6m/s | -52.7°C | 0.3% | 43hPa | 2.6V | 08:23:37 | 02:25:15 | 00:00:00 | |
| DL3AQ-11 | 2026-09-02 00:42:48 | 51.42098 | 7.87305 | 69° | 20km/h | 22021m | -19.9m/s | -52.8°C | 1.0% | 42.7hPa | 2.5V | 00:00:00 | 00:00:00 | 00:00:00 | |
| AA1-15 | 2026-09-02 00:42:43 | 51.42089 | 7.87267 | 70° | 29km/h | 22096m | -16.7m/s | -52.2°C | 0.3% | 42.2hPa | 2.5V | 08:23:37 | 02:25:09 | 00:00:00 | |
| HSKMA3-T | 2026-09-02 00:42:39 | 51.42081 | 7.87217 | 81° | 35km/h | 22164m | -15.3m/s | -52.2°C | 0.4% | 41.7hPa | 2.6V | 08:23:37 | 02:25:05 | 00:00:00 | |
| DL1XH-west | 2026-09-02 00:42:38 | 51.42080 | 7.87203 | 84° | 35km/h | 22179m | -14.5m/s | -52.2°C | 0.3% | 41.6hPa | 2.5V | 08:23:37 | 02:25:04 | 00:00:00 | |
| DL8DAS-14 | 2026-09-02 00:42:37 | 51.42079 | 7.87190 | 87° | 29km/h | 22196m | -18.2m/s | -52.0°C | 0.9% | 41.6hPa | 2.5V | 00:00:00 | 00:00:00 | 00:00:00 | |
| DM0DOS-11 | 2026-09-02 00:42:36 | 51.42082 | 7.87147 | 109° | 24km/h | 22268m | -17.4m/s | -51.9°C | 3.8% | 41.1hPa | 2.5V | 08:23:08 | 02:24:59 | 00:00:00 | |
| BIOWL1-15 | 2026-09-02 00:42:34 | 51.42092 | 7.87126 | 142° | 22km/h | 22329m | -19.2m/s | -51.3°C | 0.2% | 40.7hPa | 2.6V | 08:23:37 | 02:24:56 | 00:00:00 | |
| DF8AY | 2026-09-02 00:42:33 | 51.42082 | 7.87147 | 110° | 24km/h | 22268m | -17.4m/s | -51.9°C | 0.3% | 41.1hPa | 2.5V | 08:23:37 | 02:24:59 | 00:00:00 | |
| AA1-15 | 2026-09-02 00:42:32 | 51.42085 | 7.87139 | 121° | 22km/h | 22287m | -21.1m/s | -51.6°C | 0.2% | 41hPa | 2.5V | 08:23:37 | 02:24:58 | 00:00:00 | |
| DL1NUX | 2026-09-02 00:42:32 | 51.42106 | 7.87114 | 164° | 20km/h | 22386m | -17.5m/s | -51.2°C | 3.5% | 40.3hPa | 2.5V | 08:23:14 | 02:24:53 | 00:00:00 | |
| HSKMA3-T | 2026-09-02 00:42:28 | 51.42101 | 7.87117 | 157° | 22km/h | 22367m | -18.8m/s | -51.2°C | 0.1% | 40.5hPa | 2.5V | 08:23:37 | 02:24:54 | 00:00:00 | |
| DL1XH-west | 2026-09-02 00:42:27 | 51.42106 | 7.87114 | 165° | 20km/h | 22386m | -17.5m/s | -51.2°C | 0.1% | 40.3hPa | 2.5V | 08:23:37 | 02:24:53 | 00:00:00 | |
| BUE01 | 2026-09-02 00:42:27 | 51.42111 | 7.87113 | 173° | 18km/h | 22404m | -18.0m/s | -51.2°C | 0.8% | 40.2hPa | 2.5V | 00:00:00 | 00:00:00 | 00:00:00 | |
| GOEST3-10 | 2026-09-02 00:42:26 | 51.42111 | 7.87112 | 174° | 15km/h | 22404m | -17.9m/s | -51.2°C | 3.5% | 40.2hPa | 2.5V | 00:00:00 | 00:00:00 | 00:00:00 | |
| DF7PN | 2026-09-02 00:42:25 | 51.42116 | 7.87112 | 181° | 16km/h | 22422m | -18.7m/s | -51.3°C | 0.8% | 40.1hPa | 2.5V | 00:00:00 | 00:00:00 | 00:00:00 | |
| DD1CC1-15 | 2026-09-02 00:42:24 | 51.42119 | 7.87113 | 190° | 15km/h | 22440m | -17.6m/s | -51.4°C | 0.8% | 40.0hPa | 2.5V | 08:23:00 | 00:00:00 | 00:00:00 | |
| SO1NDE-10 | 2026-09-02 00:42:23 | 51.42123 | 7.87114 | 195° | 9km/h | 22458m | -18.7m/s | -51.4°C | 3.6% | 39.8hPa | 2.5V | 00:00:00 | 02:24:49 | 00:00:00 | |
| DL1NUX | 2026-09-02 00:42:22 | 51.42132 | 7.87128 | 273° | 7km/h | 22579m | -18m/s | -51°C | 3.4% | 39.1hPa | 2.5V | 08:23:24 | 02:24:43 | 00:00:00 | |
| BIOWL1-15 | 2026-09-02 00:42:22 | 51.42126 | 7.87116 | 207° | 11km/h | 22478m | -21.1m/s | -51.5°C | 0.1% | 39.8hPa | 2.5V | 08:23:37 | 02:24:48 | 00:00:00 | |
| AA1-15 | 2026-09-02 00:42:21 | 51.42128 | 7.87118 | 217° | 9km/h | 22499m | -22.4m/s | -51.5°C | 0.2% | 39.7hPa | 2.5V | 08:23:37 | 02:24:47 | 00:00:00 | |
| GOEST3-10 | 2026-09-02 00:42:21 | 51.42128 | 7.87118 | 217° | 7km/h | 22500m | -22.3m/s | -51.5°C | 3.6% | 39.6hPa | 2.5V | 00:00:00 | 02:24:47 | 00:00:00 | |
| DO3DL | 2026-09-02 00:42:20 | 51.42128 | 7.87118 | 218° | 9km/h | 22500m | -22.4m/s | -51.5°C | 0.9% | 39.7hPa | 2.5V | 08:23:00 | 00:00:00 | 00:00:00 | |
| DJ2KF-10 | 2026-09-02 00:42:19 | 51.42131 | 7.87123 | 245° | 7km/h | 22541m | -19.4m/s | -51.3°C | 3.5% | 39.3hPa | 2.5V | 00:00:00 | 02:24:45 | 00:00:00 | |
| DM0DOS-11 | 2026-09-02 00:42:18 | 51.42129 | 7.87142 | 288° | 11km/h | 22656m | -19.7m/s | -51.4°C | 3.6% | 38.7hPa | 2.5V | 08:23:28 | 02:24:39 | 00:00:00 | |
| DL1XH-west | 2026-09-02 00:42:17 | 51.42132 | 7.87128 | 274° | 7km/h | 22579m | -18m/s | -51°C | 0.1% | 39.2hPa | 2.5V | 08:23:37 | 02:24:43 | 00:00:00 | |
| DL1XH1-15 | 2026-09-02 00:42:17 | 51.42128 | 7.87146 | 292° | 11km/h | 22675m | -18.3m/s | -51.5°C | 3.6% | 38.6hPa | 2.5V | 08:23:29 | 02:24:38 | 00:00:00 | |
| DJ8HS-15 | 2026-09-02 00:42:16 | 51.42131 | 7.87131 | 283° | 9km/h | 22598m | -19.8m/s | -51.0°C | 3.4% | 39.0hPa | 2.5V | 00:00:00 | 02:24:42 | 00:00:00 | |
| DO1YAY-16 | 2026-09-02 00:42:14 | 51.42129 | 7.87142 | 288° | 9km/h | 22656m | -19.7m/s | -51.4°C | 0.9% | 38.7hPa | 2.5V | 00:00:00 | 00:00:00 | 00:00:00 | |
| DD8BA-10 | 2026-09-02 00:42:13 | 51.42129 | 7.87142 | 289° | 9km/h | 22656m | -19.6m/s | -51.3°C | 3.6% | 38.6hPa | 2.5V | 00:00:00 | 00:00:00 | 00:00:00 | |
| DL1NUX | 2026-09-02 00:42:12 | 51.42121 | 7.87163 | 339° | 9km/h | 22758m | -19.9m/s | -51.5°C | 3.6% | 38.1hPa | 2.5V | 08:23:34 | 02:24:33 | 00:00:00 | |
| BIOWL1-15 | 2026-09-02 00:42:11 | 51.42123 | 7.87161 | 318° | 9km/h | 22740m | -15.8m/s | -51.6°C | 0.2% | 38.2hPa | 2.5V | 08:23:37 | 02:24:34 | 00:00:00 | |
| DF8AY | 2026-09-02 00:42:11 | 51.42127 | 7.87150 | 295° | 11km/h | 22692m | -16m/s | -51.7°C | 0.2% | 38.4hPa | 2.5V | 08:23:37 | 02:24:37 | 00:00:00 | |
| AA1-15 | 2026-09-02 00:42:10 | 51.42126 | 7.87154 | 299° | 11km/h | 22709m | -17.3m/s | -51.7°C | 0.2% | 38.4hPa | 2.6V | 08:23:37 | 02:24:36 | 00:00:00 | |
| DL1XH-west | 2026-09-02 00:42:07 | 51.42121 | 7.87163 | 340° | 9km/h | 22758m | -19.9m/s | -51.6°C | 0.2% | 38.1hPa | 2.5V | 08:23:37 | 02:24:33 | 00:00:00 | |
| DB0NH | 2026-09-02 00:42:06 | 51.42119 | 7.87163 | 357° | 7km/h | 22778m | -18.8m/s | -51.5°C | 3.6% | 37.9hPa | 2.5V | 00:00:00 | 02:24:32 | 00:00:00 | |
| DL1XH-15 | 2026-09-02 00:42:04 | 51.42110 | 7.87158 | 31° | 11km/h | 22853m | -18.9m/s | -51.7°C | 3.7% | 37.5hPa | 2.5V | 08:23:39 | 02:24:28 | 00:00:00 | |
| DD8BA-10 | 2026-09-02 00:42:03 | 51.42112 | 7.87160 | 29° | 9km/h | 22835m | -18.9m/s | -51.6°C | 3.6% | 37.6hPa | 2.5V | 00:00:00 | 00:00:00 | 00:00:00 | |
| DL1NUX | 2026-09-02 00:42:02 | 51.42101 | 7.87145 | 55° | 7km/h | 22941m | -18.8m/s | -51.8°C | 3.6% | 37hPa | 2.5V | 08:23:44 | 02:24:23 | 00:00:00 | |
| DF8AY | 2026-09-02 00:42:00 | 51.42105 | 7.87153 | 43° | 9km/h | 22888m | -16.2m/s | -51.8°C | 0.2% | 37.3hPa | 2.6V | 08:24:28 | 02:24:26 | 00:00:00 | |
| AA1-15 | 2026-09-02 00:41:59 | 51.42104 | 7.87150 | 49° | 9km/h | 22905m | -17.5m/s | -51.8°C | 0.2% | 37.2hPa | 2.6V | 08:24:28 | 02:24:25 | 00:00:00 | |
| BIOWL1-15 | 2026-09-02 00:41:58 | 51.42098 | 7.87137 | 77° | 4km/h | 23020m | -14.3m/s | -51.6°C | 0.2% | 36.5hPa | 2.5V | 08:24:28 | 02:24:19 | 00:00:00 | |
| DL1XH1-15 | 2026-09-02 00:41:57 | 51.42098 | 7.87136 | 97° | 2km/h | 23036m | -17.9m/s | -51.5°C | 3.6% | 36.5hPa | 2.5V | 08:23:49 | 02:24:18 | 00:00:00 | |
| HSKMA3-T | 2026-09-02 00:41:56 | 51.42100 | 7.87143 | 55° | 7km/h | 22963m | -24.6m/s | -51.7°C | 0.2% | 37hPa | 2.5V | 08:24:28 | 02:24:22 | 00:00:00 | |
| BUE01 | 2026-09-02 00:41:56 | 51.42099 | 7.87141 | 52° | 5km/h | 22986m | -21.3m/s | -51.7°C | 0.9% | 36.8hPa | 2.5V | 00:00:00 | 00:00:00 | 00:00:00 | |
| DD1CC8 | 2026-09-02 00:41:55 | 51.42098 | 7.87139 | 65° | 4km/h | 23005m | -16.1m/s | -51.6°C | 0.8% | 36.6hPa | 2.5V | 00:00:00 | 00:00:00 | 00:00:00 | |
| DF7PN | 2026-09-02 00:41:54 | 51.42098 | 7.87139 | 65° | 4km/h | 23005m | -16.1m/s | -51.6°C | 0.8% | 36.6hPa | 2.5V | 00:00:00 | 00:00:00 | 00:00:00 | |
| SO1NDE-10 | 2026-09-02 00:41:53 | 51.42098 | 7.87137 | 78° | 9km/h | 23020m | -14.2m/s | -51.5°C | 3.6% | 36.5hPa | 2.5V | 00:00:00 | 02:24:19 | 00:00:00 | |
| DL1NUX | 2026-09-02 00:41:52 | 51.42104 | 7.87137 | 195° | 9km/h | 23128m | -18.3m/s | -51.8°C | 3.7% | 35.9hPa | 2.5V | 08:23:54 | 02:24:13 | 00:00:00 | |
| DF8AY | 2026-09-02 00:41:50 | 51.42099 | 7.87135 | 182° | 4km/h | 23073m | -20.2m/s | -51.7°C | 0.2% | 36.3hPa | 2.6V | 08:24:28 | 02:24:16 | 00:00:00 | |
| AA1-15 | 2026-09-02 00:41:48 | 51.42102 | 7.87136 | 197° | 7km/h | 23110m | -17.4m/s | -51.8°C | 0.2% | 36hPa | 2.5V | 08:24:28 | 02:24:14 | 00:00:00 | |
| WPPR-10 | 2026-09-02 00:41:48 | 51.42103 | 7.87137 | 195° | 7km/h | 23128m | -18.3m/s | -51.8°C | 0.8% | 36.0hPa | 2.5V | 00:00:00 | 00:00:00 | 00:00:00 | |
| DL1XH1-15 | 2026-09-02 00:41:47 | 51.42113 | 7.87144 | 209° | 7km/h | 23213m | -17m/s | -51.9°C | 3.8% | 35.5hPa | 2.5V | 08:23:59 | 02:24:08 | 00:00:00 | |
| DL1XH-west | 2026-09-02 00:41:45 | 51.42108 | 7.87139 | 201° | 9km/h | 23162m | -15.9m/s | -51.9°C | 0.3% | 35.8hPa | 2.6V | 08:24:28 | 02:24:11 | 00:00:00 | |
| BIOWL1-15 | 2026-09-02 00:41:44 | 51.42112 | 7.87142 | 207° | 9km/h | 23196m | -18.6m/s | -51.8°C | 0.3% | 35.6hPa | 2.5V | 08:24:28 | 02:24:09 | 00:00:00 | |
| DL4BBY-15 | 2026-09-02 00:41:44 | 51.42110 | 7.87141 | 201° | 13km/h | 23178m | -15.8m/s | -51.3°C | 0% | 0hPa | 2.5V | 00:00:00 | 00:00:00 | 00:00:00 | |
| DO1YAY-16 | 2026-09-02 00:41:43 | 51.42114 | 7.87144 | 209° | 5km/h | 23214m | -17.0m/s | -51.9°C | 0.9% | 35.5hPa | 2.5V | 00:00:00 | 00:00:00 | 00:00:00 | |
| DL1NUX | 2026-09-02 00:41:42 | 51.42113 | 7.87148 | 337° | 5km/h | 23318m | -21.2m/s | -51.8°C | 3.7% | 34.9hPa | 2.5V | 08:24:04 | 02:24:03 | 00:00:00 | |
| DF8AY | 2026-09-02 00:41:40 | 51.42115 | 7.87146 | 232° | 4km/h | 23252m | -19.9m/s | -52°C | 0.3% | 35.3hPa | 2.6V | 08:24:28 | 02:24:06 | 00:00:00 | |
| AA1-15 | 2026-09-02 00:41:38 | 51.42114 | 7.87147 | 329° | 4km/h | 23296m | -22.2m/s | -51.9°C | 0.3% | 35.1hPa | 2.5V | 08:24:28 | 02:24:04 | 00:00:00 | |
| SONDE2-11 | 2026-09-02 00:41:37 | 51.42113 | 7.87148 | 337° | 4km/h | 23318m | -21.3m/s | -51.8°C | 0.9% | 35.0hPa | 2.5V | 00:00:00 | 00:00:00 | 00:00:00 | |
| DL1XH-15 | 2026-09-02 00:41:36 | 51.42102 | 7.87136 | 54° | 16km/h | 23440m | -17.3m/s | -51.8°C | 3.8% | 34.2hPa | 2.5V | 08:24:10 | 02:23:57 | 00:00:00 | |
| DB0NH | 2026-09-02 00:41:36 | 51.42112 | 7.87149 | 354° | 15km/h | 23338m | -18.9m/s | -51.6°C | 3.7% | 34.7hPa | 2.5V | 00:00:00 | 02:24:02 | 00:00:00 | |
| DM0DOS-11 | 2026-09-02 00:41:35 | 51.42107 | 7.87144 | 41° | 11km/h | 23403m | -21.2m/s | -51.8°C | 3.8% | 34.5hPa | 2.5V | 08:24:08 | 02:23:59 | 00:00:00 | |
| DL1XH-west | 2026-09-02 00:41:35 | 51.42110 | 7.87148 | 20° | 7km/h | 23359m | -23.4m/s | -51.6°C | 0.2% | 34.7hPa | 2.6V | 08:24:28 | 02:24:01 | 00:00:00 | |
| HSKMA3-T | 2026-09-02 00:41:34 | 51.42109 | 7.87147 | 33° | 9km/h | 23381m | -21.9m/s | -51.8°C | 0.2% | 34.6hPa | 2.6V | 08:24:28 | 02:24:00 | 00:00:00 | |
| BIOWL1-15 | 2026-09-02 00:41:34 | 51.42095 | 7.87076 | 91° | 16km/h | 23658m | -21.1m/s | -51.3°C | 0.1% | 33.1hPa | 2.5V | 08:24:28 | 02:23:47 | 00:00:00 | |
| DD8BA-10 | 2026-09-02 00:41:33 | 51.42106 | 7.87144 | 42° | 15km/h | 23403m | -21.2m/s | -51.8°C | 3.8% | 34.4hPa | 2.5V | 08:24:00 | 00:00:00 | 00:00:00 | |
| DL1NUX | 2026-09-02 00:41:32 | 51.42096 | 7.87111 | 76° | 16km/h | 23524m | -22.9m/s | -51.7°C | 3.7% | 33.9hPa | 2.5V | 08:24:14 | 02:23:53 | 00:00:00 | |
| DF8AY | 2026-09-02 00:41:30 | 51.42095 | 7.87105 | 82° | 15km/h | 23547m | -23.1m/s | -51.7°C | 0.2% | 33.7hPa | 2.5V | 08:24:28 | 02:23:52 | 00:00:00 | |
| DM0DOS-11 | 2026-09-02 00:41:28 | 51.42095 | 7.87088 | 87° | 15km/h | 23613m | -21.7m/s | -51.5°C | 3.6% | 33.4hPa | 2.5V | 08:24:18 | 02:23:49 | 00:00:00 | |
| AA1-15 | 2026-09-02 00:41:28 | 51.42097 | 7.87118 | 77° | 16km/h | 23501m | -24m/s | -51.8°C | 0.2% | 34hPa | 2.5V | 08:24:28 | 02:23:54 | 00:00:00 | |
| DL1XH-west | 2026-09-02 00:41:25 | 51.42095 | 7.87099 | 88° | 15km/h | 23570m | -22m/s | -51.7°C | 0.3% | 33.6hPa | 2.6V | 08:24:28 | 02:23:51 | 00:00:00 | |
| HSKMA3-T | 2026-09-02 00:41:24 | 51.42095 | 7.87093 | 88° | 15km/h | 23592m | -21.7m/s | -51.6°C | 0.2% | 33.5hPa | 2.6V | 08:24:28 | 02:23:50 | 00:00:00 | |
| BIOWL1-15 | 2026-09-02 00:41:20 | 51.42095 | 7.87069 | 94° | 16km/h | 23678m | -20.8m/s | -51.2°C | 0.1% | 33hPa | 2.6V | 08:24:28 | 02:23:46 | 00:00:00 | |
| AA1-15 | 2026-09-02 00:41:18 | 51.42097 | 7.87048 | 101° | 20km/h | 23748m | -26.7m/s | -51.1°C | 0.1% | 32.8hPa | 2.5V | 08:24:28 | 02:23:43 | 00:00:00 | |
| DF8AY | 2026-09-02 00:41:15 | 51.42099 | 7.87032 | 108° | 20km/h | 23795m | -22.3m/s | -51.3°C | 0.2% | 32.5hPa | 2.6V | 08:24:28 | 02:23:41 | 00:00:00 | |
| DL1XH1-15 | 2026-09-02 00:41:15 | 51.42106 | 7.87012 | 129° | 18km/h | 23857m | -19.1m/s | -51.6°C | 3.7% | 32.1hPa | 2.5V | 08:24:29 | 02:23:38 | 00:00:00 | |
| DM0DOS-11 | 2026-09-02 00:41:15 | 51.42103 | 7.87018 | 120° | 18km/h | 23837m | -21.2m/s | -51.5°C | 3.7% | 32.2hPa | 2.5V | 08:24:28 | 02:23:39 | 00:00:00 | |
| DL1XH-west | 2026-09-02 00:41:14 | 51.42101 | 7.87024 | 113° | 20km/h | 23816m | -19.8m/s | -51.4°C | 0.2% | 32.3hPa | 2.6V | 08:24:28 | 02:23:40 | 00:00:00 | |
| HSKMA3-T | 2026-09-02 00:41:13 | 51.42103 | 7.87018 | 121° | 18km/h | 23837m | -21.2m/s | -51.5°C | 0.2% | 32.2hPa | 2.5V | 08:24:28 | 02:23:39 | 00:00:00 | |
| BIOWL1-15 | 2026-09-02 00:41:09 | 51.42121 | 7.87005 | 211° | 7km/h | 23982m | -19.4m/s | -52.1°C | 0.4% | 31.5hPa | 2.5V | 08:25:19 | 02:23:32 | 00:00:00 | |
| DM0DOS-11 | 2026-09-02 00:41:09 | 51.42122 | 7.87005 | 64° | 7km/h | 24060m | -21.6m/s | -51.4°C | 3.7% | 31.1hPa | 2.5V | 08:24:39 | 02:23:28 | 00:00:00 | |
| AA1-15 | 2026-09-02 00:41:07 | 51.42119 | 7.87004 | 203° | 7km/h | 23961m | -22.2m/s | -52°C | 0.3% | 31.6hPa | 2.5V | 08:25:19 | 02:23:33 | 00:00:00 | |
| DL4XJ-10 | 2026-09-02 00:41:07 | 51.42119 | 7.87004 | 203° | 11km/h | 23962m | -22.2m/s | -51.5°C | 0% | 0hPa | 2.5V | 00:00:00 | 00:00:00 | 00:00:00 | |
| DB0NH | 2026-09-02 00:41:06 | 51.42121 | 7.87005 | 212° | 13km/h | 23982m | -19.3m/s | -52.0°C | 3.9% | 31.4hPa | 2.5V | 00:00:00 | 02:23:32 | 00:00:00 | |
| DL1XH1-15 | 2026-09-02 00:41:05 | 51.42122 | 7.87005 | 64° | 7km/h | 24060m | -21.6m/s | -51.4°C | 3.7% | 31.1hPa | 2.5V | 08:24:39 | 02:23:28 | 00:00:00 | |
| DL1XH-west | 2026-09-02 00:41:04 | 51.42123 | 7.87007 | 199° | 2km/h | 24019m | -19.2m/s | -51.9°C | 0.3% | 31.3hPa | 2.6V | 08:25:19 | 02:23:30 | 00:00:00 | |
| HSKMA3-T | 2026-09-02 00:41:02 | 51.42122 | 7.87005 | 64° | 7km/h | 24060m | -21.6m/s | -51.4°C | 0.2% | 31.1hPa | 2.5V | 08:25:19 | 02:23:28 | 00:00:00 | |
| AA1-15 | 2026-09-02 00:40:57 | 51.42120 | 7.86966 | 96° | 24km/h | 24173m | -18.8m/s | -51.1°C | 0.2% | 30.6hPa | 2.5V | 08:25:19 | 02:23:22 | 00:00:00 | |
| BIOWL1-15 | 2026-09-02 00:40:57 | 51.42125 | 7.86935 | 114° | 16km/h | 24259m | -19.4m/s | -51°C | 0.2% | 30.2hPa | 2.5V | 08:25:19 | 02:23:18 | 00:00:00 | |
| DL1XH-15 | 2026-09-02 00:40:56 | 51.42126 | 7.86929 | 117° | 15km/h | 24278m | -17.9m/s | -51°C | 3.7% | 30.1hPa | 2.5V | 08:24:50 | 02:23:17 | 00:00:00 | |
| DM0DOS-11 | 2026-09-02 00:40:56 | 51.42123 | 7.86941 | 108° | 18km/h | 24238m | -22.6m/s | -50.9°C | 3.6% | 30.3hPa | 2.5V | 08:24:48 | 02:23:19 | 00:00:00 | |
| DL1XH1-15 | 2026-09-02 00:40:55 | 51.42125 | 7.86935 | 113° | 16km/h | 24259m | -19.4m/s | -51°C | 3.6% | 30.2hPa | 2.5V | 08:24:49 | 02:23:18 | 00:00:00 | |
| DF8AY | 2026-09-02 00:40:54 | 51.42122 | 7.86949 | 106° | 20km/h | 24216m | -22.8m/s | -50.9°C | 0.2% | 30.4hPa | 2.6V | 08:25:19 | 02:23:20 | 00:00:00 | |
| DL1XH-west | 2026-09-02 00:40:53 | 51.42123 | 7.86941 | 108° | 18km/h | 24238m | -22.6m/s | -50.9°C | 0.1% | 30.3hPa | 2.5V | 08:25:19 | 02:23:19 | 00:00:00 | |
| HSKMA3-T | 2026-09-02 00:40:51 | 51.42126 | 7.86929 | 117° | 15km/h | 24278m | -17.9m/s | -51°C | 0.2% | 30.1hPa | 2.5V | 08:25:19 | 02:23:17 | 00:00:00 | |
| AA1-15 | 2026-09-02 00:40:46 | 51.42136 | 7.86924 | 211° | 9km/h | 24383m | -22m/s | -50.8°C | 0.1% | 29.6hPa | 2.5V | 08:25:19 | 02:23:12 | 00:00:00 | |
| WPPR-10 | 2026-09-02 00:40:46 | 51.42138 | 7.86926 | 207° | 9km/h | 24405m | -23.2m/s | -50.7°C | 0.8% | 29.5hPa | 2.5V | 00:00:00 | 00:00:00 | 00:00:00 | |
| DL1XH1-15 | 2026-09-02 00:40:45 | 51.42143 | 7.86929 | 171° | 4km/h | 24473m | -22.6m/s | -50.8°C | 3.6% | 29.2hPa | 2.5V | 08:24:59 | 02:23:08 | 00:00:00 | |
| DL1XH-15 | 2026-09-02 00:40:44 | 51.42144 | 7.86928 | 155° | 4km/h | 24497m | -24.1m/s | -50.8°C | 3.5% | 29.1hPa | 2.5V | 08:25:00 | 02:23:07 | 00:00:00 | |
| BIOWL1-15 | 2026-09-02 00:40:43 | 51.42154 | 7.86937 | 92° | 0km/h | 24803m | -20.1m/s | -50.6°C | 0.1% | 27.8hPa | 2.5V | 08:25:19 | 02:22:54 | 00:00:00 | |
| DF8AY | 2026-09-02 00:40:43 | 51.42142 | 7.86928 | 198° | 4km/h | 24451m | -23.2m/s | -50.8°C | 0.1% | 29.3hPa | 2.5V | 08:25:19 | 02:23:09 | 00:00:00 | |
| DD8BA-10 | 2026-09-02 00:40:43 | 51.42142 | 7.86928 | 198° | 5km/h | 24451m | -23.2m/s | -50.7°C | 3.5% | 29.3hPa | 2.5V | 00:00:00 | 00:00:00 | 00:00:00 | |
| DL1NUX | 2026-09-02 00:40:42 | 51.42148 | 7.86928 | 210° | 5km/h | 24598m | -26m/s | -50.7°C | 3.5% | 28.7hPa | 2.5V | 08:25:04 | 02:23:03 | 00:00:00 | |
| DL1XH-west | 2026-09-02 00:40:42 | 51.42143 | 7.86929 | 172° | 5km/h | 24474m | -22.6m/s | -50.8°C | 0.2% | 29.2hPa | 2.5V | 08:25:19 | 02:23:08 | 00:00:00 | |
| HSKMA3-T | 2026-09-02 00:40:41 | 51.42145 | 7.86927 | 161° | 4km/h | 24520m | -22.5m/s | -50.7°C | 0.1% | 29hPa | 2.6V | 08:25:19 | 02:23:06 | 00:00:00 | |
| DO1YAY-16 | 2026-09-02 00:40:41 | 51.42145 | 7.86927 | 161° | 4km/h | 24520m | -22.5m/s | -50.7°C | 0.8% | 29.0hPa | 2.5V | 00:00:00 | 00:00:00 | 00:00:00 | |
| AU51GT2 | 2026-09-02 00:40:39 | 51.42146 | 7.86927 | 179° | 2km/h | 24545m | -26.0m/s | -50.6°C | 0.8% | 28.9hPa | 2.5V | 00:00:00 | 00:00:00 | 00:00:00 | |
| SONCRA | 2026-09-02 00:40:38 | 51.42147 | 7.86927 | 198° | 4km/h | 24571m | -28.1m/s | -50.7°C | 0.8% | 28.8hPa | 2.5V | 00:00:00 | 00:00:00 | 00:00:00 | |
| HTAHTA | 2026-09-02 00:40:37 | 51.42149 | 7.86929 | 214° | 4km/h | 24626m | -29.3m/s | -50.7°C | 0.8% | 28.6hPa | 2.5V | 00:00:00 | 00:00:00 | 00:00:00 | |
| DL1XH-15 | 2026-09-02 00:40:36 | 51.42153 | 7.86935 | 235° | 2km/h | 24744m | -21.2m/s | -50.6°C | 3.5% | 28hPa | 2.5V | 08:25:10 | 02:22:57 | 00:00:00 | |
| AA1-15 | 2026-09-02 00:40:35 | 51.42150 | 7.86931 | 218° | 5km/h | 24655m | -28.7m/s | -50.7°C | 0.1% | 28.5hPa | 2.6V | 08:25:19 | 02:23:01 | 00:00:00 | |
| DM0DOS-11 | 2026-09-02 00:40:35 | 51.42152 | 7.86933 | 223° | 5km/h | 24704m | -21m/s | -50.7°C | 3.5% | 28.2hPa | 2.5V | 08:25:08 | 02:22:59 | 00:00:00 | |
| DL1XH1-15 | 2026-09-02 00:40:35 | 51.42153 | 7.86934 | 233° | 4km/h | 24724m | -18.7m/s | -50.6°C | 3.5% | 28.1hPa | 2.5V | 08:25:09 | 02:22:58 | 00:00:00 | |
| DL1XH-west | 2026-09-02 00:40:32 | 51.42153 | 7.86934 | 233° | 4km/h | 24724m | -18.7m/s | -50.6°C | 0.1% | 28.1hPa | 2.5V | 08:25:19 | 02:22:58 | 00:00:00 | |
| DO9LL-15 | 2026-09-02 00:40:32 | 51.42153 | 7.86934 | 234° | 9km/h | 24724m | -18.6m/s | -50.6°C | 3.5% | 28.0hPa | 2.5V | 00:00:00 | 02:22:58 | 00:00:00 | |
| GOEST3-10 | 2026-09-02 00:40:31 | 51.42153 | 7.86935 | 236° | 2km/h | 24744m | -21.2m/s | -50.6°C | 3.5% | 28.0hPa | 2.5V | 08:25:00 | 02:22:57 | 00:00:00 | |
| DL1NUX | 2026-09-02 00:40:30 | 51.42154 | 7.86937 | 80° | 0km/h | 24824m | -20.4m/s | -50.5°C | 3.5% | 27.7hPa | 2.5V | 08:25:14 | 02:22:53 | 00:00:00 | |
| HSKMA3-T | 2026-09-02 00:40:29 | 51.42154 | 7.86936 | 250° | 2km/h | 24783m | -19.3m/s | -50.7°C | 0.1% | 27.8hPa | 2.6V | 08:25:19 | 02:22:55 | 00:00:00 | |
| DM0DOS-11 | 2026-09-02 00:40:28 | 51.42155 | 7.86934 | 110° | 4km/h | 24911m | -21.6m/s | -50.5°C | 3.4% | 27.3hPa | 2.5V | 08:25:18 | 02:22:49 | 00:00:00 | |
| DL1XH1-15 | 2026-09-02 00:40:27 | 51.42155 | 7.86933 | 111° | 5km/h | 24933m | -21.1m/s | -50.6°C | 3.4% | 27.2hPa | 2.5V | 08:25:19 | 02:22:48 | 00:00:00 | |
| AA1-15 | 2026-09-02 00:40:25 | 51.42154 | 7.86936 | 135° | 2km/h | 24866m | -22.7m/s | -50.5°C | 0.1% | 27.5hPa | 2.6V | 08:25:19 | 02:22:51 | 00:00:00 | |
| DL1XH-west | 2026-09-02 00:40:21 | 51.42156 | 7.86931 | 103° | 5km/h | 24955m | -23m/s | -50.7°C | 0.1% | 27.1hPa | 2.5V | 08:26:10 | 02:22:47 | 00:00:00 | |
| HSKMA3-T | 2026-09-02 00:40:19 | 51.42156 | 7.86925 | 85° | 7km/h | 24997m | -20.1m/s | -50.8°C | 0.2% | 26.9hPa | 2.6V | 08:26:10 | 02:22:45 | 00:00:00 | |
| BIOWL1-15 | 2026-09-02 00:40:18 | 51.42177 | 7.86889 | 158° | 18km/h | 25291m | -24.5m/s | -50.9°C | 0.2% | 25.7hPa | 2.5V | 08:26:10 | 02:22:32 | 00:00:00 | |
| DL1XH1-15 | 2026-09-02 00:40:17 | 51.42159 | 7.86903 | 138° | 9km/h | 25148m | -22.3m/s | -50.8°C | 3.5% | 26.3hPa | 2.5V | 08:25:29 | 02:22:38 | 00:00:00 | |
| AA1-15 | 2026-09-02 00:40:14 | 51.42156 | 7.86908 | 109° | 7km/h | 25102m | -20.8m/s | -50.9°C | 0.2% | 26.5hPa | 2.6V | 08:26:10 | 02:22:40 | 00:00:00 | |
| DL1XH-15 | 2026-09-02 00:40:14 | 51.42160 | 7.86901 | 147° | 11km/h | 25171m | -24.4m/s | -50.7°C | 3.5% | 26.2hPa | 2.5V | 08:25:30 | 02:22:37 | 00:00:00 | |
| DL4BBY-15 | 2026-09-02 00:40:14 | 51.42156 | 7.86908 | 109° | 13km/h | 25102m | -20.7m/s | -50.4°C | 0% | 0hPa | 2.5V | 00:00:00 | 00:00:00 | 00:00:00 | |
| DD8BA-10 | 2026-09-02 00:40:13 | 51.42157 | 7.86906 | 129° | 15km/h | 25125m | -23.5m/s | -50.8°C | 3.5% | 26.4hPa | 2.5V | 00:00:00 | 00:00:00 | 00:00:00 | |
| DL1NUX | 2026-09-02 00:40:12 | 51.42173 | 7.86892 | 157° | 16km/h | 25266m | -24.3m/s | -50.8°C | 3.5% | 25.8hPa | 2.5V | 08:25:34 | 02:22:33 | 00:00:00 | |
| DL1XH-west | 2026-09-02 00:40:11 | 51.42161 | 7.86901 | 147° | 11km/h | 25171m | -24.4m/s | -50.7°C | 0.1% | 26.2hPa | 2.5V | 08:26:10 | 02:22:37 | 00:00:00 | |
| HSKMA3-T | 2026-09-02 00:40:09 | 51.42166 | 7.86896 | 158° | 15km/h | 25219m | -22.9m/s | -50.6°C | 0.1% | 26hPa | 2.6V | 08:26:10 | 02:22:35 | 00:00:00 | |
| BIOWL1-15 | 2026-09-02 00:40:06 | 51.42186 | 7.86884 | 165° | 18km/h | 25340m | -25.6m/s | -50.8°C | 0.2% | 25.6hPa | 2.6V | 08:26:10 | 02:22:30 | 00:00:00 | |
| DB0NH | 2026-09-02 00:40:06 | 51.42177 | 7.86889 | 159° | 11km/h | 25291m | -24.4m/s | -50.8°C | 3.6% | 25.7hPa | 2.5V | 00:00:00 | 02:22:32 | 00:00:00 | |
| DM0DOS-11 | 2026-09-02 00:40:05 | 51.42191 | 7.86883 | 167° | 18km/h | 25366m | -24.8m/s | -50.8°C | 3.7% | 25.4hPa | 2.5V | 08:25:38 | 02:22:29 | 00:00:00 | |
| AA1-15 | 2026-09-02 00:40:03 | 51.42195 | 7.86881 | 175° | 18km/h | 25390m | -22.9m/s | -50.9°C | 0.2% | 25.4hPa | 2.5V | 08:26:10 | 02:22:28 | 00:00:00 | |
| DD8BA-10 | 2026-09-02 00:40:03 | 51.42190 | 7.86882 | 168° | 13km/h | 25366m | -24.7m/s | -50.8°C | 3.7% | 25.4hPa | 2.5V | 08:25:00 | 00:00:00 | 00:00:00 | |
| DL1NUX | 2026-09-02 00:40:02 | 51.42213 | 7.86890 | 215° | 15km/h | 25490m | -16.5m/s | -50.8°C | 3.7% | 24.9hPa | 2.5V | 08:25:44 | 02:22:23 | 00:00:00 | |
| DL1XH-15 | 2026-09-02 00:40:02 | 51.42199 | 7.86881 | 183° | 16km/h | 25412m | -22.2m/s | -50.8°C | 3.7% | 25.2hPa | 2.5V | 08:25:40 | 02:22:27 | 00:00:00 | |
| DL1XH-west | 2026-09-02 00:40:01 | 51.42199 | 7.86881 | 184° | 16km/h | 25412m | -22.2m/s | -50.8°C | 0.3% | 25.2hPa | 2.5V | 08:26:10 | 02:22:27 | 00:00:00 | |
| DF8AY | 2026-09-02 00:40:01 | 51.42203 | 7.86882 | 194° | 16km/h | 25434m | -21.4m/s | -50.8°C | 0.2% | 25.2hPa | 2.6V | 08:26:10 | 02:22:26 | 00:00:00 | |
| GOEST3-10 | 2026-09-02 00:40:01 | 51.42199 | 7.86881 | 184° | 15km/h | 25412m | -22.1m/s | -50.8°C | 3.7% | 25.2hPa | 2.5V | 00:00:00 | 02:22:27 | 00:00:00 | |
| DD1CC9-15 | 2026-09-02 00:39:59 | 51.42203 | 7.86882 | 195° | 16km/h | 25434m | -21.4m/s | -50.8°C | 0.9% | 25.2hPa | 2.5V | 08:26:00 | 00:00:00 | 00:00:00 | |
| DM0DOS-11 | 2026-09-02 00:39:58 | 51.42223 | 7.86899 | 180° | 9km/h | 25581m | -24.6m/s | -50.8°C | 3.8% | 24.6hPa | 2.5V | 08:25:48 | 02:22:19 | 00:00:00 | |
| HSKMA3-T | 2026-09-02 00:39:58 | 51.42210 | 7.86887 | 210° | 15km/h | 25472m | -17.8m/s | -50.8°C | 0.3% | 25hPa | 2.5V | 08:26:10 | 02:22:24 | 00:00:00 | |
| EDDB2-12 | 2026-09-02 00:39:55 | 51.42218 | 7.86896 | 207° | 11km/h | 25530m | -25.8m/s | -50.9°C | 0.9% | 24.8hPa | 2.5V | 00:00:00 | 00:00:00 | 00:00:00 | |
| DL1XH-15 | 2026-09-02 00:39:54 | 51.42228 | 7.86897 | 156° | 13km/h | 25628m | -21.2m/s | -50.6°C | 3.8% | 24.4hPa | 2.5V | 08:25:50 | 02:22:17 | 00:00:00 | |
| SO1NDE-10 | 2026-09-02 00:39:53 | 51.42223 | 7.86899 | 181° | 9km/h | 25582m | -24.5m/s | -50.8°C | 3.8% | 24.6hPa | 2.5V | 00:00:00 | 02:22:19 | 00:00:00 | |
| DL1NUX | 2026-09-02 00:39:52 | 51.42240 | 7.86888 | 165° | 13km/h | 25717m | -24.4m/s | -49.8°C | 3.5% | 24.1hPa | 2.5V | 08:25:54 | 02:22:13 | 00:00:00 | |
| AA1-15 | 2026-09-02 00:39:52 | 51.42228 | 7.86897 | 157° | 13km/h | 25628m | -21.3m/s | -50.6°C | 0.3% | 24.4hPa | 2.5V | 08:26:10 | 02:22:17 | 00:00:00 | |
| DL1XH-west | 2026-09-02 00:39:50 | 51.42231 | 7.86894 | 151° | 15km/h | 25649m | -20.4m/s | -50.5°C | 0.3% | 24.4hPa | 2.6V | 08:26:10 | 02:22:16 | 00:00:00 | |
| DJ2KF-10 | 2026-09-02 00:39:49 | 51.42234 | 7.86892 | 153° | 7km/h | 25670m | -21.4m/s | -50.3°C | 3.7% | 24.2hPa | 2.5V | 00:00:00 | 02:22:15 | 00:00:00 | |
| DM0DOS-11 | 2026-09-02 00:39:48 | 51.42248 | 7.86891 | 238° | 7km/h | 25818m | -28.1m/s | -49.5°C | 3.4% | 23.8hPa | 2.5V | 08:25:58 | 02:22:09 | 00:00:00 | |
| HSKMA3-T | 2026-09-02 00:39:47 | 51.42240 | 7.86888 | 166° | 13km/h | 25717m | -24.4m/s | -49.8°C | 0.2% | 24.1hPa | 2.5V | 08:26:10 | 02:22:13 | 00:00:00 | |
| DL1XH-15 | 2026-09-02 00:39:46 | 51.42249 | 7.86896 | 262° | 5km/h | 25870m | -24.3m/s | -49.6°C | 3.5% | 23.6hPa | 2.5V | 08:26:00 | 02:22:07 | 00:00:00 | |
| DB0ND-19 | 2026-09-02 00:39:46 | 51.42245 | 7.86887 | 194° | 7km/h | 25765m | -24.2m/s | -49.6°C | 0.8% | 24.0hPa | 2.5V | 00:00:00 | 00:00:00 | 00:00:00 | |
| DJ2DS-15 | 2026-09-02 00:39:45 | 51.42247 | 7.86889 | 213° | 5km/h | 25791m | -26.5m/s | -49.4°C | 0.8% | 23.9hPa | 2.5V | 00:00:00 | 00:00:00 | 00:00:00 | |
| DL4BBY-15 | 2026-09-02 00:39:44 | 51.42247 | 7.86889 | 214° | 7km/h | 25791m | -26.4m/s | -48.9°C | 0% | 0hPa | 2.5V | 00:00:00 | 00:00:00 | 00:00:00 | |
| DD8BA-10 | 2026-09-02 00:39:42 | 51.42249 | 7.86893 | 256° | 5km/h | 25845m | -25.3m/s | -49.5°C | 3.5% | 23.6hPa | 2.5V | 00:00:00 | 00:00:00 | 00:00:00 | |
| GOEST3-10 | 2026-09-02 00:39:41 | 51.42249 | 7.86895 | 263° | 5km/h | 25870m | -24.3m/s | -49.6°C | 3.5% | 23.5hPa | 2.5V | 00:00:00 | 02:22:07 | 00:00:00 | |
| DL1NUX | 2026-09-02 00:39:40 | 51.42247 | 7.86903 | 332° | 5km/h | 25966m | -22.9m/s | -49.2°C | 3.4% | 23.2hPa | 2.5V | 08:26:04 | 02:22:03 | 00:00:00 | |
| DL1XH-west | 2026-09-02 00:39:40 | 51.42249 | 7.86898 | 279° | 5km/h | 25894m | -23.5m/s | -49.6°C | 0.1% | 23.5hPa | 2.6V | 08:26:10 | 02:22:06 | 00:00:00 | |
| DO1YAY-16 | 2026-09-02 00:39:39 | 51.42248 | 7.86902 | 310° | 4km/h | 25942m | -24.5m/s | -49.3°C | 0.8% | 23.3hPa | 2.5V | 00:00:00 | 00:00:00 | 00:00:00 | |
| DM0DOS-11 | 2026-09-02 00:39:37 | 51.42242 | 7.86902 | 10° | 7km/h | 26060m | -24.5m/s | -49°C | 3.4% | 22.9hPa | 2.5V | 08:26:08 | 02:21:59 | 00:00:00 | |
| HSKMA3-T | 2026-09-02 00:39:37 | 51.42247 | 7.86903 | 332° | 5km/h | 25966m | -23m/s | -49.2°C | 0% | 23.2hPa | 2.5V | 08:26:10 | 02:22:03 | 00:00:00 | |
| DJ8HS-15 | 2026-09-02 00:39:36 | 51.42246 | 7.86903 | 360° | 9km/h | 25990m | -23.8m/s | -49.1°C | 3.4% | 23.1hPa | 2.5V | 08:26:00 | 02:22:02 | 00:00:00 | |
| HTAHTA | 2026-09-02 00:39:35 | 51.42244 | 7.86903 | 16° | 5km/h | 26036m | -23.2m/s | -49.1°C | 0.7% | 23.0hPa | 2.5V | 00:00:00 | 00:00:00 | 00:00:00 | |
| SONDE2-11 | 2026-09-02 00:39:33 | 51.42242 | 7.86902 | 10° | 5km/h | 26060m | -24.5m/s | -49.0°C | 0.8% | 22.9hPa | 2.5V | 00:00:00 | 00:00:00 | 00:00:00 | |
| DL1NUX | 2026-09-02 00:39:32 | 51.42230 | 7.86894 | 47° | 9km/h | 26199m | -22.4m/s | -48.3°C | 3.3% | 22.4hPa | 2.5V | 08:26:14 | 02:21:53 | 00:00:00 | |
| AA1-15 | 2026-09-02 00:39:31 | 51.42238 | 7.86901 | 13° | 9km/h | 26107m | -21.4m/s | -48.9°C | 0.1% | 22.7hPa | 2.5V | 08:26:10 | 02:21:57 | 00:00:00 | |
| DF8AY | 2026-09-02 00:39:30 | 51.42236 | 7.86900 | 21° | 9km/h | 26128m | -21.5m/s | -48.8°C | 0.1% | 22.6hPa | 2.6V | 08:27:01 | 02:21:56 | 00:00:00 | |
| DL1XH-west | 2026-09-02 00:39:29 | 51.42233 | 7.86898 | 32° | 9km/h | 26151m | -23.3m/s | -48.6°C | 0% | 22.6hPa | 2.6V | 08:27:01 | 02:21:55 | 00:00:00 | |
| HSKMA3-T | 2026-09-02 00:39:27 | 51.42230 | 7.86894 | 47° | 9km/h | 26199m | -22.4m/s | -48.3°C | 0% | 22.4hPa | 2.5V | 08:27:01 | 02:21:53 | 00:00:00 | |
| BIOWL1-15 | 2026-09-02 00:39:24 | 51.42231 | 7.86875 | 147° | 7km/h | 26357m | -22m/s | -47.6°C | 0% | 21.9hPa | 2.6V | 08:27:01 | 02:21:46 | 00:00:00 | |
| DL1XH1-15 | 2026-09-02 00:39:23 | 51.42228 | 7.86879 | 118° | 7km/h | 26312m | -22m/s | -47.8°C | 3.1% | 22hPa | 2.5V | 08:26:19 | 02:21:48 | 00:00:00 | |
| SO1NDE-10 | 2026-09-02 00:39:23 | 51.42228 | 7.86881 | 109° | 16km/h | 26290m | -23.4m/s | -47.9°C | 3.2% | 22.1hPa | 2.5V | 00:00:00 | 02:21:49 | 00:00:00 | |
| DD8BA-10 | 2026-09-02 00:39:22 | 51.42228 | 7.86879 | 119° | 11km/h | 26313m | -22.0m/s | -47.7°C | 3.1% | 22.0hPa | 2.5V | 00:00:00 | 00:00:00 | 00:00:00 | |
| DO3MHA-11 | 2026-09-02 00:39:21 | 51.42230 | 7.86876 | 140° | 13km/h | 26335m | -22.8m/s | -47.6°C | 3.1% | 21.9hPa | 2.5V | 00:00:00 | 02:21:47 | 00:00:00 | |
| DL1NUX | 2026-09-02 00:39:20 | 51.42238 | 7.86869 | 150° | 11km/h | 26433m | -25.9m/s | -47.5°C | 3% | 21.6hPa | 2.5V | 08:26:24 | 02:21:43 | 00:00:00 | |
| DF8AY | 2026-09-02 00:39:20 | 51.42238 | 7.86869 | 150° | 11km/h | 26433m | -25.9m/s | -47.5°C | 0% | 21.6hPa | 2.5V | 08:27:01 | 02:21:43 | 00:00:00 | |
| DL1XH-west | 2026-09-02 00:39:19 | 51.42233 | 7.86873 | 153° | 9km/h | 26381m | -25.5m/s | -47.6°C | 0% | 21.8hPa | 2.6V | 08:27:01 | 02:21:45 | 00:00:00 | |
| HSKMA3-T | 2026-09-02 00:39:16 | 51.42241 | 7.86867 | 152° | 13km/h | 26459m | -26.5m/s | -47.4°C | 0% | 21.5hPa | 2.5V | 08:27:01 | 02:21:42 | 00:00:00 | |
| DJ8HS-15 | 2026-09-02 00:39:16 | 51.42241 | 7.86867 | 152° | 18km/h | 26459m | -26.5m/s | -47.3°C | 3.0% | 21.5hPa | 2.5V | 00:00:00 | 02:21:42 | 00:00:00 | |
| EDDB2-11 | 2026-09-02 00:39:15 | 51.42247 | 7.86862 | 161° | 13km/h | 26506m | -20.4m/s | -47.4°C | 0.7% | 21.4hPa | 2.5V | 00:00:00 | 00:00:00 | 00:00:00 | |
| DL4BBY-15 | 2026-09-02 00:39:14 | 51.42247 | 7.86862 | 162° | 16km/h | 26505m | -20.4m/s | -46.8°C | 0% | 0hPa | 2.5V | 00:00:00 | 00:00:00 | 00:00:00 | |
| DL1NUX | 2026-09-02 00:39:12 | 51.42275 | 7.86884 | 227° | 22km/h | 26684m | -29.8m/s | -47.2°C | 2.9% | 20.8hPa | 2.5V | 08:26:34 | 02:21:33 | 00:00:00 | |
| DF8AY | 2026-09-02 00:39:09 | 51.42266 | 7.86872 | 217° | 22km/h | 26629m | -25.9m/s | -47.4°C | 0% | 21hPa | 2.6V | 08:27:01 | 02:21:35 | 00:00:00 | |
| DL1XH-west | 2026-09-02 00:39:08 | 51.42271 | 7.86878 | 222° | 22km/h | 26656m | -25.9m/s | -47.4°C | 0% | 20.9hPa | 2.5V | 08:27:01 | 02:21:34 | 00:00:00 | |
| HSKMA3-T | 2026-09-02 00:39:06 | 51.42278 | 7.86890 | 228° | 22km/h | 26712m | -26.4m/s | -47.3°C | 0% | 20.7hPa | 2.5V | 08:27:01 | 02:21:32 | 00:00:00 | |
| DO2JMG | 2026-09-02 00:39:05 | 51.42282 | 7.86897 | 229° | 22km/h | 26737m | -22.6m/s | -47.4°C | 0% | 20.6hPa | 2.6V | 08:27:52 | 02:21:31 | 00:00:00 | |
| SONCRA | 2026-09-02 00:39:05 | 51.42282 | 7.86897 | 228° | 20km/h | 26737m | -22.6m/s | -47.4°C | 0.6% | 20.6hPa | 2.5V | 00:00:00 | 00:00:00 | 00:00:00 | |
| DK9SH | 2026-09-02 00:39:04 | 51.42282 | 7.86897 | 230° | 22km/h | 26737m | -22.6m/s | -47.4°C | 0.6% | 20.6hPa | 2.5V | 08:27:00 | 00:00:00 | 00:00:00 | |
| DL1XH1-15 | 2026-09-02 00:39:03 | 51.42292 | 7.86914 | 229° | 18km/h | 26803m | -19.9m/s | -47.5°C | 3% | 20.4hPa | 2.5V | 08:26:39 | 02:21:28 | 00:00:00 | |
| BIOWL1-15 | 2026-09-02 00:39:00 | 51.42301 | 7.86937 | 243° | 18km/h | 26900m | -24.3m/s | -47.6°C | 0% | 20.1hPa | 2.5V | 08:27:01 | 02:21:24 | 00:00:00 | |
| DF8AY | 2026-09-02 00:38:59 | 51.42299 | 7.86931 | 242° | 16km/h | 26875m | -26.9m/s | -47.5°C | 0% | 20.2hPa | 2.6V | 08:27:01 | 02:21:25 | 00:00:00 | |
| DL3AQ-11 | 2026-09-02 00:38:59 | 51.42301 | 7.86937 | 242° | 16km/h | 26900m | -24.3m/s | -47.6°C | 0.6% | 20.1hPa | 2.5V | 00:00:00 | 00:00:00 | 00:00:00 | |
| DL1XH1-15 | 2026-09-02 00:38:58 | 51.42302 | 7.86978 | 294° | 16km/h | 27051m | -24.8m/s | -47.7°C | 3.1% | 19.7hPa | 2.5V | 08:26:49 | 02:21:18 | 00:00:00 | |
| DL1XH-west | 2026-09-02 00:38:57 | 51.42303 | 7.86944 | 248° | 18km/h | 26925m | -24.2m/s | -47.7°C | 0% | 20hPa | 2.5V | 08:27:01 | 02:21:23 | 00:00:00 | |
| HSKMA3-T | 2026-09-02 00:38:56 | 51.42304 | 7.86950 | 257° | 18km/h | 26948m | -22.5m/s | -47.8°C | 0% | 19.9hPa | 2.5V | 08:27:01 | 02:21:22 | 00:00:00 | |
| EDDB2-12 | 2026-09-02 00:38:53 | 51.42303 | 7.86971 | 288° | 16km/h | 27025m | -26.4m/s | -47.7°C | 0.7% | 19.8hPa | 2.5V | 00:00:00 | 00:00:00 | 00:00:00 | |
| BIOWL1-15 | 2026-09-02 00:38:51 | 51.42283 | 7.87028 | 307° | 16km/h | 27289m | -24.2m/s | -47.8°C | 0% | 18.9hPa | 2.5V | 08:27:01 | 02:21:08 | 00:00:00 | |
| DF8AY | 2026-09-02 00:38:49 | 51.42285 | 7.87023 | 305° | 16km/h | 27264m | -25.4m/s | 0°C | 0% | 19hPa | 2.5V | 08:27:01 | 02:21:09 | 00:00:00 | |
| AA1-15 | 2026-09-02 00:38:49 | 51.42294 | 7.86998 | 302° | 13km/h | 27144m | -27.1m/s | -48.1°C | 0% | 19.4hPa | 2.5V | 08:27:01 | 02:21:14 | 00:00:00 | |
| DL1NUX | 2026-09-02 00:38:48 | 51.42293 | 7.87003 | 301° | 13km/h | 27170m | -24.2m/s | -48.2°C | 3.3% | 19.3hPa | 2.5V | 08:26:54 | 02:21:13 | 00:00:00 | |
| DL1XH-west | 2026-09-02 00:38:46 | 51.42291 | 7.87007 | 298° | 13km/h | 27193m | -22.8m/s | -48.2°C | 0% | 19.2hPa | 2.5V | 08:27:01 | 02:21:12 | 00:00:00 | |
| HSKMA3-T | 2026-09-02 00:38:45 | 51.42289 | 7.87012 | 298° | 15km/h | 27216m | -21.2m/s | -47.9°C | 0% | 19.1hPa | 2.6V | 08:27:01 | 02:21:11 | 00:00:00 | |
| DL1XH1-15 | 2026-09-02 00:38:43 | 51.42283 | 7.87028 | 307° | 16km/h | 27289m | -24.2m/s | -47.8°C | 3.2% | 18.9hPa | 2.5V | 08:26:59 | 02:21:08 | 00:00:00 | |
| DL1NUX | 2026-09-02 00:38:42 | 51.42274 | 7.87033 | 66° | 9km/h | 27421m | -28.4m/s | -47.8°C | 3.2% | 18.6hPa | 2.5V | 08:27:04 | 02:21:03 | 00:00:00 | |
| BIOWL1-15 | 2026-09-02 00:38:38 | 51.42273 | 7.87030 | 80° | 9km/h | 27448m | -25m/s | -47.9°C | 0% | 18.5hPa | 2.5V | 08:27:52 | 02:21:02 | 00:00:00 | |
| AA1-15 | 2026-09-02 00:38:38 | 51.42275 | 7.87036 | 47° | 7km/h | 27392m | -29.5m/s | -47.8°C | 0% | 18.7hPa | 2.5V | 08:27:52 | 02:21:04 | 00:00:00 | |
| DL4XJ-10 | 2026-09-02 00:38:38 | 51.42275 | 7.87036 | 48° | 9km/h | 27392m | -29.4m/s | -47.2°C | 0% | 0hPa | 2.5V | 00:00:00 | 00:00:00 | 00:00:00 | |
| DL1XH1-15 | 2026-09-02 00:38:37 | 51.42271 | 7.87019 | 14° | 4km/h | 27548m | -28.4m/s | -47.5°C | 3.1% | 18.2hPa | 2.5V | 08:27:09 | 02:20:58 | 00:00:00 | |
| DO1YAY-16 | 2026-09-02 00:38:37 | 51.42273 | 7.87030 | 79° | 9km/h | 27448m | -25.0m/s | -47.9°C | 0.7% | 18.5hPa | 2.5V | 00:00:00 | 00:00:00 | 00:00:00 | |
| DJ8HS-15 | 2026-09-02 00:38:36 | 51.42273 | 7.87030 | 80° | 11km/h | 27448m | -25.0m/s | -47.8°C | 3.2% | 18.5hPa | 2.5V | 00:00:00 | 02:21:02 | 00:00:00 | |
| DM0DOS-11 | 2026-09-02 00:38:35 | 51.42271 | 7.87020 | 51° | 5km/h | 27521m | -26.3m/s | -47.6°C | 3.1% | 18.3hPa | 2.5V | 08:27:08 | 02:20:59 | 00:00:00 | |
| DL1XH-west | 2026-09-02 00:38:35 | 51.42273 | 7.87026 | 78° | 9km/h | 27472m | -22.7m/s | -47.8°C | 0% | 18.4hPa | 2.6V | 08:27:52 | 02:21:01 | 00:00:00 | |
| HSKMA3-T | 2026-09-02 00:38:34 | 51.42272 | 7.87023 | 72° | 9km/h | 27495m | -23.7m/s | -47.7°C | 0% | 18.4hPa | 2.6V | 08:27:52 | 02:21:00 | 00:00:00 | |
| DF8AY | 2026-09-02 00:38:33 | 51.42271 | 7.87020 | 51° | 5km/h | 27521m | -26.3m/s | 0°C | 0% | 18.3hPa | 2.5V | 08:28:43 | 02:20:59 | 00:00:00 | |
| DO2JMG | 2026-09-02 00:38:31 | 51.42270 | 7.87020 | 306° | 5km/h | 27577m | -29.1m/s | -47.6°C | 0% | 18.2hPa | 2.5V | 08:27:52 | 02:20:57 | 00:00:00 | |
| BIOWL1-15 | 2026-09-02 00:38:28 | 51.42268 | 7.87042 | 276° | 15km/h | 27708m | -25.7m/s | -47.2°C | 0% | 17.8hPa | 2.5V | 08:27:52 | 02:20:52 | 00:00:00 | |
| AA1-15 | 2026-09-02 00:38:28 | 51.42268 | 7.87031 | 279° | 13km/h | 27660m | -24.1m/s | -47.5°C | 0% | 17.9hPa | 2.5V | 08:27:52 | 02:20:54 | 00:00:00 | |
| DL1XH-15 | 2026-09-02 00:38:27 | 51.42261 | 7.87062 | 330° | 13km/h | 27826m | -25.4m/s | -46.9°C | 3% | 17.4hPa | 2.5V | 08:27:20 | 02:20:47 | 00:00:00 | |
| DL1XH-west | 2026-09-02 00:38:25 | 51.42267 | 7.87047 | 283° | 13km/h | 27733m | -25.2m/s | -47°C | 0% | 17.7hPa | 2.6V | 08:27:52 | 02:20:51 | 00:00:00 | |
| HSKMA3-T | 2026-09-02 00:38:24 | 51.42266 | 7.87052 | 287° | 11km/h | 27757m | -22m/s | -46.8°C | 0% | 17.6hPa | 2.6V | 08:27:52 | 02:20:50 | 00:00:00 | |
| DL1XH1-15 | 2026-09-02 00:38:23 | 51.42263 | 7.87059 | 316° | 11km/h | 27802m | -22m/s | -46.8°C | 2.9% | 17.5hPa | 2.5V | 08:27:19 | 02:20:48 | 00:00:00 | |
| DF8AY | 2026-09-02 00:38:21 | 51.42261 | 7.87062 | 330° | 13km/h | 27826m | -25.4m/s | 0°C | 0% | 17.5hPa | 2.5V | 08:28:43 | 02:20:47 | 00:00:00 | |
| DO2JMG | 2026-09-02 00:38:19 | 51.42254 | 7.87066 | 344° | 15km/h | 27877m | -24m/s | -47°C | 0% | 17.3hPa | 2.6V | 08:27:52 | 02:20:45 | 00:00:00 | |
| DL1NUX | 2026-09-02 00:38:19 | 51.42247 | 7.87069 | 354° | 16km/h | 27924m | -25.4m/s | -47°C | 3% | 17.2hPa | 2.5V | 08:27:24 | 02:20:43 | 00:00:00 | |
| AA1-15 | 2026-09-02 00:38:18 | 51.42242 | 7.87069 | 1° | 18km/h | 27951m | -28.2m/s | -47°C | 0% | 17.1hPa | 2.5V | 08:27:52 | 02:20:42 | 00:00:00 | |
| DJ2KF-10 | 2026-09-02 00:38:18 | 51.42251 | 7.87068 | 349° | 16km/h | 27900m | -22.7m/s | -47.0°C | 3.0% | 17.2hPa | 2.5V | 00:00:00 | 02:20:44 | 00:00:00 | |
| DL1XH1-15 | 2026-09-02 00:38:17 | 51.42222 | 7.87064 | 19° | 24km/h | 28052m | -23.6m/s | -47.4°C | 3.2% | 16.9hPa | 2.5V | 08:27:29 | 02:20:38 | 00:00:00 | |
| BIOWL1-15 | 2026-09-02 00:38:17 | 51.42222 | 7.87064 | 19° | 24km/h | 28052m | -23.6m/s | -47.4°C | 0% | 16.9hPa | 2.5V | 08:27:52 | 02:20:38 | 00:00:00 | |
| DF7PN | 2026-09-02 00:38:17 | 51.42247 | 7.87069 | 354° | 15km/h | 27924m | -25.4m/s | -47.0°C | 0.6% | 17.2hPa | 2.5V | 00:00:00 | 00:00:00 | 00:00:00 | |
| DL8DAS-15 | 2026-09-02 00:38:16 | 51.42242 | 7.87069 | 2° | 18km/h | 27951m | -28.2m/s | -47.0°C | 0.7% | 17.1hPa | 2.5V | 00:00:00 | 00:00:00 | 00:00:00 | |
| DL4XJ-10 | 2026-09-02 00:38:15 | 51.42238 | 7.87069 | 5° | 15km/h | 27978m | -27.4m/s | -46.6°C | 0% | 0hPa | 2.5V | 00:00:00 | 00:00:00 | 00:00:00 | |
| DL1XH-15 | 2026-09-02 00:38:14 | 51.42217 | 7.87060 | 29° | 26km/h | 28078m | -27.4m/s | -47.4°C | 3.2% | 16.8hPa | 2.5V | 08:27:30 | 02:20:37 | 00:00:00 | |
| DL1XH-west | 2026-09-02 00:38:14 | 51.42233 | 7.87068 | 8° | 20km/h | 28005m | -25.6m/s | -47.3°C | 0% | 17hPa | 2.6V | 08:27:52 | 02:20:40 | 00:00:00 | |
| DF8AY | 2026-09-02 00:38:10 | 51.42211 | 7.87055 | 34° | 26km/h | 28103m | -22.8m/s | 0°C | 0% | 16.7hPa | 2.6V | 08:28:43 | 02:20:36 | 00:00:00 | |
| DO2JMG | 2026-09-02 00:38:08 | 51.42201 | 7.87041 | 47° | 26km/h | 28147m | -25.3m/s | -47.3°C | 0% | 16.6hPa | 2.5V | 08:27:52 | 02:20:34 | 00:00:00 | |
| DM0DOS-11 | 2026-09-02 00:38:08 | 51.42184 | 7.87005 | 64° | 13km/h | 28307m | -26.3m/s | -46.7°C | 3% | 16.2hPa | 2.5V | 08:27:39 | 02:20:28 | 00:00:00 | |
| BIOWL1-15 | 2026-09-02 00:38:07 | 51.42183 | 7.86995 | 89° | 13km/h | 28363m | -28.7m/s | -46.6°C | 0% | 16.1hPa | 2.6V | 08:27:52 | 02:20:26 | 00:00:00 | |
| AA1-15 | 2026-09-02 00:38:05 | 51.42191 | 7.87021 | 54° | 18km/h | 28230m | -28.6m/s | -46.9°C | 0% | 16.4hPa | 2.6V | 08:27:52 | 02:20:31 | 00:00:00 | |
| DL1XH-west | 2026-09-02 00:38:04 | 51.42188 | 7.87015 | 54° | 16km/h | 28257m | -25.3m/s | -46.9°C | 0% | 16.4hPa | 2.6V | 08:27:52 | 02:20:30 | 00:00:00 | |
| HSKMA3-T | 2026-09-02 00:38:03 | 51.42186 | 7.87010 | 57° | 13km/h | 28282m | -25.1m/s | -46.8°C | 0% | 16.3hPa | 2.5V | 08:27:52 | 02:20:29 | 00:00:00 | |
| DL1XH-15 | 2026-09-02 00:38:01 | 51.42184 | 7.87000 | 79° | 13km/h | 28334m | -28.6m/s | -46.6°C | 3% | 16.1hPa | 2.5V | 08:27:40 | 02:20:27 | 00:00:00 | |
| DF8AY | 2026-09-02 00:37:58 | 51.42184 | 7.86985 | 96° | 13km/h | 28418m | -27.2m/s | 0°C | 0% | 16hPa | 2.5V | 08:28:43 | 02:20:24 | 00:00:00 | |
| DL8DAS-14 | 2026-09-02 00:37:58 | 51.42184 | 7.86985 | 95° | 13km/h | 28418m | -27.2m/s | -46.7°C | 0.6% | 16.0hPa | 2.5V | 00:00:00 | 00:00:00 | 00:00:00 | |
| DL1XH1-15 | 2026-09-02 00:37:57 | 51.42179 | 7.86973 | 338° | 11km/h | 28581m | -25m/s | -46.5°C | 3% | 15.5hPa | 2.5V | 08:27:49 | 02:20:18 | 00:00:00 | |
| DJ8HS-15 | 2026-09-02 00:37:56 | 51.42184 | 7.86976 | 94° | 9km/h | 28473m | -27.5m/s | -46.5°C | 3.0% | 15.8hPa | 2.5V | 00:00:00 | 02:20:22 | 00:00:00 | |
| DM0DOS-11 | 2026-09-02 00:37:55 | 51.42182 | 7.86972 | 349° | 7km/h | 28555m | -27.4m/s | -46.5°C | 3% | 15.6hPa | 2.5V | 08:27:48 | 02:20:19 | 00:00:00 | |
| AA1-15 | 2026-09-02 00:37:55 | 51.42184 | 7.86973 | 70° | 7km/h | 28500m | -26.9m/s | -46.6°C | 0% | 15.8hPa | 2.6V | 08:27:52 | 02:20:21 | 00:00:00 | |
| DL1XH-west | 2026-09-02 00:37:53 | 51.42182 | 7.86972 | 350° | 7km/h | 28555m | -27.4m/s | -46.6°C | 0% | 15.6hPa | 2.5V | 08:27:52 | 02:20:19 | 00:00:00 | |
| SO1NDE-10 | 2026-09-02 00:37:53 | 51.42182 | 7.86972 | 350° | 9km/h | 28555m | -27.3m/s | -46.5°C | 3.0% | 15.6hPa | 2.5V | 00:00:00 | 02:20:19 | 00:00:00 | |
| DL1NUX | 2026-09-02 00:37:52 | 51.42165 | 7.86981 | 357° | 9km/h | 28701m | -28.4m/s | -46°C | 2.9% | 15.3hPa | 2.5V | 08:27:54 | 02:20:13 | 00:00:00 | |
| HSKMA3-T | 2026-09-02 00:37:52 | 51.42179 | 7.86973 | 339° | 11km/h | 28581m | -25m/s | -46.5°C | 0% | 15.5hPa | 2.5V | 08:27:52 | 02:20:18 | 00:00:00 | |
| DL3AQ-11 | 2026-09-02 00:37:52 | 51.42176 | 7.86975 | 336° | 13km/h | 28604m | -21.5m/s | -46.5°C | 0.6% | 15.5hPa | 2.5V | 00:00:00 | 00:00:00 | 00:00:00 | |
| DD8BA-10 | 2026-09-02 00:37:51 | 51.42176 | 7.86975 | 337° | 11km/h | 28604m | -21.4m/s | -46.5°C | 3.0% | 15.4hPa | 2.5V | 00:00:00 | 00:00:00 | 00:00:00 | |
| GOEST3-10 | 2026-09-02 00:37:50 | 51.42173 | 7.86977 | 337° | 11km/h | 28627m | -24.5m/s | -46.4°C | 3.0% | 15.4hPa | 2.5V | 00:00:00 | 02:20:16 | 00:00:00 | |
| DB0UT-7 | 2026-09-02 00:37:49 | 51.42170 | 7.86979 | 341° | 11km/h | 28651m | -23.5m/s | -46.3°C | 3.0% | 15.3hPa | 2.5V | 00:00:00 | 02:20:15 | 00:00:00 | |
| DM0DOS-11 | 2026-09-02 00:37:48 | 51.42159 | 7.86973 | 75° | 9km/h | 28821m | -29.1m/s | -45.9°C | 2.8% | 15hPa | 2.5V | 08:27:58 | 02:20:09 | 00:00:00 | |
| DO2JMG | 2026-09-02 00:37:47 | 51.42165 | 7.86981 | 358° | 9km/h | 28701m | -28.4m/s | -46°C | 0% | 15.3hPa | 2.5V | 18:12:15 | 02:20:13 | 00:00:00 | |
| DF7PN | 2026-09-02 00:37:46 | 51.42163 | 7.86981 | 25° | 7km/h | 28731m | -31.2m/s | -45.9°C | 0.6% | 15.2hPa | 2.6V | 00:00:00 | 00:00:00 | 00:00:00 | |
| DF8AY | 2026-09-02 00:37:45 | 51.42157 | 7.86957 | 68° | 9km/h | 28929m | -28.8m/s | 0°C | 0% | 14.8hPa | 2.6V | 08:28:43 | 02:20:05 | 00:00:00 | |
| AA1-15 | 2026-09-02 00:37:45 | 51.42160 | 7.86976 | 64° | 9km/h | 28791m | -31.2m/s | -45.8°C | 0% | 15.1hPa | 2.6V | 08:28:43 | 02:20:10 | 00:00:00 | |
| DL1XH-15 | 2026-09-02 00:37:45 | 51.42158 | 7.86965 | 77° | 11km/h | 28875m | -23.9m/s | -46°C | 2.8% | 14.9hPa | 2.5V | 08:28:00 | 02:20:07 | 00:00:00 | |
| DL1XH1-15 | 2026-09-02 00:37:43 | 51.42159 | 7.86969 | 77° | 11km/h | 28849m | -27.3m/s | -45.9°C | 2.8% | 14.9hPa | 2.5V | 08:27:59 | 02:20:08 | 00:00:00 | |
| DL1XH-west | 2026-09-02 00:37:43 | 51.42159 | 7.86973 | 75° | 9km/h | 28821m | -29.1m/s | -45.9°C | 0% | 15hPa | 2.5V | 08:28:43 | 02:20:09 | 00:00:00 | |
| BIOWL1-15 | 2026-09-02 00:37:42 | 51.42159 | 7.86969 | 78° | 11km/h | 28849m | -27.3m/s | -45.9°C | 0% | 15hPa | 2.5V | 08:28:43 | 02:20:08 | 00:00:00 | |
| HSKMA3-T | 2026-09-02 00:37:41 | 51.42158 | 7.86965 | 78° | 11km/h | 28875m | -23.9m/s | -46°C | 0% | 14.9hPa | 2.5V | 08:28:43 | 02:20:07 | 00:00:00 | |
| DD8BA-10 | 2026-09-02 00:37:41 | 51.42158 | 7.86965 | 78° | 9km/h | 28875m | -23.8m/s | -45.9°C | 2.8% | 14.8hPa | 2.5V | 00:00:00 | 00:00:00 | 00:00:00 | |
| DL3AQ-11 | 2026-09-02 00:37:39 | 51.42156 | 7.86954 | 62° | 7km/h | 28957m | -25.9m/s | -45.9°C | 0.6% | 14.7hPa | 2.5V | 00:00:00 | 00:00:00 | 00:00:00 | |
| DL1XH1-15 | 2026-09-02 00:37:37 | 51.42150 | 7.86938 | 65° | 9km/h | 29094m | -20.2m/s | -46.3°C | 3.1% | 14.4hPa | 2.5V | 08:28:09 | 02:19:58 | 00:00:00 | |
| DO2JMG | 2026-09-02 00:37:36 | 51.42154 | 7.86950 | 50° | 7km/h | 29005m | -22.3m/s | -46.1°C | 0% | 14.6hPa | 2.5V | 18:12:15 | 02:20:02 | 00:00:00 | |
| DJ8HS-15 | 2026-09-02 00:37:36 | 51.42154 | 7.86950 | 51° | 13km/h | 29005m | -22.2m/s | -46.0°C | 2.9% | 14.5hPa | 2.5V | 00:00:00 | 02:20:02 | 00:00:00 | |
| DM0DOS-11 | 2026-09-02 00:37:35 | 51.42151 | 7.86942 | 69° | 9km/h | 29072m | -23.1m/s | -46.3°C | 3% | 14.4hPa | 2.5V | 08:28:08 | 02:19:59 | 00:00:00 | |
| AA1-15 | 2026-09-02 00:37:34 | 51.42152 | 7.86945 | 65° | 7km/h | 29050m | -22.9m/s | -46.2°C | 0% | 14.5hPa | 2.6V | 08:28:43 | 02:20:00 | 00:00:00 | |
| DL1XH-15 | 2026-09-02 00:37:34 | 51.42149 | 7.86935 | 61° | 9km/h | 29114m | -19.7m/s | -46.2°C | 3% | 14.3hPa | 2.5V | 08:28:10 | 02:19:57 | 00:00:00 | |
| DL1XH-west | 2026-09-02 00:37:33 | 51.42151 | 7.86942 | 70° | 9km/h | 29072m | -23.1m/s | -46.3°C | 0% | 14.4hPa | 2.5V | 08:28:43 | 02:19:59 | 00:00:00 | |
| BIOWL1-15 | 2026-09-02 00:37:32 | 51.42137 | 7.86904 | 90° | 20km/h | 29344m | -32.2m/s | -45.6°C | 0% | 13.9hPa | 2.5V | 08:28:43 | 02:19:48 | 00:00:00 | |
| HSKMA3-T | 2026-09-02 00:37:31 | 51.42149 | 7.86935 | 61° | 9km/h | 29114m | -19.7m/s | -46.2°C | 0% | 14.3hPa | 2.5V | 08:28:43 | 02:19:57 | 00:00:00 | |
| DD8BA-10 | 2026-09-02 00:37:31 | 51.42149 | 7.86935 | 62° | 11km/h | 29114m | -19.7m/s | -46.2°C | 3.0% | 14.3hPa | 2.5V | 00:00:00 | 00:00:00 | 00:00:00 | |
| HTAHTA | 2026-09-02 00:37:30 | 51.42148 | 7.86932 | 51° | 9km/h | 29136m | -22.6m/s | -46.2°C | 0.6% | 14.3hPa | 2.6V | 00:00:00 | 00:00:00 | 00:00:00 | |
| GOEST3-10 | 2026-09-02 00:37:29 | 51.42146 | 7.86929 | 43° | 9km/h | 29158m | -23.2m/s | -46.1°C | 3.1% | 14.2hPa | 2.6V | 08:28:00 | 02:19:55 | 00:00:00 | |
| DM0DOS-11 | 2026-09-02 00:37:28 | 51.42137 | 7.86911 | 87° | 16km/h | 29310m | -34.3m/s | -45.6°C | 3% | 13.9hPa | 2.5V | 08:28:18 | 02:19:49 | 00:00:00 | |
| DL8DAS-14 | 2026-09-02 00:37:27 | 51.42142 | 7.86924 | 30° | 9km/h | 29204m | -23.3m/s | -46.1°C | 0.6% | 14.1hPa | 2.5V | 00:00:00 | 00:00:00 | 00:00:00 | |
| DO3DL | 2026-09-02 00:37:26 | 51.42142 | 7.86924 | 32° | 9km/h | 29204m | -23.3m/s | -46.1°C | 0.6% | 14.1hPa | 2.5V | 08:28:00 | 00:00:00 | 00:00:00 | |
| DL1XH-15 | 2026-09-02 00:37:24 | 51.42137 | 7.86896 | 91° | 22km/h | 29374m | -27.9m/s | -45.5°C | 2.9% | 13.8hPa | 2.5V | 08:28:20 | 02:19:47 | 00:00:00 | |
| DL1XH1-15 | 2026-09-02 00:37:23 | 51.42137 | 7.86904 | 89° | 20km/h | 29344m | -32.2m/s | -45.6°C | 2.9% | 13.9hPa | 2.5V | 08:28:19 | 02:19:48 | 00:00:00 | |
| DL1XH-west | 2026-09-02 00:37:23 | 51.42137 | 7.86911 | 88° | 16km/h | 29310m | -34.3m/s | -45.6°C | 0% | 13.9hPa | 2.5V | 08:28:43 | 02:19:49 | 00:00:00 | |
| HSKMA3-T | 2026-09-02 00:37:20 | 51.42137 | 7.86887 | 93° | 22km/h | 29400m | -24.9m/s | -45.5°C | 0% | 13.8hPa | 2.6V | 08:28:43 | 02:19:46 | 00:00:00 | |
| BIOWL1-15 | 2026-09-02 00:37:19 | 51.42137 | 7.86878 | 92° | 22km/h | 29424m | -21.9m/s | -45.4°C | 0% | 13.7hPa | 2.6V | 08:28:43 | 02:19:45 | 00:00:00 | |
| DB0UT-7 | 2026-09-02 00:37:19 | 51.42137 | 7.86878 | 92° | 11km/h | 29424m | -21.8m/s | -45.4°C | 2.9% | 13.6hPa | 2.5V | 00:00:00 | 00:00:00 | 00:00:00 | |
| DJ2KF-10 | 2026-09-02 00:37:18 | 51.42138 | 7.86869 | 95° | 9km/h | 29447m | -24.0m/s | -45.3°C | 2.9% | 13.6hPa | 2.5V | 00:00:00 | 02:19:44 | 00:00:00 | |
| DL1XH1-15 | 2026-09-02 00:37:17 | 51.42139 | 7.86832 | 100° | 11km/h | 29598m | -27.1m/s | -44.5°C | 2.7% | 13.3hPa | 2.5V | 08:28:29 | 02:19:38 | 00:00:00 | |
| DO2JMG | 2026-09-02 00:37:14 | 51.42139 | 7.86842 | 98° | 15km/h | 29546m | -25.8m/s | -45°C | 0% | 13.4hPa | 2.6V | 18:12:15 | 02:19:40 | 00:00:00 | |
| DL1XH-west | 2026-09-02 00:37:12 | 51.42139 | 7.86832 | 100° | 11km/h | 29598m | -27.1m/s | -44.5°C | 0% | 13.3hPa | 2.5V | 08:28:43 | 02:19:38 | 00:00:00 | |
| HSKMA3-T | 2026-09-02 00:37:09 | 51.42141 | 7.86821 | 99° | 9km/h | 29685m | -32.9m/s | -44.2°C | 0% | 13.2hPa | 2.6V | 08:28:43 | 02:19:35 | 00:00:00 | |
| BIOWL1-15 | 2026-09-02 00:37:08 | 51.42142 | 7.86807 | 105° | 7km/h | 29803m | -26.2m/s | -44.2°C | 0% | 12.9hPa | 2.6V | 08:28:43 | 02:19:31 | 00:00:00 | |
| DM0DOS-11 | 2026-09-02 00:37:08 | 51.42144 | 7.86801 | 118° | 7km/h | 29859m | -26.9m/s | -44.3°C | 2.7% | 12.8hPa | 2.5V | 08:28:38 | 02:19:29 | 00:00:00 | |
| DJ3KS | 2026-09-02 00:37:08 | 51.42141 | 7.86817 | 99° | 9km/h | 29718m | -33.2m/s | -44.2°C | 0.6% | 13.1hPa | 2.5V | 00:00:00 | 00:00:00 | 00:00:00 | |
| DO2SHX-10 | 2026-09-02 00:37:06 | 51.42142 | 7.86810 | 100° | 9km/h | 29777m | -26.9m/s | -44.3°C | 2.7% | 12.9hPa | 2.5V | 00:00:00 | 02:19:32 | 00:00:00 | |
| GOEST3-10 | 2026-09-02 00:37:04 | 51.42143 | 7.86804 | 115° | 9km/h | 29831m | -28.6m/s | -44.2°C | 2.7% | 12.8hPa | 2.5V | 00:00:00 | 00:00:00 | 00:00:00 | |
| DO1YAY-16 | 2026-09-02 00:37:03 | 51.42144 | 7.86801 | 118° | 7km/h | 29859m | -26.9m/s | -44.3°C | 0.6% | 12.8hPa | 2.5V | 00:00:00 | 00:00:00 | 00:00:00 | |
| DL1NUX | 2026-09-02 00:37:02 | 51.42151 | 7.86781 | 121° | 11km/h | 30024m | -26.2m/s | -44.6°C | 2.8% | 12.5hPa | 2.5V | 08:28:44 | 02:19:23 | 00:00:00 | |
| DL1XH-west | 2026-09-02 00:37:02 | 51.42145 | 7.86798 | 117° | 7km/h | 29885m | -27m/s | -44.4°C | 0% | 12.8hPa | 2.5V | 08:28:43 | 02:19:28 | 00:00:00 | |
| AA1-15 | 2026-09-02 00:37:01 | 51.42146 | 7.86795 | 119° | 7km/h | 29913m | -28m/s | -44.5°C | 0% | 12.7hPa | 2.5V | 08:28:43 | 02:19:27 | 00:00:00 | |
| HSKMA3-T | 2026-09-02 00:36:58 | 51.42150 | 7.86785 | 120° | 11km/h | 29998m | -27m/s | -44.6°C | 0% | 12.5hPa | 2.5V | 08:28:43 | 02:19:24 | 00:00:00 | |
| BIOWL1-15 | 2026-09-02 00:36:58 | 51.42152 | 7.86777 | 117° | 11km/h | 30050m | -25.7m/s | -44.6°C | 0% | 12.5hPa | 2.5V | 08:29:34 | 02:19:22 | 00:00:00 | |
| DL1XH1-15 | 2026-09-02 00:36:57 | 51.42157 | 7.86765 | 125° | 5km/h | 30171m | -31.2m/s | -44.4°C | 2.8% | 12.2hPa | 2.5V | 08:28:49 | 02:19:18 | 00:00:00 | |
| DJ8HS-15 | 2026-09-02 00:36:56 | 51.42152 | 7.86777 | 118° | 7km/h | 30051m | -25.7m/s | -44.5°C | 2.8% | 12.4hPa | 2.5V | 00:00:00 | 02:19:22 | 00:00:00 | |
| DD1CC1-15 | 2026-09-02 00:36:55 | 51.42152 | 7.86777 | 118° | 11km/h | 30051m | -25.7m/s | -44.6°C | 0.6% | 12.5hPa | 2.5V | 08:29:00 | 00:00:00 | 00:00:00 | |
| DM0DOS-11 | 2026-09-02 00:36:54 | 51.42156 | 7.86768 | 120° | 7km/h | 30140m | -29.9m/s | -44.4°C | 2.8% | 12.3hPa | 2.5V | 08:28:48 | 02:19:19 | 00:00:00 | |
| DL1XH-west | 2026-09-02 00:36:52 | 51.42157 | 7.86765 | 126° | 5km/h | 30171m | -31.2m/s | -44.4°C | 0% | 12.2hPa | 2.5V | 08:29:34 | 02:19:18 | 00:00:00 | |
| AA1-15 | 2026-09-02 00:36:51 | 51.42158 | 7.86764 | 137° | 4km/h | 30202m | -30.4m/s | -44.5°C | 0% | 12.2hPa | 2.5V | 08:29:34 | 02:19:17 | 00:00:00 | |
| EDDB2-12 | 2026-09-02 00:36:49 | 51.42160 | 7.86762 | 161° | 4km/h | 30289m | -27.2m/s | -44.3°C | 0.6% | 12.0hPa | 2.5V | 00:00:00 | 00:00:00 | 00:00:00 | |
| DM0DOS-11 | 2026-09-02 00:36:48 | 51.42171 | 7.86759 | 158° | 13km/h | 30443m | -30.9m/s | -43.5°C | 2.6% | 11.7hPa | 2.5V | 08:28:58 | 02:19:09 | 00:00:00 | |
| DF8AY | 2026-09-02 00:36:47 | 51.42163 | 7.86762 | 179° | 9km/h | 30348m | -32.1m/s | 0°C | 0% | 11.9hPa | 2.5V | 18:12:15 | 02:19:12 | 00:00:00 | |
| HSKMA3-T | 2026-09-02 00:36:47 | 51.42161 | 7.86762 | 183° | 5km/h | 30318m | -29.8m/s | -44.1°C | 0% | 12hPa | 2.5V | 08:29:34 | 02:19:13 | 00:00:00 | |
| BIOWL1-15 | 2026-09-02 00:36:45 | 51.42165 | 7.86761 | 174° | 9km/h | 30380m | -31.4m/s | -43.6°C | 0% | 11.8hPa | 2.6V | 08:29:34 | 02:19:11 | 00:00:00 | |
| DL1XH-15 | 2026-09-02 00:36:44 | 51.42176 | 7.86755 | 150° | 11km/h | 30503m | -30.1m/s | -43.6°C | 2.7% | 11.6hPa | 2.5V | 08:30:00 | 02:19:07 | 00:00:00 | |
| DL1XH1-15 | 2026-09-02 00:36:43 | 51.42173 | 7.86757 | 154° | 13km/h | 30473m | -30.1m/s | -43.6°C | 2.6% | 11.6hPa | 2.5V | 08:28:59 | 02:19:08 | 00:00:00 | |
| DL1NUX | 2026-09-02 00:36:42 | 51.42184 | 7.86751 | 215° | 4km/h | 30624m | -27.7m/s | -43.6°C | 2.7% | 11.4hPa | 2.5V | 08:29:04 | 02:19:03 | 00:00:00 | |
| DL1XH-west | 2026-09-02 00:36:41 | 51.42176 | 7.86755 | 151° | 11km/h | 30503m | -30.1m/s | -43.7°C | 0% | 11.6hPa | 2.5V | 08:29:34 | 02:19:07 | 00:00:00 | |
| AA1-15 | 2026-09-02 00:36:40 | 51.42179 | 7.86753 | 155° | 11km/h | 30534m | -30.2m/s | -43.7°C | 0% | 11.6hPa | 2.6V | 08:29:34 | 02:19:06 | 00:00:00 | |
| EDDB2-11 | 2026-09-02 00:36:40 | 51.42181 | 7.86751 | 165° | 7km/h | 30565m | -31.9m/s | -43.7°C | 0.6% | 11.5hPa | 2.5V | 00:00:00 | 00:00:00 | 00:00:00 | |
| GOEST3-10 | 2026-09-02 00:36:39 | 51.42181 | 7.86751 | 166° | 5km/h | 30565m | -31.9m/s | -43.7°C | 2.7% | 11.5hPa | 2.5V | 00:00:00 | 02:19:05 | 00:00:00 | |
| DL1XH1-15 | 2026-09-02 00:36:37 | 51.42179 | 7.86762 | 337° | 11km/h | 30758m | -25.9m/s | -43°C | 2.6% | 11.2hPa | 2.5V | 08:29:09 | 02:18:58 | 00:00:00 | |
| DF8AY | 2026-09-02 00:36:36 | 51.42184 | 7.86754 | 288° | 7km/h | 30678m | -25.7m/s | 0°C | 0% | 11.3hPa | 2.6V | 18:12:15 | 02:19:01 | 00:00:00 | |
| HSKMA3-T | 2026-09-02 00:36:36 | 51.42184 | 7.86752 | 262° | 4km/h | 30652m | -27.3m/s | -43.5°C | 0% | 11.3hPa | 2.5V | 08:29:34 | 02:19:02 | 00:00:00 | |
| DJ8HS-15 | 2026-09-02 00:36:36 | 51.42184 | 7.86752 | 262° | 11km/h | 30652m | -27.3m/s | -43.4°C | 2.7% | 11.3hPa | 2.5V | 08:29:00 | 02:19:02 | 00:00:00 | |
| DL1XH-15 | 2026-09-02 00:36:34 | 51.42177 | 7.86763 | 346° | 9km/h | 30783m | -23.9m/s | -43°C | 2.7% | 11.1hPa | 2.5V | 08:30:00 | 02:18:57 | 00:00:00 | |
| BIOWL1-15 | 2026-09-02 00:36:34 | 51.42179 | 7.86762 | 337° | 11km/h | 30758m | -25.9m/s | -43°C | 0% | 11.2hPa | 2.5V | 08:29:34 | 02:18:58 | 00:00:00 | |
| DL1XH-west | 2026-09-02 00:36:30 | 51.42175 | 7.86763 | 15° | 9km/h | 30808m | -26m/s | -42.9°C | 0% | 11.1hPa | 2.6V | 08:29:34 | 02:18:56 | 00:00:00 | |
| AA1-15 | 2026-09-02 00:36:30 | 51.42173 | 7.86762 | 44° | 9km/h | 30834m | -26.2m/s | -43°C | 0% | 11hPa | 2.6V | 08:29:34 | 02:18:55 | 00:00:00 | |
| DD1CC2-15 | 2026-09-02 00:36:29 | 51.42175 | 7.86763 | 16° | 9km/h | 30808m | -26.0m/s | -42.9°C | 0.6% | 11.1hPa | 2.5V | 08:29:00 | 00:00:00 | 00:00:00 | |
| DL1NUX | 2026-09-02 00:36:27 | 51.42170 | 7.86755 | 67° | 13km/h | 30882m | -23.6m/s | -42.9°C | 2.7% | 10.9hPa | 2.5V | 08:29:14 | 02:18:53 | 00:00:00 | |
| DL1XH-15 | 2026-09-02 00:36:26 | 51.42166 | 7.86720 | 78° | 15km/h | 31044m | -29m/s | -42.1°C | 2.5% | 10.7hPa | 2.5V | 08:30:00 | 02:18:47 | 00:00:00 | |
| DM0DOS-11 | 2026-09-02 00:36:25 | 51.42167 | 7.86732 | 81° | 16km/h | 30985m | -30.2m/s | -42.2°C | 2.6% | 10.8hPa | 2.5V | 08:29:18 | 02:18:49 | 00:00:00 | |
| HSKMA3-T | 2026-09-02 00:36:25 | 51.42168 | 7.86744 | 79° | 15km/h | 30929m | -25m/s | -42.6°C | 0% | 10.9hPa | 2.6V | 08:29:34 | 02:18:51 | 00:00:00 | |
| DF8AY | 2026-09-02 00:36:22 | 51.42140 | 7.86666 | 34° | 18km/h | 31376m | -26.2m/s | 0°C | 0% | 10.2hPa | 2.6V | 18:12:15 | 02:18:36 | 00:00:00 | |
| BIOWL1-15 | 2026-09-02 00:36:21 | 51.42166 | 7.86720 | 79° | 15km/h | 31044m | -29m/s | -42.2°C | 0% | 10.7hPa | 2.5V | 08:29:34 | 02:18:47 | 00:00:00 | |
| DL1XH-west | 2026-09-02 00:36:20 | 51.42165 | 7.86714 | 82° | 13km/h | 31072m | -26.3m/s | -42.1°C | 0% | 10.7hPa | 2.6V | 08:29:34 | 02:18:46 | 00:00:00 | |
| GOEST3-10 | 2026-09-02 00:36:19 | 51.42164 | 7.86709 | 75° | 13km/h | 31100m | -28.9m/s | -42.0°C | 2.5% | 10.6hPa | 2.5V | 00:00:00 | 02:18:45 | 00:00:00 | |
| DM0DOS-11 | 2026-09-02 00:36:18 | 51.42151 | 7.86681 | 45° | 18km/h | 31293m | -29.8m/s | -40.9°C | 2.3% | 10.3hPa | 2.5V | 08:29:28 | 02:18:39 | 00:00:00 | |
| AA1-15 | 2026-09-02 00:36:18 | 51.42163 | 7.86705 | 61° | 13km/h | 31131m | -32.6m/s | -41.8°C | 0% | 10.5hPa | 2.5V | 08:29:34 | 02:18:44 | 00:00:00 | |
| EDDB2-12 | 2026-09-02 00:36:18 | 51.42162 | 7.86700 | 63° | 11km/h | 31163m | -31.1m/s | -41.6°C | 0.5% | 10.5hPa | 2.5V | 00:00:00 | 00:00:00 | 00:00:00 | |
| DL1XH1-15 | 2026-09-02 00:36:17 | 51.42148 | 7.86675 | 41° | 18km/h | 31322m | -27.7m/s | -40.8°C | 2.3% | 10.3hPa | 2.5V | 08:29:29 | 02:18:38 | 00:00:00 | |
| HSKMA3-T | 2026-09-02 00:36:14 | 51.42154 | 7.86686 | 45° | 18km/h | 31261m | -33.5m/s | -40.9°C | 0% | 10.3hPa | 2.6V | 08:29:34 | 02:18:40 | 00:00:00 | |
| DL4BBY-15 | 2026-09-02 00:36:14 | 51.42154 | 7.86686 | 45° | 20km/h | 31262m | -33.4m/s | -40.3°C | 0% | 0hPa | 2.5V | 00:00:00 | 00:00:00 | 00:00:00 | |
| DF7PN | 2026-09-02 00:36:13 | 51.42148 | 7.86675 | 41° | 18km/h | 31322m | -27.7m/s | -40.8°C | 0.5% | 10.3hPa | 2.5V | 00:00:00 | 00:00:00 | 00:00:00 | |
| DL1NUX | 2026-09-02 00:36:12 | 51.42128 | 7.86657 | 20° | 16km/h | 31449m | -21.1m/s | -40.9°C | 2.3% | 10hPa | 2.5V | 08:29:34 | 02:18:33 | 00:00:00 | |
| BIOWL1-15 | 2026-09-02 00:36:11 | 51.42103 | 7.86629 | 48° | 31km/h | 31592m | -32.7m/s | -40.7°C | 0% | 9.8hPa | 2.5V | 18:12:15 | 02:18:28 | 00:00:00 | |
| DL1XH-west | 2026-09-02 00:36:09 | 51.42136 | 7.86663 | 28° | 18km/h | 31401m | -23.4m/s | -40.8°C | 0% | 10.1hPa | 2.6V | 08:29:34 | 02:18:35 | 00:00:00 | |
| AA1-15 | 2026-09-02 00:36:07 | 51.42128 | 7.86657 | 21° | 16km/h | 31449m | -21.1m/s | -40.9°C | 0% | 10hPa | 2.5V | 08:29:34 | 02:18:33 | 00:00:00 | |
| DO2JMG | 2026-09-02 00:36:05 | 51.42119 | 7.86650 | 32° | 24km/h | 31495m | -28.1m/s | -40.7°C | 0% | 10hPa | 2.6V | 18:12:15 | 02:18:31 | 00:00:00 | |
| HSKMA3-T | 2026-09-02 00:36:04 | 51.42114 | 7.86645 | 37° | 26km/h | 31525m | -32.3m/s | -40.7°C | 0% | 9.9hPa | 2.6V | 18:12:15 | 02:18:30 | 00:00:00 | |
| DL1XH1-15 | 2026-09-02 00:36:03 | 51.42103 | 7.86629 | 47° | 31km/h | 31592m | -32.7m/s | -40.6°C | 2.3% | 9.8hPa | 2.5V | 08:30:00 | 02:18:28 | 00:00:00 | |
| DL1NUX | 2026-09-02 00:36:02 | 51.42086 | 7.86578 | 85° | 22km/h | 31769m | -39.6m/s | -39.8°C | 2.2% | 9.6hPa | 2.5V | 08:30:00 | 02:18:23 | 00:00:00 | |
| DL1XH-west | 2026-09-02 00:35:59 | 51.42090 | 7.86597 | 64° | 29km/h | 31693m | -34.8m/s | -40.3°C | 0% | 9.7hPa | 2.6V | 18:12:15 | 02:18:25 | 00:00:00 | |
| GOEST3-10 | 2026-09-02 00:35:59 | 51.42090 | 7.86597 | 65° | 22km/h | 31693m | -34.7m/s | -40.2°C | 2.2% | 9.7hPa | 2.6V | 00:00:00 | 02:18:25 | 08:30:00 | |
| DM0DOS-11 | 2026-09-02 00:35:58 | 51.42088 | 7.86550 | 89° | 13km/h | 31921m | -35.5m/s | -39.6°C | 2.1% | 9.4hPa | 2.5V | 08:30:00 | 02:18:19 | 00:00:00 | |
| BIOWL9-15 | 2026-09-02 00:35:58 | 51.42088 | 7.86587 | 75° | 24km/h | 31730m | -38.5m/s | -40.0°C | 0.4% | 9.7hPa | 2.6V | 00:00:00 | 00:00:00 | 00:00:00 | |
| DL1XH-15 | 2026-09-02 00:35:57 | 51.42087 | 7.86562 | 95° | 18km/h | 31847m | -37.1m/s | -39.6°C | 2.1% | 9.5hPa | 2.6V | 08:30:00 | 02:18:21 | 00:00:00 | |
| AA1-15 | 2026-09-02 00:35:56 | 51.42087 | 7.86570 | 95° | 20km/h | 31809m | -39.9m/s | -39.7°C | 0% | 9.6hPa | 2.5V | 18:12:15 | 02:18:22 | 00:00:00 | |
| BIOWL1-15 | 2026-09-02 00:35:55 | 51.42087 | 7.86562 | 96° | 18km/h | 31847m | -37.1m/s | -39.6°C | 0% | 9.5hPa | 2.6V | 18:12:15 | 02:18:21 | 00:00:00 | |
| DO2JMG | 2026-09-02 00:35:54 | 51.42087 | 7.86556 | 100° | 15km/h | 31885m | -37.4m/s | -39.6°C | 0% | 9.4hPa | 2.6V | 18:12:15 | 02:18:20 | 00:00:00 | |
| HSKMA3-T | 2026-09-02 00:35:53 | 51.42088 | 7.86550 | 89° | 13km/h | 31921m | -35.5m/s | -39.6°C | 0% | 9.4hPa | 2.5V | 18:12:15 | 02:18:19 | 00:00:00 | |
| SO1NDE-10 | 2026-09-02 00:35:53 | 51.42088 | 7.86550 | 90° | 20km/h | 31921m | -35.4m/s | -39.6°C | 2.1% | 9.3hPa | 2.5V | 00:00:00 | 02:18:19 | 00:00:00 | |
| DL1NUX | 2026-09-02 00:35:52 | 51.42076 | 7.86515 | 66° | 20km/h | 32134m | -36.2m/s | -40.1°C | 2.2% | 9.1hPa | 2.5V | 08:30:00 | 02:18:13 | 00:00:00 | |
| DJ2DS-15 | 2026-09-02 00:35:52 | 51.42087 | 7.86545 | 76° | 20km/h | 31957m | -36.4m/s | -39.7°C | 2.1% | 9.3hPa | 2.6V | 00:00:00 | 02:18:18 | 00:00:00 | |
| DD8BA-10 | 2026-09-02 00:35:51 | 51.42086 | 7.86540 | 59° | 18km/h | 31994m | -37.3m/s | -39.8°C | 2.1% | 9.2hPa | 2.6V | 00:00:00 | 00:00:00 | 00:00:00 | |
| DL1XH-15 | 2026-09-02 00:35:50 | 51.42075 | 7.86501 | 105° | 16km/h | 32212m | -40.5m/s | -40.3°C | 2.2% | 9hPa | 2.6V | 08:30:00 | 02:18:11 | 00:00:00 | |
| DL1XH-west | 2026-09-02 00:35:48 | 51.42078 | 7.86522 | 58° | 20km/h | 32098m | -35.5m/s | -40.1°C | 0% | 9.1hPa | 2.5V | 18:12:15 | 02:18:14 | 00:00:00 | |
| DM0DOS-11 | 2026-09-02 00:35:48 | 51.42078 | 7.86488 | 125° | 18km/h | 32288m | -34.9m/s | -40.5°C | 2.3% | 8.9hPa | 2.5V | 08:30:00 | 02:18:09 | 00:00:00 | |
| DF8AY | 2026-09-02 00:35:48 | 51.42076 | 7.86494 | 116° | 16km/h | 32251m | -37.7m/s | 0°C | 0% | 8.9hPa | 2.6V | 18:12:15 | 02:18:10 | 00:00:00 | |
| AA1-15 | 2026-09-02 00:35:45 | 51.42075 | 7.86501 | 105° | 16km/h | 32212m | -40.5m/s | -40.3°C | 0% | 9hPa | 2.6V | 18:12:15 | 02:18:11 | 00:00:00 | |
| DL1XH1-15 | 2026-09-02 00:35:43 | 51.42081 | 7.86483 | 130° | 16km/h | 32323m | -34.5m/s | -40.6°C | 2.3% | 8.8hPa | 2.5V | 08:30:00 | 02:18:08 | 00:00:00 | |
| HSKMA3-T | 2026-09-02 00:35:43 | 51.42078 | 7.86488 | 126° | 18km/h | 32288m | -34.9m/s | -40.6°C | 0% | 8.9hPa | 2.5V | 18:12:15 | 02:18:09 | 00:00:00 | |
| DF7PN | 2026-09-02 00:35:42 | 51.42084 | 7.86478 | 127° | 15km/h | 32358m | -34.7m/s | -40.6°C | 0.5% | 8.8hPa | 2.5V | 00:00:00 | 00:00:00 | 00:00:00 | |
| DD8BA-10 | 2026-09-02 00:35:41 | 51.42084 | 7.86478 | 128° | 22km/h | 32358m | -34.6m/s | -40.5°C | 2.3% | 8.7hPa | 2.5V | 00:00:00 | 00:00:00 | 00:00:00 | |
| DL3AQ-11 | 2026-09-02 00:35:39 | 51.42087 | 7.86462 | 81° | 15km/h | 32453m | -29.3m/s | -40.9°C | 0.5% | 8.7hPa | 2.5V | 00:00:00 | 00:00:00 | 00:00:00 | |
| DM0DOS-11 | 2026-09-02 00:35:38 | 51.42070 | 7.86417 | 60° | 29km/h | 32592m | -29.7m/s | -40.6°C | 2.4% | 8.5hPa | 2.5V | 08:30:00 | 02:17:59 | 00:00:00 | |
| DL1XH-15 | 2026-09-02 00:35:37 | 51.42079 | 7.86438 | 55° | 29km/h | 32536m | -26.9m/s | -40.9°C | 2.4% | 8.5hPa | 2.6V | 08:30:00 | 02:18:01 | 00:00:00 | |
| DL1XH1-15 | 2026-09-02 00:35:37 | 51.42068 | 7.86408 | 76° | 24km/h | 32623m | -31.6m/s | -40.5°C | 2.4% | 8.4hPa | 2.5V | 08:30:00 | 02:17:58 | 00:00:00 | |
| DL1XH-west | 2026-09-02 00:35:37 | 51.42085 | 7.86455 | 63° | 22km/h | 32482m | -29.1m/s | -40.9°C | 0% | 8.6hPa | 2.5V | 18:12:15 | 02:18:03 | 00:00:00 | |
| BIOWL1-15 | 2026-09-02 00:35:35 | 51.42079 | 7.86438 | 55° | 29km/h | 32536m | -27m/s | -40.9°C | 0% | 8.5hPa | 2.6V | 18:12:15 | 02:18:01 | 00:00:00 | |
| AA1-15 | 2026-09-02 00:35:34 | 51.42074 | 7.86428 | 56° | 31km/h | 32563m | -27.8m/s | -40.8°C | 0% | 8.5hPa | 2.6V | 18:12:15 | 02:18:00 | 00:00:00 | |
| HSKMA3-T | 2026-09-02 00:35:33 | 51.42070 | 7.86417 | 61° | 29km/h | 32592m | -29.7m/s | -40.6°C | 0% | 8.5hPa | 2.5V | 18:12:15 | 02:17:59 | 00:00:00 | |
| DO9LL-15 | 2026-09-02 00:35:32 | 51.42068 | 7.86408 | 77° | 15km/h | 32623m | -31.5m/s | -40.5°C | 2.4% | 8.4hPa | 2.5V | 00:00:00 | 02:17:58 | 08:30:00 | |
| DD8BA-10 | 2026-09-02 00:35:31 | 51.42067 | 7.86399 | 95° | 24km/h | 32654m | -30.1m/s | -40.4°C | 2.4% | 8.3hPa | 2.5V | 00:00:00 | 00:00:00 | 08:30:00 | |
| DL1XH-15 | 2026-09-02 00:35:30 | 51.42098 | 7.86366 | 157° | 26km/h | 32815m | -27.6m/s | -39.8°C | 2.3% | 8.2hPa | 2.6V | 08:30:00 | 02:17:51 | 00:00:00 | |
| AU51GT2 | 2026-09-02 00:35:29 | 51.42078 | 7.86378 | 151° | 27km/h | 32736m | -25.2m/s | -40.1°C | 0.5% | 8.3hPa | 2.5V | 00:00:00 | 00:00:00 | 00:00:00 | |
| DM0DOS-11 | 2026-09-02 00:35:28 | 51.42104 | 7.86357 | 93° | 15km/h | 32874m | -30.5m/s | -39.4°C | 2.1% | 8.1hPa | 2.5V | 08:30:00 | 02:17:49 | 00:00:00 | |
| DL1XH-west | 2026-09-02 00:35:26 | 51.42092 | 7.86369 | 162° | 29km/h | 32787m | -27m/s | -39.9°C | 0% | 8.2hPa | 2.5V | 18:12:15 | 02:17:52 | 00:00:00 | |
| BIOWL1-15 | 2026-09-02 00:35:24 | 51.42103 | 7.86362 | 139° | 16km/h | 32844m | -29.4m/s | -39.6°C | 0% | 8.1hPa | 2.6V | 18:12:15 | 02:17:50 | 00:00:00 | |
| DL1XH1-15 | 2026-09-02 00:35:23 | 51.42104 | 7.86351 | 60° | 18km/h | 32905m | -30.4m/s | -39.2°C | 2.1% | 8.1hPa | 2.5V | 08:30:00 | 02:17:48 | 00:00:00 | |
| AA1-15 | 2026-09-02 00:35:23 | 51.42104 | 7.86357 | 94° | 15km/h | 32874m | -30.5m/s | -39.4°C | 0% | 8.1hPa | 2.5V | 18:12:15 | 02:17:49 | 00:00:00 | |
| HSKMA3-T | 2026-09-02 00:35:22 | 51.42103 | 7.86351 | 61° | 18km/h | 32905m | -30.4m/s | -39.2°C | 0% | 8.1hPa | 2.5V | 18:12:15 | 02:17:48 | 00:00:00 | |
| DD8BA-10 | 2026-09-02 00:35:21 | 51.42100 | 7.86344 | 45° | 11km/h | 32936m | -30.8m/s | -39.0°C | 2.1% | 8.0hPa | 2.6V | 00:00:00 | 00:00:00 | 00:00:00 | |
| DO3DL | 2026-09-02 00:35:20 | 51.42100 | 7.86344 | 46° | 26km/h | 32936m | -30.9m/s | -39.1°C | 0.4% | 8.1hPa | 2.6V | 00:00:00 | 00:00:00 | 00:00:00 | |
| DB0UT-7 | 2026-09-02 00:35:19 | 51.42089 | 7.86330 | 36° | 7km/h | 33001m | -33.3m/s | -38.5°C | 1.9% | 7.9hPa | 2.6V | 00:00:00 | 00:00:00 | 00:00:00 | |
| DK9SH | 2026-09-02 00:35:18 | 51.42084 | 7.86324 | 34° | 22km/h | 33036m | -36.0m/s | -38.3°C | 0.4% | 7.9hPa | 2.5V | 00:00:00 | 00:00:00 | 00:00:00 | |
| DL1XH1-15 | 2026-09-02 00:35:17 | 51.42082 | 7.86323 | 222° | 2km/h | 33226m | -8.5m/s | -39°C | 2.1% | 7.7hPa | 2.5V | 08:30:00 | 02:17:38 | 00:00:00 | |
| DL1XH-west | 2026-09-02 00:35:15 | 51.42081 | 7.86321 | 225° | 0km/h | 33160m | -34.6m/s | -38.7°C | 0% | 7.8hPa | 2.6V | 18:12:15 | 02:17:41 | 00:00:00 | |
| DL1XH-15 | 2026-09-02 00:35:14 | 51.42082 | 7.86322 | 216° | 2km/h | 33213m | -17.8m/s | -38.9°C | 2.1% | 7.7hPa | 2.5V | 08:30:00 | 02:17:39 | 00:00:00 | |
| DF8AY | 2026-09-02 00:35:13 | 51.42082 | 7.86322 | 217° | 2km/h | 33213m | -17.8m/s | 0°C | 0% | 7.7hPa | 2.5V | 18:12:15 | 02:17:39 | 00:00:00 | |
| AA1-15 | 2026-09-02 00:35:12 | 51.42082 | 7.86323 | 223° | 2km/h | 33226m | -8.5m/s | -39°C | 0% | 7.7hPa | 2.5V | 18:12:15 | 02:17:38 | 00:00:00 | |
| DL1NUX | 2026-09-02 00:35:12 | 51.42085 | 7.86335 | 266° | 13km/h | 33205m | 5.4m/s | -39°C | 2.1% | 7.7hPa | 2.5V | 08:30:00 | 02:17:33 | 00:00:00 | |
| HSKMA3-T | 2026-09-02 00:35:11 | 51.42083 | 7.86323 | 220° | 2km/h | 33230m | 1m/s | -39°C | 0% | 7.7hPa | 2.5V | 18:12:15 | 02:17:37 | 00:00:00 | |
| DL1XH-west | 2026-09-02 00:35:05 | 51.42084 | 7.86343 | 314° | 7km/h | 33195m | 5.2m/s | -39°C | 0% | 7.7hPa | 2.6V | 18:12:15 | 02:17:31 | 00:00:00 | |
| DL1XH1-15 | 2026-09-02 00:35:03 | 51.42080 | 7.86342 | 37° | 7km/h | 33180m | 4.8m/s | -38.9°C | 2.1% | 7.7hPa | 2.5V | 08:30:00 | 02:17:28 | 00:00:00 | |
| DF8AY | 2026-09-02 00:35:03 | 51.42079 | 7.86342 | 38° | 7km/h | 33180m | 4.8m/s | 0°C | 0% | 0hPa | 2.5V | 18:12:15 | 02:17:28 | 00:00:00 | |
| AA1-15 | 2026-09-02 00:35:01 | 51.42078 | 7.86340 | 48° | 5km/h | 33175m | 4.9m/s | -38.9°C | 0% | 7.7hPa | 2.5V | 18:12:15 | 02:17:27 | 00:00:00 | |
| HSKMA3-T | 2026-09-02 00:35:00 | 51.42078 | 7.86339 | 44° | 2km/h | 33170m | 4.9m/s | -38.9°C | 0% | 7.7hPa | 2.6V | 18:12:15 | 02:17:26 | 00:00:00 | |
| DO2JMG | 2026-09-02 00:34:59 | 51.42077 | 7.86339 | 313° | 2km/h | 33166m | 4.9m/s | -38.9°C | 0% | 7.7hPa | 2.6V | 18:12:15 | 02:17:25 | 00:00:00 | |
| DL3AQ-11 | 2026-09-02 00:34:59 | 51.42077 | 7.86340 | 294° | 4km/h | 33161m | 4.7m/s | -39.0°C | 0.4% | 7.8hPa | 2.5V | 00:00:00 | 00:00:00 | 00:00:00 | |
| GOEST3-10 | 2026-09-02 00:34:58 | 51.42077 | 7.86340 | 295° | 5km/h | 33161m | 4.6m/s | -38.9°C | 2.1% | 7.7hPa | 2.5V | 00:00:00 | 02:17:24 | 00:00:00 | |
| DL1XH1-15 | 2026-09-02 00:34:57 | 51.42071 | 7.86343 | 110° | 5km/h | 33132m | 4.5m/s | -39°C | 2.1% | 7.8hPa | 2.5V | 08:30:00 | 02:17:18 | 00:00:00 | |
| SONCRA | 2026-09-02 00:34:57 | 51.42075 | 7.86344 | 316° | 5km/h | 33152m | 4.9m/s | -39.0°C | 0.4% | 7.7hPa | 2.5V | 00:00:00 | 00:00:00 | 00:00:00 | |
| BIOWL9-15 | 2026-09-02 00:34:56 | 51.42074 | 7.86346 | 339° | 5km/h | 33147m | 4.9m/s | -39.0°C | 0.4% | 7.8hPa | 2.5V | 00:00:00 | 00:00:00 | 00:00:00 | |
| HTAHTA | 2026-09-02 00:34:55 | 51.42074 | 7.86346 | 339° | 5km/h | 33147m | 4.9m/s | -39.0°C | 0.4% | 7.8hPa | 2.5V | 00:00:00 | 00:00:00 | 00:00:00 | |
| DL1XH-15 | 2026-09-02 00:34:54 | 51.42071 | 7.86345 | 57° | 5km/h | 33136m | 4.8m/s | -39°C | 2.1% | 7.8hPa | 2.5V | 08:30:00 | 02:17:19 | 00:00:00 | |
| DL1XH-west | 2026-09-02 00:34:54 | 51.42072 | 7.86346 | 12° | 5km/h | 33142m | 5m/s | -39°C | 0% | 7.8hPa | 2.6V | 18:12:15 | 02:17:20 | 00:00:00 | |
| SONDE2-11 | 2026-09-02 00:34:54 | 51.42071 | 7.86345 | 57° | 4km/h | 33137m | 4.8m/s | -39.0°C | 0.4% | 7.8hPa | 2.5V | 00:00:00 | 00:00:00 | 00:00:00 | |
| SO1NDE-10 | 2026-09-02 00:34:53 | 51.42071 | 7.86345 | 58° | 16km/h | 33137m | 4.7m/s | -39.0°C | 2.1% | 7.7hPa | 2.5V | 00:00:00 | 02:17:19 | 00:00:00 | |
| DL1NUX | 2026-09-02 00:34:52 | 51.42084 | 7.86350 | 240° | 16km/h | 33108m | 4.1m/s | -39°C | 2.1% | 7.8hPa | 2.5V | 08:30:00 | 02:17:13 | 00:00:00 | |
| DF8AY | 2026-09-02 00:34:52 | 51.42072 | 7.86341 | 153° | 7km/h | 33127m | 4.6m/s | 0°C | 0% | 0hPa | 2.5V | 18:12:15 | 02:17:17 | 00:00:00 | |
| HSKMA3-T | 2026-09-02 00:34:50 | 51.42074 | 7.86340 | 180° | 11km/h | 33122m | 5.2m/s | -39°C | 0% | 7.8hPa | 2.6V | 18:12:15 | 02:17:16 | 00:00:00 | |
| DO2JMG | 2026-09-02 00:34:48 | 51.42081 | 7.86345 | 221° | 16km/h | 33112m | 4.7m/s | -39°C | 0% | 7.8hPa | 2.5V | 18:12:15 | 02:17:14 | 00:00:00 | |
| DL3AQ-11 | 2026-09-02 00:34:48 | 51.42084 | 7.86350 | 240° | 16km/h | 33108m | 4.1m/s | -39.1°C | 0.4% | 7.8hPa | 2.6V | 00:00:00 | 00:00:00 | 00:00:00 | |
| DL1XH-west | 2026-09-02 00:34:44 | 51.42082 | 7.86366 | 330° | 13km/h | 33095m | 5.2m/s | -39.1°C | 0% | 7.9hPa | 2.6V | 18:12:15 | 02:17:10 | 00:00:00 | |
| BIOWL1-15 | 2026-09-02 00:34:44 | 51.42075 | 7.86365 | 35° | 16km/h | 33085m | 4.8m/s | -39°C | 0% | 7.8hPa | 2.5V | 18:12:15 | 02:17:08 | 00:00:00 | |
| DL1XH1-15 | 2026-09-02 00:34:43 | 51.42075 | 7.86365 | 35° | 16km/h | 33085m | 4.8m/s | -39°C | 2.1% | 7.8hPa | 2.5V | 08:30:00 | 02:17:08 | 00:00:00 | |
| HSKMA3-T | 2026-09-02 00:34:39 | 51.42073 | 7.86346 | 120° | 18km/h | 33071m | 4.7m/s | -39°C | 0% | 7.8hPa | 2.6V | 18:12:15 | 02:17:05 | 00:00:00 | |
| GOEST3-10 | 2026-09-02 00:34:38 | 51.42076 | 7.86341 | 152° | 22km/h | 33067m | 5.0m/s | -39.0°C | 2.1% | 7.8hPa | 2.5V | 00:00:00 | 02:17:04 | 00:00:00 | |
| DM0DOS-11 | 2026-09-02 00:34:36 | 51.42093 | 7.86364 | 320° | 13km/h | 33038m | 5.1m/s | -39.3°C | 2.1% | 7.9hPa | 2.5V | 08:30:00 | 02:16:58 | 00:00:00 | |
| DO2JMG | 2026-09-02 00:34:35 | 51.42090 | 7.86346 | 224° | 22km/h | 33052m | 4.3m/s | -39.2°C | 0% | 7.9hPa | 2.6V | 18:12:15 | 02:17:01 | 00:00:00 | |
| DL1XH-west | 2026-09-02 00:34:33 | 51.42094 | 7.86360 | 276° | 15km/h | 33043m | 4.5m/s | -39.2°C | 0% | 7.9hPa | 2.5V | 18:12:15 | 02:16:59 | 00:00:00 | |
| DF8AY | 2026-09-02 00:34:29 | 51.42091 | 7.86325 | 182° | 22km/h | 32997m | 5.6m/s | 0°C | 0% | 0hPa | 2.6V | 18:12:15 | 02:16:50 | 00:00:00 | |
| HSKMA3-T | 2026-09-02 00:34:28 | 51.42080 | 7.86348 | 77° | 24km/h | 33017m | 4.7m/s | -39.4°C | 0% | 7.9hPa | 2.5V | 18:12:15 | 02:16:54 | 00:00:00 | |
| GOEST3-10 | 2026-09-02 00:34:28 | 51.42080 | 7.86347 | 78° | 22km/h | 33018m | 4.6m/s | -39.4°C | 2.1% | 7.8hPa | 2.5V | 00:00:00 | 02:16:54 | 08:30:00 | |
| AU51GT2 | 2026-09-02 00:34:27 | 51.42082 | 7.86331 | 126° | 20km/h | 33008m | 5.2m/s | -39.5°C | 0.4% | 7.9hPa | 2.5V | 00:00:00 | 00:00:00 | 00:00:00 | |
| DM0DOS-11 | 2026-09-02 00:34:26 | 51.42106 | 7.86334 | 216° | 16km/h | 32982m | 4.6m/s | -39.7°C | 2.1% | 7.9hPa | 2.5V | 08:30:00 | 02:16:47 | 00:00:00 | |
| BIOWL1-15 | 2026-09-02 00:34:23 | 51.42106 | 7.86334 | 217° | 16km/h | 32982m | 4.6m/s | -39.7°C | 0% | 7.9hPa | 2.5V | 18:12:15 | 02:16:47 | 00:00:00 | |
| DL1XH-west | 2026-09-02 00:34:22 | 51.42102 | 7.86330 | 210° | 22km/h | 32987m | 4.5m/s | -39.6°C | 0% | 7.9hPa | 2.5V | 18:12:15 | 02:16:48 | 00:00:00 | |
| DL1NUX | 2026-09-02 00:34:22 | 51.42108 | 7.86331 | 74° | 16km/h | 32961m | 5m/s | -39.8°C | 2.1% | 8hPa | 2.5V | 08:30:00 | 02:16:43 | 00:00:00 | |
| HSKMA3-T | 2026-09-02 00:34:18 | 51.42109 | 7.86336 | 69° | 11km/h | 32967m | 5.3m/s | -39.8°C | 0% | 8hPa | 2.5V | 18:12:15 | 02:16:44 | 00:00:00 | |
| DF8AY | 2026-09-02 00:34:15 | 51.42116 | 7.86297 | 154° | 20km/h | 32935m | 5.2m/s | 0°C | 0% | 0hPa | 2.5V | 18:12:15 | 02:16:38 | 00:00:00 | |
| DL4BBY-15 | 2026-09-02 00:34:15 | 51.42108 | 7.86308 | 119° | 18km/h | 32946m | 5.3m/s | -39.2°C | 0% | 0hPa | 2.5V | 00:00:00 | 00:00:00 | 00:00:00 | |
| GOEST3-10 | 2026-09-02 00:34:13 | 51.42112 | 7.86302 | 139° | 20km/h | 32941m | 5.5m/s | -39.8°C | 2.1% | 7.9hPa | 2.5V | 00:00:00 | 00:00:00 | 00:00:00 | |
| DL1NUX | 2026-09-02 00:34:12 | 51.42134 | 7.86284 | 119° | 11km/h | 32907m | 5.6m/s | -40°C | 2.1% | 8hPa | 2.5V | 08:30:00 | 02:16:33 | 00:00:00 | |
| DL1XH-west | 2026-09-02 00:34:11 | 51.42121 | 7.86294 | 163° | 20km/h | 32930m | 5.2m/s | -39.9°C | 0% | 8hPa | 2.5V | 18:12:15 | 02:16:37 | 00:00:00 | |
| BIOWL1-15 | 2026-09-02 00:34:10 | 51.42126 | 7.86292 | 164° | 18km/h | 32924m | 5.4m/s | -39.9°C | 0% | 8hPa | 2.6V | 18:12:15 | 02:16:36 | 00:00:00 | |
| HSKMA3-T | 2026-09-02 00:34:08 | 51.42132 | 7.86287 | 142° | 11km/h | 32913m | 5.8m/s | -39.9°C | 0% | 8hPa | 2.5V | 18:12:15 | 02:16:34 | 00:00:00 | |
| AA1-15 | 2026-09-02 00:34:07 | 51.42134 | 7.86284 | 120° | 11km/h | 32907m | 5.6m/s | -40°C | 0% | 8hPa | 2.5V | 18:12:15 | 02:16:33 | 00:00:00 | |
| DD1CC2-15 | 2026-09-02 00:34:05 | 51.42135 | 7.86280 | 103° | 11km/h | 32903m | 5.2m/s | -40.0°C | 0.5% | 8.0hPa | 2.5V | 00:00:00 | 00:00:00 | 00:00:00 | |
| DL1CLM-18 | 2026-09-02 00:34:04 | 51.42136 | 7.86276 | 100° | 11km/h | 32897m | 5.0m/s | -40.1°C | 0.4% | 8.0hPa | 2.5V | 00:00:00 | 00:00:00 | 00:00:00 | |
| DL1XH1-15 | 2026-09-02 00:34:03 | 51.42139 | 7.86265 | 141° | 13km/h | 32881m | 5.5m/s | -40.2°C | 2.2% | 8.1hPa | 2.5V | 08:30:00 | 02:16:28 | 00:00:00 | |
| BIOWL1-15 | 2026-09-02 00:34:03 | 51.42149 | 7.86253 | 136° | 18km/h | 32866m | 5.1m/s | -40.4°C | 0% | 8.1hPa | 2.6V | 18:12:15 | 02:16:25 | 00:00:00 | |
| DL1XH-west | 2026-09-02 00:34:01 | 51.42142 | 7.86262 | 148° | 15km/h | 32876m | 5.1m/s | -40.3°C | 0% | 8.1hPa | 2.5V | 18:12:15 | 02:16:27 | 00:00:00 | |
| HSKMA3-T | 2026-09-02 00:33:57 | 51.42154 | 7.86240 | 113° | 22km/h | 32855m | 5.7m/s | -40.4°C | 0% | 8.1hPa | 2.5V | 18:12:15 | 02:16:23 | 00:00:00 | |
| AA1-15 | 2026-09-02 00:33:56 | 51.42156 | 7.86232 | 106° | 22km/h | 32849m | 5.1m/s | -40.4°C | 0% | 8.1hPa | 2.5V | 18:12:15 | 02:16:22 | 00:00:00 | |
| DF8AY | 2026-09-02 00:33:55 | 51.42158 | 7.86224 | 108° | 22km/h | 32844m | 4.9m/s | 0°C | 0% | 0hPa | 2.6V | 18:12:15 | 02:16:21 | 00:00:00 | |
| SONCRA | 2026-09-02 00:33:55 | 51.42160 | 7.86215 | 111° | 20km/h | 32839m | 5.7m/s | -40.4°C | 0.4% | 8.1hPa | 2.5V | 00:00:00 | 00:00:00 | 00:00:00 | |
| BIOWL9-15 | 2026-09-02 00:33:54 | 51.42162 | 7.86208 | 119° | 18km/h | 32833m | 5.7m/s | -40.4°C | 0.4% | 8.1hPa | 2.5V | 00:00:00 | 00:00:00 | 00:00:00 | |
| SO1NDE-10 | 2026-09-02 00:33:53 | 51.42162 | 7.86208 | 120° | 22km/h | 32834m | 5.7m/s | -40.4°C | 2.2% | 8.1hPa | 2.5V | 00:00:00 | 02:16:19 | 00:00:00 | |
| DL1NUX | 2026-09-02 00:33:52 | 51.42169 | 7.86167 | 76° | 22km/h | 32801m | 5m/s | -40.4°C | 2.2% | 8.2hPa | 2.5V | 08:30:00 | 02:16:13 | 00:00:00 | |
| DL1XH-west | 2026-09-02 00:33:50 | 51.42169 | 7.86189 | 110° | 16km/h | 32818m | 4.9m/s | -40.4°C | 0% | 8.1hPa | 2.6V | 18:12:15 | 02:16:16 | 00:00:00 | |
| BIOWL1-15 | 2026-09-02 00:33:48 | 51.42170 | 7.86176 | 84° | 20km/h | 32807m | 5.9m/s | -40.4°C | 0% | 8.1hPa | 2.5V | 18:12:15 | 02:16:14 | 00:00:00 | |
| HSKMA3-T | 2026-09-02 00:33:46 | 51.42167 | 7.86158 | 77° | 24km/h | 32797m | 4.2m/s | -40.4°C | 0% | 8.2hPa | 2.5V | 18:12:15 | 02:16:12 | 00:00:00 | |
| AA1-15 | 2026-09-02 00:33:45 | 51.42166 | 7.86149 | 83° | 22km/h | 32793m | 4.6m/s | -40.4°C | 0% | 8.2hPa | 2.6V | 18:12:15 | 02:16:11 | 00:00:00 | |
| DO2JMG | 2026-09-02 00:33:43 | 51.42168 | 7.86127 | 112° | 18km/h | 32776m | 5.3m/s | -40.5°C | 0% | 8.2hPa | 2.5V | 18:12:15 | 02:16:08 | 00:00:00 | |
| DM0DOS-11 | 2026-09-02 00:33:43 | 51.42170 | 7.86120 | 112° | 18km/h | 32771m | 4.9m/s | -40.5°C | 2.2% | 8.2hPa | 2.5V | 08:30:00 | 02:16:07 | 00:00:00 | |
| DL1LOL-11 | 2026-09-02 00:33:43 | 51.42167 | 7.86133 | 104° | 18km/h | 32782m | 6.0m/s | -40.4°C | 0.4% | 8.2hPa | 2.5V | 00:00:00 | 00:00:00 | 00:00:00 | |
| DL1NUX | 2026-09-02 00:33:42 | 51.42171 | 7.86083 | 79° | 31km/h | 32749m | 5.1m/s | -40.6°C | 2.2% | 8.2hPa | 2.5V | 08:30:00 | 02:16:03 | 00:00:00 | |
| BIOWL1-15 | 2026-09-02 00:33:39 | 51.42171 | 7.86083 | 79° | 31km/h | 32749m | 5.1m/s | -40.6°C | 0% | 8.2hPa | 2.5V | 18:12:15 | 02:16:03 | 00:00:00 | |
| DL1XH-west | 2026-09-02 00:33:39 | 51.42172 | 7.86105 | 94° | 22km/h | 32761m | 5.8m/s | -40.6°C | 0% | 8.2hPa | 2.6V | 18:12:15 | 02:16:05 | 00:00:00 | |
| HSKMA3-T | 2026-09-02 00:33:36 | 51.42169 | 7.86071 | 78° | 31km/h | 32744m | 4.8m/s | -40.7°C | 0% | 8.2hPa | 2.5V | 18:12:15 | 02:16:02 | 00:00:00 | |
| DF8AY | 2026-09-02 00:33:35 | 51.42167 | 7.86047 | 89° | 27km/h | 32734m | 5.7m/s | 0°C | 0% | 0hPa | 2.6V | 18:12:15 | 02:16:00 | 00:00:00 | |
| DL1XH-west | 2026-09-02 00:33:28 | 51.42176 | 7.85991 | 93° | 26km/h | 32701m | 5.4m/s | -40.9°C | 0% | 8.3hPa | 2.5V | 18:12:15 | 02:15:54 | 00:00:00 | |
| BIOWL1-15 | 2026-09-02 00:33:27 | 51.42176 | 7.85981 | 83° | 26km/h | 32696m | 4.9m/s | -41°C | 0% | 8.3hPa | 2.5V | 18:12:15 | 02:15:53 | 00:00:00 | |
| HSKMA3-T | 2026-09-02 00:33:25 | 51.42173 | 7.85962 | 69° | 24km/h | 32685m | 6.2m/s | -41°C | 0% | 8.3hPa | 2.6V | 18:12:15 | 02:15:51 | 00:00:00 | |
| AA1-15 | 2026-09-02 00:33:24 | 51.42168 | 7.85946 | 61° | 20km/h | 32674m | 4.8m/s | -41.1°C | 0% | 8.3hPa | 2.5V | 18:12:15 | 02:15:49 | 00:00:00 | |
| DL1XH1-15 | 2026-09-02 00:33:23 | 51.42166 | 7.85939 | 64° | 22km/h | 32669m | 4.5m/s | -41.1°C | 2.3% | 8.3hPa | 2.5V | 08:30:00 | 02:15:48 | 00:00:00 | |
| DL1NUX | 2026-09-02 00:33:23 | 51.42159 | 7.85882 | 89° | 33km/h | 32642m | 4.5m/s | -41.2°C | 2.3% | 8.3hPa | 2.5V | 08:30:00 | 02:15:43 | 00:00:00 | |
| DL1XH-west | 2026-09-02 00:33:17 | 51.42159 | 7.85882 | 89° | 33km/h | 32642m | 4.5m/s | -41.2°C | 0% | 8.3hPa | 2.5V | 18:12:15 | 02:15:43 | 00:00:00 | |
| BIOWL1-15 | 2026-09-02 00:33:16 | 51.42159 | 7.85869 | 93° | 29km/h | 32638m | 4.7m/s | -41.2°C | 0% | 8.4hPa | 2.5V | 18:12:15 | 02:15:42 | 00:00:00 | |
| DJ8HS-15 | 2026-09-02 00:33:16 | 51.42159 | 7.85869 | 93° | 20km/h | 32638m | 4.7m/s | -41.2°C | 2.3% | 8.3hPa | 2.5V | 00:00:00 | 02:15:42 | 00:00:00 | |
| DM0DOS-11 | 2026-09-02 00:33:15 | 51.42160 | 7.85840 | 76° | 11km/h | 32611m | 4.9m/s | -41.3°C | 2.3% | 8.4hPa | 2.5V | 08:30:00 | 02:15:37 | 00:00:00 | |
| HSKMA3-T | 2026-09-02 00:33:14 | 51.42160 | 7.85852 | 98° | 15km/h | 32626m | 6.4m/s | -41.2°C | 0% | 8.4hPa | 2.6V | 18:12:15 | 02:15:40 | 00:00:00 | |
| DL1XH1-15 | 2026-09-02 00:33:13 | 51.42160 | 7.85843 | 85° | 7km/h | 32615m | 4.7m/s | -41.3°C | 2.3% | 8.4hPa | 2.5V | 08:30:00 | 02:15:38 | 00:00:00 | |
| DL1NUX | 2026-09-02 00:33:13 | 51.42156 | 7.85805 | 82° | 31km/h | 32588m | 4.8m/s | -41.3°C | 2.3% | 8.4hPa | 2.5V | 08:30:00 | 02:15:33 | 00:00:00 | |
| AA1-15 | 2026-09-02 00:33:13 | 51.42161 | 7.85843 | 86° | 7km/h | 32615m | 4.7m/s | -41.3°C | 0% | 8.4hPa | 2.5V | 18:12:15 | 02:15:38 | 00:00:00 | |
| BIOWL1-15 | 2026-09-02 00:33:07 | 51.42155 | 7.85780 | 89° | 27km/h | 32578m | 6m/s | -41.3°C | 0% | 8.4hPa | 2.6V | 18:12:15 | 02:15:31 | 00:00:00 | |
| DL1XH-west | 2026-09-02 00:33:06 | 51.42155 | 7.85792 | 86° | 31km/h | 32584m | 5.1m/s | -41.3°C | 0% | 8.4hPa | 2.5V | 18:12:15 | 02:15:32 | 00:00:00 | |
| DF7PN | 2026-09-02 00:33:06 | 51.42155 | 7.85792 | 85° | 29km/h | 32584m | 5.1m/s | -41.3°C | 0.5% | 8.4hPa | 2.5V | 00:00:00 | 00:00:00 | 00:00:00 | |
| DL1XH-15 | 2026-09-02 00:33:04 | 51.42157 | 7.85756 | 113° | 16km/h | 32561m | 5.2m/s | -41.3°C | 2.4% | 8.5hPa | 2.5V | 08:30:00 | 02:15:28 | 00:00:00 | |
| HSKMA3-T | 2026-09-02 00:33:04 | 51.42155 | 7.85770 | 96° | 22km/h | 32572m | 5.8m/s | -41.3°C | 0% | 8.5hPa | 2.6V | 18:12:15 | 02:15:30 | 00:00:00 | |
| DD1CC2-15 | 2026-09-02 00:33:03 | 51.42155 | 7.85770 | 97° | 22km/h | 32572m | 5.8m/s | -41.3°C | 0.5% | 8.5hPa | 2.5V | 00:00:00 | 00:00:00 | 00:00:00 | |
| DM0DOS-11 | 2026-09-02 00:33:02 | 51.42159 | 7.85750 | 116° | 15km/h | 32556m | 5.5m/s | -41.3°C | 2.3% | 8.5hPa | 2.5V | 08:30:00 | 02:15:27 | 00:00:00 | |
| AA1-15 | 2026-09-02 00:33:01 | 51.42159 | 7.85750 | 117° | 15km/h | 32556m | 5.5m/s | -41.3°C | 0% | 8.5hPa | 2.5V | 18:12:15 | 02:15:27 | 00:00:00 | |
| DL3AQ-11 | 2026-09-02 00:32:59 | 51.42163 | 7.85732 | 96° | 16km/h | 32539m | 5.1m/s | -41.3°C | 0.5% | 8.5hPa | 2.5V | 00:00:00 | 00:00:00 | 00:00:00 | |
| DL1NUX | 2026-09-02 00:32:58 | 51.42163 | 7.85725 | 85° | 16km/h | 32534m | 5m/s | -41.3°C | 2.3% | 8.5hPa | 2.5V | 08:30:00 | 02:15:23 | 00:00:00 | |
| BIOWL1-15 | 2026-09-02 00:32:55 | 51.42161 | 7.85713 | 67° | 15km/h | 32522m | 6.3m/s | -41.2°C | 0% | 8.6hPa | 2.6V | 18:12:15 | 02:15:21 | 00:00:00 | |
| AU51GT2 | 2026-09-02 00:32:54 | 51.42159 | 7.85703 | 72° | 15km/h | 32511m | 4.9m/s | -41.2°C | 0.5% | 8.5hPa | 2.5V | 00:00:00 | 00:00:00 | 00:00:00 | |
| DL1XH-15 | 2026-09-02 00:32:53 | 51.42157 | 7.85687 | 89° | 24km/h | 32500m | 6.2m/s | -41.2°C | 2.3% | 8.5hPa | 2.5V | 08:30:00 | 02:15:17 | 00:00:00 | |
| HSKMA3-T | 2026-09-02 00:32:53 | 51.42159 | 7.85703 | 73° | 16km/h | 32511m | 4.9m/s | -41.2°C | 0% | 8.5hPa | 2.5V | 18:12:15 | 02:15:19 | 00:00:00 | |
| DL1XH1-15 | 2026-09-02 00:32:53 | 51.42158 | 7.85696 | 81° | 20km/h | 32506m | 5.1m/s | -41.2°C | 2.4% | 8.5hPa | 2.5V | 08:30:00 | 02:15:18 | 00:00:00 | |
| AA1-15 | 2026-09-02 00:32:51 | 51.42158 | 7.85676 | 95° | 29km/h | 32494m | 5.9m/s | -41.2°C | 0% | 8.6hPa | 2.6V | 18:12:15 | 02:15:16 | 00:00:00 | |
| SONDE2-11 | 2026-09-02 00:32:49 | 51.42159 | 7.85664 | 100° | 29km/h | 32489m | 4.7m/s | -41.2°C | 0.5% | 8.6hPa | 2.5V | 00:00:00 | 00:00:00 | 00:00:00 | |
| DL3AQ-11 | 2026-09-02 00:32:48 | 51.42162 | 7.85643 | 110° | 22km/h | 32480m | 5.0m/s | -41.2°C | 0.5% | 8.6hPa | 2.5V | 00:00:00 | 00:00:00 | 00:00:00 | |
| BIOWL1-15 | 2026-09-02 00:32:47 | 51.42165 | 7.85624 | 67° | 13km/h | 32447m | 5.5m/s | -41.1°C | 0% | 8.6hPa | 2.5V | 18:12:15 | 02:15:07 | 00:00:00 | |
| DL1XH-west | 2026-09-02 00:32:45 | 51.42166 | 7.85631 | 130° | 9km/h | 32468m | 6.4m/s | -41.2°C | 0% | 8.6hPa | 2.6V | 18:12:15 | 02:15:11 | 00:00:00 | |
| NBG1-10 | 2026-09-02 00:32:44 | 51.42167 | 7.85629 | 148° | 13km/h | 32462m | 5.3m/s | -41.1°C | 2.3% | 8.5hPa | 2.5V | 00:00:00 | 02:15:10 | 00:00:00 | |
| DL1XH-15 | 2026-09-02 00:32:43 | 51.42165 | 7.85624 | 66° | 13km/h | 32447m | 5.5m/s | -41.1°C | 2.3% | 8.6hPa | 2.5V | 08:30:00 | 02:15:07 | 00:00:00 | |
| DL1XH1-15 | 2026-09-02 00:32:43 | 51.42167 | 7.85628 | 53° | 5km/h | 32452m | 4.8m/s | -41.1°C | 2.3% | 8.6hPa | 2.5V | 08:30:00 | 02:15:08 | 00:00:00 | |
| HSKMA3-T | 2026-09-02 00:32:43 | 51.42167 | 7.85629 | 48° | 2km/h | 32457m | 4.6m/s | -41.1°C | 0% | 8.6hPa | 2.5V | 18:12:15 | 02:15:09 | 00:00:00 | |
| AA1-15 | 2026-09-02 00:32:40 | 51.42163 | 7.85608 | 82° | 27km/h | 32436m | 5.4m/s | -41.1°C | 0% | 8.6hPa | 2.6V | 18:12:15 | 02:15:05 | 00:00:00 | |
| DO2JMG | 2026-09-02 00:32:35 | 51.42164 | 7.85561 | 100° | 22km/h | 32415m | 5.9m/s | -41.1°C | 0% | 8.7hPa | 2.6V | 18:12:15 | 02:15:01 | 00:00:00 | |
| DL1XH-west | 2026-09-02 00:32:34 | 51.42165 | 7.85553 | 100° | 16km/h | 32409m | 5.7m/s | -41.1°C | 0% | 8.7hPa | 2.6V | 18:12:15 | 02:15:00 | 00:00:00 | |
| DK9SH | 2026-09-02 00:32:34 | 51.42164 | 7.85561 | 101° | 22km/h | 32415m | 5.9m/s | -41.1°C | 0.4% | 8.7hPa | 2.5V | 00:00:00 | 00:00:00 | 00:00:00 | |
| DM0DOS-11 | 2026-09-02 00:32:33 | 51.42164 | 7.85540 | 69° | 11km/h | 32393m | 5.3m/s | -41.1°C | 2.3% | 8.7hPa | 2.5V | 08:30:00 | 02:14:57 | 00:00:00 | |
| BIOWL1-15 | 2026-09-02 00:32:32 | 51.42165 | 7.85544 | 77° | 9km/h | 32398m | 5m/s | -41.1°C | 0% | 8.7hPa | 2.5V | 18:12:15 | 02:14:58 | 00:00:00 | |
| AA1-15 | 2026-09-02 00:32:29 | 51.42160 | 7.85518 | 81° | 26km/h | 32377m | 5.2m/s | -41°C | 0% | 8.7hPa | 2.5V | 18:12:15 | 02:14:54 | 00:00:00 | |
| DL1XH-west | 2026-09-02 00:32:23 | 51.42161 | 7.85473 | 98° | 13km/h | 32350m | 5.6m/s | -41°C | 0% | 8.8hPa | 2.5V | 18:12:15 | 02:14:49 | 00:00:00 | |
| DL1XH-15 | 2026-09-02 00:32:23 | 51.42161 | 7.85465 | 67° | 9km/h | 32339m | 4.8m/s | -41.1°C | 2.3% | 8.7hPa | 2.5V | 08:30:00 | 02:14:47 | 00:00:00 | |
| HSKMA3-T | 2026-09-02 00:32:22 | 51.42161 | 7.85469 | 87° | 9km/h | 32344m | 5.3m/s | -41°C | 0% | 8.8hPa | 2.5V | 18:12:15 | 02:14:48 | 00:00:00 | |
| BIOWL1-15 | 2026-09-02 00:32:21 | 51.42159 | 7.85461 | 61° | 15km/h | 32334m | 4.9m/s | -41.1°C | 0% | 8.8hPa | 2.6V | 18:12:15 | 02:14:46 | 00:00:00 | |
| AA1-15 | 2026-09-02 00:32:17 | 51.42152 | 7.85436 | 69° | 31km/h | 32317m | 5.4m/s | -41.1°C | 0% | 8.8hPa | 2.5V | 18:12:15 | 02:14:43 | 00:00:00 | |
| DJ8HS-15 | 2026-09-02 00:32:16 | 51.42149 | 7.85424 | 72° | 16km/h | 32312m | 4.5m/s | -41.0°C | 2.3% | 8.7hPa | 2.5V | 00:00:00 | 02:14:42 | 00:00:00 | |
| DK9SH | 2026-09-02 00:32:14 | 51.42147 | 7.85412 | 77° | 27km/h | 32307m | 4.9m/s | -41.1°C | 0.4% | 8.8hPa | 2.5V | 00:00:00 | 00:00:00 | 00:00:00 | |
| DL1XH1-15 | 2026-09-02 00:32:13 | 51.42146 | 7.85390 | 108° | 9km/h | 32290m | 5.1m/s | -41°C | 2.3% | 8.8hPa | 2.5V | 08:30:00 | 02:14:38 | 00:00:00 | |
| BIOWL1-15 | 2026-09-02 00:32:13 | 51.42147 | 7.85387 | 123° | 7km/h | 32285m | 4.6m/s | -41°C | 0% | 8.8hPa | 2.5V | 18:12:15 | 02:14:37 | 00:00:00 | |
| DL1NUX | 2026-09-02 00:32:13 | 51.42149 | 7.85368 | 87° | 20km/h | 32263m | 5.5m/s | -40.9°C | 2.3% | 8.8hPa | 2.5V | 08:30:00 | 02:14:33 | 00:00:00 | |
| HSKMA3-T | 2026-09-02 00:32:12 | 51.42146 | 7.85390 | 109° | 9km/h | 32290m | 5.1m/s | -41°C | 0% | 8.8hPa | 2.5V | 18:12:15 | 02:14:38 | 00:00:00 | |
| AA1-15 | 2026-09-02 00:32:07 | 51.42149 | 7.85368 | 88° | 20km/h | 32263m | 5.5m/s | -40.9°C | 0% | 8.9hPa | 2.5V | 18:12:15 | 02:14:33 | 00:00:00 | |
| DL1XH1-15 | 2026-09-02 00:32:07 | 51.42142 | 7.85329 | 57° | 13km/h | 32236m | 5.7m/s | -40.8°C | 2.3% | 8.9hPa | 2.5V | 08:30:00 | 02:14:28 | 00:00:00 | |
| DL1XH-west | 2026-09-02 00:32:02 | 51.42142 | 7.85329 | 57° | 13km/h | 32236m | 5.7m/s | -40.8°C | 0% | 8.9hPa | 2.5V | 18:12:15 | 02:14:28 | 00:00:00 | |
| DL1XH-15 | 2026-09-02 00:32:02 | 51.42141 | 7.85326 | 60° | 9km/h | 32230m | 5m/s | -40.8°C | 2.3% | 8.9hPa | 2.5V | 08:30:00 | 02:14:27 | 00:00:00 | |
| HSKMA3-T | 2026-09-02 00:32:01 | 51.42141 | 7.85326 | 61° | 9km/h | 32230m | 5m/s | -40.8°C | 0% | 8.9hPa | 2.5V | 18:12:15 | 02:14:27 | 00:00:00 | |
| DD8BA-10 | 2026-09-02 00:32:01 | 51.42140 | 7.85326 | 61° | 13km/h | 32231m | 5.0m/s | -40.7°C | 2.3% | 8.8hPa | 2.5V | 00:00:00 | 00:00:00 | 00:00:00 | |
| DL1NUX | 2026-09-02 00:32:00 | 51.42142 | 7.85310 | 121° | 15km/h | 32208m | 5m/s | -40.7°C | 2.3% | 8.9hPa | 2.5V | 08:30:00 | 02:14:23 | 00:00:00 | |
| BIOWL1-15 | 2026-09-02 00:32:00 | 51.42140 | 7.85323 | 79° | 7km/h | 32225m | 5.7m/s | -40.8°C | 0% | 8.9hPa | 2.6V | 18:12:15 | 02:14:26 | 00:00:00 | |
| AA1-15 | 2026-09-02 00:31:56 | 51.42145 | 7.85305 | 127° | 15km/h | 32203m | 5.3m/s | -40.7°C | 0% | 8.9hPa | 2.5V | 18:12:15 | 02:14:22 | 00:00:00 | |
| DJ2DS-15 | 2026-09-02 00:31:56 | 51.42147 | 7.85301 | 131° | 13km/h | 32197m | 6.2m/s | -40.7°C | 0.4% | 8.9hPa | 2.5V | 00:00:00 | 00:00:00 | 00:00:00 | |
| DL1XH1-15 | 2026-09-02 00:31:53 | 51.42152 | 7.85288 | 103° | 15km/h | 32181m | 4.8m/s | -40.6°C | 2.3% | 9hPa | 2.5V | 08:30:00 | 02:14:18 | 00:00:00 | |
| DL1XH-15 | 2026-09-02 00:31:52 | 51.42152 | 7.85281 | 92° | 18km/h | 32176m | 6m/s | -40.6°C | 2.3% | 9hPa | 2.5V | 08:30:00 | 02:14:17 | 00:00:00 | |
| DL1NUX | 2026-09-02 00:31:52 | 51.42148 | 7.85241 | 70° | 24km/h | 32154m | 4.5m/s | -40.6°C | 2.3% | 9hPa | 2.5V | 08:30:00 | 02:14:13 | 00:00:00 | |
| DL1XH-west | 2026-09-02 00:31:51 | 51.42153 | 7.85281 | 92° | 18km/h | 32176m | 6m/s | -40.6°C | 0% | 9hPa | 2.5V | 18:12:15 | 02:14:17 | 00:00:00 | |
| BIOWL1-15 | 2026-09-02 00:31:50 | 51.42152 | 7.85273 | 85° | 24km/h | 32170m | 6.6m/s | -40.6°C | 0% | 9hPa | 2.6V | 18:12:15 | 02:14:16 | 00:00:00 | |
| HTAHTA | 2026-09-02 00:31:49 | 51.42150 | 7.85252 | 75° | 27km/h | 32159m | 4.7m/s | -40.6°C | 0.5% | 9.0hPa | 2.5V | 00:00:00 | 00:00:00 | 00:00:00 | |
| SONDE2-11 | 2026-09-02 00:31:47 | 51.42148 | 7.85241 | 70° | 24km/h | 32154m | 4.5m/s | -40.6°C | 0.5% | 9.0hPa | 2.5V | 00:00:00 | 00:00:00 | 00:00:00 | |
| DO3DL | 2026-09-02 00:31:45 | 51.42146 | 7.85233 | 64° | 18km/h | 32149m | 5.9m/s | -40.6°C | 0.5% | 9.0hPa | 2.5V | 00:00:00 | 00:00:00 | 00:00:00 | |
| AA1-15 | 2026-09-02 00:31:45 | 51.42144 | 7.85228 | 53° | 11km/h | 32143m | 6.4m/s | -40.6°C | 0% | 9hPa | 2.6V | 18:12:15 | 02:14:11 | 00:00:00 | |
| DM0DOS-11 | 2026-09-02 00:31:44 | 51.42144 | 7.85223 | 141° | 11km/h | 32121m | 5.7m/s | -40.6°C | 2.3% | 9.1hPa | 2.5V | 08:30:00 | 02:14:07 | 00:00:00 | |
| DL1XH-west | 2026-09-02 00:31:41 | 51.42144 | 7.85223 | 142° | 11km/h | 32121m | 5.7m/s | -40.6°C | 0% | 9.1hPa | 2.5V | 18:12:15 | 02:14:07 | 00:00:00 | |
| BIOWL1-15 | 2026-09-02 00:31:39 | 51.42155 | 7.85169 | 85° | 24km/h | 32087m | 5.4m/s | -40.6°C | 0% | 9.1hPa | 2.6V | 18:12:15 | 02:14:01 | 00:00:00 | |
| HSKMA3-T | 2026-09-02 00:31:39 | 51.42150 | 7.85212 | 118° | 24km/h | 32109m | 5.9m/s | -40.6°C | 0% | 9.1hPa | 2.6V | 18:12:15 | 02:14:05 | 00:00:00 | |
| AA1-15 | 2026-09-02 00:31:34 | 51.42154 | 7.85160 | 74° | 24km/h | 32082m | 5m/s | -40.5°C | 0% | 9.1hPa | 2.6V | 18:12:15 | 02:14:00 | 00:00:00 | |
| DO2SHX-10 | 2026-09-02 00:31:34 | 51.42154 | 7.85160 | 74° | 22km/h | 32082m | 4.9m/s | -40.5°C | 2.3% | 9.1hPa | 2.5V | 00:00:00 | 02:14:00 | 00:00:00 | |
| DL1XH-15 | 2026-09-02 00:31:32 | 51.42148 | 7.85136 | 70° | 20km/h | 32065m | 6m/s | -40.5°C | 2.3% | 9.1hPa | 2.5V | 08:30:00 | 02:13:57 | 00:00:00 | |
| DL1XH-west | 2026-09-02 00:31:30 | 51.42147 | 7.85128 | 77° | 20km/h | 32059m | 5.6m/s | -40.5°C | 0% | 9.2hPa | 2.6V | 18:12:15 | 02:13:56 | 00:00:00 | |
| DL1NUX | 2026-09-02 00:31:29 | 51.42147 | 7.85110 | 117° | 13km/h | 32042m | 6.5m/s | -40.4°C | 2.3% | 9.2hPa | 2.5V | 08:30:00 | 02:13:53 | 00:00:00 | |
| BIOWL1-15 | 2026-09-02 00:31:29 | 51.42147 | 7.85110 | 117° | 13km/h | 32042m | 6.5m/s | -40.4°C | 0% | 9.2hPa | 2.5V | 18:12:15 | 02:13:53 | 00:00:00 | |
| HSKMA3-T | 2026-09-02 00:31:28 | 51.42146 | 7.85115 | 101° | 15km/h | 32048m | 5.6m/s | -40.4°C | 0% | 9.1hPa | 2.5V | 18:12:15 | 02:13:54 | 00:00:00 | |
| AA1-15 | 2026-09-02 00:31:24 | 51.42154 | 7.85072 | 88° | 35km/h | 32016m | 6.4m/s | -40.3°C | 0% | 9.2hPa | 2.5V | 18:12:15 | 02:13:48 | 00:00:00 | |
| SO1NDE-10 | 2026-09-02 00:31:23 | 51.42154 | 7.85085 | 98° | 29km/h | 32022m | 6.2m/s | -40.2°C | 2.3% | 9.1hPa | 2.5V | 00:00:00 | 02:13:49 | 00:00:00 | |
| DL1NUX | 2026-09-02 00:31:22 | 51.42138 | 7.85001 | 53° | 29km/h | 31988m | 5.3m/s | -40.1°C | 2.2% | 9.2hPa | 2.5V | 08:30:00 | 02:13:43 | 00:00:00 | |
| DL1XH-west | 2026-09-02 00:31:20 | 51.42150 | 7.85041 | 72° | 42km/h | 32004m | 5.2m/s | -40.2°C | 0% | 9.2hPa | 2.6V | 18:12:15 | 02:13:46 | 00:00:00 | |
| BIOWL1-15 | 2026-09-02 00:31:17 | 51.42138 | 7.85001 | 53° | 29km/h | 31988m | 5.3m/s | -40.1°C | 0% | 9.2hPa | 2.5V | 18:12:15 | 02:13:43 | 00:00:00 | |
| DF8AY | 2026-09-02 00:31:14 | 51.42129 | 7.84980 | 71° | 18km/h | 31972m | 6m/s | -40.1°C | 0% | 9.2hPa | 2.6V | 18:12:15 | 02:13:40 | 00:00:00 | |
| DL4BBY-15 | 2026-09-02 00:31:14 | 51.42129 | 7.84980 | 71° | 31km/h | 31972m | 6.0m/s | -39.4°C | 0% | 0hPa | 2.5V | 00:00:00 | 00:00:00 | 00:00:00 | |
| GOEST3-10 | 2026-09-02 00:31:13 | 51.42128 | 7.84972 | 86° | 26km/h | 31967m | 6.1m/s | -40.0°C | 2.2% | 9.2hPa | 2.5V | 00:00:00 | 00:00:00 | 00:00:00 | |
| DL1NUX | 2026-09-02 00:31:12 | 51.42131 | 7.84909 | 82° | 26km/h | 31933m | 5.9m/s | -40°C | 2.2% | 9.3hPa | 2.5V | 08:30:00 | 02:13:33 | 00:00:00 | |
| AA1-15 | 2026-09-02 00:31:11 | 51.42129 | 7.84953 | 99° | 27km/h | 31955m | 5.2m/s | -40.1°C | 0% | 9.3hPa | 2.5V | 18:12:15 | 02:13:37 | 00:00:00 | |
| DL1XH-west | 2026-09-02 00:31:09 | 51.42131 | 7.84930 | 97° | 29km/h | 31945m | 5m/s | -40°C | 0% | 9.3hPa | 2.6V | 18:12:15 | 02:13:35 | 00:00:00 | |
| HSKMA3-T | 2026-09-02 00:31:07 | 51.42131 | 7.84909 | 82° | 26km/h | 31933m | 5.9m/s | -40°C | 0% | 9.3hPa | 2.5V | 18:12:15 | 02:13:33 | 00:00:00 | |
| BIOWL1-15 | 2026-09-02 00:31:06 | 51.42130 | 7.84899 | 72° | 26km/h | 31927m | 5.5m/s | -40.1°C | 0% | 9.3hPa | 2.5V | 18:12:15 | 02:13:32 | 00:00:00 | |
| DL8DAS-15 | 2026-09-02 00:31:06 | 51.42130 | 7.84899 | 73° | 26km/h | 31928m | 5.5m/s | -40.1°C | 0.5% | 9.3hPa | 2.6V | 00:00:00 | 00:00:00 | 00:00:00 | |
| DO2SHX-10 | 2026-09-02 00:31:04 | 51.42124 | 7.84877 | 64° | 33km/h | 31917m | 6.1m/s | -40.0°C | 2.2% | 9.3hPa | 2.6V | 00:00:00 | 02:13:30 | 08:30:00 | |
| GOEST3-10 | 2026-09-02 00:31:03 | 51.42120 | 7.84865 | 65° | 35km/h | 31911m | 6.2m/s | -40.0°C | 2.2% | 9.3hPa | 2.6V | 00:00:00 | 00:00:00 | 00:00:00 | |
| DL1NUX | 2026-09-02 00:31:02 | 51.42102 | 7.84793 | 84° | 22km/h | 31878m | 5m/s | -40.1°C | 2.2% | 9.4hPa | 2.6V | 08:30:00 | 02:13:23 | 00:00:00 | |
| DL1XH-15 | 2026-09-02 00:31:01 | 51.42112 | 7.84837 | 65° | 38km/h | 31900m | 4.8m/s | -40°C | 2.2% | 9.3hPa | 2.5V | 08:30:00 | 02:13:27 | 00:00:00 | |
| AA1-15 | 2026-09-02 00:31:00 | 51.42108 | 7.84824 | 66° | 35km/h | 31895m | 5.5m/s | -40°C | 0% | 9.4hPa | 2.5V | 18:12:15 | 02:13:26 | 00:00:00 | |
| DL1XH-west | 2026-09-02 00:30:59 | 51.42105 | 7.84812 | 68° | 29km/h | 31888m | 6.2m/s | -40°C | 0% | 9.4hPa | 2.5V | 18:12:15 | 02:13:25 | 00:00:00 | |
| HSKMA3-T | 2026-09-02 00:30:57 | 51.42102 | 7.84793 | 85° | 22km/h | 31878m | 5m/s | -40.1°C | 0% | 9.4hPa | 2.6V | 18:12:15 | 02:13:23 | 00:00:00 | |
| DO2JMG | 2026-09-02 00:30:56 | 51.42102 | 7.84784 | 96° | 24km/h | 31873m | 5.1m/s | -40.1°C | 0% | 9.4hPa | 2.6V | 18:12:15 | 02:13:22 | 00:00:00 | |
| BIOWL1-15 | 2026-09-02 00:30:55 | 51.42103 | 7.84773 | 102° | 27km/h | 31867m | 6.3m/s | -40.1°C | 0% | 9.4hPa | 2.5V | 18:12:15 | 02:13:21 | 00:00:00 | |
| AA1-15 | 2026-09-02 00:30:49 | 51.42100 | 7.84694 | 54° | 33km/h | 31833m | 6.2m/s | -40.1°C | 0% | 9.4hPa | 2.5V | 18:12:15 | 02:13:15 | 00:00:00 | |
| DL1NUX | 2026-09-02 00:30:49 | 51.42088 | 7.84674 | 42° | 35km/h | 31823m | 4.6m/s | -40.2°C | 2.2% | 9.5hPa | 2.6V | 08:30:00 | 02:13:13 | 00:00:00 | |
| DL1XH-west | 2026-09-02 00:30:48 | 51.42094 | 7.84684 | 45° | 35km/h | 31828m | 5.1m/s | -40.1°C | 0% | 9.5hPa | 2.5V | 18:12:15 | 02:13:14 | 00:00:00 | |
| DF8AY | 2026-09-02 00:30:47 | 51.42065 | 7.84591 | 85° | 26km/h | 31785m | 5.6m/s | -40.4°C | 0% | 9.5hPa | 2.5V | 18:12:15 | 02:13:06 | 00:00:00 | |
| HSKMA3-T | 2026-09-02 00:30:47 | 51.42088 | 7.84674 | 43° | 35km/h | 31823m | 4.6m/s | -40.2°C | 0% | 9.5hPa | 2.6V | 18:12:15 | 02:13:13 | 00:00:00 | |
| DO2JMG | 2026-09-02 00:30:45 | 51.42076 | 7.84653 | 55° | 37km/h | 31812m | 5.7m/s | -40.3°C | 0% | 9.5hPa | 2.5V | 18:12:15 | 02:13:11 | 00:00:00 | |
| BIOWL1-15 | 2026-09-02 00:30:44 | 51.42065 | 7.84602 | 84° | 29km/h | 31791m | 5.9m/s | -40.4°C | 0% | 9.5hPa | 2.6V | 18:12:15 | 02:13:07 | 00:00:00 | |
| DL4BBY-15 | 2026-09-02 00:30:44 | 51.42071 | 7.84640 | 66° | 27km/h | 31807m | 5.1m/s | -39.8°C | 0% | 0hPa | 2.6V | 00:00:00 | 00:00:00 | 00:00:00 | |
| DO2KSM | 2026-09-02 00:30:43 | 51.42071 | 7.84640 | 66° | 35km/h | 31807m | 5.2m/s | -40.4°C | 0.4% | 9.5hPa | 2.6V | 00:00:00 | 00:00:00 | 00:00:00 | |
| DM0DOS-11 | 2026-09-02 00:30:42 | 51.42065 | 7.84602 | 84° | 29km/h | 31791m | 5.9m/s | -40.4°C | 2.2% | 9.5hPa | 2.6V | 08:30:00 | 02:13:07 | 00:00:00 | |
| DL1NUX | 2026-09-02 00:30:42 | 51.42062 | 7.84563 | 75° | 24km/h | 31770m | 5.1m/s | -40.5°C | 2.2% | 9.5hPa | 2.6V | 08:30:00 | 02:13:03 | 00:00:00 | |
| AA1-15 | 2026-09-02 00:30:39 | 51.42064 | 7.84581 | 82° | 24km/h | 31780m | 5.1m/s | -40.5°C | 0% | 9.5hPa | 2.5V | 18:12:15 | 02:13:05 | 00:00:00 | |
| DL1XH-west | 2026-09-02 00:30:37 | 51.42062 | 7.84563 | 75° | 24km/h | 31770m | 5.1m/s | -40.5°C | 0% | 9.5hPa | 2.6V | 18:12:15 | 02:13:03 | 00:00:00 | |
| HSKMA3-T | 2026-09-02 00:30:36 | 51.42060 | 7.84553 | 76° | 26km/h | 31765m | 5.3m/s | -40.6°C | 0% | 9.5hPa | 2.6V | 18:12:15 | 02:13:02 | 00:00:00 | |
| DO2JMG | 2026-09-02 00:30:36 | 51.42059 | 7.84542 | 78° | 27km/h | 31760m | 5.3m/s | -40.6°C | 0% | 9.6hPa | 2.5V | 18:12:15 | 02:13:01 | 00:00:00 | |
| DO2SHX-10 | 2026-09-02 00:30:35 | 51.42058 | 7.84542 | 79° | 27km/h | 31760m | 5.3m/s | -40.6°C | 2.2% | 9.5hPa | 2.5V | 00:00:00 | 02:13:01 | 00:00:00 | |
| BUE01 | 2026-09-02 00:30:33 | 51.42055 | 7.84510 | 75° | 24km/h | 31745m | 4.8m/s | -40.7°C | 0.4% | 9.6hPa | 2.5V | 00:00:00 | 00:00:00 | 00:00:00 | |
| DL1NUX | 2026-09-02 00:30:32 | 51.42035 | 7.84475 | 40° | 31km/h | 31719m | 4.8m/s | -40.8°C | 2.2% | 9.6hPa | 2.5V | 08:30:00 | 02:12:53 | 00:00:00 | |
| BIOWL1-15 | 2026-09-02 00:30:30 | 51.42050 | 7.84494 | 48° | 20km/h | 31735m | 5.6m/s | -40.7°C | 0% | 9.6hPa | 2.5V | 18:12:15 | 02:12:56 | 00:00:00 | |
| AA1-15 | 2026-09-02 00:30:29 | 51.42040 | 7.84482 | 36° | 27km/h | 31724m | 4.8m/s | -40.8°C | 0% | 9.6hPa | 2.5V | 18:12:15 | 02:12:54 | 00:00:00 | |
| DL1XH-west | 2026-09-02 00:30:27 | 51.42035 | 7.84475 | 41° | 31km/h | 31719m | 4.8m/s | -40.8°C | 0% | 9.6hPa | 2.5V | 18:12:15 | 02:12:53 | 00:00:00 | |
| HSKMA3-T | 2026-09-02 00:30:25 | 51.42024 | 7.84453 | 62° | 37km/h | 31709m | 5.2m/s | -40.9°C | 0% | 9.7hPa | 2.6V | 18:12:15 | 02:12:51 | 00:00:00 | |
| DO3MHA-12 | 2026-09-02 00:30:25 | 51.42024 | 7.84453 | 62° | 22km/h | 31710m | 5.1m/s | -40.8°C | 2.2% | 9.6hPa | 2.6V | 00:00:00 | 02:12:51 | 00:00:00 | |
| DL1XH-15 | 2026-09-02 00:30:24 | 51.42022 | 7.84389 | 63° | 7km/h | 31680m | 5m/s | -41.1°C | 2.3% | 9.7hPa | 2.6V | 08:30:00 | 02:12:45 | 00:00:00 | |
| DM0DOS-11 | 2026-09-02 00:30:22 | 51.42020 | 7.84401 | 106° | 24km/h | 31689m | 4.6m/s | -41°C | 2.3% | 9.6hPa | 2.5V | 08:30:00 | 02:12:47 | 00:00:00 | |
| DL1NUX | 2026-09-02 00:30:22 | 51.42015 | 7.84387 | 4° | 24km/h | 31669m | 5.6m/s | -41.2°C | 2.3% | 9.7hPa | 2.5V | 08:30:00 | 02:12:43 | 00:00:00 | |
| BIOWL1-15 | 2026-09-02 00:30:20 | 51.42022 | 7.84393 | 107° | 15km/h | 31685m | 4.6m/s | -41.1°C | 0% | 9.7hPa | 2.5V | 18:12:15 | 02:12:46 | 00:00:00 | |
| DF8AY | 2026-09-02 00:30:19 | 51.41982 | 7.84365 | 42° | 38km/h | 31648m | 5.1m/s | -41.2°C | 0% | 9.7hPa | 2.6V | 18:12:15 | 02:12:39 | 00:00:00 | |
| AA1-15 | 2026-09-02 00:30:18 | 51.42015 | 7.84387 | 5° | 24km/h | 31669m | 5.6m/s | -41.2°C | 0% | 9.7hPa | 2.5V | 18:12:15 | 02:12:43 | 00:00:00 | |
| DL1XH-west | 2026-09-02 00:30:17 | 51.42008 | 7.84385 | 11° | 33km/h | 31664m | 5.5m/s | -41.2°C | 0% | 9.7hPa | 2.5V | 18:12:15 | 02:12:42 | 00:00:00 | |
| BIOWL9-15 | 2026-09-02 00:30:17 | 51.42008 | 7.84385 | 11° | 33km/h | 31664m | 5.5m/s | -41.2°C | 0.5% | 9.7hPa | 2.5V | 00:00:00 | 00:00:00 | 00:00:00 | |
| DM0DOS-11 | 2026-09-02 00:30:16 | 51.41972 | 7.84342 | 68° | 31km/h | 31638m | 5.7m/s | -41.2°C | 2.3% | 9.7hPa | 2.5V | 08:30:00 | 02:12:37 | 00:00:00 | |
| HSKMA3-T | 2026-09-02 00:30:15 | 51.42000 | 7.84381 | 20° | 38km/h | 31658m | 4.9m/s | -41.2°C | 0% | 9.7hPa | 2.5V | 18:12:15 | 02:12:41 | 00:00:00 | |
| DO2JMG | 2026-09-02 00:30:14 | 51.41991 | 7.84375 | 30° | 40km/h | 31653m | 4.8m/s | -41.2°C | 0% | 9.7hPa | 2.6V | 18:12:15 | 02:12:40 | 00:00:00 | |
| DO3MHA-12 | 2026-09-02 00:30:14 | 51.41990 | 7.84375 | 31° | 27km/h | 31654m | 4.8m/s | -41.2°C | 2.3% | 9.7hPa | 2.6V | 00:00:00 | 02:12:40 | 00:00:00 | |
| DJTTGO | 2026-09-02 00:30:13 | 51.41982 | 7.84365 | 43° | 40km/h | 31649m | 5.1m/s | -41.2°C | 0.5% | 9.7hPa | 2.5V | 00:00:00 | 00:00:00 | 00:00:00 | |
| DL8DAS-14 | 2026-09-02 00:30:12 | 51.41976 | 7.84354 | 54° | 35km/h | 31643m | 5.4m/s | -41.2°C | 0.5% | 9.7hPa | 2.5V | 00:00:00 | 00:00:00 | 00:00:00 | |
| DD8BA-10 | 2026-09-02 00:30:11 | 51.41972 | 7.84342 | 69° | 26km/h | 31638m | 5.6m/s | -41.2°C | 2.3% | 9.7hPa | 2.5V | 00:00:00 | 00:00:00 | 00:00:00 | |
| DL1XH-15 | 2026-09-02 00:30:10 | 51.41965 | 7.84293 | 42° | 24km/h | 31604m | 5.8m/s | -41.3°C | 2.3% | 9.8hPa | 2.5V | 08:30:00 | 02:12:31 | 00:00:00 | |
| AA1-15 | 2026-09-02 00:30:08 | 51.41970 | 7.84313 | 94° | 18km/h | 31621m | 5.1m/s | -41.3°C | 0% | 9.7hPa | 2.6V | 18:12:15 | 02:12:34 | 00:00:00 | |
| DL1XH-west | 2026-09-02 00:30:07 | 51.41970 | 7.84306 | 82° | 16km/h | 31616m | 5.4m/s | -41.3°C | 0% | 9.8hPa | 2.5V | 18:12:15 | 02:12:33 | 00:00:00 | |
| HSKMA3-T | 2026-09-02 00:30:05 | 51.41965 | 7.84293 | 42° | 24km/h | 31604m | 5.9m/s | -41.3°C | 0% | 9.8hPa | 2.5V | 18:12:15 | 02:12:31 | 00:00:00 | |
| DF8AY | 2026-09-02 00:30:03 | 51.41953 | 7.84280 | 29° | 35km/h | 31593m | 5.3m/s | -41.3°C | 0% | 9.8hPa | 2.6V | 18:12:15 | 02:12:29 | 00:00:00 | |
| DM0DOS-11 | 2026-09-02 00:30:02 | 51.41938 | 7.84266 | 31° | 35km/h | 31582m | 5.8m/s | -41.3°C | 2.4% | 9.8hPa | 2.5V | 08:30:00 | 02:12:27 | 00:00:00 | |
| BIOWL1-15 | 2026-09-02 00:29:59 | 51.41905 | 7.84203 | 59° | 26km/h | 31545m | 4.6m/s | -41.4°C | 0% | 9.9hPa | 2.5V | 18:12:15 | 02:12:20 | 00:00:00 | |
| GOEST3-10 | 2026-09-02 00:29:58 | 51.41921 | 7.84242 | 52° | 29km/h | 31567m | 5.2m/s | -41.3°C | 2.4% | 9.8hPa | 2.6V | 00:00:00 | 02:12:24 | 08:30:00 | |
| DL1XH-15 | 2026-09-02 00:29:57 | 51.41908 | 7.84212 | 59° | 29km/h | 31549m | 4.7m/s | -41.4°C | 2.4% | 9.9hPa | 2.5V | 08:30:00 | 02:12:21 | 00:00:00 | |
| DL1XH-west | 2026-09-02 00:29:57 | 51.41916 | 7.84233 | 55° | 29km/h | 31561m | 6.2m/s | -41.4°C | 0% | 9.9hPa | 2.5V | 18:12:15 | 02:12:23 | 00:00:00 | |
| HSKMA3-T | 2026-09-02 00:29:55 | 51.41908 | 7.84212 | 59° | 29km/h | 31549m | 4.7m/s | -41.4°C | 0% | 9.9hPa | 2.5V | 18:12:15 | 02:12:21 | 00:00:00 | |
| DO2JMG | 2026-09-02 00:29:52 | 51.41899 | 7.84189 | 51° | 16km/h | 31533m | 6m/s | -41.4°C | 0% | 9.9hPa | 2.6V | 18:12:15 | 02:12:18 | 00:00:00 | |
| DL1NUX | 2026-09-02 00:29:52 | 51.41873 | 7.84174 | 17° | 35km/h | 31506m | 4.8m/s | -41.5°C | 2.4% | 9.9hPa | 2.5V | 08:30:00 | 02:12:13 | 00:00:00 | |
| DF8AY | 2026-09-02 00:29:48 | 51.41881 | 7.84178 | 15° | 31km/h | 31512m | 5.9m/s | -41.5°C | 0% | 9.9hPa | 2.5V | 18:12:15 | 02:12:14 | 00:00:00 | |
| DL1XH-west | 2026-09-02 00:29:47 | 51.41873 | 7.84174 | 18° | 35km/h | 31506m | 4.8m/s | -41.5°C | 0% | 9.9hPa | 2.5V | 18:12:15 | 02:12:13 | 00:00:00 | |
| SONCRA | 2026-09-02 00:29:46 | 51.41864 | 7.84169 | 22° | 35km/h | 31502m | 4.0m/s | -41.5°C | 0.5% | 9.9hPa | 2.5V | 00:00:00 | 00:00:00 | 00:00:00 | |
| BIOWL9-15 | 2026-09-02 00:29:45 | 51.41857 | 7.84164 | 28° | 31km/h | 31497m | 5.4m/s | -41.5°C | 0.5% | 9.9hPa | 2.5V | 00:00:00 | 00:00:00 | 00:00:00 | |
| BIOWL1-15 | 2026-09-02 00:29:44 | 51.41843 | 7.84144 | 64° | 18km/h | 31480m | 5.5m/s | -41.5°C | 0% | 10hPa | 2.5V | 18:12:15 | 02:12:08 | 00:00:00 | |
| HSKMA3-T | 2026-09-02 00:29:44 | 51.41850 | 7.84157 | 36° | 27km/h | 31491m | 6.2m/s | -41.5°C | 0% | 9.9hPa | 2.5V | 18:12:15 | 02:12:10 | 00:00:00 | |
| DL1XH1-15 | 2026-09-02 00:29:43 | 51.41843 | 7.84144 | 63° | 18km/h | 31480m | 5.5m/s | -41.5°C | 2.4% | 10hPa | 2.5V | 08:30:00 | 02:12:08 | 00:00:00 | |
| GOEST3-10 | 2026-09-02 00:29:43 | 51.41846 | 7.84151 | 50° | 18km/h | 31486m | 5.7m/s | -41.4°C | 2.4% | 9.9hPa | 2.5V | 00:00:00 | 00:00:00 | 00:00:00 | |
| DL1NUX | 2026-09-02 00:29:42 | 51.41832 | 7.84118 | 19° | 15km/h | 31454m | 4.7m/s | -41.3°C | 2.3% | 10hPa | 2.5V | 08:30:00 | 02:12:03 | 00:00:00 | |
| DO2JMG | 2026-09-02 00:29:42 | 51.41841 | 7.84137 | 71° | 18km/h | 31474m | 5.5m/s | -41.4°C | 0% | 10hPa | 2.6V | 18:12:15 | 02:12:07 | 00:00:00 | |
| AA1-15 | 2026-09-02 00:29:37 | 51.41832 | 7.84118 | 19° | 15km/h | 31454m | 4.7m/s | -41.3°C | 0% | 10hPa | 2.5V | 18:12:15 | 02:12:03 | 00:00:00 | |
| DL1XH-west | 2026-09-02 00:29:36 | 51.41828 | 7.84117 | 8° | 15km/h | 31449m | 5.3m/s | -41.3°C | 0% | 10hPa | 2.6V | 18:12:15 | 02:12:02 | 00:00:00 | |
| DF8AY | 2026-09-02 00:29:35 | 51.41825 | 7.84116 | 2° | 13km/h | 31443m | 5.9m/s | -41.3°C | 0% | 10hPa | 2.6V | 18:12:15 | 02:12:01 | 00:00:00 | |
| HSKMA3-T | 2026-09-02 00:29:34 | 51.41821 | 7.84116 | 9° | 13km/h | 31438m | 5.3m/s | -41.3°C | 0% | 10hPa | 2.5V | 18:12:15 | 02:12:00 | 00:00:00 | |
| DL1XH1-15 | 2026-09-02 00:29:34 | 51.41816 | 7.84110 | 48° | 16km/h | 31428m | 4.8m/s | -41.3°C | 2.3% | 10hPa | 2.5V | 08:30:00 | 02:11:58 | 00:00:00 | |
| DL1NUX | 2026-09-02 00:29:33 | 51.41801 | 7.84060 | 77° | 27km/h | 31402m | 5m/s | -41.3°C | 2.3% | 10.1hPa | 2.5V | 08:30:00 | 02:11:53 | 00:00:00 | |
| BIOWL1-15 | 2026-09-02 00:29:31 | 51.41813 | 7.84104 | 57° | 24km/h | 31422m | 6.2m/s | -41.3°C | 0% | 10.1hPa | 2.6V | 18:12:15 | 02:11:57 | 00:00:00 | |
| DO2JMG | 2026-09-02 00:29:30 | 51.41809 | 7.84095 | 61° | 29km/h | 31416m | 6.2m/s | -41.3°C | 0% | 10.1hPa | 2.6V | 18:12:15 | 02:11:56 | 00:00:00 | |
| DL1XH-15 | 2026-09-02 00:29:30 | 51.41800 | 7.84045 | 99° | 11km/h | 31391m | 5.3m/s | -41.4°C | 2.3% | 10.1hPa | 2.6V | 08:30:00 | 02:11:51 | 00:00:00 | |
| DF7PN | 2026-09-02 00:29:29 | 51.41803 | 7.84072 | 71° | 31km/h | 31406m | 4.0m/s | -41.3°C | 0.5% | 10.1hPa | 2.5V | 00:00:00 | 00:00:00 | 00:00:00 | |
| DL3AQ-11 | 2026-09-02 00:29:28 | 51.41801 | 7.84060 | 77° | 26km/h | 31402m | 5.0m/s | -41.3°C | 0.5% | 10.1hPa | 2.5V | 00:00:00 | 00:00:00 | 00:00:00 | |
| DL1XH1-15 | 2026-09-02 00:29:27 | 51.41800 | 7.84044 | 331° | 7km/h | 31375m | 5.6m/s | -41.4°C | 2.3% | 10.1hPa | 2.5V | 08:30:00 | 02:11:48 | 00:00:00 | |
| AA1-15 | 2026-09-02 00:29:26 | 51.41800 | 7.84051 | 87° | 20km/h | 31396m | 5.7m/s | -41.4°C | 0% | 10.1hPa | 2.5V | 18:12:15 | 02:11:52 | 00:00:00 | |
| DM0DOS-11 | 2026-09-02 00:29:26 | 51.41797 | 7.84045 | 355° | 11km/h | 31369m | 5.4m/s | -41.5°C | 2.3% | 10.1hPa | 2.5V | 08:30:00 | 02:11:47 | 00:00:00 | |
| DL1XH-west | 2026-09-02 00:29:25 | 51.41800 | 7.84045 | 99° | 11km/h | 31391m | 5.3m/s | -41.4°C | 0% | 10.1hPa | 2.6V | 18:12:15 | 02:11:51 | 00:00:00 | |
| HSKMA3-T | 2026-09-02 00:29:24 | 51.41801 | 7.84042 | 302° | 4km/h | 31381m | 5.4m/s | -41.4°C | 0% | 10.1hPa | 2.6V | 18:12:15 | 02:11:49 | 00:00:00 | |
| BIOWL1-15 | 2026-09-02 00:29:23 | 51.41794 | 7.84044 | 19° | 16km/h | 31365m | 4.9m/s | -41.5°C | 0% | 10.1hPa | 2.5V | 18:12:15 | 02:11:46 | 00:00:00 | |
| SO1NDE-10 | 2026-09-02 00:29:23 | 51.41801 | 7.84042 | 302° | 16km/h | 31381m | 5.3m/s | -41.3°C | 2.3% | 10.1hPa | 2.6V | 00:00:00 | 02:11:49 | 00:00:00 | |
| DL1NUX | 2026-09-02 00:29:22 | 51.41785 | 7.84026 | 74° | 24km/h | 31349m | 5.7m/s | -41.5°C | 2.3% | 10.2hPa | 2.6V | 08:30:00 | 02:11:43 | 00:00:00 | |
| DO2JMG | 2026-09-02 00:29:19 | 51.41790 | 7.84040 | 39° | 20km/h | 31360m | 4.7m/s | -41.5°C | 0% | 10.2hPa | 2.5V | 18:12:15 | 02:11:45 | 00:00:00 | |
| DO2SHX-10 | 2026-09-02 00:29:19 | 51.41790 | 7.84040 | 40° | 22km/h | 31360m | 4.7m/s | -41.4°C | 2.4% | 10.1hPa | 2.5V | 00:00:00 | 02:11:45 | 00:00:00 | |
| GOEST3-10 | 2026-09-02 00:29:18 | 51.41787 | 7.84034 | 58° | 24km/h | 31355m | 4.9m/s | -41.5°C | 2.4% | 10.1hPa | 2.5V | 00:00:00 | 02:11:44 | 00:00:00 | |
| DL1XH-15 | 2026-09-02 00:29:17 | 51.41784 | 7.84007 | 102° | 24km/h | 31338m | 5.2m/s | -41.5°C | 2.3% | 10.2hPa | 2.5V | 08:30:00 | 02:11:41 | 00:00:00 | |
| AA1-15 | 2026-09-02 00:29:16 | 51.41784 | 7.84016 | 90° | 24km/h | 31343m | 5.7m/s | -41.5°C | 0% | 10.2hPa | 2.5V | 18:12:15 | 02:11:42 | 00:00:00 | |
| DJ2KF-10 | 2026-09-02 00:29:16 | 51.41784 | 7.84016 | 90° | 16km/h | 31344m | 5.7m/s | -41.5°C | 2.3% | 10.1hPa | 2.5V | 00:00:00 | 02:11:42 | 00:00:00 | |
| DM0DOS-11 | 2026-09-02 00:29:15 | 51.41790 | 7.83975 | 93° | 15km/h | 31317m | 6m/s | -41.6°C | 2.3% | 10.2hPa | 2.5V | 08:30:00 | 02:11:37 | 00:00:00 | |
| DL1XH-west | 2026-09-02 00:29:15 | 51.41784 | 7.84006 | 102° | 24km/h | 31338m | 5.2m/s | -41.5°C | 0% | 10.2hPa | 2.5V | 18:12:15 | 02:11:41 | 00:00:00 | |
| DO2SHX-10 | 2026-09-02 00:29:15 | 51.41784 | 7.84006 | 103° | 24km/h | 31339m | 5.2m/s | -41.5°C | 2.3% | 10.1hPa | 2.5V | 00:00:00 | 02:11:41 | 00:00:00 | |
| DL1XH1-15 | 2026-09-02 00:29:14 | 51.41790 | 7.83982 | 106° | 18km/h | 31323m | 5.5m/s | -41.5°C | 2.3% | 10.2hPa | 2.6V | 08:30:00 | 02:11:38 | 00:00:00 | |
| HSKMA3-T | 2026-09-02 00:29:13 | 51.41788 | 7.83989 | 112° | 20km/h | 31328m | 4.8m/s | -41.5°C | 0% | 10.2hPa | 2.6V | 18:12:15 | 02:11:39 | 00:00:00 | |
| BIOWL1-15 | 2026-09-02 00:29:11 | 51.41790 | 7.83975 | 94° | 15km/h | 31317m | 6m/s | -41.6°C | 0% | 10.2hPa | 2.5V | 18:12:15 | 02:11:37 | 00:00:00 | |
| DO3MHA-12 | 2026-09-02 00:29:11 | 51.41790 | 7.83975 | 94° | 11km/h | 31318m | 5.9m/s | -41.5°C | 2.3% | 10.2hPa | 2.5V | 00:00:00 | 02:11:37 | 08:30:00 | |
| DL1XH-15 | 2026-09-02 00:29:10 | 51.41789 | 7.83954 | 154° | 9km/h | 31285m | 5.4m/s | -41.8°C | 2.4% | 10.3hPa | 2.5V | 08:30:00 | 02:11:31 | 00:00:00 | |
| DO2JMG | 2026-09-02 00:29:08 | 51.41788 | 7.83961 | 65° | 9km/h | 31302m | 4.6m/s | -41.6°C | 0% | 10.2hPa | 2.6V | 18:12:15 | 02:11:34 | 00:00:00 | |
| DL1XH-west | 2026-09-02 00:29:05 | 51.41789 | 7.83954 | 155° | 9km/h | 31285m | 5.4m/s | -41.8°C | 0% | 10.3hPa | 2.5V | 18:12:15 | 02:11:31 | 00:00:00 | |
| HSKMA3-T | 2026-09-02 00:29:03 | 51.41793 | 7.83950 | 137° | 11km/h | 31276m | 4.5m/s | -41.9°C | 0% | 10.3hPa | 2.5V | 18:12:15 | 02:11:29 | 00:00:00 | |
| DM0DOS-11 | 2026-09-02 00:29:03 | 51.41795 | 7.83941 | 85° | 16km/h | 31265m | 6.1m/s | -41.9°C | 2.4% | 10.3hPa | 2.6V | 08:30:00 | 02:11:27 | 00:00:00 | |
| DL1NUX | 2026-09-02 00:29:02 | 51.41788 | 7.83902 | 79° | 29km/h | 31243m | 5.9m/s | -42.2°C | 2.4% | 10.3hPa | 2.5V | 08:30:00 | 02:11:23 | 00:00:00 | |
| DF8AY | 2026-09-02 00:29:01 | 51.41795 | 7.83941 | 86° | 16km/h | 31265m | 6.1m/s | -41.9°C | 0% | 10.3hPa | 2.6V | 18:12:15 | 02:11:27 | 00:00:00 | |
| BIOWL1-15 | 2026-09-02 00:29:00 | 51.41792 | 7.83924 | 71° | 27km/h | 31254m | 5.1m/s | -42.1°C | 0% | 10.3hPa | 2.5V | 18:12:15 | 02:11:25 | 00:00:00 | |
| DO2JMG | 2026-09-02 00:28:58 | 51.41790 | 7.83913 | 74° | 29km/h | 31249m | 5.2m/s | -42.1°C | 0% | 10.3hPa | 2.5V | 18:12:15 | 02:11:24 | 00:00:00 | |
| DO3DL | 2026-09-02 00:28:58 | 51.41790 | 7.83913 | 75° | 29km/h | 31249m | 5.2m/s | -42.1°C | 0.5% | 10.3hPa | 2.5V | 00:00:00 | 00:00:00 | 00:00:00 | |
| DM0DOS-11 | 2026-09-02 00:28:56 | 51.41788 | 7.83856 | 64° | 13km/h | 31211m | 5.3m/s | -42.2°C | 2.4% | 10.4hPa | 2.5V | 08:30:00 | 02:11:17 | 00:00:00 | |
| DL1XH-west | 2026-09-02 00:28:55 | 51.41789 | 7.83873 | 98° | 18km/h | 31227m | 5m/s | -42.2°C | 0% | 10.4hPa | 2.6V | 18:12:15 | 02:11:20 | 00:00:00 | |
| HSKMA3-T | 2026-09-02 00:28:52 | 51.41789 | 7.83861 | 79° | 13km/h | 31216m | 6.1m/s | -42.2°C | 0% | 10.4hPa | 2.5V | 18:12:15 | 02:11:18 | 00:00:00 | |
| DF8AY | 2026-09-02 00:28:51 | 51.41785 | 7.83815 | 103° | 24km/h | 31179m | 5.1m/s | -42.4°C | 0% | 10.4hPa | 2.6V | 18:12:15 | 02:11:11 | 00:00:00 | |
| BIOWL1-15 | 2026-09-02 00:28:50 | 51.41783 | 7.83839 | 80° | 16km/h | 31196m | 5.7m/s | -42.2°C | 0% | 10.4hPa | 2.5V | 18:12:15 | 02:11:14 | 00:00:00 | |
| DO2JMG | 2026-09-02 00:28:47 | 51.41783 | 7.83832 | 93° | 18km/h | 31190m | 6.4m/s | -42.3°C | 0% | 10.4hPa | 2.5V | 18:12:15 | 02:11:13 | 00:00:00 | |
| DL1XH1-15 | 2026-09-02 00:28:47 | 51.41785 | 7.83785 | 75° | 27km/h | 31163m | 6.5m/s | -42.4°C | 2.4% | 10.4hPa | 2.5V | 08:30:00 | 02:11:08 | 00:00:00 | |
| DO1YAY-16 | 2026-09-02 00:28:47 | 51.41784 | 7.83824 | 101° | 20km/h | 31184m | 5.8m/s | -42.3°C | 0.5% | 10.4hPa | 2.6V | 00:00:00 | 00:00:00 | 00:00:00 | |
| AU51GT2 | 2026-09-02 00:28:45 | 51.41785 | 7.83815 | 103° | 22km/h | 31179m | 5.1m/s | -42.4°C | 0.5% | 10.4hPa | 2.6V | 00:00:00 | 00:00:00 | 00:00:00 | |
| DL1XH-west | 2026-09-02 00:28:44 | 51.41786 | 7.83805 | 98° | 26km/h | 31174m | 4.7m/s | -42.4°C | 0% | 10.4hPa | 2.6V | 18:12:15 | 02:11:10 | 00:00:00 | |
| AA1-15 | 2026-09-02 00:28:43 | 51.41786 | 7.83795 | 88° | 26km/h | 31169m | 5m/s | -42.4°C | 0% | 10.5hPa | 2.5V | 18:12:15 | 02:11:09 | 00:00:00 | |
| HTAHTA | 2026-09-02 00:28:43 | 51.41785 | 7.83785 | 75° | 26km/h | 31164m | 6.5m/s | -42.4°C | 0.5% | 10.4hPa | 2.6V | 00:00:00 | 00:00:00 | 00:00:00 | |
| DL1NUX | 2026-09-02 00:28:42 | 51.41770 | 7.83743 | 68° | 13km/h | 31135m | 5.9m/s | -42.6°C | 2.5% | 10.5hPa | 2.6V | 08:30:00 | 02:11:03 | 00:00:00 | |
| HSKMA3-T | 2026-09-02 00:28:41 | 51.41783 | 7.83774 | 64° | 29km/h | 31157m | 6m/s | -42.5°C | 0% | 10.5hPa | 2.5V | 18:12:15 | 02:11:07 | 00:00:00 | |
| BIOWL1-15 | 2026-09-02 00:28:37 | 51.41770 | 7.83734 | 103° | 11km/h | 31125m | 5.3m/s | -42.6°C | 0% | 10.5hPa | 2.5V | 18:12:15 | 02:11:01 | 00:00:00 | |
| DO2JMG | 2026-09-02 00:28:37 | 51.41770 | 7.83743 | 68° | 13km/h | 31135m | 5.9m/s | -42.6°C | 0% | 10.5hPa | 2.6V | 18:12:15 | 02:11:03 | 00:00:00 | |
| DF8AY | 2026-09-02 00:28:36 | 51.41771 | 7.83729 | 101° | 13km/h | 31119m | 6.1m/s | -42.6°C | 0% | 10.5hPa | 2.5V | 18:12:15 | 02:11:00 | 00:00:00 | |
| DJ8HS-15 | 2026-09-02 00:28:36 | 51.41770 | 7.83738 | 90° | 18km/h | 31130m | 5.0m/s | -42.5°C | 2.5% | 10.5hPa | 2.5V | 00:00:00 | 02:11:02 | 00:00:00 | |
| DJTTGO | 2026-09-02 00:28:35 | 51.41770 | 7.83734 | 104° | 11km/h | 31125m | 5.3m/s | -42.6°C | 0.5% | 10.5hPa | 2.6V | 00:00:00 | 00:00:00 | 00:00:00 | |
| DL1XH1-15 | 2026-09-02 00:28:33 | 51.41772 | 7.83717 | 96° | 18km/h | 31108m | 5.4m/s | -42.5°C | 2.4% | 10.6hPa | 2.6V | 08:30:00 | 02:10:58 | 00:00:00 | |
| AA1-15 | 2026-09-02 00:28:32 | 51.41772 | 7.83717 | 96° | 18km/h | 31108m | 5.4m/s | -42.5°C | 0% | 10.6hPa | 2.6V | 18:12:15 | 02:10:58 | 00:00:00 | |
| DL1NUX | 2026-09-02 00:28:32 | 51.41775 | 7.83670 | 86° | 27km/h | 31081m | 4.6m/s | -42.5°C | 2.5% | 10.6hPa | 2.6V | 08:30:00 | 02:10:53 | 00:00:00 | |
| HSKMA3-T | 2026-09-02 00:28:30 | 51.41773 | 7.83700 | 100° | 24km/h | 31097m | 6.2m/s | -42.5°C | 0% | 10.6hPa | 2.5V | 18:12:15 | 02:10:56 | 00:00:00 | |
| DF8AY | 2026-09-02 00:28:26 | 51.41774 | 7.83658 | 77° | 29km/h | 31075m | 6.3m/s | -42.5°C | 0% | 10.6hPa | 2.6V | 18:12:15 | 02:10:52 | 00:00:00 | |
| DM0DOS-11 | 2026-09-02 00:28:26 | 51.41761 | 7.83616 | 68° | 11km/h | 31048m | 6.7m/s | -42.5°C | 2.4% | 10.6hPa | 2.6V | 08:30:00 | 02:10:47 | 00:00:00 | |
| BIOWL1-15 | 2026-09-02 00:28:25 | 51.41769 | 7.83637 | 60° | 29km/h | 31063m | 4.8m/s | -42.5°C | 0% | 10.6hPa | 2.5V | 18:12:15 | 02:10:50 | 00:00:00 | |
| DJ3KS | 2026-09-02 00:28:24 | 51.41772 | 7.83647 | 68° | 31km/h | 31069m | 6.2m/s | -42.5°C | 0.5% | 10.6hPa | 2.6V | 00:00:00 | 00:00:00 | 00:00:00 | |
| DL1XH1-15 | 2026-09-02 00:28:23 | 51.41762 | 7.83621 | 56° | 16km/h | 31054m | 5.7m/s | -42.5°C | 2.4% | 10.6hPa | 2.6V | 08:30:00 | 02:10:48 | 00:00:00 | |
| GOEST3-10 | 2026-09-02 00:28:23 | 51.41765 | 7.83627 | 56° | 13km/h | 31059m | 4.6m/s | -42.4°C | 2.4% | 10.6hPa | 2.5V | 00:00:00 | 00:00:00 | 00:00:00 | |
| DL1NUX | 2026-09-02 00:28:22 | 51.41766 | 7.83605 | 122° | 13km/h | 31026m | 5.7m/s | -42.6°C | 2.4% | 10.7hPa | 2.5V | 08:30:00 | 02:10:43 | 00:00:00 | |
| DL1XH-west | 2026-09-02 00:28:21 | 51.41761 | 7.83616 | 68° | 11km/h | 31048m | 6.7m/s | -42.5°C | 0% | 10.6hPa | 2.6V | 18:12:15 | 02:10:47 | 00:00:00 | |
| HSKMA3-T | 2026-09-02 00:28:20 | 51.41760 | 7.83613 | 119° | 7km/h | 31041m | 6m/s | -42.5°C | 0% | 10.7hPa | 2.5V | 18:12:15 | 02:10:46 | 00:00:00 | |
| DO2JMG | 2026-09-02 00:28:16 | 51.41767 | 7.83600 | 97° | 16km/h | 31020m | 6.3m/s | -42.6°C | 0% | 10.7hPa | 2.6V | 18:12:15 | 02:10:42 | 00:00:00 | |
| DM0DOS-11 | 2026-09-02 00:28:16 | 51.41759 | 7.83552 | 74° | 24km/h | 30992m | 5.9m/s | -42.7°C | 2.4% | 10.7hPa | 2.5V | 08:30:00 | 02:10:37 | 00:00:00 | |
| DF8AY | 2026-09-02 00:28:15 | 51.41767 | 7.83592 | 81° | 22km/h | 31014m | 6m/s | -42.6°C | 0% | 10.7hPa | 2.6V | 18:12:15 | 02:10:41 | 00:00:00 | |
| DO2SHX-10 | 2026-09-02 00:28:15 | 51.41767 | 7.83592 | 81° | 24km/h | 31015m | 5.9m/s | -42.6°C | 2.5% | 10.7hPa | 2.5V | 00:00:00 | 02:10:41 | 00:00:00 | |
| DD1CC2-15 | 2026-09-02 00:28:14 | 51.41767 | 7.83592 | 82° | 22km/h | 31015m | 6.0m/s | -42.6°C | 0.6% | 10.7hPa | 2.5V | 00:00:00 | 00:00:00 | 00:00:00 | |
| DL1XH1-15 | 2026-09-02 00:28:13 | 51.41761 | 7.83562 | 71° | 26km/h | 30998m | 5.6m/s | -42.7°C | 2.5% | 10.7hPa | 2.5V | 08:30:00 | 02:10:38 | 00:00:00 | |
| GOEST3-10 | 2026-09-02 00:28:13 | 51.41763 | 7.83572 | 72° | 22km/h | 31004m | 5.0m/s | -42.6°C | 2.5% | 10.6hPa | 2.5V | 00:00:00 | 00:00:00 | 00:00:00 | |
| DL1XH-15 | 2026-09-02 00:28:12 | 51.41758 | 7.83544 | 80° | 18km/h | 30986m | 5.9m/s | -42.8°C | 2.5% | 10.8hPa | 2.5V | 08:30:00 | 02:10:36 | 00:00:00 | |
| DL1NUX | 2026-09-02 00:28:12 | 51.41756 | 7.83528 | 57° | 9km/h | 30969m | 5.9m/s | -42.9°C | 2.5% | 10.7hPa | 2.5V | 08:30:00 | 02:10:33 | 00:00:00 | |
| AA1-15 | 2026-09-02 00:28:11 | 51.41759 | 7.83552 | 75° | 24km/h | 30992m | 5.9m/s | -42.7°C | 0% | 10.7hPa | 2.5V | 18:12:15 | 02:10:37 | 00:00:00 | |
| HSKMA3-T | 2026-09-02 00:28:10 | 51.41758 | 7.83544 | 80° | 18km/h | 30986m | 5.9m/s | -42.8°C | 0% | 10.8hPa | 2.5V | 18:12:15 | 02:10:36 | 00:00:00 | |
| DF8AY | 2026-09-02 00:28:06 | 51.41741 | 7.83508 | 71° | 11km/h | 30935m | 6m/s | -43°C | 0% | 10.8hPa | 2.5V | 18:12:15 | 02:10:27 | 00:00:00 | |
| DM0DOS-11 | 2026-09-02 00:28:06 | 51.41741 | 7.83508 | 71° | 11km/h | 30935m | 6m/s | -43°C | 2.6% | 10.8hPa | 2.5V | 08:30:00 | 02:10:27 | 00:00:00 | |
| DO2JMG | 2026-09-02 00:28:05 | 51.41752 | 7.83523 | 27° | 15km/h | 30957m | 5.6m/s | -42.9°C | 0% | 10.8hPa | 2.5V | 18:12:15 | 02:10:31 | 00:00:00 | |
| BIOWL1-15 | 2026-09-02 00:28:04 | 51.41748 | 7.83520 | 28° | 16km/h | 30952m | 4.8m/s | -42.9°C | 0% | 10.8hPa | 2.6V | 18:12:15 | 02:10:30 | 00:00:00 | |
| DL1XH1-15 | 2026-09-02 00:28:03 | 51.41742 | 7.83513 | 49° | 13km/h | 30941m | 6.3m/s | -43°C | 2.5% | 10.8hPa | 2.5V | 08:30:00 | 02:10:28 | 00:00:00 | |
| DO2SHX-10 | 2026-09-02 00:28:03 | 51.41745 | 7.83517 | 36° | 13km/h | 30947m | 5.0m/s | -42.9°C | 2.5% | 10.7hPa | 2.5V | 00:00:00 | 02:10:29 | 00:00:00 | |
| DL1NUX | 2026-09-02 00:28:02 | 51.41738 | 7.83488 | 62° | 16km/h | 30913m | 6.1m/s | -43°C | 2.5% | 10.9hPa | 2.5V | 08:30:00 | 02:10:23 | 00:00:00 | |
| DL1XH-15 | 2026-09-02 00:28:02 | 51.41740 | 7.83504 | 86° | 13km/h | 30929m | 5.3m/s | -43°C | 2.5% | 10.8hPa | 2.5V | 08:30:00 | 02:10:26 | 00:00:00 | |
| DL1XH-west | 2026-09-02 00:28:00 | 51.41740 | 7.83504 | 87° | 13km/h | 30929m | 5.3m/s | -43°C | 0% | 10.8hPa | 2.5V | 18:12:15 | 02:10:26 | 00:00:00 | |
| HSKMA3-T | 2026-09-02 00:27:59 | 51.41740 | 7.83499 | 86° | 13km/h | 30924m | 5m/s | -43°C | 0% | 10.9hPa | 2.6V | 18:12:15 | 02:10:25 | 00:00:00 | |
| GOEST3-10 | 2026-09-02 00:27:58 | 51.41739 | 7.83493 | 78° | 16km/h | 30919m | 5.5m/s | -43.0°C | 2.6% | 10.8hPa | 2.6V | 00:00:00 | 02:10:24 | 00:00:00 | |
| DO2SHX-10 | 2026-09-02 00:27:57 | 51.41738 | 7.83488 | 63° | 18km/h | 30913m | 6.1m/s | -43.0°C | 2.5% | 10.8hPa | 2.6V | 00:00:00 | 02:10:23 | 00:00:00 | |
| DM0DOS-11 | 2026-09-02 00:27:56 | 51.41724 | 7.83464 | 349° | 2km/h | 30879m | 5.8m/s | -43°C | 2.5% | 10.9hPa | 2.6V | 08:30:00 | 02:10:17 | 00:00:00 | |
| DO2JMG | 2026-09-02 00:27:54 | 51.41729 | 7.83471 | 42° | 16km/h | 30897m | 5.1m/s | -43°C | 0% | 10.9hPa | 2.5V | 18:12:15 | 02:10:20 | 00:00:00 | |
| BIOWL1-15 | 2026-09-02 00:27:53 | 51.41727 | 7.83467 | 40° | 13km/h | 30891m | 6.2m/s | -43°C | 0% | 10.9hPa | 2.6V | 18:12:15 | 02:10:19 | 00:00:00 | |
| SO1NDE-10 | 2026-09-02 00:27:53 | 51.41727 | 7.83467 | 40° | 7km/h | 30891m | 6.1m/s | -42.9°C | 2.5% | 10.9hPa | 2.5V | 00:00:00 | 02:10:19 | 00:00:00 | |
| DL1XH-15 | 2026-09-02 00:27:52 | 51.41724 | 7.83465 | 292° | 4km/h | 30873m | 5.2m/s | -43°C | 2.5% | 10.9hPa | 2.5V | 08:30:00 | 02:10:16 | 00:00:00 | |
| DL1NUX | 2026-09-02 00:27:52 | 51.41720 | 7.83472 | 328° | 11km/h | 30855m | 5.7m/s | -43°C | 2.5% | 10.9hPa | 2.5V | 08:30:00 | 02:10:13 | 00:00:00 | |
| DF8AY | 2026-09-02 00:27:50 | 51.41724 | 7.83465 | 292° | 4km/h | 30873m | 5.2m/s | -43°C | 0% | 10.9hPa | 2.5V | 18:12:15 | 02:10:16 | 00:00:00 | |
| AA1-15 | 2026-09-02 00:27:50 | 51.41723 | 7.83467 | 303° | 5km/h | 30868m | 5.7m/s | -43°C | 0% | 10.9hPa | 2.5V | 18:12:15 | 02:10:15 | 00:00:00 | |
| HSKMA3-T | 2026-09-02 00:27:48 | 51.41722 | 7.83469 | 319° | 9km/h | 30862m | 6.6m/s | -43°C | 0% | 10.9hPa | 2.5V | 18:12:15 | 02:10:14 | 00:00:00 | |
| DO2SHX-10 | 2026-09-02 00:27:48 | 51.41722 | 7.83469 | 320° | 11km/h | 30862m | 6.6m/s | -43.0°C | 2.5% | 10.9hPa | 2.6V | 00:00:00 | 02:10:14 | 00:00:00 | |
| NBG1-10 | 2026-09-02 00:27:47 | 51.41719 | 7.83471 | 329° | 7km/h | 30856m | 5.6m/s | -43.0°C | 2.5% | 10.9hPa | 2.6V | 00:00:00 | 02:10:13 | 00:00:00 | |
| DM0DOS-11 | 2026-09-02 00:27:46 | 51.41712 | 7.83486 | 268° | 7km/h | 30822m | 5.1m/s | -42.9°C | 2.5% | 11hPa | 2.6V | 08:30:00 | 02:10:07 | 00:00:00 | |
| DO2JMG | 2026-09-02 00:27:43 | 51.41712 | 7.83481 | 284° | 7km/h | 30833m | 6.1m/s | -43°C | 0% | 11hPa | 2.5V | 18:12:15 | 02:10:09 | 00:00:00 | |
| GOEST3-10 | 2026-09-02 00:27:43 | 51.41712 | 7.83481 | 284° | 7km/h | 30833m | 6.1m/s | -42.9°C | 2.5% | 10.9hPa | 2.5V | 00:00:00 | 00:00:00 | 08:30:00 | |
| DL1XH-15 | 2026-09-02 00:27:42 | 51.41712 | 7.83489 | 296° | 7km/h | 30816m | 5.5m/s | -42.9°C | 2.5% | 11hPa | 2.6V | 08:30:00 | 02:10:06 | 00:00:00 | |
| DF8AY | 2026-09-02 00:27:40 | 51.41712 | 7.83489 | 297° | 7km/h | 30817m | 5.5m/s | -42.9°C | 0% | 11hPa | 2.6V | 18:12:15 | 02:10:06 | 00:00:00 | |
| AA1-15 | 2026-09-02 00:27:39 | 51.41711 | 7.83491 | 328° | 9km/h | 30811m | 6.5m/s | -42.9°C | 0% | 11hPa | 2.5V | 18:12:15 | 02:10:05 | 00:00:00 | |
| DL1XH-west | 2026-09-02 00:27:38 | 51.41708 | 7.83492 | 345° | 13km/h | 30804m | 6m/s | -42.9°C | 0% | 11hPa | 2.5V | 18:12:15 | 02:10:04 | 00:00:00 | |
| HSKMA3-T | 2026-09-02 00:27:37 | 51.41705 | 7.83493 | 351° | 15km/h | 30799m | 5.4m/s | -42.9°C | 0% | 11.1hPa | 2.5V | 18:12:15 | 02:10:03 | 00:00:00 | |
| DO2JMG | 2026-09-02 00:27:33 | 51.41698 | 7.83494 | 116° | 2km/h | 30775m | 5.5m/s | -43°C | 0% | 11.1hPa | 2.6V | 18:12:15 | 02:09:59 | 00:00:00 | |
| DL1XH-15 | 2026-09-02 00:27:33 | 51.41699 | 7.83489 | 101° | 7km/h | 30757m | 5.9m/s | -43°C | 2.5% | 11.1hPa | 2.5V | 08:30:00 | 02:09:56 | 00:00:00 | |
| DL1XH-west | 2026-09-02 00:27:28 | 51.41701 | 7.83483 | 119° | 9km/h | 30746m | 5.7m/s | -42.9°C | 0% | 11.2hPa | 2.6V | 18:12:15 | 02:09:54 | 00:00:00 | |
| HSKMA3-T | 2026-09-02 00:27:27 | 51.41702 | 7.83480 | 135° | 9km/h | 30740m | 6.7m/s | -42.9°C | 0% | 11.2hPa | 2.6V | 18:12:15 | 02:09:53 | 00:00:00 | |
| DF8AY | 2026-09-02 00:27:25 | 51.41708 | 7.83473 | 77° | 2km/h | 30717m | 6.7m/s | -43.1°C | 0% | 11.2hPa | 2.6V | 18:12:15 | 02:09:49 | 00:00:00 | |
| DO2SHX-10 | 2026-09-02 00:27:25 | 51.41706 | 7.83475 | 154° | 5km/h | 30728m | 5.0m/s | -43.0°C | 2.5% | 11.1hPa | 2.6V | 00:00:00 | 02:09:51 | 00:00:00 | |
| WEDDY | 2026-09-02 00:27:24 | 51.41706 | 7.83475 | 154° | 9km/h | 30728m | 5.1m/s | -43.0°C | 0.5% | 11.2hPa | 2.6V | 00:00:00 | 00:00:00 | 00:00:00 | |
| DL1XH1-15 | 2026-09-02 00:27:23 | 51.41708 | 7.83473 | 9° | 5km/h | 30710m | 6.1m/s | -43.1°C | 2.5% | 11.2hPa | 2.6V | 08:30:00 | 02:09:48 | 00:00:00 | |
| DO2JMG | 2026-09-02 00:27:22 | 51.41707 | 7.83473 | 10° | 5km/h | 30710m | 6.1m/s | -43.1°C | 0% | 11.2hPa | 2.6V | 18:12:15 | 02:09:48 | 00:00:00 | |
| DL1NUX | 2026-09-02 00:27:22 | 51.41707 | 7.83467 | 156° | 13km/h | 30682m | 6.2m/s | -43.4°C | 2.5% | 11.2hPa | 2.6V | 08:30:00 | 02:09:43 | 00:00:00 | |
| BIOWL1-15 | 2026-09-02 00:27:20 | 51.41704 | 7.83472 | 24° | 5km/h | 30700m | 4.4m/s | -43.2°C | 0% | 11.2hPa | 2.5V | 18:12:15 | 02:09:46 | 00:00:00 | |
| DL1XH-west | 2026-09-02 00:27:17 | 51.41707 | 7.83467 | 157° | 13km/h | 30682m | 6.2m/s | -43.4°C | 0% | 11.2hPa | 2.6V | 18:12:15 | 02:09:43 | 00:00:00 | |
| DM0DOS-11 | 2026-09-02 00:27:16 | 51.41723 | 7.83455 | 227° | 2km/h | 30648m | 5.4m/s | -43.4°C | 2.6% | 11.3hPa | 2.6V | 08:30:00 | 02:09:37 | 00:00:00 | |
| HSKMA3-T | 2026-09-02 00:27:16 | 51.41710 | 7.83465 | 159° | 18km/h | 30677m | 5.4m/s | -43.4°C | 0% | 11.3hPa | 2.5V | 18:12:15 | 02:09:42 | 00:00:00 | |
| DJ2KF-10 | 2026-09-02 00:27:16 | 51.41710 | 7.83465 | 159° | 9km/h | 30677m | 5.3m/s | -43.3°C | 2.6% | 11.2hPa | 2.6V | 00:00:00 | 02:09:42 | 00:00:00 | |
| DO2SHX-10 | 2026-09-02 00:27:15 | 51.41714 | 7.83462 | 157° | 15km/h | 30672m | 4.9m/s | -43.3°C | 2.6% | 11.2hPa | 2.6V | 00:00:00 | 02:09:41 | 00:00:00 | |
| DL1XH1-15 | 2026-09-02 00:27:13 | 51.41722 | 7.83456 | 144° | 4km/h | 30654m | 5.7m/s | -43.4°C | 2.5% | 11.3hPa | 2.6V | 08:30:00 | 02:09:38 | 00:00:00 | |
| DO2JMG | 2026-09-02 00:27:12 | 51.41722 | 7.83456 | 144° | 4km/h | 30654m | 5.7m/s | -43.4°C | 0% | 11.3hPa | 2.6V | 18:12:15 | 02:09:38 | 00:00:00 | |
| DL1NUX | 2026-09-02 00:27:12 | 51.41726 | 7.83459 | 171° | 7km/h | 30626m | 5.1m/s | -43.5°C | 2.6% | 11.3hPa | 2.5V | 08:30:00 | 02:09:33 | 00:00:00 | |
| BIOWL1-15 | 2026-09-02 00:27:10 | 51.41723 | 7.83457 | 225° | 5km/h | 30637m | 5.8m/s | -43.4°C | 0% | 11.3hPa | 2.5V | 18:12:15 | 02:09:35 | 00:00:00 | |
| DL1XH-west | 2026-09-02 00:27:06 | 51.41728 | 7.83457 | 145° | 9km/h | 30621m | 5.5m/s | -43.5°C | 0% | 11.4hPa | 2.5V | 18:12:15 | 02:09:32 | 00:00:00 | |
| DM0DOS-11 | 2026-09-02 00:27:06 | 51.41731 | 7.83442 | 112° | 4km/h | 30592m | 5.3m/s | -43.5°C | 2.6% | 11.4hPa | 2.5V | 08:30:00 | 02:09:27 | 00:00:00 | |
| HSKMA3-T | 2026-09-02 00:27:05 | 51.41730 | 7.83455 | 123° | 9km/h | 30615m | 6.3m/s | -43.5°C | 0% | 11.4hPa | 2.6V | 18:12:15 | 02:09:31 | 00:00:00 | |
| DL1XH1-15 | 2026-09-02 00:27:03 | 51.41731 | 7.83444 | 83° | 5km/h | 30597m | 5.1m/s | -43.5°C | 2.6% | 11.4hPa | 2.5V | 08:30:00 | 02:09:28 | 00:00:00 | |
| GOEST3-10 | 2026-09-02 00:27:03 | 51.41731 | 7.83447 | 88° | 7km/h | 30603m | 5.4m/s | -43.5°C | 2.6% | 11.3hPa | 2.5V | 00:00:00 | 00:00:00 | 00:00:00 | |
| DL1NUX | 2026-09-02 00:27:02 | 51.41739 | 7.83442 | 163° | 11km/h | 30571m | 5.4m/s | -43.6°C | 2.6% | 11.4hPa | 2.5V | 08:30:00 | 02:09:23 | 00:00:00 | |
| DO2JMG | 2026-09-02 00:27:01 | 51.41731 | 7.83443 | 112° | 4km/h | 30592m | 5.3m/s | -43.5°C | 0% | 11.4hPa | 2.5V | 18:12:15 | 02:09:27 | 00:00:00 | |
| BIOWL1-15 | 2026-09-02 00:26:59 | 51.41733 | 7.83442 | 187° | 9km/h | 30581m | 5.3m/s | -43.6°C | 0% | 11.4hPa | 2.6V | 18:12:15 | 02:09:25 | 00:00:00 | |
| DL3AQ-11 | 2026-09-02 00:26:59 | 51.41736 | 7.83442 | 178° | 11km/h | 30576m | 5.2m/s | -43.6°C | 0.6% | 11.4hPa | 2.6V | 00:00:00 | 00:00:00 | 00:00:00 | |
| DO2SHX-10 | 2026-09-02 00:26:58 | 51.41736 | 7.83442 | 179° | 11km/h | 30576m | 5.1m/s | -43.5°C | 2.6% | 11.4hPa | 2.6V | 00:00:00 | 02:09:24 | 00:00:00 | |
| DL1XH1-15 | 2026-09-02 00:26:57 | 51.41740 | 7.83430 | 5° | 7km/h | 30543m | 4.9m/s | -43.6°C | 2.7% | 11.5hPa | 2.6V | 08:30:00 | 02:09:18 | 00:00:00 | |
| DL1XH-west | 2026-09-02 00:26:56 | 51.41743 | 7.83437 | 112° | 9km/h | 30559m | 5.8m/s | -43.6°C | 0% | 11.4hPa | 2.5V | 18:12:15 | 02:09:21 | 00:00:00 | |
| DM0DOS-11 | 2026-09-02 00:26:56 | 51.41738 | 7.83430 | 325° | 7km/h | 30538m | 4.9m/s | -43.6°C | 2.6% | 11.5hPa | 2.5V | 08:30:00 | 02:09:17 | 00:00:00 | |
| HSKMA3-T | 2026-09-02 00:26:54 | 51.41743 | 7.83433 | 74° | 9km/h | 30554m | 5.7m/s | -43.6°C | 0% | 11.5hPa | 2.6V | 18:12:15 | 02:09:20 | 00:00:00 | |
| DF8AY | 2026-09-02 00:26:51 | 51.41738 | 7.83432 | 271° | 5km/h | 30533m | 5.2m/s | -43.6°C | 0% | 11.5hPa | 2.5V | 18:12:15 | 02:09:16 | 00:00:00 | |
| BIOWL1-15 | 2026-09-02 00:26:49 | 51.41741 | 7.83437 | 195° | 13km/h | 30521m | 6.3m/s | -43.6°C | 0% | 11.5hPa | 2.5V | 18:12:15 | 02:09:14 | 00:00:00 | |
| DL3AQ-11 | 2026-09-02 00:26:49 | 51.41745 | 7.83437 | 177° | 16km/h | 30516m | 6.0m/s | -43.6°C | 0.6% | 11.5hPa | 2.6V | 00:00:00 | 00:00:00 | 00:00:00 | |
| DO2SHX-10 | 2026-09-02 00:26:47 | 51.41745 | 7.83437 | 178° | 18km/h | 30516m | 6.0m/s | -43.5°C | 2.6% | 11.5hPa | 2.6V | 00:00:00 | 02:09:13 | 00:00:00 | |
| DJ2KF-10 | 2026-09-02 00:26:46 | 51.41749 | 7.83436 | 165° | 11km/h | 30510m | 5.4m/s | -43.5°C | 2.6% | 11.5hPa | 2.6V | 00:00:00 | 02:09:12 | 00:00:00 | |
| DM0DOS-11 | 2026-09-02 00:26:45 | 51.41762 | 7.83426 | 256° | 4km/h | 30483m | 5.8m/s | -43.5°C | 2.6% | 11.6hPa | 2.6V | 08:30:00 | 02:09:07 | 00:00:00 | |
| AA1-15 | 2026-09-02 00:26:45 | 51.41754 | 7.83433 | 155° | 18km/h | 30504m | 5m/s | -43.5°C | 0% | 11.6hPa | 2.5V | 18:12:15 | 02:09:11 | 00:00:00 | |
| DL1XH-15 | 2026-09-02 00:26:44 | 51.41763 | 7.83428 | 256° | 7km/h | 30477m | 5.6m/s | -43.5°C | 2.6% | 11.6hPa | 2.5V | 08:30:00 | 02:09:06 | 00:00:00 | |
| HSKMA3-T | 2026-09-02 00:26:44 | 51.41760 | 7.83427 | 143° | 9km/h | 30494m | 5.5m/s | -43.5°C | 0% | 11.6hPa | 2.5V | 18:12:15 | 02:09:09 | 00:00:00 | |
| DL1XH1-15 | 2026-09-02 00:26:43 | 51.41762 | 7.83426 | 157° | 4km/h | 30489m | 5.9m/s | -43.5°C | 2.6% | 11.6hPa | 2.6V | 08:30:00 | 02:09:08 | 00:00:00 | |
| DO2JMG | 2026-09-02 00:26:40 | 51.41763 | 7.83431 | 240° | 7km/h | 30471m | 5.6m/s | -43.4°C | 0% | 11.6hPa | 2.5V | 18:12:15 | 02:09:05 | 00:00:00 | |
| BIOWL1-15 | 2026-09-02 00:26:38 | 51.41772 | 7.83430 | 146° | 15km/h | 30449m | 5.2m/s | -43.4°C | 0% | 11.6hPa | 2.6V | 18:12:15 | 02:09:01 | 00:00:00 | |
| DO2SHX-10 | 2026-09-02 00:26:38 | 51.41764 | 7.83433 | 212° | 11km/h | 30466m | 5.5m/s | -43.3°C | 2.6% | 11.6hPa | 2.6V | 00:00:00 | 02:09:04 | 00:00:00 | |
| SONDE2-11 | 2026-09-02 00:26:37 | 51.41767 | 7.83434 | 177° | 9km/h | 30460m | 5.8m/s | -43.4°C | 0.5% | 11.6hPa | 2.6V | 00:00:00 | 00:00:00 | 00:00:00 | |
| DJ8HS-15 | 2026-09-02 00:26:36 | 51.41769 | 7.83433 | 157° | 11km/h | 30455m | 5.7m/s | -43.3°C | 2.6% | 11.6hPa | 2.6V | 00:00:00 | 02:09:02 | 00:00:00 | |
| DM0DOS-11 | 2026-09-02 00:26:35 | 51.41785 | 7.83421 | 180° | 13km/h | 30426m | 6m/s | -43.3°C | 2.6% | 11.7hPa | 2.5V | 08:30:00 | 02:08:57 | 00:00:00 | |
| AA1-15 | 2026-09-02 00:26:34 | 51.41779 | 7.83424 | 150° | 15km/h | 30439m | 5.9m/s | -43.4°C | 0% | 11.7hPa | 2.5V | 18:12:15 | 02:08:59 | 00:00:00 | |
| DL1XH1-15 | 2026-09-02 00:26:33 | 51.41782 | 7.83421 | 162° | 13km/h | 30432m | 6.3m/s | -43.3°C | 2.6% | 11.7hPa | 2.5V | 08:30:00 | 02:08:58 | 00:00:00 | |
| HSKMA3-T | 2026-09-02 00:26:33 | 51.41782 | 7.83421 | 163° | 13km/h | 30432m | 6.3m/s | -43.3°C | 0% | 11.7hPa | 2.5V | 18:12:15 | 02:08:58 | 00:00:00 | |
| BIOWL1-15 | 2026-09-02 00:26:32 | 51.41794 | 7.83423 | 178° | 11km/h | 30409m | 6.4m/s | -43.3°C | 0% | 11.7hPa | 2.6V | 18:12:15 | 02:08:54 | 00:00:00 | |
| DL3AQ-11 | 2026-09-02 00:26:32 | 51.41785 | 7.83421 | 180° | 11km/h | 30426m | 6.1m/s | -43.3°C | 0.5% | 11.7hPa | 2.5V | 00:00:00 | 00:00:00 | 00:00:00 | |
| DD8BA-10 | 2026-09-02 00:26:31 | 51.41785 | 7.83421 | 181° | 9km/h | 30426m | 6.0m/s | -43.3°C | 2.6% | 11.6hPa | 2.5V | 00:00:00 | 00:00:00 | 08:30:00 | |
| DD1CC2-15 | 2026-09-02 00:26:30 | 51.41785 | 7.83421 | 182° | 13km/h | 30426m | 6.1m/s | -43.3°C | 0.6% | 11.7hPa | 2.5V | 00:00:00 | 00:00:00 | 00:00:00 | |
| DO2SHX-10 | 2026-09-02 00:26:29 | 51.41791 | 7.83422 | 191° | 9km/h | 30415m | 5.0m/s | -43.2°C | 2.5% | 11.7hPa | 2.5V | 00:00:00 | 02:08:55 | 00:00:00 | |
| EDDB2-12 | 2026-09-02 00:26:28 | 51.41796 | 7.83422 | 158° | 9km/h | 30403m | 6.4m/s | -43.3°C | 0.5% | 11.7hPa | 2.5V | 00:00:00 | 00:00:00 | 00:00:00 | |
| DL1XH1-15 | 2026-09-02 00:26:27 | 51.41805 | 7.83415 | 205° | 5km/h | 30374m | 5.7m/s | -43.2°C | 2.5% | 11.8hPa | 2.5V | 08:30:00 | 02:08:48 | 00:00:00 | |
| DB0NH | 2026-09-02 00:26:27 | 51.41796 | 7.83422 | 159° | 11km/h | 30403m | 6.3m/s | -43.2°C | 2.5% | 11.7hPa | 2.5V | 00:00:00 | 02:08:53 | 00:00:00 | |
| DO3DL | 2026-09-02 00:26:26 | 51.41796 | 7.83422 | 160° | 11km/h | 30403m | 6.4m/s | -43.3°C | 0% | 11.7hPa | 2.5V | 00:00:00 | 00:00:00 | 00:00:00 | |
| DM0DOS-11 | 2026-09-02 00:26:25 | 51.41806 | 7.83416 | 203° | 5km/h | 30368m | 5.2m/s | -43.2°C | 2.5% | 11.8hPa | 2.5V | 08:30:00 | 02:08:47 | 00:00:00 | |
| DL1XH-15 | 2026-09-02 00:26:24 | 51.41808 | 7.83416 | 171° | 5km/h | 30363m | 5.2m/s | -43.2°C | 2.5% | 11.8hPa | 2.5V | 08:30:00 | 02:08:46 | 00:00:00 | |
| DL1XH-west | 2026-09-02 00:26:24 | 51.41802 | 7.83416 | 151° | 7km/h | 30386m | 6.3m/s | -43.3°C | 0% | 11.8hPa | 2.6V | 18:12:15 | 02:08:50 | 00:00:00 | |
| AA1-15 | 2026-09-02 00:26:23 | 51.41804 | 7.83415 | 175° | 5km/h | 30380m | 6.4m/s | -43.2°C | 0% | 11.8hPa | 2.6V | 18:12:15 | 02:08:49 | 00:00:00 | |
| GOEST3-10 | 2026-09-02 00:26:23 | 51.41804 | 7.83415 | 175° | 5km/h | 30380m | 6.4m/s | -43.2°C | 2.5% | 11.7hPa | 2.6V | 00:00:00 | 00:00:00 | 00:00:00 | |
| DL1NUX | 2026-09-02 00:26:22 | 51.41814 | 7.83408 | 133° | 16km/h | 30345m | 5.3m/s | -43.3°C | 2.5% | 11.8hPa | 2.6V | 08:30:00 | 02:08:43 | 00:00:00 | |
| HSKMA3-T | 2026-09-02 00:26:22 | 51.41805 | 7.83415 | 206° | 5km/h | 30374m | 5.7m/s | -43.2°C | 0% | 11.8hPa | 2.5V | 18:12:15 | 02:08:48 | 00:00:00 | |
| DF8AY | 2026-09-02 00:26:20 | 51.41808 | 7.83416 | 172° | 5km/h | 30363m | 5.2m/s | -43.2°C | 0% | 11.8hPa | 2.5V | 18:12:15 | 02:08:46 | 00:00:00 | |
| BIOWL1-15 | 2026-09-02 00:26:17 | 51.41820 | 7.83400 | 151° | 16km/h | 30334m | 6.5m/s | -43.4°C | 0% | 11.8hPa | 2.5V | 18:12:15 | 02:08:41 | 00:00:00 | |
| BIOWL7-15 | 2026-09-02 00:26:17 | 51.41814 | 7.83408 | 135° | 16km/h | 30346m | 5.3m/s | -43.3°C | 0.6% | 11.9hPa | 2.6V | 00:00:00 | 00:00:00 | 00:00:00 | |
| DJ2KF-10 | 2026-09-02 00:26:16 | 51.41817 | 7.83403 | 140° | 11km/h | 30340m | 5.2m/s | -43.3°C | 2.5% | 11.8hPa | 2.6V | 00:00:00 | 02:08:42 | 00:00:00 | |
| DM0DOS-11 | 2026-09-02 00:26:15 | 51.41833 | 7.83396 | 166° | 9km/h | 30311m | 6.4m/s | -43.6°C | 2.6% | 11.9hPa | 2.6V | 08:30:00 | 02:08:37 | 00:00:00 | |
| DL1XH-15 | 2026-09-02 00:26:14 | 51.41835 | 7.83394 | 138° | 9km/h | 30305m | 6.5m/s | -43.7°C | 2.6% | 11.9hPa | 2.6V | 08:30:00 | 02:08:36 | 00:00:00 | |
| DL4BBY-15 | 2026-09-02 00:26:14 | 51.41824 | 7.83397 | 168° | 11km/h | 30328m | 6.0m/s | -42.8°C | 0% | 0hPa | 2.5V | 00:00:00 | 00:00:00 | 00:00:00 | |
| DL1XH-west | 2026-09-02 00:26:14 | 51.41824 | 7.83397 | 168° | 15km/h | 30328m | 6m/s | -43.4°C | 0% | 11.9hPa | 2.5V | 18:12:15 | 02:08:40 | 00:00:00 | |
| DO2SHX-10 | 2026-09-02 00:26:13 | 51.41827 | 7.83397 | 180° | 11km/h | 30323m | 5.2m/s | -43.4°C | 2.5% | 11.8hPa | 2.5V | 00:00:00 | 02:08:39 | 00:00:00 | |
| DL1NUX | 2026-09-02 00:26:12 | 51.41838 | 7.83384 | 103° | 9km/h | 30287m | 6.3m/s | -43.8°C | 2.6% | 11.9hPa | 2.5V | 08:30:00 | 02:08:33 | 00:00:00 | |
| AA1-15 | 2026-09-02 00:26:12 | 51.41830 | 7.83397 | 179° | 11km/h | 30317m | 4.9m/s | -43.5°C | 0% | 11.9hPa | 2.5V | 18:12:15 | 02:08:38 | 00:00:00 | |
| HSKMA3-T | 2026-09-02 00:26:11 | 51.41833 | 7.83396 | 166° | 9km/h | 30311m | 6.4m/s | -43.6°C | 0% | 11.9hPa | 2.6V | 18:12:15 | 02:08:37 | 00:00:00 | |
| DF8AY | 2026-09-02 00:26:09 | 51.41836 | 7.83391 | 115° | 11km/h | 30299m | 6m/s | -43.7°C | 0% | 11.9hPa | 2.5V | 18:12:15 | 02:08:35 | 00:00:00 | |
| SONCRA | 2026-09-02 00:26:09 | 51.41837 | 7.83387 | 105° | 9km/h | 30293m | 5.4m/s | -43.8°C | 0.6% | 11.9hPa | 2.5V | 00:00:00 | 00:00:00 | 00:00:00 | |
| DL3AQ-11 | 2026-09-02 00:26:08 | 51.41838 | 7.83384 | 103° | 7km/h | 30288m | 6.3m/s | -43.8°C | 0.6% | 11.9hPa | 2.5V | 00:00:00 | 00:00:00 | 00:00:00 | |
| DL1XH1-15 | 2026-09-02 00:26:07 | 51.41844 | 7.83369 | 127° | 15km/h | 30257m | 6.3m/s | -43.9°C | 2.7% | 12hPa | 2.5V | 08:30:00 | 02:08:28 | 00:00:00 | |
| BIOWL1-15 | 2026-09-02 00:26:04 | 51.41841 | 7.83376 | 133° | 9km/h | 30270m | 5.2m/s | -43.8°C | 0% | 12hPa | 2.5V | 18:12:15 | 02:08:30 | 00:00:00 | |
| DL1XH-15 | 2026-09-02 00:26:04 | 51.41849 | 7.83360 | 129° | 15km/h | 30247m | 5.1m/s | -43.9°C | 2.6% | 12hPa | 2.6V | 08:30:00 | 02:08:26 | 00:00:00 | |
| DL1XH-west | 2026-09-02 00:26:03 | 51.41842 | 7.83373 | 130° | 11km/h | 30264m | 6.7m/s | -43.8°C | 0% | 12hPa | 2.5V | 18:12:15 | 02:08:29 | 00:00:00 | |
| GOEST3-10 | 2026-09-02 00:26:03 | 51.41842 | 7.83373 | 131° | 13km/h | 30265m | 6.7m/s | -43.8°C | 2.7% | 12.0hPa | 2.5V | 00:00:00 | 00:00:00 | 00:00:00 | |
| DL1NUX | 2026-09-02 00:26:02 | 51.41854 | 7.83353 | 158° | 4km/h | 30229m | 4.8m/s | -44°C | 2.6% | 12.1hPa | 2.5V | 08:30:00 | 02:08:23 | 00:00:00 | |
| AA1-15 | 2026-09-02 00:26:01 | 51.41847 | 7.83364 | 128° | 16km/h | 30252m | 5.5m/s | -43.9°C | 0% | 12hPa | 2.5V | 18:12:15 | 02:08:27 | 00:00:00 | |
| DF8AY | 2026-09-02 00:25:59 | 51.41851 | 7.83356 | 136° | 11km/h | 30241m | 6.6m/s | -43.9°C | 0% | 12hPa | 2.6V | 18:12:15 | 02:08:25 | 00:00:00 | |
| DO2JMG | 2026-09-02 00:25:57 | 51.41854 | 7.83353 | 159° | 4km/h | 30229m | 4.8m/s | -44°C | 0% | 12.1hPa | 2.5V | 18:12:15 | 02:08:23 | 00:00:00 | |
| EDDB2-12 | 2026-09-02 00:25:57 | 51.41854 | 7.83352 | 117° | 2km/h | 30224m | 4.9m/s | -44.0°C | 0.6% | 12.1hPa | 2.5V | 00:00:00 | 00:00:00 | 00:00:00 | |
| DJ8HS-15 | 2026-09-02 00:25:56 | 51.41854 | 7.83352 | 118° | 11km/h | 30225m | 4.9m/s | -43.9°C | 2.7% | 12.0hPa | 2.5V | 00:00:00 | 02:08:22 | 00:00:00 | |
| DO2SHX-10 | 2026-09-02 00:25:55 | 51.41854 | 7.83351 | 98° | 9km/h | 30219m | 6.2m/s | -43.9°C | 2.7% | 12.0hPa | 2.5V | 00:00:00 | 02:08:21 | 00:00:00 | |
| DL1XH-15 | 2026-09-02 00:25:54 | 51.41858 | 7.83328 | 127° | 11km/h | 30190m | 6.3m/s | -44°C | 2.7% | 12.1hPa | 2.5V | 08:30:00 | 02:08:16 | 00:00:00 | |
| BIOWL1-15 | 2026-09-02 00:25:54 | 51.41855 | 7.83348 | 95° | 9km/h | 30212m | 6.3m/s | -44°C | 0% | 12.1hPa | 2.5V | 18:12:15 | 02:08:20 | 00:00:00 | |
| DL1XH1-15 | 2026-09-02 00:25:53 | 51.41856 | 7.83337 | 101° | 15km/h | 30201m | 5.3m/s | -44°C | 2.7% | 12.1hPa | 2.6V | 08:30:00 | 02:08:18 | 00:00:00 | |
| DL1XH-west | 2026-09-02 00:25:53 | 51.41855 | 7.83343 | 97° | 13km/h | 30206m | 5.7m/s | -44°C | 0% | 12.1hPa | 2.6V | 18:12:15 | 02:08:19 | 00:00:00 | |
| SO1NDE-10 | 2026-09-02 00:25:53 | 51.41855 | 7.83343 | 98° | 13km/h | 30207m | 5.6m/s | -43.9°C | 2.7% | 12.1hPa | 2.6V | 00:00:00 | 02:08:19 | 00:00:00 | |
| DL1NUX | 2026-09-02 00:25:52 | 51.41865 | 7.83324 | 175° | 11km/h | 30172m | 5.2m/s | -44°C | 2.7% | 12.2hPa | 2.6V | 08:30:00 | 02:08:13 | 00:00:00 | |
| HSKMA3-T | 2026-09-02 00:25:51 | 51.41858 | 7.83328 | 128° | 11km/h | 30190m | 6.3m/s | -44°C | 0% | 12.1hPa | 2.5V | 18:12:15 | 02:08:16 | 00:00:00 | |
| DF8AY | 2026-09-02 00:25:49 | 51.41862 | 7.83324 | 177° | 11km/h | 30178m | 5.3m/s | -44°C | 0% | 12.2hPa | 2.6V | 18:12:15 | 02:08:14 | 00:00:00 | |
| EDDB2-11 | 2026-09-02 00:25:48 | 51.41865 | 7.83324 | 175° | 9km/h | 30173m | 5.2m/s | -44.0°C | 0.6% | 12.2hPa | 2.6V | 00:00:00 | 00:00:00 | 00:00:00 | |
| DL1XH1-15 | 2026-09-02 00:25:47 | 51.41872 | 7.83306 | 98° | 13km/h | 30144m | 5.7m/s | -44°C | 2.7% | 12.2hPa | 2.6V | 08:30:00 | 02:08:08 | 00:00:00 | |
| DO2JMG | 2026-09-02 00:25:46 | 51.41867 | 7.83323 | 159° | 9km/h | 30167m | 6.3m/s | -44°C | 0% | 12.2hPa | 2.5V | 18:12:15 | 02:08:12 | 00:00:00 | |
| DM0DOS-11 | 2026-09-02 00:25:46 | 51.41873 | 7.83302 | 100° | 11km/h | 30138m | 6.3m/s | -44°C | 2.7% | 12.2hPa | 2.6V | 08:30:00 | 02:08:07 | 00:00:00 | |
| DO3DL | 2026-09-02 00:25:46 | 51.41867 | 7.83323 | 160° | 9km/h | 30167m | 6.3m/s | -44.0°C | 0.6% | 12.2hPa | 2.6V | 00:00:00 | 00:00:00 | 00:00:00 | |
| WPPR-10 | 2026-09-02 00:25:45 | 51.41871 | 7.83317 | 109° | 11km/h | 30155m | 5.3m/s | -44.0°C | 0.6% | 12.2hPa | 2.6V | 00:00:00 | 00:00:00 | 00:00:00 | |
| DL1XH-15 | 2026-09-02 00:25:44 | 51.41874 | 7.83298 | 115° | 9km/h | 30133m | 5.5m/s | -43.9°C | 2.6% | 12.2hPa | 2.6V | 08:30:00 | 02:08:06 | 00:00:00 | |
| DL1XH-west | 2026-09-02 00:25:43 | 51.41872 | 7.83312 | 100° | 15km/h | 30150m | 4.9m/s | -44°C | 0% | 12.2hPa | 2.5V | 18:12:15 | 02:08:09 | 00:00:00 | |
| HSKMA3-T | 2026-09-02 00:25:40 | 51.41874 | 7.83298 | 115° | 9km/h | 30133m | 5.5m/s | -43.9°C | 0% | 12.2hPa | 2.6V | 18:12:15 | 02:08:06 | 00:00:00 | |
| AA1-15 | 2026-09-02 00:25:39 | 51.41875 | 7.83295 | 127° | 11km/h | 30127m | 5.2m/s | -43.9°C | 0% | 12.2hPa | 2.5V | 18:12:15 | 02:08:05 | 00:00:00 | |
| DL3AQ-11 | 2026-09-02 00:25:39 | 51.41877 | 7.83291 | 128° | 11km/h | 30122m | 5.4m/s | -43.9°C | 0.6% | 12.3hPa | 2.5V | 00:00:00 | 00:00:00 | 00:00:00 | |
| DF8AY | 2026-09-02 00:25:39 | 51.41881 | 7.83281 | 122° | 18km/h | 30110m | 6m/s | -43.8°C | 0% | 12.3hPa | 2.5V | 18:12:15 | 02:08:02 | 00:00:00 | |
| SONCRA | 2026-09-02 00:25:38 | 51.41879 | 7.83287 | 126° | 15km/h | 30116m | 6.6m/s | -43.9°C | 0.6% | 12.2hPa | 2.5V | 00:00:00 | 00:00:00 | 00:00:00 | |
| BIOWL9-15 | 2026-09-02 00:25:37 | 51.41881 | 7.83281 | 121° | 16km/h | 30110m | 6.0m/s | -43.8°C | 0.6% | 12.3hPa | 2.5V | 00:00:00 | 00:00:00 | 00:00:00 | |
| DM0DOS-11 | 2026-09-02 00:25:36 | 51.41888 | 7.83261 | 112° | 4km/h | 30081m | 5.2m/s | -43.8°C | 2.6% | 12.3hPa | 2.5V | 08:30:00 | 02:07:57 | 00:00:00 | |
| DJ8HS-15 | 2026-09-02 00:25:36 | 51.41881 | 7.83281 | 122° | 11km/h | 30110m | 5.9m/s | -43.8°C | 2.7% | 12.2hPa | 2.5V | 00:00:00 | 02:08:02 | 00:00:00 | |
| SONDE2-11 | 2026-09-02 00:25:35 | 51.41883 | 7.83275 | 119° | 16km/h | 30104m | 5.1m/s | -43.8°C | 0.6% | 12.3hPa | 2.6V | 00:00:00 | 00:00:00 | 00:00:00 | |
| DL1XH-15 | 2026-09-02 00:25:34 | 51.41888 | 7.83259 | 74° | 4km/h | 30076m | 5.2m/s | -43.8°C | 2.6% | 12.3hPa | 2.6V | 08:30:00 | 02:07:56 | 00:00:00 | |
| DL1XH-west | 2026-09-02 00:25:32 | 51.41889 | 7.83261 | 112° | 4km/h | 30081m | 5.2m/s | -43.8°C | 0% | 12.3hPa | 2.5V | 18:12:15 | 02:07:57 | 00:00:00 | |
| DO2JMG | 2026-09-02 00:25:30 | 51.41889 | 7.83259 | 74° | 4km/h | 30076m | 5.2m/s | -43.8°C | 0% | 12.3hPa | 2.6V | 18:12:15 | 02:07:56 | 00:00:00 | |
| HSKMA3-T | 2026-09-02 00:25:30 | 51.41888 | 7.83257 | 71° | 7km/h | 30070m | 6.2m/s | -43.8°C | 0% | 12.3hPa | 2.6V | 18:12:15 | 02:07:55 | 00:00:00 | |
| AA1-15 | 2026-09-02 00:25:28 | 51.41887 | 7.83253 | 80° | 13km/h | 30064m | 6.1m/s | -43.8°C | 0% | 12.3hPa | 2.5V | 18:12:15 | 02:07:54 | 00:00:00 | |
| GOEST3-10 | 2026-09-02 00:25:28 | 51.41887 | 7.83253 | 80° | 16km/h | 30065m | 6.1m/s | -43.7°C | 2.6% | 12.3hPa | 2.5V | 00:00:00 | 02:07:54 | 08:30:00 | |
| DB0NH | 2026-09-02 00:25:27 | 51.41887 | 7.83247 | 87° | 11km/h | 30059m | 5.2m/s | -43.7°C | 2.6% | 12.3hPa | 2.5V | 00:00:00 | 02:07:53 | 00:00:00 | |
| DM0DOS-11 | 2026-09-02 00:25:26 | 51.41891 | 7.83220 | 156° | 4km/h | 30026m | 5.2m/s | -43.9°C | 2.6% | 12.4hPa | 2.5V | 08:30:00 | 02:07:47 | 00:00:00 | |
| EDDB2-12 | 2026-09-02 00:25:26 | 51.41887 | 7.83232 | 97° | 16km/h | 30049m | 5.1m/s | -43.8°C | 0.6% | 12.4hPa | 2.5V | 00:00:00 | 00:00:00 | 00:00:00 | |
| DO2SHX-10 | 2026-09-02 00:25:25 | 51.41887 | 7.83232 | 98° | 15km/h | 30049m | 5.0m/s | -43.7°C | 2.6% | 12.3hPa | 2.5V | 00:00:00 | 02:07:51 | 00:00:00 | |
| DO3DL | 2026-09-02 00:25:24 | 51.41887 | 7.83232 | 99° | 16km/h | 30049m | 5.1m/s | -43.8°C | 0.6% | 12.4hPa | 2.5V | 00:00:00 | 00:00:00 | 00:00:00 | |
| DL1XH1-15 | 2026-09-02 00:25:23 | 51.41890 | 7.83221 | 141° | 4km/h | 30032m | 5.1m/s | -43.9°C | 2.7% | 12.4hPa | 2.5V | 08:30:00 | 02:07:48 | 00:00:00 | |
| SO1NDE-10 | 2026-09-02 00:25:23 | 51.41889 | 7.83223 | 118° | 9km/h | 30037m | 5.7m/s | -43.8°C | 2.6% | 12.4hPa | 2.6V | 00:00:00 | 02:07:49 | 00:00:00 | |
| DL1XH-15 | 2026-09-02 00:25:22 | 51.41891 | 7.83219 | 141° | 4km/h | 30021m | 6m/s | -43.8°C | 2.6% | 12.4hPa | 2.6V | 08:30:00 | 02:07:46 | 00:00:00 | |
| DL1XH-west | 2026-09-02 00:25:22 | 51.41890 | 7.83221 | 142° | 4km/h | 30032m | 5.1m/s | -43.9°C | 0% | 12.4hPa | 2.5V | 18:12:15 | 02:07:48 | 00:00:00 | |
| HSKMA3-T | 2026-09-02 00:25:19 | 51.41892 | 7.83217 | 124° | 7km/h | 30015m | 6.1m/s | -43.8°C | 0% | 12.4hPa | 2.6V | 18:12:15 | 02:07:45 | 00:00:00 | |
| BIOWL1-15 | 2026-09-02 00:25:19 | 51.41895 | 7.83210 | 120° | 13km/h | 30003m | 5.3m/s | -43.9°C | 0% | 12.5hPa | 2.5V | 18:12:15 | 02:07:43 | 00:00:00 | |
| AA1-15 | 2026-09-02 00:25:18 | 51.41894 | 7.83214 | 118° | 11km/h | 30009m | 5.7m/s | -43.9°C | 0% | 12.5hPa | 2.5V | 18:12:15 | 02:07:44 | 00:00:00 | |
| GOEST3-10 | 2026-09-02 00:25:18 | 51.41893 | 7.83214 | 118° | 11km/h | 30009m | 5.6m/s | -43.8°C | 2.6% | 12.4hPa | 2.5V | 00:00:00 | 02:07:44 | 00:00:00 | |
| EDDB2-11 | 2026-09-02 00:25:17 | 51.41897 | 7.83206 | 128° | 11km/h | 29998m | 5.5m/s | -43.9°C | 0.6% | 12.5hPa | 2.5V | 00:00:00 | 00:00:00 | 00:00:00 | |
| DM0DOS-11 | 2026-09-02 00:25:16 | 51.41908 | 7.83192 | 118° | 11km/h | 29970m | 6.7m/s | -43.8°C | 2.6% | 12.5hPa | 2.5V | 08:30:00 | 02:07:37 | 00:00:00 | |
| DO2JMG | 2026-09-02 00:25:15 | 51.41901 | 7.83200 | 152° | 11km/h | 29986m | 5.1m/s | -43.9°C | 0% | 12.5hPa | 2.6V | 18:12:15 | 02:07:40 | 00:00:00 | |
| DL1XH-west | 2026-09-02 00:25:12 | 51.41906 | 7.83195 | 135° | 11km/h | 29976m | 5.5m/s | -43.8°C | 0% | 12.5hPa | 2.5V | 18:12:15 | 02:07:38 | 00:00:00 | |
| DF8AY | 2026-09-02 00:25:11 | 51.41908 | 7.83192 | 118° | 11km/h | 29970m | 6.7m/s | -43.8°C | 0% | 12.6hPa | 2.5V | 18:12:15 | 02:07:37 | 00:00:00 | |
| AA1-15 | 2026-09-02 00:25:08 | 51.41910 | 7.83176 | 97° | 13km/h | 29954m | 5m/s | -43.7°C | 0% | 12.6hPa | 2.6V | 18:12:15 | 02:07:34 | 00:00:00 | |
| DO2JMG | 2026-09-02 00:25:04 | 51.41915 | 7.83167 | 164° | 9km/h | 29932m | 4.8m/s | -43.7°C | 0% | 12.6hPa | 2.6V | 18:12:15 | 02:07:30 | 00:00:00 | |
| DO2SHX-10 | 2026-09-02 00:25:04 | 51.41915 | 7.83167 | 165° | 11km/h | 29932m | 4.8m/s | -43.7°C | 2.6% | 12.6hPa | 2.5V | 00:00:00 | 02:07:30 | 00:00:00 | |
| GOEST3-10 | 2026-09-02 00:25:03 | 51.41917 | 7.83166 | 152° | 13km/h | 29927m | 6.3m/s | -43.7°C | 2.6% | 12.6hPa | 2.5V | 00:00:00 | 00:00:00 | 00:00:00 | |
| DL1XH-15 | 2026-09-02 00:25:02 | 51.41924 | 7.83153 | 117° | 15km/h | 29909m | 5.2m/s | -43.7°C | 2.6% | 12.7hPa | 2.5V | 08:30:00 | 02:07:26 | 00:00:00 | |
| DL1XH-west | 2026-09-02 00:25:02 | 51.41920 | 7.83163 | 135° | 13km/h | 29920m | 6.2m/s | -43.7°C | 0% | 12.7hPa | 2.5V | 18:12:15 | 02:07:28 | 00:00:00 | |
| DL3AQ-11 | 2026-09-02 00:24:59 | 51.41926 | 7.83145 | 108° | 7km/h | 29898m | 6.3m/s | -43.8°C | 0.6% | 12.7hPa | 2.5V | 00:00:00 | 00:00:00 | 00:00:00 | |
| DL1NUX | 2026-09-02 00:24:58 | 51.41927 | 7.83142 | 91° | 4km/h | 29892m | 5.4m/s | -43.7°C | 2.6% | 12.7hPa | 2.5V | 08:30:00 | 02:07:23 | 00:00:00 | |
| HSKMA3-T | 2026-09-02 00:24:57 | 51.41927 | 7.83142 | 91° | 4km/h | 29892m | 5.4m/s | -43.7°C | 0% | 12.7hPa | 2.5V | 18:12:15 | 02:07:23 | 00:00:00 | |
| DF8AY | 2026-09-02 00:24:57 | 51.41926 | 7.83139 | 64° | 7km/h | 29881m | 5.9m/s | -43.7°C | 0% | 12.7hPa | 2.5V | 18:12:15 | 02:07:21 | 00:00:00 | |
| BIOWL1-15 | 2026-09-02 00:24:57 | 51.41925 | 7.83132 | 86° | 9km/h | 29869m | 5m/s | -43.7°C | 0% | 12.7hPa | 2.6V | 18:12:15 | 02:07:19 | 00:00:00 | |
| DJ8HS-15 | 2026-09-02 00:24:56 | 51.41926 | 7.83141 | 61° | 9km/h | 29887m | 5.0m/s | -43.7°C | 2.6% | 12.6hPa | 2.6V | 00:00:00 | 02:07:22 | 00:00:00 | |
| WEDDY | 2026-09-02 00:24:55 | 51.41926 | 7.83139 | 65° | 7km/h | 29881m | 5.9m/s | -43.7°C | 0.6% | 12.7hPa | 2.6V | 00:00:00 | 00:00:00 | 00:00:00 | |
| DL1XH1-15 | 2026-09-02 00:24:53 | 51.41925 | 7.83128 | 100° | 9km/h | 29864m | 5.2m/s | -43.7°C | 2.6% | 12.7hPa | 2.6V | 08:30:00 | 02:07:18 | 00:00:00 | |
| DL1XH-west | 2026-09-02 00:24:52 | 51.41925 | 7.83129 | 101° | 9km/h | 29864m | 5.2m/s | -43.7°C | 0% | 12.7hPa | 2.6V | 18:12:15 | 02:07:18 | 00:00:00 | |
| DO2JMG | 2026-09-02 00:24:51 | 51.41926 | 7.83125 | 120° | 7km/h | 29859m | 6.1m/s | -43.7°C | 0% | 12.7hPa | 2.5V | 18:12:15 | 02:07:17 | 00:00:00 | |
| HSKMA3-T | 2026-09-02 00:24:47 | 51.41933 | 7.83120 | 145° | 11km/h | 29837m | 5.1m/s | -43.7°C | 0% | 12.8hPa | 2.6V | 18:12:15 | 02:07:13 | 00:00:00 | |
| DM0DOS-11 | 2026-09-02 00:24:46 | 51.41934 | 7.83090 | 44° | 9km/h | 29803m | 5.3m/s | -43.6°C | 2.6% | 12.9hPa | 2.5V | 08:30:00 | 02:07:07 | 00:00:00 | |
| BIOWL1-15 | 2026-09-02 00:24:46 | 51.41935 | 7.83116 | 122° | 13km/h | 29831m | 6.5m/s | -43.7°C | 0% | 12.8hPa | 2.5V | 18:12:15 | 02:07:12 | 00:00:00 | |
| EDDB2-11 | 2026-09-02 00:24:46 | 51.41936 | 7.83111 | 105° | 15km/h | 29826m | 5.8m/s | -43.7°C | 0.6% | 12.8hPa | 2.5V | 00:00:00 | 00:00:00 | 00:00:00 | |
| DF8AY | 2026-09-02 00:24:44 | 51.41937 | 7.83105 | 92° | 16km/h | 29820m | 5.2m/s | -43.7°C | 0% | 12.8hPa | 2.5V | 18:12:15 | 02:07:10 | 00:00:00 | |
| DL1XH1-15 | 2026-09-02 00:24:44 | 51.41936 | 7.83094 | 66° | 13km/h | 29809m | 6.3m/s | -43.7°C | 2.6% | 12.8hPa | 2.6V | 08:30:00 | 02:07:08 | 00:00:00 | |
| DL1XH-west | 2026-09-02 00:24:41 | 51.41934 | 7.83090 | 44° | 9km/h | 29803m | 5.3m/s | -43.6°C | 0% | 12.9hPa | 2.5V | 18:12:15 | 02:07:07 | 00:00:00 | |
| DO3MHA-12 | 2026-09-02 00:24:41 | 51.41934 | 7.83090 | 45° | 7km/h | 29803m | 5.2m/s | -43.6°C | 2.6% | 12.8hPa | 2.6V | 00:00:00 | 02:07:07 | 00:00:00 | |
| DD1CC9-15 | 2026-09-02 00:24:40 | 51.41934 | 7.83090 | 45° | 9km/h | 29803m | 5.3m/s | -43.6°C | 0.6% | 12.9hPa | 2.6V | 00:00:00 | 00:00:00 | 00:00:00 | |
| DO3MHA-11 | 2026-09-02 00:24:39 | 51.41931 | 7.83086 | 32° | 9km/h | 29794m | 5.4m/s | -43.6°C | 2.6% | 12.8hPa | 2.6V | 00:00:00 | 02:07:05 | 00:00:00 | |
| GOEST3-10 | 2026-09-02 00:24:38 | 51.41929 | 7.83084 | 50° | 7km/h | 29788m | 6.2m/s | 0°C | 0% | 0hPa | 2.6V | 00:00:00 | 02:07:04 | 00:00:00 | |
| DL1NUX | 2026-09-02 00:24:38 | 51.41928 | 7.83082 | 74° | 7km/h | 29782m | 5.5m/s | -43.6°C | 2.6% | 12.9hPa | 2.6V | 08:30:00 | 02:07:03 | 00:00:00 | |
| DL1XH1-15 | 2026-09-02 00:24:37 | 51.41934 | 7.83076 | 206° | 9km/h | 29755m | 5.5m/s | -43.6°C | 2.6% | 12.9hPa | 2.6V | 08:30:00 | 02:06:58 | 00:00:00 | |
| HSKMA3-T | 2026-09-02 00:24:36 | 51.41928 | 7.83079 | 98° | 7km/h | 29777m | 4.7m/s | -43.6°C | 0% | 12.9hPa | 2.5V | 18:12:15 | 02:07:02 | 00:00:00 | |
| BIOWL1-15 | 2026-09-02 00:24:35 | 51.41929 | 7.83077 | 125° | 5km/h | 29772m | 4.5m/s | -43.6°C | 0% | 12.9hPa | 2.5V | 18:12:15 | 02:07:01 | 00:00:00 | |
| DM0DOS-11 | 2026-09-02 00:24:35 | 51.41936 | 7.83078 | 202° | 9km/h | 29750m | 4.5m/s | -43.6°C | 2.6% | 13hPa | 2.6V | 08:30:00 | 02:06:57 | 00:00:00 | |
| DF8AY | 2026-09-02 00:24:33 | 51.41934 | 7.83076 | 207° | 9km/h | 29755m | 5.5m/s | -43.6°C | 0% | 13hPa | 2.6V | 18:12:15 | 02:06:58 | 00:00:00 | |
| DL1XH-15 | 2026-09-02 00:24:33 | 51.41938 | 7.83078 | 176° | 7km/h | 29746m | 4.4m/s | -43.7°C | 2.6% | 13hPa | 2.5V | 08:30:00 | 02:06:56 | 00:00:00 | |
| DO2JMG | 2026-09-02 00:24:31 | 51.41936 | 7.83078 | 203° | 9km/h | 29750m | 4.5m/s | -43.6°C | 0% | 13hPa | 2.6V | 18:12:15 | 02:06:57 | 00:00:00 | |
| DL1XH-west | 2026-09-02 00:24:30 | 51.41938 | 7.83078 | 177° | 7km/h | 29746m | 4.4m/s | -43.7°C | 0% | 13hPa | 2.5V | 18:12:15 | 02:06:56 | 00:00:00 | |
| HSKMA3-T | 2026-09-02 00:24:25 | 51.41938 | 7.83050 | 60° | 22km/h | 29719m | 5.2m/s | -43.8°C | 0% | 13hPa | 2.5V | 18:12:15 | 02:06:51 | 00:00:00 | |
| AA1-15 | 2026-09-02 00:24:25 | 51.41935 | 7.83044 | 44° | 18km/h | 29714m | 5.7m/s | -43.8°C | 0% | 13hPa | 2.5V | 18:12:15 | 02:06:50 | 00:00:00 | |
| DL1XH1-15 | 2026-09-02 00:24:23 | 51.41929 | 7.83039 | 357° | 9km/h | 29704m | 4.6m/s | -43.9°C | 2.6% | 13hPa | 2.6V | 08:30:00 | 02:06:48 | 00:00:00 | |
| DM0DOS-11 | 2026-09-02 00:24:23 | 51.41928 | 7.83040 | 314° | 5km/h | 29699m | 5.3m/s | -43.9°C | 2.6% | 13.1hPa | 2.6V | 08:30:00 | 02:06:47 | 00:00:00 | |
| DF8AY | 2026-09-02 00:24:22 | 51.41928 | 7.83040 | 315° | 5km/h | 29699m | 5.3m/s | -43.9°C | 0% | 13.1hPa | 2.6V | 18:12:15 | 02:06:47 | 00:00:00 | |
| DL1XH-west | 2026-09-02 00:24:20 | 51.41928 | 7.83041 | 228° | 4km/h | 29693m | 6m/s | -43.8°C | 0% | 13.1hPa | 2.5V | 18:12:15 | 02:06:46 | 00:00:00 | |
| DL3AQ-11 | 2026-09-02 00:24:19 | 51.41931 | 7.83042 | 171° | 11km/h | 29682m | 5.4m/s | -43.8°C | 0.6% | 13.1hPa | 2.6V | 00:00:00 | 00:00:00 | 00:00:00 | |
| DF7PN | 2026-09-02 00:24:18 | 51.41931 | 7.83042 | 171° | 11km/h | 29682m | 5.4m/s | -43.8°C | 0.6% | 13.1hPa | 2.6V | 00:00:00 | 00:00:00 | 00:00:00 | |
| DO3MHA-12 | 2026-09-02 00:24:17 | 51.41934 | 7.83041 | 161° | 9km/h | 29677m | 5.0m/s | -43.8°C | 2.6% | 13.1hPa | 2.6V | 00:00:00 | 02:06:43 | 00:00:00 | |
| DO2SHX-10 | 2026-09-02 00:24:16 | 51.41937 | 7.83039 | 153° | 7km/h | 29672m | 5.1m/s | -43.7°C | 2.6% | 13.1hPa | 2.6V | 00:00:00 | 02:06:42 | 00:00:00 | |
| DM0DOS-11 | 2026-09-02 00:24:15 | 51.41941 | 7.83030 | 102° | 9km/h | 29644m | 6.3m/s | -43.9°C | 2.6% | 13.2hPa | 2.6V | 08:30:00 | 02:06:37 | 00:00:00 | |
| HSKMA3-T | 2026-09-02 00:24:14 | 51.41940 | 7.83036 | 129° | 4km/h | 29661m | 5.1m/s | -43.8°C | 0% | 13.2hPa | 2.5V | 18:12:15 | 02:06:40 | 00:00:00 | |
| BIOWL1-15 | 2026-09-02 00:24:14 | 51.41940 | 7.83032 | 101° | 5km/h | 29650m | 5.7m/s | -43.9°C | 0% | 13.2hPa | 2.5V | 18:12:15 | 02:06:38 | 00:00:00 | |
| DL1XH-15 | 2026-09-02 00:24:12 | 51.41941 | 7.83025 | 103° | 11km/h | 29638m | 5.3m/s | -43.9°C | 2.6% | 13.2hPa | 2.6V | 08:30:00 | 02:06:36 | 00:00:00 | |
| DO2KSM | 2026-09-02 00:24:12 | 51.41940 | 7.83032 | 102° | 5km/h | 29650m | 5.7m/s | -43.9°C | 0.6% | 13.2hPa | 2.5V | 00:00:00 | 00:00:00 | 00:00:00 | |
| DD8BA-10 | 2026-09-02 00:24:11 | 51.41941 | 7.83029 | 103° | 9km/h | 29644m | 6.3m/s | -43.8°C | 2.6% | 13.1hPa | 2.5V | 00:00:00 | 00:00:00 | 00:00:00 | |
| DL1NUX | 2026-09-02 00:24:09 | 51.41942 | 7.83011 | 76° | 11km/h | 29623m | 6.4m/s | -43.9°C | 2.6% | 13.2hPa | 2.5V | 08:30:00 | 02:06:33 | 00:00:00 | |
| DL1XH-west | 2026-09-02 00:24:09 | 51.41942 | 7.83021 | 98° | 13km/h | 29633m | 4.4m/s | -43.9°C | 0% | 13.2hPa | 2.5V | 18:12:15 | 02:06:35 | 00:00:00 | |
| DO2JMG | 2026-09-02 00:24:05 | 51.41940 | 7.83004 | 64° | 7km/h | 29611m | 5.3m/s | -43.9°C | 0% | 13.3hPa | 2.6V | 18:12:15 | 02:06:31 | 00:00:00 | |
| AA1-15 | 2026-09-02 00:24:04 | 51.41939 | 7.83002 | 81° | 7km/h | 29606m | 5.8m/s | -43.9°C | 0% | 13.2hPa | 2.5V | 18:12:15 | 02:06:30 | 00:00:00 | |
| HSKMA3-T | 2026-09-02 00:24:03 | 51.41940 | 7.82999 | 112° | 7km/h | 29600m | 5.9m/s | -44°C | 0% | 13.3hPa | 2.5V | 18:12:15 | 02:06:29 | 00:00:00 | |
| DL1XH-15 | 2026-09-02 00:24:02 | 51.41943 | 7.82992 | 117° | 5km/h | 29585m | 5.4m/s | -44°C | 2.6% | 13.3hPa | 2.6V | 08:30:00 | 02:06:26 | 00:00:00 | |
| BIOWL1-15 | 2026-09-02 00:24:02 | 51.41941 | 7.82996 | 130° | 9km/h | 29595m | 4.7m/s | -44°C | 0% | 13.2hPa | 2.5V | 18:12:15 | 02:06:28 | 00:00:00 | |
| DL1XH-west | 2026-09-02 00:23:59 | 51.41943 | 7.82990 | 67° | 5km/h | 29580m | 6m/s | -44.1°C | 0% | 13.3hPa | 2.5V | 18:12:15 | 02:06:25 | 00:00:00 | |
| DF8AY | 2026-09-02 00:23:57 | 51.41940 | 7.82985 | 50° | 11km/h | 29569m | 4.8m/s | -44.1°C | 0% | 13.3hPa | 2.5V | 18:12:15 | 02:06:23 | 00:00:00 | |
| HSKMA3-T | 2026-09-02 00:23:53 | 51.41936 | 7.82960 | 83° | 22km/h | 29547m | 4.8m/s | -44.2°C | 0% | 13.4hPa | 2.5V | 18:12:15 | 02:06:19 | 00:00:00 | |
| SO1NDE-10 | 2026-09-02 00:23:53 | 51.41936 | 7.82960 | 83° | 16km/h | 29547m | 4.8m/s | -44.2°C | 2.6% | 13.3hPa | 2.6V | 00:00:00 | 02:06:19 | 00:00:00 | |
| DL1XH-15 | 2026-09-02 00:23:52 | 51.41932 | 7.82937 | 66° | 16km/h | 29531m | 4.7m/s | -44.4°C | 2.7% | 13.4hPa | 2.6V | 08:30:00 | 02:06:16 | 00:00:00 | |
| DO2JMG | 2026-09-02 00:23:51 | 51.41934 | 7.82944 | 74° | 18km/h | 29536m | 5.6m/s | -44.4°C | 0% | 13.4hPa | 2.5V | 18:12:15 | 02:06:17 | 00:00:00 | |
| BIOWL1-15 | 2026-09-02 00:23:51 | 51.41931 | 7.82924 | 113° | 9km/h | 29517m | 5.8m/s | -44.6°C | 0% | 13.4hPa | 2.5V | 18:12:15 | 02:06:13 | 00:00:00 | |
| DL1XH-west | 2026-09-02 00:23:48 | 51.41931 | 7.82928 | 88° | 9km/h | 29522m | 5m/s | -44.6°C | 0% | 13.4hPa | 2.5V | 18:12:15 | 02:06:14 | 00:00:00 | |
| DF8AY | 2026-09-02 00:23:46 | 51.41932 | 7.82920 | 120° | 13km/h | 29511m | 5.1m/s | -44.6°C | 0% | 13.4hPa | 2.5V | 18:12:15 | 02:06:12 | 00:00:00 | |
| DO3MHA-12 | 2026-09-02 00:23:46 | 51.41932 | 7.82920 | 121° | 16km/h | 29512m | 5.1m/s | -44.6°C | 2.7% | 13.4hPa | 2.5V | 00:00:00 | 02:06:12 | 00:00:00 | |
| DJ2KF-10 | 2026-09-02 00:23:45 | 51.41934 | 7.82915 | 111° | 16km/h | 29507m | 4.4m/s | -44.6°C | 2.7% | 13.4hPa | 2.6V | 00:00:00 | 02:06:11 | 00:00:00 | |
| DM0DOS-11 | 2026-09-02 00:23:44 | 51.41930 | 7.82887 | 49° | 22km/h | 29486m | 5.2m/s | -44.7°C | 2.7% | 13.5hPa | 2.5V | 08:30:00 | 02:06:07 | 00:00:00 | |
| HSKMA3-T | 2026-09-02 00:23:42 | 51.41933 | 7.82894 | 62° | 20km/h | 29491m | 5.6m/s | -44.7°C | 0% | 13.5hPa | 2.5V | 18:12:15 | 02:06:08 | 00:00:00 | |
| DL1NUX | 2026-09-02 00:23:42 | 51.41920 | 7.82866 | 94° | 15km/h | 29466m | 5.8m/s | -44.8°C | 2.7% | 13.5hPa | 2.5V | 08:30:00 | 02:06:03 | 00:00:00 | |
| DL1XH-west | 2026-09-02 00:23:38 | 51.41921 | 7.82871 | 66° | 13km/h | 29472m | 5.2m/s | -44.8°C | 0% | 13.5hPa | 2.5V | 18:12:15 | 02:06:04 | 00:00:00 | |
| BIOWL1-15 | 2026-09-02 00:23:37 | 51.41920 | 7.82866 | 94° | 15km/h | 29466m | 5.8m/s | -44.8°C | 0% | 13.5hPa | 2.5V | 18:12:15 | 02:06:03 | 00:00:00 | |
| DF8AY | 2026-09-02 00:23:36 | 51.41921 | 7.82859 | 110° | 18km/h | 29461m | 5.7m/s | -44.8°C | 0% | 13.6hPa | 2.5V | 18:12:15 | 02:06:02 | 00:00:00 | |
| HSKMA3-T | 2026-09-02 00:23:32 | 51.41928 | 7.82826 | 100° | 18km/h | 29440m | 5m/s | -44.9°C | 0% | 13.6hPa | 2.5V | 18:12:15 | 02:05:58 | 00:00:00 | |
| DL1XH-west | 2026-09-02 00:23:27 | 51.41929 | 7.82804 | 81° | 11km/h | 29413m | 5.2m/s | -45°C | 0% | 13.6hPa | 2.5V | 18:12:15 | 02:05:53 | 00:00:00 | |
| DF8AY | 2026-09-02 00:23:25 | 51.41927 | 7.82793 | 74° | 18km/h | 29402m | 5.1m/s | -45°C | 0% | 13.7hPa | 2.5V | 18:12:15 | 02:05:51 | 00:00:00 | |
| DO2JMG | 2026-09-02 00:23:23 | 51.41925 | 7.82778 | 75° | 18km/h | 29392m | 5.9m/s | -45°C | 0% | 13.7hPa | 2.6V | 18:12:15 | 02:05:49 | 00:00:00 | |
| DL1XH1-15 | 2026-09-02 00:23:23 | 51.41924 | 7.82771 | 76° | 15km/h | 29386m | 6m/s | -45°C | 2.7% | 13.7hPa | 2.5V | 08:30:00 | 02:05:48 | 00:00:00 | |
| HSKMA3-T | 2026-09-02 00:23:21 | 51.41923 | 7.82766 | 75° | 11km/h | 29381m | 5m/s | -45.1°C | 0% | 13.7hPa | 2.5V | 18:12:15 | 02:05:47 | 00:00:00 | |
| BIOWL1-15 | 2026-09-02 00:23:17 | 51.41919 | 7.82748 | 77° | 13km/h | 29359m | 5m/s | -45.2°C | 0% | 13.8hPa | 2.5V | 18:12:15 | 02:05:43 | 00:00:00 | |
| DL1XH-west | 2026-09-02 00:23:16 | 51.41919 | 7.82743 | 84° | 13km/h | 29355m | 4.4m/s | -45.2°C | 0% | 13.8hPa | 2.5V | 18:12:15 | 02:05:42 | 00:00:00 | |
| DF8AY | 2026-09-02 00:23:15 | 51.41919 | 7.82738 | 98° | 11km/h | 29350m | 5.1m/s | -45.3°C | 0% | 13.8hPa | 2.5V | 18:12:15 | 02:05:41 | 00:00:00 | |
| DJ2KF-10 | 2026-09-02 00:23:15 | 51.41919 | 7.82738 | 99° | 7km/h | 29350m | 5.1m/s | -45.2°C | 2.7% | 13.7hPa | 2.5V | 00:00:00 | 02:05:41 | 00:00:00 | |
| DD1CC3-15 | 2026-09-02 00:23:14 | 51.41919 | 7.82738 | 99° | 11km/h | 29350m | 5.1m/s | -45.3°C | 0.6% | 13.8hPa | 2.5V | 00:00:00 | 00:00:00 | 00:00:00 | |
| DL1XH1-15 | 2026-09-02 00:23:13 | 51.41922 | 7.82732 | 169° | 5km/h | 29332m | 5.1m/s | -45.4°C | 2.8% | 13.8hPa | 2.5V | 08:30:00 | 02:05:38 | 00:00:00 | |
| DO2JMG | 2026-09-02 00:23:12 | 51.41922 | 7.82732 | 170° | 5km/h | 29332m | 5.1m/s | -45.4°C | 0% | 13.8hPa | 2.5V | 18:12:15 | 02:05:38 | 00:00:00 | |
| HSKMA3-T | 2026-09-02 00:23:11 | 51.41922 | 7.82728 | 52° | 11km/h | 29316m | 5.5m/s | -45.5°C | 0% | 13.9hPa | 2.5V | 18:12:15 | 02:05:35 | 00:00:00 | |
| DJ2DS-15 | 2026-09-02 00:23:11 | 51.41923 | 7.82732 | 140° | 7km/h | 29328m | 5.0m/s | -45.3°C | 2.7% | 13.8hPa | 2.5V | 00:00:00 | 02:05:37 | 00:00:00 | |
| GOEST3-10 | 2026-09-02 00:23:10 | 51.41923 | 7.82730 | 69° | 11km/h | 29322m | 6.0m/s | -45.4°C | 2.8% | 13.8hPa | 2.5V | 00:00:00 | 00:00:00 | 08:30:00 | |
| DL1NUX | 2026-09-02 00:23:09 | 51.41917 | 7.82721 | 38° | 15km/h | 29306m | 5.2m/s | -45.6°C | 2.8% | 13.9hPa | 2.6V | 08:30:00 | 02:05:33 | 00:00:00 | |
| BIOWL1-15 | 2026-09-02 00:23:06 | 51.41914 | 7.82718 | 33° | 13km/h | 29300m | 6.4m/s | -45.6°C | 0% | 13.9hPa | 2.5V | 18:12:15 | 02:05:32 | 00:00:00 | |
| DL1XH-west | 2026-09-02 00:23:05 | 51.41912 | 7.82715 | 25° | 9km/h | 29294m | 5.6m/s | -45.7°C | 0% | 13.9hPa | 2.5V | 18:12:15 | 02:05:31 | 00:00:00 | |
| DO2SHX-10 | 2026-09-02 00:23:05 | 51.41912 | 7.82715 | 26° | 7km/h | 29295m | 5.6m/s | -45.6°C | 2.8% | 13.9hPa | 2.5V | 00:00:00 | 02:05:31 | 00:00:00 | |
| DM0DOS-11 | 2026-09-02 00:23:04 | 51.41906 | 7.82708 | 69° | 7km/h | 29272m | 5.2m/s | -45.7°C | 2.8% | 13.9hPa | 2.5V | 08:30:00 | 02:05:27 | 00:00:00 | |
| DO2JMG | 2026-09-02 00:23:02 | 51.41907 | 7.82710 | 56° | 7km/h | 29278m | 6.1m/s | -45.7°C | 0% | 13.9hPa | 2.6V | 18:12:15 | 02:05:28 | 00:00:00 | |
| DL1NUX | 2026-09-02 00:23:02 | 51.41907 | 7.82704 | 214° | 4km/h | 29251m | 5.3m/s | -45.9°C | 2.8% | 14hPa | 2.6V | 08:30:00 | 02:05:23 | 00:00:00 | |
| AA1-15 | 2026-09-02 00:23:01 | 51.41906 | 7.82708 | 70° | 7km/h | 29272m | 5.2m/s | -45.7°C | 0% | 13.9hPa | 2.5V | 18:12:15 | 02:05:27 | 00:00:00 | |
| HSKMA3-T | 2026-09-02 00:22:58 | 51.41906 | 7.82704 | 188° | 4km/h | 29257m | 6.3m/s | -45.9°C | 0% | 14hPa | 2.6V | 18:12:15 | 02:05:24 | 00:00:00 | |
| BIOWL1-15 | 2026-09-02 00:22:56 | 51.41908 | 7.82704 | 184° | 2km/h | 29246m | 4.8m/s | -45.9°C | 0% | 14hPa | 2.5V | 18:12:15 | 02:05:22 | 00:00:00 | |
| DL1XH-west | 2026-09-02 00:22:55 | 51.41908 | 7.82704 | 76° | 4km/h | 29240m | 6.2m/s | -45.9°C | 0% | 14hPa | 2.5V | 18:12:15 | 02:05:21 | 00:00:00 | |
| DF8AY | 2026-09-02 00:22:54 | 51.41907 | 7.82701 | 64° | 9km/h | 29235m | 5.6m/s | -46°C | 0% | 14hPa | 2.5V | 18:12:15 | 02:05:20 | 00:00:00 | |
| DL1XH1-15 | 2026-09-02 00:22:53 | 51.41903 | 7.82692 | 53° | 15km/h | 29225m | 4.7m/s | -46°C | 2.9% | 14hPa | 2.6V | 08:30:00 | 02:05:18 | 00:00:00 | |
| DO2JMG | 2026-09-02 00:22:51 | 51.41901 | 7.82687 | 48° | 15km/h | 29219m | 6.1m/s | -46.1°C | 0% | 14.1hPa | 2.5V | 18:12:15 | 02:05:17 | 00:00:00 | |
| AA1-15 | 2026-09-02 00:22:50 | 51.41899 | 7.82684 | 37° | 11km/h | 29214m | 5.8m/s | -46.1°C | 0% | 14.1hPa | 2.5V | 18:12:15 | 02:05:16 | 00:00:00 | |
| HSKMA3-T | 2026-09-02 00:22:47 | 51.41893 | 7.82678 | 46° | 7km/h | 29197m | 6.1m/s | -46.1°C | 0% | 14.1hPa | 2.6V | 18:12:15 | 02:05:13 | 00:00:00 | |
| BIOWL1-15 | 2026-09-02 00:22:45 | 51.41891 | 7.82673 | 76° | 9km/h | 29186m | 4.7m/s | -46.1°C | 0% | 14.2hPa | 2.5V | 18:12:15 | 02:05:11 | 00:00:00 | |
| DL1XH-west | 2026-09-02 00:22:44 | 51.41891 | 7.82670 | 81° | 7km/h | 29182m | 4.6m/s | -46.1°C | 0% | 14.1hPa | 2.5V | 18:12:15 | 02:05:10 | 00:00:00 | |
| DF8AY | 2026-09-02 00:22:43 | 51.41891 | 7.82668 | 84° | 4km/h | 29176m | 6.3m/s | -46.2°C | 0% | 14.2hPa | 2.5V | 18:12:15 | 02:05:09 | 00:00:00 | |
| DL1XH-15 | 2026-09-02 00:22:42 | 51.41891 | 7.82669 | 275° | 2km/h | 29159m | 4.8m/s | -46.1°C | 2.9% | 14.2hPa | 2.5V | 08:30:00 | 02:05:06 | 00:00:00 | |
| DO2JMG | 2026-09-02 00:22:41 | 51.41891 | 7.82669 | 276° | 2km/h | 29159m | 4.8m/s | -46.1°C | 0% | 14.2hPa | 2.5V | 18:12:15 | 02:05:06 | 00:00:00 | |
| AA1-15 | 2026-09-02 00:22:39 | 51.41891 | 7.82669 | 36° | 2km/h | 29154m | 6m/s | -46.1°C | 0% | 14.2hPa | 2.5V | 18:12:15 | 02:05:05 | 00:00:00 | |
| BIOWL1-15 | 2026-09-02 00:22:37 | 51.41887 | 7.82659 | 53° | 7km/h | 29132m | 6.4m/s | -46.2°C | 0% | 14.2hPa | 2.5V | 18:12:15 | 02:05:01 | 00:00:00 | |
| HSKMA3-T | 2026-09-02 00:22:36 | 51.41888 | 7.82662 | 63° | 9km/h | 29138m | 4.8m/s | -46.2°C | 0% | 14.2hPa | 2.6V | 18:12:15 | 02:05:02 | 00:00:00 | |
| DL1XH-west | 2026-09-02 00:22:33 | 51.41885 | 7.82657 | 10° | 5km/h | 29121m | 5m/s | -46.2°C | 0% | 14.2hPa | 2.5V | 18:12:15 | 02:04:59 | 00:00:00 | |
| DF8AY | 2026-09-02 00:22:32 | 51.41883 | 7.82656 | 11° | 5km/h | 29115m | 5.1m/s | -46.2°C | 0% | 14.2hPa | 2.6V | 18:12:15 | 02:04:58 | 00:00:00 | |
| AA1-15 | 2026-09-02 00:22:29 | 51.41877 | 7.82650 | 30° | 5km/h | 29094m | 4.9m/s | -46.3°C | 0% | 14.3hPa | 2.5V | 18:12:15 | 02:04:54 | 00:00:00 | |
| DL1NUX | 2026-09-02 00:22:28 | 51.41876 | 7.82650 | 345° | 2km/h | 29088m | 6.6m/s | -46.3°C | 2.9% | 14.3hPa | 2.5V | 08:30:00 | 02:04:53 | 00:00:00 | |
| DO2JMG | 2026-09-02 00:22:27 | 51.41876 | 7.82650 | 346° | 2km/h | 29088m | 6.6m/s | -46.3°C | 0% | 14.3hPa | 2.5V | 18:12:15 | 02:04:53 | 00:00:00 | |
| HSKMA3-T | 2026-09-02 00:22:26 | 51.41876 | 7.82651 | 274° | 4km/h | 29082m | 5.6m/s | -46.3°C | 0% | 14.4hPa | 2.6V | 18:12:15 | 02:04:52 | 00:00:00 | |
| DF8AY | 2026-09-02 00:22:22 | 51.41877 | 7.82651 | 86° | 5km/h | 29060m | 4.7m/s | -46.3°C | 0% | 14.4hPa | 2.5V | 18:12:15 | 02:04:48 | 00:00:00 | |
| AA1-15 | 2026-09-02 00:22:17 | 51.41872 | 7.82641 | 9° | 7km/h | 29034m | 5.2m/s | -46.2°C | 0% | 14.5hPa | 2.5V | 18:12:15 | 02:04:43 | 00:00:00 | |
| DO2JMG | 2026-09-02 00:22:16 | 51.41870 | 7.82640 | 20° | 9km/h | 29029m | 4.9m/s | -46.2°C | 0% | 14.5hPa | 2.6V | 18:12:15 | 02:04:42 | 00:00:00 | |
| HSKMA3-T | 2026-09-02 00:22:15 | 51.41868 | 7.82638 | 32° | 11km/h | 29023m | 6.3m/s | -46.2°C | 0% | 14.5hPa | 2.6V | 18:12:15 | 02:04:41 | 00:00:00 | |
| BIOWL1-15 | 2026-09-02 00:22:14 | 51.41865 | 7.82635 | 44° | 15km/h | 29017m | 6m/s | -46.2°C | 0% | 14.5hPa | 2.5V | 18:12:15 | 02:04:40 | 00:00:00 | |
| DL1XH1-15 | 2026-09-02 00:22:13 | 51.41861 | 7.82625 | 64° | 15km/h | 29007m | 5m/s | -46.1°C | 2.9% | 14.5hPa | 2.5V | 08:30:00 | 02:04:38 | 00:00:00 | |
| DL1NUX | 2026-09-02 00:22:12 | 51.41865 | 7.82604 | 126° | 13km/h | 28978m | 5.8m/s | -46°C | 2.9% | 14.6hPa | 2.5V | 08:30:00 | 02:04:33 | 00:00:00 | |
| DF8AY | 2026-09-02 00:22:12 | 51.41869 | 7.82592 | 356° | 5km/h | 28951m | 5.3m/s | -46.2°C | 0% | 14.7hPa | 2.5V | 18:12:15 | 02:04:28 | 00:00:00 | |
| DL1XH-west | 2026-09-02 00:22:11 | 51.41860 | 7.82620 | 79° | 11km/h | 29001m | 6.5m/s | -46.1°C | 0% | 14.5hPa | 2.6V | 18:12:15 | 02:04:37 | 00:00:00 | |
| AA1-15 | 2026-09-02 00:22:07 | 51.41865 | 7.82604 | 126° | 13km/h | 28978m | 5.8m/s | -46°C | 0% | 14.6hPa | 2.5V | 18:12:15 | 02:04:33 | 00:00:00 | |
| DO2JMG | 2026-09-02 00:22:06 | 51.41867 | 7.82600 | 123° | 13km/h | 28972m | 4.4m/s | -46°C | 0% | 14.6hPa | 2.5V | 18:12:15 | 02:04:32 | 00:00:00 | |
| HSKMA3-T | 2026-09-02 00:22:05 | 51.41868 | 7.82596 | 121° | 11km/h | 28968m | 4.7m/s | -46.1°C | 0% | 14.6hPa | 2.6V | 18:12:15 | 02:04:31 | 00:00:00 | |
| DF8AY | 2026-09-02 00:22:05 | 51.41861 | 7.82588 | 32° | 16km/h | 28934m | 5.3m/s | -46.3°C | 0% | 14.7hPa | 2.6V | 18:12:15 | 02:04:25 | 00:00:00 | |
| BIOWL1-15 | 2026-09-02 00:22:04 | 51.41869 | 7.82593 | 118° | 5km/h | 28962m | 6.1m/s | -46.1°C | 0% | 14.6hPa | 2.6V | 18:12:15 | 02:04:30 | 00:00:00 | |
| DL1XH1-15 | 2026-09-02 00:22:03 | 51.41869 | 7.82592 | 356° | 5km/h | 28951m | 5.3m/s | -46.2°C | 2.9% | 14.7hPa | 2.5V | 08:30:00 | 02:04:28 | 00:00:00 | |
| DL1XH-west | 2026-09-02 00:22:00 | 51.41864 | 7.82591 | 17° | 13km/h | 28940m | 6.2m/s | -46.2°C | 0% | 14.6hPa | 2.5V | 18:12:15 | 02:04:26 | 00:00:00 | |
| SONCRA | 2026-09-02 00:22:00 | 51.41864 | 7.82591 | 17° | 11km/h | 28940m | 6.2m/s | -46.2°C | 0.6% | 14.6hPa | 2.6V | 00:00:00 | 00:00:00 | 00:00:00 | |
| SONDE2-11 | 2026-09-02 00:21:58 | 51.41855 | 7.82580 | 53° | 13km/h | 28925m | 5.0m/s | -46.3°C | 0.6% | 14.7hPa | 2.6V | 00:00:00 | 00:00:00 | 00:00:00 | |
| DL1NUX | 2026-09-02 00:21:57 | 51.41855 | 7.82580 | 53° | 13km/h | 28924m | 5m/s | -46.3°C | 2.9% | 14.7hPa | 2.6V | 08:30:00 | 02:04:23 | 00:00:00 | |
| AA1-15 | 2026-09-02 00:21:57 | 51.41854 | 7.82576 | 69° | 9km/h | 28919m | 6.5m/s | -46.3°C | 0% | 14.7hPa | 2.5V | 18:12:15 | 02:04:22 | 00:00:00 | |
| DO2JMG | 2026-09-02 00:21:55 | 51.41854 | 7.82574 | 109° | 5km/h | 28912m | 6m/s | -46.3°C | 0% | 14.7hPa | 2.5V | 18:12:15 | 02:04:21 | 00:00:00 | |
| DM0DOS-11 | 2026-09-02 00:21:55 | 51.41859 | 7.82568 | 153° | 4km/h | 28890m | 4.6m/s | -46.3°C | 2.9% | 14.8hPa | 2.6V | 08:30:00 | 02:04:17 | 00:00:00 | |
| BIOWL1-15 | 2026-09-02 00:21:53 | 51.41856 | 7.82570 | 151° | 7km/h | 28901m | 6.2m/s | -46.3°C | 0% | 14.7hPa | 2.5V | 18:12:15 | 02:04:19 | 00:00:00 | |
| SO1NDE-10 | 2026-09-02 00:21:53 | 51.41856 | 7.82570 | 151° | 9km/h | 28901m | 6.1m/s | -46.3°C | 2.9% | 14.7hPa | 2.5V | 00:00:00 | 02:04:19 | 00:00:00 | |
| DL1NUX | 2026-09-02 00:21:52 | 51.41855 | 7.82577 | 315° | 15km/h | 28868m | 5.3m/s | -46.3°C | 2.9% | 14.8hPa | 2.5V | 08:30:00 | 02:04:13 | 00:00:00 | |
| DL1XH-west | 2026-09-02 00:21:49 | 51.41858 | 7.82570 | 299° | 7km/h | 28880m | 6.2m/s | -46.3°C | 0% | 14.8hPa | 2.5V | 18:12:15 | 02:04:15 | 00:00:00 | |
| AA1-15 | 2026-09-02 00:21:46 | 51.41852 | 7.82580 | 333° | 16km/h | 28863m | 5m/s | -46.3°C | 0% | 14.9hPa | 2.6V | 18:12:15 | 02:04:12 | 00:00:00 | |
| DO2JMG | 2026-09-02 00:21:46 | 51.41848 | 7.82582 | 351° | 16km/h | 28857m | 6.4m/s | -46.2°C | 0% | 14.8hPa | 2.6V | 18:12:15 | 02:04:11 | 00:00:00 | |
| DL1XH-15 | 2026-09-02 00:21:45 | 51.41834 | 7.82573 | 99° | 4km/h | 28830m | 5.6m/s | -46.3°C | 2.9% | 14.9hPa | 2.5V | 08:30:00 | 02:04:06 | 00:00:00 | |
| HSKMA3-T | 2026-09-02 00:21:44 | 51.41839 | 7.82580 | 25° | 16km/h | 28846m | 4.6m/s | -46.3°C | 0% | 14.9hPa | 2.5V | 18:12:15 | 02:04:09 | 00:00:00 | |
| DL4BBY-15 | 2026-09-02 00:21:44 | 51.41843 | 7.82582 | 11° | 11km/h | 28851m | 5.3m/s | -45.7°C | 0% | 0hPa | 2.5V | 00:00:00 | 00:00:00 | 00:00:00 | |
| DM0DOS-11 | 2026-09-02 00:21:43 | 51.41835 | 7.82575 | 49° | 7km/h | 28836m | 6.3m/s | -46.3°C | 2.9% | 14.9hPa | 2.5V | 08:30:00 | 02:04:07 | 00:00:00 | |
| DF8AY | 2026-09-02 00:21:42 | 51.41837 | 7.82571 | 160° | 5km/h | 28814m | 5.7m/s | -46.4°C | 0% | 15hPa | 2.5V | 18:12:15 | 02:04:03 | 00:00:00 | |
| DL1XH-west | 2026-09-02 00:21:39 | 51.41835 | 7.82572 | 163° | 5km/h | 28824m | 4.8m/s | -46.3°C | 0% | 14.9hPa | 2.6V | 18:12:15 | 02:04:05 | 00:00:00 | |
| AA1-15 | 2026-09-02 00:21:36 | 51.41839 | 7.82569 | 93° | 2km/h | 28804m | 4.9m/s | -46.4°C | 0% | 15hPa | 2.5V | 18:12:15 | 02:04:01 | 00:00:00 | |
| DO2JMG | 2026-09-02 00:21:34 | 51.41838 | 7.82569 | 337° | 2km/h | 28798m | 5m/s | -46.5°C | 0% | 15hPa | 2.6V | 18:12:15 | 02:04:00 | 00:00:00 | |
| DM0DOS-11 | 2026-09-02 00:21:34 | 51.41834 | 7.82576 | 320° | 13km/h | 28782m | 4.9m/s | -46.5°C | 3% | 15hPa | 2.5V | 08:30:00 | 02:03:57 | 00:00:00 | |
| DL1XH-15 | 2026-09-02 00:21:34 | 51.41831 | 7.82579 | 332° | 16km/h | 28776m | 5.6m/s | -46.6°C | 2.9% | 15hPa | 2.5V | 08:30:00 | 02:03:56 | 00:00:00 | |
| DL1XH1-15 | 2026-09-02 00:21:33 | 51.41836 | 7.82573 | 311° | 11km/h | 28787m | 5.6m/s | -46.5°C | 2.9% | 15hPa | 2.5V | 08:30:00 | 02:03:58 | 00:00:00 | |
| HSKMA3-T | 2026-09-02 00:21:33 | 51.41838 | 7.82570 | 314° | 5km/h | 28793m | 6.1m/s | -46.5°C | 0% | 15hPa | 2.6V | 18:12:15 | 02:03:59 | 00:00:00 | |
| BIOWL1-15 | 2026-09-02 00:21:32 | 51.41796 | 7.82625 | 1° | 13km/h | 28688m | 5.5m/s | -47°C | 0% | 15.2hPa | 2.5V | 18:12:15 | 02:03:40 | 00:00:00 | |
| DL1NUX | 2026-09-02 00:21:32 | 51.41818 | 7.82584 | 351° | 16km/h | 28760m | 4.7m/s | -46.6°C | 2.9% | 15.1hPa | 2.5V | 08:30:00 | 02:03:53 | 00:00:00 | |
| DL1XH-west | 2026-09-02 00:21:29 | 51.41827 | 7.82582 | 345° | 18km/h | 28771m | 6.1m/s | -46.6°C | 0% | 15.1hPa | 2.6V | 18:12:15 | 02:03:55 | 00:00:00 | |
| DF8AY | 2026-09-02 00:21:27 | 51.41818 | 7.82584 | 352° | 16km/h | 28760m | 4.7m/s | -46.6°C | 0% | 15.1hPa | 2.5V | 18:12:15 | 02:03:53 | 00:00:00 | |
| AA1-15 | 2026-09-02 00:21:24 | 51.41811 | 7.82591 | 285° | 9km/h | 28743m | 5.4m/s | -46.7°C | 0% | 15.1hPa | 2.5V | 18:12:15 | 02:03:50 | 00:00:00 | |
| DO2JMG | 2026-09-02 00:21:23 | 51.41811 | 7.82595 | 271° | 9km/h | 28738m | 5.2m/s | -46.7°C | 0% | 15.1hPa | 2.6V | 18:12:15 | 02:03:49 | 00:00:00 | |
| DM0DOS-11 | 2026-09-02 00:21:23 | 51.41811 | 7.82601 | 286° | 7km/h | 28726m | 5.3m/s | -46.7°C | 3% | 15.1hPa | 2.5V | 08:30:00 | 02:03:47 | 00:00:00 | |
| HSKMA3-T | 2026-09-02 00:21:22 | 51.41811 | 7.82598 | 271° | 9km/h | 28732m | 6.1m/s | -46.7°C | 0% | 15.2hPa | 2.6V | 18:12:15 | 02:03:48 | 00:00:00 | |
| DL1XH-west | 2026-09-02 00:21:18 | 51.41807 | 7.82612 | 300° | 13km/h | 28710m | 6.2m/s | -46.8°C | 0% | 15.2hPa | 2.5V | 18:12:15 | 02:03:44 | 00:00:00 | |
| EDDB2-12 | 2026-09-02 00:21:17 | 51.41805 | 7.82617 | 307° | 15km/h | 28705m | 5.4m/s | -46.9°C | 0.7% | 15.2hPa | 2.5V | 00:00:00 | 00:00:00 | 00:00:00 | |
| DJ2KF-10 | 2026-09-02 00:21:15 | 51.41799 | 7.82624 | 341° | 7km/h | 28694m | 6.1m/s | -46.9°C | 3.0% | 15.2hPa | 2.5V | 00:00:00 | 02:03:41 | 00:00:00 | |
| DL4BBY-15 | 2026-09-02 00:21:14 | 51.41796 | 7.82625 | 1° | 7km/h | 28688m | 5.5m/s | -46.4°C | 0% | 0hPa | 2.5V | 00:00:00 | 00:00:00 | 00:00:00 | |
| DM0DOS-11 | 2026-09-02 00:21:13 | 51.41788 | 7.82623 | 358° | 5km/h | 28673m | 6.1m/s | -47.1°C | 3% | 15.3hPa | 2.5V | 08:30:00 | 02:03:37 | 00:00:00 | |
| AA1-15 | 2026-09-02 00:21:13 | 51.41793 | 7.82624 | 14° | 13km/h | 28683m | 4.6m/s | -47°C | 0% | 15.2hPa | 2.5V | 18:12:15 | 02:03:39 | 00:00:00 | |
| DL1NUX | 2026-09-02 00:21:12 | 51.41786 | 7.82629 | 308° | 5km/h | 28651m | 5.9m/s | -47.1°C | 3% | 15.3hPa | 2.5V | 08:30:00 | 02:03:33 | 00:00:00 | |
| HSKMA3-T | 2026-09-02 00:21:11 | 51.41789 | 7.82623 | 358° | 5km/h | 28673m | 6.1m/s | -47.1°C | 0% | 15.3hPa | 2.5V | 18:12:15 | 02:03:37 | 00:00:00 | |
| DL1XH-west | 2026-09-02 00:21:07 | 51.41786 | 7.82629 | 308° | 5km/h | 28651m | 5.9m/s | -47.1°C | 0% | 15.3hPa | 2.5V | 18:12:15 | 02:03:33 | 00:00:00 | |
| DO2JMG | 2026-09-02 00:21:05 | 51.41784 | 7.82632 | 330° | 7km/h | 28640m | 4.8m/s | -47.1°C | 0% | 15.4hPa | 2.6V | 18:12:15 | 02:03:31 | 00:00:00 | |
| DF8AY | 2026-09-02 00:21:05 | 51.41782 | 7.82634 | 322° | 9km/h | 28635m | 5.8m/s | -47.1°C | 0% | 15.4hPa | 2.6V | 18:12:15 | 02:03:30 | 00:00:00 | |
| DO2KSM | 2026-09-02 00:21:05 | 51.41784 | 7.82632 | 331° | 7km/h | 28640m | 4.8m/s | -47.1°C | 0.7% | 15.4hPa | 2.5V | 00:00:00 | 00:00:00 | 00:00:00 | |
| DL1XH1-15 | 2026-09-02 00:21:03 | 51.41779 | 7.82639 | 321° | 7km/h | 28624m | 4.6m/s | -47.1°C | 3% | 15.4hPa | 2.5V | 08:30:00 | 02:03:28 | 00:00:00 | |
| DL1XH-15 | 2026-09-02 00:21:02 | 51.41775 | 7.82640 | 23° | 7km/h | 28613m | 6.3m/s | -47.1°C | 3% | 15.4hPa | 2.6V | 08:30:00 | 02:03:26 | 00:00:00 | |
| AA1-15 | 2026-09-02 00:21:02 | 51.41779 | 7.82639 | 322° | 7km/h | 28624m | 4.6m/s | -47.1°C | 0% | 15.4hPa | 2.5V | 18:12:15 | 02:03:28 | 00:00:00 | |
| HSKMA3-T | 2026-09-02 00:21:00 | 51.41775 | 7.82640 | 23° | 7km/h | 28613m | 6.3m/s | -47.1°C | 0% | 15.4hPa | 2.6V | 18:12:15 | 02:03:26 | 00:00:00 | |
| DL1XH-west | 2026-09-02 00:20:57 | 51.41771 | 7.82630 | 81° | 9km/h | 28597m | 6.2m/s | -47.2°C | 0% | 15.4hPa | 2.5V | 18:12:15 | 02:03:23 | 00:00:00 | |
| DO2JMG | 2026-09-02 00:20:55 | 51.41772 | 7.82624 | 131° | 7km/h | 28586m | 5.1m/s | -47.3°C | 0% | 15.5hPa | 2.5V | 18:12:15 | 02:03:21 | 00:00:00 | |
| DL1XH-15 | 2026-09-02 00:20:55 | 51.41778 | 7.82614 | 150° | 4km/h | 28559m | 5.8m/s | -47.4°C | 3.1% | 15.6hPa | 2.5V | 08:30:00 | 02:03:16 | 00:00:00 | |
| DL8DAS-14 | 2026-09-02 00:20:54 | 51.41775 | 7.82620 | 131° | 7km/h | 28575m | 6.0m/s | -47.3°C | 0.7% | 15.5hPa | 2.5V | 00:00:00 | 00:00:00 | 00:00:00 | |
| DL1XH1-15 | 2026-09-02 00:20:53 | 51.41776 | 7.82617 | 125° | 7km/h | 28569m | 5m/s | -47.3°C | 3.1% | 15.5hPa | 2.5V | 08:30:00 | 02:03:18 | 00:00:00 | |
| DF8AY | 2026-09-02 00:20:53 | 51.41775 | 7.82620 | 132° | 7km/h | 28575m | 6m/s | -47.3°C | 0% | 15.5hPa | 2.6V | 18:12:15 | 02:03:19 | 00:00:00 | |
| SO1NDE-10 | 2026-09-02 00:20:53 | 51.41775 | 7.82620 | 132° | 9km/h | 28575m | 5.9m/s | -47.3°C | 3.1% | 15.5hPa | 2.6V | 00:00:00 | 02:03:19 | 00:00:00 | |
| DL1NUX | 2026-09-02 00:20:52 | 51.41779 | 7.82615 | 349° | 4km/h | 28542m | 5.2m/s | -47.4°C | 3.1% | 15.6hPa | 2.6V | 08:30:00 | 02:03:13 | 00:00:00 | |
| BIOWL1-15 | 2026-09-02 00:20:52 | 51.41779 | 7.82614 | 205° | 2km/h | 28553m | 6m/s | -47.4°C | 0% | 15.6hPa | 2.5V | 18:12:15 | 02:03:15 | 00:00:00 | |
| AA1-15 | 2026-09-02 00:20:51 | 51.41777 | 7.82615 | 129° | 5km/h | 28564m | 4.5m/s | -47.3°C | 0% | 15.5hPa | 2.5V | 18:12:15 | 02:03:17 | 00:00:00 | |
| HSKMA3-T | 2026-09-02 00:20:50 | 51.41778 | 7.82614 | 150° | 4km/h | 28559m | 5.8m/s | -47.4°C | 0% | 15.6hPa | 2.5V | 18:12:15 | 02:03:16 | 00:00:00 | |
| DL1XH-west | 2026-09-02 00:20:46 | 51.41777 | 7.82615 | 16° | 7km/h | 28537m | 6.4m/s | -47.4°C | 0% | 15.6hPa | 2.6V | 18:12:15 | 02:03:12 | 00:00:00 | |
| DO2SHX-10 | 2026-09-02 00:20:46 | 51.41777 | 7.82615 | 17° | 9km/h | 28537m | 6.3m/s | -47.3°C | 3.1% | 15.6hPa | 2.6V | 00:00:00 | 02:03:12 | 00:00:00 | |
| DJ2KF-10 | 2026-09-02 00:20:45 | 51.41775 | 7.82614 | 24° | 11km/h | 28531m | 5.3m/s | -47.3°C | 3.1% | 15.5hPa | 2.5V | 00:00:00 | 02:03:11 | 08:30:00 | |
| DM0DOS-11 | 2026-09-02 00:20:44 | 51.41766 | 7.82609 | 345° | 4km/h | 28510m | 5.1m/s | -47.5°C | 3.1% | 15.7hPa | 2.6V | 08:30:00 | 02:03:07 | 00:00:00 | |
| DL1XH1-15 | 2026-09-02 00:20:43 | 51.41768 | 7.82609 | 7° | 7km/h | 28515m | 5.7m/s | -47.5°C | 3.1% | 15.6hPa | 2.5V | 08:30:00 | 02:03:08 | 00:00:00 | |
| DO2JMG | 2026-09-02 00:20:42 | 51.41767 | 7.82609 | 7° | 7km/h | 28515m | 5.7m/s | -47.5°C | 0% | 15.7hPa | 2.5V | 18:12:15 | 02:03:08 | 00:00:00 | |
| DL1NUX | 2026-09-02 00:20:42 | 51.41766 | 7.82605 | 108° | 7km/h | 28488m | 5m/s | -47.5°C | 3.1% | 15.7hPa | 2.5V | 08:30:00 | 02:03:03 | 00:00:00 | |
| BIOWL1-15 | 2026-09-02 00:20:41 | 51.41766 | 7.82609 | 346° | 4km/h | 28510m | 5.1m/s | -47.5°C | 0% | 15.7hPa | 2.6V | 18:12:15 | 02:03:07 | 00:00:00 | |
| AA1-15 | 2026-09-02 00:20:40 | 51.41765 | 7.82609 | 341° | 2km/h | 28505m | 4.9m/s | -47.5°C | 0% | 15.7hPa | 2.6V | 18:12:15 | 02:03:06 | 00:00:00 | |
| HSKMA3-T | 2026-09-02 00:20:39 | 51.41765 | 7.82609 | 99° | 2km/h | 28499m | 6m/s | -47.5°C | 0% | 15.7hPa | 2.5V | 18:12:15 | 02:03:05 | 00:00:00 | |
| DL1XH-west | 2026-09-02 00:20:36 | 51.41766 | 7.82602 | 114° | 7km/h | 28483m | 5.4m/s | -47.5°C | 0% | 15.7hPa | 2.5V | 18:12:15 | 02:03:02 | 00:00:00 | |
| DO3MHA-12 | 2026-09-02 00:20:36 | 51.41766 | 7.82602 | 115° | 13km/h | 28483m | 5.3m/s | -47.5°C | 3.1% | 15.7hPa | 2.5V | 00:00:00 | 02:03:02 | 00:00:00 | |
| DO3DL | 2026-09-02 00:20:35 | 51.41766 | 7.82602 | 115° | 7km/h | 28483m | 5.4m/s | -47.5°C | 0.7% | 15.7hPa | 2.5V | 00:00:00 | 00:00:00 | 00:00:00 | |
| DO3MHA-11 | 2026-09-02 00:20:34 | 51.41768 | 7.82597 | 122° | 15km/h | 28472m | 5.0m/s | -47.4°C | 3.1% | 15.7hPa | 2.5V | 00:00:00 | 02:03:00 | 00:00:00 | |
| DM0DOS-11 | 2026-09-02 00:20:33 | 51.41769 | 7.82583 | 83° | 18km/h | 28456m | 6m/s | -47.4°C | 3.1% | 15.8hPa | 2.5V | 08:30:00 | 02:02:57 | 00:00:00 | |
| DL1XH1-15 | 2026-09-02 00:20:33 | 51.41770 | 7.82590 | 93° | 13km/h | 28461m | 5.8m/s | -47.4°C | 3.1% | 15.8hPa | 2.5V | 08:30:00 | 02:02:58 | 00:00:00 | |
| DO2SHX-10 | 2026-09-02 00:20:33 | 51.41769 | 7.82594 | 109° | 13km/h | 28467m | 4.6m/s | -47.4°C | 3.1% | 15.7hPa | 2.6V | 00:00:00 | 02:02:59 | 00:00:00 | |
| DL1NUX | 2026-09-02 00:20:32 | 51.41764 | 7.82555 | 64° | 13km/h | 28434m | 5.6m/s | -47.4°C | 3.1% | 15.8hPa | 2.6V | 08:30:00 | 02:02:53 | 00:00:00 | |
| DO2JMG | 2026-09-02 00:20:31 | 51.41770 | 7.82583 | 83° | 18km/h | 28456m | 6m/s | -47.4°C | 0% | 15.8hPa | 2.5V | 18:12:15 | 02:02:57 | 00:00:00 | |
| DF8AY | 2026-09-02 00:20:30 | 51.41769 | 7.82576 | 76° | 20km/h | 28450m | 4.7m/s | -47.4°C | 0% | 15.8hPa | 2.5V | 18:12:15 | 02:02:56 | 00:00:00 | |
| AA1-15 | 2026-09-02 00:20:29 | 51.41767 | 7.82568 | 71° | 20km/h | 28446m | 4.3m/s | -47.4°C | 0% | 15.8hPa | 2.5V | 18:12:15 | 02:02:55 | 00:00:00 | |
| HSKMA3-T | 2026-09-02 00:20:28 | 51.41765 | 7.82561 | 68° | 18km/h | 28441m | 6.2m/s | -47.4°C | 0% | 15.8hPa | 2.6V | 18:12:15 | 02:02:54 | 00:00:00 | |
| DL1XH-west | 2026-09-02 00:20:25 | 51.41761 | 7.82547 | 54° | 9km/h | 28424m | 5.3m/s | -47.4°C | 0% | 15.9hPa | 2.5V | 18:12:15 | 02:02:51 | 00:00:00 | |
| DL1XH-15 | 2026-09-02 00:20:24 | 51.41750 | 7.82527 | 47° | 13km/h | 28397m | 5.9m/s | -47.6°C | 3.1% | 15.9hPa | 2.5V | 08:30:00 | 02:02:46 | 00:00:00 | |
| DO2SHX-10 | 2026-09-02 00:20:24 | 51.41759 | 7.82543 | 52° | 11km/h | 28419m | 5.8m/s | -47.4°C | 3.1% | 15.9hPa | 2.5V | 00:00:00 | 02:02:50 | 00:00:00 | |
| DO2KSM | 2026-09-02 00:20:23 | 51.41759 | 7.82543 | 52° | 11km/h | 28419m | 5.9m/s | -47.4°C | 0.7% | 15.9hPa | 2.5V | 00:00:00 | 00:00:00 | 00:00:00 | |
| DM0DOS-11 | 2026-09-02 00:20:22 | 51.41753 | 7.82531 | 48° | 15km/h | 28402m | 4.5m/s | -47.5°C | 3.1% | 15.9hPa | 2.5V | 08:30:00 | 02:02:47 | 00:00:00 | |
| DL1NUX | 2026-09-02 00:20:22 | 51.41746 | 7.82516 | 68° | 11km/h | 28381m | 4.9m/s | -47.6°C | 3% | 16hPa | 2.6V | 08:30:00 | 02:02:43 | 00:00:00 | |
| DF8AY | 2026-09-02 00:20:20 | 51.41750 | 7.82527 | 48° | 13km/h | 28397m | 5.9m/s | -47.6°C | 0% | 15.9hPa | 2.5V | 18:12:15 | 02:02:46 | 00:00:00 | |
| BIOWL1-15 | 2026-09-02 00:20:20 | 51.41741 | 7.82489 | 67° | 20km/h | 28361m | 3.8m/s | -47.7°C | 0% | 16hPa | 2.5V | 18:12:15 | 02:02:39 | 00:00:00 | |
| DO2JMG | 2026-09-02 00:20:19 | 51.41748 | 7.82523 | 52° | 9km/h | 28392m | 5.6m/s | -47.6°C | 0% | 15.9hPa | 2.5V | 18:12:15 | 02:02:45 | 00:00:00 | |
| AA1-15 | 2026-09-02 00:20:18 | 51.41747 | 7.82520 | 63° | 9km/h | 28386m | 4.7m/s | -47.6°C | 0% | 15.9hPa | 2.6V | 18:12:15 | 02:02:44 | 00:00:00 | |
| DL1XH-west | 2026-09-02 00:20:15 | 51.41744 | 7.82505 | 74° | 18km/h | 28370m | 5.3m/s | -47.6°C | 0% | 16hPa | 2.5V | 18:12:15 | 02:02:41 | 00:00:00 | |
| DO3DL | 2026-09-02 00:20:15 | 51.41744 | 7.82505 | 75° | 18km/h | 28370m | 5.3m/s | -47.6°C | 0.7% | 16.0hPa | 2.5V | 00:00:00 | 00:00:00 | 00:00:00 | |
| DL1XH-15 | 2026-09-02 00:20:14 | 51.41735 | 7.82477 | 9° | 7km/h | 28345m | 5.4m/s | -47.7°C | 3.1% | 16.1hPa | 2.5V | 08:30:00 | 02:02:36 | 00:00:00 | |
| DO3MHA-11 | 2026-09-02 00:20:14 | 51.41742 | 7.82497 | 72° | 15km/h | 28366m | 4.1m/s | -47.6°C | 3.0% | 16.0hPa | 2.6V | 00:00:00 | 02:02:40 | 00:00:00 | |
| SMARD9-10 | 2026-09-02 00:20:13 | 51.41742 | 7.82497 | 73° | 22km/h | 28366m | 4.1m/s | -47.7°C | 0.7% | 16.0hPa | 2.6V | 00:00:00 | 00:00:00 | 00:00:00 | |
| DM0DOS-11 | 2026-09-02 00:20:12 | 51.41737 | 7.82479 | 47° | 9km/h | 28351m | 5.9m/s | -47.7°C | 3.1% | 16.1hPa | 2.6V | 08:30:00 | 02:02:37 | 00:00:00 | |
| DF8AY | 2026-09-02 00:20:09 | 51.41728 | 7.82479 | 1° | 15km/h | 28330m | 5.8m/s | -47.8°C | 0% | 16.1hPa | 2.5V | 18:12:15 | 02:02:33 | 00:00:00 | |
| BIOWL1-15 | 2026-09-02 00:20:08 | 51.41699 | 7.82455 | 31° | 22km/h | 28299m | 5.1m/s | -47.9°C | 0% | 16.2hPa | 2.5V | 18:12:15 | 02:02:27 | 00:00:00 | |
| HSKMA3-T | 2026-09-02 00:20:08 | 51.41731 | 7.82479 | 345° | 11km/h | 28335m | 5m/s | -47.8°C | 0% | 16.1hPa | 2.5V | 18:12:15 | 02:02:34 | 00:00:00 | |
| DF8AY | 2026-09-02 00:20:05 | 51.41690 | 7.82446 | 36° | 22km/h | 28289m | 6m/s | -47.9°C | 0% | 16.2hPa | 2.6V | 18:12:15 | 02:02:25 | 00:00:00 | |
| DL1XH-15 | 2026-09-02 00:20:04 | 51.41694 | 7.82451 | 32° | 20km/h | 28294m | 4.5m/s | -47.9°C | 3.2% | 16.2hPa | 2.5V | 08:30:00 | 02:02:26 | 00:00:00 | |
| DL1XH-west | 2026-09-02 00:20:04 | 51.41714 | 7.82470 | 31° | 26km/h | 28315m | 4.5m/s | -47.9°C | 0% | 16.1hPa | 2.6V | 18:12:15 | 02:02:30 | 00:00:00 | |
| DL1XH1-15 | 2026-09-02 00:20:03 | 51.41703 | 7.82460 | 30° | 24km/h | 28304m | 5.5m/s | -47.9°C | 3.2% | 16.1hPa | 2.5V | 08:30:00 | 02:02:28 | 00:00:00 | |
| WPPR-10 | 2026-09-02 00:20:03 | 51.41709 | 7.82465 | 31° | 24km/h | 28310m | 5.9m/s | -48.0°C | 0.7% | 16.2hPa | 2.5V | 00:00:00 | 00:00:00 | 00:00:00 | |
| DL1NUX | 2026-09-02 00:20:02 | 51.41681 | 7.82437 | 25° | 18km/h | 28279m | 4.3m/s | -47.9°C | 3.2% | 16.2hPa | 2.5V | 08:30:00 | 02:02:23 | 00:00:00 | |
| BIOWL1-15 | 2026-09-02 00:20:01 | 51.41656 | 7.82441 | 351° | 24km/h | 28253m | 5.2m/s | -47.9°C | 0% | 16.3hPa | 2.5V | 18:12:15 | 02:02:18 | 00:00:00 | |
| AA1-15 | 2026-09-02 00:19:57 | 51.41681 | 7.82437 | 26° | 18km/h | 28279m | 4.4m/s | -47.9°C | 0% | 16.2hPa | 2.5V | 18:12:15 | 02:02:23 | 00:00:00 | |
| DL1XH-west | 2026-09-02 00:19:54 | 51.41667 | 7.82436 | 342° | 22km/h | 28262m | 4.8m/s | -48°C | 0% | 16.3hPa | 2.6V | 18:12:15 | 02:02:20 | 00:00:00 | |
| DO2JMG | 2026-09-02 00:19:53 | 51.41662 | 7.82439 | 343° | 24km/h | 28258m | 4.1m/s | -47.9°C | 0% | 16.3hPa | 2.6V | 18:12:15 | 02:02:19 | 00:00:00 | |
| SO1NDE-10 | 2026-09-02 00:19:53 | 51.41662 | 7.82439 | 344° | 22km/h | 28258m | 4.1m/s | -47.9°C | 3.1% | 16.2hPa | 2.6V | 00:00:00 | 02:02:19 | 00:00:00 | |
| DL1NUX | 2026-09-02 00:19:52 | 51.41625 | 7.82425 | 25° | 26km/h | 28229m | 5.3m/s | -48°C | 3.2% | 16.4hPa | 2.5V | 08:30:00 | 02:02:13 | 00:00:00 | |
| DF8AY | 2026-09-02 00:19:48 | 51.41631 | 7.82430 | 28° | 27km/h | 28234m | 4.5m/s | -48°C | 0% | 16.3hPa | 2.6V | 18:12:15 | 02:02:14 | 00:00:00 | |
| AA1-15 | 2026-09-02 00:19:46 | 51.41619 | 7.82421 | 21° | 22km/h | 28224m | 5.3m/s | -48°C | 0% | 16.4hPa | 2.5V | 18:12:15 | 02:02:12 | 00:00:00 | |
| DJ3KS | 2026-09-02 00:19:46 | 51.41619 | 7.82421 | 22° | 22km/h | 28224m | 5.3m/s | -48.0°C | 0.7% | 16.4hPa | 2.5V | 00:00:00 | 00:00:00 | 00:00:00 | |
| DJ2KF-10 | 2026-09-02 00:19:45 | 51.41614 | 7.82418 | 15° | 22km/h | 28219m | 4.5m/s | -48.0°C | 3.2% | 16.3hPa | 2.5V | 00:00:00 | 02:02:11 | 00:00:00 | |
| DL1XH-15 | 2026-09-02 00:19:44 | 51.41590 | 7.82407 | 28° | 18km/h | 28195m | 3.6m/s | -48.2°C | 3.2% | 16.4hPa | 2.5V | 08:30:00 | 02:02:06 | 00:00:00 | |
| DO2JMG | 2026-09-02 00:19:43 | 51.41604 | 7.82415 | 12° | 20km/h | 28209m | 5.1m/s | -48.2°C | 0% | 16.4hPa | 2.6V | 18:12:15 | 02:02:09 | 00:00:00 | |
| DL1XH1-15 | 2026-09-02 00:19:43 | 51.41599 | 7.82413 | 16° | 20km/h | 28204m | 5.4m/s | -48.2°C | 3.2% | 16.4hPa | 2.6V | 08:30:00 | 02:02:08 | 00:00:00 | |
| DL1NUX | 2026-09-02 00:19:42 | 51.41581 | 7.82398 | 25° | 9km/h | 28180m | 5.1m/s | -48.2°C | 3.2% | 16.5hPa | 2.6V | 08:30:00 | 02:02:03 | 00:00:00 | |
| DF8AY | 2026-09-02 00:19:37 | 51.41581 | 7.82398 | 26° | 9km/h | 28180m | 5.1m/s | -48.2°C | 0% | 16.5hPa | 2.6V | 18:12:15 | 02:02:03 | 00:00:00 | |
| HSKMA3-T | 2026-09-02 00:19:36 | 51.41579 | 7.82397 | 14° | 11km/h | 28175m | 4.3m/s | -48.2°C | 0.1% | 16.5hPa | 2.5V | 18:12:15 | 02:02:02 | 00:00:00 | |
| AA1-15 | 2026-09-02 00:19:35 | 51.41575 | 7.82396 | 9° | 15km/h | 28171m | 5m/s | -48.2°C | 0.1% | 16.5hPa | 2.5V | 18:12:15 | 02:02:01 | 00:00:00 | |
| DO2SHX-10 | 2026-09-02 00:19:35 | 51.41575 | 7.82396 | 9° | 16km/h | 28171m | 5.0m/s | -48.2°C | 3.3% | 16.5hPa | 2.6V | 00:00:00 | 02:02:01 | 00:00:00 | |
| DL1XH1-15 | 2026-09-02 00:19:33 | 51.41558 | 7.82396 | 355° | 31km/h | 28156m | 4.6m/s | -48.1°C | 3.2% | 16.5hPa | 2.6V | 08:30:00 | 02:01:58 | 00:00:00 | |
| DL1XH-west | 2026-09-02 00:19:33 | 51.41565 | 7.82395 | 360° | 27km/h | 28160m | 4.7m/s | -48.2°C | 0% | 16.5hPa | 2.6V | 18:12:15 | 02:01:59 | 00:00:00 | |
| DM0DOS-11 | 2026-09-02 00:19:32 | 51.41550 | 7.82397 | 349° | 33km/h | 28150m | 5.6m/s | -48.1°C | 3.2% | 16.6hPa | 2.5V | 08:30:00 | 02:01:57 | 00:00:00 | |
| BIOWL1-15 | 2026-09-02 00:19:31 | 51.41550 | 7.82397 | 350° | 33km/h | 28150m | 5.6m/s | -48.1°C | 0.1% | 16.6hPa | 2.5V | 18:12:15 | 02:01:57 | 00:00:00 | |
| HSKMA3-T | 2026-09-02 00:19:26 | 51.41515 | 7.82411 | 359° | 22km/h | 28124m | 5.3m/s | -48.1°C | 0% | 16.6hPa | 2.6V | 18:12:15 | 02:01:52 | 00:00:00 | |
| BIOWL1-15 | 2026-09-02 00:19:25 | 51.41497 | 7.82408 | 352° | 15km/h | 28100m | 3.6m/s | -48°C | 0% | 16.7hPa | 2.6V | 18:12:15 | 02:01:47 | 00:00:00 | |
| AA1-15 | 2026-09-02 00:19:24 | 51.41506 | 7.82409 | 13° | 15km/h | 28114m | 5.1m/s | -48.1°C | 0% | 16.6hPa | 2.5V | 18:12:15 | 02:01:50 | 00:00:00 | |
| DL1XH1-15 | 2026-09-02 00:19:23 | 51.41500 | 7.82408 | 358° | 11km/h | 28104m | 4.1m/s | -48°C | 3.2% | 16.7hPa | 2.6V | 08:30:00 | 02:01:48 | 00:00:00 | |
| DL1XH-west | 2026-09-02 00:19:23 | 51.41503 | 7.82408 | 10° | 11km/h | 28109m | 5.8m/s | -48.1°C | 0% | 16.7hPa | 2.5V | 18:12:15 | 02:01:49 | 00:00:00 | |
| DM0DOS-11 | 2026-09-02 00:19:22 | 51.41497 | 7.82408 | 351° | 15km/h | 28100m | 3.6m/s | -48°C | 3.2% | 16.7hPa | 2.6V | 08:30:00 | 02:01:47 | 00:00:00 | |
| HSKMA3-T | 2026-09-02 00:19:15 | 51.41454 | 7.82416 | 345° | 31km/h | 28071m | 5.7m/s | -47.9°C | 0% | 16.8hPa | 2.5V | 18:12:15 | 02:01:41 | 00:00:00 | |
| DF8AY | 2026-09-02 00:19:13 | 51.41442 | 7.82425 | 326° | 22km/h | 28060m | 4.6m/s | -47.9°C | 0% | 16.8hPa | 2.5V | 18:12:15 | 02:01:39 | 00:00:00 | |
| DL1XH1-15 | 2026-09-02 00:19:13 | 51.41438 | 7.82430 | 319° | 20km/h | 28056m | 4.5m/s | -47.9°C | 3.2% | 16.8hPa | 2.5V | 08:30:00 | 02:01:38 | 00:00:00 | |
| DL1XH-west | 2026-09-02 00:19:12 | 51.41438 | 7.82430 | 320° | 20km/h | 28056m | 4.6m/s | -47.9°C | 0% | 16.8hPa | 2.5V | 18:12:15 | 02:01:38 | 00:00:00 | |
| DL1XH-15 | 2026-09-02 00:19:11 | 51.41430 | 7.82440 | 325° | 20km/h | 28045m | 5.4m/s | -47.9°C | 3.2% | 16.8hPa | 2.6V | 08:30:00 | 02:01:36 | 00:00:00 | |
| BIOWL1-15 | 2026-09-02 00:19:10 | 51.41421 | 7.82448 | 333° | 24km/h | 28035m | 4.8m/s | -47.9°C | 0% | 16.9hPa | 2.5V | 18:12:15 | 02:01:34 | 00:00:00 | |
| DD8BA-10 | 2026-09-02 00:19:10 | 51.41430 | 7.82440 | 326° | 22km/h | 28046m | 5.4m/s | -47.9°C | 3.2% | 16.8hPa | 2.5V | 00:00:00 | 00:00:00 | 00:00:00 | |
| GOEST3-10 | 2026-09-02 00:19:09 | 51.41426 | 7.82444 | 331° | 22km/h | 28040m | 4.7m/s | -47.9°C | 3.2% | 16.8hPa | 2.5V | 00:00:00 | 00:00:00 | 00:00:00 | |
| DF7PN | 2026-09-02 00:19:08 | 51.41415 | 7.82452 | 332° | 22km/h | 28031m | 4.8m/s | -48.0°C | 0.7% | 16.9hPa | 2.6V | 00:00:00 | 00:00:00 | 00:00:00 | |
| DH3RM | 2026-09-02 00:19:07 | 51.41415 | 7.82452 | 334° | 24km/h | 28031m | 4.8m/s | -48.0°C | 0.7% | 16.9hPa | 2.6V | 00:00:00 | 00:00:00 | 00:00:00 | |
| DM0DOS-11 | 2026-09-02 00:19:05 | 51.41386 | 7.82469 | 358° | 22km/h | 27999m | 4.3m/s | -47.9°C | 3.2% | 16.9hPa | 2.6V | 08:30:00 | 02:01:27 | 00:00:00 | |
| HSKMA3-T | 2026-09-02 00:19:05 | 51.41406 | 7.82461 | 331° | 20km/h | 28019m | 5.4m/s | -47.9°C | 0% | 16.9hPa | 2.6V | 18:12:15 | 02:01:31 | 00:00:00 | |
| DO3MHA-12 | 2026-09-02 00:19:05 | 51.41406 | 7.82461 | 332° | 16km/h | 28020m | 5.3m/s | -47.9°C | 3.1% | 16.9hPa | 2.5V | 00:00:00 | 02:01:31 | 00:00:00 | |
| DL1XH1-15 | 2026-09-02 00:19:03 | 51.41391 | 7.82468 | 353° | 22km/h | 28004m | 5.4m/s | -47.9°C | 3.1% | 16.9hPa | 2.5V | 08:30:00 | 02:01:28 | 00:00:00 | |
| DF8AY | 2026-09-02 00:19:03 | 51.41370 | 7.82476 | 311° | 13km/h | 27974m | 4.5m/s | -47.8°C | 0% | 17hPa | 2.6V | 18:12:15 | 02:01:22 | 00:00:00 | |
| AA1-15 | 2026-09-02 00:19:02 | 51.41391 | 7.82468 | 353° | 22km/h | 28004m | 5.4m/s | -47.9°C | 0% | 16.9hPa | 2.5V | 18:12:15 | 02:01:28 | 00:00:00 | |
| DL1XH-west | 2026-09-02 00:19:01 | 51.41386 | 7.82469 | 359° | 22km/h | 27999m | 4.3m/s | -47.9°C | 0% | 16.9hPa | 2.6V | 18:12:15 | 02:01:27 | 00:00:00 | |
| BIOWL1-15 | 2026-09-02 00:18:58 | 51.41374 | 7.82470 | 340° | 11km/h | 27983m | 5.4m/s | -47.9°C | 0% | 17hPa | 2.5V | 18:12:15 | 02:01:24 | 00:00:00 | |
| DO1YAY-16 | 2026-09-02 00:18:57 | 51.41372 | 7.82472 | 318° | 9km/h | 27979m | 4.5m/s | -47.9°C | 0.7% | 17.0hPa | 2.5V | 00:00:00 | 00:00:00 | 00:00:00 | |
| DJ8HS-15 | 2026-09-02 00:18:56 | 51.41369 | 7.82476 | 312° | 18km/h | 27974m | 4.4m/s | -47.8°C | 3.2% | 16.9hPa | 2.5V | 00:00:00 | 02:01:22 | 00:00:00 | |
| DM0DOS-11 | 2026-09-02 00:18:55 | 51.41350 | 7.82498 | 326° | 20km/h | 27949m | 5.9m/s | -47.8°C | 3.2% | 17.1hPa | 2.5V | 08:30:00 | 02:01:17 | 00:00:00 | |
| DO3MHA-12 | 2026-09-02 00:18:55 | 51.41367 | 7.82480 | 317° | 15km/h | 27969m | 5.3m/s | -47.8°C | 3.1% | 17.0hPa | 2.6V | 00:00:00 | 02:01:21 | 00:00:00 | |
| DL1XH-15 | 2026-09-02 00:18:54 | 51.41346 | 7.82503 | 320° | 16km/h | 27943m | 5.6m/s | -47.8°C | 3.2% | 17.1hPa | 2.6V | 08:30:00 | 02:01:16 | 00:00:00 | |
| DO2JMG | 2026-09-02 00:18:54 | 51.41363 | 7.82485 | 324° | 20km/h | 27964m | 5.4m/s | -47.8°C | 0% | 17hPa | 2.5V | 18:12:15 | 02:01:20 | 00:00:00 | |
| SONCRA | 2026-09-02 00:18:54 | 51.41363 | 7.82485 | 323° | 18km/h | 27964m | 5.4m/s | -47.8°C | 0.7% | 17.0hPa | 2.5V | 00:00:00 | 00:00:00 | 00:00:00 | |
| DL1XH1-15 | 2026-09-02 00:18:53 | 51.41354 | 7.82494 | 329° | 22km/h | 27954m | 4.3m/s | -47.8°C | 3.1% | 17.1hPa | 2.5V | 08:30:00 | 02:01:18 | 00:00:00 | |
| AA1-15 | 2026-09-02 00:18:52 | 51.41354 | 7.82494 | 329° | 22km/h | 27954m | 4.3m/s | -47.8°C | 0% | 17.1hPa | 2.5V | 18:12:15 | 02:01:18 | 00:00:00 | |
| DL1XH-west | 2026-09-02 00:18:50 | 51.41346 | 7.82503 | 321° | 16km/h | 27943m | 5.6m/s | -47.8°C | 0% | 17.1hPa | 2.6V | 18:12:15 | 02:01:16 | 00:00:00 | |
| BIOWL1-15 | 2026-09-02 00:18:50 | 51.41334 | 7.82518 | 314° | 11km/h | 27918m | 3.8m/s | -47.8°C | 0% | 17.1hPa | 2.5V | 18:12:15 | 02:01:11 | 00:00:00 | |
| DL8DAS-14 | 2026-09-02 00:18:49 | 51.41343 | 7.82506 | 317° | 13km/h | 27939m | 4.9m/s | -47.9°C | 0.8% | 17.1hPa | 2.5V | 00:00:00 | 00:00:00 | 00:00:00 | |
| DL3AQ-11 | 2026-09-02 00:18:48 | 51.41339 | 7.82512 | 326° | 11km/h | 27928m | 5.7m/s | -47.8°C | 0.7% | 17.1hPa | 2.5V | 00:00:00 | 00:00:00 | 00:00:00 | |
| DO3DL | 2026-09-02 00:18:47 | 51.41339 | 7.82512 | 327° | 11km/h | 27928m | 5.7m/s | -47.8°C | 0.7% | 17.1hPa | 2.5V | 00:00:00 | 00:00:00 | 00:00:00 | |
| DM0DOS-11 | 2026-09-02 00:18:45 | 51.41331 | 7.82540 | 276° | 20km/h | 27898m | 4.8m/s | -47.7°C | 3.1% | 17.2hPa | 2.5V | 08:30:00 | 02:01:07 | 00:00:00 | |
| DF8AY | 2026-09-02 00:18:44 | 51.41333 | 7.82522 | 294° | 11km/h | 27914m | 4.9m/s | -47.8°C | 0% | 17.2hPa | 2.6V | 18:12:15 | 02:01:10 | 00:00:00 | |
| DL1XH-15 | 2026-09-02 00:18:44 | 51.41330 | 7.82548 | 286° | 22km/h | 27893m | 5m/s | -47.7°C | 3.1% | 17.2hPa | 2.5V | 08:30:00 | 02:01:06 | 00:00:00 | |
| HSKMA3-T | 2026-09-02 00:18:43 | 51.41332 | 7.82527 | 279° | 13km/h | 27909m | 5.9m/s | -47.7°C | 0% | 17.2hPa | 2.6V | 18:12:15 | 02:01:09 | 00:00:00 | |
| DL1XH1-15 | 2026-09-02 00:18:43 | 51.41331 | 7.82533 | 272° | 16km/h | 27903m | 5.5m/s | -47.7°C | 3.1% | 17.2hPa | 2.6V | 08:30:00 | 02:01:08 | 00:00:00 | |
| DO2SHX-10 | 2026-09-02 00:18:43 | 51.41332 | 7.82527 | 280° | 16km/h | 27909m | 5.9m/s | -47.7°C | 3.1% | 17.1hPa | 2.6V | 00:00:00 | 02:01:09 | 00:00:00 | |
| DL1NUX | 2026-09-02 00:18:42 | 51.41320 | 7.82573 | 310° | 26km/h | 27877m | 4.3m/s | -47.7°C | 3.1% | 17.2hPa | 2.6V | 08:30:00 | 02:01:03 | 00:00:00 | |
| AA1-15 | 2026-09-02 00:18:42 | 51.41331 | 7.82533 | 272° | 16km/h | 27903m | 5.5m/s | -47.7°C | 0% | 17.2hPa | 2.6V | 18:12:15 | 02:01:08 | 00:00:00 | |
| DL1XH-west | 2026-09-02 00:18:39 | 51.41328 | 7.82557 | 299° | 24km/h | 27887m | 6.2m/s | -47.7°C | 0% | 17.2hPa | 2.5V | 18:12:15 | 02:01:05 | 00:00:00 | |
| DO3MHA-12 | 2026-09-02 00:18:39 | 51.41328 | 7.82557 | 299° | 13km/h | 27888m | 6.1m/s | -47.6°C | 3.1% | 17.2hPa | 2.5V | 00:00:00 | 02:01:05 | 00:00:00 | |
| GOEST3-10 | 2026-09-02 00:18:38 | 51.41324 | 7.82565 | 308° | 22km/h | 27882m | 4.8m/s | -47.7°C | 3.1% | 17.2hPa | 2.5V | 00:00:00 | 00:00:00 | 08:30:00 | |
| DL1XH1-15 | 2026-09-02 00:18:37 | 51.41308 | 7.82600 | 324° | 7km/h | 27851m | 6m/s | -47.8°C | 3% | 17.3hPa | 2.6V | 08:30:00 | 02:00:58 | 00:00:00 | |
| BIOWL1-15 | 2026-09-02 00:18:36 | 51.41306 | 7.82602 | 276° | 4km/h | 27841m | 4.9m/s | -47.8°C | 0% | 17.3hPa | 2.5V | 18:12:15 | 02:00:56 | 00:00:00 | |
| DM0DOS-11 | 2026-09-02 00:18:35 | 51.41307 | 7.82601 | 325° | 4km/h | 27845m | 4.8m/s | -47.8°C | 3.1% | 17.3hPa | 2.6V | 08:30:00 | 02:00:57 | 00:00:00 | |
| DO2JMG | 2026-09-02 00:18:34 | 51.41311 | 7.82594 | 302° | 15km/h | 27862m | 4.7m/s | -47.8°C | 0% | 17.3hPa | 2.5V | 18:12:15 | 02:01:00 | 00:00:00 | |
| DL1XH-15 | 2026-09-02 00:18:34 | 51.41306 | 7.82602 | 276° | 4km/h | 27840m | 4.9m/s | -47.8°C | 3.1% | 17.3hPa | 2.5V | 08:30:00 | 02:00:56 | 00:00:00 | |
| DF8AY | 2026-09-02 00:18:33 | 51.41309 | 7.82597 | 309° | 11km/h | 27857m | 5.9m/s | -47.8°C | 0% | 17.3hPa | 2.5V | 18:12:15 | 02:00:59 | 00:00:00 | |
| DL1NUX | 2026-09-02 00:18:33 | 51.41307 | 7.82613 | 267° | 16km/h | 27825m | 4.2m/s | -47.9°C | 3.1% | 17.4hPa | 2.6V | 08:30:00 | 02:00:53 | 00:00:00 | |
| HSKMA3-T | 2026-09-02 00:18:32 | 51.41308 | 7.82600 | 324° | 7km/h | 27851m | 6m/s | -47.8°C | 0% | 17.3hPa | 2.6V | 18:12:15 | 02:00:58 | 00:00:00 | |
| AA1-15 | 2026-09-02 00:18:32 | 51.41307 | 7.82601 | 325° | 4km/h | 27846m | 4.8m/s | -47.8°C | 0% | 17.4hPa | 2.6V | 18:12:15 | 02:00:57 | 00:00:00 | |
| DL1XH-west | 2026-09-02 00:18:29 | 51.41306 | 7.82604 | 253° | 7km/h | 27835m | 6.2m/s | -47.8°C | 0% | 17.4hPa | 2.5V | 18:12:15 | 02:00:55 | 00:00:00 | |
| DO2SHX-10 | 2026-09-02 00:18:29 | 51.41306 | 7.82604 | 254° | 11km/h | 27836m | 6.1m/s | -47.8°C | 3.1% | 17.3hPa | 2.5V | 00:00:00 | 02:00:55 | 00:00:00 | |
| GOEST3-10 | 2026-09-02 00:18:28 | 51.41307 | 7.82608 | 256° | 18km/h | 27830m | 4.9m/s | -47.8°C | 3.1% | 17.3hPa | 2.6V | 00:00:00 | 00:00:00 | 00:00:00 | |
| DO3MHA-12 | 2026-09-02 00:18:27 | 51.41308 | 7.82613 | 268° | 16km/h | 27825m | 4.1m/s | -47.8°C | 3.1% | 17.3hPa | 2.6V | 00:00:00 | 02:00:53 | 00:00:00 | |
| DO2SHX-10 | 2026-09-02 00:18:26 | 51.41307 | 7.82620 | 283° | 20km/h | 27821m | 5.0m/s | -47.9°C | 3.1% | 17.4hPa | 2.6V | 00:00:00 | 02:00:52 | 00:00:00 | |
| DL1XH-15 | 2026-09-02 00:18:24 | 51.41286 | 7.82658 | 309° | 13km/h | 27788m | 4.8m/s | -48.1°C | 3.2% | 17.5hPa | 2.6V | 08:30:00 | 02:00:46 | 00:00:00 | |
| DO3MHA-11 | 2026-09-02 00:18:24 | 51.41302 | 7.82635 | 314° | 13km/h | 27809m | 5.3m/s | -48.0°C | 3.1% | 17.4hPa | 2.5V | 00:00:00 | 02:00:50 | 00:00:00 | |
| GOEST3-10 | 2026-09-02 00:18:23 | 51.41297 | 7.82642 | 320° | 18km/h | 27804m | 4.7m/s | -48.0°C | 3.1% | 17.4hPa | 2.5V | 00:00:00 | 02:00:49 | 00:00:00 | |
| DL1NUX | 2026-09-02 00:18:22 | 51.41284 | 7.82664 | 190° | 2km/h | 27772m | 5.9m/s | -48.2°C | 3.2% | 17.5hPa | 2.5V | 08:30:00 | 02:00:43 | 00:00:00 | |
| DM0DOS-11 | 2026-09-02 00:18:22 | 51.41289 | 7.82654 | 316° | 18km/h | 27793m | 5.7m/s | -48.1°C | 3.2% | 17.4hPa | 2.6V | 08:30:00 | 02:00:47 | 00:00:00 | |
| HSKMA3-T | 2026-09-02 00:18:21 | 51.41289 | 7.82653 | 317° | 18km/h | 27793m | 5.7m/s | -48.1°C | 0% | 17.5hPa | 2.6V | 18:12:15 | 02:00:47 | 00:00:00 | |
| DF8AY | 2026-09-02 00:18:20 | 51.41286 | 7.82658 | 309° | 13km/h | 27788m | 4.8m/s | -48.2°C | 0% | 17.5hPa | 2.6V | 18:12:15 | 02:00:46 | 00:00:00 | |
| DL1XH-west | 2026-09-02 00:18:18 | 51.41284 | 7.82663 | 281° | 4km/h | 27778m | 6m/s | -48.2°C | 0% | 17.5hPa | 2.5V | 18:12:15 | 02:00:44 | 00:00:00 | |
| DO2SHX-10 | 2026-09-02 00:18:18 | 51.41284 | 7.82663 | 282° | 2km/h | 27778m | 6.0m/s | -48.1°C | 3.2% | 17.5hPa | 2.5V | 00:00:00 | 02:00:44 | 00:00:00 | |
| DL1XH1-15 | 2026-09-02 00:18:17 | 51.41291 | 7.82672 | 251° | 13km/h | 27745m | 4.6m/s | -48.3°C | 3.2% | 17.6hPa | 2.5V | 08:30:00 | 02:00:38 | 00:00:00 | |
| DJ8HS-15 | 2026-09-02 00:18:16 | 51.41285 | 7.82664 | 178° | 9km/h | 27767m | 4.8m/s | -48.2°C | 3.2% | 17.5hPa | 2.5V | 00:00:00 | 02:00:42 | 00:00:00 | |
| DJ2KF-10 | 2026-09-02 00:18:15 | 51.41286 | 7.82664 | 197° | 9km/h | 27762m | 4.6m/s | -48.2°C | 3.2% | 17.5hPa | 2.5V | 00:00:00 | 02:00:41 | 00:00:00 | |
| DO3MHA-11 | 2026-09-02 00:18:14 | 51.41288 | 7.82665 | 211° | 13km/h | 27757m | 6.4m/s | -48.2°C | 3.2% | 17.5hPa | 2.5V | 00:00:00 | 02:00:40 | 00:00:00 | |
| GOEST3-10 | 2026-09-02 00:18:13 | 51.41290 | 7.82668 | 229° | 15km/h | 27751m | 5.5m/s | -48.2°C | 3.2% | 17.6hPa | 2.5V | 00:00:00 | 02:00:39 | 00:00:00 | |
| DL1NUX | 2026-09-02 00:18:11 | 51.41280 | 7.82695 | 327° | 15km/h | 27719m | 5.5m/s | -48.4°C | 3.2% | 17.7hPa | 2.5V | 08:30:00 | 02:00:33 | 00:00:00 | |
| AA1-15 | 2026-09-02 00:18:10 | 51.41290 | 7.82683 | 305° | 16km/h | 27734m | 5.8m/s | -48.3°C | 0% | 17.6hPa | 2.6V | 18:12:15 | 02:00:36 | 00:00:00 | |
| BIOWL1-15 | 2026-09-02 00:18:10 | 51.41280 | 7.82695 | 120° | 5km/h | 27686m | 5m/s | -48.5°C | 0% | 17.8hPa | 2.5V | 18:12:15 | 02:00:27 | 00:00:00 | |
| DL1XH-west | 2026-09-02 00:18:07 | 51.41280 | 7.82695 | 328° | 15km/h | 27719m | 5.5m/s | -48.4°C | 0% | 17.7hPa | 2.5V | 18:12:15 | 02:00:33 | 00:00:00 | |
| BIOWL1-15 | 2026-09-02 00:18:05 | 51.41281 | 7.82693 | 136° | 5km/h | 27681m | 4.6m/s | -48.5°C | 0% | 17.8hPa | 2.6V | 18:12:15 | 02:00:26 | 00:00:00 | |
| DL1XH1-15 | 2026-09-02 00:18:03 | 51.41279 | 7.82697 | 127° | 5km/h | 27692m | 6.2m/s | -48.4°C | 3.2% | 17.7hPa | 2.5V | 08:30:00 | 02:00:28 | 00:00:00 | |
| GOEST3-10 | 2026-09-02 00:18:03 | 51.41278 | 7.82699 | 142° | 5km/h | 27698m | 5.7m/s | -48.3°C | 3.1% | 17.7hPa | 2.5V | 00:00:00 | 02:00:29 | 00:00:00 | |
| DL1NUX | 2026-09-02 00:18:02 | 51.41285 | 7.82692 | 205° | 7km/h | 27665m | 4.8m/s | -48.6°C | 3.3% | 17.8hPa | 2.5V | 08:30:00 | 02:00:23 | 00:00:00 | |
| HSKMA3-T | 2026-09-02 00:17:59 | 51.41282 | 7.82692 | 160° | 5km/h | 27676m | 6m/s | -48.6°C | 0.1% | 17.8hPa | 2.6V | 18:12:15 | 02:00:25 | 00:00:00 | |
| DL1XH-west | 2026-09-02 00:17:56 | 51.41286 | 7.82693 | 231° | 4km/h | 27660m | 4.9m/s | -48.7°C | 0% | 17.9hPa | 2.5V | 18:12:15 | 02:00:22 | 00:00:00 | |
| DO2JMG | 2026-09-02 00:17:55 | 51.41286 | 7.82695 | 310° | 4km/h | 27654m | 6m/s | -48.7°C | 0% | 17.9hPa | 2.6V | 18:12:15 | 02:00:21 | 00:00:00 | |
| DM0DOS-11 | 2026-09-02 00:17:55 | 51.41278 | 7.82691 | 35° | 11km/h | 27632m | 6.1m/s | -48.7°C | 3.3% | 17.9hPa | 2.5V | 08:30:00 | 02:00:17 | 00:00:00 | |
| DF8AY | 2026-09-02 00:17:54 | 51.41285 | 7.82695 | 355° | 7km/h | 27648m | 6.3m/s | -48.7°C | 0.1% | 17.9hPa | 2.6V | 18:12:15 | 02:00:20 | 00:00:00 | |
| DO3MHA-11 | 2026-09-02 00:17:54 | 51.41285 | 7.82695 | 356° | 5km/h | 27648m | 6.3m/s | -48.7°C | 3.3% | 17.8hPa | 2.6V | 00:00:00 | 02:00:20 | 08:30:00 | |
| GOEST3-10 | 2026-09-02 00:17:53 | 51.41283 | 7.82695 | 13° | 9km/h | 27643m | 5.2m/s | -48.7°C | 3.3% | 17.8hPa | 2.5V | 00:00:00 | 02:00:19 | 08:30:00 | |
| DL1NUX | 2026-09-02 00:17:52 | 51.41277 | 7.82683 | 105° | 5km/h | 27611m | 5.6m/s | -48.7°C | 3.3% | 18hPa | 2.5V | 08:30:00 | 02:00:13 | 00:00:00 | |
| BIOWL1-15 | 2026-09-02 00:17:50 | 51.41276 | 7.82689 | 59° | 7km/h | 27626m | 5.7m/s | -48.7°C | 0.1% | 17.9hPa | 2.5V | 18:12:15 | 02:00:16 | 00:00:00 | |
| HSKMA3-T | 2026-09-02 00:17:50 | 51.41276 | 7.82686 | 96° | 5km/h | 27621m | 4.7m/s | -48.7°C | 0% | 18hPa | 2.6V | 18:12:15 | 02:00:15 | 00:00:00 | |
| DL1XH-west | 2026-09-02 00:17:46 | 51.41276 | 7.82681 | 77° | 5km/h | 27606m | 5.7m/s | -48.7°C | 0.1% | 18hPa | 2.5V | 18:12:15 | 02:00:12 | 00:00:00 | |
| DO2JMG | 2026-09-02 00:17:45 | 51.41276 | 7.82679 | 50° | 5km/h | 27600m | 5.4m/s | -48.7°C | 0.1% | 18hPa | 2.5V | 18:12:15 | 02:00:11 | 00:00:00 | |
| DF8AY | 2026-09-02 00:17:45 | 51.41275 | 7.82677 | 36° | 5km/h | 27595m | 5m/s | -48.7°C | 0.1% | 18hPa | 2.6V | 18:12:15 | 02:00:10 | 00:00:00 | |
| DO2SHX-10 | 2026-09-02 00:17:45 | 51.41276 | 7.82679 | 50° | 5km/h | 27601m | 5.3m/s | -48.7°C | 3.3% | 18.0hPa | 2.5V | 00:00:00 | 02:00:11 | 00:00:00 | |
| DL1XH-15 | 2026-09-02 00:17:45 | 51.41270 | 7.82675 | 0° | 9km/h | 27573m | 5.1m/s | -48.8°C | 3.3% | 18.1hPa | 2.5V | 08:30:00 | 02:00:06 | 00:00:00 | |
| DM0DOS-11 | 2026-09-02 00:17:44 | 51.41272 | 7.82675 | 356° | 5km/h | 27578m | 5.1m/s | -48.7°C | 3.3% | 18.1hPa | 2.5V | 08:30:00 | 02:00:07 | 00:00:00 | |
| BIOWL1-15 | 2026-09-02 00:17:41 | 51.41259 | 7.82673 | 11° | 16km/h | 27556m | 4.8m/s | -48.8°C | 0.1% | 18.1hPa | 2.5V | 18:12:15 | 02:00:03 | 00:00:00 | |
| AA1-15 | 2026-09-02 00:17:38 | 51.41263 | 7.82674 | 10° | 16km/h | 27561m | 5.4m/s | -48.8°C | 0.1% | 18.1hPa | 2.6V | 18:12:15 | 02:00:04 | 00:00:00 | |
| DL1XH-west | 2026-09-02 00:17:35 | 51.41252 | 7.82671 | 10° | 9km/h | 27545m | 6m/s | -48.8°C | 0.1% | 18.1hPa | 2.5V | 18:12:15 | 02:00:01 | 00:00:00 | |
| DO2JMG | 2026-09-02 00:17:35 | 51.41250 | 7.82670 | 7° | 5km/h | 27539m | 5.1m/s | -48.8°C | 0.1% | 18.2hPa | 2.5V | 18:12:15 | 02:00:00 | 00:00:00 | |
| DF8AY | 2026-09-02 00:17:33 | 51.41249 | 7.82670 | 2° | 4km/h | 27534m | 5m/s | -48.8°C | 0.1% | 18.2hPa | 2.6V | 18:12:15 | 01:59:59 | 00:00:00 | |
| HSKMA3-T | 2026-09-02 00:17:27 | 51.41243 | 7.82678 | 286° | 9km/h | 27501m | 5.5m/s | -48.8°C | 0.1% | 18.3hPa | 2.6V | 18:12:15 | 01:59:53 | 00:00:00 | |
| DL1XH-west | 2026-09-02 00:17:24 | 51.41237 | 7.82688 | 333° | 16km/h | 27483m | 5.7m/s | -48.8°C | 0% | 18.3hPa | 2.5V | 18:12:15 | 01:59:50 | 00:00:00 | |
| DL1XH1-15 | 2026-09-02 00:17:23 | 51.41229 | 7.82693 | 341° | 15km/h | 27473m | 5.5m/s | -48.8°C | 3.3% | 18.4hPa | 2.6V | 08:30:00 | 01:59:48 | 00:00:00 | |
| DF8AY | 2026-09-02 00:17:22 | 51.41229 | 7.82693 | 341° | 15km/h | 27473m | 5.5m/s | -48.8°C | 0.1% | 18.4hPa | 2.6V | 18:12:15 | 01:59:48 | 00:00:00 | |
| DL1NUX | 2026-09-02 00:17:22 | 51.41219 | 7.82699 | 339° | 5km/h | 27444m | 5.5m/s | -48.7°C | 3.3% | 18.4hPa | 2.6V | 08:30:00 | 01:59:43 | 00:00:00 | |
| AA1-15 | 2026-09-02 00:17:17 | 51.41218 | 7.82700 | 312° | 5km/h | 27439m | 4.3m/s | -48.7°C | 0.1% | 18.5hPa | 2.6V | 18:12:15 | 01:59:42 | 00:00:00 | |
| HSKMA3-T | 2026-09-02 00:17:17 | 51.41219 | 7.82699 | 340° | 5km/h | 27444m | 5.5m/s | -48.8°C | 0.1% | 18.4hPa | 2.6V | 18:12:15 | 01:59:43 | 00:00:00 | |
| BIOWL1-15 | 2026-09-02 00:17:17 | 51.41218 | 7.82703 | 279° | 7km/h | 27434m | 4.9m/s | -48.7°C | 0% | 18.5hPa | 2.5V | 18:12:15 | 01:59:41 | 00:00:00 | |
| DL1XH-west | 2026-09-02 00:17:14 | 51.41218 | 7.82706 | 259° | 9km/h | 27429m | 6.9m/s | -48.7°C | 0.1% | 18.5hPa | 2.5V | 18:12:15 | 01:59:40 | 00:00:00 | |
| DO2JMG | 2026-09-02 00:17:14 | 51.41219 | 7.82710 | 250° | 15km/h | 27422m | 6.4m/s | -48.7°C | 0.1% | 18.5hPa | 2.5V | 18:12:15 | 01:59:39 | 00:00:00 | |
| DL1XH1-15 | 2026-09-02 00:17:13 | 51.41220 | 7.82716 | 252° | 16km/h | 27416m | 5.6m/s | -48.6°C | 3.2% | 18.5hPa | 2.6V | 08:30:00 | 01:59:38 | 00:00:00 | |
| DF8AY | 2026-09-02 00:17:12 | 51.41220 | 7.82716 | 253° | 16km/h | 27416m | 5.6m/s | -48.7°C | 0% | 18.5hPa | 2.6V | 18:12:15 | 01:59:38 | 00:00:00 | |
| DL1NUX | 2026-09-02 00:17:12 | 51.41218 | 7.82738 | 303° | 7km/h | 27388m | 6.3m/s | -48.7°C | 3.2% | 18.6hPa | 2.6V | 08:30:00 | 01:59:33 | 00:00:00 | |
| AA1-15 | 2026-09-02 00:17:06 | 51.41217 | 7.82742 | 278° | 4km/h | 27377m | 4.8m/s | -48.7°C | 0% | 18.6hPa | 2.5V | 18:12:15 | 01:59:31 | 00:00:00 | |
| HSKMA3-T | 2026-09-02 00:17:06 | 51.41217 | 7.82740 | 288° | 5km/h | 27382m | 5.8m/s | -48.7°C | 0% | 18.6hPa | 2.6V | 18:12:15 | 01:59:32 | 00:00:00 | |
| BIOWL1-15 | 2026-09-02 00:17:06 | 51.41198 | 7.82793 | 302° | 11km/h | 27288m | 5.6m/s | -49.3°C | 0.2% | 18.9hPa | 2.5V | 18:12:15 | 01:59:15 | 00:00:00 | |
| DM0DOS-11 | 2026-09-02 00:17:05 | 51.41213 | 7.82748 | 336° | 9km/h | 27355m | 5.2m/s | -48.8°C | 3.3% | 18.7hPa | 2.6V | 08:30:00 | 01:59:27 | 00:00:00 | |
| DL1XH-west | 2026-09-02 00:17:04 | 51.41216 | 7.82745 | 313° | 5km/h | 27367m | 5.5m/s | -48.7°C | 0% | 18.7hPa | 2.5V | 18:12:15 | 01:59:29 | 00:00:00 | |
| DL1XH1-15 | 2026-09-02 00:17:03 | 51.41215 | 7.82746 | 333° | 7km/h | 27361m | 6.2m/s | -48.8°C | 3.2% | 18.7hPa | 2.5V | 08:30:00 | 01:59:28 | 00:00:00 | |
| DD1CC3-15 | 2026-09-02 00:17:03 | 51.41216 | 7.82745 | 314° | 5km/h | 27367m | 5.5m/s | -48.7°C | 0.8% | 18.7hPa | 2.5V | 00:00:00 | 00:00:00 | 00:00:00 | |
| DL1NUX | 2026-09-02 00:17:02 | 51.41209 | 7.82758 | 274° | 9km/h | 27333m | 5.1m/s | -49°C | 3.3% | 18.8hPa | 2.5V | 08:30:00 | 01:59:23 | 00:00:00 | |
| DF8AY | 2026-09-02 00:17:01 | 51.41213 | 7.82748 | 336° | 9km/h | 27355m | 5.3m/s | -48.8°C | 0.1% | 18.7hPa | 2.6V | 18:12:15 | 01:59:27 | 00:00:00 | |
| DO2SHX-10 | 2026-09-02 00:17:01 | 51.41213 | 7.82748 | 337° | 9km/h | 27356m | 5.2m/s | -48.8°C | 3.3% | 18.7hPa | 2.6V | 00:00:00 | 01:59:27 | 00:00:00 | |
| DD8BA-10 | 2026-09-02 00:17:00 | 51.41211 | 7.82749 | 327° | 11km/h | 27351m | 4.9m/s | -48.8°C | 3.3% | 18.7hPa | 2.6V | 00:00:00 | 00:00:00 | 00:00:00 | |
| DO2KSM | 2026-09-02 00:16:59 | 51.41210 | 7.82751 | 306° | 7km/h | 27345m | 6.4m/s | -48.9°C | 0.8% | 18.7hPa | 2.5V | 00:00:00 | 00:00:00 | 00:00:00 | |
| DO2SHX-10 | 2026-09-02 00:16:58 | 51.41209 | 7.82754 | 283° | 13km/h | 27339m | 5.9m/s | -48.9°C | 3.3% | 18.7hPa | 2.5V | 00:00:00 | 01:59:24 | 00:00:00 | |
| DO3MHA-12 | 2026-09-02 00:16:57 | 51.41208 | 7.82758 | 275° | 13km/h | 27334m | 5.0m/s | -48.9°C | 3.3% | 18.7hPa | 2.6V | 00:00:00 | 01:59:23 | 00:00:00 | |
| DM0DOS-11 | 2026-09-02 00:16:56 | 51.41200 | 7.82785 | 290° | 13km/h | 27299m | 6m/s | -49.3°C | 3.5% | 18.9hPa | 2.6V | 08:30:00 | 01:59:17 | 00:00:00 | |
| HSKMA3-T | 2026-09-02 00:16:56 | 51.41208 | 7.82762 | 284° | 11km/h | 27328m | 5.9m/s | -49°C | 0.1% | 18.8hPa | 2.6V | 18:12:15 | 01:59:22 | 00:00:00 | |
| AA1-15 | 2026-09-02 00:16:55 | 51.41207 | 7.82766 | 297° | 13km/h | 27322m | 6.2m/s | -49.1°C | 0.1% | 18.8hPa | 2.6V | 18:12:15 | 01:59:21 | 00:00:00 | |
| DL1XH1-15 | 2026-09-02 00:16:54 | 51.41202 | 7.82780 | 298° | 13km/h | 27305m | 6.2m/s | -49.2°C | 3.4% | 18.9hPa | 2.5V | 08:30:00 | 01:59:18 | 00:00:00 | |
| DL1XH-west | 2026-09-02 00:16:53 | 51.41203 | 7.82775 | 305° | 15km/h | 27311m | 5m/s | -49.2°C | 0.2% | 18.8hPa | 2.5V | 18:12:15 | 01:59:19 | 00:00:00 | |
| DF8AY | 2026-09-02 00:16:50 | 51.41199 | 7.82789 | 290° | 11km/h | 27294m | 5.2m/s | -49.4°C | 0.1% | 18.9hPa | 2.6V | 18:12:15 | 01:59:16 | 00:00:00 | |
| SONCRA | 2026-09-02 00:16:50 | 51.41198 | 7.82793 | 302° | 11km/h | 27288m | 5.6m/s | -49.3°C | 0.8% | 18.9hPa | 2.5V | 00:00:00 | 00:00:00 | 00:00:00 | |
| BIOWL9-15 | 2026-09-02 00:16:49 | 51.41196 | 7.82797 | 314° | 13km/h | 27282m | 6.4m/s | -49.3°C | 0.8% | 18.9hPa | 2.5V | 00:00:00 | 00:00:00 | 00:00:00 | |
| HTAHTA | 2026-09-02 00:16:48 | 51.41196 | 7.82797 | 314° | 13km/h | 27282m | 6.4m/s | -49.3°C | 0.8% | 18.9hPa | 2.5V | 00:00:00 | 00:00:00 | 00:00:00 | |
| SONDE2-11 | 2026-09-02 00:16:47 | 51.41193 | 7.82802 | 319° | 16km/h | 27276m | 5.4m/s | -49.3°C | 0.8% | 18.9hPa | 2.5V | 00:00:00 | 00:00:00 | 00:00:00 | |
| BIOWL1-15 | 2026-09-02 00:16:46 | 51.41177 | 7.82845 | 281° | 20km/h | 27244m | 5.1m/s | -49.1°C | 0.2% | 19hPa | 2.5V | 18:12:15 | 01:59:07 | 00:00:00 | |
| DM0DOS-11 | 2026-09-02 00:16:45 | 51.41177 | 7.82845 | 280° | 20km/h | 27244m | 5.1m/s | -49.1°C | 3.4% | 19hPa | 2.5V | 08:30:00 | 01:59:07 | 00:00:00 | |
| HSKMA3-T | 2026-09-02 00:16:45 | 51.41185 | 7.82813 | 310° | 22km/h | 27267m | 5.4m/s | -49.2°C | 0.2% | 19hPa | 2.6V | 18:12:15 | 01:59:11 | 00:00:00 | |
| AA1-15 | 2026-09-02 00:16:44 | 51.41182 | 7.82821 | 301° | 22km/h | 27261m | 6.1m/s | -49.2°C | 0.2% | 19hPa | 2.6V | 18:12:15 | 01:59:10 | 00:00:00 | |
| DL1XH-15 | 2026-09-02 00:16:44 | 51.41176 | 7.82853 | 284° | 16km/h | 27238m | 6.3m/s | -49.1°C | 3.4% | 19hPa | 2.6V | 08:30:00 | 01:59:06 | 00:00:00 | |
| DL1XH-west | 2026-09-02 00:16:43 | 51.41180 | 7.82829 | 290° | 22km/h | 27255m | 5.8m/s | -49.2°C | 0.1% | 19hPa | 2.5V | 18:12:15 | 01:59:09 | 00:00:00 | |
| DO2JMG | 2026-09-02 00:16:41 | 51.41176 | 7.82853 | 284° | 16km/h | 27238m | 6.3m/s | -49.1°C | 0.2% | 19hPa | 2.6V | 18:12:15 | 01:59:06 | 00:00:00 | |
| DF8AY | 2026-09-02 00:16:38 | 51.41174 | 7.82863 | 284° | 9km/h | 27227m | 4.9m/s | -49°C | 0.2% | 19.1hPa | 2.5V | 18:12:15 | 01:59:04 | 00:00:00 | |
| HSKMA3-T | 2026-09-02 00:16:35 | 51.41175 | 7.82874 | 243° | 11km/h | 27210m | 5.4m/s | -48.9°C | 0.1% | 19.1hPa | 2.6V | 18:12:15 | 01:59:01 | 00:00:00 | |
| DO2SHX-10 | 2026-09-02 00:16:35 | 51.41175 | 7.82874 | 243° | 11km/h | 27210m | 5.4m/s | -48.8°C | 3.4% | 19.1hPa | 2.6V | 00:00:00 | 01:59:01 | 08:30:00 | |
| DM0DOS-11 | 2026-09-02 00:16:34 | 51.41175 | 7.82898 | 284° | 22km/h | 27188m | 5.2m/s | -48.8°C | 3.3% | 19.2hPa | 2.5V | 08:30:00 | 01:58:57 | 00:00:00 | |
| DL1XH-15 | 2026-09-02 00:16:34 | 51.41174 | 7.82907 | 280° | 26km/h | 27182m | 6.1m/s | -48.8°C | 3.3% | 19.2hPa | 2.5V | 08:30:00 | 01:58:56 | 00:00:00 | |
| AA1-15 | 2026-09-02 00:16:34 | 51.41177 | 7.82884 | 268° | 15km/h | 27199m | 6.3m/s | -48.8°C | 0.1% | 19.2hPa | 2.5V | 18:12:15 | 01:58:59 | 00:00:00 | |
| BIOWL1-15 | 2026-09-02 00:16:34 | 51.41176 | 7.82898 | 285° | 22km/h | 27188m | 5.2m/s | -48.8°C | 0.1% | 19.2hPa | 2.5V | 18:12:15 | 01:58:57 | 00:00:00 | |
| DL1XH-west | 2026-09-02 00:16:32 | 51.41177 | 7.82890 | 281° | 18km/h | 27193m | 5.6m/s | -48.8°C | 0.1% | 19.2hPa | 2.5V | 18:12:15 | 01:58:58 | 00:00:00 | |
| DF8AY | 2026-09-02 00:16:27 | 51.41173 | 7.82938 | 267° | 22km/h | 27165m | 4.8m/s | -48.7°C | 0.1% | 19.2hPa | 2.5V | 18:12:15 | 01:58:53 | 00:00:00 | |
| DO2SHX-10 | 2026-09-02 00:16:26 | 51.41173 | 7.82945 | 271° | 13km/h | 27160m | 6.3m/s | -48.6°C | 3.3% | 19.2hPa | 2.5V | 00:00:00 | 01:58:52 | 00:00:00 | |
| DO3MHA-12 | 2026-09-02 00:16:25 | 51.41173 | 7.82951 | 277° | 11km/h | 27154m | 5.8m/s | -48.5°C | 3.3% | 19.2hPa | 2.5V | 00:00:00 | 01:58:51 | 00:00:00 | |
| DM0DOS-11 | 2026-09-02 00:16:24 | 51.41176 | 7.82961 | 199° | 11km/h | 27132m | 6.2m/s | -48.5°C | 3.3% | 19.4hPa | 2.5V | 08:30:00 | 01:58:47 | 00:00:00 | |
| DL1XH-15 | 2026-09-02 00:16:24 | 51.41179 | 7.82963 | 200° | 15km/h | 27126m | 5.8m/s | -48.4°C | 3.2% | 19.4hPa | 2.5V | 08:30:00 | 01:58:46 | 00:00:00 | |
| HSKMA3-T | 2026-09-02 00:16:24 | 51.41173 | 7.82956 | 278° | 7km/h | 27148m | 4.7m/s | -48.5°C | 0.1% | 19.3hPa | 2.6V | 18:12:15 | 01:58:50 | 00:00:00 | |
| DO2JMG | 2026-09-02 00:16:23 | 51.41173 | 7.82958 | 252° | 5km/h | 27144m | 4.6m/s | -48.5°C | 0.1% | 19.3hPa | 2.6V | 18:12:15 | 01:58:49 | 00:00:00 | |
| GOEST3-10 | 2026-09-02 00:16:23 | 51.41173 | 7.82958 | 252° | 11km/h | 27144m | 4.6m/s | -48.5°C | 3.3% | 19.3hPa | 2.6V | 00:00:00 | 01:58:49 | 08:30:00 | |
| DL1NUX | 2026-09-02 00:16:22 | 51.41188 | 7.82972 | 235° | 13km/h | 27109m | 5.8m/s | -48.3°C | 3.2% | 19.4hPa | 2.5V | 08:30:00 | 01:58:43 | 00:00:00 | |
| AA1-15 | 2026-09-02 00:16:22 | 51.41174 | 7.82960 | 214° | 5km/h | 27138m | 6m/s | -48.5°C | 0% | 19.3hPa | 2.5V | 18:12:15 | 01:58:48 | 00:00:00 | |
| DL1XH-west | 2026-09-02 00:16:21 | 51.41176 | 7.82961 | 200° | 11km/h | 27132m | 6.3m/s | -48.5°C | 0.1% | 19.4hPa | 2.5V | 18:12:15 | 01:58:47 | 00:00:00 | |
| DF8AY | 2026-09-02 00:16:17 | 51.41188 | 7.82972 | 235° | 13km/h | 27109m | 5.8m/s | -48.3°C | 0% | 19.4hPa | 2.5V | 18:12:15 | 01:58:43 | 00:00:00 | |
| DO2SHX-10 | 2026-09-02 00:16:17 | 51.41188 | 7.82972 | 236° | 15km/h | 27110m | 5.8m/s | -48.3°C | 3.2% | 19.4hPa | 2.5V | 00:00:00 | 01:58:43 | 00:00:00 | |
| DL4XJ-10 | 2026-09-02 00:16:16 | 51.41189 | 7.82977 | 252° | 16km/h | 27104m | 5.1m/s | -47.8°C | 0% | 0hPa | 2.5V | 00:00:00 | 00:00:00 | 00:00:00 | |
| DL1XH-15 | 2026-09-02 00:16:15 | 51.41197 | 7.83019 | 246° | 11km/h | 27070m | 5.9m/s | -48.4°C | 3.3% | 19.5hPa | 2.5V | 08:30:00 | 01:58:36 | 00:00:00 | |
| DM0DOS-11 | 2026-09-02 00:16:15 | 51.41196 | 7.83014 | 251° | 16km/h | 27075m | 5.9m/s | -48.4°C | 3.2% | 19.5hPa | 2.5V | 08:30:00 | 01:58:37 | 00:00:00 | |
| HSKMA3-T | 2026-09-02 00:16:13 | 51.41193 | 7.82999 | 254° | 22km/h | 27086m | 5.9m/s | -48.4°C | 0% | 19.5hPa | 2.6V | 18:12:15 | 01:58:39 | 00:00:00 | |
| BIOWL1-15 | 2026-09-02 00:16:12 | 51.41197 | 7.83019 | 246° | 11km/h | 27070m | 5.9m/s | -48.4°C | 0.1% | 19.5hPa | 2.5V | 18:12:15 | 01:58:36 | 00:00:00 | |
| AA1-15 | 2026-09-02 00:16:12 | 51.41194 | 7.83007 | 252° | 20km/h | 27081m | 5m/s | -48.4°C | 0.1% | 19.5hPa | 2.6V | 18:12:15 | 01:58:38 | 00:00:00 | |
| DL1XH-west | 2026-09-02 00:16:11 | 51.41196 | 7.83014 | 252° | 16km/h | 27076m | 5.9m/s | -48.4°C | 0% | 19.5hPa | 2.5V | 18:12:15 | 01:58:37 | 00:00:00 | |
| DF8AY | 2026-09-02 00:16:07 | 51.41203 | 7.83025 | 189° | 15km/h | 27053m | 6.6m/s | -48.4°C | 0% | 19.6hPa | 2.6V | 18:12:15 | 01:58:33 | 00:00:00 | |
| DK9SH | 2026-09-02 00:16:06 | 51.41203 | 7.83025 | 190° | 15km/h | 27053m | 6.6m/s | -48.4°C | 0.7% | 19.6hPa | 2.6V | 00:00:00 | 00:00:00 | 00:00:00 | |
| DM0DOS-11 | 2026-09-02 00:16:06 | 51.41225 | 7.83042 | 237° | 15km/h | 27019m | 5m/s | -48.4°C | 3.3% | 19.7hPa | 2.5V | 08:30:00 | 01:58:27 | 00:00:00 | |
| DO2SHX-10 | 2026-09-02 00:16:05 | 51.41212 | 7.83028 | 197° | 16km/h | 27041m | 5.1m/s | -48.4°C | 3.3% | 19.6hPa | 2.6V | 00:00:00 | 01:58:31 | 00:00:00 | |
| DD1CC9-15 | 2026-09-02 00:16:04 | 51.41212 | 7.83028 | 198° | 20km/h | 27041m | 5.2m/s | -48.4°C | 0.8% | 19.6hPa | 2.6V | 00:00:00 | 00:00:00 | 00:00:00 | |
| DL1XH1-15 | 2026-09-02 00:16:03 | 51.41222 | 7.83037 | 227° | 13km/h | 27024m | 5m/s | -48.4°C | 3.3% | 19.7hPa | 2.6V | 08:30:00 | 01:58:28 | 00:00:00 | |
| HSKMA3-T | 2026-09-02 00:16:03 | 51.41220 | 7.83034 | 213° | 15km/h | 27030m | 6.1m/s | -48.4°C | 0.1% | 19.7hPa | 2.6V | 18:12:15 | 01:58:29 | 00:00:00 | |
| GOEST3-10 | 2026-09-02 00:16:03 | 51.41219 | 7.83034 | 213° | 16km/h | 27030m | 6.0m/s | -48.4°C | 3.3% | 19.6hPa | 2.5V | 00:00:00 | 01:58:29 | 00:00:00 | |
| DL1XH-15 | 2026-09-02 00:16:02 | 51.41227 | 7.83047 | 238° | 16km/h | 27014m | 5.8m/s | -48.4°C | 3.3% | 19.7hPa | 2.5V | 08:30:00 | 01:58:26 | 00:00:00 | |
| DL1XH-west | 2026-09-02 00:16:01 | 51.41225 | 7.83042 | 237° | 15km/h | 27019m | 5m/s | -48.4°C | 0.1% | 19.7hPa | 2.5V | 18:12:15 | 01:58:27 | 00:00:00 | |
| DF8AY | 2026-09-02 00:15:57 | 51.41236 | 7.83067 | 230° | 22km/h | 26997m | 4.9m/s | -48.3°C | 0.1% | 19.8hPa | 2.6V | 18:12:15 | 01:58:23 | 00:00:00 | |
| DO2SHX-10 | 2026-09-02 00:15:56 | 51.41239 | 7.83074 | 232° | 16km/h | 26992m | 5.1m/s | -48.2°C | 3.3% | 19.7hPa | 2.6V | 00:00:00 | 01:58:22 | 00:00:00 | |
| DM0DOS-11 | 2026-09-02 00:15:55 | 51.41250 | 7.83099 | 227° | 16km/h | 26962m | 6.3m/s | -48.1°C | 3.3% | 19.9hPa | 2.6V | 08:30:00 | 01:58:17 | 00:00:00 | |
| DL1XH-15 | 2026-09-02 00:15:55 | 51.41253 | 7.83104 | 224° | 20km/h | 26957m | 5.2m/s | -48.1°C | 3.3% | 19.9hPa | 2.5V | 08:30:00 | 01:58:16 | 00:00:00 | |
| WPPR-10 | 2026-09-02 00:15:55 | 51.41244 | 7.83085 | 240° | 13km/h | 26980m | 5.5m/s | -48.2°C | 0.8% | 19.8hPa | 2.6V | 00:00:00 | 00:00:00 | 00:00:00 | |
| DJ3KS | 2026-09-02 00:15:54 | 51.41242 | 7.83080 | 236° | 16km/h | 26986m | 6.5m/s | -48.2°C | 0.8% | 19.8hPa | 2.6V | 00:00:00 | 00:00:00 | 00:00:00 | |
| DL1XH1-15 | 2026-09-02 00:15:53 | 51.41248 | 7.83094 | 234° | 15km/h | 26968m | 6.2m/s | -48.1°C | 3.3% | 19.8hPa | 2.6V | 08:30:00 | 01:58:18 | 00:00:00 | |
| HSKMA3-T | 2026-09-02 00:15:53 | 51.41246 | 7.83090 | 241° | 13km/h | 26974m | 5.3m/s | -48.2°C | 0.1% | 19.8hPa | 2.5V | 18:12:15 | 01:58:19 | 00:00:00 | |
| DL1NUX | 2026-09-02 00:15:53 | 51.41263 | 7.83123 | 236° | 20km/h | 26940m | 5.6m/s | -48°C | 3.3% | 19.9hPa | 2.6V | 08:30:00 | 01:58:13 | 00:00:00 | |
| DO2JMG | 2026-09-02 00:15:52 | 51.41247 | 7.83094 | 235° | 15km/h | 26968m | 6.2m/s | -48.2°C | 0% | 19.8hPa | 2.6V | 18:12:15 | 01:58:18 | 00:00:00 | |
| DL1XH-west | 2026-09-02 00:15:51 | 51.41250 | 7.83099 | 227° | 16km/h | 26962m | 6.3m/s | -48.1°C | 0.1% | 19.9hPa | 2.6V | 18:12:15 | 01:58:17 | 00:00:00 | |
| AA1-15 | 2026-09-02 00:15:50 | 51.41253 | 7.83104 | 224° | 20km/h | 26957m | 5.3m/s | -48.1°C | 0.1% | 19.9hPa | 2.5V | 18:12:15 | 01:58:16 | 00:00:00 | |
| AU51GT2 | 2026-09-02 00:15:49 | 51.41257 | 7.83110 | 225° | 20km/h | 26952m | 4.8m/s | -48.1°C | 0.8% | 19.9hPa | 2.5V | 00:00:00 | 00:00:00 | 00:00:00 | |
| BIOWL1-15 | 2026-09-02 00:15:49 | 51.41257 | 7.83110 | 226° | 22km/h | 26951m | 4.8m/s | -48.1°C | 0.1% | 19.9hPa | 2.5V | 18:12:15 | 01:58:15 | 00:00:00 | |
| S3001 | 2026-09-02 00:15:48 | 51.41263 | 7.83123 | 236° | 18km/h | 26940m | 5.6m/s | -48.1°C | 0.8% | 19.9hPa | 2.5V | 00:00:00 | 00:00:00 | 00:00:00 | |
| BIOWL9-15 | 2026-09-02 00:15:47 | 51.41266 | 7.83129 | 238° | 18km/h | 26935m | 5.0m/s | -48.0°C | 0.8% | 20.0hPa | 2.5V | 00:00:00 | 00:00:00 | 00:00:00 | |
| DF8AY | 2026-09-02 00:15:46 | 51.41272 | 7.83141 | 225° | 20km/h | 26924m | 6.7m/s | -48°C | 0% | 20hPa | 2.5V | 18:12:15 | 01:58:10 | 00:00:00 | |
| HTAHTA | 2026-09-02 00:15:46 | 51.41266 | 7.83129 | 238° | 18km/h | 26935m | 5.0m/s | -48.0°C | 0.8% | 20.0hPa | 2.5V | 00:00:00 | 00:00:00 | 00:00:00 | |
| DO3MHA-12 | 2026-09-02 00:15:45 | 51.41269 | 7.83135 | 232° | 20km/h | 26930m | 5.2m/s | -48.0°C | 3.2% | 19.9hPa | 2.5V | 00:00:00 | 01:58:11 | 00:00:00 | |
| DM0DOS-11 | 2026-09-02 00:15:45 | 51.41284 | 7.83156 | 217° | 18km/h | 26907m | 5.5m/s | -47.9°C | 3.2% | 20hPa | 2.6V | 08:30:00 | 01:58:07 | 00:00:00 | |
| DD1CC9-15 | 2026-09-02 00:15:44 | 51.41269 | 7.83135 | 232° | 18km/h | 26930m | 5.3m/s | -48.0°C | 0.8% | 20.0hPa | 2.5V | 00:00:00 | 00:00:00 | 00:00:00 | |
| DL1XH1-15 | 2026-09-02 00:15:43 | 51.41280 | 7.83151 | 214° | 20km/h | 26912m | 5.4m/s | -47.9°C | 3.2% | 20hPa | 2.5V | 08:30:00 | 01:58:08 | 00:00:00 | |
| HSKMA3-T | 2026-09-02 00:15:42 | 51.41280 | 7.83151 | 215° | 20km/h | 26912m | 5.4m/s | -47.9°C | 0% | 20hPa | 2.5V | 18:12:15 | 01:58:08 | 00:00:00 | |
| DO2JMG | 2026-09-02 00:15:41 | 51.41284 | 7.83156 | 218° | 18km/h | 26907m | 5.6m/s | -47.9°C | 0% | 20hPa | 2.6V | 18:12:15 | 01:58:07 | 00:00:00 | |
| DL1XH-west | 2026-09-02 00:15:40 | 51.41287 | 7.83160 | 227° | 16km/h | 26900m | 5.9m/s | -47.9°C | 0.1% | 20.1hPa | 2.6V | 18:12:15 | 01:58:06 | 00:00:00 | |
| BIOWL1-15 | 2026-09-02 00:15:39 | 51.41290 | 7.83166 | 235° | 16km/h | 26895m | 4.8m/s | -47.9°C | 0% | 20.1hPa | 2.5V | 18:12:15 | 01:58:05 | 00:00:00 | |
| DF8AY | 2026-09-02 00:15:36 | 51.41309 | 7.83201 | 226° | 31km/h | 26868m | 5.6m/s | -47.8°C | 0% | 20.1hPa | 2.5V | 18:12:15 | 01:58:00 | 00:00:00 | |
| DL1XH-15 | 2026-09-02 00:15:36 | 51.41327 | 7.83238 | 230° | 27km/h | 26845m | 4.7m/s | -47.6°C | 3.2% | 20.2hPa | 2.6V | 08:30:00 | 01:57:56 | 00:00:00 | |
| DO2SHX-10 | 2026-09-02 00:15:35 | 51.41304 | 7.83193 | 225° | 29km/h | 26873m | 5.4m/s | -47.7°C | 3.2% | 20.1hPa | 2.5V | 00:00:00 | 01:58:01 | 00:00:00 | |
| DD1CC1-15 | 2026-09-02 00:15:34 | 51.41303 | 7.83193 | 225° | 29km/h | 26873m | 5.5m/s | -47.8°C | 0.8% | 20.1hPa | 2.5V | 00:00:00 | 00:00:00 | 00:00:00 | |
| DL1NUX | 2026-09-02 00:15:33 | 51.41343 | 7.83257 | 202° | 27km/h | 26828m | 5.3m/s | -47.5°C | 3.2% | 20.3hPa | 2.5V | 08:30:00 | 01:57:53 | 00:00:00 | |
| HSKMA3-T | 2026-09-02 00:15:31 | 51.41323 | 7.83229 | 235° | 27km/h | 26850m | 4.7m/s | -47.7°C | 0% | 20.2hPa | 2.6V | 18:12:15 | 01:57:57 | 00:00:00 | |
| DO2JMG | 2026-09-02 00:15:30 | 51.41327 | 7.83238 | 231° | 27km/h | 26845m | 4.7m/s | -47.7°C | 0% | 20.2hPa | 2.6V | 18:12:15 | 01:57:56 | 00:00:00 | |
| DL1XH-west | 2026-09-02 00:15:29 | 51.41332 | 7.83246 | 222° | 27km/h | 26840m | 6.2m/s | -47.6°C | 0% | 20.2hPa | 2.5V | 18:12:15 | 01:57:55 | 00:00:00 | |
| BIOWL1-15 | 2026-09-02 00:15:29 | 51.41368 | 7.83273 | 214° | 20km/h | 26800m | 5.6m/s | -47.4°C | 0% | 20.4hPa | 2.5V | 18:12:15 | 01:57:48 | 00:00:00 | |
| AA1-15 | 2026-09-02 00:15:28 | 51.41337 | 7.83252 | 212° | 27km/h | 26834m | 6.2m/s | -47.6°C | 0% | 20.2hPa | 2.5V | 18:12:15 | 01:57:54 | 00:00:00 | |
| DF8AY | 2026-09-02 00:15:25 | 51.41355 | 7.83264 | 197° | 22km/h | 26817m | 6.5m/s | -47.5°C | 0% | 20.3hPa | 2.6V | 18:12:15 | 01:57:51 | 00:00:00 | |
| DO3MHA-12 | 2026-09-02 00:15:25 | 51.41355 | 7.83264 | 197° | 24km/h | 26817m | 6.5m/s | -47.4°C | 3.1% | 20.3hPa | 2.5V | 00:00:00 | 01:57:51 | 00:00:00 | |
| DD1CC9-15 | 2026-09-02 00:15:24 | 51.41355 | 7.83264 | 198° | 22km/h | 26817m | 6.5m/s | -47.5°C | 0.7% | 20.3hPa | 2.5V | 00:00:00 | 00:00:00 | 00:00:00 | |
| DL1XH1-15 | 2026-09-02 00:15:22 | 51.41368 | 7.83273 | 214° | 20km/h | 26800m | 5.6m/s | -47.4°C | 3.1% | 20.4hPa | 2.5V | 08:30:00 | 01:57:48 | 00:00:00 | |
| DL1NUX | 2026-09-02 00:15:22 | 51.41390 | 7.83310 | 238° | 26km/h | 26771m | 5.7m/s | -47.3°C | 3.1% | 20.5hPa | 2.5V | 08:30:00 | 01:57:43 | 00:00:00 | |
| HSKMA3-T | 2026-09-02 00:15:20 | 51.41377 | 7.83285 | 223° | 26km/h | 26788m | 5.5m/s | -47.4°C | 0% | 20.4hPa | 2.6V | 18:12:15 | 01:57:46 | 00:00:00 | |
| DO2JMG | 2026-09-02 00:15:19 | 51.41382 | 7.83293 | 229° | 27km/h | 26783m | 5.4m/s | -47.3°C | 0% | 20.4hPa | 2.6V | 18:12:15 | 01:57:45 | 00:00:00 | |
| DL1XH-west | 2026-09-02 00:15:19 | 51.41390 | 7.83310 | 238° | 26km/h | 26771m | 5.7m/s | -47.3°C | 0% | 20.5hPa | 2.5V | 18:12:15 | 01:57:43 | 00:00:00 | |
| BIOWL1-15 | 2026-09-02 00:15:18 | 51.41386 | 7.83301 | 234° | 27km/h | 26777m | 6.8m/s | -47.3°C | 0% | 20.4hPa | 2.5V | 18:12:15 | 01:57:44 | 00:00:00 | |
| AA1-15 | 2026-09-02 00:15:18 | 51.41393 | 7.83319 | 236° | 24km/h | 26766m | 4.8m/s | -47.3°C | 0% | 20.5hPa | 2.5V | 18:12:15 | 01:57:42 | 00:00:00 | |
| S3001 | 2026-09-02 00:15:18 | 51.41393 | 7.83319 | 235° | 24km/h | 26766m | 4.8m/s | -47.3°C | 0.7% | 20.5hPa | 2.5V | 00:00:00 | 00:00:00 | 00:00:00 | |
| DL1XH1-15 | 2026-09-02 00:15:17 | 51.41413 | 7.83338 | 187° | 26km/h | 26743m | 4.8m/s | -47.2°C | 3.1% | 20.5hPa | 2.5V | 08:30:00 | 01:57:38 | 00:00:00 | |
| DL4XJ-10 | 2026-09-02 00:15:17 | 51.41393 | 7.83319 | 236° | 20km/h | 26765m | 4.7m/s | -46.7°C | 0% | 0hPa | 2.5V | 00:00:00 | 00:00:00 | 00:00:00 | |
| BIOWL9-15 | 2026-09-02 00:15:16 | 51.41397 | 7.83326 | 225° | 22km/h | 26761m | 4.9m/s | -47.2°C | 0.7% | 20.5hPa | 2.5V | 00:00:00 | 00:00:00 | 00:00:00 | |
| DO3MHA-12 | 2026-09-02 00:15:15 | 51.41397 | 7.83326 | 226° | 20km/h | 26761m | 4.8m/s | -47.2°C | 3.1% | 20.4hPa | 2.5V | 00:00:00 | 01:57:41 | 00:00:00 | |
| DL1XH-15 | 2026-09-02 00:15:14 | 51.41425 | 7.83339 | 178° | 20km/h | 26732m | 6.5m/s | -47.1°C | 3.1% | 20.6hPa | 2.5V | 08:30:00 | 01:57:36 | 00:00:00 | |
| DF8AY | 2026-09-02 00:15:13 | 51.41407 | 7.83336 | 198° | 26km/h | 26749m | 5.7m/s | -47.2°C | 0% | 20.5hPa | 2.5V | 18:12:15 | 01:57:39 | 00:00:00 | |
| GOEST3-10 | 2026-09-02 00:15:13 | 51.41407 | 7.83336 | 199° | 24km/h | 26749m | 5.6m/s | -47.1°C | 3.0% | 20.5hPa | 2.5V | 00:00:00 | 01:57:39 | 00:00:00 | |
| DL1NUX | 2026-09-02 00:15:12 | 51.41435 | 7.83343 | 220° | 15km/h | 26717m | 4.5m/s | -47.1°C | 3% | 20.6hPa | 2.5V | 08:30:00 | 01:57:33 | 00:00:00 | |
| BIOWL1-15 | 2026-09-02 00:15:09 | 51.41467 | 7.83376 | 185° | 15km/h | 26679m | 5.3m/s | -47.3°C | 0% | 20.7hPa | 2.5V | 18:12:15 | 01:57:26 | 00:00:00 | |
| HSKMA3-T | 2026-09-02 00:15:09 | 51.41429 | 7.83339 | 185° | 15km/h | 26727m | 5.4m/s | -47.2°C | 0% | 20.6hPa | 2.6V | 18:12:15 | 01:57:35 | 00:00:00 | |
| DO2JMG | 2026-09-02 00:15:08 | 51.41432 | 7.83340 | 202° | 13km/h | 26722m | 4.8m/s | -47.1°C | 0% | 20.6hPa | 2.6V | 18:12:15 | 01:57:34 | 00:00:00 | |
| DL1XH-west | 2026-09-02 00:15:06 | 51.41438 | 7.83348 | 225° | 18km/h | 26712m | 5.9m/s | -47.2°C | 0% | 20.6hPa | 2.5V | 18:12:15 | 01:57:32 | 00:00:00 | |
| AA1-15 | 2026-09-02 00:15:05 | 51.41442 | 7.83353 | 223° | 24km/h | 26706m | 6m/s | -47.2°C | 0% | 20.6hPa | 2.5V | 18:12:15 | 01:57:31 | 00:00:00 | |
| DF8AY | 2026-09-02 00:15:05 | 51.41452 | 7.83366 | 214° | 26km/h | 26696m | 4.2m/s | -47.2°C | 0% | 20.7hPa | 2.6V | 18:12:15 | 01:57:29 | 00:00:00 | |
| DL1XH-15 | 2026-09-02 00:15:04 | 51.41467 | 7.83376 | 184° | 15km/h | 26679m | 5.3m/s | -47.3°C | 3.1% | 20.7hPa | 2.5V | 08:30:00 | 01:57:26 | 00:00:00 | |
| DO2SHX-10 | 2026-09-02 00:15:04 | 51.41447 | 7.83360 | 219° | 18km/h | 26700m | 4.7m/s | -47.2°C | 3.0% | 20.6hPa | 2.5V | 00:00:00 | 01:57:30 | 00:00:00 | |
| DD1CC9-15 | 2026-09-02 00:15:03 | 51.41447 | 7.83360 | 220° | 26km/h | 26700m | 4.8m/s | -47.2°C | 0.7% | 20.7hPa | 2.5V | 00:00:00 | 00:00:00 | 00:00:00 | |
| BUE01 | 2026-09-02 00:15:01 | 51.41462 | 7.83374 | 197° | 18km/h | 26685m | 6.0m/s | -47.2°C | 0.7% | 20.7hPa | 2.5V | 00:00:00 | 00:00:00 | 00:00:00 | |
| DD8BA-10 | 2026-09-02 00:15:00 | 51.41467 | 7.83376 | 185° | 13km/h | 26679m | 5.3m/s | -47.2°C | 3.1% | 20.7hPa | 2.5V | 00:00:00 | 00:00:00 | 00:00:00 | |
| DL1NUX | 2026-09-02 00:14:59 | 51.41478 | 7.83375 | 174° | 13km/h | 26662m | 5.3m/s | -47.4°C | 3.1% | 20.8hPa | 2.5V | 08:30:00 | 01:57:23 | 00:00:00 | |
| HSKMA3-T | 2026-09-02 00:14:58 | 51.41474 | 7.83375 | 174° | 15km/h | 26668m | 6.4m/s | -47.3°C | 0% | 20.8hPa | 2.6V | 18:12:15 | 01:57:24 | 00:00:00 | |
| DL1XH-west | 2026-09-02 00:14:56 | 51.41481 | 7.83374 | 173° | 11km/h | 26657m | 5.1m/s | -47.4°C | 0% | 20.8hPa | 2.5V | 18:12:15 | 01:57:22 | 00:00:00 | |
| EDDB2-11 | 2026-09-02 00:14:56 | 51.41483 | 7.83374 | 171° | 9km/h | 26651m | 6.6m/s | -47.4°C | 0.7% | 20.9hPa | 2.5V | 00:00:00 | 00:00:00 | 00:00:00 | |
| DM0DOS-11 | 2026-09-02 00:14:55 | 51.41494 | 7.83375 | 194° | 18km/h | 26630m | 6.8m/s | -47.4°C | 3.1% | 20.9hPa | 2.5V | 08:30:00 | 01:57:17 | 00:00:00 | |
| AA1-15 | 2026-09-02 00:14:54 | 51.41485 | 7.83373 | 173° | 7km/h | 26645m | 5.5m/s | -47.4°C | 0% | 20.9hPa | 2.5V | 18:12:15 | 01:57:20 | 00:00:00 | |
| DF8AY | 2026-09-02 00:14:51 | 51.41494 | 7.83375 | 195° | 18km/h | 26630m | 6.8m/s | -47.4°C | 0% | 20.9hPa | 2.5V | 18:12:15 | 01:57:17 | 00:00:00 | |
| HSKMA3-T | 2026-09-02 00:14:48 | 51.41513 | 7.83382 | 189° | 27km/h | 26614m | 4.6m/s | -47.5°C | 0% | 21hPa | 2.6V | 18:12:15 | 01:57:14 | 00:00:00 | |
| DO2JMG | 2026-09-02 00:14:47 | 51.41520 | 7.83383 | 183° | 24km/h | 26608m | 5.8m/s | -47.5°C | 0% | 20.9hPa | 2.6V | 18:12:15 | 01:57:13 | 00:00:00 | |
| DL1XH-west | 2026-09-02 00:14:46 | 51.41525 | 7.83383 | 174° | 16km/h | 26602m | 5.8m/s | -47.5°C | 0% | 21hPa | 2.5V | 18:12:15 | 01:57:12 | 00:00:00 | |
| SONCRA | 2026-09-02 00:14:46 | 51.41528 | 7.83382 | 163° | 11km/h | 26597m | 5.2m/s | -47.5°C | 0.7% | 21.0hPa | 2.6V | 00:00:00 | 00:00:00 | 00:00:00 | |
| AA1-15 | 2026-09-02 00:14:43 | 51.41533 | 7.83380 | 162° | 7km/h | 26586m | 5.9m/s | -47.6°C | 0% | 21.1hPa | 2.6V | 18:12:15 | 01:57:09 | 00:00:00 | |
| DF8AY | 2026-09-02 00:14:41 | 51.41542 | 7.83376 | 154° | 11km/h | 26564m | 6.5m/s | -47.7°C | 0% | 21.1hPa | 2.5V | 18:12:15 | 01:57:05 | 00:00:00 | |
| DD8BA-10 | 2026-09-02 00:14:40 | 51.41539 | 7.83377 | 163° | 13km/h | 26571m | 5.2m/s | -47.7°C | 3.2% | 21.1hPa | 2.6V | 00:00:00 | 00:00:00 | 00:00:00 | |
| DL1NUX | 2026-09-02 00:14:39 | 51.41547 | 7.83371 | 159° | 13km/h | 26553m | 4.9m/s | -47.8°C | 3.1% | 21.2hPa | 2.6V | 08:30:00 | 01:57:03 | 00:00:00 | |
| HSKMA3-T | 2026-09-02 00:14:37 | 51.41547 | 7.83371 | 159° | 13km/h | 26553m | 4.9m/s | -47.8°C | 0% | 21.2hPa | 2.6V | 18:12:15 | 01:57:03 | 00:00:00 | |
| DO2JMG | 2026-09-02 00:14:35 | 51.41555 | 7.83370 | 187° | 18km/h | 26542m | 6.6m/s | -47.7°C | 0% | 21.2hPa | 2.5V | 18:12:15 | 01:57:01 | 00:00:00 | |
| DM0DOS-11 | 2026-09-02 00:14:35 | 51.41570 | 7.83378 | 183° | 7km/h | 26520m | 5.6m/s | -47.6°C | 3.1% | 21.2hPa | 2.6V | 08:30:00 | 01:56:57 | 00:00:00 | |
| EDDB2-12 | 2026-09-02 00:14:34 | 51.41564 | 7.83375 | 201° | 16km/h | 26531m | 4.6m/s | -47.7°C | 0.7% | 21.2hPa | 2.6V | 00:00:00 | 00:00:00 | 00:00:00 | |
| NBG1-10 | 2026-09-02 00:14:33 | 51.41564 | 7.83375 | 202° | 9km/h | 26531m | 4.6m/s | -47.6°C | 3.1% | 21.2hPa | 2.6V | 00:00:00 | 01:56:59 | 00:00:00 | |
| DL1NUX | 2026-09-02 00:14:32 | 51.41575 | 7.83369 | 135° | 13km/h | 26498m | 6m/s | -47.7°C | 3.1% | 21.3hPa | 2.6V | 08:30:00 | 01:56:53 | 00:00:00 | |
| AA1-15 | 2026-09-02 00:14:32 | 51.41567 | 7.83377 | 201° | 13km/h | 26526m | 6.2m/s | -47.7°C | 0% | 21.2hPa | 2.6V | 18:12:15 | 01:56:58 | 00:00:00 | |
| BIOWL1-15 | 2026-09-02 00:14:27 | 51.41575 | 7.83369 | 136° | 13km/h | 26498m | 6m/s | -47.7°C | 0% | 21.3hPa | 2.6V | 18:12:15 | 01:56:53 | 00:00:00 | |
| HSKMA3-T | 2026-09-02 00:14:26 | 51.41577 | 7.83365 | 142° | 15km/h | 26493m | 5m/s | -47.8°C | 0% | 21.4hPa | 2.6V | 18:12:15 | 01:56:52 | 00:00:00 | |
| DL1XH-west | 2026-09-02 00:14:25 | 51.41580 | 7.83362 | 142° | 16km/h | 26488m | 4.7m/s | -47.8°C | 0% | 21.3hPa | 2.5V | 18:12:15 | 01:56:51 | 00:00:00 | |
| DM0DOS-11 | 2026-09-02 00:14:25 | 51.41589 | 7.83342 | 114° | 13km/h | 26466m | 5.2m/s | -47.8°C | 3.1% | 21.4hPa | 2.6V | 08:30:00 | 01:56:47 | 00:00:00 | |
| AA1-15 | 2026-09-02 00:14:21 | 51.41589 | 7.83342 | 115° | 13km/h | 26466m | 5.2m/s | -47.8°C | 0% | 21.4hPa | 2.6V | 18:12:15 | 01:56:47 | 00:00:00 | |
| DD8BA-10 | 2026-09-02 00:14:20 | 51.41591 | 7.83338 | 125° | 5km/h | 26461m | 5.3m/s | -47.8°C | 3.1% | 21.4hPa | 2.5V | 00:00:00 | 00:00:00 | 00:00:00 | |
| DL1NUX | 2026-09-02 00:14:19 | 51.41596 | 7.83334 | 178° | 5km/h | 26443m | 5.2m/s | -48°C | 3.2% | 21.5hPa | 2.5V | 08:30:00 | 01:56:43 | 00:00:00 | |
| BIOWL1-15 | 2026-09-02 00:14:17 | 51.41596 | 7.83334 | 179° | 5km/h | 26443m | 5.3m/s | -48°C | 0.1% | 21.5hPa | 2.5V | 18:12:15 | 01:56:43 | 00:00:00 | |
| DL1XH-west | 2026-09-02 00:14:15 | 51.41597 | 7.83334 | 49° | 2km/h | 26432m | 4.9m/s | -48°C | 0% | 21.6hPa | 2.6V | 18:12:15 | 01:56:41 | 00:00:00 | |
| DO2JMG | 2026-09-02 00:14:15 | 51.41596 | 7.83333 | 27° | 4km/h | 26427m | 4.7m/s | -47.9°C | 0% | 21.6hPa | 2.5V | 18:12:15 | 01:56:40 | 00:00:00 | |
| DL1XH1-15 | 2026-09-02 00:14:13 | 51.41595 | 7.83332 | 71° | 2km/h | 26416m | 6m/s | -47.9°C | 3.2% | 21.6hPa | 2.5V | 08:30:00 | 01:56:38 | 00:00:00 | |
| DM0DOS-11 | 2026-09-02 00:14:12 | 51.41596 | 7.83331 | 141° | 4km/h | 26411m | 5.1m/s | -47.9°C | 3.2% | 21.6hPa | 2.6V | 08:30:00 | 01:56:37 | 00:00:00 | |
| DF8AY | 2026-09-02 00:14:11 | 51.41596 | 7.83331 | 142° | 4km/h | 26411m | 5.1m/s | -47.9°C | 0% | 21.6hPa | 2.6V | 18:12:15 | 01:56:37 | 00:00:00 | |
| AA1-15 | 2026-09-02 00:14:10 | 51.41597 | 7.83330 | 133° | 7km/h | 26406m | 4.6m/s | -47.9°C | 0% | 21.6hPa | 2.6V | 18:12:15 | 01:56:36 | 00:00:00 | |
| BIOWL1-15 | 2026-09-02 00:14:07 | 51.41602 | 7.83314 | 109° | 20km/h | 26389m | 5.8m/s | -47.9°C | 0% | 21.7hPa | 2.5V | 18:12:15 | 01:56:33 | 00:00:00 | |
| DL1XH-west | 2026-09-02 00:14:05 | 51.41605 | 7.83299 | 117° | 20km/h | 26378m | 5.8m/s | -47.9°C | 0% | 21.7hPa | 2.6V | 18:12:15 | 01:56:31 | 00:00:00 | |
| DM0DOS-11 | 2026-09-02 00:14:05 | 51.41611 | 7.83287 | 359° | 2km/h | 26356m | 6.3m/s | -48°C | 3.1% | 21.8hPa | 2.5V | 08:30:00 | 01:56:27 | 00:00:00 | |
| DL1XH-15 | 2026-09-02 00:14:05 | 51.41610 | 7.83287 | 357° | 7km/h | 26350m | 6.1m/s | -48°C | 3.1% | 21.8hPa | 2.6V | 08:30:00 | 01:56:26 | 00:00:00 | |
| HSKMA3-T | 2026-09-02 00:14:04 | 51.41608 | 7.83293 | 128° | 15km/h | 26372m | 5.6m/s | -47.9°C | 0% | 21.7hPa | 2.6V | 18:12:15 | 01:56:30 | 00:00:00 | |
| AA1-15 | 2026-09-02 00:14:00 | 51.41610 | 7.83287 | 357° | 7km/h | 26350m | 6.1m/s | -48°C | 0% | 21.8hPa | 2.6V | 18:12:15 | 01:56:26 | 00:00:00 | |
| BIOWL1-15 | 2026-09-02 00:13:57 | 51.41599 | 7.83273 | 84° | 15km/h | 26307m | 6.2m/s | -48.2°C | 0% | 21.9hPa | 2.5V | 18:12:15 | 01:56:18 | 00:00:00 | |
| DL1XH-west | 2026-09-02 00:13:55 | 51.41599 | 7.83284 | 73° | 4km/h | 26324m | 5.4m/s | -48.1°C | 0% | 21.9hPa | 2.5V | 18:12:15 | 01:56:21 | 00:00:00 | |
| DB0NH | 2026-09-02 00:13:55 | 51.41599 | 7.83284 | 74° | 11km/h | 26324m | 5.4m/s | -48.0°C | 3.1% | 21.8hPa | 2.5V | 00:00:00 | 01:56:21 | 00:00:00 | |
| DL1XH-15 | 2026-09-02 00:13:54 | 51.41598 | 7.83261 | 69° | 15km/h | 26296m | 5.3m/s | -48.3°C | 3.2% | 22hPa | 2.5V | 08:30:00 | 01:56:16 | 00:00:00 | |
| DM0DOS-11 | 2026-09-02 00:13:54 | 51.41599 | 7.83267 | 76° | 16km/h | 26301m | 5.1m/s | -48.3°C | 3.2% | 22hPa | 2.5V | 08:30:00 | 01:56:17 | 00:00:00 | |
| HSKMA3-T | 2026-09-02 00:13:53 | 51.41600 | 7.83278 | 92° | 11km/h | 26313m | 6.1m/s | -48.1°C | 0% | 21.9hPa | 2.6V | 18:12:15 | 01:56:19 | 00:00:00 | |
| DL1XH1-15 | 2026-09-02 00:13:53 | 51.41599 | 7.83273 | 84° | 15km/h | 26307m | 6.2m/s | -48.2°C | 3.1% | 21.9hPa | 2.5V | 08:30:00 | 01:56:18 | 00:00:00 | |
| DO2SHX-10 | 2026-09-02 00:13:53 | 51.41599 | 7.83278 | 93° | 13km/h | 26313m | 6.0m/s | -48.1°C | 3.1% | 21.9hPa | 2.5V | 00:00:00 | 01:56:19 | 00:00:00 | |
| DL1NUX | 2026-09-02 00:13:52 | 51.41594 | 7.83250 | 38° | 7km/h | 26280m | 4.8m/s | -48.4°C | 3.2% | 22.1hPa | 2.5V | 08:30:00 | 01:56:13 | 00:00:00 | |
| AA1-15 | 2026-09-02 00:13:50 | 51.41598 | 7.83261 | 69° | 15km/h | 26296m | 5.3m/s | -48.3°C | 0% | 22hPa | 2.5V | 18:12:15 | 01:56:16 | 00:00:00 | |
| BIOWL1-15 | 2026-09-02 00:13:47 | 51.41594 | 7.83250 | 38° | 7km/h | 26280m | 4.8m/s | -48.4°C | 0% | 22.1hPa | 2.5V | 18:12:15 | 01:56:13 | 00:00:00 | |
| DO1YAY-16 | 2026-09-02 00:13:46 | 51.41592 | 7.83249 | 23° | 7km/h | 26275m | 5.4m/s | -48.4°C | 0.7% | 22.1hPa | 2.5V | 00:00:00 | 00:00:00 | 00:00:00 | |
| DO3MHA-12 | 2026-09-02 00:13:45 | 51.41590 | 7.83247 | 21° | 9km/h | 26269m | 6.1m/s | -48.3°C | 3.2% | 22.0hPa | 2.5V | 00:00:00 | 01:56:11 | 00:00:00 | |
| DL1XH-15 | 2026-09-02 00:13:44 | 51.41580 | 7.83245 | 342° | 4km/h | 26242m | 5.3m/s | -48.4°C | 3.2% | 22.2hPa | 2.5V | 08:30:00 | 01:56:06 | 00:00:00 | |
| DL1XH-west | 2026-09-02 00:13:44 | 51.41587 | 7.83246 | 17° | 11km/h | 26263m | 5m/s | -48.4°C | 0% | 22.1hPa | 2.6V | 18:12:15 | 01:56:10 | 00:00:00 | |
| DM0DOS-11 | 2026-09-02 00:13:44 | 51.41581 | 7.83245 | 349° | 5km/h | 26248m | 5.9m/s | -48.4°C | 3.2% | 22.1hPa | 2.5V | 08:30:00 | 01:56:07 | 00:00:00 | |
| DO2JMG | 2026-09-02 00:13:43 | 51.41585 | 7.83245 | 13° | 9km/h | 26259m | 4.6m/s | -48.4°C | 0% | 22.1hPa | 2.6V | 18:12:15 | 01:56:09 | 00:00:00 | |
| HSKMA3-T | 2026-09-02 00:13:42 | 51.41583 | 7.83245 | 4° | 7km/h | 26253m | 5.8m/s | -48.4°C | 0% | 22.2hPa | 2.5V | 18:12:15 | 01:56:08 | 00:00:00 | |
| AA1-15 | 2026-09-02 00:13:40 | 51.41579 | 7.83245 | 19° | 4km/h | 26237m | 4.9m/s | -48.4°C | 0% | 22.2hPa | 2.5V | 18:12:15 | 01:56:05 | 00:00:00 | |
| DF8AY | 2026-09-02 00:13:38 | 51.41578 | 7.83244 | 46° | 7km/h | 26232m | 5.9m/s | -48.4°C | 0% | 22.2hPa | 2.6V | 18:12:15 | 01:56:04 | 00:00:00 | |
| BIOWL1-15 | 2026-09-02 00:13:36 | 51.41564 | 7.83215 | 350° | 11km/h | 26182m | 5m/s | -48.6°C | 0% | 22.4hPa | 2.5V | 18:12:15 | 01:55:55 | 00:00:00 | |
| DJ8HS-15 | 2026-09-02 00:13:36 | 51.41574 | 7.83236 | 61° | 13km/h | 26220m | 4.5m/s | -48.3°C | 3.2% | 22.2hPa | 2.5V | 00:00:00 | 01:56:02 | 00:00:00 | |
| DL1XH-15 | 2026-09-02 00:13:35 | 51.41566 | 7.83215 | 9° | 9km/h | 26188m | 5.9m/s | -48.5°C | 3.2% | 22.4hPa | 2.5V | 08:30:00 | 01:55:56 | 00:00:00 | |
| DL1XH-west | 2026-09-02 00:13:34 | 51.41571 | 7.83225 | 69° | 13km/h | 26210m | 5.9m/s | -48.4°C | 0% | 22.3hPa | 2.5V | 18:12:15 | 01:56:00 | 00:00:00 | |
| DO2JMG | 2026-09-02 00:13:33 | 51.41570 | 7.83221 | 69° | 9km/h | 26204m | 5.5m/s | -48.4°C | 0% | 22.3hPa | 2.6V | 18:12:15 | 01:55:59 | 00:00:00 | |
| DO2KSM | 2026-09-02 00:13:33 | 51.41570 | 7.83221 | 70° | 9km/h | 26204m | 5.5m/s | -48.4°C | 0.8% | 22.3hPa | 2.6V | 00:00:00 | 00:00:00 | 00:00:00 | |
| DL1NUX | 2026-09-02 00:13:32 | 51.41558 | 7.83220 | 321° | 16km/h | 26170m | 6.4m/s | -48.6°C | 3.2% | 22.4hPa | 2.6V | 08:30:00 | 01:55:53 | 00:00:00 | |
| HSKMA3-T | 2026-09-02 00:13:31 | 51.41568 | 7.83216 | 35° | 5km/h | 26193m | 5.9m/s | -48.5°C | 0% | 22.3hPa | 2.5V | 18:12:15 | 01:55:57 | 00:00:00 | |
| AA1-15 | 2026-09-02 00:13:28 | 51.41561 | 7.83217 | 332° | 15km/h | 26177m | 5.7m/s | -48.7°C | 0.1% | 22.4hPa | 2.6V | 18:12:15 | 01:55:54 | 00:00:00 | |
| DF8AY | 2026-09-02 00:13:28 | 51.41558 | 7.83220 | 321° | 16km/h | 26170m | 6.4m/s | -48.7°C | 0% | 22.4hPa | 2.6V | 18:12:15 | 01:55:53 | 00:00:00 | |
| DL1XH1-15 | 2026-09-02 00:13:28 | 51.41540 | 7.83227 | 33° | 16km/h | 26143m | 5m/s | -48.9°C | 3.3% | 22.5hPa | 2.6V | 08:30:00 | 01:55:48 | 00:00:00 | |
| DD1CC8 | 2026-09-02 00:13:27 | 51.41554 | 7.83225 | 320° | 16km/h | 26165m | 5.0m/s | -48.7°C | 0.8% | 22.4hPa | 2.5V | 00:00:00 | 00:00:00 | 00:00:00 | |
| DF7PN | 2026-09-02 00:13:26 | 51.41551 | 7.83228 | 330° | 15km/h | 26160m | 4.6m/s | -48.8°C | 0.7% | 22.5hPa | 2.5V | 00:00:00 | 00:00:00 | 00:00:00 | |
| DO3MHA-12 | 2026-09-02 00:13:25 | 51.41551 | 7.83228 | 331° | 11km/h | 26160m | 4.5m/s | -48.7°C | 3.2% | 22.4hPa | 2.5V | 00:00:00 | 01:55:51 | 00:00:00 | |
| DL1XH-15 | 2026-09-02 00:13:24 | 51.41534 | 7.83218 | 59° | 13km/h | 26133m | 6.3m/s | -48.8°C | 3.3% | 22.5hPa | 2.5V | 08:30:00 | 01:55:46 | 00:00:00 | |
| DL1XH-west | 2026-09-02 00:13:23 | 51.41544 | 7.83230 | 15° | 16km/h | 26149m | 5.8m/s | -48.8°C | 0% | 22.5hPa | 2.5V | 18:12:15 | 01:55:49 | 00:00:00 | |
| DO2JMG | 2026-09-02 00:13:22 | 51.41540 | 7.83227 | 33° | 16km/h | 26143m | 5m/s | -48.9°C | 0% | 22.5hPa | 2.6V | 18:12:15 | 01:55:48 | 00:00:00 | |
| HSKMA3-T | 2026-09-02 00:13:22 | 51.41537 | 7.83223 | 48° | 16km/h | 26138m | 5.1m/s | -48.9°C | 0% | 22.5hPa | 2.6V | 18:12:15 | 01:55:47 | 00:00:00 | |
| BIOWL1-15 | 2026-09-02 00:13:19 | 51.41533 | 7.83214 | 76° | 9km/h | 26127m | 5.8m/s | -48.8°C | 0.1% | 22.6hPa | 2.5V | 18:12:15 | 01:55:45 | 00:00:00 | |
| DF8AY | 2026-09-02 00:13:18 | 51.41533 | 7.83207 | 67° | 2km/h | 26110m | 5.4m/s | -48.9°C | 0% | 22.6hPa | 2.6V | 18:12:15 | 01:55:42 | 00:00:00 | |
| AA1-15 | 2026-09-02 00:13:17 | 51.41533 | 7.83209 | 91° | 5km/h | 26116m | 6m/s | -48.9°C | 0.1% | 22.6hPa | 2.6V | 18:12:15 | 01:55:43 | 00:00:00 | |
| DJ8HS-15 | 2026-09-02 00:13:16 | 51.41533 | 7.83207 | 68° | 11km/h | 26110m | 5.3m/s | -48.8°C | 3.3% | 22.6hPa | 2.6V | 00:00:00 | 01:55:42 | 00:00:00 | |
| DO2SHX-10 | 2026-09-02 00:13:15 | 51.41532 | 7.83207 | 312° | 9km/h | 26105m | 5.1m/s | -48.8°C | 3.3% | 22.6hPa | 2.6V | 00:00:00 | 01:55:41 | 00:00:00 | |
| DL1XH1-15 | 2026-09-02 00:13:13 | 51.41529 | 7.83219 | 299° | 16km/h | 26087m | 4.8m/s | -48.8°C | 3.3% | 22.7hPa | 2.6V | 08:30:00 | 01:55:38 | 00:00:00 | |
| DL1XH-west | 2026-09-02 00:13:13 | 51.41531 | 7.83213 | 290° | 15km/h | 26093m | 5.9m/s | -48.8°C | 0.1% | 22.7hPa | 2.5V | 18:12:15 | 01:55:39 | 00:00:00 | |
| HSKMA3-T | 2026-09-02 00:13:11 | 51.41527 | 7.83225 | 313° | 18km/h | 26082m | 5.9m/s | -48.8°C | 0.1% | 22.7hPa | 2.6V | 18:12:15 | 01:55:37 | 00:00:00 | |
| DJ2DS-15 | 2026-09-02 00:13:11 | 51.41527 | 7.83225 | 313° | 13km/h | 26082m | 5.8m/s | -48.8°C | 3.3% | 22.7hPa | 2.5V | 00:00:00 | 01:55:37 | 00:00:00 | |
| SONDE2-11 | 2026-09-02 00:13:10 | 51.41519 | 7.83232 | 341° | 18km/h | 26071m | 4.9m/s | -48.8°C | 0.8% | 22.8hPa | 2.5V | 00:00:00 | 00:00:00 | 00:00:00 | |
| DO2SHX-10 | 2026-09-02 00:13:09 | 51.41519 | 7.83232 | 342° | 16km/h | 26071m | 4.9m/s | -48.8°C | 3.3% | 22.7hPa | 2.5V | 00:00:00 | 01:55:35 | 00:00:00 | |
| GOEST3-10 | 2026-09-02 00:13:08 | 51.41514 | 7.83234 | 349° | 11km/h | 26066m | 5.3m/s | -48.8°C | 3.3% | 22.7hPa | 2.5V | 00:00:00 | 00:00:00 | 00:00:00 | |
| DL1XH1-15 | 2026-09-02 00:13:07 | 51.41502 | 7.83234 | 348° | 5km/h | 26034m | 4.5m/s | -49°C | 3.3% | 22.9hPa | 2.5V | 08:30:00 | 01:55:28 | 00:00:00 | |
| DF8AY | 2026-09-02 00:13:06 | 51.41508 | 7.83236 | 359° | 9km/h | 26054m | 4.9m/s | -48.8°C | 0% | 22.8hPa | 2.6V | 18:12:15 | 01:55:32 | 00:00:00 | |
| DM0DOS-11 | 2026-09-02 00:13:05 | 51.41500 | 7.83236 | 301° | 7km/h | 26029m | 5.1m/s | -49°C | 3.3% | 22.9hPa | 2.6V | 08:30:00 | 01:55:27 | 00:00:00 | |
| DL1XH-west | 2026-09-02 00:13:02 | 51.41502 | 7.83234 | 348° | 5km/h | 26034m | 4.5m/s | -49°C | 0.1% | 22.9hPa | 2.5V | 18:12:15 | 01:55:28 | 00:00:00 | |
| DO2JMG | 2026-09-02 00:13:01 | 51.41501 | 7.83236 | 301° | 7km/h | 26029m | 5.1m/s | -49°C | 0.1% | 22.9hPa | 2.6V | 18:12:15 | 01:55:27 | 00:00:00 | |
| HSKMA3-T | 2026-09-02 00:13:00 | 51.41500 | 7.83239 | 281° | 11km/h | 26023m | 6.7m/s | -49.1°C | 0.1% | 22.9hPa | 2.6V | 18:12:15 | 01:55:26 | 00:00:00 | |
| DL3AQ-11 | 2026-09-02 00:12:59 | 51.41499 | 7.83250 | 285° | 16km/h | 26012m | 5.0m/s | -49.2°C | 0.8% | 22.9hPa | 2.5V | 00:00:00 | 00:00:00 | 00:00:00 | |
| DL1NUX | 2026-09-02 00:12:58 | 51.41497 | 7.83257 | 297° | 16km/h | 26006m | 6.2m/s | -49.2°C | 3.3% | 23hPa | 2.5V | 08:30:00 | 01:55:23 | 00:00:00 | |
| DF8AY | 2026-09-02 00:12:56 | 51.41494 | 7.83262 | 316° | 16km/h | 26000m | 5.6m/s | -49.2°C | 0.1% | 23hPa | 2.6V | 18:12:15 | 01:55:22 | 00:00:00 | |
| AA1-15 | 2026-09-02 00:12:55 | 51.41491 | 7.83266 | 335° | 16km/h | 25995m | 4.7m/s | -49.2°C | 0.1% | 23hPa | 2.6V | 18:12:15 | 01:55:21 | 00:00:00 | |
| DO3MHA-11 | 2026-09-02 00:12:55 | 51.41491 | 7.83266 | 335° | 7km/h | 25995m | 4.6m/s | -49.2°C | 3.3% | 23.0hPa | 2.5V | 00:00:00 | 01:55:21 | 00:00:00 | |
| DM0DOS-11 | 2026-09-02 00:12:54 | 51.41481 | 7.83271 | 330° | 4km/h | 25974m | 4.7m/s | -49.3°C | 3.3% | 23.1hPa | 2.5V | 08:30:00 | 01:55:17 | 00:00:00 | |
| DL1XH-15 | 2026-09-02 00:12:54 | 51.41480 | 7.83271 | 310° | 2km/h | 25969m | 5.3m/s | -49.3°C | 3.4% | 23.1hPa | 2.6V | 08:30:00 | 01:55:16 | 00:00:00 | |
| DO2SHX-10 | 2026-09-02 00:12:54 | 51.41488 | 7.83268 | 347° | 11km/h | 25991m | 4.5m/s | -49.2°C | 3.3% | 23.0hPa | 2.5V | 00:00:00 | 01:55:20 | 00:00:00 | |
| GOEST3-10 | 2026-09-02 00:12:53 | 51.41484 | 7.83269 | 350° | 5km/h | 25985m | 5.8m/s | -49.2°C | 3.3% | 23.0hPa | 2.5V | 00:00:00 | 01:55:19 | 00:00:00 | |
| DL1NUX | 2026-09-02 00:12:52 | 51.41480 | 7.83273 | 252° | 4km/h | 25953m | 4.4m/s | -49.4°C | 3.4% | 23.1hPa | 2.5V | 08:30:00 | 01:55:13 | 00:00:00 | |
| DL1XH-west | 2026-09-02 00:12:52 | 51.41482 | 7.83270 | 345° | 7km/h | 25979m | 5.7m/s | -49.3°C | 0.1% | 23.1hPa | 2.5V | 18:12:15 | 01:55:18 | 00:00:00 | |
| DO2JMG | 2026-09-02 00:12:51 | 51.41481 | 7.83270 | 331° | 4km/h | 25974m | 4.7m/s | -49.3°C | 0.1% | 23.1hPa | 2.5V | 18:12:15 | 01:55:17 | 00:00:00 | |
| HSKMA3-T | 2026-09-02 00:12:49 | 51.41480 | 7.83272 | 295° | 0km/h | 25963m | 6.1m/s | -49.4°C | 0.1% | 23.1hPa | 2.6V | 18:12:15 | 01:55:15 | 00:00:00 | |
| DF8AY | 2026-09-02 00:12:45 | 51.41482 | 7.83279 | 249° | 13km/h | 25942m | 6.6m/s | -49.5°C | 0.2% | 23.2hPa | 2.6V | 18:12:15 | 01:55:11 | 00:00:00 | |
| DO3MHA-11 | 2026-09-02 00:12:45 | 51.41482 | 7.83279 | 249° | 11km/h | 25943m | 6.5m/s | -49.4°C | 3.4% | 23.2hPa | 2.6V | 00:00:00 | 01:55:11 | 00:00:00 | |
| DL1XH-15 | 2026-09-02 00:12:44 | 51.41484 | 7.83307 | 298° | 9km/h | 25915m | 4.2m/s | -49.4°C | 3.4% | 23.3hPa | 2.6V | 08:30:00 | 01:55:06 | 00:00:00 | |
| AA1-15 | 2026-09-02 00:12:44 | 51.41483 | 7.83285 | 250° | 16km/h | 25936m | 5.4m/s | -49.5°C | 0.2% | 23.2hPa | 2.6V | 18:12:15 | 01:55:10 | 00:00:00 | |
| DL1XH-west | 2026-09-02 00:12:41 | 51.41484 | 7.83303 | 284° | 11km/h | 25920m | 5.3m/s | -49.4°C | 0.1% | 23.3hPa | 2.5V | 18:12:15 | 01:55:07 | 00:00:00 | |
| DO2JMG | 2026-09-02 00:12:40 | 51.41484 | 7.83307 | 299° | 9km/h | 25915m | 4.2m/s | -49.4°C | 0.1% | 23.3hPa | 2.6V | 18:12:15 | 01:55:06 | 00:00:00 | |
| BIOWL1-15 | 2026-09-02 00:12:39 | 51.41482 | 7.83313 | 237° | 5km/h | 25900m | 5.3m/s | -49.5°C | 0.1% | 23.4hPa | 2.5V | 18:12:15 | 01:55:03 | 00:00:00 | |
| DL1NUX | 2026-09-02 00:12:38 | 51.41483 | 7.83313 | 236° | 5km/h | 25900m | 5.3m/s | -49.4°C | 3.4% | 23.4hPa | 2.5V | 08:30:00 | 01:55:03 | 00:00:00 | |
| HSKMA3-T | 2026-09-02 00:12:38 | 51.41482 | 7.83312 | 278° | 4km/h | 25905m | 5.9m/s | -49.4°C | 0.1% | 23.3hPa | 2.5V | 18:12:15 | 01:55:04 | 00:00:00 | |
| GOEST3-10 | 2026-09-02 00:12:38 | 51.41482 | 7.83312 | 278° | 7km/h | 25906m | 5.8m/s | -49.4°C | 3.4% | 23.3hPa | 2.5V | 00:00:00 | 00:00:00 | 08:30:00 | |
| DL8DAS-14 | 2026-09-02 00:12:37 | 51.41482 | 7.83313 | 236° | 5km/h | 25900m | 5.3m/s | -49.5°C | 0.8% | 23.4hPa | 2.5V | 00:00:00 | 00:00:00 | 00:00:00 | |
| DJ8HS-15 | 2026-09-02 00:12:36 | 51.41484 | 7.83315 | 220° | 11km/h | 25895m | 5.0m/s | -49.4°C | 3.4% | 23.3hPa | 2.5V | 00:00:00 | 01:55:02 | 08:30:00 | |
| DO3MHA-11 | 2026-09-02 00:12:35 | 51.41485 | 7.83317 | 216° | 13km/h | 25890m | 4.8m/s | -49.4°C | 3.4% | 23.4hPa | 2.5V | 00:00:00 | 01:55:01 | 00:00:00 | |
| DL1XH-15 | 2026-09-02 00:12:34 | 51.41493 | 7.83329 | 223° | 13km/h | 25864m | 5.6m/s | -49.5°C | 3.4% | 23.5hPa | 2.5V | 08:30:00 | 01:54:56 | 00:00:00 | |
| DM0DOS-11 | 2026-09-02 00:12:34 | 51.41491 | 7.83326 | 227° | 9km/h | 25869m | 4.4m/s | -49.5°C | 3.4% | 23.4hPa | 2.5V | 08:30:00 | 01:54:57 | 00:00:00 | |
| AA1-15 | 2026-09-02 00:12:34 | 51.41487 | 7.83320 | 218° | 7km/h | 25884m | 5.6m/s | -49.5°C | 0.1% | 23.4hPa | 2.6V | 18:12:15 | 01:55:00 | 00:00:00 | |
| DO2SHX-10 | 2026-09-02 00:12:34 | 51.41487 | 7.83319 | 219° | 7km/h | 25885m | 5.5m/s | -49.4°C | 3.4% | 23.4hPa | 2.5V | 00:00:00 | 01:55:00 | 00:00:00 | |
| DL4XJ-10 | 2026-09-02 00:12:33 | 51.41488 | 7.83321 | 225° | 13km/h | 25879m | 5.8m/s | -49.0°C | 0% | 0hPa | 2.5V | 00:00:00 | 00:00:00 | 00:00:00 | |
| DL1NUX | 2026-09-02 00:12:32 | 51.41504 | 7.83342 | 210° | 20km/h | 25848m | 4.3m/s | -49.5°C | 3.4% | 23.5hPa | 2.5V | 08:30:00 | 01:54:53 | 00:00:00 | |
| DL1XH-west | 2026-09-02 00:12:30 | 51.41493 | 7.83329 | 224° | 13km/h | 25864m | 5.6m/s | -49.5°C | 0.2% | 23.5hPa | 2.5V | 18:12:15 | 01:54:56 | 00:00:00 | |
| BIOWL1-15 | 2026-09-02 00:12:28 | 51.41507 | 7.83345 | 204° | 16km/h | 25843m | 5m/s | -49.5°C | 0.1% | 23.6hPa | 2.5V | 18:12:15 | 01:54:52 | 00:00:00 | |
| HSKMA3-T | 2026-09-02 00:12:27 | 51.41503 | 7.83342 | 211° | 20km/h | 25848m | 4.4m/s | -49.5°C | 0.2% | 23.5hPa | 2.5V | 18:12:15 | 01:54:53 | 00:00:00 | |
| DL1XH1-15 | 2026-09-02 00:12:27 | 51.41518 | 7.83343 | 143° | 11km/h | 25821m | 6.4m/s | -49.5°C | 3.4% | 23.6hPa | 2.5V | 08:30:00 | 01:54:48 | 00:00:00 | |
| AA1-15 | 2026-09-02 00:12:23 | 51.41516 | 7.83345 | 147° | 9km/h | 25827m | 5.2m/s | -49.5°C | 0.1% | 23.7hPa | 2.6V | 18:12:15 | 01:54:49 | 00:00:00 | |
| DL1XH-west | 2026-09-02 00:12:20 | 51.41523 | 7.83337 | 147° | 15km/h | 25811m | 4.6m/s | -49.5°C | 0.1% | 23.7hPa | 2.5V | 18:12:15 | 01:54:46 | 00:00:00 | |
| DO2JMG | 2026-09-02 00:12:19 | 51.41526 | 7.83334 | 146° | 13km/h | 25806m | 5m/s | -49.5°C | 0.1% | 23.7hPa | 2.5V | 18:12:15 | 01:54:45 | 00:00:00 | |
| HSKMA3-T | 2026-09-02 00:12:17 | 51.41531 | 7.83329 | 150° | 9km/h | 25795m | 5.1m/s | -49.4°C | 0.1% | 23.8hPa | 2.6V | 18:12:15 | 01:54:43 | 00:00:00 | |
| DO2SHX-10 | 2026-09-02 00:12:17 | 51.41530 | 7.83329 | 150° | 13km/h | 25796m | 5.1m/s | -49.4°C | 3.3% | 23.7hPa | 2.6V | 00:00:00 | 01:54:43 | 00:00:00 | |
| DL1XH1-15 | 2026-09-02 00:12:16 | 51.41547 | 7.83333 | 195° | 13km/h | 25769m | 5.6m/s | -49.6°C | 3.4% | 23.8hPa | 2.6V | 08:30:00 | 01:54:38 | 00:00:00 | |
| DJ8HS-15 | 2026-09-02 00:12:16 | 51.41533 | 7.83328 | 172° | 11km/h | 25791m | 4.5m/s | -49.4°C | 3.3% | 23.7hPa | 2.5V | 00:00:00 | 01:54:42 | 00:00:00 | |
| DM0DOS-11 | 2026-09-02 00:12:15 | 51.41550 | 7.83333 | 181° | 11km/h | 25764m | 5.3m/s | -49.6°C | 3.4% | 23.9hPa | 2.5V | 08:30:00 | 01:54:37 | 00:00:00 | |
| AA1-15 | 2026-09-02 00:12:13 | 51.41543 | 7.83331 | 198° | 16km/h | 25774m | 4.4m/s | -49.6°C | 0.1% | 23.8hPa | 2.6V | 18:12:15 | 01:54:39 | 00:00:00 | |
| DO2SHX-10 | 2026-09-02 00:12:13 | 51.41543 | 7.83331 | 199° | 13km/h | 25774m | 4.3m/s | -49.5°C | 3.4% | 23.8hPa | 2.6V | 00:00:00 | 01:54:39 | 00:00:00 | |
| DL1NUX | 2026-09-02 00:12:12 | 51.41560 | 7.83325 | 137° | 15km/h | 25742m | 4.5m/s | -49.7°C | 3.4% | 23.9hPa | 2.6V | 08:30:00 | 01:54:33 | 00:00:00 | |
| DL1XH-west | 2026-09-02 00:12:09 | 51.41554 | 7.83331 | 149° | 11km/h | 25753m | 5.9m/s | -49.7°C | 0.1% | 23.9hPa | 2.5V | 18:12:15 | 01:54:35 | 00:00:00 | |
| DO2JMG | 2026-09-02 00:12:08 | 51.41557 | 7.83328 | 144° | 13km/h | 25747m | 5.8m/s | -49.7°C | 0.2% | 23.9hPa | 2.6V | 18:12:15 | 01:54:34 | 00:00:00 | |
| HSKMA3-T | 2026-09-02 00:12:06 | 51.41562 | 7.83321 | 126° | 15km/h | 25738m | 4.6m/s | -49.7°C | 0.1% | 23.9hPa | 2.5V | 18:12:15 | 01:54:32 | 00:00:00 | |
| DF8AY | 2026-09-02 00:12:06 | 51.41564 | 7.83316 | 114° | 13km/h | 25732m | 6.2m/s | -49.7°C | 0.1% | 23.9hPa | 2.5V | 18:12:15 | 01:54:31 | 00:00:00 | |
| DL8DAS-14 | 2026-09-02 00:12:06 | 51.41562 | 7.83321 | 125° | 13km/h | 25738m | 4.6m/s | -49.7°C | 0.8% | 23.9hPa | 2.6V | 00:00:00 | 00:00:00 | 00:00:00 | |
| DM0DOS-11 | 2026-09-02 00:12:05 | 51.41568 | 7.83301 | 158° | 9km/h | 25711m | 5.5m/s | -49.8°C | 3.4% | 24.1hPa | 2.6V | 08:30:00 | 01:54:27 | 00:00:00 | |
| AA1-15 | 2026-09-02 00:12:02 | 51.41566 | 7.83303 | 126° | 9km/h | 25717m | 5.9m/s | -49.8°C | 0.1% | 24hPa | 2.6V | 18:12:15 | 01:54:28 | 00:00:00 | |
| BIOWL1-15 | 2026-09-02 00:12:02 | 51.41573 | 7.83301 | 194° | 9km/h | 25701m | 5.4m/s | -49.8°C | 0.2% | 24.1hPa | 2.5V | 18:12:15 | 01:54:25 | 00:00:00 | |
| DL1NUX | 2026-09-02 00:12:02 | 51.41577 | 7.83303 | 206° | 7km/h | 25690m | 4.6m/s | -49.8°C | 3.4% | 24.1hPa | 2.5V | 08:30:00 | 01:54:23 | 00:00:00 | |
| DO2JMG | 2026-09-02 00:11:58 | 51.41575 | 7.83302 | 201° | 7km/h | 25696m | 5.6m/s | -49.8°C | 0.2% | 24.1hPa | 2.5V | 18:12:15 | 01:54:24 | 00:00:00 | |
| GOEST3-10 | 2026-09-02 00:11:58 | 51.41575 | 7.83302 | 202° | 9km/h | 25696m | 5.6m/s | -49.8°C | 3.4% | 24.1hPa | 2.5V | 00:00:00 | 00:00:00 | 00:00:00 | |
| DO2SHX-10 | 2026-09-02 00:11:57 | 51.41577 | 7.83303 | 207° | 7km/h | 25691m | 4.6m/s | -49.8°C | 3.4% | 24.1hPa | 2.5V | 00:00:00 | 01:54:23 | 00:00:00 | |
| DM0DOS-11 | 2026-09-02 00:11:56 | 51.41592 | 7.83302 | 157° | 9km/h | 25661m | 5.7m/s | -50°C | 3.4% | 24.2hPa | 2.5V | 08:30:00 | 01:54:17 | 00:00:00 | |
| HSKMA3-T | 2026-09-02 00:11:55 | 51.41580 | 7.83304 | 186° | 9km/h | 25681m | 5.6m/s | -49.9°C | 0.1% | 24.2hPa | 2.6V | 18:12:15 | 01:54:21 | 00:00:00 | |
| DF8AY | 2026-09-02 00:11:55 | 51.41586 | 7.83304 | 172° | 13km/h | 25670m | 4.4m/s | -49.9°C | 0.2% | 24.2hPa | 2.5V | 18:12:15 | 01:54:19 | 00:00:00 | |
| AA1-15 | 2026-09-02 00:11:51 | 51.41592 | 7.83302 | 157° | 9km/h | 25661m | 5.7m/s | -50°C | 0.2% | 24.2hPa | 2.5V | 18:12:15 | 01:54:17 | 00:00:00 | |
| DO2JMG | 2026-09-02 00:11:48 | 51.41597 | 7.83298 | 181° | 7km/h | 25641m | 5.8m/s | -50.1°C | 0.2% | 24.3hPa | 2.6V | 18:12:15 | 01:54:13 | 00:00:00 | |
| HSKMA3-T | 2026-09-02 00:11:45 | 51.41602 | 7.83300 | 208° | 13km/h | 25630m | 4.9m/s | -50.1°C | 0.2% | 24.4hPa | 2.5V | 18:12:15 | 01:54:11 | 00:00:00 | |
| DO2SHX-10 | 2026-09-02 00:11:45 | 51.41601 | 7.83300 | 209° | 15km/h | 25631m | 4.8m/s | -50.0°C | 3.5% | 24.3hPa | 2.5V | 00:00:00 | 01:54:11 | 00:00:00 | |
| DJ2KF-10 | 2026-09-02 00:11:44 | 51.41604 | 7.83303 | 221° | 13km/h | 25625m | 6.0m/s | -50.1°C | 3.5% | 24.4hPa | 2.5V | 00:00:00 | 01:54:10 | 08:30:00 | |
| GOEST3-10 | 2026-09-02 00:11:43 | 51.41607 | 7.83308 | 232° | 18km/h | 25620m | 5.0m/s | -50.1°C | 3.5% | 24.4hPa | 2.5V | 00:00:00 | 01:54:09 | 00:00:00 | |
| DL1NUX | 2026-09-02 00:11:42 | 51.41627 | 7.83337 | 211° | 13km/h | 25589m | 5.7m/s | -50.2°C | 3.5% | 24.5hPa | 2.5V | 08:30:00 | 01:54:03 | 00:00:00 | |
| AA1-15 | 2026-09-02 00:11:41 | 51.41616 | 7.83325 | 223° | 20km/h | 25604m | 5.9m/s | -50.2°C | 0.2% | 24.5hPa | 2.6V | 18:12:15 | 01:54:06 | 00:00:00 | |
| DF8AY | 2026-09-02 00:11:39 | 51.41620 | 7.83330 | 216° | 20km/h | 25599m | 4.7m/s | -50.2°C | 0.2% | 24.5hPa | 2.5V | 18:12:15 | 01:54:05 | 00:00:00 | |
| DO2JMG | 2026-09-02 00:11:37 | 51.41627 | 7.83337 | 212° | 13km/h | 25589m | 5.7m/s | -50.2°C | 0.2% | 24.5hPa | 2.5V | 18:12:15 | 01:54:03 | 00:00:00 | |
| BIOWL1-15 | 2026-09-02 00:11:37 | 51.41633 | 7.83343 | 204° | 9km/h | 25564m | 5m/s | -50.3°C | 0.2% | 24.6hPa | 2.5V | 18:12:15 | 01:53:58 | 00:00:00 | |
| HSKMA3-T | 2026-09-02 00:11:35 | 51.41630 | 7.83340 | 221° | 4km/h | 25579m | 4.2m/s | -50.3°C | 0.2% | 24.6hPa | 2.6V | 18:12:15 | 01:54:01 | 00:00:00 | |
| DD1CC9-15 | 2026-09-02 00:11:34 | 51.41630 | 7.83340 | 222° | 4km/h | 25579m | 4.2m/s | -50.3°C | 0.9% | 24.6hPa | 2.6V | 00:00:00 | 00:00:00 | 00:00:00 | |
| DL1XH-15 | 2026-09-02 00:11:33 | 51.41639 | 7.83348 | 211° | 15km/h | 25554m | 5.7m/s | -50.3°C | 3.5% | 24.6hPa | 2.6V | 08:30:00 | 01:53:56 | 00:00:00 | |
| DF8AY | 2026-09-02 00:11:30 | 51.41642 | 7.83351 | 214° | 15km/h | 25548m | 5.5m/s | -50.4°C | 0.2% | 24.7hPa | 2.6V | 18:12:15 | 01:53:55 | 00:00:00 | |
| DO2JMG | 2026-09-02 00:11:27 | 51.41648 | 7.83357 | 203° | 16km/h | 25539m | 4.7m/s | -50.4°C | 0.3% | 24.7hPa | 2.5V | 18:12:15 | 01:53:53 | 00:00:00 | |
| DL1XH1-15 | 2026-09-02 00:11:27 | 51.41668 | 7.83360 | 176° | 9km/h | 25513m | 5.3m/s | -50.4°C | 3.6% | 24.8hPa | 2.5V | 08:30:00 | 01:53:48 | 00:00:00 | |
| DL1XH-west | 2026-09-02 00:11:26 | 51.41653 | 7.83359 | 195° | 18km/h | 25533m | 6.1m/s | -50.4°C | 0.2% | 24.7hPa | 2.5V | 18:12:15 | 01:53:52 | 00:00:00 | |
| HSKMA3-T | 2026-09-02 00:11:25 | 51.41657 | 7.83360 | 186° | 20km/h | 25528m | 4.9m/s | -50.4°C | 0.2% | 24.7hPa | 2.6V | 18:12:15 | 01:53:51 | 00:00:00 | |
| BIOWL1-15 | 2026-09-02 00:11:24 | 51.41662 | 7.83361 | 179° | 16km/h | 25523m | 4m/s | -50.4°C | 0.2% | 24.8hPa | 2.6V | 18:12:15 | 01:53:50 | 00:00:00 | |
| GOEST3-10 | 2026-09-02 00:11:23 | 51.41666 | 7.83360 | 177° | 7km/h | 25518m | 5.7m/s | -50.3°C | 3.6% | 24.7hPa | 2.5V | 00:00:00 | 01:53:49 | 00:00:00 | |
| DL1NUX | 2026-09-02 00:11:22 | 51.41678 | 7.83363 | 200° | 13km/h | 25487m | 4.7m/s | -50.2°C | 3.5% | 24.9hPa | 2.5V | 08:30:00 | 01:53:43 | 00:00:00 | |
| DO2JMG | 2026-09-02 00:11:18 | 51.41678 | 7.83363 | 201° | 13km/h | 25487m | 4.7m/s | -50.2°C | 0.2% | 24.9hPa | 2.5V | 18:12:15 | 01:53:43 | 00:00:00 | |
| DL1XH1-15 | 2026-09-02 00:11:18 | 51.41700 | 7.83379 | 198° | 27km/h | 25461m | 5.3m/s | -50.1°C | 3.5% | 25hPa | 2.5V | 08:30:00 | 01:53:38 | 00:00:00 | |
| DL1XH-west | 2026-09-02 00:11:16 | 51.41682 | 7.83365 | 206° | 15km/h | 25482m | 6m/s | -50.2°C | 0.2% | 25hPa | 2.5V | 18:12:15 | 01:53:42 | 00:00:00 | |
| BIOWL1-15 | 2026-09-02 00:11:15 | 51.41700 | 7.83379 | 198° | 27km/h | 25461m | 5.3m/s | -50.1°C | 0.2% | 25hPa | 2.5V | 18:12:15 | 01:53:38 | 00:00:00 | |
| HSKMA3-T | 2026-09-02 00:11:15 | 51.41689 | 7.83372 | 207° | 20km/h | 25472m | 4.4m/s | -50.2°C | 0.2% | 25hPa | 2.6V | 18:12:15 | 01:53:40 | 00:00:00 | |
| DO2SHX-10 | 2026-09-02 00:11:15 | 51.41685 | 7.83368 | 210° | 24km/h | 25476m | 4.7m/s | -50.1°C | 3.5% | 24.9hPa | 2.5V | 00:00:00 | 01:53:41 | 00:00:00 | |
| DJ2KF-10 | 2026-09-02 00:11:14 | 51.41689 | 7.83371 | 207° | 16km/h | 25472m | 4.3m/s | -50.1°C | 3.5% | 24.9hPa | 2.5V | 00:00:00 | 01:53:40 | 00:00:00 | |
| GOEST3-10 | 2026-09-02 00:11:13 | 51.41694 | 7.83375 | 203° | 24km/h | 25467m | 6.0m/s | -50.1°C | 3.5% | 24.9hPa | 2.5V | 00:00:00 | 01:53:39 | 00:00:00 | |
| DL3AQ-11 | 2026-09-02 00:11:12 | 51.41707 | 7.83382 | 195° | 26km/h | 25456m | 4.0m/s | -50.1°C | 0.8% | 25.0hPa | 2.5V | 00:00:00 | 00:00:00 | 00:00:00 | |
| DJ2DS-15 | 2026-09-02 00:11:11 | 51.41706 | 7.83382 | 196° | 15km/h | 25456m | 4.0m/s | -50.0°C | 3.5% | 25.0hPa | 2.5V | 00:00:00 | 01:53:37 | 00:00:00 | |
| DD8BA-10 | 2026-09-02 00:11:10 | 51.41712 | 7.83384 | 196° | 11km/h | 25452m | 4.5m/s | -50.1°C | 3.5% | 25.0hPa | 2.5V | 00:00:00 | 00:00:00 | 00:00:00 | |
| DL1NUX | 2026-09-02 00:11:09 | 51.41723 | 7.83389 | 191° | 5km/h | 25436m | 4.7m/s | -50.1°C | 3.5% | 25.1hPa | 2.5V | 08:30:00 | 01:53:33 | 00:00:00 | |
| DD1CC1-15 | 2026-09-02 00:11:08 | 51.41718 | 7.83387 | 196° | 16km/h | 25447m | 5.7m/s | -50.1°C | 0.9% | 25.1hPa | 2.5V | 00:00:00 | 00:00:00 | 00:00:00 | |
| DL1XH1-15 | 2026-09-02 00:11:07 | 51.41734 | 7.83389 | 187° | 13km/h | 25410m | 5.9m/s | -50.2°C | 3.5% | 25.2hPa | 2.5V | 08:30:00 | 01:53:28 | 00:00:00 | |
| DF8AY | 2026-09-02 00:11:06 | 51.41724 | 7.83389 | 180° | 5km/h | 25431m | 5.2m/s | -50.2°C | 0.2% | 25.1hPa | 2.5V | 18:12:15 | 01:53:32 | 00:00:00 | |
| DL1XH-west | 2026-09-02 00:11:05 | 51.41726 | 7.83389 | 178° | 7km/h | 25426m | 5.6m/s | -50.2°C | 0.2% | 25.1hPa | 2.5V | 18:12:15 | 01:53:31 | 00:00:00 | |
| HSKMA3-T | 2026-09-02 00:11:05 | 51.41728 | 7.83389 | 178° | 11km/h | 25421m | 4.9m/s | -50.2°C | 0.2% | 25.2hPa | 2.6V | 18:12:15 | 01:53:30 | 00:00:00 | |
| DM0DOS-11 | 2026-09-02 00:11:04 | 51.41737 | 7.83390 | 190° | 15km/h | 25405m | 4.7m/s | -50.2°C | 3.5% | 25.2hPa | 2.5V | 08:30:00 | 01:53:27 | 00:00:00 | |
| BIOWL1-15 | 2026-09-02 00:11:03 | 51.41741 | 7.83391 | 188° | 18km/h | 25401m | 4.2m/s | -50.2°C | 0.2% | 25.2hPa | 2.5V | 18:12:15 | 01:53:26 | 00:00:00 | |
| GOEST3-10 | 2026-09-02 00:11:03 | 51.41731 | 7.83389 | 183° | 16km/h | 25416m | 4.8m/s | -50.2°C | 3.5% | 25.1hPa | 2.6V | 00:00:00 | 01:53:29 | 00:00:00 | |
| DL1NUX | 2026-09-02 00:11:02 | 51.41758 | 7.83392 | 173° | 24km/h | 25385m | 4.4m/s | -50.2°C | 3.5% | 25.3hPa | 2.6V | 08:30:00 | 01:53:23 | 00:00:00 | |
| DL3AQ-11 | 2026-09-02 00:10:59 | 51.41752 | 7.83392 | 178° | 24km/h | 25390m | 5.6m/s | -50.2°C | 0.8% | 25.3hPa | 2.6V | 00:00:00 | 00:00:00 | 00:00:00 | |
| GOEST3-10 | 2026-09-02 00:10:58 | 51.41751 | 7.83392 | 179° | 20km/h | 25390m | 5.5m/s | -50.2°C | 3.5% | 25.2hPa | 2.6V | 00:00:00 | 00:00:00 | 00:00:00 | |
| DL1XH1-15 | 2026-09-02 00:10:57 | 51.41776 | 7.83380 | 140° | 13km/h | 25359m | 5.9m/s | -50.2°C | 3.5% | 25.4hPa | 2.6V | 08:30:00 | 01:53:18 | 00:00:00 | |
| AA1-15 | 2026-09-02 00:10:56 | 51.41763 | 7.83390 | 169° | 20km/h | 25380m | 5.2m/s | -50.2°C | 0.2% | 25.3hPa | 2.5V | 18:12:15 | 01:53:22 | 00:00:00 | |
| DL1XH-west | 2026-09-02 00:10:55 | 51.41768 | 7.83388 | 163° | 16km/h | 25375m | 5.5m/s | -50.2°C | 0.2% | 25.3hPa | 2.5V | 18:12:15 | 01:53:21 | 00:00:00 | |
| HSKMA3-T | 2026-09-02 00:10:55 | 51.41771 | 7.83386 | 151° | 13km/h | 25369m | 4.5m/s | -50.2°C | 0.2% | 25.4hPa | 2.5V | 18:12:15 | 01:53:20 | 00:00:00 | |
| DM0DOS-11 | 2026-09-02 00:10:54 | 51.41779 | 7.83377 | 143° | 15km/h | 25354m | 4.7m/s | -50.2°C | 3.5% | 25.4hPa | 2.5V | 08:30:00 | 01:53:17 | 00:00:00 | |
| DO2SHX-10 | 2026-09-02 00:10:54 | 51.41771 | 7.83386 | 151° | 13km/h | 25370m | 4.5m/s | -50.2°C | 3.5% | 25.3hPa | 2.5V | 00:00:00 | 01:53:20 | 00:00:00 | |
| DL1XH-15 | 2026-09-02 00:10:53 | 51.41782 | 7.83374 | 151° | 15km/h | 25350m | 4.7m/s | -50.2°C | 3.5% | 25.4hPa | 2.5V | 08:30:00 | 01:53:16 | 00:00:00 | |
| BIOWL1-15 | 2026-09-02 00:10:49 | 51.41785 | 7.83372 | 161° | 13km/h | 25345m | 4.8m/s | -50.2°C | 0.2% | 25.4hPa | 2.5V | 18:12:15 | 01:53:15 | 00:00:00 | |
| DB0UT-7 | 2026-09-02 00:10:49 | 51.41784 | 7.83372 | 162° | 18km/h | 25345m | 4.8m/s | -50.2°C | 3.5% | 25.4hPa | 2.6V | 00:00:00 | 01:53:15 | 00:00:00 | |
| DO2SHX-10 | 2026-09-02 00:10:48 | 51.41788 | 7.83371 | 175° | 13km/h | 25340m | 5.8m/s | -50.1°C | 3.5% | 25.4hPa | 2.6V | 00:00:00 | 01:53:14 | 00:00:00 | |
| DL1XH1-15 | 2026-09-02 00:10:47 | 51.41816 | 7.83368 | 162° | 24km/h | 25310m | 5.3m/s | -50.2°C | 3.5% | 25.6hPa | 2.6V | 08:30:00 | 01:53:08 | 00:00:00 | |
| DL1XH-west | 2026-09-02 00:10:45 | 51.41799 | 7.83372 | 182° | 20km/h | 25325m | 5.7m/s | -50.2°C | 0.2% | 25.5hPa | 2.5V | 18:12:15 | 01:53:11 | 00:00:00 | |
| DM0DOS-11 | 2026-09-02 00:10:45 | 51.41821 | 7.83365 | 153° | 20km/h | 25304m | 5.4m/s | -50.2°C | 3.5% | 25.6hPa | 2.6V | 08:30:00 | 01:53:07 | 00:00:00 | |
| DO2JMG | 2026-09-02 00:10:45 | 51.41804 | 7.83372 | 176° | 24km/h | 25319m | 5.1m/s | -50.2°C | 0.2% | 25.6hPa | 2.5V | 18:12:15 | 01:53:10 | 00:00:00 | |
| DO3MHA-11 | 2026-09-02 00:10:45 | 51.41804 | 7.83371 | 176° | 20km/h | 25319m | 5.1m/s | -50.1°C | 3.5% | 25.5hPa | 2.5V | 00:00:00 | 01:53:10 | 00:00:00 | |
| DJ2KF-10 | 2026-09-02 00:10:44 | 51.41804 | 7.83371 | 176° | 18km/h | 25319m | 5.1m/s | -50.1°C | 3.5% | 25.5hPa | 2.5V | 00:00:00 | 01:53:10 | 00:00:00 | |
| DL1XH-15 | 2026-09-02 00:10:43 | 51.41825 | 7.83360 | 143° | 18km/h | 25299m | 4.7m/s | -50.2°C | 3.5% | 25.6hPa | 2.5V | 08:30:00 | 01:53:06 | 00:00:00 | |
| HSKMA3-T | 2026-09-02 00:10:43 | 51.41810 | 7.83370 | 169° | 24km/h | 25314m | 4.1m/s | -50.2°C | 0.1% | 25.6hPa | 2.5V | 18:12:15 | 01:53:09 | 00:00:00 | |
| BIOWL1-15 | 2026-09-02 00:10:38 | 51.41833 | 7.83350 | 135° | 20km/h | 25289m | 5.9m/s | -50.2°C | 0.2% | 25.6hPa | 2.5V | 18:12:15 | 01:53:04 | 00:00:00 | |
| AA1-15 | 2026-09-02 00:10:34 | 51.41847 | 7.83328 | 138° | 16km/h | 25269m | 5.2m/s | -50.3°C | 0.2% | 25.7hPa | 2.5V | 18:12:15 | 01:53:00 | 00:00:00 | |
| DO2JMG | 2026-09-02 00:10:34 | 51.41850 | 7.83325 | 145° | 15km/h | 25264m | 3.8m/s | -50.3°C | 0.2% | 25.8hPa | 2.5V | 18:12:15 | 01:52:59 | 00:00:00 | |
| DL1XH-15 | 2026-09-02 00:10:33 | 51.41862 | 7.83316 | 164° | 22km/h | 25249m | 4.7m/s | -50.4°C | 3.5% | 25.8hPa | 2.5V | 08:30:00 | 01:52:56 | 00:00:00 | |
| HSKMA3-T | 2026-09-02 00:10:32 | 51.41853 | 7.83321 | 154° | 16km/h | 25260m | 4.7m/s | -50.4°C | 0.2% | 25.8hPa | 2.6V | 18:12:15 | 01:52:58 | 00:00:00 | |
| DF8AY | 2026-09-02 00:10:29 | 51.41868 | 7.83314 | 166° | 20km/h | 25244m | 4.5m/s | -50.4°C | 0.2% | 25.8hPa | 2.5V | 18:12:15 | 01:52:55 | 00:00:00 | |
| BIOWL1-15 | 2026-09-02 00:10:27 | 51.41897 | 7.83265 | 126° | 13km/h | 25185m | 5.9m/s | -50.3°C | 0.2% | 26.1hPa | 2.5V | 18:12:15 | 01:52:43 | 00:00:00 | |
| GOEST3-10 | 2026-09-02 00:10:27 | 51.41877 | 7.83310 | 163° | 15km/h | 25234m | 5.0m/s | -50.3°C | 3.5% | 25.9hPa | 2.5V | 00:00:00 | 00:00:00 | 00:00:00 | |
| DO2KSM | 2026-09-02 00:10:26 | 51.41877 | 7.83310 | 163° | 15km/h | 25234m | 5.1m/s | -50.4°C | 0.8% | 25.9hPa | 2.5V | 00:00:00 | 00:00:00 | 00:00:00 | |
| DL1XH1-15 | 2026-09-02 00:10:25 | 51.41891 | 7.83294 | 124° | 16km/h | 25210m | 4.9m/s | -50.3°C | 3.5% | 26hPa | 2.5V | 08:30:00 | 01:52:48 | 00:00:00 | |
| DO2SHX-10 | 2026-09-02 00:10:25 | 51.41883 | 7.83306 | 152° | 15km/h | 25225m | 5.1m/s | -50.3°C | 3.5% | 25.9hPa | 2.6V | 00:00:00 | 01:52:51 | 00:00:00 | |
| DM0DOS-11 | 2026-09-02 00:10:24 | 51.41893 | 7.83288 | 112° | 16km/h | 25204m | 6m/s | -50.3°C | 3.5% | 26hPa | 2.6V | 08:30:00 | 01:52:47 | 00:00:00 | |
| DL1XH-15 | 2026-09-02 00:10:24 | 51.41895 | 7.83282 | 99° | 16km/h | 25199m | 5.1m/s | -50.3°C | 3.5% | 26.1hPa | 2.6V | 08:30:00 | 01:52:46 | 00:00:00 | |
| DL1XH-west | 2026-09-02 00:10:24 | 51.41886 | 7.83303 | 145° | 15km/h | 25219m | 5.4m/s | -50.3°C | 0.2% | 25.9hPa | 2.5V | 18:12:15 | 01:52:50 | 00:00:00 | |
| DO2JMG | 2026-09-02 00:10:22 | 51.41891 | 7.83294 | 125° | 16km/h | 25210m | 4.9m/s | -50.3°C | 0.2% | 26hPa | 2.5V | 18:12:15 | 01:52:48 | 00:00:00 | |
| HSKMA3-T | 2026-09-02 00:10:22 | 51.41893 | 7.83288 | 112° | 16km/h | 25204m | 6m/s | -50.3°C | 0.2% | 26hPa | 2.6V | 18:12:15 | 01:52:47 | 00:00:00 | |
| DF8AY | 2026-09-02 00:10:19 | 51.41910 | 7.83255 | 137° | 5km/h | 25160m | 5.2m/s | -50.4°C | 0.2% | 26.2hPa | 2.5V | 18:12:15 | 01:52:38 | 00:00:00 | |
| DD1CC2-15 | 2026-09-02 00:10:18 | 51.41895 | 7.83275 | 99° | 15km/h | 25195m | 3.8m/s | -50.3°C | 0.9% | 26.1hPa | 2.5V | 00:00:00 | 00:00:00 | 00:00:00 | |
| DL1XH1-15 | 2026-09-02 00:10:17 | 51.41910 | 7.83255 | 136° | 5km/h | 25160m | 5.2m/s | -50.4°C | 3.5% | 26.2hPa | 2.5V | 08:30:00 | 01:52:38 | 00:00:00 | |
| BIOWL1-15 | 2026-09-02 00:10:16 | 51.41900 | 7.83262 | 150° | 13km/h | 25180m | 4.8m/s | -50.3°C | 0.2% | 26.1hPa | 2.6V | 18:12:15 | 01:52:42 | 00:00:00 | |
| DO3DL | 2026-09-02 00:10:16 | 51.41900 | 7.83262 | 151° | 13km/h | 25180m | 4.8m/s | -50.3°C | 0.8% | 26.1hPa | 2.5V | 00:00:00 | 00:00:00 | 00:00:00 | |
| DM0DOS-11 | 2026-09-02 00:10:14 | 51.41911 | 7.83253 | 109° | 5km/h | 25155m | 4.7m/s | -50.4°C | 3.5% | 26.2hPa | 2.5V | 08:30:00 | 01:52:37 | 00:00:00 | |
| DL1XH-west | 2026-09-02 00:10:14 | 51.41906 | 7.83258 | 165° | 13km/h | 25171m | 5.4m/s | -50.4°C | 0.2% | 26.1hPa | 2.5V | 18:12:15 | 01:52:40 | 00:00:00 | |
| AA1-15 | 2026-09-02 00:10:13 | 51.41909 | 7.83257 | 160° | 9km/h | 25165m | 5.4m/s | -50.4°C | 0.2% | 26.2hPa | 2.5V | 18:12:15 | 01:52:39 | 00:00:00 | |
| DO2SHX-10 | 2026-09-02 00:10:13 | 51.41908 | 7.83257 | 160° | 7km/h | 25166m | 5.4m/s | -50.3°C | 3.5% | 26.1hPa | 2.6V | 00:00:00 | 01:52:39 | 00:00:00 | |
| DL1XH-15 | 2026-09-02 00:10:12 | 51.41911 | 7.83251 | 105° | 7km/h | 25150m | 5.2m/s | -50.4°C | 3.5% | 26.2hPa | 2.6V | 08:30:00 | 01:52:36 | 00:00:00 | |
| DO2JMG | 2026-09-02 00:10:11 | 51.41911 | 7.83253 | 110° | 5km/h | 25155m | 4.7m/s | -50.4°C | 0.2% | 26.2hPa | 2.5V | 18:12:15 | 01:52:37 | 00:00:00 | |
| HSKMA3-T | 2026-09-02 00:10:10 | 51.41911 | 7.83251 | 106° | 7km/h | 25150m | 5.2m/s | -50.4°C | 0.2% | 26.2hPa | 2.6V | 18:12:15 | 01:52:36 | 00:00:00 | |
| DO2SHX-10 | 2026-09-02 00:10:10 | 51.41911 | 7.83251 | 106° | 9km/h | 25150m | 5.1m/s | -50.4°C | 3.5% | 26.2hPa | 2.6V | 00:00:00 | 01:52:36 | 00:00:00 | |
| DL1NUX | 2026-09-02 00:10:09 | 51.41913 | 7.83239 | 90° | 13km/h | 25135m | 4.7m/s | -50.4°C | 3.5% | 26.3hPa | 2.5V | 08:30:00 | 01:52:33 | 00:00:00 | |
| DO1YAY-16 | 2026-09-02 00:10:09 | 51.41912 | 7.83247 | 106° | 9km/h | 25145m | 5.4m/s | -50.4°C | 0.8% | 26.2hPa | 2.6V | 00:00:00 | 00:00:00 | 00:00:00 | |
| AU51GT2 | 2026-09-02 00:10:08 | 51.41913 | 7.83239 | 90° | 11km/h | 25136m | 4.7m/s | -50.4°C | 0.8% | 26.3hPa | 2.6V | 00:00:00 | 00:00:00 | 00:00:00 | |
| DL1XH1-15 | 2026-09-02 00:10:07 | 51.41909 | 7.83217 | 95° | 7km/h | 25110m | 5.6m/s | -50.5°C | 3.5% | 26.4hPa | 2.6V | 08:30:00 | 01:52:28 | 00:00:00 | |
| DO2SHX-10 | 2026-09-02 00:10:07 | 51.41913 | 7.83238 | 91° | 13km/h | 25136m | 4.6m/s | -50.4°C | 0% | 26.3hPa | 2.5V | 00:00:00 | 01:52:33 | 00:00:00 | |
| S3001 | 2026-09-02 00:10:06 | 51.41913 | 7.83234 | 76° | 11km/h | 25130m | 5.8m/s | -50.4°C | 0.8% | -1.0hPa | 2.5V | 00:00:00 | 00:00:00 | 00:00:00 | |
| BIOWL9-15 | 2026-09-02 00:10:05 | 51.41912 | 7.83229 | 65° | 13km/h | 25125m | 4.7m/s | -50.4°C | 0.8% | 26.3hPa | 2.5V | 00:00:00 | 00:00:00 | 00:00:00 | |
| DM0DOS-11 | 2026-09-02 00:10:04 | 51.41909 | 7.83214 | 114° | 7km/h | 25105m | 4.8m/s | -50.6°C | 3.5% | 26.4hPa | 2.5V | 08:30:00 | 01:52:27 | 00:00:00 | |
| DL1XH-west | 2026-09-02 00:10:04 | 51.41910 | 7.83224 | 65° | 11km/h | 25121m | 3.7m/s | -50.5°C | 0.2% | 26.4hPa | 2.6V | 18:12:15 | 01:52:30 | 00:00:00 | |
| DF8AY | 2026-09-02 00:10:03 | 51.41909 | 7.83220 | 74° | 9km/h | 25116m | 5.5m/s | -50.5°C | 0.2% | 26.4hPa | 2.6V | 18:12:15 | 01:52:29 | 00:00:00 | |
| AA1-15 | 2026-09-02 00:10:02 | 51.41909 | 7.83217 | 96° | 7km/h | 25111m | 5.6m/s | -50.5°C | 0.2% | 26.4hPa | 2.6V | 18:12:15 | 01:52:28 | 00:00:00 | |
| DL1XH-15 | 2026-09-02 00:10:02 | 51.41910 | 7.83211 | 113° | 5km/h | 25100m | 5m/s | -50.6°C | 3.6% | 26.4hPa | 2.5V | 08:30:00 | 01:52:26 | 00:00:00 | |
| DL1NUX | 2026-09-02 00:10:02 | 51.41910 | 7.83204 | 86° | 7km/h | 25086m | 4.3m/s | -50.6°C | 3.6% | 26.5hPa | 2.5V | 08:30:00 | 01:52:23 | 00:00:00 | |
| HSKMA3-T | 2026-09-02 00:10:00 | 51.41910 | 7.83211 | 113° | 5km/h | 25100m | 5m/s | -50.6°C | 0.2% | 26.4hPa | 2.5V | 18:12:15 | 01:52:26 | 00:00:00 | |
| DD8BA-10 | 2026-09-02 00:10:00 | 51.41910 | 7.83211 | 114° | 11km/h | 25101m | 4.9m/s | -50.6°C | 3.6% | 26.4hPa | 2.5V | 00:00:00 | 00:00:00 | 08:30:00 | |
| DL1XH1-15 | 2026-09-02 00:09:57 | 51.41910 | 7.83180 | 71° | 15km/h | 25061m | 5.9m/s | -50.6°C | 3.5% | 26.6hPa | 2.5V | 08:30:00 | 01:52:18 | 00:00:00 | |
| BIOWL1-15 | 2026-09-02 00:09:54 | 51.41911 | 7.83191 | 94° | 15km/h | 25071m | 4.5m/s | -50.7°C | 0.2% | 26.5hPa | 2.6V | 18:12:15 | 01:52:20 | 00:00:00 | |
| DL1XH-west | 2026-09-02 00:09:53 | 51.41911 | 7.83186 | 84° | 15km/h | 25066m | 5m/s | -50.6°C | 0.2% | 26.6hPa | 2.5V | 18:12:15 | 01:52:19 | 00:00:00 | |
| SO1NDE-10 | 2026-09-02 00:09:53 | 51.41911 | 7.83186 | 84° | 11km/h | 25067m | 4.9m/s | -50.6°C | 3.6% | 26.5hPa | 2.5V | 00:00:00 | 01:52:19 | 00:00:00 | |
| DL1XH-15 | 2026-09-02 00:09:52 | 51.41907 | 7.83169 | 60° | 15km/h | 25052m | 3.9m/s | -50.6°C | 3.6% | 26.6hPa | 2.5V | 08:30:00 | 01:52:16 | 00:00:00 | |
| AA1-15 | 2026-09-02 00:09:52 | 51.41909 | 7.83174 | 60° | 15km/h | 25056m | 4.6m/s | -50.6°C | 0.2% | 26.6hPa | 2.5V | 18:12:15 | 01:52:17 | 00:00:00 | |
| HSKMA3-T | 2026-09-02 00:09:50 | 51.41907 | 7.83169 | 60° | 15km/h | 25052m | 3.9m/s | -50.6°C | 0.2% | 26.6hPa | 2.5V | 18:12:15 | 01:52:16 | 00:00:00 | |
| DD8BA-10 | 2026-09-02 00:09:50 | 51.41907 | 7.83169 | 61° | 9km/h | 25052m | 3.8m/s | -50.6°C | 3.6% | 26.6hPa | 2.6V | 00:00:00 | 00:00:00 | 00:00:00 | |
| DL1NUX | 2026-09-02 00:09:49 | 51.41906 | 7.83156 | 121° | 9km/h | 25037m | 4.8m/s | -50.7°C | 3.6% | 26.7hPa | 2.6V | 08:30:00 | 01:52:13 | 00:00:00 | |
| DF7PN | 2026-09-02 00:09:49 | 51.41905 | 7.83160 | 98° | 9km/h | 25042m | 5.5m/s | -50.7°C | 0.8% | 26.7hPa | 2.5V | 00:00:00 | 00:00:00 | 00:00:00 | |
| DL1XH1-15 | 2026-09-02 00:09:47 | 51.41912 | 7.83143 | 118° | 7km/h | 25012m | 5.4m/s | -50.8°C | 3.6% | 26.8hPa | 2.5V | 08:30:00 | 01:52:08 | 00:00:00 | |
| DO2SHX-10 | 2026-09-02 00:09:47 | 51.41906 | 7.83156 | 122° | 9km/h | 25037m | 4.8m/s | -50.7°C | 3.6% | 26.6hPa | 2.6V | 00:00:00 | 01:52:13 | 00:00:00 | |
| DM0DOS-11 | 2026-09-02 00:09:46 | 51.41914 | 7.83136 | 103° | 11km/h | 25002m | 4m/s | -50.8°C | 3.6% | 26.9hPa | 2.6V | 08:30:00 | 01:52:06 | 00:00:00 | |
| EDDB2-11 | 2026-09-02 00:09:45 | 51.41909 | 7.83150 | 127° | 7km/h | 25027m | 5.9m/s | -50.7°C | 0.9% | 26.8hPa | 2.6V | 00:00:00 | 00:00:00 | 00:00:00 | |
| DL1XH-west | 2026-09-02 00:09:43 | 51.41913 | 7.83140 | 117° | 9km/h | 25006m | 5.1m/s | -50.8°C | 0.2% | 26.8hPa | 2.6V | 18:12:15 | 01:52:07 | 00:00:00 | |
| AA1-15 | 2026-09-02 00:09:40 | 51.41914 | 7.83136 | 104° | 11km/h | 25002m | 4m/s | -50.8°C | 0.3% | 26.9hPa | 2.6V | 18:12:15 | 01:52:06 | 00:00:00 | |
| HSKMA3-T | 2026-09-02 00:09:39 | 51.41914 | 7.83132 | 86° | 13km/h | 24998m | 4.3m/s | -50.7°C | 0.3% | 26.9hPa | 2.5V | 18:12:15 | 01:52:05 | 00:00:00 | |
| DL3AQ-11 | 2026-09-02 00:09:39 | 51.41913 | 7.83126 | 70° | 15km/h | 24993m | 6.3m/s | -50.7°C | 0.9% | 26.9hPa | 2.5V | 00:00:00 | 00:00:00 | 00:00:00 | |
| DO2SHX-10 | 2026-09-02 00:09:38 | 51.41913 | 7.83126 | 71° | 16km/h | 24993m | 6.2m/s | -50.7°C | 3.6% | 26.8hPa | 2.5V | 00:00:00 | 01:52:04 | 00:00:00 | |
| DL1XH1-15 | 2026-09-02 00:09:37 | 51.41903 | 7.83091 | 92° | 9km/h | 24962m | 4.6m/s | -50.7°C | 3.6% | 27hPa | 2.5V | 08:30:00 | 01:51:58 | 00:00:00 | |
| GOEST3-10 | 2026-09-02 00:09:37 | 51.41911 | 7.83119 | 59° | 16km/h | 24987m | 5.2m/s | -50.7°C | 3.6% | 26.8hPa | 2.5V | 00:00:00 | 00:00:00 | 08:30:00 | |
| DJ8HS-15 | 2026-09-02 00:09:36 | 51.41908 | 7.83113 | 57° | 9km/h | 24982m | 4.6m/s | -50.6°C | 3.6% | 26.9hPa | 2.6V | 00:00:00 | 01:52:02 | 08:30:00 | |
| DF8AY | 2026-09-02 00:09:36 | 51.41908 | 7.83113 | 56° | 20km/h | 24982m | 4.6m/s | -50.7°C | 0.3% | 26.9hPa | 2.6V | 18:12:15 | 01:52:02 | 00:00:00 | |
| S3001 | 2026-09-02 00:09:35 | 51.41906 | 7.83106 | 59° | 18km/h | 24977m | 5.6m/s | -50.7°C | 0.8% | -1.0hPa | 2.6V | 00:00:00 | 00:00:00 | 00:00:00 | |
| HTAHTA | 2026-09-02 00:09:34 | 51.41903 | 7.83095 | 81° | 11km/h | 24966m | 4.4m/s | -50.7°C | 0.9% | 27.0hPa | 2.6V | 00:00:00 | 00:00:00 | 00:00:00 | |
| DO3DL | 2026-09-02 00:09:33 | 51.41903 | 7.83095 | 83° | 11km/h | 24966m | 4.4m/s | -50.7°C | 0.9% | 27.0hPa | 2.6V | 00:00:00 | 00:00:00 | 00:00:00 | |
| BIOWL1-15 | 2026-09-02 00:09:33 | 51.41906 | 7.83067 | 81° | 9km/h | 24921m | 6.2m/s | -50.7°C | 0.2% | 27.2hPa | 2.6V | 18:12:15 | 01:51:50 | 00:00:00 | |
| DL1XH-15 | 2026-09-02 00:09:32 | 51.41903 | 7.83085 | 84° | 5km/h | 24951m | 5m/s | -50.7°C | 3.6% | 27.1hPa | 2.6V | 08:30:00 | 01:51:56 | 00:00:00 | |
| AA1-15 | 2026-09-02 00:09:29 | 51.41903 | 7.83080 | 108° | 7km/h | 24942m | 5.1m/s | -50.7°C | 0.3% | 27.1hPa | 2.5V | 18:12:15 | 01:51:54 | 00:00:00 | |
| DL1NUX | 2026-09-02 00:09:29 | 51.41904 | 7.83077 | 121° | 9km/h | 24936m | 5.9m/s | -50.7°C | 3.6% | 27.1hPa | 2.5V | 08:30:00 | 01:51:53 | 00:00:00 | |
| HSKMA3-T | 2026-09-02 00:09:29 | 51.41903 | 7.83083 | 95° | 5km/h | 24947m | 4.4m/s | -50.7°C | 0.3% | 27.1hPa | 2.6V | 18:12:15 | 01:51:55 | 00:00:00 | |
| DL1XH1-15 | 2026-09-02 00:09:29 | 51.41904 | 7.83060 | 53° | 11km/h | 24911m | 4.2m/s | -50.7°C | 3.6% | 27.2hPa | 2.5V | 08:30:00 | 01:51:48 | 00:00:00 | |
| DO2SHX-10 | 2026-09-02 00:09:29 | 51.41905 | 7.83074 | 121° | 9km/h | 24931m | 4.7m/s | -50.6°C | 3.6% | 27.1hPa | 2.6V | 00:00:00 | 01:51:52 | 00:00:00 | |
| DM0DOS-11 | 2026-09-02 00:09:28 | 51.41901 | 7.83051 | 94° | 5km/h | 24895m | 5.2m/s | -50.7°C | 3.6% | 27.3hPa | 2.6V | 08:30:00 | 01:51:45 | 00:00:00 | |
| DF8AY | 2026-09-02 00:09:28 | 51.41906 | 7.83071 | 103° | 9km/h | 24926m | 4.8m/s | -50.7°C | 0.3% | 27.2hPa | 2.6V | 18:12:15 | 01:51:51 | 00:00:00 | |
| BIOWL1-15 | 2026-09-02 00:09:22 | 51.41904 | 7.83060 | 54° | 11km/h | 24911m | 4.2m/s | -50.7°C | 0.3% | 27.2hPa | 2.5V | 18:12:15 | 01:51:48 | 00:00:00 | |
| DL1XH-west | 2026-09-02 00:09:19 | 51.41901 | 7.83051 | 95° | 5km/h | 24895m | 5.2m/s | -50.7°C | 0.3% | 27.3hPa | 2.6V | 18:12:15 | 01:51:45 | 00:00:00 | |
| DB0UT-7 | 2026-09-02 00:09:19 | 51.41901 | 7.83051 | 95° | 5km/h | 24896m | 5.1m/s | -50.7°C | 3.6% | 27.2hPa | 2.5V | 00:00:00 | 00:00:00 | 00:00:00 | |
| DD1CC8 | 2026-09-02 00:09:18 | 51.41901 | 7.83049 | 104° | 5km/h | 24891m | 4.8m/s | -50.7°C | 0.9% | 27.3hPa | 2.5V | 00:00:00 | 00:00:00 | 00:00:00 | |
| DL1XH1-15 | 2026-09-02 00:09:17 | 51.41906 | 7.83038 | 152° | 11km/h | 24859m | 4.7m/s | -50.7°C | 3.6% | 27.4hPa | 2.5V | 08:30:00 | 01:51:38 | 00:00:00 | |
| DO2JMG | 2026-09-02 00:09:16 | 51.41901 | 7.83045 | 93° | 5km/h | 24880m | 4.8m/s | -50.8°C | 0.3% | 27.4hPa | 2.5V | 18:12:15 | 01:51:42 | 00:00:00 | |
| DF8AY | 2026-09-02 00:09:14 | 51.41903 | 7.83041 | 138° | 5km/h | 24870m | 5.7m/s | -50.8°C | 0.2% | 27.4hPa | 2.6V | 18:12:15 | 01:51:40 | 00:00:00 | |
| DM0DOS-11 | 2026-09-02 00:09:14 | 51.41911 | 7.83031 | 93° | 5km/h | 24844m | 4.7m/s | -50.7°C | 3.6% | 27.5hPa | 2.6V | 08:30:00 | 01:51:35 | 00:00:00 | |
| DO3MHA-11 | 2026-09-02 00:09:14 | 51.41903 | 7.83041 | 138° | 7km/h | 24870m | 5.7m/s | -50.7°C | 3.6% | 27.4hPa | 2.5V | 00:00:00 | 01:51:40 | 00:00:00 | |
| DL1CLM-18 | 2026-09-02 00:09:13 | 51.41904 | 7.83040 | 152° | 9km/h | 24865m | 5.6m/s | -50.8°C | 0.9% | 27.4hPa | 2.5V | 00:00:00 | 00:00:00 | 00:00:00 | |
| DL1NUX | 2026-09-02 00:09:12 | 51.41910 | 7.83027 | 85° | 4km/h | 24834m | 5.4m/s | -50.7°C | 3.6% | 27.5hPa | 2.5V | 08:30:00 | 01:51:33 | 00:00:00 | |
| BIOWL1-15 | 2026-09-02 00:09:11 | 51.41909 | 7.83035 | 143° | 9km/h | 24855m | 4.8m/s | -50.7°C | 0.2% | 27.5hPa | 2.5V | 18:12:15 | 01:51:37 | 00:00:00 | |
| HSKMA3-T | 2026-09-02 00:09:08 | 51.41910 | 7.83029 | 75° | 5km/h | 24839m | 4.6m/s | -50.7°C | 0.3% | 27.6hPa | 2.6V | 18:12:15 | 01:51:34 | 00:00:00 | |
| DO2JMG | 2026-09-02 00:09:05 | 51.41912 | 7.83025 | 169° | 5km/h | 24823m | 5m/s | -50.7°C | 0.3% | 27.6hPa | 2.5V | 18:12:15 | 01:51:31 | 00:00:00 | |
| DF8AY | 2026-09-02 00:09:02 | 51.41916 | 7.83024 | 160° | 4km/h | 24808m | 5.8m/s | -50.9°C | 0.2% | 27.7hPa | 2.5V | 18:12:15 | 01:51:28 | 00:00:00 | |
| DL1NUX | 2026-09-02 00:09:02 | 51.41920 | 7.83019 | 141° | 4km/h | 24781m | 5.4m/s | -50.8°C | 3.6% | 27.8hPa | 2.6V | 08:30:00 | 01:51:23 | 00:00:00 | |
| BIOWL1-15 | 2026-09-02 00:09:00 | 51.41921 | 7.83018 | 108° | 2km/h | 24776m | 5.8m/s | -50.8°C | 0.2% | 27.8hPa | 2.5V | 18:12:15 | 01:51:22 | 00:00:00 | |
| DL1XH-west | 2026-09-02 00:08:58 | 51.41919 | 7.83021 | 150° | 5km/h | 24786m | 4.8m/s | -50.9°C | 0.2% | 27.8hPa | 2.6V | 18:12:15 | 01:51:24 | 00:00:00 | |
| DO2JMG | 2026-09-02 00:08:55 | 51.41921 | 7.83018 | 35° | 0km/h | 24770m | 4.5m/s | -50.8°C | 0.3% | 27.8hPa | 2.5V | 18:12:15 | 01:51:21 | 00:00:00 | |
| DO3DL | 2026-09-02 00:08:54 | 51.41921 | 7.83018 | 244° | 2km/h | 24766m | 5.4m/s | -50.8°C | 0.8% | 27.8hPa | 2.5V | 00:00:00 | 00:00:00 | 00:00:00 | |
| DM0DOS-11 | 2026-09-02 00:08:53 | 51.41925 | 7.83029 | 260° | 5km/h | 24738m | 4.6m/s | -50.8°C | 3.5% | 28hPa | 2.5V | 08:30:00 | 01:51:15 | 00:00:00 | |
| SO1NDE-10 | 2026-09-02 00:08:53 | 51.41921 | 7.83019 | 229° | 9km/h | 24760m | 6.1m/s | -50.7°C | 3.5% | 27.8hPa | 2.6V | 00:00:00 | 01:51:19 | 00:00:00 | |
| DL1NUX | 2026-09-02 00:08:52 | 51.41926 | 7.83032 | 211° | 5km/h | 24728m | 6.1m/s | -50.9°C | 3.6% | 28hPa | 2.6V | 08:30:00 | 01:51:13 | 00:00:00 | |
| DL1XH-15 | 2026-09-02 00:08:51 | 51.41924 | 7.83026 | 252° | 7km/h | 24743m | 5.9m/s | -50.8°C | 3.5% | 27.9hPa | 2.5V | 08:30:00 | 01:51:16 | 00:00:00 | |
| BIOWL1-15 | 2026-09-02 00:08:47 | 51.41926 | 7.83032 | 212° | 5km/h | 24728m | 6.1m/s | -50.9°C | 0.2% | 28hPa | 2.6V | 18:12:15 | 01:51:13 | 00:00:00 | |
| DF8AY | 2026-09-02 00:08:45 | 51.41930 | 7.83033 | 174° | 9km/h | 24717m | 4.5m/s | -51°C | 0.3% | 28.1hPa | 2.5V | 18:12:15 | 01:51:11 | 00:00:00 | |
| DO2JMG | 2026-09-02 00:08:44 | 51.41932 | 7.83033 | 161° | 7km/h | 24712m | 5.8m/s | -51°C | 0.3% | 28.1hPa | 2.5V | 18:12:15 | 01:51:10 | 00:00:00 | |
| DB0ND-19 | 2026-09-02 00:08:44 | 51.41934 | 7.83031 | 135° | 5km/h | 24706m | 5.7m/s | -51.0°C | 0.9% | 28.1hPa | 2.5V | 00:00:00 | 00:00:00 | 00:00:00 | |
| DM0DOS-11 | 2026-09-02 00:08:43 | 51.41938 | 7.83019 | 116° | 9km/h | 24684m | 4.8m/s | -51.1°C | 3.7% | 28.2hPa | 2.5V | 08:30:00 | 01:51:05 | 00:00:00 | |
| DL1NUX | 2026-09-02 00:08:42 | 51.41939 | 7.83012 | 87° | 7km/h | 24673m | 5.6m/s | -51.1°C | 3.6% | 28.2hPa | 2.6V | 08:30:00 | 01:51:03 | 00:00:00 | |
| BIOWL1-15 | 2026-09-02 00:08:37 | 51.41939 | 7.83012 | 88° | 7km/h | 24673m | 5.6m/s | -51.1°C | 0.2% | 28.2hPa | 2.6V | 18:12:15 | 01:51:03 | 00:00:00 | |
| DL1XH-west | 2026-09-02 00:08:37 | 51.41939 | 7.83010 | 86° | 7km/h | 24668m | 5m/s | -51.1°C | 0.3% | 28.2hPa | 2.6V | 18:12:15 | 01:51:02 | 00:00:00 | |
| DD1CC2-15 | 2026-09-02 00:08:36 | 51.41939 | 7.83010 | 87° | 7km/h | 24668m | 5.0m/s | -51.1°C | 0.9% | 28.2hPa | 2.6V | 00:00:00 | 00:00:00 | 00:00:00 | |
| DK9SH | 2026-09-02 00:08:34 | 51.41939 | 7.83007 | 108° | 5km/h | 24663m | 5.6m/s | -51.1°C | 0.9% | 28.3hPa | 2.6V | 00:00:00 | 00:00:00 | 00:00:00 | |
| DL1XH1-15 | 2026-09-02 00:08:33 | 51.41944 | 7.83001 | 145° | 9km/h | 24647m | 4.3m/s | -51.2°C | 3.7% | 28.4hPa | 2.6V | 08:30:00 | 01:50:58 | 00:00:00 | |
| DO2SHX-10 | 2026-09-02 00:08:33 | 51.41942 | 7.83003 | 148° | 9km/h | 24652m | 4.7m/s | -51.1°C | 3.7% | 28.3hPa | 2.5V | 00:00:00 | 01:50:59 | 00:00:00 | |
| DL1NUX | 2026-09-02 00:08:32 | 51.41944 | 7.82984 | 76° | 13km/h | 24622m | 4.6m/s | -51.2°C | 3.6% | 28.5hPa | 2.5V | 08:30:00 | 01:50:53 | 00:00:00 | |
| DO2JMG | 2026-09-02 00:08:29 | 51.41946 | 7.82993 | 71° | 9km/h | 24631m | 4.9m/s | -51.2°C | 0.4% | 28.4hPa | 2.5V | 18:12:15 | 01:50:55 | 00:00:00 | |
| DJ2DS-15 | 2026-09-02 00:08:29 | 51.41945 | 7.82989 | 67° | 11km/h | 24627m | 4.0m/s | -51.2°C | 0.9% | 28.4hPa | 2.5V | 00:00:00 | 00:00:00 | 00:00:00 | |
| DO3MHA-12 | 2026-09-02 00:08:28 | 51.41945 | 7.82989 | 68° | 11km/h | 24627m | 4.0m/s | -51.1°C | 3.7% | 28.4hPa | 2.5V | 00:00:00 | 01:50:54 | 00:00:00 | |
| DL1XH1-15 | 2026-09-02 00:08:27 | 51.41951 | 7.82963 | 134° | 11km/h | 24596m | 5.7m/s | -51.2°C | 3.7% | 28.6hPa | 2.5V | 08:30:00 | 01:50:48 | 00:00:00 | |
| BIOWL1-15 | 2026-09-02 00:08:27 | 51.41944 | 7.82984 | 76° | 13km/h | 24622m | 4.6m/s | -51.2°C | 0.3% | 28.5hPa | 2.5V | 18:12:15 | 01:50:53 | 00:00:00 | |
| AA1-15 | 2026-09-02 00:08:26 | 51.41944 | 7.82979 | 91° | 13km/h | 24617m | 6m/s | -51.2°C | 0.3% | 28.5hPa | 2.6V | 18:12:15 | 01:50:52 | 00:00:00 | |
| DL1XH-west | 2026-09-02 00:08:26 | 51.41944 | 7.82974 | 113° | 13km/h | 24611m | 5.6m/s | -51.2°C | 0.3% | 28.5hPa | 2.6V | 18:12:15 | 01:50:51 | 00:00:00 | |
| DF8AY | 2026-09-02 00:08:19 | 51.41954 | 7.82954 | 118° | 7km/h | 24580m | 4.6m/s | -51.2°C | 0.3% | 28.6hPa | 2.5V | 18:12:15 | 01:50:45 | 00:00:00 | |
| BIOWL7-15 | 2026-09-02 00:08:19 | 51.41954 | 7.82953 | 119° | 7km/h | 24581m | 4.6m/s | -51.2°C | 0.9% | 28.6hPa | 2.5V | 00:00:00 | 00:00:00 | 00:00:00 | |
| DO3MHA-12 | 2026-09-02 00:08:18 | 51.41955 | 7.82951 | 124° | 7km/h | 24576m | 5.3m/s | -51.2°C | 3.7% | 28.7hPa | 2.5V | 00:00:00 | 01:50:44 | 08:30:00 | |
| DL1XH1-15 | 2026-09-02 00:08:17 | 51.41962 | 7.82944 | 251° | 5km/h | 24543m | 4.7m/s | -51.3°C | 3.7% | 28.8hPa | 2.5V | 08:30:00 | 01:50:38 | 00:00:00 | |
| BIOWL1-15 | 2026-09-02 00:08:16 | 51.41961 | 7.82942 | 150° | 4km/h | 24554m | 6.1m/s | -51.3°C | 0.3% | 28.8hPa | 2.5V | 18:12:15 | 01:50:40 | 00:00:00 | |
| AA1-15 | 2026-09-02 00:08:16 | 51.41958 | 7.82945 | 137° | 9km/h | 24564m | 5.1m/s | -51.3°C | 0.3% | 28.7hPa | 2.6V | 18:12:15 | 01:50:42 | 00:00:00 | |
| DL1XH-west | 2026-09-02 00:08:15 | 51.41960 | 7.82943 | 141° | 7km/h | 24559m | 5m/s | -51.3°C | 0.3% | 28.8hPa | 2.6V | 18:12:15 | 01:50:41 | 00:00:00 | |
| DO2JMG | 2026-09-02 00:08:08 | 51.41969 | 7.82957 | 228° | 15km/h | 24521m | 6.2m/s | -51.3°C | 0.3% | 28.9hPa | 2.5V | 18:12:15 | 01:50:34 | 00:00:00 | |
| DD1CC9-15 | 2026-09-02 00:08:08 | 51.41969 | 7.82957 | 229° | 15km/h | 24521m | 6.2m/s | -51.3°C | 0.9% | 28.9hPa | 2.5V | 00:00:00 | 00:00:00 | 00:00:00 | |
| DL1XH1-15 | 2026-09-02 00:08:07 | 51.41983 | 7.82969 | 157° | 11km/h | 24487m | 5.6m/s | -51.2°C | 3.6% | 29.1hPa | 2.5V | 08:30:00 | 01:50:28 | 00:00:00 | |
| BIOWL1-15 | 2026-09-02 00:08:06 | 51.41973 | 7.82965 | 231° | 11km/h | 24510m | 4.8m/s | -51.2°C | 0.3% | 28.9hPa | 2.5V | 18:12:15 | 01:50:32 | 00:00:00 | |
| HSKMA3-T | 2026-09-02 00:08:05 | 51.41975 | 7.82968 | 216° | 11km/h | 24505m | 5.1m/s | -51.2°C | 0.2% | 28.9hPa | 2.6V | 18:12:15 | 01:50:31 | 00:00:00 | |
| DL1XH-west | 2026-09-02 00:08:04 | 51.41977 | 7.82970 | 193° | 11km/h | 24499m | 6.4m/s | -51.2°C | 0.2% | 29hPa | 2.6V | 18:12:15 | 01:50:30 | 00:00:00 | |
| DF8AY | 2026-09-02 00:08:02 | 51.41983 | 7.82969 | 158° | 11km/h | 24487m | 5.6m/s | -51.2°C | 0.3% | 29.1hPa | 2.5V | 18:12:15 | 01:50:28 | 00:00:00 | |
| DL1NUX | 2026-09-02 00:08:02 | 51.41989 | 7.82957 | 138° | 7km/h | 24459m | 5.7m/s | -51.3°C | 3.6% | 29.2hPa | 2.5V | 08:30:00 | 01:50:23 | 00:00:00 | |
| DO2JMG | 2026-09-02 00:07:58 | 51.41988 | 7.82959 | 115° | 7km/h | 24465m | 5.9m/s | -51.3°C | 0.3% | 29.2hPa | 2.5V | 18:12:15 | 01:50:24 | 00:00:00 | |
| BIOWL1-15 | 2026-09-02 00:07:56 | 51.41991 | 7.82955 | 164° | 7km/h | 24453m | 4.9m/s | -51.4°C | 0.3% | 29.2hPa | 2.5V | 18:12:15 | 01:50:22 | 00:00:00 | |
| HSKMA3-T | 2026-09-02 00:07:55 | 51.41993 | 7.82955 | 187° | 7km/h | 24448m | 5.5m/s | -51.4°C | 0.3% | 29.2hPa | 2.5V | 18:12:15 | 01:50:21 | 00:00:00 | |
| DL1XH-15 | 2026-09-02 00:07:54 | 51.42002 | 7.82957 | 152° | 13km/h | 24421m | 5.2m/s | -51.5°C | 3.7% | 29.3hPa | 2.5V | 08:30:00 | 01:50:16 | 00:00:00 | |
| DL1XH-west | 2026-09-02 00:07:54 | 51.41994 | 7.82956 | 206° | 5km/h | 24443m | 6.3m/s | -51.4°C | 0.2% | 29.3hPa | 2.6V | 18:12:15 | 01:50:20 | 00:00:00 | |
| AA1-15 | 2026-09-02 00:07:54 | 51.41995 | 7.82957 | 211° | 7km/h | 24437m | 5.1m/s | -51.4°C | 0.3% | 29.3hPa | 2.6V | 18:12:15 | 01:50:19 | 00:00:00 | |
| DF8AY | 2026-09-02 00:07:53 | 51.41997 | 7.82958 | 195° | 7km/h | 24432m | 5m/s | -51.4°C | 0.3% | 29.3hPa | 2.5V | 18:12:15 | 01:50:18 | 00:00:00 | |
| DO2JMG | 2026-09-02 00:07:48 | 51.42007 | 7.82948 | 117° | 16km/h | 24410m | 6.3m/s | -51.6°C | 0.4% | 29.4hPa | 2.6V | 18:12:15 | 01:50:14 | 00:00:00 | |
| DO3DL | 2026-09-02 00:07:48 | 51.42007 | 7.82948 | 118° | 16km/h | 24410m | 6.3m/s | -51.6°C | 0.9% | 29.4hPa | 2.5V | 00:00:00 | 00:00:00 | 00:00:00 | |
| DL1XH1-15 | 2026-09-02 00:07:47 | 51.42011 | 7.82915 | 116° | 7km/h | 24377m | 5.2m/s | -51.6°C | 3.7% | 29.6hPa | 2.5V | 08:30:00 | 01:50:08 | 00:00:00 | |
| BIOWL1-15 | 2026-09-02 00:07:45 | 51.42009 | 7.82929 | 92° | 16km/h | 24393m | 5.8m/s | -51.6°C | 0.4% | 29.5hPa | 2.5V | 18:12:15 | 01:50:11 | 00:00:00 | |
| DO2SHX-10 | 2026-09-02 00:07:45 | 51.42009 | 7.82929 | 92° | 11km/h | 24393m | 5.8m/s | -51.5°C | 3.7% | 29.5hPa | 2.5V | 00:00:00 | 01:50:11 | 00:00:00 | |
| DL1XH-15 | 2026-09-02 00:07:44 | 51.42012 | 7.82912 | 81° | 2km/h | 24365m | 5.3m/s | -51.7°C | 3.7% | 29.6hPa | 2.5V | 08:30:00 | 01:50:06 | 00:00:00 | |
| DM0DOS-11 | 2026-09-02 00:07:44 | 51.42012 | 7.82911 | 96° | 4km/h | 24361m | 4.6m/s | -51.7°C | 3.7% | 29.6hPa | 2.5V | 08:30:00 | 01:50:05 | 00:00:00 | |
| HSKMA3-T | 2026-09-02 00:07:44 | 51.42009 | 7.82923 | 100° | 15km/h | 24387m | 5.6m/s | -51.6°C | 0.3% | 29.5hPa | 2.6V | 18:12:15 | 01:50:10 | 00:00:00 | |
| DL1XH-west | 2026-09-02 00:07:43 | 51.42010 | 7.82918 | 110° | 11km/h | 24382m | 4.9m/s | -51.6°C | 0.3% | 29.5hPa | 2.6V | 18:12:15 | 01:50:09 | 00:00:00 | |
| DF8AY | 2026-09-02 00:07:38 | 51.42012 | 7.82909 | 116° | 7km/h | 24356m | 5.8m/s | -51.7°C | 0.3% | 29.7hPa | 2.6V | 18:12:15 | 01:50:04 | 00:00:00 | |
| DO2JMG | 2026-09-02 00:07:37 | 51.42013 | 7.82906 | 121° | 13km/h | 24350m | 5.7m/s | -51.7°C | 0.3% | 29.7hPa | 2.6V | 18:12:15 | 01:50:03 | 00:00:00 | |
| BIOWL1-15 | 2026-09-02 00:07:36 | 51.42019 | 7.82886 | 103° | 20km/h | 24335m | 6m/s | -51.7°C | 0.3% | 29.8hPa | 2.5V | 18:12:15 | 01:50:00 | 00:00:00 | |
| DJ8HS-15 | 2026-09-02 00:07:36 | 51.42015 | 7.82901 | 119° | 20km/h | 24345m | 4.7m/s | -51.7°C | 3.7% | 29.7hPa | 2.5V | 00:00:00 | 01:50:02 | 00:00:00 | |
| DO2SHX-10 | 2026-09-02 00:07:35 | 51.42017 | 7.82894 | 112° | 20km/h | 24340m | 4.5m/s | -51.7°C | 3.7% | 29.7hPa | 2.5V | 00:00:00 | 01:50:01 | 00:00:00 | |
| DM0DOS-11 | 2026-09-02 00:07:34 | 51.42016 | 7.82845 | 82° | 22km/h | 24306m | 5.7m/s | -51.7°C | 3.8% | 29.9hPa | 2.5V | 08:30:00 | 01:49:55 | 00:00:00 | |
| HSKMA3-T | 2026-09-02 00:07:33 | 51.42019 | 7.82878 | 92° | 20km/h | 24329m | 5.7m/s | -51.7°C | 0.3% | 29.8hPa | 2.6V | 18:12:15 | 01:49:59 | 00:00:00 | |
| DL1XH1-15 | 2026-09-02 00:07:32 | 51.42019 | 7.82870 | 80° | 20km/h | 24323m | 5.2m/s | -51.7°C | 3.7% | 29.8hPa | 2.6V | 08:30:00 | 01:49:58 | 00:00:00 | |
| DL1NUX | 2026-09-02 00:07:32 | 51.42014 | 7.82828 | 77° | 22km/h | 24296m | 5.5m/s | -51.8°C | 3.8% | 29.9hPa | 2.6V | 08:30:00 | 01:49:53 | 00:00:00 | |
| DL1XH-west | 2026-09-02 00:07:32 | 51.42019 | 7.82870 | 81° | 20km/h | 24323m | 5.2m/s | -51.7°C | 0.3% | 29.8hPa | 2.6V | 18:12:15 | 01:49:58 | 00:00:00 | |
| DO9LL-15 | 2026-09-02 00:07:32 | 51.42019 | 7.82870 | 81° | 18km/h | 24324m | 5.2m/s | -51.6°C | 3.7% | 29.8hPa | 2.5V | 00:00:00 | 01:49:58 | 00:00:00 | |
| DJ2DS-15 | 2026-09-02 00:07:31 | 51.42018 | 7.82862 | 78° | 20km/h | 24318m | 5.4m/s | -51.6°C | 3.7% | 29.8hPa | 2.5V | 00:00:00 | 01:49:57 | 00:00:00 | |
| HTAHTA | 2026-09-02 00:07:30 | 51.42016 | 7.82845 | 82° | 20km/h | 24306m | 5.7m/s | -51.7°C | 0.9% | 29.9hPa | 2.6V | 00:00:00 | 00:00:00 | 00:00:00 | |
| DO2SHX-10 | 2026-09-02 00:07:29 | 51.42016 | 7.82845 | 83° | 22km/h | 24307m | 5.6m/s | -51.7°C | 3.8% | 29.9hPa | 2.6V | 00:00:00 | 01:49:55 | 00:00:00 | |
| SONDE2-11 | 2026-09-02 00:07:28 | 51.42015 | 7.82837 | 82° | 20km/h | 24301m | 4.6m/s | -51.8°C | 0.9% | 29.9hPa | 2.6V | 00:00:00 | 00:00:00 | 00:00:00 | |
| DL1XH1-15 | 2026-09-02 00:07:27 | 51.42007 | 7.82790 | 83° | 20km/h | 24268m | 5.4m/s | -51.8°C | 3.8% | 30.1hPa | 2.6V | 08:30:00 | 01:49:48 | 00:00:00 | |
| DO2JMG | 2026-09-02 00:07:26 | 51.42013 | 7.82820 | 71° | 20km/h | 24290m | 6.2m/s | -51.8°C | 0.3% | 29.9hPa | 2.5V | 18:12:15 | 01:49:52 | 00:00:00 | |
| DO2SHX-10 | 2026-09-02 00:07:25 | 51.42011 | 7.82812 | 67° | 20km/h | 24285m | 5.1m/s | -51.7°C | 3.8% | 30.0hPa | 2.5V | 00:00:00 | 01:49:51 | 00:00:00 | |
| DO3MHA-11 | 2026-09-02 00:07:24 | 51.42009 | 7.82805 | 72° | 11km/h | 24280m | 4.6m/s | -51.7°C | 3.8% | 30.0hPa | 2.5V | 00:00:00 | 01:49:50 | 00:00:00 | |
| DL1XH-15 | 2026-09-02 00:07:23 | 51.42006 | 7.82774 | 76° | 20km/h | 24257m | 6.2m/s | -51.8°C | 3.8% | 30.1hPa | 2.5V | 08:30:00 | 01:49:46 | 00:00:00 | |
| SO1NDE-10 | 2026-09-02 00:07:23 | 51.42008 | 7.82798 | 77° | 15km/h | 24274m | 6.3m/s | -51.7°C | 3.8% | 30.0hPa | 2.6V | 00:00:00 | 01:49:49 | 00:00:00 | |
| DL1NUX | 2026-09-02 00:07:22 | 51.42000 | 7.82751 | 67° | 22km/h | 24241m | 5.1m/s | -51.8°C | 3.7% | 30.2hPa | 2.6V | 08:30:00 | 01:49:43 | 00:00:00 | |
| HSKMA3-T | 2026-09-02 00:07:22 | 51.42007 | 7.82790 | 83° | 20km/h | 24268m | 5.4m/s | -51.8°C | 0.4% | 30.1hPa | 2.6V | 18:12:15 | 01:49:48 | 00:00:00 | |
| DL1XH-west | 2026-09-02 00:07:21 | 51.42006 | 7.82782 | 82° | 20km/h | 24263m | 5.3m/s | -51.8°C | 0.4% | 30.1hPa | 2.6V | 18:12:15 | 01:49:47 | 00:00:00 | |
| DD8BA-10 | 2026-09-02 00:07:20 | 51.42006 | 7.82774 | 77° | 20km/h | 24257m | 6.2m/s | -51.7°C | 3.8% | 30.0hPa | 2.6V | 00:00:00 | 00:00:00 | 00:00:00 | |
| DO2SHX-10 | 2026-09-02 00:07:19 | 51.42004 | 7.82767 | 68° | 22km/h | 24251m | 5.2m/s | -51.7°C | 3.8% | 30.1hPa | 2.6V | 00:00:00 | 01:49:45 | 00:00:00 | |
| WEDDY | 2026-09-02 00:07:18 | 51.42002 | 7.82759 | 66° | 22km/h | 24247m | 4.6m/s | -51.8°C | 0.9% | 30.2hPa | 2.6V | 00:00:00 | 00:00:00 | 00:00:00 | |
| GOEST3-10 | 2026-09-02 00:07:17 | 51.42000 | 7.82751 | 68° | 20km/h | 24242m | 5.0m/s | -51.7°C | 3.7% | 30.1hPa | 2.6V | 00:00:00 | 00:00:00 | 00:00:00 | |
| DL1XH1-15 | 2026-09-02 00:07:16 | 51.41992 | 7.82713 | 57° | 16km/h | 24214m | 5.8m/s | -51.7°C | 3.7% | 30.3hPa | 2.6V | 08:30:00 | 01:49:38 | 00:00:00 | |
| DO2JMG | 2026-09-02 00:07:15 | 51.41996 | 7.82734 | 77° | 20km/h | 24230m | 5.3m/s | -51.7°C | 0.3% | 30.2hPa | 2.5V | 18:12:15 | 01:49:41 | 00:00:00 | |
| BIOWL1-15 | 2026-09-02 00:07:14 | 51.41987 | 7.82702 | 57° | 18km/h | 24203m | 6m/s | -51.7°C | 0.3% | 30.4hPa | 2.5V | 18:12:15 | 01:49:36 | 00:00:00 | |
| DF8AY | 2026-09-02 00:07:13 | 51.41994 | 7.82719 | 68° | 18km/h | 24219m | 6m/s | -51.7°C | 0.3% | 30.3hPa | 2.5V | 18:12:15 | 01:49:39 | 00:00:00 | |
| DL1XH-15 | 2026-09-02 00:07:13 | 51.41987 | 7.82702 | 57° | 18km/h | 24203m | 6m/s | -51.7°C | 3.7% | 30.4hPa | 2.5V | 08:30:00 | 01:49:36 | 00:00:00 | |
| DF7PN | 2026-09-02 00:07:13 | 51.41992 | 7.82713 | 57° | 16km/h | 24214m | 5.8m/s | -51.7°C | 0.9% | 30.4hPa | 2.5V | 00:00:00 | 00:00:00 | 00:00:00 | |
| DL1NUX | 2026-09-02 00:07:12 | 51.41980 | 7.82682 | 61° | 18km/h | 24187m | 5.7m/s | -51.7°C | 3.6% | 30.4hPa | 2.5V | 08:30:00 | 01:49:33 | 00:00:00 | |
| DL1XH-west | 2026-09-02 00:07:11 | 51.41989 | 7.82708 | 54° | 16km/h | 24208m | 4.7m/s | -51.7°C | 0.3% | 30.4hPa | 2.6V | 18:12:15 | 01:49:37 | 00:00:00 | |
| DJ2DS-15 | 2026-09-02 00:07:11 | 51.41989 | 7.82708 | 55° | 11km/h | 24209m | 4.7m/s | -51.7°C | 3.7% | 30.3hPa | 2.5V | 00:00:00 | 01:49:37 | 00:00:00 | |
| DD8BA-10 | 2026-09-02 00:07:10 | 51.41987 | 7.82702 | 58° | 15km/h | 24203m | 5.9m/s | -51.7°C | 3.7% | 30.3hPa | 2.5V | 00:00:00 | 00:00:00 | 00:00:00 | |
| DO2SHX-10 | 2026-09-02 00:07:09 | 51.41984 | 7.82695 | 63° | 18km/h | 24198m | 5.2m/s | -51.7°C | 3.7% | 30.3hPa | 2.5V | 00:00:00 | 01:49:35 | 00:00:00 | |
| DL1XH1-15 | 2026-09-02 00:07:07 | 51.41975 | 7.82656 | 111° | 13km/h | 24161m | 5.8m/s | -51.7°C | 3.6% | 30.6hPa | 2.5V | 08:30:00 | 01:49:28 | 00:00:00 | |
| DO2JMG | 2026-09-02 00:07:04 | 51.41974 | 7.82665 | 70° | 13km/h | 24172m | 4.2m/s | -51.7°C | 0.2% | 30.5hPa | 2.5V | 18:12:15 | 01:49:30 | 00:00:00 | |
| DL1XH-15 | 2026-09-02 00:07:04 | 51.41977 | 7.82648 | 117° | 11km/h | 24151m | 5.8m/s | -51.9°C | 3.6% | 30.6hPa | 2.6V | 08:30:00 | 01:49:26 | 00:00:00 | |
| DM0DOS-11 | 2026-09-02 00:07:04 | 51.41978 | 7.82645 | 101° | 7km/h | 24145m | 5.5m/s | -52°C | 3.7% | 30.7hPa | 2.5V | 08:30:00 | 01:49:25 | 00:00:00 | |
| DO1YAY-16 | 2026-09-02 00:07:03 | 51.41974 | 7.82656 | 111° | 11km/h | 24162m | 5.8m/s | -51.7°C | 0.9% | 30.6hPa | 2.5V | 00:00:00 | 00:00:00 | 00:00:00 | |
| DL1NUX | 2026-09-02 00:07:02 | 51.41977 | 7.82642 | 28° | 4km/h | 24135m | 5.3m/s | -52.1°C | 3.7% | 30.7hPa | 2.5V | 08:30:00 | 01:49:23 | 00:00:00 | |
| BIOWL1-15 | 2026-09-02 00:07:01 | 51.41976 | 7.82652 | 120° | 13km/h | 24156m | 5m/s | -51.8°C | 0.2% | 30.6hPa | 2.6V | 18:12:15 | 01:49:27 | 00:00:00 | |
| DL1XH-west | 2026-09-02 00:07:00 | 51.41977 | 7.82648 | 117° | 11km/h | 24151m | 5.8m/s | -51.9°C | 0.3% | 30.6hPa | 2.6V | 18:12:15 | 01:49:26 | 00:00:00 | |
| DF8AY | 2026-09-02 00:06:56 | 51.41977 | 7.82641 | 358° | 2km/h | 24129m | 6.2m/s | -52.2°C | 0.3% | 30.7hPa | 2.6V | 18:12:15 | 01:49:22 | 00:00:00 | |
| DO2JMG | 2026-09-02 00:06:54 | 51.41976 | 7.82641 | 360° | 2km/h | 24119m | 4.1m/s | -52.3°C | 0.3% | 30.8hPa | 2.5V | 18:12:15 | 01:49:20 | 00:00:00 | |
| DM0DOS-11 | 2026-09-02 00:06:54 | 51.41969 | 7.82635 | 77° | 5km/h | 24094m | 5.2m/s | -52.6°C | 3.9% | 30.9hPa | 2.6V | 08:30:00 | 01:49:15 | 00:00:00 | |
| DL1XH1-15 | 2026-09-02 00:06:54 | 51.41973 | 7.82640 | 21° | 7km/h | 24108m | 6.2m/s | -52.5°C | 3.9% | 30.8hPa | 2.5V | 08:30:00 | 01:49:18 | 00:00:00 | |
| DO2SHX-10 | 2026-09-02 00:06:54 | 51.41976 | 7.82641 | 360° | 7km/h | 24119m | 4.1m/s | -52.3°C | 3.8% | 30.7hPa | 2.5V | 00:00:00 | 01:49:20 | 00:00:00 | |
| SO1NDE-10 | 2026-09-02 00:06:53 | 51.41975 | 7.82641 | 16° | 9km/h | 24115m | 4.8m/s | -52.3°C | 3.8% | 30.8hPa | 2.5V | 00:00:00 | 01:49:19 | 00:00:00 | |
| DL1NUX | 2026-09-02 00:06:52 | 51.41971 | 7.82632 | 175° | 13km/h | 24083m | 5m/s | -52.6°C | 4% | 31hPa | 2.5V | 08:30:00 | 01:49:13 | 00:00:00 | |
| BIOWL1-15 | 2026-09-02 00:06:51 | 51.41971 | 7.82639 | 28° | 9km/h | 24103m | 4.8m/s | -52.6°C | 0.4% | 30.9hPa | 2.5V | 18:12:15 | 01:49:17 | 00:00:00 | |
| HSKMA3-T | 2026-09-02 00:06:50 | 51.41969 | 7.82637 | 41° | 7km/h | 24099m | 4.2m/s | -52.6°C | 0.4% | 30.9hPa | 2.6V | 18:12:15 | 01:49:16 | 00:00:00 | |
| DL1XH-west | 2026-09-02 00:06:49 | 51.41968 | 7.82635 | 77° | 5km/h | 24094m | 5.2m/s | -52.6°C | 0.4% | 30.9hPa | 2.6V | 18:12:15 | 01:49:15 | 00:00:00 | |
| DF8AY | 2026-09-02 00:06:47 | 51.41975 | 7.82632 | 186° | 15km/h | 24078m | 4.9m/s | -52.7°C | 0.5% | 31hPa | 2.5V | 18:12:15 | 01:49:12 | 00:00:00 | |
| DL8DAS-15 | 2026-09-02 00:06:47 | 51.41971 | 7.82632 | 176° | 13km/h | 24083m | 5.0m/s | -52.7°C | 1.0% | 31.0hPa | 2.6V | 00:00:00 | 00:00:00 | 00:00:00 | |
| DO2SHX-10 | 2026-09-02 00:06:46 | 51.41975 | 7.82632 | 186° | 15km/h | 24078m | 4.8m/s | -52.6°C | 4.0% | 30.9hPa | 2.6V | 00:00:00 | 01:49:12 | 00:00:00 | |
| DD1CC9-15 | 2026-09-02 00:06:45 | 51.41975 | 7.82632 | 187° | 15km/h | 24078m | 4.9m/s | -52.6°C | 1.0% | 31.0hPa | 2.6V | 00:00:00 | 00:00:00 | 00:00:00 | |
| DL1XH-15 | 2026-09-02 00:06:44 | 51.41990 | 7.82633 | 119° | 7km/h | 24046m | 4.7m/s | -52.6°C | 4% | 31.1hPa | 2.6V | 08:30:00 | 01:49:06 | 00:00:00 | |
| DO2JMG | 2026-09-02 00:06:43 | 51.41984 | 7.82636 | 192° | 9km/h | 24062m | 4.9m/s | -52.7°C | 0.5% | 31.1hPa | 2.5V | 18:12:15 | 01:49:09 | 00:00:00 | |
| BIOWL1-15 | 2026-09-02 00:06:40 | 51.41990 | 7.82633 | 120° | 7km/h | 24046m | 4.7m/s | -52.6°C | 0.5% | 31.1hPa | 2.6V | 18:12:15 | 01:49:06 | 00:00:00 | |
| HSKMA3-T | 2026-09-02 00:06:39 | 51.41990 | 7.82630 | 94° | 5km/h | 24041m | 5.5m/s | -52.6°C | 0.5% | 31.2hPa | 2.6V | 18:12:15 | 01:49:05 | 00:00:00 | |
| DL1XH-west | 2026-09-02 00:06:39 | 51.41990 | 7.82628 | 61° | 5km/h | 24035m | 6m/s | -52.6°C | 0.5% | 31.2hPa | 2.5V | 18:12:15 | 01:49:04 | 00:00:00 | |
| DF8AY | 2026-09-02 00:06:35 | 51.41989 | 7.82624 | 135° | 5km/h | 24020m | 5.8m/s | -52.5°C | 0.5% | 31.2hPa | 2.5V | 18:12:15 | 01:49:01 | 00:00:00 | |
| NBG1-10 | 2026-09-02 00:06:35 | 51.41989 | 7.82624 | 135° | 11km/h | 24021m | 5.7m/s | -52.5°C | 4.0% | 31.2hPa | 2.5V | 00:00:00 | 01:49:01 | 00:00:00 | |
| DM0DOS-11 | 2026-09-02 00:06:34 | 51.42004 | 7.82617 | 167° | 9km/h | 23989m | 4.2m/s | -52.4°C | 3.9% | 31.4hPa | 2.6V | 08:30:00 | 01:48:55 | 00:00:00 | |
| DL1XH-15 | 2026-09-02 00:06:34 | 51.42002 | 7.82617 | 174° | 11km/h | 23994m | 4.9m/s | -52.5°C | 3.9% | 31.4hPa | 2.5V | 08:30:00 | 01:48:56 | 00:00:00 | |
| DO2JMG | 2026-09-02 00:06:33 | 51.41993 | 7.82621 | 158° | 13km/h | 24010m | 4.8m/s | -52.5°C | 0.4% | 31.3hPa | 2.6V | 18:12:15 | 01:48:59 | 00:00:00 | |
| DL1NUX | 2026-09-02 00:06:33 | 51.42009 | 7.82613 | 138° | 11km/h | 23978m | 5.8m/s | -52.4°C | 3.9% | 31.5hPa | 2.5V | 08:30:00 | 01:48:53 | 00:00:00 | |
| BIOWL1-15 | 2026-09-02 00:06:30 | 51.42002 | 7.82617 | 174° | 11km/h | 23994m | 4.9m/s | -52.5°C | 0.4% | 31.4hPa | 2.5V | 18:12:15 | 01:48:56 | 00:00:00 | |
| HSKMA3-T | 2026-09-02 00:06:28 | 51.42007 | 7.82615 | 155° | 9km/h | 23984m | 5.8m/s | -52.4°C | 0.4% | 31.4hPa | 2.6V | 18:12:15 | 01:48:54 | 00:00:00 | |
| DL1XH-west | 2026-09-02 00:06:27 | 51.42009 | 7.82613 | 139° | 11km/h | 23978m | 5.8m/s | -52.4°C | 0.4% | 31.5hPa | 2.5V | 18:12:15 | 01:48:53 | 00:00:00 | |
| GOEST3-10 | 2026-09-02 00:06:27 | 51.42009 | 7.82613 | 139° | 11km/h | 23979m | 5.7m/s | -52.3°C | 3.9% | 31.4hPa | 2.5V | 00:00:00 | 00:00:00 | 00:00:00 | |
| SONDE2-11 | 2026-09-02 00:06:26 | 51.42010 | 7.82610 | 119° | 11km/h | 23973m | 4.7m/s | -52.4°C | 1.0% | 31.5hPa | 2.5V | 00:00:00 | 00:00:00 | 00:00:00 | |
| DL8DAS-14 | 2026-09-02 00:06:25 | 51.42011 | 7.82602 | 78° | 9km/h | 23962m | 5.6m/s | -52.4°C | 1.0% | 31.6hPa | 2.5V | 00:00:00 | 00:00:00 | 00:00:00 | |
| DM0DOS-11 | 2026-09-02 00:06:24 | 51.42011 | 7.82577 | 114° | 13km/h | 23935m | 5m/s | -52.2°C | 3.9% | 31.7hPa | 2.5V | 08:30:00 | 01:48:45 | 00:00:00 | |
| DF8AY | 2026-09-02 00:06:24 | 51.42011 | 7.82602 | 78° | 11km/h | 23962m | 5.6m/s | -52.4°C | 0.4% | 31.6hPa | 2.6V | 18:12:15 | 01:48:50 | 00:00:00 | |
| DL1XH-15 | 2026-09-02 00:06:24 | 51.42010 | 7.82582 | 106° | 15km/h | 23941m | 5.1m/s | -52.2°C | 3.9% | 31.6hPa | 2.5V | 08:30:00 | 01:48:46 | 00:00:00 | |
| DO2JMG | 2026-09-02 00:06:22 | 51.42010 | 7.82593 | 77° | 13km/h | 23952m | 5.3m/s | -52.3°C | 0.4% | 31.6hPa | 2.5V | 18:12:15 | 01:48:48 | 00:00:00 | |
| DL1NUX | 2026-09-02 00:06:22 | 51.42014 | 7.82569 | 123° | 9km/h | 23925m | 4.7m/s | -52.1°C | 3.9% | 31.7hPa | 2.6V | 08:30:00 | 01:48:43 | 00:00:00 | |
| BIOWL1-15 | 2026-09-02 00:06:22 | 51.42010 | 7.82582 | 106° | 15km/h | 23941m | 5.1m/s | -52.3°C | 0.4% | 31.6hPa | 2.5V | 18:12:15 | 01:48:46 | 00:00:00 | |
| HSKMA3-T | 2026-09-02 00:06:18 | 51.42013 | 7.82573 | 120° | 11km/h | 23930m | 6m/s | -52.2°C | 0.4% | 31.7hPa | 2.6V | 18:12:15 | 01:48:44 | 00:00:00 | |
| DJ3KS | 2026-09-02 00:06:18 | 51.42012 | 7.82573 | 121° | 11km/h | 23930m | 6.0m/s | -52.2°C | 1.0% | 31.7hPa | 2.6V | 00:00:00 | 00:00:00 | 00:00:00 | |
| DL1XH1-15 | 2026-09-02 00:06:17 | 51.42021 | 7.82546 | 101° | 15km/h | 23899m | 5.6m/s | -52°C | 3.9% | 31.9hPa | 2.6V | 08:30:00 | 01:48:38 | 00:00:00 | |
| DL1XH-west | 2026-09-02 00:06:17 | 51.42014 | 7.82569 | 123° | 9km/h | 23925m | 4.7m/s | -52.1°C | 0.4% | 31.7hPa | 2.6V | 18:12:15 | 01:48:43 | 00:00:00 | |
| GOEST3-10 | 2026-09-02 00:06:17 | 51.42014 | 7.82569 | 124° | 13km/h | 23925m | 4.6m/s | -52.1°C | 3.9% | 31.7hPa | 2.5V | 00:00:00 | 00:00:00 | 00:00:00 | |
| DO3DL | 2026-09-02 00:06:16 | 51.42015 | 7.82566 | 124° | 11km/h | 23920m | 4.2m/s | -52.1°C | 0.9% | 31.7hPa | 2.5V | 00:00:00 | 00:00:00 | 00:00:00 | |
| WEDDY | 2026-09-02 00:06:15 | 51.42015 | 7.82566 | 124° | 11km/h | 23920m | 4.2m/s | -52.1°C | 0.9% | 31.7hPa | 2.5V | 00:00:00 | 00:00:00 | 00:00:00 | |
| DM0DOS-11 | 2026-09-02 00:06:14 | 51.42020 | 7.82530 | 74° | 15km/h | 23884m | 5.4m/s | -52°C | 3.8% | 31.9hPa | 2.5V | 08:30:00 | 01:48:35 | 00:00:00 | |
| DL1XH-15 | 2026-09-02 00:06:14 | 51.42021 | 7.82536 | 75° | 13km/h | 23889m | 4.1m/s | -52°C | 3.8% | 31.9hPa | 2.5V | 08:30:00 | 01:48:36 | 00:00:00 | |
| DO2JMG | 2026-09-02 00:06:11 | 51.42022 | 7.82541 | 85° | 13km/h | 23894m | 5.5m/s | -52°C | 0.4% | 31.9hPa | 2.5V | 18:12:15 | 01:48:37 | 00:00:00 | |
| BIOWL1-15 | 2026-09-02 00:06:09 | 51.42019 | 7.82524 | 78° | 16km/h | 23879m | 5.8m/s | -51.9°C | 0.4% | 31.9hPa | 2.6V | 18:12:15 | 01:48:34 | 00:00:00 | |
| DF8AY | 2026-09-02 00:06:09 | 51.42020 | 7.82530 | 74° | 15km/h | 23884m | 5.4m/s | -52°C | 0.4% | 31.9hPa | 2.5V | 18:12:15 | 01:48:35 | 00:00:00 | |
| HSKMA3-T | 2026-09-02 00:06:07 | 51.42018 | 7.82517 | 78° | 18km/h | 23873m | 4.6m/s | -51.9°C | 0.3% | 32hPa | 2.6V | 18:12:15 | 01:48:33 | 00:00:00 | |
| DL1XH-west | 2026-09-02 00:06:06 | 51.42017 | 7.82510 | 75° | 16km/h | 23869m | 4.2m/s | -51.8°C | 0.4% | 32hPa | 2.5V | 18:12:15 | 01:48:32 | 00:00:00 | |
| DO2SHX-10 | 2026-09-02 00:06:05 | 51.42016 | 7.82504 | 70° | 13km/h | 23864m | 5.9m/s | -51.8°C | 3.8% | 32.0hPa | 2.5V | 00:00:00 | 01:48:31 | 00:00:00 | |
| DL1XH1-15 | 2026-09-02 00:06:04 | 51.42012 | 7.82491 | 81° | 11km/h | 23848m | 5m/s | -51.7°C | 3.7% | 32.1hPa | 2.6V | 08:30:00 | 01:48:28 | 00:00:00 | |
| DO2JMG | 2026-09-02 00:06:00 | 51.42013 | 7.82482 | 107° | 15km/h | 23838m | 4.8m/s | -51.7°C | 0.3% | 32.2hPa | 2.5V | 18:12:15 | 01:48:26 | 00:00:00 | |
| BIOWL1-15 | 2026-09-02 00:05:59 | 51.42008 | 7.82426 | 28° | 11km/h | 23783m | 4.1m/s | -51.7°C | 0.3% | 32.4hPa | 2.5V | 18:12:15 | 01:48:15 | 00:00:00 | |
| SONCRA | 2026-09-02 00:05:58 | 51.42015 | 7.82471 | 106° | 13km/h | 23828m | 5.7m/s | -51.8°C | 0.9% | 32.2hPa | 2.6V | 00:00:00 | 00:00:00 | 00:00:00 | |
| DL1XH1-15 | 2026-09-02 00:05:57 | 51.42014 | 7.82438 | 70° | 16km/h | 23798m | 4.7m/s | -51.7°C | 3.7% | 32.4hPa | 2.6V | 08:30:00 | 01:48:18 | 00:00:00 | |
| HSKMA3-T | 2026-09-02 00:05:57 | 51.42014 | 7.82438 | 70° | 16km/h | 23798m | 4.7m/s | -51.7°C | 0.3% | 32.4hPa | 2.6V | 18:12:15 | 01:48:18 | 00:00:00 | |
| AA1-15 | 2026-09-02 00:05:57 | 51.42002 | 7.82417 | 66° | 13km/h | 23768m | 4.5m/s | -51.8°C | 0.4% | 32.5hPa | 2.6V | 18:12:15 | 01:48:12 | 00:00:00 | |
| BIOWL9-15 | 2026-09-02 00:05:57 | 51.42016 | 7.82462 | 88° | 11km/h | 23818m | 4.1m/s | -51.8°C | 1.0% | 32.2hPa | 2.5V | 00:00:00 | 00:00:00 | 00:00:00 | |
| DL1XH-west | 2026-09-02 00:05:56 | 51.42000 | 7.82407 | 74° | 15km/h | 23758m | 5.8m/s | -51.9°C | 0.4% | 32.5hPa | 2.5V | 18:12:15 | 01:48:10 | 00:00:00 | |
| DJ8HS-15 | 2026-09-02 00:05:56 | 51.42016 | 7.82462 | 89° | 15km/h | 23819m | 4.1m/s | -51.7°C | 3.8% | 32.2hPa | 2.5V | 00:00:00 | 01:48:22 | 00:00:00 | |
| DL1XH-15 | 2026-09-02 00:05:55 | 51.42010 | 7.82429 | 38° | 13km/h | 23787m | 5.6m/s | -51.7°C | 3.7% | 32.4hPa | 2.5V | 08:30:00 | 01:48:16 | 00:00:00 | |
| DO2JMG | 2026-09-02 00:05:55 | 51.42001 | 7.82412 | 73° | 15km/h | 23763m | 5m/s | -51.8°C | 0.3% | 32.5hPa | 2.6V | 18:12:15 | 01:48:11 | 00:00:00 | |
| DL8DAS-14 | 2026-09-02 00:05:54 | 51.42015 | 7.82444 | 76° | 16km/h | 23803m | 4.6m/s | -51.7°C | 0.9% | 32.3hPa | 2.5V | 00:00:00 | 00:00:00 | 00:00:00 | |
| DL3AQ-11 | 2026-09-02 00:05:52 | 51.42012 | 7.82433 | 56° | 13km/h | 23793m | 5.8m/s | -51.7°C | 0.9% | 32.4hPa | 2.5V | 00:00:00 | 00:00:00 | 00:00:00 | |
| DL1XH1-15 | 2026-09-02 00:05:51 | 51.41998 | 7.82395 | 84° | 16km/h | 23748m | 4.1m/s | -51.8°C | 3.8% | 32.6hPa | 2.5V | 08:30:00 | 01:48:08 | 00:00:00 | |
| DJ2DS-15 | 2026-09-02 00:05:51 | 51.42012 | 7.82432 | 57° | 15km/h | 23793m | 5.7m/s | -51.6°C | 3.7% | 32.3hPa | 2.6V | 00:00:00 | 01:48:17 | 00:00:00 | |
| DD8BA-10 | 2026-09-02 00:05:50 | 51.42010 | 7.82429 | 39° | 13km/h | 23788m | 5.5m/s | -51.6°C | 3.7% | 32.4hPa | 2.6V | 00:00:00 | 00:00:00 | 00:00:00 | |
| DL1XH-15 | 2026-09-02 00:05:49 | 51.41999 | 7.82380 | 99° | 20km/h | 23738m | 5.5m/s | -51.8°C | 3.7% | 32.6hPa | 2.6V | 08:30:00 | 01:48:06 | 00:00:00 | |
| DF8AY | 2026-09-02 00:05:47 | 51.41999 | 7.82401 | 76° | 15km/h | 23752m | 4.5m/s | -51.8°C | 0.3% | 32.6hPa | 2.5V | 18:12:15 | 01:48:09 | 00:00:00 | |
| HSKMA3-T | 2026-09-02 00:05:42 | 51.41998 | 7.82395 | 84° | 16km/h | 23748m | 4.1m/s | -51.8°C | 0.4% | 32.6hPa | 2.5V | 18:12:15 | 01:48:08 | 00:00:00 | |
| BIOWL1-15 | 2026-09-02 00:05:40 | 51.41999 | 7.82380 | 100° | 20km/h | 23738m | 5.5m/s | -51.8°C | 0.3% | 32.6hPa | 2.6V | 18:12:15 | 01:48:06 | 00:00:00 | |
| DL1XH-west | 2026-09-02 00:05:38 | 51.42000 | 7.82364 | 95° | 18km/h | 23729m | 4.1m/s | -51.8°C | 0.3% | 32.7hPa | 2.5V | 18:12:15 | 01:48:04 | 00:00:00 | |
| DO2JMG | 2026-09-02 00:05:35 | 51.41995 | 7.82348 | 24° | 11km/h | 23708m | 4.7m/s | -51.9°C | 0.3% | 32.8hPa | 2.5V | 18:12:15 | 01:48:00 | 00:00:00 | |
| DL1XH-15 | 2026-09-02 00:05:35 | 51.41988 | 7.82335 | 62° | 15km/h | 23687m | 5.5m/s | -52°C | 3.8% | 32.9hPa | 2.6V | 08:30:00 | 01:47:56 | 00:00:00 | |
| AA1-15 | 2026-09-02 00:05:33 | 51.41991 | 7.82343 | 52° | 11km/h | 23698m | 4.9m/s | -52°C | 0.3% | 32.8hPa | 2.5V | 18:12:15 | 01:47:58 | 00:00:00 | |
| DL1XH-west | 2026-09-02 00:05:28 | 51.41984 | 7.82322 | 78° | 22km/h | 23678m | 4.4m/s | -52°C | 0.3% | 33hPa | 2.5V | 18:12:15 | 01:47:54 | 00:00:00 | |
| DO2JMG | 2026-09-02 00:05:25 | 51.41981 | 7.82279 | 74° | 29km/h | 23659m | 5.2m/s | -52.1°C | 0.4% | 33.1hPa | 2.6V | 18:12:15 | 01:47:50 | 00:00:00 | |
| DL1XH-15 | 2026-09-02 00:05:24 | 51.41967 | 7.82249 | 36° | 18km/h | 23640m | 5.2m/s | -52.2°C | 3.9% | 33.1hPa | 2.6V | 08:30:00 | 01:47:46 | 00:00:00 | |
| HSKMA3-T | 2026-09-02 00:05:22 | 51.41975 | 7.82260 | 48° | 24km/h | 23649m | 4.2m/s | -52.2°C | 0.4% | 33.1hPa | 2.5V | 18:12:15 | 01:47:48 | 00:00:00 | |
| AA1-15 | 2026-09-02 00:05:21 | 51.41971 | 7.82254 | 41° | 22km/h | 23645m | 4.7m/s | -52.2°C | 0.4% | 33.1hPa | 2.5V | 18:12:15 | 01:47:47 | 00:00:00 | |
| BIOWL1-15 | 2026-09-02 00:05:19 | 51.41951 | 7.82229 | 90° | 11km/h | 23605m | 4.2m/s | -52.3°C | 0.4% | 33.3hPa | 2.6V | 18:12:15 | 01:47:39 | 00:00:00 | |
| DL1XH-west | 2026-09-02 00:05:17 | 51.41957 | 7.82240 | 20° | 13km/h | 23625m | 5.6m/s | -52.3°C | 0.4% | 33.2hPa | 2.5V | 18:12:15 | 01:47:43 | 00:00:00 | |
| DO2JMG | 2026-09-02 00:05:15 | 51.41951 | 7.82233 | 73° | 9km/h | 23610m | 5.8m/s | -52.3°C | 0.4% | 33.3hPa | 2.6V | 18:12:15 | 01:47:40 | 00:00:00 | |
| DM0DOS-11 | 2026-09-02 00:05:15 | 51.41946 | 7.82207 | 55° | 18km/h | 23585m | 4.9m/s | -52.3°C | 3.9% | 33.5hPa | 2.6V | 08:30:00 | 01:47:35 | 00:00:00 | |
| DL1XH-15 | 2026-09-02 00:05:15 | 51.41949 | 7.82213 | 62° | 16km/h | 23590m | 5m/s | -52.3°C | 3.9% | 33.4hPa | 2.5V | 08:30:00 | 01:47:36 | 00:00:00 | |
| DL1XH1-15 | 2026-09-02 00:05:13 | 51.41951 | 7.82224 | 85° | 13km/h | 23600m | 4.5m/s | -52.3°C | 3.8% | 33.4hPa | 2.5V | 08:30:00 | 01:47:38 | 00:00:00 | |
| HSKMA3-T | 2026-09-02 00:05:12 | 51.41951 | 7.82224 | 86° | 13km/h | 23600m | 4.5m/s | -52.3°C | 0.4% | 33.4hPa | 2.5V | 18:12:15 | 01:47:38 | 00:00:00 | |
| AA1-15 | 2026-09-02 00:05:10 | 51.41949 | 7.82213 | 62° | 16km/h | 23590m | 5m/s | -52.4°C | 0.4% | 33.4hPa | 2.5V | 18:12:15 | 01:47:36 | 00:00:00 | |
| BIOWL1-15 | 2026-09-02 00:05:08 | 51.41938 | 7.82190 | 43° | 16km/h | 23570m | 3.9m/s | -52.3°C | 0.4% | 33.5hPa | 2.5V | 18:12:15 | 01:47:32 | 00:00:00 | |
| DL1XH-west | 2026-09-02 00:05:07 | 51.41941 | 7.82195 | 53° | 18km/h | 23575m | 4.7m/s | -52.3°C | 0.5% | 33.5hPa | 2.5V | 18:12:15 | 01:47:33 | 00:00:00 | |
| DF8AY | 2026-09-02 00:05:07 | 51.41927 | 7.82181 | 8° | 15km/h | 23555m | 5.1m/s | -52.3°C | 0.5% | 33.6hPa | 2.6V | 18:12:15 | 01:47:29 | 00:00:00 | |
| DO2JMG | 2026-09-02 00:05:06 | 51.41931 | 7.82183 | 16° | 16km/h | 23560m | 5.4m/s | -52.3°C | 0.4% | 33.5hPa | 2.6V | 18:12:15 | 01:47:30 | 00:00:00 | |
| DL1XH-15 | 2026-09-02 00:05:05 | 51.41919 | 7.82179 | 36° | 7km/h | 23540m | 3.6m/s | -52.3°C | 3.9% | 33.7hPa | 2.5V | 08:30:00 | 01:47:26 | 00:00:00 | |
| HSKMA3-T | 2026-09-02 00:05:02 | 51.41923 | 7.82181 | 7° | 13km/h | 23550m | 5.7m/s | -52.3°C | 0.4% | 33.6hPa | 2.5V | 18:12:15 | 01:47:28 | 00:00:00 | |
| AA1-15 | 2026-09-02 00:04:59 | 51.41918 | 7.82177 | 44° | 7km/h | 23536m | 4m/s | -52.3°C | 0.4% | 33.7hPa | 2.5V | 18:12:15 | 01:47:25 | 00:00:00 | |
| DL3AQ-11 | 2026-09-02 00:04:59 | 51.41916 | 7.82175 | 40° | 9km/h | 23532m | 5.4m/s | -52.3°C | 0.9% | 33.7hPa | 2.6V | 00:00:00 | 00:00:00 | 00:00:00 | |
| DL1XH1-15 | 2026-09-02 00:04:58 | 51.41900 | 7.82150 | 47° | 13km/h | 23503m | 3.9m/s | -52.3°C | 3.9% | 33.9hPa | 2.6V | 08:30:00 | 01:47:18 | 00:00:00 | |
| DL1XH-west | 2026-09-02 00:04:57 | 51.41911 | 7.82168 | 37° | 16km/h | 23522m | 4.5m/s | -52.3°C | 0.5% | 33.8hPa | 2.5V | 18:12:15 | 01:47:22 | 00:00:00 | |
| DO2JMG | 2026-09-02 00:04:53 | 51.41902 | 7.82154 | 54° | 16km/h | 23507m | 4.6m/s | -52.3°C | 0.4% | 33.9hPa | 2.5V | 18:12:15 | 01:47:19 | 00:00:00 | |
| HSKMA3-T | 2026-09-02 00:04:52 | 51.41900 | 7.82150 | 47° | 13km/h | 23503m | 3.9m/s | -52.3°C | 0.4% | 33.9hPa | 2.6V | 18:12:15 | 01:47:18 | 00:00:00 | |
| DM0DOS-11 | 2026-09-02 00:04:51 | 51.41892 | 7.82145 | 351° | 13km/h | 23489m | 4.1m/s | -52.3°C | 3.9% | 33.9hPa | 2.5V | 08:30:00 | 01:47:15 | 00:00:00 | |
| AA1-15 | 2026-09-02 00:04:49 | 51.41892 | 7.82145 | 352° | 13km/h | 23489m | 4.1m/s | -52.3°C | 0.4% | 33.9hPa | 2.5V | 18:12:15 | 01:47:15 | 00:00:00 | |
| DF8AY | 2026-09-02 00:04:48 | 51.41886 | 7.82147 | 349° | 11km/h | 23480m | 5.4m/s | -52.3°C | 0.4% | 34hPa | 2.5V | 18:12:15 | 01:47:13 | 00:00:00 | |
| DL3AQ-11 | 2026-09-02 00:04:48 | 51.41886 | 7.82147 | 348° | 11km/h | 23480m | 5.4m/s | -52.3°C | 1.0% | 34.0hPa | 2.5V | 00:00:00 | 00:00:00 | 00:00:00 | |
| GOEST3-10 | 2026-09-02 00:04:47 | 51.41886 | 7.82147 | 349° | 9km/h | 23480m | 5.3m/s | -52.3°C | 3.9% | 34.0hPa | 2.5V | 00:00:00 | 00:00:00 | 00:00:00 | |
| DL1XH-west | 2026-09-02 00:04:47 | 51.41880 | 7.82145 | 36° | 7km/h | 23464m | 4.9m/s | -52.4°C | 0.5% | 34.1hPa | 2.6V | 18:12:15 | 01:47:10 | 00:00:00 | |
| DO3MHA-12 | 2026-09-02 00:04:46 | 51.41883 | 7.82147 | 5° | 9km/h | 23474m | 5.2m/s | -52.3°C | 3.9% | 34.0hPa | 2.5V | 00:00:00 | 01:47:12 | 00:00:00 | |
| DM0DOS-11 | 2026-09-02 00:04:45 | 51.41872 | 7.82129 | 64° | 9km/h | 23439m | 4.5m/s | -52.3°C | 3.9% | 34.2hPa | 2.6V | 08:30:00 | 01:47:05 | 00:00:00 | |
| DO2JMG | 2026-09-02 00:04:44 | 51.41876 | 7.82140 | 44° | 11km/h | 23455m | 4.2m/s | -52.3°C | 0.4% | 34.1hPa | 2.5V | 18:12:15 | 01:47:08 | 00:00:00 | |
| HSKMA3-T | 2026-09-02 00:04:41 | 51.41874 | 7.82137 | 54° | 11km/h | 23450m | 5.6m/s | -52.3°C | 0.4% | 34.1hPa | 2.5V | 18:12:15 | 01:47:07 | 00:00:00 | |
| AA1-15 | 2026-09-02 00:04:38 | 51.41871 | 7.82127 | 50° | 5km/h | 23435m | 5.1m/s | -52.2°C | 0.4% | 34.2hPa | 2.5V | 18:12:15 | 01:47:04 | 00:00:00 | |
| DL1XH1-15 | 2026-09-02 00:04:38 | 51.41867 | 7.82134 | 215° | 5km/h | 23406m | 4.1m/s | -52.2°C | 3.8% | 34.4hPa | 2.5V | 08:30:00 | 01:46:58 | 00:00:00 | |
| DF8AY | 2026-09-02 00:04:37 | 51.41869 | 7.82137 | 284° | 4km/h | 23392m | 5m/s | -52.3°C | 0.4% | 34.5hPa | 2.6V | 18:12:15 | 01:46:55 | 00:00:00 | |
| DL1XH-west | 2026-09-02 00:04:36 | 51.41868 | 7.82126 | 323° | 7km/h | 23425m | 3.9m/s | -52.2°C | 0.4% | 34.3hPa | 2.5V | 18:12:15 | 01:47:02 | 00:00:00 | |
| BIOWL1-15 | 2026-09-02 00:04:35 | 51.41867 | 7.82128 | 304° | 7km/h | 23421m | 4.1m/s | -52.2°C | 0.4% | 34.3hPa | 2.6V | 18:12:15 | 01:47:01 | 00:00:00 | |
| DL1XH-15 | 2026-09-02 00:04:35 | 51.41869 | 7.82136 | 235° | 2km/h | 23397m | 5.3m/s | -52.3°C | 3.8% | 34.4hPa | 2.5V | 08:30:00 | 01:46:56 | 00:00:00 | |
| DO2JMG | 2026-09-02 00:04:33 | 51.41867 | 7.82134 | 216° | 5km/h | 23406m | 4.1m/s | -52.2°C | 0.4% | 34.4hPa | 2.5V | 18:12:15 | 01:46:58 | 00:00:00 | |
| HSKMA3-T | 2026-09-02 00:04:32 | 51.41868 | 7.82135 | 208° | 4km/h | 23402m | 4.2m/s | -52.3°C | 0.4% | 34.4hPa | 2.5V | 18:12:15 | 01:46:57 | 00:00:00 | |
| AA1-15 | 2026-09-02 00:04:28 | 51.41868 | 7.82139 | 287° | 2km/h | 23383m | 4.4m/s | -52.4°C | 0.4% | 34.5hPa | 2.5V | 18:12:15 | 01:46:53 | 00:00:00 | |
| DL1XH-west | 2026-09-02 00:04:26 | 51.41868 | 7.82140 | 193° | 2km/h | 23378m | 5.2m/s | -52.4°C | 0.4% | 34.6hPa | 2.5V | 18:12:15 | 01:46:52 | 00:00:00 | |
| BIOWL1-15 | 2026-09-02 00:04:25 | 51.41869 | 7.82139 | 136° | 4km/h | 23373m | 5m/s | -52.4°C | 0.4% | 34.6hPa | 2.5V | 18:12:15 | 01:46:51 | 00:00:00 | |
| DO2SHX-10 | 2026-09-02 00:04:25 | 51.41869 | 7.82139 | 137° | 5km/h | 23374m | 4.9m/s | -52.4°C | 3.9% | 34.5hPa | 2.5V | 00:00:00 | 01:46:51 | 00:00:00 | |
| DL1XH1-15 | 2026-09-02 00:04:23 | 51.41870 | 7.82133 | 71° | 4km/h | 23360m | 4.4m/s | -52.5°C | 3.9% | 34.6hPa | 2.5V | 08:30:00 | 01:46:48 | 00:00:00 | |
| DO2JMG | 2026-09-02 00:04:23 | 51.41870 | 7.82133 | 71° | 4km/h | 23360m | 4.4m/s | -52.5°C | 0.4% | 34.6hPa | 2.5V | 18:12:15 | 01:46:48 | 00:00:00 | |
| DL1NUX | 2026-09-02 00:04:22 | 51.41871 | 7.82150 | 237° | 15km/h | 23337m | 4.6m/s | -52.5°C | 3.9% | 34.8hPa | 2.5V | 08:30:00 | 01:46:43 | 00:00:00 | |
| HSKMA3-T | 2026-09-02 00:04:21 | 51.41870 | 7.82133 | 321° | 4km/h | 23356m | 4.6m/s | -52.5°C | 0.4% | 34.6hPa | 2.5V | 18:12:15 | 01:46:47 | 00:00:00 | |
| DD1CC9-15 | 2026-09-02 00:04:21 | 51.41870 | 7.82133 | 322° | 4km/h | 23356m | 4.6m/s | -52.5°C | 1.0% | 34.6hPa | 2.6V | 00:00:00 | 00:00:00 | 00:00:00 | |
| DD8BA-10 | 2026-09-02 00:04:20 | 51.41869 | 7.82135 | 285° | 9km/h | 23351m | 4.5m/s | -52.4°C | 3.9% | 34.6hPa | 2.6V | 00:00:00 | 00:00:00 | 00:00:00 | |
| DB0UT-7 | 2026-09-02 00:04:19 | 51.41869 | 7.82139 | 267° | 9km/h | 23347m | 4.7m/s | -52.4°C | 3.9% | 34.6hPa | 2.6V | 00:00:00 | 00:00:00 | 00:00:00 | |
| DO3DL | 2026-09-02 00:04:18 | 51.41870 | 7.82144 | 253° | 15km/h | 23342m | 4.8m/s | -52.5°C | 0.9% | 34.7hPa | 2.6V | 00:00:00 | 00:00:00 | 00:00:00 | |
| DL1XH1-15 | 2026-09-02 00:04:17 | 51.41879 | 7.82162 | 175° | 4km/h | 23314m | 4.1m/s | -52.5°C | 3.9% | 34.9hPa | 2.6V | 08:30:00 | 01:46:38 | 00:00:00 | |
| BIOWL1-15 | 2026-09-02 00:04:17 | 51.41880 | 7.82162 | 175° | 4km/h | 23309m | 4.8m/s | -52.4°C | 0.4% | 34.9hPa | 2.5V | 18:12:15 | 01:46:37 | 00:00:00 | |
| AA1-15 | 2026-09-02 00:04:17 | 51.41877 | 7.82161 | 221° | 7km/h | 23323m | 5m/s | -52.5°C | 0.4% | 34.8hPa | 2.5V | 18:12:15 | 01:46:40 | 00:00:00 | |
| DM0DOS-11 | 2026-09-02 00:04:16 | 51.41884 | 7.82162 | 180° | 9km/h | 23299m | 4.5m/s | -52.4°C | 3.9% | 34.9hPa | 2.5V | 08:30:00 | 01:46:35 | 00:00:00 | |
| DO2JMG | 2026-09-02 00:04:13 | 51.41879 | 7.82162 | 176° | 4km/h | 23314m | 4.1m/s | -52.5°C | 0.5% | 34.9hPa | 2.6V | 18:12:15 | 01:46:38 | 00:00:00 | |
| DL1NUX | 2026-09-02 00:04:13 | 51.41888 | 7.82162 | 176° | 7km/h | 23290m | 5.4m/s | -52.4°C | 3.9% | 35hPa | 2.6V | 08:30:00 | 01:46:33 | 00:00:00 | |
| HSKMA3-T | 2026-09-02 00:04:11 | 51.41882 | 7.82162 | 178° | 7km/h | 23304m | 5.4m/s | -52.4°C | 0.4% | 34.9hPa | 2.5V | 18:12:15 | 01:46:36 | 00:00:00 | |
| DD8BA-10 | 2026-09-02 00:04:10 | 51.41882 | 7.82162 | 178° | 7km/h | 23304m | 5.3m/s | -52.4°C | 3.9% | 34.9hPa | 2.6V | 00:00:00 | 00:00:00 | 00:00:00 | |
| DO2SHX-10 | 2026-09-02 00:04:09 | 51.41884 | 7.82162 | 181° | 9km/h | 23300m | 4.4m/s | -52.4°C | 3.9% | 34.9hPa | 2.6V | 00:00:00 | 01:46:35 | 00:00:00 | |
| DF7PN | 2026-09-02 00:04:08 | 51.41890 | 7.82162 | 175° | 5km/h | 23285m | 4.9m/s | -52.4°C | 1.0% | 35.0hPa | 2.6V | 00:00:00 | 00:00:00 | 00:00:00 | |
| DL1XH1-15 | 2026-09-02 00:04:07 | 51.41897 | 7.82166 | 213° | 11km/h | 23265m | 4.8m/s | -52.3°C | 3.9% | 35.1hPa | 2.6V | 08:30:00 | 01:46:28 | 00:00:00 | |
| BIOWL1-15 | 2026-09-02 00:04:06 | 51.41893 | 7.82163 | 204° | 7km/h | 23276m | 5.5m/s | -52.4°C | 0.4% | 35.1hPa | 2.5V | 18:12:15 | 01:46:30 | 00:00:00 | |
| DL1XH-15 | 2026-09-02 00:04:05 | 51.41901 | 7.82170 | 212° | 7km/h | 23255m | 4.3m/s | -52.3°C | 3.9% | 35.2hPa | 2.5V | 08:30:00 | 01:46:26 | 00:00:00 | |
| DL1XH-west | 2026-09-02 00:04:05 | 51.41891 | 7.82162 | 191° | 5km/h | 23280m | 4m/s | -52.4°C | 0.4% | 35.1hPa | 2.5V | 18:12:15 | 01:46:31 | 00:00:00 | |
| DO3MHA-11 | 2026-09-02 00:04:05 | 51.41893 | 7.82163 | 205° | 11km/h | 23276m | 5.5m/s | -52.3°C | 3.9% | 35.0hPa | 2.5V | 00:00:00 | 01:46:30 | 00:00:00 | |
| EDDB2-11 | 2026-09-02 00:04:04 | 51.41895 | 7.82164 | 208° | 9km/h | 23270m | 5.4m/s | -52.4°C | 1.0% | 35.1hPa | 2.6V | 00:00:00 | 00:00:00 | 00:00:00 | |
| DL1NUX | 2026-09-02 00:04:03 | 51.41908 | 7.82176 | 199° | 13km/h | 23241m | 4.9m/s | -52.2°C | 3.9% | 35.3hPa | 2.6V | 08:30:00 | 01:46:23 | 00:00:00 | |
| DO2JMG | 2026-09-02 00:04:02 | 51.41899 | 7.82168 | 216° | 9km/h | 23260m | 5.7m/s | -52.3°C | 0.4% | 35.2hPa | 2.5V | 18:12:15 | 01:46:27 | 00:00:00 | |
| DF8AY | 2026-09-02 00:04:01 | 51.41903 | 7.82172 | 208° | 9km/h | 23251m | 3.9m/s | -52.3°C | 0.4% | 35.2hPa | 2.5V | 18:12:15 | 01:46:25 | 00:00:00 | |
| DM0DOS-11 | 2026-09-02 00:04:01 | 51.41903 | 7.82172 | 208° | 9km/h | 23251m | 3.9m/s | -52.2°C | 3.9% | 35.2hPa | 2.5V | 08:30:00 | 01:46:25 | 00:00:00 | |
| HSKMA3-T | 2026-09-02 00:04:00 | 51.41901 | 7.82170 | 213° | 9km/h | 23255m | 4.3m/s | -52.3°C | 0.5% | 35.2hPa | 2.5V | 18:12:15 | 01:46:26 | 00:00:00 | |
| DL1XH-west | 2026-09-02 00:03:55 | 51.41914 | 7.82178 | 183° | 11km/h | 23231m | 5.8m/s | -52.2°C | 0.4% | 35.3hPa | 2.5V | 18:12:15 | 01:46:21 | 00:00:00 | |
| DM0DOS-11 | 2026-09-02 00:03:55 | 51.41934 | 7.82179 | 176° | 4km/h | 23193m | 5.3m/s | -52.3°C | 3.9% | 35.5hPa | 2.5V | 08:30:00 | 01:46:13 | 00:00:00 | |
| DL1XH-15 | 2026-09-02 00:03:55 | 51.41928 | 7.82177 | 192° | 13km/h | 23207m | 3.8m/s | -52.3°C | 3.9% | 35.5hPa | 2.6V | 08:30:00 | 01:46:16 | 00:00:00 | |
| DO2JMG | 2026-09-02 00:03:51 | 51.41928 | 7.82177 | 193° | 13km/h | 23208m | 3.8m/s | -52.3°C | 0.5% | 35.5hPa | 2.6V | 18:12:15 | 01:46:16 | 00:00:00 | |
| HSKMA3-T | 2026-09-02 00:03:51 | 51.41933 | 7.82179 | 191° | 7km/h | 23199m | 5.9m/s | -52.3°C | 0.4% | 35.5hPa | 2.5V | 18:12:15 | 01:46:14 | 00:00:00 | |
| DL1XH1-15 | 2026-09-02 00:03:48 | 51.41940 | 7.82179 | 147° | 4km/h | 23159m | 4.5m/s | -52.2°C | 3.8% | 35.8hPa | 2.5V | 08:30:00 | 01:46:06 | 00:00:00 | |
| DL1XH-west | 2026-09-02 00:03:45 | 51.41942 | 7.82178 | 169° | 5km/h | 23149m | 5.4m/s | -52.3°C | 0.3% | 35.8hPa | 2.6V | 18:12:15 | 01:46:04 | 00:00:00 | |
| DL1XH-15 | 2026-09-02 00:03:45 | 51.41940 | 7.82179 | 147° | 4km/h | 23159m | 4.5m/s | -52.2°C | 3.8% | 35.8hPa | 2.5V | 08:30:00 | 01:46:06 | 00:00:00 | |
| DF8AY | 2026-09-02 00:03:45 | 51.41941 | 7.82178 | 158° | 5km/h | 23154m | 5.1m/s | -52.2°C | 0.4% | 35.8hPa | 2.6V | 18:12:15 | 01:46:05 | 00:00:00 | |
| DO2JMG | 2026-09-02 00:03:42 | 51.41940 | 7.82179 | 147° | 4km/h | 23159m | 4.5m/s | -52.2°C | 0.4% | 35.8hPa | 2.5V | 18:12:15 | 01:46:06 | 00:00:00 | |
| DM0DOS-11 | 2026-09-02 00:03:42 | 51.41942 | 7.82178 | 169° | 5km/h | 23149m | 5.4m/s | -52.3°C | 3.8% | 35.8hPa | 2.6V | 08:30:00 | 01:46:04 | 00:00:00 | |
| HSKMA3-T | 2026-09-02 00:03:37 | 51.41944 | 7.82177 | 159° | 5km/h | 23144m | 4.4m/s | -52.3°C | 0.4% | 35.8hPa | 2.5V | 18:12:15 | 01:46:03 | 00:00:00 | |
| DF7PN | 2026-09-02 00:03:37 | 51.41945 | 7.82174 | 108° | 5km/h | 23133m | 5.1m/s | -52.3°C | 0.9% | 35.9hPa | 2.6V | 00:00:00 | 00:00:00 | 00:00:00 | |
| DD1CC3-15 | 2026-09-02 00:03:36 | 51.41945 | 7.82174 | 109° | 7km/h | 23134m | 5.1m/s | -52.3°C | 1.0% | 35.9hPa | 2.6V | 00:00:00 | 00:00:00 | 00:00:00 | |
| DM0DOS-11 | 2026-09-02 00:03:34 | 51.41957 | 7.82152 | 114° | 9km/h | 23095m | 4.4m/s | -52.1°C | 3.8% | 36.1hPa | 2.6V | 08:30:00 | 01:45:53 | 00:00:00 | |
| DL1NUX | 2026-09-02 00:03:33 | 51.41957 | 7.82152 | 114° | 9km/h | 23095m | 4.4m/s | -52.1°C | 3.8% | 36.1hPa | 2.6V | 08:30:00 | 01:45:53 | 00:00:00 | |
| AA1-15 | 2026-09-02 00:03:32 | 51.41948 | 7.82165 | 132° | 9km/h | 23119m | 5.6m/s | -52.2°C | 0.4% | 36hPa | 2.5V | 18:12:15 | 01:45:58 | 00:00:00 | |
| BIOWL1-15 | 2026-09-02 00:03:30 | 51.41952 | 7.82161 | 148° | 11km/h | 23110m | 4.1m/s | -52.1°C | 0.4% | 36hPa | 2.5V | 18:12:15 | 01:45:56 | 00:00:00 | |
| DF8AY | 2026-09-02 00:03:28 | 51.41956 | 7.82155 | 124° | 9km/h | 23100m | 5.3m/s | -52.1°C | 0.4% | 36.1hPa | 2.6V | 18:12:15 | 01:45:54 | 00:00:00 | |
| HSKMA3-T | 2026-09-02 00:03:27 | 51.41958 | 7.82149 | 113° | 5km/h | 23090m | 5.5m/s | -52.2°C | 0.4% | 36.1hPa | 2.5V | 18:12:15 | 01:45:52 | 00:00:00 | |
| HTAHTA | 2026-09-02 00:03:26 | 51.41954 | 7.82142 | 34° | 9km/h | 23065m | 3.9m/s | -52.4°C | 1.0% | 36.3hPa | 2.6V | 00:00:00 | 00:00:00 | 00:00:00 | |
| DM0DOS-11 | 2026-09-02 00:03:22 | 51.41951 | 7.82136 | 125° | 7km/h | 23050m | 4.9m/s | -52.5°C | 3.9% | 36.3hPa | 2.6V | 08:30:00 | 01:45:44 | 00:00:00 | |
| DL1NUX | 2026-09-02 00:03:22 | 51.41953 | 7.82133 | 139° | 11km/h | 23046m | 4.1m/s | -52.5°C | 3.9% | 36.4hPa | 2.6V | 08:30:00 | 01:45:43 | 00:00:00 | |
| AA1-15 | 2026-09-02 00:03:22 | 51.41956 | 7.82144 | 30° | 9km/h | 23069m | 5m/s | -52.3°C | 0.4% | 36.2hPa | 2.6V | 18:12:15 | 01:45:48 | 00:00:00 | |
| DL1XH-west | 2026-09-02 00:03:19 | 51.41951 | 7.82138 | 75° | 5km/h | 23055m | 5.3m/s | -52.5°C | 0.4% | 36.3hPa | 2.5V | 18:12:15 | 01:45:45 | 00:00:00 | |
| DF8AY | 2026-09-02 00:03:18 | 51.41951 | 7.82136 | 126° | 7km/h | 23050m | 4.9m/s | -52.5°C | 0.4% | 36.3hPa | 2.6V | 18:12:15 | 01:45:44 | 00:00:00 | |
| DK9SH | 2026-09-02 00:03:18 | 51.41935 | 7.82094 | 47° | 15km/h | 22986m | 4.5m/s | -52.5°C | 1.0% | 36.7hPa | 2.5V | 00:00:00 | 00:00:00 | 00:00:00 | |
| DB0ND-19 | 2026-09-02 00:03:17 | 51.41932 | 7.82085 | 69° | 11km/h | 22975m | 5.0m/s | -52.5°C | 1.0% | 36.7hPa | 2.5V | 00:00:00 | 00:00:00 | 00:00:00 | |
| HSKMA3-T | 2026-09-02 00:03:16 | 51.41958 | 7.82125 | 123° | 16km/h | 23037m | 5.3m/s | -52.6°C | 0.4% | 36.4hPa | 2.5V | 18:12:15 | 01:45:41 | 00:00:00 | |
| WPPR-10 | 2026-09-02 00:03:13 | 51.41929 | 7.82067 | 69° | 9km/h | 22955m | 4.0m/s | -52.4°C | 1.0% | 36.9hPa | 2.6V | 00:00:00 | 00:00:00 | 00:00:00 | |
| DL1NUX | 2026-09-02 00:03:12 | 51.41945 | 7.82102 | 0° | 13km/h | 22999m | 4.9m/s | -52.5°C | 3.9% | 36.6hPa | 2.6V | 08:30:00 | 01:45:33 | 00:00:00 | |
| GOEST3-10 | 2026-09-02 00:03:12 | 51.41928 | 7.82064 | 53° | 7km/h | 22951m | 4.0m/s | -52.4°C | 3.9% | 36.9hPa | 2.6V | 00:00:00 | 00:00:00 | 00:00:00 | |
| AA1-15 | 2026-09-02 00:03:11 | 51.41957 | 7.82102 | 40° | 11km/h | 23018m | 5.4m/s | -52.6°C | 0.5% | 36.5hPa | 2.6V | 18:12:15 | 01:45:37 | 00:00:00 | |
| DM0DOS-11 | 2026-09-02 00:03:10 | 51.41948 | 7.82101 | 349° | 13km/h | 23004m | 4.4m/s | -52.5°C | 3.9% | 36.6hPa | 2.5V | 08:30:00 | 01:45:34 | 00:00:00 | |
| DL1XH-west | 2026-09-02 00:03:09 | 51.41951 | 7.82100 | 351° | 13km/h | 23008m | 4.3m/s | -52.5°C | 0.5% | 36.6hPa | 2.5V | 18:12:15 | 01:45:35 | 00:00:00 | |
| DF8AY | 2026-09-02 00:03:09 | 51.41948 | 7.82101 | 350° | 13km/h | 23004m | 4.4m/s | -52.5°C | 0.5% | 36.6hPa | 2.5V | 18:12:15 | 01:45:34 | 00:00:00 | |
| SO1NDE-10 | 2026-09-02 00:03:09 | 51.41922 | 7.82069 | 324° | 9km/h | 22930m | 5.6m/s | -52.3°C | 3.9% | 37.0hPa | 2.5V | 00:00:00 | 01:45:19 | 00:00:00 | |
| DO2SHX-10 | 2026-09-02 00:03:08 | 51.41922 | 7.82069 | 324° | 15km/h | 22930m | 5.6m/s | -52.3°C | 3.9% | 37.0hPa | 2.5V | 00:00:00 | 01:45:19 | 00:00:00 | |
| GOEST3-10 | 2026-09-02 00:03:07 | 51.41919 | 7.82073 | 329° | 13km/h | 22926m | 4.6m/s | -52.3°C | 3.9% | 37.0hPa | 2.5V | 00:00:00 | 01:45:18 | 08:30:00 | |
| BIOWL7-15 | 2026-09-02 00:03:06 | 51.41919 | 7.82073 | 330° | 15km/h | 22926m | 4.6m/s | -52.4°C | 1.0% | 37.1hPa | 2.5V | 00:00:00 | 00:00:00 | 00:00:00 | |
| HSKMA3-T | 2026-09-02 00:03:05 | 51.41938 | 7.82098 | 34° | 15km/h | 22990m | 4.5m/s | -52.5°C | 0.4% | 36.7hPa | 2.5V | 18:12:15 | 01:45:31 | 00:00:00 | |
| DL1XH-15 | 2026-09-02 00:03:05 | 51.41930 | 7.82076 | 79° | 11km/h | 22965m | 5.3m/s | -52.5°C | 3.9% | 36.8hPa | 2.5V | 08:30:00 | 01:45:26 | 00:00:00 | |
| BIOWL1-15 | 2026-09-02 00:03:04 | 51.41935 | 7.82094 | 46° | 15km/h | 22985m | 4.5m/s | -52.5°C | 0.5% | 36.7hPa | 2.5V | 18:12:15 | 01:45:30 | 00:00:00 | |
| DM0DOS-11 | 2026-09-02 00:03:04 | 51.41927 | 7.82063 | 6° | 4km/h | 22946m | 5.8m/s | -52.4°C | 3.9% | 37hPa | 2.6V | 08:30:00 | 01:45:22 | 00:00:00 | |
| HTAHTA | 2026-09-02 00:03:04 | 51.41913 | 7.82078 | 328° | 13km/h | 22915m | 5.9m/s | -52.3°C | 1.0% | 37.1hPa | 2.5V | 00:00:00 | 00:00:00 | 00:00:00 | |
| DO2SHX-10 | 2026-09-02 00:03:03 | 51.41913 | 7.82078 | 329° | 11km/h | 22915m | 5.9m/s | -52.3°C | 3.9% | 37.1hPa | 2.5V | 00:00:00 | 01:45:16 | 00:00:00 | |
| DL1NUX | 2026-09-02 00:03:02 | 51.41928 | 7.82064 | 52° | 7km/h | 22951m | 4m/s | -52.4°C | 3.9% | 36.9hPa | 2.5V | 08:30:00 | 01:45:23 | 00:00:00 | |
| SONDE2-11 | 2026-09-02 00:03:02 | 51.41908 | 7.82083 | 343° | 7km/h | 22905m | 4.6m/s | -52.3°C | 1.0% | 37.2hPa | 2.5V | 00:00:00 | 00:00:00 | 00:00:00 | |
| AA1-15 | 2026-09-02 00:03:01 | 51.41930 | 7.82076 | 79° | 11km/h | 22965m | 5.3m/s | -52.5°C | 0.5% | 36.8hPa | 2.5V | 18:12:15 | 01:45:26 | 00:00:00 | |
| DD1CC2-15 | 2026-09-02 00:03:00 | 51.41908 | 7.82082 | 345° | 7km/h | 22905m | 4.6m/s | -52.3°C | 1.0% | 37.2hPa | 2.5V | 00:00:00 | 00:00:00 | 00:00:00 | |
| DO2JMG | 2026-09-02 00:02:59 | 51.41929 | 7.82067 | 69° | 11km/h | 22955m | 4m/s | -52.4°C | 0.5% | 36.9hPa | 2.5V | 18:12:15 | 01:45:24 | 00:00:00 | |
| DF8AY | 2026-09-02 00:02:58 | 51.41928 | 7.82064 | 53° | 7km/h | 22951m | 4m/s | -52.4°C | 0.4% | 36.9hPa | 2.5V | 18:12:15 | 01:45:23 | 00:00:00 | |
| BIOWL1-15 | 2026-09-02 00:02:57 | 51.41924 | 7.82066 | 315° | 11km/h | 22936m | 5.1m/s | -52.4°C | 0.5% | 37hPa | 2.5V | 18:12:15 | 01:45:20 | 00:00:00 | |
| HSKMA3-T | 2026-09-02 00:02:55 | 51.41926 | 7.82064 | 315° | 7km/h | 22941m | 5.2m/s | -52.4°C | 0.5% | 37hPa | 2.6V | 18:12:15 | 01:45:21 | 00:00:00 | |
| DO3MHA-11 | 2026-09-02 00:02:55 | 51.41902 | 7.82076 | 35° | 9km/h | 22886m | 4.0m/s | -52.2°C | 3.8% | 37.2hPa | 2.6V | 00:00:00 | 01:45:10 | 00:00:00 | |
| DL1XH-15 | 2026-09-02 00:02:54 | 51.41913 | 7.82078 | 328° | 13km/h | 22915m | 5.9m/s | -52.3°C | 3.9% | 37.1hPa | 2.6V | 08:30:00 | 01:45:16 | 00:00:00 | |
| DO2SHX-10 | 2026-09-02 00:02:53 | 51.41900 | 7.82075 | 354° | 11km/h | 22881m | 5.6m/s | -52.2°C | 3.8% | 37.3hPa | 2.5V | 00:00:00 | 01:45:09 | 00:00:00 | |
| DL1NUX | 2026-09-02 00:02:52 | 51.41907 | 7.82083 | 15° | 7km/h | 22899m | 5.5m/s | -52.2°C | 3.8% | 37.2hPa | 2.5V | 08:30:00 | 01:45:13 | 00:00:00 | |
| GOEST3-10 | 2026-09-02 00:02:52 | 51.41899 | 7.82077 | 298° | 13km/h | 22875m | 5.2m/s | -52.2°C | 3.9% | 37.3hPa | 2.6V | 00:00:00 | 01:45:08 | 00:00:00 | |
| DO3DL | 2026-09-02 00:02:51 | 51.41899 | 7.82077 | 298° | 9km/h | 22875m | 5.3m/s | -52.3°C | 1.0% | 37.3hPa | 2.6V | 00:00:00 | 00:00:00 | 00:00:00 | |
| AA1-15 | 2026-09-02 00:02:50 | 51.41910 | 7.82081 | 329° | 11km/h | 22909m | 5m/s | -52.3°C | 0.4% | 37.1hPa | 2.6V | 18:12:15 | 01:45:15 | 00:00:00 | |
| DM0DOS-11 | 2026-09-02 00:02:49 | 51.41908 | 7.82083 | 343° | 7km/h | 22905m | 4.6m/s | -52.3°C | 3.9% | 37.2hPa | 2.6V | 08:30:00 | 01:45:14 | 00:00:00 | |
| DL1XH-west | 2026-09-02 00:02:48 | 51.41908 | 7.82083 | 344° | 7km/h | 22905m | 4.6m/s | -52.3°C | 0.4% | 37.2hPa | 2.6V | 18:12:15 | 01:45:14 | 00:00:00 | |
| DF8AY | 2026-09-02 00:02:47 | 51.41907 | 7.82083 | 15° | 7km/h | 22899m | 5.5m/s | -52.2°C | 0.4% | 37.2hPa | 2.5V | 18:12:15 | 01:45:13 | 00:00:00 | |
| DD8BA-10 | 2026-09-02 00:02:47 | 51.41895 | 7.82093 | 294° | 7km/h | 22861m | 5.2m/s | -52.3°C | 3.9% | 37.3hPa | 2.6V | 00:00:00 | 00:00:00 | 00:00:00 | |
| GOEST3-10 | 2026-09-02 00:02:46 | 51.41892 | 7.82103 | 305° | 5km/h | 22851m | 4.4m/s | -52.3°C | 3.9% | 37.4hPa | 2.6V | 00:00:00 | 00:00:00 | 00:00:00 | |
| DO3MHA-12 | 2026-09-02 00:02:45 | 51.41891 | 7.82105 | 294° | 5km/h | 22846m | 5.5m/s | -52.3°C | 3.9% | 37.5hPa | 2.5V | 00:00:00 | 01:45:02 | 00:00:00 | |
| DL1XH-15 | 2026-09-02 00:02:44 | 51.41897 | 7.82087 | 288° | 16km/h | 22865m | 4.6m/s | -52.3°C | 3.9% | 37.4hPa | 2.5V | 08:30:00 | 01:45:06 | 00:00:00 | |
| HSKMA3-T | 2026-09-02 00:02:44 | 51.41902 | 7.82076 | 35° | 7km/h | 22885m | 4m/s | -52.2°C | 0.4% | 37.3hPa | 2.5V | 18:12:15 | 01:45:10 | 00:00:00 | |
| DM0DOS-11 | 2026-09-02 00:02:43 | 51.41891 | 7.82105 | 293° | 5km/h | 22846m | 5.5m/s | -52.4°C | 3.9% | 37.5hPa | 2.6V | 08:30:00 | 01:45:02 | 00:00:00 | |
| DD1CC1-15 | 2026-09-02 00:02:43 | 51.41891 | 7.82107 | 243° | 4km/h | 22840m | 5.4m/s | -52.4°C | 1.0% | 37.5hPa | 2.5V | 00:00:00 | 00:00:00 | 00:00:00 | |
| DO3MHA-11 | 2026-09-02 00:02:42 | 51.41892 | 7.82107 | 174° | 7km/h | 22835m | 4.9m/s | -52.4°C | 3.9% | 37.5hPa | 2.5V | 00:00:00 | 01:45:00 | 00:00:00 | |
| DJ2DS-15 | 2026-09-02 00:02:41 | 51.41894 | 7.82102 | 104° | 11km/h | 22820m | 4.1m/s | -52.5°C | 4.0% | 37.6hPa | 2.5V | 00:00:00 | 01:44:57 | 08:30:00 | |
| AA1-15 | 2026-09-02 00:02:40 | 51.41892 | 7.82103 | 305° | 11km/h | 22851m | 4.4m/s | -52.4°C | 0.4% | 37.5hPa | 2.6V | 18:12:15 | 01:45:03 | 00:00:00 | |
| WPPR-10 | 2026-09-02 00:02:39 | 51.41895 | 7.82108 | 279° | 11km/h | 22800m | 4.8m/s | -52.4°C | 1.0% | 37.8hPa | 2.5V | 00:00:00 | 00:00:00 | 00:00:00 | |
| DL1XH-west | 2026-09-02 00:02:38 | 51.41894 | 7.82099 | 302° | 15km/h | 22855m | 4.8m/s | -52.4°C | 0.5% | 37.5hPa | 2.5V | 18:12:15 | 01:45:04 | 00:00:00 | |
| DO2SHX-10 | 2026-09-02 00:02:38 | 51.41895 | 7.82108 | 280° | 15km/h | 22800m | 4.8m/s | -52.4°C | 4.0% | 37.7hPa | 2.5V | 00:00:00 | 01:44:53 | 00:00:00 | |
| DF8AY | 2026-09-02 00:02:37 | 51.41891 | 7.82105 | 293° | 5km/h | 22846m | 5.5m/s | -52.4°C | 0.5% | 37.5hPa | 2.6V | 18:12:15 | 01:45:02 | 00:00:00 | |
| DO3MHA-12 | 2026-09-02 00:02:35 | 51.41894 | 7.82113 | 290° | 13km/h | 22795m | 5.7m/s | -52.3°C | 3.9% | 37.7hPa | 2.5V | 00:00:00 | 01:44:52 | 00:00:00 | |
| HSKMA3-T | 2026-09-02 00:02:34 | 51.41892 | 7.82107 | 174° | 4km/h | 22835m | 4.9m/s | -52.4°C | 0.4% | 37.5hPa | 2.5V | 18:12:15 | 01:45:00 | 00:00:00 | |
| BIOWL1-15 | 2026-09-02 00:02:34 | 51.41894 | 7.82102 | 104° | 5km/h | 22819m | 4.1m/s | -52.5°C | 0.5% | 37.6hPa | 2.5V | 18:12:15 | 01:44:57 | 00:00:00 | |
| DL1XH1-15 | 2026-09-02 00:02:34 | 51.41894 | 7.82101 | 126° | 4km/h | 22815m | 5m/s | -52.5°C | 4% | 37.7hPa | 2.6V | 08:30:00 | 01:44:56 | 00:00:00 | |
| DK9SH | 2026-09-02 00:02:33 | 51.41889 | 7.82129 | 296° | 15km/h | 22781m | 4.3m/s | -52.3°C | 1.0% | 37.9hPa | 2.5V | 00:00:00 | 00:00:00 | 00:00:00 | |
| DO3DL | 2026-09-02 00:02:32 | 51.41888 | 7.82134 | 283° | 13km/h | 22776m | 5.9m/s | -52.2°C | 1.0% | 37.9hPa | 2.5V | 00:00:00 | 00:00:00 | 00:00:00 | |
| SONCRA | 2026-09-02 00:02:31 | 51.41888 | 7.82144 | 258° | 11km/h | 22766m | 4.2m/s | -52.2°C | 1.0% | 38.0hPa | 2.5V | 00:00:00 | 00:00:00 | 00:00:00 | |
| DM0DOS-11 | 2026-09-02 00:02:30 | 51.41895 | 7.82103 | 267° | 9km/h | 22805m | 4.5m/s | -52.5°C | 4% | 37.7hPa | 2.5V | 08:30:00 | 01:44:54 | 00:00:00 | |
| DO2SHX-10 | 2026-09-02 00:02:30 | 51.41888 | 7.82144 | 259° | 9km/h | 22766m | 4.1m/s | -52.1°C | 3.9% | 37.9hPa | 2.5V | 00:00:00 | 01:44:46 | 00:00:00 | |
| DD8BA-10 | 2026-09-02 00:02:29 | 51.41888 | 7.82148 | 262° | 9km/h | 22761m | 5.7m/s | -52.1°C | 3.9% | 38.0hPa | 2.5V | 00:00:00 | 00:00:00 | 00:00:00 | |
| DL1XH-west | 2026-09-02 00:02:28 | 51.41895 | 7.82103 | 268° | 9km/h | 22805m | 4.5m/s | -52.5°C | 0.5% | 37.7hPa | 2.5V | 18:12:15 | 01:44:54 | 00:00:00 | |
| DL3AQ-11 | 2026-09-02 00:02:28 | 51.41889 | 7.82151 | 275° | 7km/h | 22755m | 5.6m/s | -52.1°C | 1.0% | 38.0hPa | 2.5V | 00:00:00 | 00:00:00 | 00:00:00 | |
| DO2JMG | 2026-09-02 00:02:27 | 51.41895 | 7.82108 | 279° | 13km/h | 22800m | 4.8m/s | -52.4°C | 0.5% | 37.8hPa | 2.5V | 18:12:15 | 01:44:53 | 00:00:00 | |
| DF8AY | 2026-09-02 00:02:27 | 51.41894 | 7.82113 | 290° | 15km/h | 22795m | 5.7m/s | -52.4°C | 0.4% | 37.8hPa | 2.5V | 18:12:15 | 01:44:52 | 00:00:00 | |
| DL1XH-15 | 2026-09-02 00:02:26 | 51.41888 | 7.82144 | 258° | 11km/h | 22766m | 4.2m/s | -52.2°C | 3.9% | 38hPa | 2.6V | 08:30:00 | 01:44:46 | 00:00:00 | |
| DM0DOS-11 | 2026-09-02 00:02:25 | 51.41889 | 7.82151 | 275° | 7km/h | 22755m | 5.6m/s | -52.1°C | 3.9% | 38hPa | 2.5V | 08:30:00 | 01:44:44 | 00:00:00 | |
| DO3DL | 2026-09-02 00:02:24 | 51.41888 | 7.82157 | 270° | 7km/h | 22745m | 5.1m/s | -52.0°C | 1.0% | 38.1hPa | 2.5V | 00:00:00 | 00:00:00 | 00:00:00 | |
| HSKMA3-T | 2026-09-02 00:02:24 | 51.41888 | 7.82134 | 282° | 13km/h | 22776m | 5.9m/s | -52.2°C | 0.4% | 37.9hPa | 2.5V | 18:12:15 | 01:44:48 | 00:00:00 | |
| BIOWL1-15 | 2026-09-02 00:02:23 | 51.41888 | 7.82139 | 265° | 13km/h | 22770m | 5m/s | -52.2°C | 0.4% | 38hPa | 2.5V | 18:12:15 | 01:44:47 | 00:00:00 | |
| DD1CC1-15 | 2026-09-02 00:02:21 | 51.41890 | 7.82164 | 241° | 11km/h | 22734m | 4.9m/s | -51.9°C | 1.0% | 38.1hPa | 2.5V | 00:00:00 | 00:00:00 | 00:00:00 | |
| DL8DAS-15 | 2026-09-02 00:02:20 | 51.41891 | 7.82168 | 239° | 11km/h | 22730m | 4.0m/s | -51.9°C | 1.0% | 38.2hPa | 2.5V | 00:00:00 | 00:00:00 | 00:00:00 | |
| GOEST3-10 | 2026-09-02 00:02:19 | 51.41892 | 7.82171 | 243° | 9km/h | 22725m | 5.6m/s | -51.8°C | 3.9% | 38.2hPa | 2.5V | 00:00:00 | 01:44:38 | 00:00:00 | |
| DO2KSM | 2026-09-02 00:02:18 | 51.41893 | 7.82175 | 258° | 9km/h | 22719m | 5.6m/s | -51.8°C | 1.0% | 38.3hPa | 2.5V | 00:00:00 | 00:00:00 | 00:00:00 | |
| DL1XH-west | 2026-09-02 00:02:17 | 51.41888 | 7.82154 | 279° | 7km/h | 22750m | 4.7m/s | -52°C | 0.4% | 38.1hPa | 2.5V | 18:12:15 | 01:44:43 | 00:00:00 | |
| DD8BA-10 | 2026-09-02 00:02:17 | 51.41894 | 7.82181 | 257° | 11km/h | 22709m | 5.3m/s | -51.7°C | 3.8% | 38.3hPa | 2.6V | 00:00:00 | 00:00:00 | 00:00:00 | |
| GOEST3-10 | 2026-09-02 00:02:16 | 51.41896 | 7.82189 | 243° | 11km/h | 22698m | 4.5m/s | -51.6°C | 3.8% | 38.4hPa | 2.6V | 00:00:00 | 00:00:00 | 08:30:00 | |
| DL1XH-15 | 2026-09-02 00:02:15 | 51.41894 | 7.82178 | 261° | 7km/h | 22713m | 4.9m/s | -51.8°C | 3.9% | 38.3hPa | 2.5V | 08:30:00 | 01:44:36 | 00:00:00 | |
| DO2SHX-10 | 2026-09-02 00:02:14 | 51.41899 | 7.82198 | 256° | 11km/h | 22688m | 6.2m/s | -51.6°C | 3.8% | 38.4hPa | 2.5V | 00:00:00 | 01:44:31 | 00:00:00 | |
| HSKMA3-T | 2026-09-02 00:02:13 | 51.41893 | 7.82172 | 243° | 9km/h | 22724m | 5.7m/s | -51.8°C | 0.5% | 38.2hPa | 2.5V | 18:12:15 | 01:44:38 | 00:00:00 | |
| DD1CC8 | 2026-09-02 00:02:12 | 51.41900 | 7.82206 | 253° | 7km/h | 22677m | 4.7m/s | -51.5°C | 1.0% | 38.5hPa | 2.5V | 00:00:00 | 00:00:00 | 00:00:00 | |
| BIOWL1-15 | 2026-09-02 00:02:11 | 51.41893 | 7.82175 | 257° | 9km/h | 22719m | 5.6m/s | -51.8°C | 0.4% | 38.3hPa | 2.5V | 18:12:15 | 01:44:37 | 00:00:00 | |
| DO3DL | 2026-09-02 00:02:11 | 51.41899 | 7.82206 | 254° | 9km/h | 22677m | 4.7m/s | -51.5°C | 1.0% | 38.5hPa | 2.6V | 00:00:00 | 00:00:00 | 00:00:00 | |
| DO2SHX-10 | 2026-09-02 00:02:10 | 51.41901 | 7.82209 | 235° | 11km/h | 22672m | 5.9m/s | -51.5°C | 3.8% | 38.5hPa | 2.6V | 00:00:00 | 01:44:28 | 00:00:00 | |
| DM0DOS-11 | 2026-09-02 00:02:09 | 51.41895 | 7.82185 | 245° | 11km/h | 22703m | 5.6m/s | -51.7°C | 3.8% | 38.4hPa | 2.6V | 08:30:00 | 01:44:34 | 00:00:00 | |
| DB0ND-19 | 2026-09-02 00:02:09 | 51.41907 | 7.82216 | 202° | 9km/h | 22656m | 6.2m/s | -51.4°C | 1.0% | 38.6hPa | 2.5V | 00:00:00 | 00:00:00 | 00:00:00 | |
| DL1XH-west | 2026-09-02 00:02:08 | 51.41899 | 7.82202 | 262° | 9km/h | 22682m | 5.3m/s | -51.6°C | 0.4% | 38.5hPa | 2.5V | 18:12:15 | 01:44:30 | 00:00:00 | |
| DO2JMG | 2026-09-02 00:02:07 | 51.41898 | 7.82194 | 246° | 13km/h | 22693m | 4.5m/s | -51.6°C | 0.4% | 38.4hPa | 2.6V | 18:12:15 | 01:44:32 | 00:00:00 | |
| DD8BA-10 | 2026-09-02 00:02:07 | 51.41907 | 7.82216 | 203° | 13km/h | 22656m | 6.1m/s | -51.4°C | 3.8% | 38.6hPa | 2.5V | 00:00:00 | 00:00:00 | 00:00:00 | |
| DL1NUX | 2026-09-02 00:02:03 | 51.41912 | 7.82219 | 203° | 9km/h | 22645m | 4.4m/s | -51.4°C | 3.7% | 38.7hPa | 2.5V | 08:30:00 | 01:44:23 | 00:00:00 | |
| HSKMA3-T | 2026-09-02 00:02:02 | 51.41901 | 7.82209 | 234° | 9km/h | 22672m | 6m/s | -51.5°C | 0.4% | 38.5hPa | 2.5V | 18:12:15 | 01:44:28 | 00:00:00 | |
| DD1CC9-15 | 2026-09-02 00:02:02 | 51.41914 | 7.82220 | 204° | 11km/h | 22641m | 5.6m/s | -51.3°C | 1.0% | 38.7hPa | 2.5V | 00:00:00 | 00:00:00 | 00:00:00 | |
| BIOWL1-15 | 2026-09-02 00:02:01 | 51.41910 | 7.82217 | 202° | 9km/h | 22650m | 5.1m/s | -51.4°C | 0.3% | 38.7hPa | 2.5V | 18:12:15 | 01:44:24 | 00:00:00 | |
| DO2SHX-10 | 2026-09-02 00:02:00 | 51.41922 | 7.82228 | 221° | 13km/h | 22626m | 5.3m/s | -51.3°C | 3.7% | 38.8hPa | 2.5V | 00:00:00 | 01:44:19 | 00:00:00 | |
| GOEST3-10 | 2026-09-02 00:01:59 | 51.41924 | 7.82232 | 237° | 15km/h | 22620m | 5.3m/s | -51.3°C | 3.7% | 38.8hPa | 2.5V | 00:00:00 | 01:44:18 | 00:00:00 | |
| DD1CC3-15 | 2026-09-02 00:01:58 | 51.41926 | 7.82236 | 245° | 13km/h | 22616m | 4.2m/s | -51.3°C | 0.9% | 38.9hPa | 2.6V | 00:00:00 | 00:00:00 | 00:00:00 | |
| HTAHTA | 2026-09-02 00:01:57 | 51.41942 | 7.82264 | 181° | 9km/h | 22580m | 4.6m/s | -51.4°C | 0.9% | 39.1hPa | 2.6V | 00:00:00 | 00:00:00 | 00:00:00 | |
| DO2JMG | 2026-09-02 00:01:56 | 51.41914 | 7.82220 | 203° | 11km/h | 22641m | 5.6m/s | -51.3°C | 0.4% | 38.7hPa | 2.6V | 18:12:15 | 01:44:22 | 00:00:00 | |
| DO3MHA-12 | 2026-09-02 00:01:55 | 51.41937 | 7.82262 | 220° | 15km/h | 22591m | 5.4m/s | -51.3°C | 3.7% | 39.0hPa | 2.5V | 00:00:00 | 01:44:12 | 00:00:00 | |
| AA1-15 | 2026-09-02 00:01:54 | 51.41924 | 7.82232 | 237° | 11km/h | 22620m | 5.3m/s | -51.3°C | 0.4% | 38.9hPa | 2.5V | 18:12:15 | 01:44:18 | 00:00:00 | |
| HSKMA3-T | 2026-09-02 00:01:53 | 51.41926 | 7.82236 | 244° | 13km/h | 22615m | 4.2m/s | -51.3°C | 0.3% | 38.9hPa | 2.6V | 18:12:15 | 01:44:17 | 00:00:00 | |
| DF8AY | 2026-09-02 00:01:52 | 51.41928 | 7.82241 | 242° | 16km/h | 22610m | 5.7m/s | -51.3°C | 0.3% | 38.9hPa | 2.6V | 18:12:15 | 01:44:16 | 00:00:00 | |
| DO2SHX-10 | 2026-09-02 00:01:51 | 51.41952 | 7.82264 | 176° | 16km/h | 22565m | 4.9m/s | -51.3°C | 3.7% | 39.1hPa | 2.5V | 00:00:00 | 01:44:07 | 00:00:00 | |
| BIOWL1-15 | 2026-09-02 00:01:50 | 51.41935 | 7.82258 | 227° | 15km/h | 22596m | 4.9m/s | -51.4°C | 0.3% | 39hPa | 2.5V | 18:12:15 | 01:44:13 | 00:00:00 | |
| DM0DOS-11 | 2026-09-02 00:01:50 | 51.41932 | 7.82253 | 231° | 18km/h | 22600m | 4m/s | -51.4°C | 3.7% | 39hPa | 2.5V | 08:30:00 | 01:44:14 | 00:00:00 | |
| DL3AQ-11 | 2026-09-02 00:01:48 | 51.41965 | 7.82263 | 188° | 16km/h | 22549m | 5.1m/s | -51.4°C | 0.9% | 39.3hPa | 2.6V | 00:00:00 | 00:00:00 | 00:00:00 | |
| BIOWL7-15 | 2026-09-02 00:01:47 | 51.41960 | 7.82262 | 179° | 16km/h | 22554m | 4.6m/s | -51.4°C | 0.9% | 39.2hPa | 2.6V | 00:00:00 | 00:00:00 | 00:00:00 | |
| DO2JMG | 2026-09-02 00:01:46 | 51.41940 | 7.82264 | 201° | 9km/h | 22585m | 5.2m/s | -51.4°C | 0.3% | 39hPa | 2.6V | 18:12:15 | 01:44:11 | 00:00:00 | |
| GOEST3-10 | 2026-09-02 00:01:45 | 51.41969 | 7.82265 | 199° | 20km/h | 22544m | 5.8m/s | -51.4°C | 3.6% | 39.3hPa | 2.6V | 00:00:00 | 00:00:00 | 00:00:00 | |
| DL1XH-15 | 2026-09-02 00:01:44 | 51.41956 | 7.82263 | 172° | 16km/h | 22559m | 5.9m/s | -51.4°C | 3.7% | 39.2hPa | 2.5V | 08:30:00 | 01:44:06 | 00:00:00 | |
| AA1-15 | 2026-09-02 00:01:44 | 51.41942 | 7.82264 | 181° | 9km/h | 22580m | 4.6m/s | -51.4°C | 0.3% | 39.1hPa | 2.6V | 18:12:15 | 01:44:10 | 00:00:00 | |
| DL1CLM-18 | 2026-09-02 00:01:44 | 51.41969 | 7.82265 | 199° | 20km/h | 22544m | 5.9m/s | -51.4°C | 0.9% | 39.3hPa | 2.5V | 00:00:00 | 00:00:00 | 00:00:00 | |
| DL1XH-west | 2026-09-02 00:01:43 | 51.41945 | 7.82264 | 179° | 13km/h | 22575m | 6m/s | -51.4°C | 0.3% | 39.1hPa | 2.5V | 18:12:15 | 01:44:09 | 00:00:00 | |
| DO2SHX-10 | 2026-09-02 00:01:43 | 51.41979 | 7.82272 | 208° | 18km/h | 22534m | 5.5m/s | -51.4°C | 3.7% | 39.3hPa | 2.5V | 00:00:00 | 01:44:01 | 00:00:00 | |
| HSKMA3-T | 2026-09-02 00:01:42 | 51.41952 | 7.82264 | 175° | 16km/h | 22564m | 4.9m/s | -51.4°C | 0.3% | 39.2hPa | 2.5V | 18:12:15 | 01:44:07 | 00:00:00 | |
| DD1CC1-15 | 2026-09-02 00:01:42 | 51.41988 | 7.82279 | 205° | 18km/h | 22523m | 4.4m/s | -51.6°C | 0.9% | 39.4hPa | 2.6V | 00:00:00 | 00:00:00 | 00:00:00 | |
| DO2SHX-10 | 2026-09-02 00:01:41 | 51.41992 | 7.82282 | 202° | 20km/h | 22519m | 4.9m/s | -51.5°C | 3.7% | 39.4hPa | 2.6V | 00:00:00 | 01:43:58 | 00:00:00 | |
| DF7PN | 2026-09-02 00:01:40 | 51.41996 | 7.82284 | 198° | 18km/h | 22513m | 5.4m/s | -51.6°C | 0.9% | 39.5hPa | 2.6V | 00:00:00 | 00:00:00 | 00:00:00 | |
| DJ2DS-15 | 2026-09-02 00:01:39 | 51.41996 | 7.82284 | 199° | 20km/h | 22513m | 5.4m/s | -51.6°C | 3.7% | 39.5hPa | 2.6V | 00:00:00 | 01:43:57 | 00:00:00 | |
| DD1CC3-15 | 2026-09-02 00:01:38 | 51.41996 | 7.82284 | 200° | 20km/h | 22513m | 5.4m/s | -51.6°C | 1.0% | 39.5hPa | 2.5V | 00:00:00 | 00:00:00 | 00:00:00 | |
| DO2KSM | 2026-09-02 00:01:37 | 51.42001 | 7.82286 | 195° | 20km/h | 22508m | 4.9m/s | -51.6°C | 1.0% | 39.5hPa | 2.5V | 00:00:00 | 00:00:00 | 00:00:00 | |
| BIOWL1-15 | 2026-09-02 00:01:36 | 51.41974 | 7.82268 | 205° | 22km/h | 22538m | 4.4m/s | -51.5°C | 0.3% | 39.4hPa | 2.5V | 18:12:15 | 01:44:02 | 00:00:00 | |
| DO2JMG | 2026-09-02 00:01:35 | 51.41979 | 7.82272 | 207° | 20km/h | 22534m | 5.6m/s | -51.5°C | 0.3% | 39.4hPa | 2.5V | 18:12:15 | 01:44:01 | 00:00:00 | |
| DL1XH-15 | 2026-09-02 00:01:35 | 51.42001 | 7.82287 | 194° | 20km/h | 22508m | 4.9m/s | -51.6°C | 3.8% | 39.5hPa | 2.5V | 08:30:00 | 01:43:56 | 00:00:00 | |
| AA1-15 | 2026-09-02 00:01:34 | 51.41992 | 7.82282 | 202° | 18km/h | 22518m | 5m/s | -51.6°C | 0.4% | 39.5hPa | 2.6V | 18:12:15 | 01:43:58 | 00:00:00 | |
| GOEST3-10 | 2026-09-02 00:01:34 | 51.42016 | 7.82286 | 162° | 22km/h | 22493m | 5.7m/s | -51.5°C | 3.8% | 39.6hPa | 2.5V | 00:00:00 | 00:00:00 | 00:00:00 | |
| DL1XH-west | 2026-09-02 00:01:34 | 51.41996 | 7.82284 | 199° | 20km/h | 22513m | 5.4m/s | -51.6°C | 0.3% | 39.5hPa | 2.6V | 18:12:15 | 01:43:57 | 00:00:00 | |
| HSKMA3-T | 2026-09-02 00:01:32 | 51.42001 | 7.82286 | 194° | 20km/h | 22508m | 4.9m/s | -51.6°C | 0.4% | 39.5hPa | 2.5V | 18:12:15 | 01:43:56 | 00:00:00 | |
| WPPR-10 | 2026-09-02 00:01:32 | 51.42025 | 7.82279 | 151° | 20km/h | 22482m | 5.2m/s | -51.5°C | 1.0% | 39.7hPa | 2.6V | 00:00:00 | 00:00:00 | 00:00:00 | |
| WEDDY | 2026-09-02 00:01:30 | 51.42025 | 7.82279 | 152° | 22km/h | 22482m | 5.2m/s | -51.5°C | 1.0% | 39.7hPa | 2.6V | 00:00:00 | 00:00:00 | 00:00:00 | |
| DO3MHA-11 | 2026-09-02 00:01:29 | 51.42030 | 7.82275 | 157° | 22km/h | 22477m | 5.3m/s | -51.5°C | 3.7% | 39.7hPa | 2.6V | 00:00:00 | 01:43:50 | 00:00:00 | |
| SO1NDE-10 | 2026-09-02 00:01:28 | 51.42036 | 7.82272 | 162° | 22km/h | 22472m | 4.2m/s | -51.5°C | 3.7% | 39.7hPa | 2.6V | 00:00:00 | 01:43:49 | 00:00:00 | |
| DF8AY | 2026-09-02 00:01:27 | 51.42016 | 7.82286 | 161° | 18km/h | 22493m | 5.8m/s | -51.6°C | 0.4% | 39.6hPa | 2.6V | 18:12:15 | 01:43:53 | 00:00:00 | |
| GOEST3-10 | 2026-09-02 00:01:27 | 51.42041 | 7.82269 | 163° | 22km/h | 22468m | 4.5m/s | -51.5°C | 3.8% | 39.7hPa | 2.6V | 00:00:00 | 01:43:48 | 08:30:00 | |
| DO2SHX-10 | 2026-09-02 00:01:26 | 51.42041 | 7.82269 | 163° | 22km/h | 22468m | 4.5m/s | -51.5°C | 3.8% | 39.7hPa | 2.6V | 00:00:00 | 01:43:48 | 08:30:00 | |
| BIOWL1-15 | 2026-09-02 00:01:26 | 51.42036 | 7.82272 | 161° | 24km/h | 22472m | 4.2m/s | -51.5°C | 0.3% | 39.7hPa | 2.5V | 18:12:15 | 01:43:49 | 00:00:00 | |
| DO1YAY-16 | 2026-09-02 00:01:25 | 51.42047 | 7.82266 | 161° | 20km/h | 22463m | 5.9m/s | -51.5°C | 0.9% | 39.8hPa | 2.5V | 00:00:00 | 00:00:00 | 00:00:00 | |
| DO2JMG | 2026-09-02 00:01:24 | 51.42030 | 7.82275 | 156° | 24km/h | 22477m | 5.4m/s | -51.5°C | 0.4% | 39.7hPa | 2.5V | 18:12:15 | 01:43:50 | 00:00:00 | |
| AU51GT2 | 2026-09-02 00:01:24 | 51.42051 | 7.82263 | 156° | 20km/h | 22457m | 5.3m/s | -51.5°C | 0.9% | 39.8hPa | 2.6V | 00:00:00 | 00:00:00 | 00:00:00 | |
| DD8BA-10 | 2026-09-02 00:01:23 | 51.42056 | 7.82260 | 154° | 20km/h | 22452m | 4.7m/s | -51.4°C | 3.7% | 39.8hPa | 2.6V | 00:00:00 | 00:00:00 | 00:00:00 | |
| AA1-15 | 2026-09-02 00:01:22 | 51.42041 | 7.82269 | 162° | 24km/h | 22468m | 4.5m/s | -51.5°C | 0.4% | 39.8hPa | 2.6V | 18:12:15 | 01:43:48 | 00:00:00 | |
| DL1XH-west | 2026-09-02 00:01:21 | 51.42047 | 7.82266 | 161° | 22km/h | 22462m | 5.9m/s | -51.5°C | 0.3% | 39.8hPa | 2.6V | 18:12:15 | 01:43:47 | 00:00:00 | |
| HSKMA3-T | 2026-09-02 00:01:21 | 51.42051 | 7.82263 | 157° | 20km/h | 22457m | 5.3m/s | -51.5°C | 0.3% | 39.8hPa | 2.5V | 18:12:15 | 01:43:46 | 00:00:00 | |
| DO2SHX-10 | 2026-09-02 00:01:20 | 51.42071 | 7.82249 | 157° | 20km/h | 22436m | 4.5m/s | -51.4°C | 3.7% | 39.9hPa | 2.5V | 00:00:00 | 01:43:42 | 00:00:00 | |
| DJ2DS-15 | 2026-09-02 00:01:19 | 51.42076 | 7.82245 | 150° | 20km/h | 22431m | 5.1m/s | -51.5°C | 0.9% | 40.0hPa | 2.5V | 00:00:00 | 00:00:00 | 00:00:00 | |
| DJ2KF-10 | 2026-09-02 00:01:18 | 51.42083 | 7.82236 | 132° | 22km/h | 22421m | 4.4m/s | -51.5°C | 3.7% | 40.0hPa | 2.5V | 00:00:00 | 01:43:39 | 00:00:00 | |
| DD1CC1-15 | 2026-09-02 00:01:17 | 51.42086 | 7.82230 | 132° | 18km/h | 22416m | 4.7m/s | -51.5°C | 0.9% | 40.1hPa | 2.5V | 00:00:00 | 00:00:00 | 00:00:00 | |
| DJ2DS-15 | 2026-09-02 00:01:16 | 51.42089 | 7.82225 | 138° | 22km/h | 22411m | 5.7m/s | -51.5°C | 3.7% | 40.1hPa | 2.5V | 00:00:00 | 01:43:37 | 00:00:00 | |
| DD1CC3-15 | 2026-09-02 00:01:15 | 51.42089 | 7.82225 | 138° | 18km/h | 22411m | 5.7m/s | -51.6°C | 1.0% | 40.1hPa | 2.5V | 00:00:00 | 00:00:00 | 00:00:00 | |
| DO2KSM | 2026-09-02 00:01:14 | 51.42093 | 7.82220 | 145° | 20km/h | 22406m | 5.2m/s | -51.5°C | 0.9% | 40.2hPa | 2.5V | 00:00:00 | 00:00:00 | 00:00:00 | |
| DO2JMG | 2026-09-02 00:01:13 | 51.42083 | 7.82236 | 131° | 18km/h | 22421m | 4.5m/s | -51.5°C | 0.3% | 40.1hPa | 2.5V | 18:12:15 | 01:43:39 | 00:00:00 | |
| DD8BA-10 | 2026-09-02 00:01:13 | 51.42097 | 7.82216 | 149° | 20km/h | 22401m | 4.3m/s | -51.5°C | 3.6% | 40.2hPa | 2.5V | 00:00:00 | 00:00:00 | 00:00:00 | |
| AA1-15 | 2026-09-02 00:01:12 | 51.42086 | 7.82230 | 131° | 18km/h | 22416m | 4.7m/s | -51.5°C | 0.3% | 40.1hPa | 2.5V | 18:12:15 | 01:43:38 | 00:00:00 | |
| DL1NUX | 2026-09-02 00:01:11 | 51.42105 | 7.82207 | 143° | 16km/h | 22391m | 5.7m/s | -51.5°C | 3.6% | 40.2hPa | 2.5V | 08:30:00 | 01:43:33 | 00:00:00 | |
| GOEST3-10 | 2026-09-02 00:01:11 | 51.42105 | 7.82207 | 144° | 18km/h | 22392m | 5.6m/s | -51.5°C | 3.6% | 40.2hPa | 2.5V | 00:00:00 | 00:00:00 | 00:00:00 | |
| DL1XH-west | 2026-09-02 00:01:11 | 51.42089 | 7.82225 | 137° | 18km/h | 22411m | 5.7m/s | -51.6°C | 0.3% | 40.1hPa | 2.6V | 18:12:15 | 01:43:37 | 00:00:00 | |
| HSKMA3-T | 2026-09-02 00:01:09 | 51.42097 | 7.82216 | 148° | 20km/h | 22401m | 4.4m/s | -51.5°C | 0.3% | 40.2hPa | 2.5V | 18:12:15 | 01:43:35 | 00:00:00 | |
| DL8DAS-15 | 2026-09-02 00:01:09 | 51.42105 | 7.82207 | 144° | 16km/h | 22392m | 5.7m/s | -51.5°C | 0.9% | 40.2hPa | 2.6V | 00:00:00 | 00:00:00 | 00:00:00 | |
| DD1CC2-15 | 2026-09-02 00:01:06 | 51.42110 | 7.82198 | 123° | 16km/h | 22381m | 4.2m/s | -51.5°C | 1.0% | 40.3hPa | 2.6V | 00:00:00 | 00:00:00 | 00:00:00 | |
| BIOWL1-15 | 2026-09-02 00:01:05 | 51.42110 | 7.82198 | 122° | 16km/h | 22381m | 4.2m/s | -51.5°C | 0.3% | 40.3hPa | 2.6V | 18:12:15 | 01:43:31 | 00:00:00 | |
| DO2SHX-10 | 2026-09-02 00:01:05 | 51.42113 | 7.82192 | 122° | 22km/h | 22377m | 5.3m/s | -51.5°C | 3.7% | 40.3hPa | 2.6V | 00:00:00 | 01:43:30 | 00:00:00 | |
| DL1XH-15 | 2026-09-02 00:01:05 | 51.42125 | 7.82158 | 111° | 27km/h | 22356m | 5.8m/s | -51.7°C | 3.7% | 40.5hPa | 2.5V | 08:30:00 | 01:43:26 | 00:00:00 | |
| DO3DL | 2026-09-02 00:01:04 | 51.42113 | 7.82192 | 123° | 18km/h | 22377m | 5.3m/s | -51.6°C | 0.9% | 40.4hPa | 2.6V | 00:00:00 | 00:00:00 | 00:00:00 | |
| DO2JMG | 2026-09-02 00:01:03 | 51.42115 | 7.82185 | 123° | 22km/h | 22371m | 5.2m/s | -51.6°C | 0.3% | 40.4hPa | 2.6V | 18:12:15 | 01:43:29 | 00:00:00 | |
| AA1-15 | 2026-09-02 00:01:02 | 51.42119 | 7.82177 | 121° | 26km/h | 22366m | 4.5m/s | -51.7°C | 0.3% | 40.4hPa | 2.5V | 18:12:15 | 01:43:28 | 00:00:00 | |
| DK9SH | 2026-09-02 00:01:02 | 51.42118 | 7.82177 | 122° | 26km/h | 22367m | 4.5m/s | -51.7°C | 0.9% | 40.4hPa | 2.5V | 00:00:00 | 00:00:00 | 00:00:00 | |
| DL1XH-west | 2026-09-02 00:01:01 | 51.42122 | 7.82168 | 116° | 27km/h | 22362m | 4.9m/s | -51.7°C | 0.3% | 40.4hPa | 2.5V | 18:12:15 | 01:43:27 | 00:00:00 | |
| DO2SHX-10 | 2026-09-02 00:01:01 | 51.42121 | 7.82168 | 117° | 27km/h | 22362m | 4.8m/s | -51.6°C | 3.7% | 40.4hPa | 2.5V | 00:00:00 | 01:43:27 | 00:00:00 | |
| DO3MHA-11 | 2026-09-02 00:01:00 | 51.42124 | 7.82158 | 112° | 26km/h | 22356m | 5.8m/s | -51.7°C | 3.7% | 40.4hPa | 2.5V | 00:00:00 | 01:43:26 | 00:00:00 | |
| HSKMA3-T | 2026-09-02 00:00:59 | 51.42127 | 7.82147 | 106° | 27km/h | 22351m | 4.7m/s | -51.7°C | 0.4% | 40.5hPa | 2.5V | 18:12:15 | 01:43:25 | 00:00:00 | |
| DO3DL | 2026-09-02 00:00:59 | 51.42128 | 7.82137 | 106° | 27km/h | 22347m | 3.9m/s | -51.7°C | 0.9% | 40.5hPa | 2.5V | 00:00:00 | 00:00:00 | 00:00:00 | |
| GOEST3-10 | 2026-09-02 00:00:58 | 51.42130 | 7.82126 | 110° | 27km/h | 22342m | 5.4m/s | -51.7°C | 3.7% | 40.5hPa | 2.5V | 00:00:00 | 00:00:00 | 00:00:00 | |
| DL1LOL-11 | 2026-09-02 00:00:57 | 51.42133 | 7.82115 | 114° | 29km/h | 22337m | 5.5m/s | -51.7°C | 1.0% | 40.6hPa | 2.5V | 00:00:00 | 00:00:00 | 00:00:00 | |
| DO2SHX-10 | 2026-09-02 00:00:56 | 51.42136 | 7.82104 | 114° | 27km/h | 22332m | 4.0m/s | 0°C | 0% | 0hPa | 2.5V | 00:00:00 | 01:43:21 | 08:30:00 | |
| BIOWL1-15 | 2026-09-02 00:00:55 | 51.42136 | 7.82104 | 114° | 29km/h | 22332m | 4.1m/s | -51.7°C | 0.3% | 40.6hPa | 2.5V | 18:12:15 | 01:43:21 | 00:00:00 | |
| WPPR-10 | 2026-09-02 00:00:55 | 51.42139 | 7.82094 | 110° | 27km/h | 22328m | 4.1m/s | -51.7°C | 1.0% | 40.6hPa | 2.5V | 00:00:00 | 00:00:00 | 00:00:00 | |
| DM0DOS-11 | 2026-09-02 00:00:54 | 51.42141 | 7.82047 | 94° | 18km/h | 22299m | 4.8m/s | -52°C | 3.8% | 40.8hPa | 2.5V | 08:30:00 | 01:43:14 | 00:00:00 | |
| DO2JMG | 2026-09-02 00:00:53 | 51.42141 | 7.82084 | 105° | 24km/h | 22323m | 5.2m/s | -51.7°C | 0.3% | 40.7hPa | 2.5V | 18:12:15 | 01:43:19 | 00:00:00 | |
| DL1XH1-15 | 2026-09-02 00:00:53 | 51.42141 | 7.82060 | 80° | 16km/h | 22308m | 3.9m/s | -51.9°C | 3.7% | 40.8hPa | 2.6V | 08:30:00 | 01:43:16 | 00:00:00 | |
| SO1NDE-10 | 2026-09-02 00:00:53 | 51.42141 | 7.82084 | 105° | 31km/h | 22324m | 5.2m/s | -51.7°C | 3.7% | 40.6hPa | 2.6V | 00:00:00 | 01:43:19 | 00:00:00 | |
| DO2SHX-10 | 2026-09-02 00:00:52 | 51.42142 | 7.82075 | 95° | 18km/h | 22318m | 5.4m/s | 0°C | 0% | 0hPa | 2.6V | 00:00:00 | 01:43:18 | 00:00:00 | |
| AA1-15 | 2026-09-02 00:00:51 | 51.42142 | 7.82067 | 82° | 18km/h | 22313m | 5m/s | -51.8°C | 0.3% | 40.7hPa | 2.6V | 18:12:15 | 01:43:17 | 00:00:00 | |
| DO3DL | 2026-09-02 00:00:51 | 51.42142 | 7.82067 | 83° | 18km/h | 22313m | 5.0m/s | -51.8°C | 0.9% | 40.7hPa | 2.6V | 00:00:00 | 00:00:00 | 00:00:00 | |
| DL1XH-west | 2026-09-02 00:00:50 | 51.42141 | 7.82060 | 81° | 16km/h | 22308m | 3.9m/s | -51.9°C | 0.3% | 40.8hPa | 2.6V | 18:12:15 | 01:43:16 | 00:00:00 | |
| SONCRA | 2026-09-02 00:00:50 | 51.42141 | 7.82039 | 97° | 20km/h | 22294m | 4.2m/s | -52.1°C | 1.0% | 40.9hPa | 2.5V | 00:00:00 | 00:00:00 | 00:00:00 | |
| HTAHTA | 2026-09-02 00:00:49 | 51.42142 | 7.82020 | 92° | 26km/h | 22284m | 5.3m/s | -52.2°C | 1.0% | 40.9hPa | 2.5V | 00:00:00 | 00:00:00 | 00:00:00 | |
| HSKMA3-T | 2026-09-02 00:00:48 | 51.42140 | 7.82047 | 94° | 18km/h | 22299m | 4.8m/s | -52°C | 0.4% | 40.8hPa | 2.5V | 18:12:15 | 01:43:14 | 00:00:00 | |
| DD1CC2-15 | 2026-09-02 00:00:48 | 51.42142 | 7.82008 | 93° | 31km/h | 22279m | 4.2m/s | -52.1°C | 1.0% | 41.0hPa | 2.5V | 00:00:00 | 00:00:00 | 00:00:00 | |
| WEDDY | 2026-09-02 00:00:47 | 51.42142 | 7.81995 | 96° | 35km/h | 22274m | 5.6m/s | -52.1°C | 1.0% | 41.0hPa | 2.5V | 00:00:00 | 00:00:00 | 00:00:00 | |
| DF8AY | 2026-09-02 00:00:46 | 51.42143 | 7.81995 | 95° | 35km/h | 22274m | 5.6m/s | -52.1°C | 0.4% | 41hPa | 2.5V | 18:12:15 | 01:43:09 | 00:00:00 | |
| BIOWL1-15 | 2026-09-02 00:00:45 | 51.42142 | 7.82009 | 92° | 31km/h | 22279m | 4.2m/s | -52.1°C | 0.3% | 41hPa | 2.6V | 18:12:15 | 01:43:10 | 00:00:00 | |
| DK9SH | 2026-09-02 00:00:45 | 51.42144 | 7.81964 | 95° | 42km/h | 22264m | 4.3m/s | -52.1°C | 1.0% | 41.0hPa | 2.5V | 00:00:00 | 00:00:00 | 00:00:00 | |
| Es werden nur die letzten 3500 von 6984 Frames angezeigt. GPX/KML und Diagramme bleiben verfügbar. | |||||||||||||||